<?xml version="1.0" encoding="UTF-8" standalone="no" ?>
<gpx xmlns="http://www.topografix.com/GPX/1/1" xmlns:xsi="http://www.w3.org/2001/XMLSchema-instance" xsi:schemaLocation="http://www.topografix.com/GPX/1/1 http://www.topografix.com/GPX/1/1/gpx.xsd" version="1.1" creator="VisuGPX - https://www.visugpx.com">
  <metadata>
    <name>Tournoi de foot forges</name>
  </metadata>
  <trk>
    <name><![CDATA[Sortie vélo le matin_1]]></name>
    <extensions>
      <line xmlns="http://www.topografix.com/GPX/gpx_style/0/2">
        <color>0000FF</color>
        <width>4</width>
      </line>
    </extensions>
    <trkseg>
      <trkpt lat="48.62253" lon="2.01865">
        <ele>129</ele>
        <time>2026-05-24T07:41:50Z</time>
      </trkpt>
      <trkpt lat="48.62253" lon="2.01865">
        <ele>129</ele>
        <time>2026-05-24T07:41:51Z</time>
      </trkpt>
      <trkpt lat="48.62253" lon="2.0187">
        <ele>130</ele>
        <time>2026-05-24T07:41:52Z</time>
      </trkpt>
      <trkpt lat="48.62252" lon="2.01873">
        <ele>131.4</ele>
        <time>2026-05-24T07:41:53Z</time>
      </trkpt>
      <trkpt lat="48.6225" lon="2.01876">
        <ele>131.4</ele>
        <time>2026-05-24T07:41:54Z</time>
      </trkpt>
      <trkpt lat="48.62247" lon="2.01878">
        <ele>131.4</ele>
        <time>2026-05-24T07:41:55Z</time>
      </trkpt>
      <trkpt lat="48.62244" lon="2.01879">
        <ele>130.8</ele>
        <time>2026-05-24T07:41:56Z</time>
      </trkpt>
      <trkpt lat="48.62241" lon="2.01881">
        <ele>131.2</ele>
        <time>2026-05-24T07:41:57Z</time>
      </trkpt>
      <trkpt lat="48.62237" lon="2.01884">
        <ele>131.2</ele>
        <time>2026-05-24T07:41:58Z</time>
      </trkpt>
      <trkpt lat="48.62234" lon="2.01886">
        <ele>131.2</ele>
        <time>2026-05-24T07:41:59Z</time>
      </trkpt>
      <trkpt lat="48.62232" lon="2.01889">
        <ele>130.6</ele>
        <time>2026-05-24T07:42:00Z</time>
      </trkpt>
      <trkpt lat="48.62229" lon="2.01893">
        <ele>130.8</ele>
        <time>2026-05-24T07:42:01Z</time>
      </trkpt>
      <trkpt lat="48.62228" lon="2.01897">
        <ele>130.8</ele>
        <time>2026-05-24T07:42:02Z</time>
      </trkpt>
      <trkpt lat="48.62226" lon="2.01903">
        <ele>130.8</ele>
        <time>2026-05-24T07:42:03Z</time>
      </trkpt>
      <trkpt lat="48.62225" lon="2.01908">
        <ele>130.8</ele>
        <time>2026-05-24T07:42:04Z</time>
      </trkpt>
      <trkpt lat="48.62224" lon="2.01913">
        <ele>130.6</ele>
        <time>2026-05-24T07:42:05Z</time>
      </trkpt>
      <trkpt lat="48.62223" lon="2.01918">
        <ele>130.6</ele>
        <time>2026-05-24T07:42:06Z</time>
      </trkpt>
      <trkpt lat="48.62223" lon="2.01922">
        <ele>130.6</ele>
        <time>2026-05-24T07:42:07Z</time>
      </trkpt>
      <trkpt lat="48.62222" lon="2.01928">
        <ele>130.8</ele>
        <time>2026-05-24T07:42:08Z</time>
      </trkpt>
      <trkpt lat="48.62222" lon="2.01933">
        <ele>131</ele>
        <time>2026-05-24T07:42:09Z</time>
      </trkpt>
      <trkpt lat="48.62221" lon="2.0194">
        <ele>131</ele>
        <time>2026-05-24T07:42:10Z</time>
      </trkpt>
      <trkpt lat="48.62221" lon="2.01946">
        <ele>131</ele>
        <time>2026-05-24T07:42:11Z</time>
      </trkpt>
      <trkpt lat="48.6222" lon="2.01952">
        <ele>130.8</ele>
        <time>2026-05-24T07:42:12Z</time>
      </trkpt>
      <trkpt lat="48.6222" lon="2.01958">
        <ele>130</ele>
        <time>2026-05-24T07:42:13Z</time>
      </trkpt>
      <trkpt lat="48.62219" lon="2.01965">
        <ele>130</ele>
        <time>2026-05-24T07:42:14Z</time>
      </trkpt>
      <trkpt lat="48.62219" lon="2.01971">
        <ele>130</ele>
        <time>2026-05-24T07:42:15Z</time>
      </trkpt>
      <trkpt lat="48.62218" lon="2.01978">
        <ele>130.6</ele>
        <time>2026-05-24T07:42:16Z</time>
      </trkpt>
      <trkpt lat="48.62217" lon="2.01985">
        <ele>130.6</ele>
        <time>2026-05-24T07:42:17Z</time>
      </trkpt>
      <trkpt lat="48.62216" lon="2.01991">
        <ele>130.6</ele>
        <time>2026-05-24T07:42:18Z</time>
      </trkpt>
      <trkpt lat="48.62215" lon="2.01998">
        <ele>130.6</ele>
        <time>2026-05-24T07:42:19Z</time>
      </trkpt>
      <trkpt lat="48.62214" lon="2.02004">
        <ele>130.4</ele>
        <time>2026-05-24T07:42:20Z</time>
      </trkpt>
      <trkpt lat="48.62213" lon="2.02011">
        <ele>130.2</ele>
        <time>2026-05-24T07:42:21Z</time>
      </trkpt>
      <trkpt lat="48.62212" lon="2.02018">
        <ele>130.2</ele>
        <time>2026-05-24T07:42:22Z</time>
      </trkpt>
      <trkpt lat="48.62212" lon="2.02024">
        <ele>130.2</ele>
        <time>2026-05-24T07:42:23Z</time>
      </trkpt>
      <trkpt lat="48.62211" lon="2.0203">
        <ele>130.2</ele>
        <time>2026-05-24T07:42:24Z</time>
      </trkpt>
      <trkpt lat="48.6221" lon="2.02037">
        <ele>130.2</ele>
        <time>2026-05-24T07:42:25Z</time>
      </trkpt>
      <trkpt lat="48.62209" lon="2.02044">
        <ele>130.2</ele>
        <time>2026-05-24T07:42:26Z</time>
      </trkpt>
      <trkpt lat="48.62208" lon="2.0205">
        <ele>130.2</ele>
        <time>2026-05-24T07:42:27Z</time>
      </trkpt>
      <trkpt lat="48.62208" lon="2.02057">
        <ele>130.8</ele>
        <time>2026-05-24T07:42:28Z</time>
      </trkpt>
      <trkpt lat="48.62207" lon="2.02063">
        <ele>130.6</ele>
        <time>2026-05-24T07:42:29Z</time>
      </trkpt>
      <trkpt lat="48.62206" lon="2.0207">
        <ele>130.6</ele>
        <time>2026-05-24T07:42:30Z</time>
      </trkpt>
      <trkpt lat="48.62205" lon="2.02077">
        <ele>130.6</ele>
        <time>2026-05-24T07:42:31Z</time>
      </trkpt>
      <trkpt lat="48.62204" lon="2.02084">
        <ele>130.2</ele>
        <time>2026-05-24T07:42:32Z</time>
      </trkpt>
      <trkpt lat="48.62204" lon="2.0209">
        <ele>130.4</ele>
        <time>2026-05-24T07:42:33Z</time>
      </trkpt>
      <trkpt lat="48.62203" lon="2.02097">
        <ele>130.4</ele>
        <time>2026-05-24T07:42:34Z</time>
      </trkpt>
      <trkpt lat="48.62202" lon="2.02103">
        <ele>130.4</ele>
        <time>2026-05-24T07:42:35Z</time>
      </trkpt>
      <trkpt lat="48.62202" lon="2.02109">
        <ele>130.4</ele>
        <time>2026-05-24T07:42:36Z</time>
      </trkpt>
      <trkpt lat="48.62201" lon="2.02115">
        <ele>131.2</ele>
        <time>2026-05-24T07:42:37Z</time>
      </trkpt>
      <trkpt lat="48.62201" lon="2.02121">
        <ele>131.2</ele>
        <time>2026-05-24T07:42:38Z</time>
      </trkpt>
      <trkpt lat="48.622" lon="2.02127">
        <ele>131.2</ele>
        <time>2026-05-24T07:42:39Z</time>
      </trkpt>
      <trkpt lat="48.62199" lon="2.02132">
        <ele>130.8</ele>
        <time>2026-05-24T07:42:40Z</time>
      </trkpt>
      <trkpt lat="48.62198" lon="2.02138">
        <ele>130.2</ele>
        <time>2026-05-24T07:42:41Z</time>
      </trkpt>
      <trkpt lat="48.62198" lon="2.02144">
        <ele>130.2</ele>
        <time>2026-05-24T07:42:42Z</time>
      </trkpt>
      <trkpt lat="48.62197" lon="2.0215">
        <ele>130.2</ele>
        <time>2026-05-24T07:42:43Z</time>
      </trkpt>
      <trkpt lat="48.62196" lon="2.02155">
        <ele>130.2</ele>
        <time>2026-05-24T07:42:44Z</time>
      </trkpt>
      <trkpt lat="48.62196" lon="2.02161">
        <ele>130.2</ele>
        <time>2026-05-24T07:42:45Z</time>
      </trkpt>
      <trkpt lat="48.62195" lon="2.02167">
        <ele>130.2</ele>
        <time>2026-05-24T07:42:46Z</time>
      </trkpt>
      <trkpt lat="48.62194" lon="2.02172">
        <ele>130.2</ele>
        <time>2026-05-24T07:42:47Z</time>
      </trkpt>
      <trkpt lat="48.62194" lon="2.02178">
        <ele>130.2</ele>
        <time>2026-05-24T07:42:48Z</time>
      </trkpt>
      <trkpt lat="48.62193" lon="2.02183">
        <ele>131</ele>
        <time>2026-05-24T07:42:49Z</time>
      </trkpt>
      <trkpt lat="48.62193" lon="2.02188">
        <ele>131</ele>
        <time>2026-05-24T07:42:50Z</time>
      </trkpt>
      <trkpt lat="48.62192" lon="2.02193">
        <ele>131</ele>
        <time>2026-05-24T07:42:51Z</time>
      </trkpt>
      <trkpt lat="48.62192" lon="2.02198">
        <ele>130.4</ele>
        <time>2026-05-24T07:42:52Z</time>
      </trkpt>
      <trkpt lat="48.62192" lon="2.02204">
        <ele>130.2</ele>
        <time>2026-05-24T07:42:53Z</time>
      </trkpt>
      <trkpt lat="48.6219" lon="2.02209">
        <ele>130.2</ele>
        <time>2026-05-24T07:42:54Z</time>
      </trkpt>
      <trkpt lat="48.62188" lon="2.02214">
        <ele>130.2</ele>
        <time>2026-05-24T07:42:55Z</time>
      </trkpt>
      <trkpt lat="48.62185" lon="2.02218">
        <ele>130.2</ele>
        <time>2026-05-24T07:42:56Z</time>
      </trkpt>
      <trkpt lat="48.62181" lon="2.02222">
        <ele>130.2</ele>
        <time>2026-05-24T07:42:57Z</time>
      </trkpt>
      <trkpt lat="48.62177" lon="2.02226">
        <ele>130.2</ele>
        <time>2026-05-24T07:42:58Z</time>
      </trkpt>
      <trkpt lat="48.62174" lon="2.0223">
        <ele>130.2</ele>
        <time>2026-05-24T07:42:59Z</time>
      </trkpt>
      <trkpt lat="48.6217" lon="2.02235">
        <ele>129.2</ele>
        <time>2026-05-24T07:43:00Z</time>
      </trkpt>
      <trkpt lat="48.62167" lon="2.02242">
        <ele>129</ele>
        <time>2026-05-24T07:43:01Z</time>
      </trkpt>
      <trkpt lat="48.62165" lon="2.02249">
        <ele>129</ele>
        <time>2026-05-24T07:43:02Z</time>
      </trkpt>
      <trkpt lat="48.62162" lon="2.02254">
        <ele>129</ele>
        <time>2026-05-24T07:43:03Z</time>
      </trkpt>
      <trkpt lat="48.6216" lon="2.02261">
        <ele>128.6</ele>
        <time>2026-05-24T07:43:04Z</time>
      </trkpt>
      <trkpt lat="48.62158" lon="2.02267">
        <ele>128.4</ele>
        <time>2026-05-24T07:43:05Z</time>
      </trkpt>
      <trkpt lat="48.62155" lon="2.02272">
        <ele>128.4</ele>
        <time>2026-05-24T07:43:06Z</time>
      </trkpt>
      <trkpt lat="48.62152" lon="2.02278">
        <ele>128.4</ele>
        <time>2026-05-24T07:43:07Z</time>
      </trkpt>
      <trkpt lat="48.62148" lon="2.02283">
        <ele>128.4</ele>
        <time>2026-05-24T07:43:08Z</time>
      </trkpt>
      <trkpt lat="48.62144" lon="2.02289">
        <ele>127.4</ele>
        <time>2026-05-24T07:43:09Z</time>
      </trkpt>
      <trkpt lat="48.6214" lon="2.02294">
        <ele>127.4</ele>
        <time>2026-05-24T07:43:10Z</time>
      </trkpt>
      <trkpt lat="48.62136" lon="2.023">
        <ele>127.4</ele>
        <time>2026-05-24T07:43:11Z</time>
      </trkpt>
      <trkpt lat="48.62132" lon="2.02305">
        <ele>127.4</ele>
        <time>2026-05-24T07:43:12Z</time>
      </trkpt>
      <trkpt lat="48.62127" lon="2.0231">
        <ele>127.2</ele>
        <time>2026-05-24T07:43:13Z</time>
      </trkpt>
      <trkpt lat="48.62123" lon="2.02316">
        <ele>127.2</ele>
        <time>2026-05-24T07:43:14Z</time>
      </trkpt>
      <trkpt lat="48.62119" lon="2.02321">
        <ele>127.2</ele>
        <time>2026-05-24T07:43:15Z</time>
      </trkpt>
      <trkpt lat="48.62115" lon="2.02326">
        <ele>127.2</ele>
        <time>2026-05-24T07:43:16Z</time>
      </trkpt>
      <trkpt lat="48.62111" lon="2.02331">
        <ele>127</ele>
        <time>2026-05-24T07:43:17Z</time>
      </trkpt>
      <trkpt lat="48.62106" lon="2.02334">
        <ele>127</ele>
        <time>2026-05-24T07:43:18Z</time>
      </trkpt>
      <trkpt lat="48.62102" lon="2.02338">
        <ele>127</ele>
        <time>2026-05-24T07:43:19Z</time>
      </trkpt>
      <trkpt lat="48.62098" lon="2.02342">
        <ele>126.6</ele>
        <time>2026-05-24T07:43:20Z</time>
      </trkpt>
      <trkpt lat="48.62094" lon="2.02346">
        <ele>126.4</ele>
        <time>2026-05-24T07:43:21Z</time>
      </trkpt>
      <trkpt lat="48.62091" lon="2.02348">
        <ele>126.4</ele>
        <time>2026-05-24T07:43:22Z</time>
      </trkpt>
      <trkpt lat="48.62089" lon="2.02349">
        <ele>126.4</ele>
        <time>2026-05-24T07:43:23Z</time>
      </trkpt>
      <trkpt lat="48.62087" lon="2.02351">
        <ele>126.4</ele>
        <time>2026-05-24T07:43:24Z</time>
      </trkpt>
      <trkpt lat="48.62085" lon="2.02353">
        <ele>126.8</ele>
        <time>2026-05-24T07:43:25Z</time>
      </trkpt>
      <trkpt lat="48.62084" lon="2.02355">
        <ele>126.8</ele>
        <time>2026-05-24T07:43:26Z</time>
      </trkpt>
      <trkpt lat="48.62084" lon="2.02355">
        <ele>126.8</ele>
        <time>2026-05-24T07:43:27Z</time>
      </trkpt>
      <trkpt lat="48.62084" lon="2.02355">
        <ele>126.2</ele>
        <time>2026-05-24T07:43:28Z</time>
      </trkpt>
      <trkpt lat="48.62082" lon="2.02356">
        <ele>126.4</ele>
        <time>2026-05-24T07:43:29Z</time>
      </trkpt>
      <trkpt lat="48.6208" lon="2.02358">
        <ele>126.4</ele>
        <time>2026-05-24T07:43:30Z</time>
      </trkpt>
      <trkpt lat="48.62079" lon="2.0236">
        <ele>126.4</ele>
        <time>2026-05-24T07:43:31Z</time>
      </trkpt>
      <trkpt lat="48.62077" lon="2.02361">
        <ele>126.2</ele>
        <time>2026-05-24T07:43:32Z</time>
      </trkpt>
      <trkpt lat="48.62075" lon="2.02363">
        <ele>126.2</ele>
        <time>2026-05-24T07:43:33Z</time>
      </trkpt>
      <trkpt lat="48.62072" lon="2.02364">
        <ele>126.2</ele>
        <time>2026-05-24T07:43:34Z</time>
      </trkpt>
      <trkpt lat="48.62068" lon="2.02364">
        <ele>126.2</ele>
        <time>2026-05-24T07:43:35Z</time>
      </trkpt>
      <trkpt lat="48.62065" lon="2.02366">
        <ele>126.2</ele>
        <time>2026-05-24T07:43:36Z</time>
      </trkpt>
      <trkpt lat="48.62063" lon="2.02368">
        <ele>125.4</ele>
        <time>2026-05-24T07:43:37Z</time>
      </trkpt>
      <trkpt lat="48.62059" lon="2.02371">
        <ele>125.4</ele>
        <time>2026-05-24T07:43:38Z</time>
      </trkpt>
      <trkpt lat="48.62057" lon="2.02372">
        <ele>125.4</ele>
        <time>2026-05-24T07:43:39Z</time>
      </trkpt>
      <trkpt lat="48.62053" lon="2.02375">
        <ele>125.4</ele>
        <time>2026-05-24T07:43:40Z</time>
      </trkpt>
      <trkpt lat="48.6205" lon="2.02377">
        <ele>125.8</ele>
        <time>2026-05-24T07:43:41Z</time>
      </trkpt>
      <trkpt lat="48.62046" lon="2.02378">
        <ele>125.8</ele>
        <time>2026-05-24T07:43:42Z</time>
      </trkpt>
      <trkpt lat="48.62043" lon="2.0238">
        <ele>125.8</ele>
        <time>2026-05-24T07:43:43Z</time>
      </trkpt>
      <trkpt lat="48.62039" lon="2.02381">
        <ele>125.4</ele>
        <time>2026-05-24T07:43:44Z</time>
      </trkpt>
      <trkpt lat="48.62035" lon="2.02383">
        <ele>125.4</ele>
        <time>2026-05-24T07:43:45Z</time>
      </trkpt>
      <trkpt lat="48.62032" lon="2.02384">
        <ele>125.4</ele>
        <time>2026-05-24T07:43:46Z</time>
      </trkpt>
      <trkpt lat="48.62027" lon="2.02387">
        <ele>125.4</ele>
        <time>2026-05-24T07:43:47Z</time>
      </trkpt>
      <trkpt lat="48.62024" lon="2.02389">
        <ele>124.4</ele>
        <time>2026-05-24T07:43:48Z</time>
      </trkpt>
      <trkpt lat="48.6202" lon="2.02391">
        <ele>124.4</ele>
        <time>2026-05-24T07:43:49Z</time>
      </trkpt>
      <trkpt lat="48.62014" lon="2.02393">
        <ele>124.4</ele>
        <time>2026-05-24T07:43:50Z</time>
      </trkpt>
      <trkpt lat="48.6201" lon="2.02394">
        <ele>124.4</ele>
        <time>2026-05-24T07:43:51Z</time>
      </trkpt>
      <trkpt lat="48.62005" lon="2.02395">
        <ele>124.4</ele>
        <time>2026-05-24T07:43:52Z</time>
      </trkpt>
      <trkpt lat="48.62001" lon="2.02396">
        <ele>124.4</ele>
        <time>2026-05-24T07:43:53Z</time>
      </trkpt>
      <trkpt lat="48.61997" lon="2.02397">
        <ele>124.4</ele>
        <time>2026-05-24T07:43:54Z</time>
      </trkpt>
      <trkpt lat="48.61994" lon="2.02398">
        <ele>124.4</ele>
        <time>2026-05-24T07:43:55Z</time>
      </trkpt>
      <trkpt lat="48.61991" lon="2.024">
        <ele>124</ele>
        <time>2026-05-24T07:43:56Z</time>
      </trkpt>
      <trkpt lat="48.61989" lon="2.024">
        <ele>123.6</ele>
        <time>2026-05-24T07:43:57Z</time>
      </trkpt>
      <trkpt lat="48.61986" lon="2.024">
        <ele>123.6</ele>
        <time>2026-05-24T07:43:58Z</time>
      </trkpt>
      <trkpt lat="48.61984" lon="2.02397">
        <ele>123.6</ele>
        <time>2026-05-24T07:43:59Z</time>
      </trkpt>
      <trkpt lat="48.61983" lon="2.02394">
        <ele>123.6</ele>
        <time>2026-05-24T07:44:00Z</time>
      </trkpt>
      <trkpt lat="48.61982" lon="2.0239">
        <ele>123.4</ele>
        <time>2026-05-24T07:44:01Z</time>
      </trkpt>
      <trkpt lat="48.6198" lon="2.02386">
        <ele>123.4</ele>
        <time>2026-05-24T07:44:02Z</time>
      </trkpt>
      <trkpt lat="48.61979" lon="2.02381">
        <ele>123.4</ele>
        <time>2026-05-24T07:44:03Z</time>
      </trkpt>
      <trkpt lat="48.61978" lon="2.02376">
        <ele>122.6</ele>
        <time>2026-05-24T07:44:04Z</time>
      </trkpt>
      <trkpt lat="48.61978" lon="2.02372">
        <ele>123</ele>
        <time>2026-05-24T07:44:05Z</time>
      </trkpt>
      <trkpt lat="48.61976" lon="2.02368">
        <ele>123</ele>
        <time>2026-05-24T07:44:06Z</time>
      </trkpt>
      <trkpt lat="48.61974" lon="2.02364">
        <ele>123</ele>
        <time>2026-05-24T07:44:07Z</time>
      </trkpt>
      <trkpt lat="48.61971" lon="2.02363">
        <ele>122.6</ele>
        <time>2026-05-24T07:44:08Z</time>
      </trkpt>
      <trkpt lat="48.61968" lon="2.02363">
        <ele>122.2</ele>
        <time>2026-05-24T07:44:09Z</time>
      </trkpt>
      <trkpt lat="48.61965" lon="2.02363">
        <ele>122.2</ele>
        <time>2026-05-24T07:44:10Z</time>
      </trkpt>
      <trkpt lat="48.61961" lon="2.02364">
        <ele>122.2</ele>
        <time>2026-05-24T07:44:11Z</time>
      </trkpt>
      <trkpt lat="48.61957" lon="2.02367">
        <ele>121.4</ele>
        <time>2026-05-24T07:44:12Z</time>
      </trkpt>
      <trkpt lat="48.61954" lon="2.02368">
        <ele>120.8</ele>
        <time>2026-05-24T07:44:13Z</time>
      </trkpt>
      <trkpt lat="48.6195" lon="2.0237">
        <ele>120.8</ele>
        <time>2026-05-24T07:44:14Z</time>
      </trkpt>
      <trkpt lat="48.61948" lon="2.02371">
        <ele>120.8</ele>
        <time>2026-05-24T07:44:15Z</time>
      </trkpt>
      <trkpt lat="48.61944" lon="2.02373">
        <ele>121.8</ele>
        <time>2026-05-24T07:44:16Z</time>
      </trkpt>
      <trkpt lat="48.61942" lon="2.02374">
        <ele>121.6</ele>
        <time>2026-05-24T07:44:17Z</time>
      </trkpt>
      <trkpt lat="48.61939" lon="2.02376">
        <ele>121.6</ele>
        <time>2026-05-24T07:44:18Z</time>
      </trkpt>
      <trkpt lat="48.61936" lon="2.02377">
        <ele>121.6</ele>
        <time>2026-05-24T07:44:19Z</time>
      </trkpt>
      <trkpt lat="48.61933" lon="2.02378">
        <ele>121.6</ele>
        <time>2026-05-24T07:44:20Z</time>
      </trkpt>
      <trkpt lat="48.6193" lon="2.02379">
        <ele>121.8</ele>
        <time>2026-05-24T07:44:21Z</time>
      </trkpt>
      <trkpt lat="48.61927" lon="2.0238">
        <ele>121.8</ele>
        <time>2026-05-24T07:44:22Z</time>
      </trkpt>
      <trkpt lat="48.61925" lon="2.02381">
        <ele>121.8</ele>
        <time>2026-05-24T07:44:23Z</time>
      </trkpt>
      <trkpt lat="48.61922" lon="2.02381">
        <ele>121.8</ele>
        <time>2026-05-24T07:44:24Z</time>
      </trkpt>
      <trkpt lat="48.61919" lon="2.02381">
        <ele>122.2</ele>
        <time>2026-05-24T07:44:25Z</time>
      </trkpt>
      <trkpt lat="48.61916" lon="2.02381">
        <ele>122.2</ele>
        <time>2026-05-24T07:44:26Z</time>
      </trkpt>
      <trkpt lat="48.61914" lon="2.02379">
        <ele>122.2</ele>
        <time>2026-05-24T07:44:27Z</time>
      </trkpt>
      <trkpt lat="48.61911" lon="2.02378">
        <ele>121.6</ele>
        <time>2026-05-24T07:44:28Z</time>
      </trkpt>
      <trkpt lat="48.61908" lon="2.02378">
        <ele>121.4</ele>
        <time>2026-05-24T07:44:29Z</time>
      </trkpt>
      <trkpt lat="48.61904" lon="2.02377">
        <ele>121.4</ele>
        <time>2026-05-24T07:44:30Z</time>
      </trkpt>
      <trkpt lat="48.61901" lon="2.02377">
        <ele>121.4</ele>
        <time>2026-05-24T07:44:31Z</time>
      </trkpt>
      <trkpt lat="48.61897" lon="2.02377">
        <ele>121.4</ele>
        <time>2026-05-24T07:44:32Z</time>
      </trkpt>
      <trkpt lat="48.61893" lon="2.02378">
        <ele>121.4</ele>
        <time>2026-05-24T07:44:33Z</time>
      </trkpt>
      <trkpt lat="48.6189" lon="2.0238">
        <ele>121.4</ele>
        <time>2026-05-24T07:44:34Z</time>
      </trkpt>
      <trkpt lat="48.61886" lon="2.02382">
        <ele>121.4</ele>
        <time>2026-05-24T07:44:35Z</time>
      </trkpt>
      <trkpt lat="48.61882" lon="2.02385">
        <ele>121.4</ele>
        <time>2026-05-24T07:44:36Z</time>
      </trkpt>
      <trkpt lat="48.61877" lon="2.02387">
        <ele>120.8</ele>
        <time>2026-05-24T07:44:37Z</time>
      </trkpt>
      <trkpt lat="48.61873" lon="2.02389">
        <ele>120.8</ele>
        <time>2026-05-24T07:44:38Z</time>
      </trkpt>
      <trkpt lat="48.61869" lon="2.02392">
        <ele>120.8</ele>
        <time>2026-05-24T07:44:39Z</time>
      </trkpt>
      <trkpt lat="48.61865" lon="2.02394">
        <ele>120.8</ele>
        <time>2026-05-24T07:44:40Z</time>
      </trkpt>
      <trkpt lat="48.61861" lon="2.02396">
        <ele>121</ele>
        <time>2026-05-24T07:44:41Z</time>
      </trkpt>
      <trkpt lat="48.61857" lon="2.02398">
        <ele>121</ele>
        <time>2026-05-24T07:44:42Z</time>
      </trkpt>
      <trkpt lat="48.61853" lon="2.02401">
        <ele>121</ele>
        <time>2026-05-24T07:44:43Z</time>
      </trkpt>
      <trkpt lat="48.61849" lon="2.02402">
        <ele>121</ele>
        <time>2026-05-24T07:44:44Z</time>
      </trkpt>
      <trkpt lat="48.61845" lon="2.02404">
        <ele>120.6</ele>
        <time>2026-05-24T07:44:45Z</time>
      </trkpt>
      <trkpt lat="48.61841" lon="2.02406">
        <ele>120.6</ele>
        <time>2026-05-24T07:44:46Z</time>
      </trkpt>
      <trkpt lat="48.61837" lon="2.02409">
        <ele>120.6</ele>
        <time>2026-05-24T07:44:47Z</time>
      </trkpt>
      <trkpt lat="48.61833" lon="2.02411">
        <ele>120.6</ele>
        <time>2026-05-24T07:44:48Z</time>
      </trkpt>
      <trkpt lat="48.61829" lon="2.02414">
        <ele>120.6</ele>
        <time>2026-05-24T07:44:49Z</time>
      </trkpt>
      <trkpt lat="48.61825" lon="2.02417">
        <ele>120.6</ele>
        <time>2026-05-24T07:44:50Z</time>
      </trkpt>
      <trkpt lat="48.61823" lon="2.02422">
        <ele>120.6</ele>
        <time>2026-05-24T07:44:51Z</time>
      </trkpt>
      <trkpt lat="48.61821" lon="2.02428">
        <ele>120.6</ele>
        <time>2026-05-24T07:44:52Z</time>
      </trkpt>
      <trkpt lat="48.61821" lon="2.02434">
        <ele>120.4</ele>
        <time>2026-05-24T07:44:53Z</time>
      </trkpt>
      <trkpt lat="48.61821" lon="2.02439">
        <ele>120.4</ele>
        <time>2026-05-24T07:44:54Z</time>
      </trkpt>
      <trkpt lat="48.61821" lon="2.02443">
        <ele>120.4</ele>
        <time>2026-05-24T07:44:55Z</time>
      </trkpt>
      <trkpt lat="48.61821" lon="2.02447">
        <ele>121</ele>
        <time>2026-05-24T07:44:56Z</time>
      </trkpt>
      <trkpt lat="48.61822" lon="2.02451">
        <ele>121.2</ele>
        <time>2026-05-24T07:44:57Z</time>
      </trkpt>
      <trkpt lat="48.61822" lon="2.02454">
        <ele>121.2</ele>
        <time>2026-05-24T07:44:58Z</time>
      </trkpt>
      <trkpt lat="48.61823" lon="2.02459">
        <ele>121.2</ele>
        <time>2026-05-24T07:44:59Z</time>
      </trkpt>
      <trkpt lat="48.61823" lon="2.02463">
        <ele>121.6</ele>
        <time>2026-05-24T07:45:00Z</time>
      </trkpt>
      <trkpt lat="48.61822" lon="2.02467">
        <ele>121.8</ele>
        <time>2026-05-24T07:45:01Z</time>
      </trkpt>
      <trkpt lat="48.61822" lon="2.02471">
        <ele>121.8</ele>
        <time>2026-05-24T07:45:02Z</time>
      </trkpt>
      <trkpt lat="48.61822" lon="2.02475">
        <ele>121.8</ele>
        <time>2026-05-24T07:45:03Z</time>
      </trkpt>
      <trkpt lat="48.61822" lon="2.0248">
        <ele>121.8</ele>
        <time>2026-05-24T07:45:04Z</time>
      </trkpt>
      <trkpt lat="48.61822" lon="2.02484">
        <ele>122</ele>
        <time>2026-05-24T07:45:05Z</time>
      </trkpt>
      <trkpt lat="48.61821" lon="2.02488">
        <ele>122</ele>
        <time>2026-05-24T07:45:06Z</time>
      </trkpt>
      <trkpt lat="48.61821" lon="2.02493">
        <ele>122</ele>
        <time>2026-05-24T07:45:07Z</time>
      </trkpt>
      <trkpt lat="48.61821" lon="2.02497">
        <ele>122</ele>
        <time>2026-05-24T07:45:08Z</time>
      </trkpt>
      <trkpt lat="48.6182" lon="2.02501">
        <ele>122.6</ele>
        <time>2026-05-24T07:45:09Z</time>
      </trkpt>
      <trkpt lat="48.61818" lon="2.02505">
        <ele>122.6</ele>
        <time>2026-05-24T07:45:10Z</time>
      </trkpt>
      <trkpt lat="48.61816" lon="2.02509">
        <ele>122.6</ele>
        <time>2026-05-24T07:45:11Z</time>
      </trkpt>
      <trkpt lat="48.61814" lon="2.02513">
        <ele>122.6</ele>
        <time>2026-05-24T07:45:12Z</time>
      </trkpt>
      <trkpt lat="48.61812" lon="2.02517">
        <ele>122.2</ele>
        <time>2026-05-24T07:45:13Z</time>
      </trkpt>
      <trkpt lat="48.6181" lon="2.02522">
        <ele>122.2</ele>
        <time>2026-05-24T07:45:14Z</time>
      </trkpt>
      <trkpt lat="48.61808" lon="2.02526">
        <ele>122.2</ele>
        <time>2026-05-24T07:45:15Z</time>
      </trkpt>
      <trkpt lat="48.61806" lon="2.02531">
        <ele>122.2</ele>
        <time>2026-05-24T07:45:16Z</time>
      </trkpt>
      <trkpt lat="48.61804" lon="2.02535">
        <ele>122.2</ele>
        <time>2026-05-24T07:45:17Z</time>
      </trkpt>
      <trkpt lat="48.61801" lon="2.0254">
        <ele>122.2</ele>
        <time>2026-05-24T07:45:18Z</time>
      </trkpt>
      <trkpt lat="48.61799" lon="2.02544">
        <ele>122.2</ele>
        <time>2026-05-24T07:45:19Z</time>
      </trkpt>
      <trkpt lat="48.61797" lon="2.02549">
        <ele>122.4</ele>
        <time>2026-05-24T07:45:20Z</time>
      </trkpt>
      <trkpt lat="48.61795" lon="2.02553">
        <ele>122.2</ele>
        <time>2026-05-24T07:45:21Z</time>
      </trkpt>
      <trkpt lat="48.61793" lon="2.02558">
        <ele>122.2</ele>
        <time>2026-05-24T07:45:22Z</time>
      </trkpt>
      <trkpt lat="48.61791" lon="2.02563">
        <ele>122.2</ele>
        <time>2026-05-24T07:45:23Z</time>
      </trkpt>
      <trkpt lat="48.61789" lon="2.02568">
        <ele>122.2</ele>
        <time>2026-05-24T07:45:24Z</time>
      </trkpt>
      <trkpt lat="48.61787" lon="2.02573">
        <ele>121.8</ele>
        <time>2026-05-24T07:45:25Z</time>
      </trkpt>
      <trkpt lat="48.61785" lon="2.02578">
        <ele>121.8</ele>
        <time>2026-05-24T07:45:26Z</time>
      </trkpt>
      <trkpt lat="48.61782" lon="2.02583">
        <ele>121.8</ele>
        <time>2026-05-24T07:45:27Z</time>
      </trkpt>
      <trkpt lat="48.61781" lon="2.02587">
        <ele>121.8</ele>
        <time>2026-05-24T07:45:28Z</time>
      </trkpt>
      <trkpt lat="48.61779" lon="2.02592">
        <ele>122.2</ele>
        <time>2026-05-24T07:45:29Z</time>
      </trkpt>
      <trkpt lat="48.61777" lon="2.02597">
        <ele>122.2</ele>
        <time>2026-05-24T07:45:30Z</time>
      </trkpt>
      <trkpt lat="48.61775" lon="2.02602">
        <ele>122.2</ele>
        <time>2026-05-24T07:45:31Z</time>
      </trkpt>
      <trkpt lat="48.61772" lon="2.02607">
        <ele>122.2</ele>
        <time>2026-05-24T07:45:32Z</time>
      </trkpt>
      <trkpt lat="48.6177" lon="2.02611">
        <ele>121.8</ele>
        <time>2026-05-24T07:45:33Z</time>
      </trkpt>
      <trkpt lat="48.61768" lon="2.02616">
        <ele>121.8</ele>
        <time>2026-05-24T07:45:34Z</time>
      </trkpt>
      <trkpt lat="48.61765" lon="2.02619">
        <ele>121.8</ele>
        <time>2026-05-24T07:45:35Z</time>
      </trkpt>
      <trkpt lat="48.61762" lon="2.02623">
        <ele>122.4</ele>
        <time>2026-05-24T07:45:36Z</time>
      </trkpt>
      <trkpt lat="48.6176" lon="2.02627">
        <ele>122.2</ele>
        <time>2026-05-24T07:45:37Z</time>
      </trkpt>
      <trkpt lat="48.61757" lon="2.02631">
        <ele>122.2</ele>
        <time>2026-05-24T07:45:38Z</time>
      </trkpt>
      <trkpt lat="48.61754" lon="2.02634">
        <ele>122.2</ele>
        <time>2026-05-24T07:45:39Z</time>
      </trkpt>
      <trkpt lat="48.61751" lon="2.02637">
        <ele>122.2</ele>
        <time>2026-05-24T07:45:40Z</time>
      </trkpt>
      <trkpt lat="48.61748" lon="2.02639">
        <ele>122.8</ele>
        <time>2026-05-24T07:45:41Z</time>
      </trkpt>
      <trkpt lat="48.61744" lon="2.02642">
        <ele>122.8</ele>
        <time>2026-05-24T07:45:42Z</time>
      </trkpt>
      <trkpt lat="48.61741" lon="2.02644">
        <ele>122.8</ele>
        <time>2026-05-24T07:45:43Z</time>
      </trkpt>
      <trkpt lat="48.61737" lon="2.02646">
        <ele>122.8</ele>
        <time>2026-05-24T07:45:44Z</time>
      </trkpt>
      <trkpt lat="48.61734" lon="2.02648">
        <ele>122.6</ele>
        <time>2026-05-24T07:45:45Z</time>
      </trkpt>
      <trkpt lat="48.6173" lon="2.0265">
        <ele>122.6</ele>
        <time>2026-05-24T07:45:46Z</time>
      </trkpt>
      <trkpt lat="48.61727" lon="2.02652">
        <ele>122.6</ele>
        <time>2026-05-24T07:45:47Z</time>
      </trkpt>
      <trkpt lat="48.61723" lon="2.02654">
        <ele>122.6</ele>
        <time>2026-05-24T07:45:48Z</time>
      </trkpt>
      <trkpt lat="48.61718" lon="2.02655">
        <ele>122</ele>
        <time>2026-05-24T07:45:49Z</time>
      </trkpt>
      <trkpt lat="48.61714" lon="2.02656">
        <ele>122</ele>
        <time>2026-05-24T07:45:50Z</time>
      </trkpt>
      <trkpt lat="48.6171" lon="2.02656">
        <ele>122</ele>
        <time>2026-05-24T07:45:51Z</time>
      </trkpt>
      <trkpt lat="48.61705" lon="2.02656">
        <ele>121.8</ele>
        <time>2026-05-24T07:45:52Z</time>
      </trkpt>
      <trkpt lat="48.61701" lon="2.02656">
        <ele>121.4</ele>
        <time>2026-05-24T07:45:53Z</time>
      </trkpt>
      <trkpt lat="48.61696" lon="2.02655">
        <ele>121.4</ele>
        <time>2026-05-24T07:45:54Z</time>
      </trkpt>
      <trkpt lat="48.61692" lon="2.02654">
        <ele>121.4</ele>
        <time>2026-05-24T07:45:55Z</time>
      </trkpt>
      <trkpt lat="48.61687" lon="2.02653">
        <ele>121.4</ele>
        <time>2026-05-24T07:45:56Z</time>
      </trkpt>
      <trkpt lat="48.61683" lon="2.02653">
        <ele>121.4</ele>
        <time>2026-05-24T07:45:57Z</time>
      </trkpt>
      <trkpt lat="48.61678" lon="2.02652">
        <ele>121.4</ele>
        <time>2026-05-24T07:45:58Z</time>
      </trkpt>
      <trkpt lat="48.61673" lon="2.02651">
        <ele>121.4</ele>
        <time>2026-05-24T07:45:59Z</time>
      </trkpt>
      <trkpt lat="48.61669" lon="2.02649">
        <ele>121.4</ele>
        <time>2026-05-24T07:46:00Z</time>
      </trkpt>
      <trkpt lat="48.61664" lon="2.02647">
        <ele>121.4</ele>
        <time>2026-05-24T07:46:01Z</time>
      </trkpt>
      <trkpt lat="48.6166" lon="2.02645">
        <ele>121.4</ele>
        <time>2026-05-24T07:46:02Z</time>
      </trkpt>
      <trkpt lat="48.61655" lon="2.02644">
        <ele>121.4</ele>
        <time>2026-05-24T07:46:03Z</time>
      </trkpt>
      <trkpt lat="48.6165" lon="2.02643">
        <ele>121.2</ele>
        <time>2026-05-24T07:46:04Z</time>
      </trkpt>
      <trkpt lat="48.61646" lon="2.02642">
        <ele>121</ele>
        <time>2026-05-24T07:46:05Z</time>
      </trkpt>
      <trkpt lat="48.61641" lon="2.02641">
        <ele>121</ele>
        <time>2026-05-24T07:46:06Z</time>
      </trkpt>
      <trkpt lat="48.61636" lon="2.0264">
        <ele>121</ele>
        <time>2026-05-24T07:46:07Z</time>
      </trkpt>
      <trkpt lat="48.61632" lon="2.02639">
        <ele>121</ele>
        <time>2026-05-24T07:46:08Z</time>
      </trkpt>
      <trkpt lat="48.61627" lon="2.02638">
        <ele>120.8</ele>
        <time>2026-05-24T07:46:09Z</time>
      </trkpt>
      <trkpt lat="48.61623" lon="2.02637">
        <ele>120.8</ele>
        <time>2026-05-24T07:46:10Z</time>
      </trkpt>
      <trkpt lat="48.61618" lon="2.02636">
        <ele>120.8</ele>
        <time>2026-05-24T07:46:11Z</time>
      </trkpt>
      <trkpt lat="48.61613" lon="2.02634">
        <ele>121.8</ele>
        <time>2026-05-24T07:46:12Z</time>
      </trkpt>
      <trkpt lat="48.61609" lon="2.02634">
        <ele>120.8</ele>
        <time>2026-05-24T07:46:13Z</time>
      </trkpt>
      <trkpt lat="48.61604" lon="2.02634">
        <ele>120.8</ele>
        <time>2026-05-24T07:46:14Z</time>
      </trkpt>
      <trkpt lat="48.61599" lon="2.02634">
        <ele>120.8</ele>
        <time>2026-05-24T07:46:15Z</time>
      </trkpt>
      <trkpt lat="48.61594" lon="2.02634">
        <ele>121</ele>
        <time>2026-05-24T07:46:16Z</time>
      </trkpt>
      <trkpt lat="48.61589" lon="2.02634">
        <ele>121.2</ele>
        <time>2026-05-24T07:46:17Z</time>
      </trkpt>
      <trkpt lat="48.61584" lon="2.02634">
        <ele>121.2</ele>
        <time>2026-05-24T07:46:18Z</time>
      </trkpt>
      <trkpt lat="48.6158" lon="2.02634">
        <ele>121.2</ele>
        <time>2026-05-24T07:46:19Z</time>
      </trkpt>
      <trkpt lat="48.61575" lon="2.02635">
        <ele>121.2</ele>
        <time>2026-05-24T07:46:20Z</time>
      </trkpt>
      <trkpt lat="48.6157" lon="2.02635">
        <ele>121.2</ele>
        <time>2026-05-24T07:46:21Z</time>
      </trkpt>
      <trkpt lat="48.61566" lon="2.02636">
        <ele>121.2</ele>
        <time>2026-05-24T07:46:22Z</time>
      </trkpt>
      <trkpt lat="48.61561" lon="2.02638">
        <ele>121.2</ele>
        <time>2026-05-24T07:46:23Z</time>
      </trkpt>
      <trkpt lat="48.61557" lon="2.02638">
        <ele>121.2</ele>
        <time>2026-05-24T07:46:24Z</time>
      </trkpt>
      <trkpt lat="48.61553" lon="2.02639">
        <ele>121.2</ele>
        <time>2026-05-24T07:46:25Z</time>
      </trkpt>
      <trkpt lat="48.61548" lon="2.02639">
        <ele>121.2</ele>
        <time>2026-05-24T07:46:26Z</time>
      </trkpt>
      <trkpt lat="48.61544" lon="2.02638">
        <ele>121.2</ele>
        <time>2026-05-24T07:46:27Z</time>
      </trkpt>
      <trkpt lat="48.61539" lon="2.02638">
        <ele>121.2</ele>
        <time>2026-05-24T07:46:28Z</time>
      </trkpt>
      <trkpt lat="48.61535" lon="2.02639">
        <ele>121.6</ele>
        <time>2026-05-24T07:46:29Z</time>
      </trkpt>
      <trkpt lat="48.6153" lon="2.02639">
        <ele>121.6</ele>
        <time>2026-05-24T07:46:30Z</time>
      </trkpt>
      <trkpt lat="48.61526" lon="2.0264">
        <ele>121.6</ele>
        <time>2026-05-24T07:46:31Z</time>
      </trkpt>
      <trkpt lat="48.61522" lon="2.02641">
        <ele>121.6</ele>
        <time>2026-05-24T07:46:32Z</time>
      </trkpt>
      <trkpt lat="48.61518" lon="2.02642">
        <ele>121.4</ele>
        <time>2026-05-24T07:46:33Z</time>
      </trkpt>
      <trkpt lat="48.61515" lon="2.02643">
        <ele>121.4</ele>
        <time>2026-05-24T07:46:34Z</time>
      </trkpt>
      <trkpt lat="48.61512" lon="2.02646">
        <ele>121.4</ele>
        <time>2026-05-24T07:46:35Z</time>
      </trkpt>
      <trkpt lat="48.61509" lon="2.02649">
        <ele>121.4</ele>
        <time>2026-05-24T07:46:36Z</time>
      </trkpt>
      <trkpt lat="48.61508" lon="2.02654">
        <ele>121.4</ele>
        <time>2026-05-24T07:46:37Z</time>
      </trkpt>
      <trkpt lat="48.61507" lon="2.02658">
        <ele>121.4</ele>
        <time>2026-05-24T07:46:38Z</time>
      </trkpt>
      <trkpt lat="48.61508" lon="2.02663">
        <ele>121.4</ele>
        <time>2026-05-24T07:46:39Z</time>
      </trkpt>
      <trkpt lat="48.61511" lon="2.02666">
        <ele>121.4</ele>
        <time>2026-05-24T07:46:40Z</time>
      </trkpt>
      <trkpt lat="48.61514" lon="2.02667">
        <ele>121.6</ele>
        <time>2026-05-24T07:46:41Z</time>
      </trkpt>
      <trkpt lat="48.61517" lon="2.02668">
        <ele>121.6</ele>
        <time>2026-05-24T07:46:42Z</time>
      </trkpt>
      <trkpt lat="48.6152" lon="2.0267">
        <ele>121.6</ele>
        <time>2026-05-24T07:46:43Z</time>
      </trkpt>
      <trkpt lat="48.61522" lon="2.02673">
        <ele>121.6</ele>
        <time>2026-05-24T07:46:44Z</time>
      </trkpt>
      <trkpt lat="48.61525" lon="2.02676">
        <ele>121.6</ele>
        <time>2026-05-24T07:46:45Z</time>
      </trkpt>
      <trkpt lat="48.61527" lon="2.02679">
        <ele>121.6</ele>
        <time>2026-05-24T07:46:46Z</time>
      </trkpt>
      <trkpt lat="48.61529" lon="2.02683">
        <ele>121.6</ele>
        <time>2026-05-24T07:46:47Z</time>
      </trkpt>
      <trkpt lat="48.61532" lon="2.02686">
        <ele>122.2</ele>
        <time>2026-05-24T07:46:48Z</time>
      </trkpt>
      <trkpt lat="48.61534" lon="2.02689">
        <ele>122</ele>
        <time>2026-05-24T07:46:49Z</time>
      </trkpt>
      <trkpt lat="48.61537" lon="2.02692">
        <ele>122</ele>
        <time>2026-05-24T07:46:50Z</time>
      </trkpt>
      <trkpt lat="48.61539" lon="2.02696">
        <ele>122</ele>
        <time>2026-05-24T07:46:51Z</time>
      </trkpt>
      <trkpt lat="48.61542" lon="2.027">
        <ele>122</ele>
        <time>2026-05-24T07:46:52Z</time>
      </trkpt>
      <trkpt lat="48.61544" lon="2.02703">
        <ele>121.8</ele>
        <time>2026-05-24T07:46:53Z</time>
      </trkpt>
      <trkpt lat="48.61547" lon="2.02707">
        <ele>121.8</ele>
        <time>2026-05-24T07:46:54Z</time>
      </trkpt>
      <trkpt lat="48.6155" lon="2.02711">
        <ele>121.8</ele>
        <time>2026-05-24T07:46:55Z</time>
      </trkpt>
      <trkpt lat="48.61552" lon="2.02715">
        <ele>122.2</ele>
        <time>2026-05-24T07:46:56Z</time>
      </trkpt>
      <trkpt lat="48.61555" lon="2.02719">
        <ele>122.2</ele>
        <time>2026-05-24T07:46:57Z</time>
      </trkpt>
      <trkpt lat="48.61557" lon="2.02723">
        <ele>122.2</ele>
        <time>2026-05-24T07:46:58Z</time>
      </trkpt>
      <trkpt lat="48.61559" lon="2.02727">
        <ele>122.2</ele>
        <time>2026-05-24T07:46:59Z</time>
      </trkpt>
      <trkpt lat="48.61562" lon="2.02731">
        <ele>122.2</ele>
        <time>2026-05-24T07:47:00Z</time>
      </trkpt>
      <trkpt lat="48.61565" lon="2.02735">
        <ele>122.2</ele>
        <time>2026-05-24T07:47:01Z</time>
      </trkpt>
      <trkpt lat="48.61567" lon="2.02739">
        <ele>122.2</ele>
        <time>2026-05-24T07:47:02Z</time>
      </trkpt>
      <trkpt lat="48.6157" lon="2.02743">
        <ele>122.2</ele>
        <time>2026-05-24T07:47:03Z</time>
      </trkpt>
      <trkpt lat="48.61573" lon="2.02747">
        <ele>122.2</ele>
        <time>2026-05-24T07:47:04Z</time>
      </trkpt>
      <trkpt lat="48.61575" lon="2.02751">
        <ele>122.6</ele>
        <time>2026-05-24T07:47:05Z</time>
      </trkpt>
      <trkpt lat="48.61578" lon="2.02755">
        <ele>122.6</ele>
        <time>2026-05-24T07:47:06Z</time>
      </trkpt>
      <trkpt lat="48.61581" lon="2.02759">
        <ele>122.6</ele>
        <time>2026-05-24T07:47:07Z</time>
      </trkpt>
      <trkpt lat="48.61583" lon="2.02763">
        <ele>122.6</ele>
        <time>2026-05-24T07:47:08Z</time>
      </trkpt>
      <trkpt lat="48.61586" lon="2.02767">
        <ele>123</ele>
        <time>2026-05-24T07:47:09Z</time>
      </trkpt>
      <trkpt lat="48.61588" lon="2.02771">
        <ele>123</ele>
        <time>2026-05-24T07:47:10Z</time>
      </trkpt>
      <trkpt lat="48.61591" lon="2.02775">
        <ele>123</ele>
        <time>2026-05-24T07:47:11Z</time>
      </trkpt>
      <trkpt lat="48.61594" lon="2.02779">
        <ele>123</ele>
        <time>2026-05-24T07:47:12Z</time>
      </trkpt>
      <trkpt lat="48.61596" lon="2.02784">
        <ele>123.2</ele>
        <time>2026-05-24T07:47:13Z</time>
      </trkpt>
      <trkpt lat="48.61599" lon="2.02788">
        <ele>123.2</ele>
        <time>2026-05-24T07:47:14Z</time>
      </trkpt>
      <trkpt lat="48.61602" lon="2.02792">
        <ele>123.2</ele>
        <time>2026-05-24T07:47:15Z</time>
      </trkpt>
      <trkpt lat="48.61605" lon="2.02796">
        <ele>123</ele>
        <time>2026-05-24T07:47:16Z</time>
      </trkpt>
      <trkpt lat="48.61607" lon="2.02799">
        <ele>123.2</ele>
        <time>2026-05-24T07:47:17Z</time>
      </trkpt>
      <trkpt lat="48.6161" lon="2.02803">
        <ele>123.2</ele>
        <time>2026-05-24T07:47:18Z</time>
      </trkpt>
      <trkpt lat="48.61613" lon="2.02807">
        <ele>123.2</ele>
        <time>2026-05-24T07:47:19Z</time>
      </trkpt>
      <trkpt lat="48.61616" lon="2.02811">
        <ele>123.4</ele>
        <time>2026-05-24T07:47:20Z</time>
      </trkpt>
      <trkpt lat="48.61618" lon="2.02815">
        <ele>123.6</ele>
        <time>2026-05-24T07:47:21Z</time>
      </trkpt>
      <trkpt lat="48.61621" lon="2.02819">
        <ele>123.6</ele>
        <time>2026-05-24T07:47:22Z</time>
      </trkpt>
      <trkpt lat="48.61624" lon="2.02824">
        <ele>123.6</ele>
        <time>2026-05-24T07:47:23Z</time>
      </trkpt>
      <trkpt lat="48.61626" lon="2.02828">
        <ele>123.4</ele>
        <time>2026-05-24T07:47:24Z</time>
      </trkpt>
      <trkpt lat="48.61629" lon="2.02832">
        <ele>123.6</ele>
        <time>2026-05-24T07:47:25Z</time>
      </trkpt>
      <trkpt lat="48.61631" lon="2.02836">
        <ele>123.6</ele>
        <time>2026-05-24T07:47:26Z</time>
      </trkpt>
      <trkpt lat="48.61634" lon="2.0284">
        <ele>123.6</ele>
        <time>2026-05-24T07:47:27Z</time>
      </trkpt>
      <trkpt lat="48.61637" lon="2.02844">
        <ele>123.6</ele>
        <time>2026-05-24T07:47:28Z</time>
      </trkpt>
      <trkpt lat="48.6164" lon="2.02848">
        <ele>123.8</ele>
        <time>2026-05-24T07:47:29Z</time>
      </trkpt>
      <trkpt lat="48.61642" lon="2.02852">
        <ele>123.8</ele>
        <time>2026-05-24T07:47:30Z</time>
      </trkpt>
      <trkpt lat="48.61645" lon="2.02855">
        <ele>123.8</ele>
        <time>2026-05-24T07:47:31Z</time>
      </trkpt>
      <trkpt lat="48.61647" lon="2.02859">
        <ele>124</ele>
        <time>2026-05-24T07:47:32Z</time>
      </trkpt>
      <trkpt lat="48.61649" lon="2.02862">
        <ele>124.2</ele>
        <time>2026-05-24T07:47:33Z</time>
      </trkpt>
      <trkpt lat="48.61651" lon="2.02866">
        <ele>124.2</ele>
        <time>2026-05-24T07:47:34Z</time>
      </trkpt>
      <trkpt lat="48.61653" lon="2.02866">
        <ele>124.2</ele>
        <time>2026-05-24T07:47:35Z</time>
      </trkpt>
      <trkpt lat="48.61654" lon="2.02863">
        <ele>124</ele>
        <time>2026-05-24T07:47:36Z</time>
      </trkpt>
      <trkpt lat="48.61653" lon="2.0286">
        <ele>124</ele>
        <time>2026-05-24T07:47:37Z</time>
      </trkpt>
      <trkpt lat="48.61651" lon="2.02859">
        <ele>124</ele>
        <time>2026-05-24T07:47:38Z</time>
      </trkpt>
      <trkpt lat="48.61649" lon="2.02856">
        <ele>124</ele>
        <time>2026-05-24T07:47:39Z</time>
      </trkpt>
      <trkpt lat="48.61646" lon="2.02853">
        <ele>124</ele>
        <time>2026-05-24T07:47:40Z</time>
      </trkpt>
      <trkpt lat="48.61644" lon="2.02849">
        <ele>123.4</ele>
        <time>2026-05-24T07:47:41Z</time>
      </trkpt>
      <trkpt lat="48.61641" lon="2.02847">
        <ele>123.4</ele>
        <time>2026-05-24T07:47:42Z</time>
      </trkpt>
      <trkpt lat="48.61638" lon="2.02845">
        <ele>123.4</ele>
        <time>2026-05-24T07:47:43Z</time>
      </trkpt>
      <trkpt lat="48.61634" lon="2.02844">
        <ele>123.6</ele>
        <time>2026-05-24T07:47:44Z</time>
      </trkpt>
      <trkpt lat="48.61631" lon="2.02842">
        <ele>123.4</ele>
        <time>2026-05-24T07:47:45Z</time>
      </trkpt>
      <trkpt lat="48.61628" lon="2.02839">
        <ele>123.4</ele>
        <time>2026-05-24T07:47:46Z</time>
      </trkpt>
      <trkpt lat="48.61625" lon="2.02835">
        <ele>123.4</ele>
        <time>2026-05-24T07:47:47Z</time>
      </trkpt>
      <trkpt lat="48.61623" lon="2.02832">
        <ele>124</ele>
        <time>2026-05-24T07:47:48Z</time>
      </trkpt>
      <trkpt lat="48.61619" lon="2.02831">
        <ele>123.6</ele>
        <time>2026-05-24T07:47:49Z</time>
      </trkpt>
      <trkpt lat="48.61616" lon="2.02832">
        <ele>123.6</ele>
        <time>2026-05-24T07:47:50Z</time>
      </trkpt>
      <trkpt lat="48.61613" lon="2.02835">
        <ele>123.6</ele>
        <time>2026-05-24T07:47:51Z</time>
      </trkpt>
      <trkpt lat="48.6161" lon="2.02837">
        <ele>123.6</ele>
        <time>2026-05-24T07:47:52Z</time>
      </trkpt>
      <trkpt lat="48.61607" lon="2.0284">
        <ele>124</ele>
        <time>2026-05-24T07:47:53Z</time>
      </trkpt>
      <trkpt lat="48.61604" lon="2.02842">
        <ele>124</ele>
        <time>2026-05-24T07:47:54Z</time>
      </trkpt>
      <trkpt lat="48.61601" lon="2.02844">
        <ele>124</ele>
        <time>2026-05-24T07:47:55Z</time>
      </trkpt>
      <trkpt lat="48.61598" lon="2.02846">
        <ele>124</ele>
        <time>2026-05-24T07:47:56Z</time>
      </trkpt>
      <trkpt lat="48.61595" lon="2.02849">
        <ele>123.8</ele>
        <time>2026-05-24T07:47:57Z</time>
      </trkpt>
      <trkpt lat="48.61593" lon="2.02852">
        <ele>123.8</ele>
        <time>2026-05-24T07:47:58Z</time>
      </trkpt>
      <trkpt lat="48.6159" lon="2.02854">
        <ele>123.8</ele>
        <time>2026-05-24T07:47:59Z</time>
      </trkpt>
      <trkpt lat="48.61588" lon="2.02857">
        <ele>123.8</ele>
        <time>2026-05-24T07:48:00Z</time>
      </trkpt>
      <trkpt lat="48.61585" lon="2.0286">
        <ele>124</ele>
        <time>2026-05-24T07:48:01Z</time>
      </trkpt>
      <trkpt lat="48.61582" lon="2.02862">
        <ele>124</ele>
        <time>2026-05-24T07:48:02Z</time>
      </trkpt>
      <trkpt lat="48.6158" lon="2.02862">
        <ele>124</ele>
        <time>2026-05-24T07:48:03Z</time>
      </trkpt>
      <trkpt lat="48.61578" lon="2.02861">
        <ele>124</ele>
        <time>2026-05-24T07:48:04Z</time>
      </trkpt>
      <trkpt lat="48.61576" lon="2.0286">
        <ele>123.4</ele>
        <time>2026-05-24T07:48:05Z</time>
      </trkpt>
      <trkpt lat="48.61574" lon="2.02862">
        <ele>123.4</ele>
        <time>2026-05-24T07:48:06Z</time>
      </trkpt>
      <trkpt lat="48.61571" lon="2.02864">
        <ele>123.4</ele>
        <time>2026-05-24T07:48:07Z</time>
      </trkpt>
      <trkpt lat="48.61569" lon="2.02866">
        <ele>123.6</ele>
        <time>2026-05-24T07:48:08Z</time>
      </trkpt>
      <trkpt lat="48.61566" lon="2.02868">
        <ele>123.4</ele>
        <time>2026-05-24T07:48:09Z</time>
      </trkpt>
      <trkpt lat="48.61563" lon="2.02871">
        <ele>123.4</ele>
        <time>2026-05-24T07:48:10Z</time>
      </trkpt>
      <trkpt lat="48.6156" lon="2.02873">
        <ele>123.4</ele>
        <time>2026-05-24T07:48:11Z</time>
      </trkpt>
      <trkpt lat="48.61557" lon="2.02875">
        <ele>123.2</ele>
        <time>2026-05-24T07:48:12Z</time>
      </trkpt>
      <trkpt lat="48.61555" lon="2.02878">
        <ele>123</ele>
        <time>2026-05-24T07:48:13Z</time>
      </trkpt>
      <trkpt lat="48.61552" lon="2.02881">
        <ele>123</ele>
        <time>2026-05-24T07:48:14Z</time>
      </trkpt>
      <trkpt lat="48.61549" lon="2.02883">
        <ele>123</ele>
        <time>2026-05-24T07:48:15Z</time>
      </trkpt>
      <trkpt lat="48.61546" lon="2.02885">
        <ele>123</ele>
        <time>2026-05-24T07:48:16Z</time>
      </trkpt>
      <trkpt lat="48.61543" lon="2.02889">
        <ele>122.8</ele>
        <time>2026-05-24T07:48:17Z</time>
      </trkpt>
      <trkpt lat="48.61541" lon="2.02893">
        <ele>122.8</ele>
        <time>2026-05-24T07:48:18Z</time>
      </trkpt>
      <trkpt lat="48.61538" lon="2.02898">
        <ele>122.8</ele>
        <time>2026-05-24T07:48:19Z</time>
      </trkpt>
      <trkpt lat="48.61537" lon="2.02903">
        <ele>123.2</ele>
        <time>2026-05-24T07:48:20Z</time>
      </trkpt>
      <trkpt lat="48.61535" lon="2.02908">
        <ele>123.2</ele>
        <time>2026-05-24T07:48:21Z</time>
      </trkpt>
      <trkpt lat="48.61535" lon="2.02914">
        <ele>123.2</ele>
        <time>2026-05-24T07:48:22Z</time>
      </trkpt>
      <trkpt lat="48.61535" lon="2.02919">
        <ele>123.2</ele>
        <time>2026-05-24T07:48:23Z</time>
      </trkpt>
      <trkpt lat="48.61535" lon="2.02925">
        <ele>123</ele>
        <time>2026-05-24T07:48:24Z</time>
      </trkpt>
      <trkpt lat="48.61537" lon="2.02931">
        <ele>122.6</ele>
        <time>2026-05-24T07:48:25Z</time>
      </trkpt>
      <trkpt lat="48.61538" lon="2.02936">
        <ele>122.6</ele>
        <time>2026-05-24T07:48:26Z</time>
      </trkpt>
      <trkpt lat="48.6154" lon="2.02942">
        <ele>122.6</ele>
        <time>2026-05-24T07:48:27Z</time>
      </trkpt>
      <trkpt lat="48.61542" lon="2.02947">
        <ele>122.6</ele>
        <time>2026-05-24T07:48:28Z</time>
      </trkpt>
      <trkpt lat="48.61544" lon="2.02953">
        <ele>122.6</ele>
        <time>2026-05-24T07:48:29Z</time>
      </trkpt>
      <trkpt lat="48.61545" lon="2.02958">
        <ele>122.6</ele>
        <time>2026-05-24T07:48:30Z</time>
      </trkpt>
      <trkpt lat="48.61547" lon="2.02963">
        <ele>122.6</ele>
        <time>2026-05-24T07:48:31Z</time>
      </trkpt>
      <trkpt lat="48.61549" lon="2.02969">
        <ele>122.6</ele>
        <time>2026-05-24T07:48:32Z</time>
      </trkpt>
      <trkpt lat="48.61551" lon="2.02974">
        <ele>122.8</ele>
        <time>2026-05-24T07:48:33Z</time>
      </trkpt>
      <trkpt lat="48.61553" lon="2.02979">
        <ele>122.8</ele>
        <time>2026-05-24T07:48:34Z</time>
      </trkpt>
      <trkpt lat="48.61554" lon="2.02984">
        <ele>122.8</ele>
        <time>2026-05-24T07:48:35Z</time>
      </trkpt>
      <trkpt lat="48.61556" lon="2.02989">
        <ele>122.8</ele>
        <time>2026-05-24T07:48:36Z</time>
      </trkpt>
      <trkpt lat="48.61558" lon="2.02994">
        <ele>122.2</ele>
        <time>2026-05-24T07:48:37Z</time>
      </trkpt>
      <trkpt lat="48.61559" lon="2.02999">
        <ele>122.2</ele>
        <time>2026-05-24T07:48:38Z</time>
      </trkpt>
      <trkpt lat="48.61561" lon="2.03004">
        <ele>122.2</ele>
        <time>2026-05-24T07:48:39Z</time>
      </trkpt>
      <trkpt lat="48.61563" lon="2.03008">
        <ele>123</ele>
        <time>2026-05-24T07:48:40Z</time>
      </trkpt>
      <trkpt lat="48.61565" lon="2.03012">
        <ele>122.8</ele>
        <time>2026-05-24T07:48:41Z</time>
      </trkpt>
      <trkpt lat="48.61566" lon="2.03017">
        <ele>122.8</ele>
        <time>2026-05-24T07:48:42Z</time>
      </trkpt>
      <trkpt lat="48.61566" lon="2.03022">
        <ele>122.8</ele>
        <time>2026-05-24T07:48:43Z</time>
      </trkpt>
      <trkpt lat="48.61565" lon="2.03026">
        <ele>122.8</ele>
        <time>2026-05-24T07:48:44Z</time>
      </trkpt>
      <trkpt lat="48.61563" lon="2.0303">
        <ele>123.4</ele>
        <time>2026-05-24T07:48:45Z</time>
      </trkpt>
      <trkpt lat="48.61561" lon="2.03032">
        <ele>123.4</ele>
        <time>2026-05-24T07:48:46Z</time>
      </trkpt>
      <trkpt lat="48.61559" lon="2.03034">
        <ele>123.4</ele>
        <time>2026-05-24T07:48:47Z</time>
      </trkpt>
      <trkpt lat="48.61557" lon="2.03037">
        <ele>123</ele>
        <time>2026-05-24T07:48:48Z</time>
      </trkpt>
      <trkpt lat="48.61555" lon="2.0304">
        <ele>122.8</ele>
        <time>2026-05-24T07:48:49Z</time>
      </trkpt>
      <trkpt lat="48.61556" lon="2.03043">
        <ele>122.8</ele>
        <time>2026-05-24T07:48:50Z</time>
      </trkpt>
      <trkpt lat="48.61558" lon="2.03046">
        <ele>122.8</ele>
        <time>2026-05-24T07:48:51Z</time>
      </trkpt>
      <trkpt lat="48.61559" lon="2.03049">
        <ele>122.8</ele>
        <time>2026-05-24T07:48:52Z</time>
      </trkpt>
      <trkpt lat="48.6156" lon="2.03053">
        <ele>123.2</ele>
        <time>2026-05-24T07:48:53Z</time>
      </trkpt>
      <trkpt lat="48.61562" lon="2.03056">
        <ele>123.2</ele>
        <time>2026-05-24T07:48:54Z</time>
      </trkpt>
      <trkpt lat="48.61563" lon="2.0306">
        <ele>123.2</ele>
        <time>2026-05-24T07:48:55Z</time>
      </trkpt>
      <trkpt lat="48.61565" lon="2.03064">
        <ele>123.2</ele>
        <time>2026-05-24T07:48:56Z</time>
      </trkpt>
      <trkpt lat="48.61566" lon="2.03067">
        <ele>123.2</ele>
        <time>2026-05-24T07:48:57Z</time>
      </trkpt>
      <trkpt lat="48.61567" lon="2.03071">
        <ele>123.2</ele>
        <time>2026-05-24T07:48:58Z</time>
      </trkpt>
      <trkpt lat="48.61568" lon="2.03075">
        <ele>123.2</ele>
        <time>2026-05-24T07:48:59Z</time>
      </trkpt>
      <trkpt lat="48.61569" lon="2.03079">
        <ele>123.2</ele>
        <time>2026-05-24T07:49:00Z</time>
      </trkpt>
      <trkpt lat="48.61571" lon="2.03083">
        <ele>123.4</ele>
        <time>2026-05-24T07:49:01Z</time>
      </trkpt>
      <trkpt lat="48.61572" lon="2.03087">
        <ele>123.4</ele>
        <time>2026-05-24T07:49:02Z</time>
      </trkpt>
      <trkpt lat="48.61573" lon="2.0309">
        <ele>123.4</ele>
        <time>2026-05-24T07:49:03Z</time>
      </trkpt>
      <trkpt lat="48.61573" lon="2.03094">
        <ele>123.8</ele>
        <time>2026-05-24T07:49:04Z</time>
      </trkpt>
      <trkpt lat="48.61574" lon="2.03098">
        <ele>124</ele>
        <time>2026-05-24T07:49:05Z</time>
      </trkpt>
      <trkpt lat="48.61576" lon="2.031">
        <ele>124</ele>
        <time>2026-05-24T07:49:06Z</time>
      </trkpt>
      <trkpt lat="48.61578" lon="2.031">
        <ele>124</ele>
        <time>2026-05-24T07:49:07Z</time>
      </trkpt>
      <trkpt lat="48.61581" lon="2.03099">
        <ele>124</ele>
        <time>2026-05-24T07:49:08Z</time>
      </trkpt>
      <trkpt lat="48.61583" lon="2.03098">
        <ele>124</ele>
        <time>2026-05-24T07:49:09Z</time>
      </trkpt>
      <trkpt lat="48.61586" lon="2.03097">
        <ele>124</ele>
        <time>2026-05-24T07:49:10Z</time>
      </trkpt>
      <trkpt lat="48.61589" lon="2.03096">
        <ele>124</ele>
        <time>2026-05-24T07:49:11Z</time>
      </trkpt>
      <trkpt lat="48.61592" lon="2.03095">
        <ele>124</ele>
        <time>2026-05-24T07:49:12Z</time>
      </trkpt>
      <trkpt lat="48.61594" lon="2.03094">
        <ele>124</ele>
        <time>2026-05-24T07:49:13Z</time>
      </trkpt>
      <trkpt lat="48.61597" lon="2.03093">
        <ele>124</ele>
        <time>2026-05-24T07:49:14Z</time>
      </trkpt>
      <trkpt lat="48.61599" lon="2.03092">
        <ele>124</ele>
        <time>2026-05-24T07:49:15Z</time>
      </trkpt>
      <trkpt lat="48.61601" lon="2.03092">
        <ele>124</ele>
        <time>2026-05-24T07:49:16Z</time>
      </trkpt>
      <trkpt lat="48.61603" lon="2.03094">
        <ele>124.6</ele>
        <time>2026-05-24T07:49:17Z</time>
      </trkpt>
      <trkpt lat="48.61604" lon="2.03097">
        <ele>124.6</ele>
        <time>2026-05-24T07:49:18Z</time>
      </trkpt>
      <trkpt lat="48.61604" lon="2.031">
        <ele>124.6</ele>
        <time>2026-05-24T07:49:19Z</time>
      </trkpt>
      <trkpt lat="48.61604" lon="2.03102">
        <ele>124</ele>
        <time>2026-05-24T07:49:20Z</time>
      </trkpt>
      <trkpt lat="48.61605" lon="2.03106">
        <ele>124.2</ele>
        <time>2026-05-24T07:49:21Z</time>
      </trkpt>
      <trkpt lat="48.61606" lon="2.03109">
        <ele>124.2</ele>
        <time>2026-05-24T07:49:22Z</time>
      </trkpt>
      <trkpt lat="48.61607" lon="2.03112">
        <ele>124.2</ele>
        <time>2026-05-24T07:49:23Z</time>
      </trkpt>
      <trkpt lat="48.61608" lon="2.03116">
        <ele>124.6</ele>
        <time>2026-05-24T07:49:24Z</time>
      </trkpt>
      <trkpt lat="48.61609" lon="2.03121">
        <ele>124.4</ele>
        <time>2026-05-24T07:49:25Z</time>
      </trkpt>
      <trkpt lat="48.6161" lon="2.03124">
        <ele>124.4</ele>
        <time>2026-05-24T07:49:26Z</time>
      </trkpt>
      <trkpt lat="48.61612" lon="2.03128">
        <ele>124.4</ele>
        <time>2026-05-24T07:49:27Z</time>
      </trkpt>
      <trkpt lat="48.61614" lon="2.03131">
        <ele>124.4</ele>
        <time>2026-05-24T07:49:28Z</time>
      </trkpt>
      <trkpt lat="48.61616" lon="2.03135">
        <ele>124.2</ele>
        <time>2026-05-24T07:49:29Z</time>
      </trkpt>
      <trkpt lat="48.61618" lon="2.03139">
        <ele>124.2</ele>
        <time>2026-05-24T07:49:30Z</time>
      </trkpt>
      <trkpt lat="48.6162" lon="2.03142">
        <ele>124.2</ele>
        <time>2026-05-24T07:49:31Z</time>
      </trkpt>
      <trkpt lat="48.61621" lon="2.03146">
        <ele>124.6</ele>
        <time>2026-05-24T07:49:32Z</time>
      </trkpt>
      <trkpt lat="48.61623" lon="2.0315">
        <ele>124.6</ele>
        <time>2026-05-24T07:49:33Z</time>
      </trkpt>
      <trkpt lat="48.61625" lon="2.03153">
        <ele>124.6</ele>
        <time>2026-05-24T07:49:34Z</time>
      </trkpt>
      <trkpt lat="48.61627" lon="2.03157">
        <ele>124.6</ele>
        <time>2026-05-24T07:49:35Z</time>
      </trkpt>
      <trkpt lat="48.61629" lon="2.0316">
        <ele>124.6</ele>
        <time>2026-05-24T07:49:36Z</time>
      </trkpt>
      <trkpt lat="48.61631" lon="2.03163">
        <ele>124.6</ele>
        <time>2026-05-24T07:49:37Z</time>
      </trkpt>
      <trkpt lat="48.61633" lon="2.03167">
        <ele>124.6</ele>
        <time>2026-05-24T07:49:38Z</time>
      </trkpt>
      <trkpt lat="48.61635" lon="2.0317">
        <ele>124.6</ele>
        <time>2026-05-24T07:49:39Z</time>
      </trkpt>
      <trkpt lat="48.61637" lon="2.03172">
        <ele>124.8</ele>
        <time>2026-05-24T07:49:40Z</time>
      </trkpt>
      <trkpt lat="48.61639" lon="2.03175">
        <ele>125</ele>
        <time>2026-05-24T07:49:41Z</time>
      </trkpt>
      <trkpt lat="48.61642" lon="2.03178">
        <ele>125</ele>
        <time>2026-05-24T07:49:42Z</time>
      </trkpt>
      <trkpt lat="48.61644" lon="2.0318">
        <ele>125</ele>
        <time>2026-05-24T07:49:43Z</time>
      </trkpt>
      <trkpt lat="48.61647" lon="2.03182">
        <ele>125</ele>
        <time>2026-05-24T07:49:44Z</time>
      </trkpt>
      <trkpt lat="48.61649" lon="2.03183">
        <ele>125</ele>
        <time>2026-05-24T07:49:45Z</time>
      </trkpt>
      <trkpt lat="48.61652" lon="2.03183">
        <ele>125</ele>
        <time>2026-05-24T07:49:46Z</time>
      </trkpt>
      <trkpt lat="48.61655" lon="2.03184">
        <ele>125</ele>
        <time>2026-05-24T07:49:47Z</time>
      </trkpt>
      <trkpt lat="48.61658" lon="2.03184">
        <ele>125.2</ele>
        <time>2026-05-24T07:49:48Z</time>
      </trkpt>
      <trkpt lat="48.61661" lon="2.03184">
        <ele>125.4</ele>
        <time>2026-05-24T07:49:49Z</time>
      </trkpt>
      <trkpt lat="48.61664" lon="2.03184">
        <ele>125.4</ele>
        <time>2026-05-24T07:49:50Z</time>
      </trkpt>
      <trkpt lat="48.61667" lon="2.03184">
        <ele>125.4</ele>
        <time>2026-05-24T07:49:51Z</time>
      </trkpt>
      <trkpt lat="48.6167" lon="2.03184">
        <ele>125.6</ele>
        <time>2026-05-24T07:49:52Z</time>
      </trkpt>
      <trkpt lat="48.61673" lon="2.03185">
        <ele>125.4</ele>
        <time>2026-05-24T07:49:53Z</time>
      </trkpt>
      <trkpt lat="48.61676" lon="2.03185">
        <ele>125.4</ele>
        <time>2026-05-24T07:49:54Z</time>
      </trkpt>
      <trkpt lat="48.61679" lon="2.03186">
        <ele>125.4</ele>
        <time>2026-05-24T07:49:55Z</time>
      </trkpt>
      <trkpt lat="48.61682" lon="2.03185">
        <ele>125.4</ele>
        <time>2026-05-24T07:49:56Z</time>
      </trkpt>
      <trkpt lat="48.61685" lon="2.03185">
        <ele>125.4</ele>
        <time>2026-05-24T07:49:57Z</time>
      </trkpt>
      <trkpt lat="48.61688" lon="2.03186">
        <ele>125.4</ele>
        <time>2026-05-24T07:49:58Z</time>
      </trkpt>
      <trkpt lat="48.6169" lon="2.03187">
        <ele>125.4</ele>
        <time>2026-05-24T07:49:59Z</time>
      </trkpt>
      <trkpt lat="48.61693" lon="2.03188">
        <ele>126</ele>
        <time>2026-05-24T07:50:00Z</time>
      </trkpt>
      <trkpt lat="48.61696" lon="2.03189">
        <ele>126</ele>
        <time>2026-05-24T07:50:01Z</time>
      </trkpt>
      <trkpt lat="48.61698" lon="2.0319">
        <ele>126</ele>
        <time>2026-05-24T07:50:02Z</time>
      </trkpt>
      <trkpt lat="48.61701" lon="2.0319">
        <ele>126</ele>
        <time>2026-05-24T07:50:03Z</time>
      </trkpt>
      <trkpt lat="48.61703" lon="2.03188">
        <ele>126</ele>
        <time>2026-05-24T07:50:04Z</time>
      </trkpt>
      <trkpt lat="48.61705" lon="2.03185">
        <ele>126.4</ele>
        <time>2026-05-24T07:50:05Z</time>
      </trkpt>
      <trkpt lat="48.61707" lon="2.03182">
        <ele>126.4</ele>
        <time>2026-05-24T07:50:06Z</time>
      </trkpt>
      <trkpt lat="48.61708" lon="2.03178">
        <ele>126.4</ele>
        <time>2026-05-24T07:50:07Z</time>
      </trkpt>
      <trkpt lat="48.61709" lon="2.03174">
        <ele>126.4</ele>
        <time>2026-05-24T07:50:08Z</time>
      </trkpt>
      <trkpt lat="48.6171" lon="2.0317">
        <ele>126.4</ele>
        <time>2026-05-24T07:50:09Z</time>
      </trkpt>
      <trkpt lat="48.61711" lon="2.03166">
        <ele>126.4</ele>
        <time>2026-05-24T07:50:10Z</time>
      </trkpt>
      <trkpt lat="48.61712" lon="2.03161">
        <ele>126.4</ele>
        <time>2026-05-24T07:50:11Z</time>
      </trkpt>
      <trkpt lat="48.61713" lon="2.03156">
        <ele>126.4</ele>
        <time>2026-05-24T07:50:12Z</time>
      </trkpt>
      <trkpt lat="48.61713" lon="2.03151">
        <ele>127</ele>
        <time>2026-05-24T07:50:13Z</time>
      </trkpt>
      <trkpt lat="48.61714" lon="2.03146">
        <ele>127</ele>
        <time>2026-05-24T07:50:14Z</time>
      </trkpt>
      <trkpt lat="48.61715" lon="2.03141">
        <ele>127</ele>
        <time>2026-05-24T07:50:15Z</time>
      </trkpt>
      <trkpt lat="48.61715" lon="2.03136">
        <ele>127</ele>
        <time>2026-05-24T07:50:16Z</time>
      </trkpt>
      <trkpt lat="48.61716" lon="2.0313">
        <ele>127.2</ele>
        <time>2026-05-24T07:50:17Z</time>
      </trkpt>
      <trkpt lat="48.61716" lon="2.03125">
        <ele>127.2</ele>
        <time>2026-05-24T07:50:18Z</time>
      </trkpt>
      <trkpt lat="48.61717" lon="2.03119">
        <ele>127.2</ele>
        <time>2026-05-24T07:50:19Z</time>
      </trkpt>
      <trkpt lat="48.61717" lon="2.03113">
        <ele>127.4</ele>
        <time>2026-05-24T07:50:20Z</time>
      </trkpt>
      <trkpt lat="48.61718" lon="2.03108">
        <ele>127.2</ele>
        <time>2026-05-24T07:50:21Z</time>
      </trkpt>
      <trkpt lat="48.61719" lon="2.03102">
        <ele>127.2</ele>
        <time>2026-05-24T07:50:22Z</time>
      </trkpt>
      <trkpt lat="48.6172" lon="2.03097">
        <ele>127.2</ele>
        <time>2026-05-24T07:50:23Z</time>
      </trkpt>
      <trkpt lat="48.6172" lon="2.03091">
        <ele>127.2</ele>
        <time>2026-05-24T07:50:24Z</time>
      </trkpt>
      <trkpt lat="48.61721" lon="2.03085">
        <ele>127.2</ele>
        <time>2026-05-24T07:50:25Z</time>
      </trkpt>
      <trkpt lat="48.61721" lon="2.03079">
        <ele>127.2</ele>
        <time>2026-05-24T07:50:26Z</time>
      </trkpt>
      <trkpt lat="48.61722" lon="2.03073">
        <ele>127.2</ele>
        <time>2026-05-24T07:50:27Z</time>
      </trkpt>
      <trkpt lat="48.61722" lon="2.03068">
        <ele>127.2</ele>
        <time>2026-05-24T07:50:28Z</time>
      </trkpt>
      <trkpt lat="48.61723" lon="2.03062">
        <ele>127.6</ele>
        <time>2026-05-24T07:50:29Z</time>
      </trkpt>
      <trkpt lat="48.61723" lon="2.03057">
        <ele>127.6</ele>
        <time>2026-05-24T07:50:30Z</time>
      </trkpt>
      <trkpt lat="48.61724" lon="2.03052">
        <ele>127.6</ele>
        <time>2026-05-24T07:50:31Z</time>
      </trkpt>
      <trkpt lat="48.61728" lon="2.0305">
        <ele>127.6</ele>
        <time>2026-05-24T07:50:32Z</time>
      </trkpt>
      <trkpt lat="48.61731" lon="2.0305">
        <ele>127.8</ele>
        <time>2026-05-24T07:50:33Z</time>
      </trkpt>
      <trkpt lat="48.61735" lon="2.03051">
        <ele>127.8</ele>
        <time>2026-05-24T07:50:34Z</time>
      </trkpt>
      <trkpt lat="48.61737" lon="2.03053">
        <ele>127.8</ele>
        <time>2026-05-24T07:50:35Z</time>
      </trkpt>
      <trkpt lat="48.6174" lon="2.03054">
        <ele>127.8</ele>
        <time>2026-05-24T07:50:36Z</time>
      </trkpt>
      <trkpt lat="48.61744" lon="2.03055">
        <ele>128.4</ele>
        <time>2026-05-24T07:50:37Z</time>
      </trkpt>
      <trkpt lat="48.61747" lon="2.03057">
        <ele>128.4</ele>
        <time>2026-05-24T07:50:38Z</time>
      </trkpt>
      <trkpt lat="48.6175" lon="2.03057">
        <ele>128.4</ele>
        <time>2026-05-24T07:50:39Z</time>
      </trkpt>
      <trkpt lat="48.61753" lon="2.03058">
        <ele>128.4</ele>
        <time>2026-05-24T07:50:40Z</time>
      </trkpt>
      <trkpt lat="48.61756" lon="2.03059">
        <ele>129</ele>
        <time>2026-05-24T07:50:41Z</time>
      </trkpt>
      <trkpt lat="48.61759" lon="2.0306">
        <ele>129</ele>
        <time>2026-05-24T07:50:42Z</time>
      </trkpt>
      <trkpt lat="48.61762" lon="2.03061">
        <ele>129</ele>
        <time>2026-05-24T07:50:43Z</time>
      </trkpt>
      <trkpt lat="48.61766" lon="2.03062">
        <ele>128.6</ele>
        <time>2026-05-24T07:50:44Z</time>
      </trkpt>
      <trkpt lat="48.61769" lon="2.03063">
        <ele>128.8</ele>
        <time>2026-05-24T07:50:45Z</time>
      </trkpt>
      <trkpt lat="48.61772" lon="2.03064">
        <ele>128.8</ele>
        <time>2026-05-24T07:50:46Z</time>
      </trkpt>
      <trkpt lat="48.61775" lon="2.03064">
        <ele>128.8</ele>
        <time>2026-05-24T07:50:47Z</time>
      </trkpt>
      <trkpt lat="48.61778" lon="2.03065">
        <ele>129.6</ele>
        <time>2026-05-24T07:50:48Z</time>
      </trkpt>
      <trkpt lat="48.61782" lon="2.03066">
        <ele>129</ele>
        <time>2026-05-24T07:50:49Z</time>
      </trkpt>
      <trkpt lat="48.61785" lon="2.03067">
        <ele>129</ele>
        <time>2026-05-24T07:50:50Z</time>
      </trkpt>
      <trkpt lat="48.61788" lon="2.03069">
        <ele>129</ele>
        <time>2026-05-24T07:50:51Z</time>
      </trkpt>
      <trkpt lat="48.61791" lon="2.0307">
        <ele>129</ele>
        <time>2026-05-24T07:50:52Z</time>
      </trkpt>
      <trkpt lat="48.61794" lon="2.03071">
        <ele>129.6</ele>
        <time>2026-05-24T07:50:53Z</time>
      </trkpt>
      <trkpt lat="48.61797" lon="2.03072">
        <ele>129.6</ele>
        <time>2026-05-24T07:50:54Z</time>
      </trkpt>
      <trkpt lat="48.61801" lon="2.03073">
        <ele>129.6</ele>
        <time>2026-05-24T07:50:55Z</time>
      </trkpt>
      <trkpt lat="48.61804" lon="2.03073">
        <ele>129.6</ele>
        <time>2026-05-24T07:50:56Z</time>
      </trkpt>
      <trkpt lat="48.61807" lon="2.03074">
        <ele>129.4</ele>
        <time>2026-05-24T07:50:57Z</time>
      </trkpt>
      <trkpt lat="48.6181" lon="2.03075">
        <ele>129.4</ele>
        <time>2026-05-24T07:50:58Z</time>
      </trkpt>
      <trkpt lat="48.61813" lon="2.03077">
        <ele>129.4</ele>
        <time>2026-05-24T07:50:59Z</time>
      </trkpt>
      <trkpt lat="48.61816" lon="2.03078">
        <ele>129.8</ele>
        <time>2026-05-24T07:51:00Z</time>
      </trkpt>
      <trkpt lat="48.61819" lon="2.03079">
        <ele>129.6</ele>
        <time>2026-05-24T07:51:01Z</time>
      </trkpt>
      <trkpt lat="48.61822" lon="2.0308">
        <ele>129.6</ele>
        <time>2026-05-24T07:51:02Z</time>
      </trkpt>
      <trkpt lat="48.61825" lon="2.03081">
        <ele>129.6</ele>
        <time>2026-05-24T07:51:03Z</time>
      </trkpt>
      <trkpt lat="48.61828" lon="2.03082">
        <ele>130</ele>
        <time>2026-05-24T07:51:04Z</time>
      </trkpt>
      <trkpt lat="48.61832" lon="2.03083">
        <ele>130.2</ele>
        <time>2026-05-24T07:51:05Z</time>
      </trkpt>
      <trkpt lat="48.61835" lon="2.03084">
        <ele>130.2</ele>
        <time>2026-05-24T07:51:06Z</time>
      </trkpt>
      <trkpt lat="48.61838" lon="2.03084">
        <ele>130.2</ele>
        <time>2026-05-24T07:51:07Z</time>
      </trkpt>
      <trkpt lat="48.61841" lon="2.03085">
        <ele>130.4</ele>
        <time>2026-05-24T07:51:08Z</time>
      </trkpt>
      <trkpt lat="48.61844" lon="2.03086">
        <ele>130.2</ele>
        <time>2026-05-24T07:51:09Z</time>
      </trkpt>
      <trkpt lat="48.61847" lon="2.03088">
        <ele>130.2</ele>
        <time>2026-05-24T07:51:10Z</time>
      </trkpt>
      <trkpt lat="48.6185" lon="2.03089">
        <ele>130.2</ele>
        <time>2026-05-24T07:51:11Z</time>
      </trkpt>
      <trkpt lat="48.61853" lon="2.03089">
        <ele>130.2</ele>
        <time>2026-05-24T07:51:12Z</time>
      </trkpt>
      <trkpt lat="48.61857" lon="2.0309">
        <ele>130.2</ele>
        <time>2026-05-24T07:51:13Z</time>
      </trkpt>
      <trkpt lat="48.6186" lon="2.03091">
        <ele>130.2</ele>
        <time>2026-05-24T07:51:14Z</time>
      </trkpt>
      <trkpt lat="48.61863" lon="2.03091">
        <ele>130.2</ele>
        <time>2026-05-24T07:51:15Z</time>
      </trkpt>
      <trkpt lat="48.61866" lon="2.03093">
        <ele>130.2</ele>
        <time>2026-05-24T07:51:16Z</time>
      </trkpt>
      <trkpt lat="48.61869" lon="2.03096">
        <ele>130.6</ele>
        <time>2026-05-24T07:51:17Z</time>
      </trkpt>
      <trkpt lat="48.61871" lon="2.03099">
        <ele>130.6</ele>
        <time>2026-05-24T07:51:18Z</time>
      </trkpt>
      <trkpt lat="48.61873" lon="2.03102">
        <ele>130.6</ele>
        <time>2026-05-24T07:51:19Z</time>
      </trkpt>
      <trkpt lat="48.61876" lon="2.03106">
        <ele>130.6</ele>
        <time>2026-05-24T07:51:20Z</time>
      </trkpt>
      <trkpt lat="48.61878" lon="2.03109">
        <ele>130.8</ele>
        <time>2026-05-24T07:51:21Z</time>
      </trkpt>
      <trkpt lat="48.61881" lon="2.03112">
        <ele>130.8</ele>
        <time>2026-05-24T07:51:22Z</time>
      </trkpt>
      <trkpt lat="48.61883" lon="2.03115">
        <ele>130.8</ele>
        <time>2026-05-24T07:51:23Z</time>
      </trkpt>
      <trkpt lat="48.61886" lon="2.03118">
        <ele>130.8</ele>
        <time>2026-05-24T07:51:24Z</time>
      </trkpt>
      <trkpt lat="48.61889" lon="2.03121">
        <ele>131.2</ele>
        <time>2026-05-24T07:51:25Z</time>
      </trkpt>
      <trkpt lat="48.61891" lon="2.03124">
        <ele>131.2</ele>
        <time>2026-05-24T07:51:26Z</time>
      </trkpt>
      <trkpt lat="48.61894" lon="2.03127">
        <ele>131.2</ele>
        <time>2026-05-24T07:51:27Z</time>
      </trkpt>
      <trkpt lat="48.61896" lon="2.0313">
        <ele>132</ele>
        <time>2026-05-24T07:51:28Z</time>
      </trkpt>
      <trkpt lat="48.61898" lon="2.03133">
        <ele>131.6</ele>
        <time>2026-05-24T07:51:29Z</time>
      </trkpt>
      <trkpt lat="48.619" lon="2.03137">
        <ele>131.6</ele>
        <time>2026-05-24T07:51:30Z</time>
      </trkpt>
      <trkpt lat="48.61902" lon="2.0314">
        <ele>131.6</ele>
        <time>2026-05-24T07:51:31Z</time>
      </trkpt>
      <trkpt lat="48.61903" lon="2.03145">
        <ele>131.6</ele>
        <time>2026-05-24T07:51:32Z</time>
      </trkpt>
      <trkpt lat="48.61904" lon="2.0315">
        <ele>131.4</ele>
        <time>2026-05-24T07:51:33Z</time>
      </trkpt>
      <trkpt lat="48.61905" lon="2.03156">
        <ele>131.4</ele>
        <time>2026-05-24T07:51:34Z</time>
      </trkpt>
      <trkpt lat="48.61906" lon="2.03161">
        <ele>131.4</ele>
        <time>2026-05-24T07:51:35Z</time>
      </trkpt>
      <trkpt lat="48.61907" lon="2.03167">
        <ele>131.4</ele>
        <time>2026-05-24T07:51:36Z</time>
      </trkpt>
      <trkpt lat="48.61907" lon="2.03173">
        <ele>131.4</ele>
        <time>2026-05-24T07:51:37Z</time>
      </trkpt>
      <trkpt lat="48.61908" lon="2.03178">
        <ele>131.4</ele>
        <time>2026-05-24T07:51:38Z</time>
      </trkpt>
      <trkpt lat="48.61909" lon="2.03184">
        <ele>131.4</ele>
        <time>2026-05-24T07:51:39Z</time>
      </trkpt>
      <trkpt lat="48.6191" lon="2.03189">
        <ele>131.4</ele>
        <time>2026-05-24T07:51:40Z</time>
      </trkpt>
      <trkpt lat="48.61911" lon="2.03194">
        <ele>132.2</ele>
        <time>2026-05-24T07:51:41Z</time>
      </trkpt>
      <trkpt lat="48.61911" lon="2.03198">
        <ele>132.2</ele>
        <time>2026-05-24T07:51:42Z</time>
      </trkpt>
      <trkpt lat="48.61912" lon="2.03203">
        <ele>132.2</ele>
        <time>2026-05-24T07:51:43Z</time>
      </trkpt>
      <trkpt lat="48.61913" lon="2.03208">
        <ele>131.8</ele>
        <time>2026-05-24T07:51:44Z</time>
      </trkpt>
      <trkpt lat="48.61913" lon="2.03213">
        <ele>132.2</ele>
        <time>2026-05-24T07:51:45Z</time>
      </trkpt>
      <trkpt lat="48.61914" lon="2.03217">
        <ele>132.2</ele>
        <time>2026-05-24T07:51:46Z</time>
      </trkpt>
      <trkpt lat="48.61916" lon="2.03222">
        <ele>132.2</ele>
        <time>2026-05-24T07:51:47Z</time>
      </trkpt>
      <trkpt lat="48.61917" lon="2.03227">
        <ele>131.6</ele>
        <time>2026-05-24T07:51:48Z</time>
      </trkpt>
      <trkpt lat="48.61918" lon="2.03232">
        <ele>131.6</ele>
        <time>2026-05-24T07:51:49Z</time>
      </trkpt>
      <trkpt lat="48.61919" lon="2.03237">
        <ele>131.6</ele>
        <time>2026-05-24T07:51:50Z</time>
      </trkpt>
      <trkpt lat="48.61921" lon="2.03243">
        <ele>131.6</ele>
        <time>2026-05-24T07:51:51Z</time>
      </trkpt>
      <trkpt lat="48.61921" lon="2.03248">
        <ele>131.6</ele>
        <time>2026-05-24T07:51:52Z</time>
      </trkpt>
      <trkpt lat="48.61922" lon="2.03254">
        <ele>131.4</ele>
        <time>2026-05-24T07:51:53Z</time>
      </trkpt>
      <trkpt lat="48.61923" lon="2.03259">
        <ele>131.4</ele>
        <time>2026-05-24T07:51:54Z</time>
      </trkpt>
      <trkpt lat="48.61925" lon="2.03264">
        <ele>131.4</ele>
        <time>2026-05-24T07:51:55Z</time>
      </trkpt>
      <trkpt lat="48.61927" lon="2.03268">
        <ele>131.4</ele>
        <time>2026-05-24T07:51:56Z</time>
      </trkpt>
      <trkpt lat="48.61929" lon="2.03271">
        <ele>132.2</ele>
        <time>2026-05-24T07:51:57Z</time>
      </trkpt>
      <trkpt lat="48.61933" lon="2.03272">
        <ele>132.2</ele>
        <time>2026-05-24T07:51:58Z</time>
      </trkpt>
      <trkpt lat="48.61936" lon="2.03272">
        <ele>132.2</ele>
        <time>2026-05-24T07:51:59Z</time>
      </trkpt>
      <trkpt lat="48.61939" lon="2.03271">
        <ele>132</ele>
        <time>2026-05-24T07:52:00Z</time>
      </trkpt>
      <trkpt lat="48.61943" lon="2.0327">
        <ele>132.2</ele>
        <time>2026-05-24T07:52:01Z</time>
      </trkpt>
      <trkpt lat="48.61946" lon="2.0327">
        <ele>132.2</ele>
        <time>2026-05-24T07:52:02Z</time>
      </trkpt>
      <trkpt lat="48.6195" lon="2.03269">
        <ele>132.2</ele>
        <time>2026-05-24T07:52:03Z</time>
      </trkpt>
      <trkpt lat="48.61953" lon="2.0327">
        <ele>132.2</ele>
        <time>2026-05-24T07:52:04Z</time>
      </trkpt>
      <trkpt lat="48.61956" lon="2.03271">
        <ele>131.8</ele>
        <time>2026-05-24T07:52:05Z</time>
      </trkpt>
      <trkpt lat="48.61959" lon="2.03274">
        <ele>131.8</ele>
        <time>2026-05-24T07:52:06Z</time>
      </trkpt>
      <trkpt lat="48.61962" lon="2.03277">
        <ele>131.8</ele>
        <time>2026-05-24T07:52:07Z</time>
      </trkpt>
      <trkpt lat="48.61965" lon="2.0328">
        <ele>132.2</ele>
        <time>2026-05-24T07:52:08Z</time>
      </trkpt>
      <trkpt lat="48.61967" lon="2.03283">
        <ele>132.2</ele>
        <time>2026-05-24T07:52:09Z</time>
      </trkpt>
      <trkpt lat="48.6197" lon="2.03286">
        <ele>132.2</ele>
        <time>2026-05-24T07:52:10Z</time>
      </trkpt>
      <trkpt lat="48.61972" lon="2.03289">
        <ele>132.2</ele>
        <time>2026-05-24T07:52:11Z</time>
      </trkpt>
      <trkpt lat="48.61975" lon="2.03293">
        <ele>132.6</ele>
        <time>2026-05-24T07:52:12Z</time>
      </trkpt>
      <trkpt lat="48.61977" lon="2.03296">
        <ele>132.6</ele>
        <time>2026-05-24T07:52:13Z</time>
      </trkpt>
      <trkpt lat="48.6198" lon="2.03299">
        <ele>132.6</ele>
        <time>2026-05-24T07:52:14Z</time>
      </trkpt>
      <trkpt lat="48.61982" lon="2.03302">
        <ele>132.6</ele>
        <time>2026-05-24T07:52:15Z</time>
      </trkpt>
      <trkpt lat="48.61985" lon="2.03305">
        <ele>132.8</ele>
        <time>2026-05-24T07:52:16Z</time>
      </trkpt>
      <trkpt lat="48.61987" lon="2.03308">
        <ele>133.2</ele>
        <time>2026-05-24T07:52:17Z</time>
      </trkpt>
      <trkpt lat="48.61989" lon="2.0331">
        <ele>133.2</ele>
        <time>2026-05-24T07:52:18Z</time>
      </trkpt>
      <trkpt lat="48.61992" lon="2.03313">
        <ele>133.2</ele>
        <time>2026-05-24T07:52:19Z</time>
      </trkpt>
      <trkpt lat="48.61994" lon="2.03316">
        <ele>133.2</ele>
        <time>2026-05-24T07:52:20Z</time>
      </trkpt>
      <trkpt lat="48.61996" lon="2.03318">
        <ele>133.6</ele>
        <time>2026-05-24T07:52:21Z</time>
      </trkpt>
      <trkpt lat="48.61999" lon="2.03321">
        <ele>133.6</ele>
        <time>2026-05-24T07:52:22Z</time>
      </trkpt>
      <trkpt lat="48.62001" lon="2.03324">
        <ele>133.6</ele>
        <time>2026-05-24T07:52:23Z</time>
      </trkpt>
      <trkpt lat="48.62003" lon="2.03327">
        <ele>133.6</ele>
        <time>2026-05-24T07:52:24Z</time>
      </trkpt>
      <trkpt lat="48.62005" lon="2.0333">
        <ele>134</ele>
        <time>2026-05-24T07:52:25Z</time>
      </trkpt>
      <trkpt lat="48.62007" lon="2.03334">
        <ele>134</ele>
        <time>2026-05-24T07:52:26Z</time>
      </trkpt>
      <trkpt lat="48.62009" lon="2.03337">
        <ele>134</ele>
        <time>2026-05-24T07:52:27Z</time>
      </trkpt>
      <trkpt lat="48.62011" lon="2.03339">
        <ele>134</ele>
        <time>2026-05-24T07:52:28Z</time>
      </trkpt>
      <trkpt lat="48.62013" lon="2.0334">
        <ele>134.4</ele>
        <time>2026-05-24T07:52:29Z</time>
      </trkpt>
      <trkpt lat="48.62015" lon="2.0334">
        <ele>134.4</ele>
        <time>2026-05-24T07:52:30Z</time>
      </trkpt>
      <trkpt lat="48.62017" lon="2.03339">
        <ele>134.4</ele>
        <time>2026-05-24T07:52:31Z</time>
      </trkpt>
      <trkpt lat="48.62019" lon="2.03337">
        <ele>134.4</ele>
        <time>2026-05-24T07:52:32Z</time>
      </trkpt>
      <trkpt lat="48.6202" lon="2.03334">
        <ele>134.6</ele>
        <time>2026-05-24T07:52:33Z</time>
      </trkpt>
      <trkpt lat="48.62022" lon="2.03331">
        <ele>134.6</ele>
        <time>2026-05-24T07:52:34Z</time>
      </trkpt>
      <trkpt lat="48.62024" lon="2.03328">
        <ele>134.6</ele>
        <time>2026-05-24T07:52:35Z</time>
      </trkpt>
      <trkpt lat="48.62026" lon="2.03324">
        <ele>134.6</ele>
        <time>2026-05-24T07:52:36Z</time>
      </trkpt>
      <trkpt lat="48.62028" lon="2.03321">
        <ele>134.6</ele>
        <time>2026-05-24T07:52:37Z</time>
      </trkpt>
      <trkpt lat="48.6203" lon="2.03318">
        <ele>134.6</ele>
        <time>2026-05-24T07:52:38Z</time>
      </trkpt>
      <trkpt lat="48.62032" lon="2.03314">
        <ele>134.6</ele>
        <time>2026-05-24T07:52:39Z</time>
      </trkpt>
      <trkpt lat="48.62034" lon="2.0331">
        <ele>134.6</ele>
        <time>2026-05-24T07:52:40Z</time>
      </trkpt>
      <trkpt lat="48.62036" lon="2.03307">
        <ele>135.6</ele>
        <time>2026-05-24T07:52:41Z</time>
      </trkpt>
      <trkpt lat="48.62037" lon="2.03305">
        <ele>135.6</ele>
        <time>2026-05-24T07:52:42Z</time>
      </trkpt>
      <trkpt lat="48.62038" lon="2.03303">
        <ele>135.6</ele>
        <time>2026-05-24T07:52:43Z</time>
      </trkpt>
      <trkpt lat="48.6204" lon="2.033">
        <ele>135.8</ele>
        <time>2026-05-24T07:52:44Z</time>
      </trkpt>
      <trkpt lat="48.62041" lon="2.03297">
        <ele>135.8</ele>
        <time>2026-05-24T07:52:45Z</time>
      </trkpt>
      <trkpt lat="48.62043" lon="2.03294">
        <ele>135.8</ele>
        <time>2026-05-24T07:52:46Z</time>
      </trkpt>
      <trkpt lat="48.62044" lon="2.03292">
        <ele>135.8</ele>
        <time>2026-05-24T07:52:47Z</time>
      </trkpt>
      <trkpt lat="48.62045" lon="2.03289">
        <ele>136.2</ele>
        <time>2026-05-24T07:52:48Z</time>
      </trkpt>
      <trkpt lat="48.62044" lon="2.03285">
        <ele>136.4</ele>
        <time>2026-05-24T07:52:49Z</time>
      </trkpt>
      <trkpt lat="48.62042" lon="2.03282">
        <ele>136.4</ele>
        <time>2026-05-24T07:52:50Z</time>
      </trkpt>
      <trkpt lat="48.6204" lon="2.0328">
        <ele>136.4</ele>
        <time>2026-05-24T07:52:51Z</time>
      </trkpt>
      <trkpt lat="48.62038" lon="2.03278">
        <ele>136.4</ele>
        <time>2026-05-24T07:52:52Z</time>
      </trkpt>
      <trkpt lat="48.62035" lon="2.03275">
        <ele>136</ele>
        <time>2026-05-24T07:52:53Z</time>
      </trkpt>
      <trkpt lat="48.62032" lon="2.03273">
        <ele>136</ele>
        <time>2026-05-24T07:52:54Z</time>
      </trkpt>
      <trkpt lat="48.62029" lon="2.0327">
        <ele>136</ele>
        <time>2026-05-24T07:52:55Z</time>
      </trkpt>
      <trkpt lat="48.62025" lon="2.03266">
        <ele>135.6</ele>
        <time>2026-05-24T07:52:56Z</time>
      </trkpt>
      <trkpt lat="48.62023" lon="2.03262">
        <ele>135.8</ele>
        <time>2026-05-24T07:52:57Z</time>
      </trkpt>
      <trkpt lat="48.6202" lon="2.03258">
        <ele>135.8</ele>
        <time>2026-05-24T07:52:58Z</time>
      </trkpt>
      <trkpt lat="48.62017" lon="2.03254">
        <ele>135.8</ele>
        <time>2026-05-24T07:52:59Z</time>
      </trkpt>
      <trkpt lat="48.62013" lon="2.0325">
        <ele>135.2</ele>
        <time>2026-05-24T07:53:00Z</time>
      </trkpt>
      <trkpt lat="48.6201" lon="2.03246">
        <ele>135</ele>
        <time>2026-05-24T07:53:01Z</time>
      </trkpt>
      <trkpt lat="48.62006" lon="2.03241">
        <ele>135</ele>
        <time>2026-05-24T07:53:02Z</time>
      </trkpt>
      <trkpt lat="48.62002" lon="2.03237">
        <ele>135</ele>
        <time>2026-05-24T07:53:03Z</time>
      </trkpt>
      <trkpt lat="48.61999" lon="2.03232">
        <ele>134.8</ele>
        <time>2026-05-24T07:53:04Z</time>
      </trkpt>
      <trkpt lat="48.61995" lon="2.03227">
        <ele>134.4</ele>
        <time>2026-05-24T07:53:05Z</time>
      </trkpt>
      <trkpt lat="48.61992" lon="2.03223">
        <ele>134.4</ele>
        <time>2026-05-24T07:53:06Z</time>
      </trkpt>
      <trkpt lat="48.61988" lon="2.03218">
        <ele>134.4</ele>
        <time>2026-05-24T07:53:07Z</time>
      </trkpt>
      <trkpt lat="48.61984" lon="2.03213">
        <ele>134.4</ele>
        <time>2026-05-24T07:53:08Z</time>
      </trkpt>
      <trkpt lat="48.6198" lon="2.03209">
        <ele>134.2</ele>
        <time>2026-05-24T07:53:09Z</time>
      </trkpt>
      <trkpt lat="48.61977" lon="2.03203">
        <ele>134.2</ele>
        <time>2026-05-24T07:53:10Z</time>
      </trkpt>
      <trkpt lat="48.61976" lon="2.03195">
        <ele>134.2</ele>
        <time>2026-05-24T07:53:11Z</time>
      </trkpt>
      <trkpt lat="48.61977" lon="2.03188">
        <ele>133.6</ele>
        <time>2026-05-24T07:53:12Z</time>
      </trkpt>
      <trkpt lat="48.61979" lon="2.03182">
        <ele>133.6</ele>
        <time>2026-05-24T07:53:13Z</time>
      </trkpt>
      <trkpt lat="48.61983" lon="2.03179">
        <ele>133.6</ele>
        <time>2026-05-24T07:53:14Z</time>
      </trkpt>
      <trkpt lat="48.61987" lon="2.03176">
        <ele>133.6</ele>
        <time>2026-05-24T07:53:15Z</time>
      </trkpt>
      <trkpt lat="48.6199" lon="2.03173">
        <ele>134.6</ele>
        <time>2026-05-24T07:53:16Z</time>
      </trkpt>
      <trkpt lat="48.61993" lon="2.0317">
        <ele>135</ele>
        <time>2026-05-24T07:53:17Z</time>
      </trkpt>
      <trkpt lat="48.61996" lon="2.03167">
        <ele>135</ele>
        <time>2026-05-24T07:53:18Z</time>
      </trkpt>
      <trkpt lat="48.61999" lon="2.03164">
        <ele>135</ele>
        <time>2026-05-24T07:53:19Z</time>
      </trkpt>
      <trkpt lat="48.62001" lon="2.03161">
        <ele>135</ele>
        <time>2026-05-24T07:53:20Z</time>
      </trkpt>
      <trkpt lat="48.62004" lon="2.03158">
        <ele>135.2</ele>
        <time>2026-05-24T07:53:21Z</time>
      </trkpt>
      <trkpt lat="48.62007" lon="2.03155">
        <ele>135.2</ele>
        <time>2026-05-24T07:53:22Z</time>
      </trkpt>
      <trkpt lat="48.6201" lon="2.03153">
        <ele>135.2</ele>
        <time>2026-05-24T07:53:23Z</time>
      </trkpt>
      <trkpt lat="48.62012" lon="2.03151">
        <ele>136</ele>
        <time>2026-05-24T07:53:24Z</time>
      </trkpt>
      <trkpt lat="48.62015" lon="2.03148">
        <ele>136.2</ele>
        <time>2026-05-24T07:53:25Z</time>
      </trkpt>
      <trkpt lat="48.62017" lon="2.03145">
        <ele>136.2</ele>
        <time>2026-05-24T07:53:26Z</time>
      </trkpt>
      <trkpt lat="48.6202" lon="2.03143">
        <ele>136.2</ele>
        <time>2026-05-24T07:53:27Z</time>
      </trkpt>
      <trkpt lat="48.62022" lon="2.0314">
        <ele>136.2</ele>
        <time>2026-05-24T07:53:28Z</time>
      </trkpt>
      <trkpt lat="48.62025" lon="2.03138">
        <ele>135.8</ele>
        <time>2026-05-24T07:53:29Z</time>
      </trkpt>
      <trkpt lat="48.62028" lon="2.03137">
        <ele>135.8</ele>
        <time>2026-05-24T07:53:30Z</time>
      </trkpt>
      <trkpt lat="48.62031" lon="2.03134">
        <ele>135.8</ele>
        <time>2026-05-24T07:53:31Z</time>
      </trkpt>
      <trkpt lat="48.62034" lon="2.03133">
        <ele>136.2</ele>
        <time>2026-05-24T07:53:32Z</time>
      </trkpt>
      <trkpt lat="48.62037" lon="2.03131">
        <ele>136.6</ele>
        <time>2026-05-24T07:53:33Z</time>
      </trkpt>
      <trkpt lat="48.6204" lon="2.03129">
        <ele>136.6</ele>
        <time>2026-05-24T07:53:34Z</time>
      </trkpt>
      <trkpt lat="48.62042" lon="2.03127">
        <ele>136.6</ele>
        <time>2026-05-24T07:53:35Z</time>
      </trkpt>
      <trkpt lat="48.62044" lon="2.03125">
        <ele>136.6</ele>
        <time>2026-05-24T07:53:36Z</time>
      </trkpt>
      <trkpt lat="48.62046" lon="2.03122">
        <ele>136.6</ele>
        <time>2026-05-24T07:53:37Z</time>
      </trkpt>
      <trkpt lat="48.62047" lon="2.0312">
        <ele>136.6</ele>
        <time>2026-05-24T07:53:38Z</time>
      </trkpt>
      <trkpt lat="48.62048" lon="2.03117">
        <ele>136.6</ele>
        <time>2026-05-24T07:53:39Z</time>
      </trkpt>
      <trkpt lat="48.62049" lon="2.03114">
        <ele>137.4</ele>
        <time>2026-05-24T07:53:40Z</time>
      </trkpt>
      <trkpt lat="48.62051" lon="2.03111">
        <ele>137.4</ele>
        <time>2026-05-24T07:53:41Z</time>
      </trkpt>
      <trkpt lat="48.62052" lon="2.03108">
        <ele>137.4</ele>
        <time>2026-05-24T07:53:42Z</time>
      </trkpt>
      <trkpt lat="48.62053" lon="2.03105">
        <ele>137.4</ele>
        <time>2026-05-24T07:53:43Z</time>
      </trkpt>
      <trkpt lat="48.62055" lon="2.03102">
        <ele>137.4</ele>
        <time>2026-05-24T07:53:44Z</time>
      </trkpt>
      <trkpt lat="48.62056" lon="2.03099">
        <ele>137.8</ele>
        <time>2026-05-24T07:53:45Z</time>
      </trkpt>
      <trkpt lat="48.62058" lon="2.03096">
        <ele>137.8</ele>
        <time>2026-05-24T07:53:46Z</time>
      </trkpt>
      <trkpt lat="48.62059" lon="2.03094">
        <ele>137.8</ele>
        <time>2026-05-24T07:53:47Z</time>
      </trkpt>
      <trkpt lat="48.62061" lon="2.03092">
        <ele>138.4</ele>
        <time>2026-05-24T07:53:48Z</time>
      </trkpt>
      <trkpt lat="48.62064" lon="2.0309">
        <ele>138.4</ele>
        <time>2026-05-24T07:53:49Z</time>
      </trkpt>
      <trkpt lat="48.62066" lon="2.03088">
        <ele>138.4</ele>
        <time>2026-05-24T07:53:50Z</time>
      </trkpt>
      <trkpt lat="48.62068" lon="2.03086">
        <ele>138.4</ele>
        <time>2026-05-24T07:53:51Z</time>
      </trkpt>
      <trkpt lat="48.6207" lon="2.03085">
        <ele>138.8</ele>
        <time>2026-05-24T07:53:52Z</time>
      </trkpt>
      <trkpt lat="48.62073" lon="2.03083">
        <ele>139</ele>
        <time>2026-05-24T07:53:53Z</time>
      </trkpt>
      <trkpt lat="48.62075" lon="2.03081">
        <ele>139</ele>
        <time>2026-05-24T07:53:54Z</time>
      </trkpt>
      <trkpt lat="48.62077" lon="2.03079">
        <ele>139</ele>
        <time>2026-05-24T07:53:55Z</time>
      </trkpt>
      <trkpt lat="48.62079" lon="2.03077">
        <ele>139</ele>
        <time>2026-05-24T07:53:56Z</time>
      </trkpt>
      <trkpt lat="48.62081" lon="2.03075">
        <ele>139.2</ele>
        <time>2026-05-24T07:53:57Z</time>
      </trkpt>
      <trkpt lat="48.62083" lon="2.03073">
        <ele>139.2</ele>
        <time>2026-05-24T07:53:58Z</time>
      </trkpt>
      <trkpt lat="48.62085" lon="2.03071">
        <ele>139.2</ele>
        <time>2026-05-24T07:53:59Z</time>
      </trkpt>
      <trkpt lat="48.62087" lon="2.03071">
        <ele>139.6</ele>
        <time>2026-05-24T07:54:00Z</time>
      </trkpt>
      <trkpt lat="48.62089" lon="2.03072">
        <ele>140</ele>
        <time>2026-05-24T07:54:01Z</time>
      </trkpt>
      <trkpt lat="48.6209" lon="2.03074">
        <ele>140</ele>
        <time>2026-05-24T07:54:02Z</time>
      </trkpt>
      <trkpt lat="48.62092" lon="2.03077">
        <ele>140</ele>
        <time>2026-05-24T07:54:03Z</time>
      </trkpt>
      <trkpt lat="48.62093" lon="2.03079">
        <ele>140.4</ele>
        <time>2026-05-24T07:54:04Z</time>
      </trkpt>
      <trkpt lat="48.62095" lon="2.03083">
        <ele>140</ele>
        <time>2026-05-24T07:54:05Z</time>
      </trkpt>
      <trkpt lat="48.62096" lon="2.03086">
        <ele>140</ele>
        <time>2026-05-24T07:54:06Z</time>
      </trkpt>
      <trkpt lat="48.62098" lon="2.03089">
        <ele>140</ele>
        <time>2026-05-24T07:54:07Z</time>
      </trkpt>
      <trkpt lat="48.62099" lon="2.03093">
        <ele>140</ele>
        <time>2026-05-24T07:54:08Z</time>
      </trkpt>
      <trkpt lat="48.62101" lon="2.03097">
        <ele>140.2</ele>
        <time>2026-05-24T07:54:09Z</time>
      </trkpt>
      <trkpt lat="48.62102" lon="2.031">
        <ele>140.2</ele>
        <time>2026-05-24T07:54:10Z</time>
      </trkpt>
      <trkpt lat="48.62104" lon="2.03104">
        <ele>140.2</ele>
        <time>2026-05-24T07:54:11Z</time>
      </trkpt>
      <trkpt lat="48.62105" lon="2.03108">
        <ele>139.6</ele>
        <time>2026-05-24T07:54:12Z</time>
      </trkpt>
      <trkpt lat="48.62106" lon="2.03112">
        <ele>139</ele>
        <time>2026-05-24T07:54:13Z</time>
      </trkpt>
      <trkpt lat="48.62108" lon="2.03116">
        <ele>139</ele>
        <time>2026-05-24T07:54:14Z</time>
      </trkpt>
      <trkpt lat="48.6211" lon="2.03119">
        <ele>139</ele>
        <time>2026-05-24T07:54:15Z</time>
      </trkpt>
      <trkpt lat="48.62113" lon="2.03121">
        <ele>139</ele>
        <time>2026-05-24T07:54:16Z</time>
      </trkpt>
      <trkpt lat="48.62115" lon="2.03122">
        <ele>139.8</ele>
        <time>2026-05-24T07:54:17Z</time>
      </trkpt>
      <trkpt lat="48.62118" lon="2.03123">
        <ele>139.8</ele>
        <time>2026-05-24T07:54:18Z</time>
      </trkpt>
      <trkpt lat="48.6212" lon="2.03124">
        <ele>139.8</ele>
        <time>2026-05-24T07:54:19Z</time>
      </trkpt>
      <trkpt lat="48.62122" lon="2.03125">
        <ele>139.8</ele>
        <time>2026-05-24T07:54:20Z</time>
      </trkpt>
      <trkpt lat="48.62125" lon="2.03126">
        <ele>140</ele>
        <time>2026-05-24T07:54:21Z</time>
      </trkpt>
      <trkpt lat="48.62127" lon="2.03126">
        <ele>140</ele>
        <time>2026-05-24T07:54:22Z</time>
      </trkpt>
      <trkpt lat="48.62129" lon="2.03127">
        <ele>140</ele>
        <time>2026-05-24T07:54:23Z</time>
      </trkpt>
      <trkpt lat="48.62131" lon="2.03126">
        <ele>139.4</ele>
        <time>2026-05-24T07:54:24Z</time>
      </trkpt>
      <trkpt lat="48.62133" lon="2.03126">
        <ele>140.2</ele>
        <time>2026-05-24T07:54:25Z</time>
      </trkpt>
      <trkpt lat="48.62136" lon="2.03127">
        <ele>140.2</ele>
        <time>2026-05-24T07:54:26Z</time>
      </trkpt>
      <trkpt lat="48.62138" lon="2.03127">
        <ele>140.2</ele>
        <time>2026-05-24T07:54:27Z</time>
      </trkpt>
      <trkpt lat="48.6214" lon="2.03127">
        <ele>140.2</ele>
        <time>2026-05-24T07:54:28Z</time>
      </trkpt>
      <trkpt lat="48.62143" lon="2.03128">
        <ele>140.4</ele>
        <time>2026-05-24T07:54:29Z</time>
      </trkpt>
      <trkpt lat="48.62145" lon="2.03128">
        <ele>140.4</ele>
        <time>2026-05-24T07:54:30Z</time>
      </trkpt>
      <trkpt lat="48.62147" lon="2.03128">
        <ele>140.4</ele>
        <time>2026-05-24T07:54:31Z</time>
      </trkpt>
      <trkpt lat="48.62149" lon="2.03128">
        <ele>141.4</ele>
        <time>2026-05-24T07:54:32Z</time>
      </trkpt>
      <trkpt lat="48.62152" lon="2.03127">
        <ele>141</ele>
        <time>2026-05-24T07:54:33Z</time>
      </trkpt>
      <trkpt lat="48.62153" lon="2.03126">
        <ele>141</ele>
        <time>2026-05-24T07:54:34Z</time>
      </trkpt>
      <trkpt lat="48.62155" lon="2.03125">
        <ele>141</ele>
        <time>2026-05-24T07:54:35Z</time>
      </trkpt>
      <trkpt lat="48.62157" lon="2.03123">
        <ele>141.2</ele>
        <time>2026-05-24T07:54:36Z</time>
      </trkpt>
      <trkpt lat="48.62159" lon="2.03121">
        <ele>141.6</ele>
        <time>2026-05-24T07:54:37Z</time>
      </trkpt>
      <trkpt lat="48.6216" lon="2.03118">
        <ele>141.6</ele>
        <time>2026-05-24T07:54:38Z</time>
      </trkpt>
      <trkpt lat="48.62161" lon="2.03115">
        <ele>141.6</ele>
        <time>2026-05-24T07:54:39Z</time>
      </trkpt>
      <trkpt lat="48.62161" lon="2.03112">
        <ele>141.6</ele>
        <time>2026-05-24T07:54:40Z</time>
      </trkpt>
      <trkpt lat="48.62162" lon="2.03109">
        <ele>141.6</ele>
        <time>2026-05-24T07:54:41Z</time>
      </trkpt>
      <trkpt lat="48.62163" lon="2.03106">
        <ele>141.6</ele>
        <time>2026-05-24T07:54:42Z</time>
      </trkpt>
      <trkpt lat="48.62164" lon="2.03104">
        <ele>141.6</ele>
        <time>2026-05-24T07:54:43Z</time>
      </trkpt>
      <trkpt lat="48.62166" lon="2.03104">
        <ele>142.2</ele>
        <time>2026-05-24T07:54:44Z</time>
      </trkpt>
      <trkpt lat="48.62168" lon="2.03105">
        <ele>142.2</ele>
        <time>2026-05-24T07:54:45Z</time>
      </trkpt>
      <trkpt lat="48.6217" lon="2.03107">
        <ele>142.2</ele>
        <time>2026-05-24T07:54:46Z</time>
      </trkpt>
      <trkpt lat="48.62172" lon="2.03109">
        <ele>142.2</ele>
        <time>2026-05-24T07:54:47Z</time>
      </trkpt>
      <trkpt lat="48.62174" lon="2.03112">
        <ele>142.2</ele>
        <time>2026-05-24T07:54:48Z</time>
      </trkpt>
      <trkpt lat="48.62175" lon="2.03116">
        <ele>141.6</ele>
        <time>2026-05-24T07:54:49Z</time>
      </trkpt>
      <trkpt lat="48.62175" lon="2.0312">
        <ele>141.6</ele>
        <time>2026-05-24T07:54:50Z</time>
      </trkpt>
      <trkpt lat="48.62175" lon="2.03125">
        <ele>141.6</ele>
        <time>2026-05-24T07:54:51Z</time>
      </trkpt>
      <trkpt lat="48.62174" lon="2.03129">
        <ele>141.6</ele>
        <time>2026-05-24T07:54:52Z</time>
      </trkpt>
      <trkpt lat="48.62173" lon="2.03133">
        <ele>142</ele>
        <time>2026-05-24T07:54:53Z</time>
      </trkpt>
      <trkpt lat="48.62172" lon="2.03137">
        <ele>142</ele>
        <time>2026-05-24T07:54:54Z</time>
      </trkpt>
      <trkpt lat="48.62172" lon="2.03141">
        <ele>142</ele>
        <time>2026-05-24T07:54:55Z</time>
      </trkpt>
      <trkpt lat="48.62171" lon="2.03146">
        <ele>142</ele>
        <time>2026-05-24T07:54:56Z</time>
      </trkpt>
      <trkpt lat="48.6217" lon="2.0315">
        <ele>142</ele>
        <time>2026-05-24T07:54:57Z</time>
      </trkpt>
      <trkpt lat="48.62169" lon="2.03154">
        <ele>142</ele>
        <time>2026-05-24T07:54:58Z</time>
      </trkpt>
      <trkpt lat="48.62168" lon="2.03158">
        <ele>142</ele>
        <time>2026-05-24T07:54:59Z</time>
      </trkpt>
      <trkpt lat="48.62168" lon="2.03162">
        <ele>141.4</ele>
        <time>2026-05-24T07:55:00Z</time>
      </trkpt>
      <trkpt lat="48.62167" lon="2.03165">
        <ele>142.2</ele>
        <time>2026-05-24T07:55:01Z</time>
      </trkpt>
      <trkpt lat="48.62168" lon="2.0317">
        <ele>142.2</ele>
        <time>2026-05-24T07:55:02Z</time>
      </trkpt>
      <trkpt lat="48.62168" lon="2.03174">
        <ele>142.2</ele>
        <time>2026-05-24T07:55:03Z</time>
      </trkpt>
      <trkpt lat="48.62168" lon="2.03178">
        <ele>142.2</ele>
        <time>2026-05-24T07:55:04Z</time>
      </trkpt>
      <trkpt lat="48.62169" lon="2.03182">
        <ele>142.2</ele>
        <time>2026-05-24T07:55:05Z</time>
      </trkpt>
      <trkpt lat="48.6217" lon="2.03187">
        <ele>142.2</ele>
        <time>2026-05-24T07:55:06Z</time>
      </trkpt>
      <trkpt lat="48.6217" lon="2.03191">
        <ele>142.2</ele>
        <time>2026-05-24T07:55:07Z</time>
      </trkpt>
      <trkpt lat="48.6217" lon="2.03196">
        <ele>141.8</ele>
        <time>2026-05-24T07:55:08Z</time>
      </trkpt>
      <trkpt lat="48.6217" lon="2.032">
        <ele>141.6</ele>
        <time>2026-05-24T07:55:09Z</time>
      </trkpt>
      <trkpt lat="48.62171" lon="2.03205">
        <ele>141.6</ele>
        <time>2026-05-24T07:55:10Z</time>
      </trkpt>
      <trkpt lat="48.62171" lon="2.03209">
        <ele>141.6</ele>
        <time>2026-05-24T07:55:11Z</time>
      </trkpt>
      <trkpt lat="48.62171" lon="2.03214">
        <ele>142.4</ele>
        <time>2026-05-24T07:55:12Z</time>
      </trkpt>
      <trkpt lat="48.62172" lon="2.03219">
        <ele>142.8</ele>
        <time>2026-05-24T07:55:13Z</time>
      </trkpt>
      <trkpt lat="48.62172" lon="2.03223">
        <ele>142.8</ele>
        <time>2026-05-24T07:55:14Z</time>
      </trkpt>
      <trkpt lat="48.62172" lon="2.03228">
        <ele>142.8</ele>
        <time>2026-05-24T07:55:15Z</time>
      </trkpt>
      <trkpt lat="48.62172" lon="2.03233">
        <ele>142</ele>
        <time>2026-05-24T07:55:16Z</time>
      </trkpt>
      <trkpt lat="48.62173" lon="2.03237">
        <ele>142.6</ele>
        <time>2026-05-24T07:55:17Z</time>
      </trkpt>
      <trkpt lat="48.62173" lon="2.03242">
        <ele>142.6</ele>
        <time>2026-05-24T07:55:18Z</time>
      </trkpt>
      <trkpt lat="48.62173" lon="2.03246">
        <ele>142.6</ele>
        <time>2026-05-24T07:55:19Z</time>
      </trkpt>
      <trkpt lat="48.62173" lon="2.03249">
        <ele>142.4</ele>
        <time>2026-05-24T07:55:20Z</time>
      </trkpt>
      <trkpt lat="48.62173" lon="2.03254">
        <ele>141.8</ele>
        <time>2026-05-24T07:55:21Z</time>
      </trkpt>
      <trkpt lat="48.62174" lon="2.03257">
        <ele>141.8</ele>
        <time>2026-05-24T07:55:22Z</time>
      </trkpt>
      <trkpt lat="48.62173" lon="2.03261">
        <ele>141.8</ele>
        <time>2026-05-24T07:55:23Z</time>
      </trkpt>
      <trkpt lat="48.62174" lon="2.03265">
        <ele>142.8</ele>
        <time>2026-05-24T07:55:24Z</time>
      </trkpt>
      <trkpt lat="48.62175" lon="2.03268">
        <ele>142.4</ele>
        <time>2026-05-24T07:55:25Z</time>
      </trkpt>
      <trkpt lat="48.62175" lon="2.03271">
        <ele>142.4</ele>
        <time>2026-05-24T07:55:26Z</time>
      </trkpt>
      <trkpt lat="48.62175" lon="2.03275">
        <ele>142.4</ele>
        <time>2026-05-24T07:55:27Z</time>
      </trkpt>
      <trkpt lat="48.62175" lon="2.03278">
        <ele>142.6</ele>
        <time>2026-05-24T07:55:28Z</time>
      </trkpt>
      <trkpt lat="48.62175" lon="2.03282">
        <ele>142.8</ele>
        <time>2026-05-24T07:55:29Z</time>
      </trkpt>
      <trkpt lat="48.62176" lon="2.03286">
        <ele>142.8</ele>
        <time>2026-05-24T07:55:30Z</time>
      </trkpt>
      <trkpt lat="48.62175" lon="2.03291">
        <ele>142.8</ele>
        <time>2026-05-24T07:55:31Z</time>
      </trkpt>
      <trkpt lat="48.62175" lon="2.03294">
        <ele>143.2</ele>
        <time>2026-05-24T07:55:32Z</time>
      </trkpt>
      <trkpt lat="48.62175" lon="2.03298">
        <ele>143</ele>
        <time>2026-05-24T07:55:33Z</time>
      </trkpt>
      <trkpt lat="48.62176" lon="2.033">
        <ele>143</ele>
        <time>2026-05-24T07:55:34Z</time>
      </trkpt>
      <trkpt lat="48.62176" lon="2.03304">
        <ele>143</ele>
        <time>2026-05-24T07:55:35Z</time>
      </trkpt>
      <trkpt lat="48.62176" lon="2.03308">
        <ele>143.4</ele>
        <time>2026-05-24T07:55:36Z</time>
      </trkpt>
      <trkpt lat="48.62176" lon="2.03311">
        <ele>143.2</ele>
        <time>2026-05-24T07:55:37Z</time>
      </trkpt>
      <trkpt lat="48.62176" lon="2.03313">
        <ele>143.2</ele>
        <time>2026-05-24T07:55:38Z</time>
      </trkpt>
      <trkpt lat="48.62177" lon="2.03318">
        <ele>143.2</ele>
        <time>2026-05-24T07:55:39Z</time>
      </trkpt>
      <trkpt lat="48.62177" lon="2.03322">
        <ele>143.4</ele>
        <time>2026-05-24T07:55:40Z</time>
      </trkpt>
      <trkpt lat="48.62177" lon="2.03326">
        <ele>143.2</ele>
        <time>2026-05-24T07:55:41Z</time>
      </trkpt>
      <trkpt lat="48.62178" lon="2.03329">
        <ele>143.2</ele>
        <time>2026-05-24T07:55:42Z</time>
      </trkpt>
      <trkpt lat="48.62178" lon="2.03333">
        <ele>143.2</ele>
        <time>2026-05-24T07:55:43Z</time>
      </trkpt>
      <trkpt lat="48.62179" lon="2.03337">
        <ele>143.2</ele>
        <time>2026-05-24T07:55:44Z</time>
      </trkpt>
      <trkpt lat="48.62179" lon="2.03342">
        <ele>143.2</ele>
        <time>2026-05-24T07:55:45Z</time>
      </trkpt>
      <trkpt lat="48.62178" lon="2.03346">
        <ele>143.2</ele>
        <time>2026-05-24T07:55:46Z</time>
      </trkpt>
      <trkpt lat="48.62179" lon="2.03349">
        <ele>143.2</ele>
        <time>2026-05-24T07:55:47Z</time>
      </trkpt>
      <trkpt lat="48.62179" lon="2.03353">
        <ele>144</ele>
        <time>2026-05-24T07:55:48Z</time>
      </trkpt>
      <trkpt lat="48.62179" lon="2.03356">
        <ele>143.6</ele>
        <time>2026-05-24T07:55:49Z</time>
      </trkpt>
      <trkpt lat="48.62179" lon="2.0336">
        <ele>143.6</ele>
        <time>2026-05-24T07:55:50Z</time>
      </trkpt>
      <trkpt lat="48.6218" lon="2.03364">
        <ele>143.6</ele>
        <time>2026-05-24T07:55:51Z</time>
      </trkpt>
      <trkpt lat="48.62181" lon="2.03367">
        <ele>143.6</ele>
        <time>2026-05-24T07:55:52Z</time>
      </trkpt>
      <trkpt lat="48.62181" lon="2.0337">
        <ele>143.8</ele>
        <time>2026-05-24T07:55:53Z</time>
      </trkpt>
      <trkpt lat="48.62182" lon="2.03374">
        <ele>143.8</ele>
        <time>2026-05-24T07:55:54Z</time>
      </trkpt>
      <trkpt lat="48.62182" lon="2.03378">
        <ele>143.8</ele>
        <time>2026-05-24T07:55:55Z</time>
      </trkpt>
      <trkpt lat="48.62183" lon="2.03382">
        <ele>143.8</ele>
        <time>2026-05-24T07:55:56Z</time>
      </trkpt>
      <trkpt lat="48.62183" lon="2.03385">
        <ele>144</ele>
        <time>2026-05-24T07:55:57Z</time>
      </trkpt>
      <trkpt lat="48.62184" lon="2.03388">
        <ele>144</ele>
        <time>2026-05-24T07:55:58Z</time>
      </trkpt>
      <trkpt lat="48.62184" lon="2.03391">
        <ele>144</ele>
        <time>2026-05-24T07:55:59Z</time>
      </trkpt>
      <trkpt lat="48.62185" lon="2.03394">
        <ele>144.6</ele>
        <time>2026-05-24T07:56:00Z</time>
      </trkpt>
      <trkpt lat="48.62186" lon="2.03398">
        <ele>144.6</ele>
        <time>2026-05-24T07:56:01Z</time>
      </trkpt>
      <trkpt lat="48.62187" lon="2.03401">
        <ele>144.6</ele>
        <time>2026-05-24T07:56:02Z</time>
      </trkpt>
      <trkpt lat="48.62187" lon="2.03405">
        <ele>144.6</ele>
        <time>2026-05-24T07:56:03Z</time>
      </trkpt>
      <trkpt lat="48.62188" lon="2.03409">
        <ele>144.8</ele>
        <time>2026-05-24T07:56:04Z</time>
      </trkpt>
      <trkpt lat="48.62189" lon="2.03412">
        <ele>144.8</ele>
        <time>2026-05-24T07:56:05Z</time>
      </trkpt>
      <trkpt lat="48.6219" lon="2.03415">
        <ele>144.8</ele>
        <time>2026-05-24T07:56:06Z</time>
      </trkpt>
      <trkpt lat="48.6219" lon="2.03419">
        <ele>144.8</ele>
        <time>2026-05-24T07:56:07Z</time>
      </trkpt>
      <trkpt lat="48.62191" lon="2.03423">
        <ele>144.8</ele>
        <time>2026-05-24T07:56:08Z</time>
      </trkpt>
      <trkpt lat="48.62191" lon="2.03427">
        <ele>145</ele>
        <time>2026-05-24T07:56:09Z</time>
      </trkpt>
      <trkpt lat="48.62191" lon="2.0343">
        <ele>145</ele>
        <time>2026-05-24T07:56:10Z</time>
      </trkpt>
      <trkpt lat="48.62192" lon="2.03433">
        <ele>145</ele>
        <time>2026-05-24T07:56:11Z</time>
      </trkpt>
      <trkpt lat="48.62192" lon="2.03436">
        <ele>145.6</ele>
        <time>2026-05-24T07:56:12Z</time>
      </trkpt>
      <trkpt lat="48.62192" lon="2.03439">
        <ele>145.6</ele>
        <time>2026-05-24T07:56:13Z</time>
      </trkpt>
      <trkpt lat="48.62193" lon="2.03442">
        <ele>145.6</ele>
        <time>2026-05-24T07:56:14Z</time>
      </trkpt>
      <trkpt lat="48.62194" lon="2.03445">
        <ele>145.6</ele>
        <time>2026-05-24T07:56:15Z</time>
      </trkpt>
      <trkpt lat="48.62194" lon="2.03447">
        <ele>145.6</ele>
        <time>2026-05-24T07:56:16Z</time>
      </trkpt>
      <trkpt lat="48.62194" lon="2.0345">
        <ele>145.8</ele>
        <time>2026-05-24T07:56:17Z</time>
      </trkpt>
      <trkpt lat="48.62195" lon="2.03454">
        <ele>145.8</ele>
        <time>2026-05-24T07:56:18Z</time>
      </trkpt>
      <trkpt lat="48.62195" lon="2.03457">
        <ele>145.8</ele>
        <time>2026-05-24T07:56:19Z</time>
      </trkpt>
      <trkpt lat="48.62195" lon="2.03461">
        <ele>145.8</ele>
        <time>2026-05-24T07:56:20Z</time>
      </trkpt>
      <trkpt lat="48.62196" lon="2.03464">
        <ele>146.4</ele>
        <time>2026-05-24T07:56:21Z</time>
      </trkpt>
      <trkpt lat="48.62196" lon="2.03468">
        <ele>146.4</ele>
        <time>2026-05-24T07:56:22Z</time>
      </trkpt>
      <trkpt lat="48.62196" lon="2.03471">
        <ele>146.4</ele>
        <time>2026-05-24T07:56:23Z</time>
      </trkpt>
      <trkpt lat="48.62197" lon="2.03475">
        <ele>147</ele>
        <time>2026-05-24T07:56:24Z</time>
      </trkpt>
      <trkpt lat="48.62197" lon="2.03479">
        <ele>146.4</ele>
        <time>2026-05-24T07:56:25Z</time>
      </trkpt>
      <trkpt lat="48.62198" lon="2.03482">
        <ele>146.4</ele>
        <time>2026-05-24T07:56:26Z</time>
      </trkpt>
      <trkpt lat="48.62198" lon="2.03484">
        <ele>146.4</ele>
        <time>2026-05-24T07:56:27Z</time>
      </trkpt>
      <trkpt lat="48.622" lon="2.03487">
        <ele>147.2</ele>
        <time>2026-05-24T07:56:28Z</time>
      </trkpt>
      <trkpt lat="48.62201" lon="2.03489">
        <ele>147.2</ele>
        <time>2026-05-24T07:56:29Z</time>
      </trkpt>
      <trkpt lat="48.62203" lon="2.03491">
        <ele>147.2</ele>
        <time>2026-05-24T07:56:30Z</time>
      </trkpt>
      <trkpt lat="48.62204" lon="2.03492">
        <ele>147.2</ele>
        <time>2026-05-24T07:56:31Z</time>
      </trkpt>
      <trkpt lat="48.62206" lon="2.03494">
        <ele>147.8</ele>
        <time>2026-05-24T07:56:32Z</time>
      </trkpt>
      <trkpt lat="48.62207" lon="2.03496">
        <ele>147.6</ele>
        <time>2026-05-24T07:56:33Z</time>
      </trkpt>
      <trkpt lat="48.62209" lon="2.03497">
        <ele>147.6</ele>
        <time>2026-05-24T07:56:34Z</time>
      </trkpt>
      <trkpt lat="48.6221" lon="2.03499">
        <ele>147.6</ele>
        <time>2026-05-24T07:56:35Z</time>
      </trkpt>
      <trkpt lat="48.62211" lon="2.03501">
        <ele>147.6</ele>
        <time>2026-05-24T07:56:36Z</time>
      </trkpt>
      <trkpt lat="48.62212" lon="2.03503">
        <ele>148.2</ele>
        <time>2026-05-24T07:56:37Z</time>
      </trkpt>
      <trkpt lat="48.62213" lon="2.03504">
        <ele>148.2</ele>
        <time>2026-05-24T07:56:38Z</time>
      </trkpt>
      <trkpt lat="48.62215" lon="2.03506">
        <ele>148.2</ele>
        <time>2026-05-24T07:56:39Z</time>
      </trkpt>
      <trkpt lat="48.62216" lon="2.03507">
        <ele>148.2</ele>
        <time>2026-05-24T07:56:40Z</time>
      </trkpt>
      <trkpt lat="48.62217" lon="2.03509">
        <ele>148.4</ele>
        <time>2026-05-24T07:56:41Z</time>
      </trkpt>
      <trkpt lat="48.62219" lon="2.03511">
        <ele>148.4</ele>
        <time>2026-05-24T07:56:42Z</time>
      </trkpt>
      <trkpt lat="48.6222" lon="2.03514">
        <ele>148.4</ele>
        <time>2026-05-24T07:56:43Z</time>
      </trkpt>
      <trkpt lat="48.62222" lon="2.03516">
        <ele>148.8</ele>
        <time>2026-05-24T07:56:44Z</time>
      </trkpt>
      <trkpt lat="48.62224" lon="2.03518">
        <ele>149.2</ele>
        <time>2026-05-24T07:56:45Z</time>
      </trkpt>
      <trkpt lat="48.62225" lon="2.0352">
        <ele>149.2</ele>
        <time>2026-05-24T07:56:46Z</time>
      </trkpt>
      <trkpt lat="48.62227" lon="2.03521">
        <ele>149.2</ele>
        <time>2026-05-24T07:56:47Z</time>
      </trkpt>
      <trkpt lat="48.62228" lon="2.03523">
        <ele>149.2</ele>
        <time>2026-05-24T07:56:48Z</time>
      </trkpt>
      <trkpt lat="48.6223" lon="2.03526">
        <ele>149.8</ele>
        <time>2026-05-24T07:56:49Z</time>
      </trkpt>
      <trkpt lat="48.62232" lon="2.03528">
        <ele>149.8</ele>
        <time>2026-05-24T07:56:50Z</time>
      </trkpt>
      <trkpt lat="48.62234" lon="2.0353">
        <ele>149.8</ele>
        <time>2026-05-24T07:56:51Z</time>
      </trkpt>
      <trkpt lat="48.62235" lon="2.03532">
        <ele>149.8</ele>
        <time>2026-05-24T07:56:52Z</time>
      </trkpt>
      <trkpt lat="48.62237" lon="2.03534">
        <ele>150.2</ele>
        <time>2026-05-24T07:56:53Z</time>
      </trkpt>
      <trkpt lat="48.62238" lon="2.03536">
        <ele>150.2</ele>
        <time>2026-05-24T07:56:54Z</time>
      </trkpt>
      <trkpt lat="48.6224" lon="2.03538">
        <ele>150.2</ele>
        <time>2026-05-24T07:56:55Z</time>
      </trkpt>
      <trkpt lat="48.62241" lon="2.0354">
        <ele>150.8</ele>
        <time>2026-05-24T07:56:56Z</time>
      </trkpt>
      <trkpt lat="48.62243" lon="2.03542">
        <ele>150.6</ele>
        <time>2026-05-24T07:56:57Z</time>
      </trkpt>
      <trkpt lat="48.62245" lon="2.03544">
        <ele>150.6</ele>
        <time>2026-05-24T07:56:58Z</time>
      </trkpt>
      <trkpt lat="48.62247" lon="2.03547">
        <ele>150.6</ele>
        <time>2026-05-24T07:56:59Z</time>
      </trkpt>
      <trkpt lat="48.62249" lon="2.03549">
        <ele>150.6</ele>
        <time>2026-05-24T07:57:00Z</time>
      </trkpt>
      <trkpt lat="48.62251" lon="2.03552">
        <ele>151</ele>
        <time>2026-05-24T07:57:01Z</time>
      </trkpt>
      <trkpt lat="48.62253" lon="2.03555">
        <ele>151</ele>
        <time>2026-05-24T07:57:02Z</time>
      </trkpt>
      <trkpt lat="48.62254" lon="2.03557">
        <ele>151</ele>
        <time>2026-05-24T07:57:03Z</time>
      </trkpt>
      <trkpt lat="48.62256" lon="2.03559">
        <ele>151.2</ele>
        <time>2026-05-24T07:57:04Z</time>
      </trkpt>
      <trkpt lat="48.62258" lon="2.03561">
        <ele>151.4</ele>
        <time>2026-05-24T07:57:05Z</time>
      </trkpt>
      <trkpt lat="48.62259" lon="2.03564">
        <ele>151.4</ele>
        <time>2026-05-24T07:57:06Z</time>
      </trkpt>
      <trkpt lat="48.62261" lon="2.03566">
        <ele>151.4</ele>
        <time>2026-05-24T07:57:07Z</time>
      </trkpt>
      <trkpt lat="48.62263" lon="2.03567">
        <ele>151.8</ele>
        <time>2026-05-24T07:57:08Z</time>
      </trkpt>
      <trkpt lat="48.62264" lon="2.03569">
        <ele>152</ele>
        <time>2026-05-24T07:57:09Z</time>
      </trkpt>
      <trkpt lat="48.62266" lon="2.03571">
        <ele>152</ele>
        <time>2026-05-24T07:57:10Z</time>
      </trkpt>
      <trkpt lat="48.62268" lon="2.03574">
        <ele>152</ele>
        <time>2026-05-24T07:57:11Z</time>
      </trkpt>
      <trkpt lat="48.6227" lon="2.03576">
        <ele>152</ele>
        <time>2026-05-24T07:57:12Z</time>
      </trkpt>
      <trkpt lat="48.62272" lon="2.03578">
        <ele>152.6</ele>
        <time>2026-05-24T07:57:13Z</time>
      </trkpt>
      <trkpt lat="48.62275" lon="2.03581">
        <ele>152.6</ele>
        <time>2026-05-24T07:57:14Z</time>
      </trkpt>
      <trkpt lat="48.62276" lon="2.03583">
        <ele>152.6</ele>
        <time>2026-05-24T07:57:15Z</time>
      </trkpt>
      <trkpt lat="48.62278" lon="2.03585">
        <ele>152.6</ele>
        <time>2026-05-24T07:57:16Z</time>
      </trkpt>
      <trkpt lat="48.6228" lon="2.03587">
        <ele>152.8</ele>
        <time>2026-05-24T07:57:17Z</time>
      </trkpt>
      <trkpt lat="48.62282" lon="2.0359">
        <ele>152.8</ele>
        <time>2026-05-24T07:57:18Z</time>
      </trkpt>
      <trkpt lat="48.62284" lon="2.03592">
        <ele>152.8</ele>
        <time>2026-05-24T07:57:19Z</time>
      </trkpt>
      <trkpt lat="48.62286" lon="2.03594">
        <ele>153.2</ele>
        <time>2026-05-24T07:57:20Z</time>
      </trkpt>
      <trkpt lat="48.62287" lon="2.03596">
        <ele>153</ele>
        <time>2026-05-24T07:57:21Z</time>
      </trkpt>
      <trkpt lat="48.62289" lon="2.03599">
        <ele>153</ele>
        <time>2026-05-24T07:57:22Z</time>
      </trkpt>
      <trkpt lat="48.62292" lon="2.03601">
        <ele>153</ele>
        <time>2026-05-24T07:57:23Z</time>
      </trkpt>
      <trkpt lat="48.62295" lon="2.03601">
        <ele>153</ele>
        <time>2026-05-24T07:57:24Z</time>
      </trkpt>
      <trkpt lat="48.62297" lon="2.03601">
        <ele>152.6</ele>
        <time>2026-05-24T07:57:25Z</time>
      </trkpt>
      <trkpt lat="48.623" lon="2.036">
        <ele>152.6</ele>
        <time>2026-05-24T07:57:26Z</time>
      </trkpt>
      <trkpt lat="48.62302" lon="2.03598">
        <ele>152.6</ele>
        <time>2026-05-24T07:57:27Z</time>
      </trkpt>
      <trkpt lat="48.62303" lon="2.03595">
        <ele>153.4</ele>
        <time>2026-05-24T07:57:28Z</time>
      </trkpt>
      <trkpt lat="48.62304" lon="2.03593">
        <ele>153.2</ele>
        <time>2026-05-24T07:57:29Z</time>
      </trkpt>
      <trkpt lat="48.62305" lon="2.0359">
        <ele>153.2</ele>
        <time>2026-05-24T07:57:30Z</time>
      </trkpt>
      <trkpt lat="48.62307" lon="2.03587">
        <ele>153.2</ele>
        <time>2026-05-24T07:57:31Z</time>
      </trkpt>
      <trkpt lat="48.62308" lon="2.03585">
        <ele>153.6</ele>
        <time>2026-05-24T07:57:32Z</time>
      </trkpt>
      <trkpt lat="48.62309" lon="2.03582">
        <ele>154.2</ele>
        <time>2026-05-24T07:57:33Z</time>
      </trkpt>
      <trkpt lat="48.6231" lon="2.03579">
        <ele>154.2</ele>
        <time>2026-05-24T07:57:34Z</time>
      </trkpt>
      <trkpt lat="48.62311" lon="2.03575">
        <ele>154.2</ele>
        <time>2026-05-24T07:57:35Z</time>
      </trkpt>
      <trkpt lat="48.62312" lon="2.03572">
        <ele>153.8</ele>
        <time>2026-05-24T07:57:36Z</time>
      </trkpt>
      <trkpt lat="48.62313" lon="2.03569">
        <ele>154</ele>
        <time>2026-05-24T07:57:37Z</time>
      </trkpt>
      <trkpt lat="48.62314" lon="2.03567">
        <ele>154</ele>
        <time>2026-05-24T07:57:38Z</time>
      </trkpt>
      <trkpt lat="48.62315" lon="2.03564">
        <ele>154</ele>
        <time>2026-05-24T07:57:39Z</time>
      </trkpt>
      <trkpt lat="48.62316" lon="2.03562">
        <ele>154</ele>
        <time>2026-05-24T07:57:40Z</time>
      </trkpt>
      <trkpt lat="48.62317" lon="2.03559">
        <ele>154</ele>
        <time>2026-05-24T07:57:41Z</time>
      </trkpt>
      <trkpt lat="48.62318" lon="2.03555">
        <ele>154</ele>
        <time>2026-05-24T07:57:42Z</time>
      </trkpt>
      <trkpt lat="48.62319" lon="2.03552">
        <ele>154</ele>
        <time>2026-05-24T07:57:43Z</time>
      </trkpt>
      <trkpt lat="48.6232" lon="2.03549">
        <ele>154.2</ele>
        <time>2026-05-24T07:57:44Z</time>
      </trkpt>
      <trkpt lat="48.62321" lon="2.03547">
        <ele>154.4</ele>
        <time>2026-05-24T07:57:45Z</time>
      </trkpt>
      <trkpt lat="48.62322" lon="2.03544">
        <ele>154.4</ele>
        <time>2026-05-24T07:57:46Z</time>
      </trkpt>
      <trkpt lat="48.62323" lon="2.03541">
        <ele>154.4</ele>
        <time>2026-05-24T07:57:47Z</time>
      </trkpt>
      <trkpt lat="48.62325" lon="2.03538">
        <ele>154.8</ele>
        <time>2026-05-24T07:57:48Z</time>
      </trkpt>
      <trkpt lat="48.62327" lon="2.03536">
        <ele>154.6</ele>
        <time>2026-05-24T07:57:49Z</time>
      </trkpt>
      <trkpt lat="48.62328" lon="2.03533">
        <ele>154.6</ele>
        <time>2026-05-24T07:57:50Z</time>
      </trkpt>
      <trkpt lat="48.62329" lon="2.0353">
        <ele>154.6</ele>
        <time>2026-05-24T07:57:51Z</time>
      </trkpt>
      <trkpt lat="48.62331" lon="2.03527">
        <ele>154.6</ele>
        <time>2026-05-24T07:57:52Z</time>
      </trkpt>
      <trkpt lat="48.62331" lon="2.03523">
        <ele>154.8</ele>
        <time>2026-05-24T07:57:53Z</time>
      </trkpt>
      <trkpt lat="48.62332" lon="2.0352">
        <ele>154.8</ele>
        <time>2026-05-24T07:57:54Z</time>
      </trkpt>
      <trkpt lat="48.62333" lon="2.03516">
        <ele>154.8</ele>
        <time>2026-05-24T07:57:55Z</time>
      </trkpt>
      <trkpt lat="48.62334" lon="2.03513">
        <ele>155</ele>
        <time>2026-05-24T07:57:56Z</time>
      </trkpt>
      <trkpt lat="48.62335" lon="2.03509">
        <ele>155</ele>
        <time>2026-05-24T07:57:57Z</time>
      </trkpt>
      <trkpt lat="48.62336" lon="2.03506">
        <ele>155</ele>
        <time>2026-05-24T07:57:58Z</time>
      </trkpt>
      <trkpt lat="48.62337" lon="2.03503">
        <ele>155</ele>
        <time>2026-05-24T07:57:59Z</time>
      </trkpt>
      <trkpt lat="48.62338" lon="2.03501">
        <ele>156</ele>
        <time>2026-05-24T07:58:00Z</time>
      </trkpt>
      <trkpt lat="48.62339" lon="2.03497">
        <ele>155.8</ele>
        <time>2026-05-24T07:58:01Z</time>
      </trkpt>
      <trkpt lat="48.6234" lon="2.03494">
        <ele>155.8</ele>
        <time>2026-05-24T07:58:02Z</time>
      </trkpt>
      <trkpt lat="48.62341" lon="2.0349">
        <ele>155.8</ele>
        <time>2026-05-24T07:58:03Z</time>
      </trkpt>
      <trkpt lat="48.62342" lon="2.03486">
        <ele>155.8</ele>
        <time>2026-05-24T07:58:04Z</time>
      </trkpt>
      <trkpt lat="48.62343" lon="2.03483">
        <ele>155.8</ele>
        <time>2026-05-24T07:58:05Z</time>
      </trkpt>
      <trkpt lat="48.62344" lon="2.03479">
        <ele>155.8</ele>
        <time>2026-05-24T07:58:06Z</time>
      </trkpt>
      <trkpt lat="48.62344" lon="2.03476">
        <ele>155.8</ele>
        <time>2026-05-24T07:58:07Z</time>
      </trkpt>
      <trkpt lat="48.62346" lon="2.03473">
        <ele>155.8</ele>
        <time>2026-05-24T07:58:08Z</time>
      </trkpt>
      <trkpt lat="48.62347" lon="2.03469">
        <ele>156.2</ele>
        <time>2026-05-24T07:58:09Z</time>
      </trkpt>
      <trkpt lat="48.62349" lon="2.03466">
        <ele>156.2</ele>
        <time>2026-05-24T07:58:10Z</time>
      </trkpt>
      <trkpt lat="48.6235" lon="2.03463">
        <ele>156.2</ele>
        <time>2026-05-24T07:58:11Z</time>
      </trkpt>
      <trkpt lat="48.62352" lon="2.0346">
        <ele>156.6</ele>
        <time>2026-05-24T07:58:12Z</time>
      </trkpt>
      <trkpt lat="48.62353" lon="2.03456">
        <ele>156.8</ele>
        <time>2026-05-24T07:58:13Z</time>
      </trkpt>
      <trkpt lat="48.62354" lon="2.03453">
        <ele>156.8</ele>
        <time>2026-05-24T07:58:14Z</time>
      </trkpt>
      <trkpt lat="48.62355" lon="2.03451">
        <ele>156.8</ele>
        <time>2026-05-24T07:58:15Z</time>
      </trkpt>
      <trkpt lat="48.62357" lon="2.03449">
        <ele>156.8</ele>
        <time>2026-05-24T07:58:16Z</time>
      </trkpt>
      <trkpt lat="48.62359" lon="2.03447">
        <ele>157</ele>
        <time>2026-05-24T07:58:17Z</time>
      </trkpt>
      <trkpt lat="48.62361" lon="2.03443">
        <ele>157</ele>
        <time>2026-05-24T07:58:18Z</time>
      </trkpt>
      <trkpt lat="48.62362" lon="2.03441">
        <ele>157</ele>
        <time>2026-05-24T07:58:19Z</time>
      </trkpt>
      <trkpt lat="48.62364" lon="2.03438">
        <ele>157</ele>
        <time>2026-05-24T07:58:20Z</time>
      </trkpt>
      <trkpt lat="48.62365" lon="2.03434">
        <ele>157.4</ele>
        <time>2026-05-24T07:58:21Z</time>
      </trkpt>
      <trkpt lat="48.62366" lon="2.03432">
        <ele>157.4</ele>
        <time>2026-05-24T07:58:22Z</time>
      </trkpt>
      <trkpt lat="48.62368" lon="2.03429">
        <ele>157.4</ele>
        <time>2026-05-24T07:58:23Z</time>
      </trkpt>
      <trkpt lat="48.62369" lon="2.03425">
        <ele>157.4</ele>
        <time>2026-05-24T07:58:24Z</time>
      </trkpt>
      <trkpt lat="48.6237" lon="2.03422">
        <ele>157.6</ele>
        <time>2026-05-24T07:58:25Z</time>
      </trkpt>
      <trkpt lat="48.62372" lon="2.03419">
        <ele>157.6</ele>
        <time>2026-05-24T07:58:26Z</time>
      </trkpt>
      <trkpt lat="48.62373" lon="2.03415">
        <ele>157.6</ele>
        <time>2026-05-24T07:58:27Z</time>
      </trkpt>
      <trkpt lat="48.62374" lon="2.03412">
        <ele>158.6</ele>
        <time>2026-05-24T07:58:28Z</time>
      </trkpt>
      <trkpt lat="48.62374" lon="2.03408">
        <ele>158</ele>
        <time>2026-05-24T07:58:29Z</time>
      </trkpt>
      <trkpt lat="48.62376" lon="2.03403">
        <ele>158</ele>
        <time>2026-05-24T07:58:30Z</time>
      </trkpt>
      <trkpt lat="48.62378" lon="2.034">
        <ele>158</ele>
        <time>2026-05-24T07:58:31Z</time>
      </trkpt>
      <trkpt lat="48.62379" lon="2.03397">
        <ele>158.4</ele>
        <time>2026-05-24T07:58:32Z</time>
      </trkpt>
      <trkpt lat="48.62381" lon="2.03394">
        <ele>159</ele>
        <time>2026-05-24T07:58:33Z</time>
      </trkpt>
      <trkpt lat="48.62383" lon="2.03391">
        <ele>159</ele>
        <time>2026-05-24T07:58:34Z</time>
      </trkpt>
      <trkpt lat="48.62384" lon="2.03388">
        <ele>159</ele>
        <time>2026-05-24T07:58:35Z</time>
      </trkpt>
      <trkpt lat="48.62386" lon="2.03385">
        <ele>159</ele>
        <time>2026-05-24T07:58:36Z</time>
      </trkpt>
      <trkpt lat="48.62387" lon="2.03383">
        <ele>158.8</ele>
        <time>2026-05-24T07:58:37Z</time>
      </trkpt>
      <trkpt lat="48.62388" lon="2.03379">
        <ele>158.8</ele>
        <time>2026-05-24T07:58:38Z</time>
      </trkpt>
      <trkpt lat="48.62389" lon="2.03376">
        <ele>158.8</ele>
        <time>2026-05-24T07:58:39Z</time>
      </trkpt>
      <trkpt lat="48.6239" lon="2.03373">
        <ele>159.6</ele>
        <time>2026-05-24T07:58:40Z</time>
      </trkpt>
      <trkpt lat="48.62391" lon="2.0337">
        <ele>159.6</ele>
        <time>2026-05-24T07:58:41Z</time>
      </trkpt>
      <trkpt lat="48.62392" lon="2.03368">
        <ele>159.6</ele>
        <time>2026-05-24T07:58:42Z</time>
      </trkpt>
      <trkpt lat="48.62393" lon="2.03364">
        <ele>159.6</ele>
        <time>2026-05-24T07:58:43Z</time>
      </trkpt>
      <trkpt lat="48.62393" lon="2.03361">
        <ele>159.6</ele>
        <time>2026-05-24T07:58:44Z</time>
      </trkpt>
      <trkpt lat="48.62394" lon="2.03358">
        <ele>160.2</ele>
        <time>2026-05-24T07:58:45Z</time>
      </trkpt>
      <trkpt lat="48.62395" lon="2.03355">
        <ele>160.2</ele>
        <time>2026-05-24T07:58:46Z</time>
      </trkpt>
      <trkpt lat="48.62396" lon="2.03353">
        <ele>160.2</ele>
        <time>2026-05-24T07:58:47Z</time>
      </trkpt>
      <trkpt lat="48.62397" lon="2.03351">
        <ele>160.6</ele>
        <time>2026-05-24T07:58:48Z</time>
      </trkpt>
      <trkpt lat="48.62398" lon="2.03348">
        <ele>160.8</ele>
        <time>2026-05-24T07:58:49Z</time>
      </trkpt>
      <trkpt lat="48.62399" lon="2.03345">
        <ele>160.8</ele>
        <time>2026-05-24T07:58:50Z</time>
      </trkpt>
      <trkpt lat="48.62399" lon="2.03342">
        <ele>160.8</ele>
        <time>2026-05-24T07:58:51Z</time>
      </trkpt>
      <trkpt lat="48.624" lon="2.0334">
        <ele>161</ele>
        <time>2026-05-24T07:58:52Z</time>
      </trkpt>
      <trkpt lat="48.62401" lon="2.03337">
        <ele>161.6</ele>
        <time>2026-05-24T07:58:53Z</time>
      </trkpt>
      <trkpt lat="48.62402" lon="2.03333">
        <ele>161.6</ele>
        <time>2026-05-24T07:58:54Z</time>
      </trkpt>
      <trkpt lat="48.62403" lon="2.0333">
        <ele>161.6</ele>
        <time>2026-05-24T07:58:55Z</time>
      </trkpt>
      <trkpt lat="48.62404" lon="2.03327">
        <ele>162.4</ele>
        <time>2026-05-24T07:58:56Z</time>
      </trkpt>
      <trkpt lat="48.62405" lon="2.03324">
        <ele>161.8</ele>
        <time>2026-05-24T07:58:57Z</time>
      </trkpt>
      <trkpt lat="48.62406" lon="2.03321">
        <ele>161.8</ele>
        <time>2026-05-24T07:58:58Z</time>
      </trkpt>
      <trkpt lat="48.62407" lon="2.03318">
        <ele>161.8</ele>
        <time>2026-05-24T07:58:59Z</time>
      </trkpt>
      <trkpt lat="48.62408" lon="2.03315">
        <ele>161.8</ele>
        <time>2026-05-24T07:59:00Z</time>
      </trkpt>
      <trkpt lat="48.62408" lon="2.03313">
        <ele>161.6</ele>
        <time>2026-05-24T07:59:01Z</time>
      </trkpt>
      <trkpt lat="48.6241" lon="2.03308">
        <ele>161.6</ele>
        <time>2026-05-24T07:59:02Z</time>
      </trkpt>
      <trkpt lat="48.62411" lon="2.03305">
        <ele>161.6</ele>
        <time>2026-05-24T07:59:03Z</time>
      </trkpt>
      <trkpt lat="48.62412" lon="2.03303">
        <ele>161.8</ele>
        <time>2026-05-24T07:59:04Z</time>
      </trkpt>
      <trkpt lat="48.62414" lon="2.03299">
        <ele>162</ele>
        <time>2026-05-24T07:59:05Z</time>
      </trkpt>
      <trkpt lat="48.62415" lon="2.03295">
        <ele>162</ele>
        <time>2026-05-24T07:59:06Z</time>
      </trkpt>
      <trkpt lat="48.62416" lon="2.03291">
        <ele>162</ele>
        <time>2026-05-24T07:59:07Z</time>
      </trkpt>
      <trkpt lat="48.62418" lon="2.03289">
        <ele>162</ele>
        <time>2026-05-24T07:59:08Z</time>
      </trkpt>
      <trkpt lat="48.6242" lon="2.03285">
        <ele>162</ele>
        <time>2026-05-24T07:59:09Z</time>
      </trkpt>
      <trkpt lat="48.62422" lon="2.03281">
        <ele>162</ele>
        <time>2026-05-24T07:59:10Z</time>
      </trkpt>
      <trkpt lat="48.62423" lon="2.03277">
        <ele>162</ele>
        <time>2026-05-24T07:59:11Z</time>
      </trkpt>
      <trkpt lat="48.62424" lon="2.03273">
        <ele>162</ele>
        <time>2026-05-24T07:59:12Z</time>
      </trkpt>
      <trkpt lat="48.62425" lon="2.03269">
        <ele>162.4</ele>
        <time>2026-05-24T07:59:13Z</time>
      </trkpt>
      <trkpt lat="48.62426" lon="2.03265">
        <ele>162.4</ele>
        <time>2026-05-24T07:59:14Z</time>
      </trkpt>
      <trkpt lat="48.62427" lon="2.03261">
        <ele>162.4</ele>
        <time>2026-05-24T07:59:15Z</time>
      </trkpt>
      <trkpt lat="48.62427" lon="2.03258">
        <ele>162.4</ele>
        <time>2026-05-24T07:59:16Z</time>
      </trkpt>
      <trkpt lat="48.62427" lon="2.03255">
        <ele>162.4</ele>
        <time>2026-05-24T07:59:17Z</time>
      </trkpt>
      <trkpt lat="48.62429" lon="2.0325">
        <ele>162.4</ele>
        <time>2026-05-24T07:59:18Z</time>
      </trkpt>
      <trkpt lat="48.62429" lon="2.03246">
        <ele>162.4</ele>
        <time>2026-05-24T07:59:19Z</time>
      </trkpt>
      <trkpt lat="48.62431" lon="2.0324">
        <ele>162.4</ele>
        <time>2026-05-24T07:59:20Z</time>
      </trkpt>
      <trkpt lat="48.62431" lon="2.03236">
        <ele>162.6</ele>
        <time>2026-05-24T07:59:21Z</time>
      </trkpt>
      <trkpt lat="48.62432" lon="2.03232">
        <ele>162.6</ele>
        <time>2026-05-24T07:59:22Z</time>
      </trkpt>
      <trkpt lat="48.62433" lon="2.03228">
        <ele>162.6</ele>
        <time>2026-05-24T07:59:23Z</time>
      </trkpt>
      <trkpt lat="48.62435" lon="2.03224">
        <ele>162.6</ele>
        <time>2026-05-24T07:59:24Z</time>
      </trkpt>
      <trkpt lat="48.62435" lon="2.0322">
        <ele>162.4</ele>
        <time>2026-05-24T07:59:25Z</time>
      </trkpt>
      <trkpt lat="48.62436" lon="2.03216">
        <ele>162.4</ele>
        <time>2026-05-24T07:59:26Z</time>
      </trkpt>
      <trkpt lat="48.62436" lon="2.03213">
        <ele>162.4</ele>
        <time>2026-05-24T07:59:27Z</time>
      </trkpt>
      <trkpt lat="48.62437" lon="2.03209">
        <ele>162.8</ele>
        <time>2026-05-24T07:59:28Z</time>
      </trkpt>
      <trkpt lat="48.62439" lon="2.03205">
        <ele>163</ele>
        <time>2026-05-24T07:59:29Z</time>
      </trkpt>
      <trkpt lat="48.6244" lon="2.03201">
        <ele>163</ele>
        <time>2026-05-24T07:59:30Z</time>
      </trkpt>
      <trkpt lat="48.6244" lon="2.03198">
        <ele>163</ele>
        <time>2026-05-24T07:59:31Z</time>
      </trkpt>
      <trkpt lat="48.62441" lon="2.03194">
        <ele>163.2</ele>
        <time>2026-05-24T07:59:32Z</time>
      </trkpt>
      <trkpt lat="48.62442" lon="2.0319">
        <ele>163.2</ele>
        <time>2026-05-24T07:59:33Z</time>
      </trkpt>
      <trkpt lat="48.62442" lon="2.03185">
        <ele>163.2</ele>
        <time>2026-05-24T07:59:34Z</time>
      </trkpt>
      <trkpt lat="48.62443" lon="2.03182">
        <ele>163.2</ele>
        <time>2026-05-24T07:59:35Z</time>
      </trkpt>
      <trkpt lat="48.62444" lon="2.03178">
        <ele>163.8</ele>
        <time>2026-05-24T07:59:36Z</time>
      </trkpt>
      <trkpt lat="48.62444" lon="2.03174">
        <ele>163.8</ele>
        <time>2026-05-24T07:59:37Z</time>
      </trkpt>
      <trkpt lat="48.62445" lon="2.0317">
        <ele>163.8</ele>
        <time>2026-05-24T07:59:38Z</time>
      </trkpt>
      <trkpt lat="48.62446" lon="2.03166">
        <ele>163.8</ele>
        <time>2026-05-24T07:59:39Z</time>
      </trkpt>
      <trkpt lat="48.62446" lon="2.03162">
        <ele>163.8</ele>
        <time>2026-05-24T07:59:40Z</time>
      </trkpt>
      <trkpt lat="48.62448" lon="2.03159">
        <ele>164.2</ele>
        <time>2026-05-24T07:59:41Z</time>
      </trkpt>
      <trkpt lat="48.62448" lon="2.03155">
        <ele>164.2</ele>
        <time>2026-05-24T07:59:42Z</time>
      </trkpt>
      <trkpt lat="48.62449" lon="2.03151">
        <ele>164.2</ele>
        <time>2026-05-24T07:59:43Z</time>
      </trkpt>
      <trkpt lat="48.62449" lon="2.03146">
        <ele>164.2</ele>
        <time>2026-05-24T07:59:44Z</time>
      </trkpt>
      <trkpt lat="48.6245" lon="2.03142">
        <ele>164.8</ele>
        <time>2026-05-24T07:59:45Z</time>
      </trkpt>
      <trkpt lat="48.62451" lon="2.03139">
        <ele>164.8</ele>
        <time>2026-05-24T07:59:46Z</time>
      </trkpt>
      <trkpt lat="48.62451" lon="2.03135">
        <ele>164.8</ele>
        <time>2026-05-24T07:59:47Z</time>
      </trkpt>
      <trkpt lat="48.62452" lon="2.03131">
        <ele>164.8</ele>
        <time>2026-05-24T07:59:48Z</time>
      </trkpt>
      <trkpt lat="48.62453" lon="2.03128">
        <ele>165.4</ele>
        <time>2026-05-24T07:59:49Z</time>
      </trkpt>
      <trkpt lat="48.62454" lon="2.03124">
        <ele>165.4</ele>
        <time>2026-05-24T07:59:50Z</time>
      </trkpt>
      <trkpt lat="48.62455" lon="2.03122">
        <ele>165.4</ele>
        <time>2026-05-24T07:59:51Z</time>
      </trkpt>
      <trkpt lat="48.62455" lon="2.03118">
        <ele>165.6</ele>
        <time>2026-05-24T07:59:52Z</time>
      </trkpt>
      <trkpt lat="48.62455" lon="2.03115">
        <ele>166.2</ele>
        <time>2026-05-24T07:59:53Z</time>
      </trkpt>
      <trkpt lat="48.62456" lon="2.03112">
        <ele>166.2</ele>
        <time>2026-05-24T07:59:54Z</time>
      </trkpt>
      <trkpt lat="48.62456" lon="2.03109">
        <ele>166.2</ele>
        <time>2026-05-24T07:59:55Z</time>
      </trkpt>
      <trkpt lat="48.62456" lon="2.03105">
        <ele>165.8</ele>
        <time>2026-05-24T07:59:56Z</time>
      </trkpt>
      <trkpt lat="48.62458" lon="2.03101">
        <ele>166</ele>
        <time>2026-05-24T07:59:57Z</time>
      </trkpt>
      <trkpt lat="48.62459" lon="2.03097">
        <ele>166</ele>
        <time>2026-05-24T07:59:58Z</time>
      </trkpt>
      <trkpt lat="48.62459" lon="2.03095">
        <ele>166</ele>
        <time>2026-05-24T07:59:59Z</time>
      </trkpt>
      <trkpt lat="48.6246" lon="2.03091">
        <ele>166</ele>
        <time>2026-05-24T08:00:00Z</time>
      </trkpt>
      <trkpt lat="48.62461" lon="2.03088">
        <ele>165.8</ele>
        <time>2026-05-24T08:00:01Z</time>
      </trkpt>
      <trkpt lat="48.62462" lon="2.03084">
        <ele>165.8</ele>
        <time>2026-05-24T08:00:02Z</time>
      </trkpt>
      <trkpt lat="48.62462" lon="2.0308">
        <ele>165.8</ele>
        <time>2026-05-24T08:00:03Z</time>
      </trkpt>
      <trkpt lat="48.62463" lon="2.03077">
        <ele>165.8</ele>
        <time>2026-05-24T08:00:04Z</time>
      </trkpt>
      <trkpt lat="48.62464" lon="2.03073">
        <ele>165.2</ele>
        <time>2026-05-24T08:00:05Z</time>
      </trkpt>
      <trkpt lat="48.62465" lon="2.03068">
        <ele>165.2</ele>
        <time>2026-05-24T08:00:06Z</time>
      </trkpt>
      <trkpt lat="48.62465" lon="2.03064">
        <ele>165.2</ele>
        <time>2026-05-24T08:00:07Z</time>
      </trkpt>
      <trkpt lat="48.62466" lon="2.03059">
        <ele>165.2</ele>
        <time>2026-05-24T08:00:08Z</time>
      </trkpt>
      <trkpt lat="48.62467" lon="2.03055">
        <ele>165.2</ele>
        <time>2026-05-24T08:00:09Z</time>
      </trkpt>
      <trkpt lat="48.62468" lon="2.03049">
        <ele>165.2</ele>
        <time>2026-05-24T08:00:10Z</time>
      </trkpt>
      <trkpt lat="48.62468" lon="2.03044">
        <ele>165.2</ele>
        <time>2026-05-24T08:00:11Z</time>
      </trkpt>
      <trkpt lat="48.62469" lon="2.0304">
        <ele>165.2</ele>
        <time>2026-05-24T08:00:12Z</time>
      </trkpt>
      <trkpt lat="48.6247" lon="2.03033">
        <ele>164.4</ele>
        <time>2026-05-24T08:00:13Z</time>
      </trkpt>
      <trkpt lat="48.62471" lon="2.03028">
        <ele>164.4</ele>
        <time>2026-05-24T08:00:14Z</time>
      </trkpt>
      <trkpt lat="48.62472" lon="2.03022">
        <ele>164.4</ele>
        <time>2026-05-24T08:00:15Z</time>
      </trkpt>
      <trkpt lat="48.62473" lon="2.03016">
        <ele>164.4</ele>
        <time>2026-05-24T08:00:16Z</time>
      </trkpt>
      <trkpt lat="48.62474" lon="2.0301">
        <ele>164.6</ele>
        <time>2026-05-24T08:00:17Z</time>
      </trkpt>
      <trkpt lat="48.62475" lon="2.03006">
        <ele>164.6</ele>
        <time>2026-05-24T08:00:18Z</time>
      </trkpt>
      <trkpt lat="48.62477" lon="2.03">
        <ele>164.6</ele>
        <time>2026-05-24T08:00:19Z</time>
      </trkpt>
      <trkpt lat="48.62478" lon="2.02994">
        <ele>164</ele>
        <time>2026-05-24T08:00:20Z</time>
      </trkpt>
      <trkpt lat="48.6248" lon="2.02989">
        <ele>164.2</ele>
        <time>2026-05-24T08:00:21Z</time>
      </trkpt>
      <trkpt lat="48.62481" lon="2.02983">
        <ele>164.2</ele>
        <time>2026-05-24T08:00:22Z</time>
      </trkpt>
      <trkpt lat="48.62481" lon="2.02979">
        <ele>164.2</ele>
        <time>2026-05-24T08:00:23Z</time>
      </trkpt>
      <trkpt lat="48.62482" lon="2.02976">
        <ele>164.2</ele>
        <time>2026-05-24T08:00:24Z</time>
      </trkpt>
      <trkpt lat="48.62484" lon="2.0297">
        <ele>164.2</ele>
        <time>2026-05-24T08:00:25Z</time>
      </trkpt>
      <trkpt lat="48.62486" lon="2.02964">
        <ele>164.2</ele>
        <time>2026-05-24T08:00:26Z</time>
      </trkpt>
      <trkpt lat="48.62487" lon="2.02959">
        <ele>164.2</ele>
        <time>2026-05-24T08:00:27Z</time>
      </trkpt>
      <trkpt lat="48.62488" lon="2.02955">
        <ele>164.6</ele>
        <time>2026-05-24T08:00:28Z</time>
      </trkpt>
      <trkpt lat="48.6249" lon="2.0295">
        <ele>164.8</ele>
        <time>2026-05-24T08:00:29Z</time>
      </trkpt>
      <trkpt lat="48.6249" lon="2.02946">
        <ele>164.8</ele>
        <time>2026-05-24T08:00:30Z</time>
      </trkpt>
      <trkpt lat="48.62492" lon="2.02942">
        <ele>164.8</ele>
        <time>2026-05-24T08:00:31Z</time>
      </trkpt>
      <trkpt lat="48.62494" lon="2.02937">
        <ele>164.8</ele>
        <time>2026-05-24T08:00:32Z</time>
      </trkpt>
      <trkpt lat="48.62495" lon="2.02931">
        <ele>165.6</ele>
        <time>2026-05-24T08:00:33Z</time>
      </trkpt>
      <trkpt lat="48.62497" lon="2.02927">
        <ele>165.6</ele>
        <time>2026-05-24T08:00:34Z</time>
      </trkpt>
      <trkpt lat="48.62499" lon="2.02922">
        <ele>165.6</ele>
        <time>2026-05-24T08:00:35Z</time>
      </trkpt>
      <trkpt lat="48.625" lon="2.02917">
        <ele>165</ele>
        <time>2026-05-24T08:00:36Z</time>
      </trkpt>
      <trkpt lat="48.62502" lon="2.02912">
        <ele>165.2</ele>
        <time>2026-05-24T08:00:37Z</time>
      </trkpt>
      <trkpt lat="48.62503" lon="2.02907">
        <ele>165.2</ele>
        <time>2026-05-24T08:00:38Z</time>
      </trkpt>
      <trkpt lat="48.62505" lon="2.02902">
        <ele>165.2</ele>
        <time>2026-05-24T08:00:39Z</time>
      </trkpt>
      <trkpt lat="48.62507" lon="2.02898">
        <ele>165.2</ele>
        <time>2026-05-24T08:00:40Z</time>
      </trkpt>
      <trkpt lat="48.62508" lon="2.02893">
        <ele>165</ele>
        <time>2026-05-24T08:00:41Z</time>
      </trkpt>
      <trkpt lat="48.62509" lon="2.02888">
        <ele>165</ele>
        <time>2026-05-24T08:00:42Z</time>
      </trkpt>
      <trkpt lat="48.6251" lon="2.02884">
        <ele>165</ele>
        <time>2026-05-24T08:00:43Z</time>
      </trkpt>
      <trkpt lat="48.62512" lon="2.0288">
        <ele>165</ele>
        <time>2026-05-24T08:00:44Z</time>
      </trkpt>
      <trkpt lat="48.62513" lon="2.02876">
        <ele>164.8</ele>
        <time>2026-05-24T08:00:45Z</time>
      </trkpt>
      <trkpt lat="48.62515" lon="2.02872">
        <ele>164.8</ele>
        <time>2026-05-24T08:00:46Z</time>
      </trkpt>
      <trkpt lat="48.62516" lon="2.02868">
        <ele>164.8</ele>
        <time>2026-05-24T08:00:47Z</time>
      </trkpt>
      <trkpt lat="48.62517" lon="2.02863">
        <ele>164.8</ele>
        <time>2026-05-24T08:00:48Z</time>
      </trkpt>
      <trkpt lat="48.62518" lon="2.02859">
        <ele>165.4</ele>
        <time>2026-05-24T08:00:49Z</time>
      </trkpt>
      <trkpt lat="48.62519" lon="2.02855">
        <ele>165.4</ele>
        <time>2026-05-24T08:00:50Z</time>
      </trkpt>
      <trkpt lat="48.62521" lon="2.0285">
        <ele>165.4</ele>
        <time>2026-05-24T08:00:51Z</time>
      </trkpt>
      <trkpt lat="48.62523" lon="2.02846">
        <ele>165.4</ele>
        <time>2026-05-24T08:00:52Z</time>
      </trkpt>
      <trkpt lat="48.62524" lon="2.02843">
        <ele>165.4</ele>
        <time>2026-05-24T08:00:53Z</time>
      </trkpt>
      <trkpt lat="48.62525" lon="2.02839">
        <ele>165.4</ele>
        <time>2026-05-24T08:00:54Z</time>
      </trkpt>
      <trkpt lat="48.62527" lon="2.02834">
        <ele>165.4</ele>
        <time>2026-05-24T08:00:55Z</time>
      </trkpt>
      <trkpt lat="48.62529" lon="2.02828">
        <ele>165.4</ele>
        <time>2026-05-24T08:00:56Z</time>
      </trkpt>
      <trkpt lat="48.62532" lon="2.02822">
        <ele>163.2</ele>
        <time>2026-05-24T08:00:57Z</time>
      </trkpt>
      <trkpt lat="48.62533" lon="2.02817">
        <ele>163.2</ele>
        <time>2026-05-24T08:00:58Z</time>
      </trkpt>
      <trkpt lat="48.62535" lon="2.02811">
        <ele>163.2</ele>
        <time>2026-05-24T08:00:59Z</time>
      </trkpt>
      <trkpt lat="48.62538" lon="2.02807">
        <ele>164.2</ele>
        <time>2026-05-24T08:01:00Z</time>
      </trkpt>
      <trkpt lat="48.62542" lon="2.02804">
        <ele>164.4</ele>
        <time>2026-05-24T08:01:01Z</time>
      </trkpt>
      <trkpt lat="48.62545" lon="2.02798">
        <ele>164.4</ele>
        <time>2026-05-24T08:01:02Z</time>
      </trkpt>
      <trkpt lat="48.62549" lon="2.02794">
        <ele>164.4</ele>
        <time>2026-05-24T08:01:03Z</time>
      </trkpt>
      <trkpt lat="48.62554" lon="2.02789">
        <ele>163.6</ele>
        <time>2026-05-24T08:01:04Z</time>
      </trkpt>
      <trkpt lat="48.62558" lon="2.02785">
        <ele>163.2</ele>
        <time>2026-05-24T08:01:05Z</time>
      </trkpt>
      <trkpt lat="48.62562" lon="2.02782">
        <ele>163.2</ele>
        <time>2026-05-24T08:01:06Z</time>
      </trkpt>
      <trkpt lat="48.62564" lon="2.0278">
        <ele>163.2</ele>
        <time>2026-05-24T08:01:07Z</time>
      </trkpt>
      <trkpt lat="48.62568" lon="2.02779">
        <ele>163.6</ele>
        <time>2026-05-24T08:01:08Z</time>
      </trkpt>
      <trkpt lat="48.62571" lon="2.0278">
        <ele>164</ele>
        <time>2026-05-24T08:01:09Z</time>
      </trkpt>
      <trkpt lat="48.62575" lon="2.02781">
        <ele>164</ele>
        <time>2026-05-24T08:01:10Z</time>
      </trkpt>
      <trkpt lat="48.62578" lon="2.02782">
        <ele>164</ele>
        <time>2026-05-24T08:01:11Z</time>
      </trkpt>
      <trkpt lat="48.62581" lon="2.02784">
        <ele>164</ele>
        <time>2026-05-24T08:01:12Z</time>
      </trkpt>
      <trkpt lat="48.62586" lon="2.02786">
        <ele>163.6</ele>
        <time>2026-05-24T08:01:13Z</time>
      </trkpt>
      <trkpt lat="48.62591" lon="2.02788">
        <ele>163.6</ele>
        <time>2026-05-24T08:01:14Z</time>
      </trkpt>
      <trkpt lat="48.62596" lon="2.02789">
        <ele>163.6</ele>
        <time>2026-05-24T08:01:15Z</time>
      </trkpt>
      <trkpt lat="48.62602" lon="2.02791">
        <ele>163.4</ele>
        <time>2026-05-24T08:01:16Z</time>
      </trkpt>
      <trkpt lat="48.62607" lon="2.02792">
        <ele>162.8</ele>
        <time>2026-05-24T08:01:17Z</time>
      </trkpt>
      <trkpt lat="48.62613" lon="2.02792">
        <ele>162.8</ele>
        <time>2026-05-24T08:01:18Z</time>
      </trkpt>
      <trkpt lat="48.62619" lon="2.02793">
        <ele>162.8</ele>
        <time>2026-05-24T08:01:19Z</time>
      </trkpt>
      <trkpt lat="48.62625" lon="2.02792">
        <ele>162.8</ele>
        <time>2026-05-24T08:01:20Z</time>
      </trkpt>
      <trkpt lat="48.62631" lon="2.02791">
        <ele>162.8</ele>
        <time>2026-05-24T08:01:21Z</time>
      </trkpt>
      <trkpt lat="48.62637" lon="2.0279">
        <ele>162.8</ele>
        <time>2026-05-24T08:01:22Z</time>
      </trkpt>
      <trkpt lat="48.62643" lon="2.02787">
        <ele>162.8</ele>
        <time>2026-05-24T08:01:23Z</time>
      </trkpt>
      <trkpt lat="48.62649" lon="2.02786">
        <ele>162.8</ele>
        <time>2026-05-24T08:01:24Z</time>
      </trkpt>
      <trkpt lat="48.62654" lon="2.02784">
        <ele>162.2</ele>
        <time>2026-05-24T08:01:25Z</time>
      </trkpt>
      <trkpt lat="48.62659" lon="2.02783">
        <ele>162.2</ele>
        <time>2026-05-24T08:01:26Z</time>
      </trkpt>
      <trkpt lat="48.62666" lon="2.0278">
        <ele>162.2</ele>
        <time>2026-05-24T08:01:27Z</time>
      </trkpt>
      <trkpt lat="48.62672" lon="2.02778">
        <ele>162</ele>
        <time>2026-05-24T08:01:28Z</time>
      </trkpt>
      <trkpt lat="48.62679" lon="2.02775">
        <ele>161.8</ele>
        <time>2026-05-24T08:01:29Z</time>
      </trkpt>
      <trkpt lat="48.62685" lon="2.02772">
        <ele>161.8</ele>
        <time>2026-05-24T08:01:30Z</time>
      </trkpt>
      <trkpt lat="48.62691" lon="2.0277">
        <ele>161.8</ele>
        <time>2026-05-24T08:01:31Z</time>
      </trkpt>
      <trkpt lat="48.62697" lon="2.02768">
        <ele>161.8</ele>
        <time>2026-05-24T08:01:32Z</time>
      </trkpt>
      <trkpt lat="48.62703" lon="2.02766">
        <ele>161.6</ele>
        <time>2026-05-24T08:01:33Z</time>
      </trkpt>
      <trkpt lat="48.62709" lon="2.02764">
        <ele>161.6</ele>
        <time>2026-05-24T08:01:34Z</time>
      </trkpt>
      <trkpt lat="48.62715" lon="2.02762">
        <ele>161.6</ele>
        <time>2026-05-24T08:01:35Z</time>
      </trkpt>
      <trkpt lat="48.6272" lon="2.02759">
        <ele>161.6</ele>
        <time>2026-05-24T08:01:36Z</time>
      </trkpt>
      <trkpt lat="48.62724" lon="2.02757">
        <ele>161.2</ele>
        <time>2026-05-24T08:01:37Z</time>
      </trkpt>
      <trkpt lat="48.62726" lon="2.02759">
        <ele>161.2</ele>
        <time>2026-05-24T08:01:38Z</time>
      </trkpt>
      <trkpt lat="48.62728" lon="2.02762">
        <ele>161.2</ele>
        <time>2026-05-24T08:01:39Z</time>
      </trkpt>
      <trkpt lat="48.6273" lon="2.02765">
        <ele>161.8</ele>
        <time>2026-05-24T08:01:40Z</time>
      </trkpt>
      <trkpt lat="48.6273" lon="2.02768">
        <ele>161.4</ele>
        <time>2026-05-24T08:01:41Z</time>
      </trkpt>
      <trkpt lat="48.6273" lon="2.02772">
        <ele>161.4</ele>
        <time>2026-05-24T08:01:42Z</time>
      </trkpt>
      <trkpt lat="48.62728" lon="2.02778">
        <ele>161.4</ele>
        <time>2026-05-24T08:01:43Z</time>
      </trkpt>
      <trkpt lat="48.62727" lon="2.02784">
        <ele>160.4</ele>
        <time>2026-05-24T08:01:44Z</time>
      </trkpt>
      <trkpt lat="48.62726" lon="2.02793">
        <ele>158.2</ele>
        <time>2026-05-24T08:01:45Z</time>
      </trkpt>
      <trkpt lat="48.62724" lon="2.02803">
        <ele>158.2</ele>
        <time>2026-05-24T08:01:46Z</time>
      </trkpt>
      <trkpt lat="48.62724" lon="2.02813">
        <ele>158.2</ele>
        <time>2026-05-24T08:01:47Z</time>
      </trkpt>
      <trkpt lat="48.62723" lon="2.02823">
        <ele>157.6</ele>
        <time>2026-05-24T08:01:48Z</time>
      </trkpt>
      <trkpt lat="48.62724" lon="2.02832">
        <ele>158</ele>
        <time>2026-05-24T08:01:49Z</time>
      </trkpt>
      <trkpt lat="48.62725" lon="2.02841">
        <ele>158</ele>
        <time>2026-05-24T08:01:50Z</time>
      </trkpt>
      <trkpt lat="48.62726" lon="2.0285">
        <ele>158</ele>
        <time>2026-05-24T08:01:51Z</time>
      </trkpt>
      <trkpt lat="48.62727" lon="2.02858">
        <ele>157</ele>
        <time>2026-05-24T08:01:52Z</time>
      </trkpt>
      <trkpt lat="48.62727" lon="2.02866">
        <ele>157.4</ele>
        <time>2026-05-24T08:01:53Z</time>
      </trkpt>
      <trkpt lat="48.62728" lon="2.02874">
        <ele>157.4</ele>
        <time>2026-05-24T08:01:54Z</time>
      </trkpt>
      <trkpt lat="48.62728" lon="2.02883">
        <ele>157.4</ele>
        <time>2026-05-24T08:01:55Z</time>
      </trkpt>
      <trkpt lat="48.62729" lon="2.02891">
        <ele>157.4</ele>
        <time>2026-05-24T08:01:56Z</time>
      </trkpt>
      <trkpt lat="48.62731" lon="2.02899">
        <ele>157.4</ele>
        <time>2026-05-24T08:01:57Z</time>
      </trkpt>
      <trkpt lat="48.62732" lon="2.02904">
        <ele>157.4</ele>
        <time>2026-05-24T08:01:58Z</time>
      </trkpt>
      <trkpt lat="48.62734" lon="2.0291">
        <ele>157.4</ele>
        <time>2026-05-24T08:01:59Z</time>
      </trkpt>
      <trkpt lat="48.62735" lon="2.02914">
        <ele>157.4</ele>
        <time>2026-05-24T08:02:00Z</time>
      </trkpt>
      <trkpt lat="48.62737" lon="2.02919">
        <ele>157.8</ele>
        <time>2026-05-24T08:02:01Z</time>
      </trkpt>
      <trkpt lat="48.62737" lon="2.02924">
        <ele>157.8</ele>
        <time>2026-05-24T08:02:02Z</time>
      </trkpt>
      <trkpt lat="48.62737" lon="2.0293">
        <ele>157.8</ele>
        <time>2026-05-24T08:02:03Z</time>
      </trkpt>
      <trkpt lat="48.62738" lon="2.02935">
        <ele>157.8</ele>
        <time>2026-05-24T08:02:04Z</time>
      </trkpt>
      <trkpt lat="48.62739" lon="2.02941">
        <ele>158</ele>
        <time>2026-05-24T08:02:05Z</time>
      </trkpt>
      <trkpt lat="48.62738" lon="2.02948">
        <ele>158</ele>
        <time>2026-05-24T08:02:06Z</time>
      </trkpt>
      <trkpt lat="48.62738" lon="2.02956">
        <ele>158</ele>
        <time>2026-05-24T08:02:07Z</time>
      </trkpt>
      <trkpt lat="48.62738" lon="2.02964">
        <ele>158</ele>
        <time>2026-05-24T08:02:08Z</time>
      </trkpt>
      <trkpt lat="48.62737" lon="2.02972">
        <ele>158.2</ele>
        <time>2026-05-24T08:02:09Z</time>
      </trkpt>
      <trkpt lat="48.62737" lon="2.0298">
        <ele>158.2</ele>
        <time>2026-05-24T08:02:10Z</time>
      </trkpt>
      <trkpt lat="48.62736" lon="2.02987">
        <ele>158.2</ele>
        <time>2026-05-24T08:02:11Z</time>
      </trkpt>
      <trkpt lat="48.62736" lon="2.02995">
        <ele>157.8</ele>
        <time>2026-05-24T08:02:12Z</time>
      </trkpt>
      <trkpt lat="48.62735" lon="2.03002">
        <ele>157.4</ele>
        <time>2026-05-24T08:02:13Z</time>
      </trkpt>
      <trkpt lat="48.62736" lon="2.03008">
        <ele>157.4</ele>
        <time>2026-05-24T08:02:14Z</time>
      </trkpt>
      <trkpt lat="48.62736" lon="2.03016">
        <ele>157.4</ele>
        <time>2026-05-24T08:02:15Z</time>
      </trkpt>
      <trkpt lat="48.62736" lon="2.03023">
        <ele>157.4</ele>
        <time>2026-05-24T08:02:16Z</time>
      </trkpt>
      <trkpt lat="48.62737" lon="2.03031">
        <ele>157</ele>
        <time>2026-05-24T08:02:17Z</time>
      </trkpt>
      <trkpt lat="48.62737" lon="2.03038">
        <ele>157</ele>
        <time>2026-05-24T08:02:18Z</time>
      </trkpt>
      <trkpt lat="48.62738" lon="2.03044">
        <ele>157</ele>
        <time>2026-05-24T08:02:19Z</time>
      </trkpt>
      <trkpt lat="48.62739" lon="2.0305">
        <ele>157</ele>
        <time>2026-05-24T08:02:20Z</time>
      </trkpt>
      <trkpt lat="48.62741" lon="2.03057">
        <ele>157.2</ele>
        <time>2026-05-24T08:02:21Z</time>
      </trkpt>
      <trkpt lat="48.62742" lon="2.03064">
        <ele>157.2</ele>
        <time>2026-05-24T08:02:22Z</time>
      </trkpt>
      <trkpt lat="48.62742" lon="2.0307">
        <ele>157.2</ele>
        <time>2026-05-24T08:02:23Z</time>
      </trkpt>
      <trkpt lat="48.62743" lon="2.03076">
        <ele>157.2</ele>
        <time>2026-05-24T08:02:24Z</time>
      </trkpt>
      <trkpt lat="48.62743" lon="2.03082">
        <ele>157.2</ele>
        <time>2026-05-24T08:02:25Z</time>
      </trkpt>
      <trkpt lat="48.62742" lon="2.03089">
        <ele>157.2</ele>
        <time>2026-05-24T08:02:26Z</time>
      </trkpt>
      <trkpt lat="48.62742" lon="2.03096">
        <ele>157.2</ele>
        <time>2026-05-24T08:02:27Z</time>
      </trkpt>
      <trkpt lat="48.62743" lon="2.03104">
        <ele>157.2</ele>
        <time>2026-05-24T08:02:28Z</time>
      </trkpt>
      <trkpt lat="48.62744" lon="2.03112">
        <ele>157</ele>
        <time>2026-05-24T08:02:29Z</time>
      </trkpt>
      <trkpt lat="48.62745" lon="2.0312">
        <ele>157</ele>
        <time>2026-05-24T08:02:30Z</time>
      </trkpt>
      <trkpt lat="48.62745" lon="2.03127">
        <ele>157</ele>
        <time>2026-05-24T08:02:31Z</time>
      </trkpt>
      <trkpt lat="48.62745" lon="2.03133">
        <ele>157</ele>
        <time>2026-05-24T08:02:32Z</time>
      </trkpt>
      <trkpt lat="48.62747" lon="2.0314">
        <ele>157</ele>
        <time>2026-05-24T08:02:33Z</time>
      </trkpt>
      <trkpt lat="48.62747" lon="2.03148">
        <ele>157</ele>
        <time>2026-05-24T08:02:34Z</time>
      </trkpt>
      <trkpt lat="48.62749" lon="2.03153">
        <ele>157</ele>
        <time>2026-05-24T08:02:35Z</time>
      </trkpt>
      <trkpt lat="48.62749" lon="2.0316">
        <ele>157</ele>
        <time>2026-05-24T08:02:36Z</time>
      </trkpt>
      <trkpt lat="48.62749" lon="2.03167">
        <ele>157</ele>
        <time>2026-05-24T08:02:37Z</time>
      </trkpt>
      <trkpt lat="48.62748" lon="2.03175">
        <ele>157</ele>
        <time>2026-05-24T08:02:38Z</time>
      </trkpt>
      <trkpt lat="48.62748" lon="2.03182">
        <ele>157</ele>
        <time>2026-05-24T08:02:39Z</time>
      </trkpt>
      <trkpt lat="48.62748" lon="2.03189">
        <ele>157</ele>
        <time>2026-05-24T08:02:40Z</time>
      </trkpt>
      <trkpt lat="48.62749" lon="2.03196">
        <ele>156</ele>
        <time>2026-05-24T08:02:41Z</time>
      </trkpt>
      <trkpt lat="48.62749" lon="2.03203">
        <ele>156</ele>
        <time>2026-05-24T08:02:42Z</time>
      </trkpt>
      <trkpt lat="48.6275" lon="2.03209">
        <ele>156</ele>
        <time>2026-05-24T08:02:43Z</time>
      </trkpt>
      <trkpt lat="48.62751" lon="2.03217">
        <ele>156</ele>
        <time>2026-05-24T08:02:44Z</time>
      </trkpt>
      <trkpt lat="48.62752" lon="2.03222">
        <ele>156.4</ele>
        <time>2026-05-24T08:02:45Z</time>
      </trkpt>
      <trkpt lat="48.62752" lon="2.0323">
        <ele>156.4</ele>
        <time>2026-05-24T08:02:46Z</time>
      </trkpt>
      <trkpt lat="48.62754" lon="2.03239">
        <ele>156.4</ele>
        <time>2026-05-24T08:02:47Z</time>
      </trkpt>
      <trkpt lat="48.62755" lon="2.03245">
        <ele>156.4</ele>
        <time>2026-05-24T08:02:48Z</time>
      </trkpt>
      <trkpt lat="48.62755" lon="2.03251">
        <ele>156.8</ele>
        <time>2026-05-24T08:02:49Z</time>
      </trkpt>
      <trkpt lat="48.62755" lon="2.03257">
        <ele>156.8</ele>
        <time>2026-05-24T08:02:50Z</time>
      </trkpt>
      <trkpt lat="48.62755" lon="2.03261">
        <ele>156.8</ele>
        <time>2026-05-24T08:02:51Z</time>
      </trkpt>
      <trkpt lat="48.62755" lon="2.03267">
        <ele>156.8</ele>
        <time>2026-05-24T08:02:52Z</time>
      </trkpt>
      <trkpt lat="48.62755" lon="2.03275">
        <ele>156.4</ele>
        <time>2026-05-24T08:02:53Z</time>
      </trkpt>
      <trkpt lat="48.62755" lon="2.03283">
        <ele>156.4</ele>
        <time>2026-05-24T08:02:54Z</time>
      </trkpt>
      <trkpt lat="48.62756" lon="2.03289">
        <ele>156.4</ele>
        <time>2026-05-24T08:02:55Z</time>
      </trkpt>
      <trkpt lat="48.62757" lon="2.03297">
        <ele>155.4</ele>
        <time>2026-05-24T08:02:56Z</time>
      </trkpt>
      <trkpt lat="48.62757" lon="2.03307">
        <ele>152.2</ele>
        <time>2026-05-24T08:02:57Z</time>
      </trkpt>
      <trkpt lat="48.62758" lon="2.03318">
        <ele>152.2</ele>
        <time>2026-05-24T08:02:58Z</time>
      </trkpt>
      <trkpt lat="48.62756" lon="2.03331">
        <ele>152.2</ele>
        <time>2026-05-24T08:02:59Z</time>
      </trkpt>
      <trkpt lat="48.62756" lon="2.03342">
        <ele>152.2</ele>
        <time>2026-05-24T08:03:00Z</time>
      </trkpt>
      <trkpt lat="48.62755" lon="2.03354">
        <ele>151.4</ele>
        <time>2026-05-24T08:03:01Z</time>
      </trkpt>
      <trkpt lat="48.62753" lon="2.03367">
        <ele>151.4</ele>
        <time>2026-05-24T08:03:02Z</time>
      </trkpt>
      <trkpt lat="48.62752" lon="2.03379">
        <ele>151.4</ele>
        <time>2026-05-24T08:03:03Z</time>
      </trkpt>
      <trkpt lat="48.62753" lon="2.0339">
        <ele>151.4</ele>
        <time>2026-05-24T08:03:04Z</time>
      </trkpt>
      <trkpt lat="48.62753" lon="2.03401">
        <ele>150.4</ele>
        <time>2026-05-24T08:03:05Z</time>
      </trkpt>
      <trkpt lat="48.62754" lon="2.03412">
        <ele>150.4</ele>
        <time>2026-05-24T08:03:06Z</time>
      </trkpt>
      <trkpt lat="48.62755" lon="2.03421">
        <ele>150.4</ele>
        <time>2026-05-24T08:03:07Z</time>
      </trkpt>
      <trkpt lat="48.62756" lon="2.0343">
        <ele>151</ele>
        <time>2026-05-24T08:03:08Z</time>
      </trkpt>
      <trkpt lat="48.62756" lon="2.03438">
        <ele>150.4</ele>
        <time>2026-05-24T08:03:09Z</time>
      </trkpt>
      <trkpt lat="48.62756" lon="2.03451">
        <ele>150.4</ele>
        <time>2026-05-24T08:03:10Z</time>
      </trkpt>
      <trkpt lat="48.62755" lon="2.03461">
        <ele>150.4</ele>
        <time>2026-05-24T08:03:11Z</time>
      </trkpt>
      <trkpt lat="48.62755" lon="2.0347">
        <ele>150.4</ele>
        <time>2026-05-24T08:03:12Z</time>
      </trkpt>
      <trkpt lat="48.62756" lon="2.03478">
        <ele>150.8</ele>
        <time>2026-05-24T08:03:13Z</time>
      </trkpt>
      <trkpt lat="48.62756" lon="2.03487">
        <ele>150.8</ele>
        <time>2026-05-24T08:03:14Z</time>
      </trkpt>
      <trkpt lat="48.62757" lon="2.03495">
        <ele>150.8</ele>
        <time>2026-05-24T08:03:15Z</time>
      </trkpt>
      <trkpt lat="48.62759" lon="2.03503">
        <ele>151.4</ele>
        <time>2026-05-24T08:03:16Z</time>
      </trkpt>
      <trkpt lat="48.62759" lon="2.0351">
        <ele>151.2</ele>
        <time>2026-05-24T08:03:17Z</time>
      </trkpt>
      <trkpt lat="48.6276" lon="2.03517">
        <ele>151.2</ele>
        <time>2026-05-24T08:03:18Z</time>
      </trkpt>
      <trkpt lat="48.62761" lon="2.03523">
        <ele>151.2</ele>
        <time>2026-05-24T08:03:19Z</time>
      </trkpt>
      <trkpt lat="48.62762" lon="2.03529">
        <ele>151.2</ele>
        <time>2026-05-24T08:03:20Z</time>
      </trkpt>
      <trkpt lat="48.62763" lon="2.03535">
        <ele>151.6</ele>
        <time>2026-05-24T08:03:21Z</time>
      </trkpt>
      <trkpt lat="48.62764" lon="2.03541">
        <ele>151.6</ele>
        <time>2026-05-24T08:03:22Z</time>
      </trkpt>
      <trkpt lat="48.62764" lon="2.03548">
        <ele>151.6</ele>
        <time>2026-05-24T08:03:23Z</time>
      </trkpt>
      <trkpt lat="48.62766" lon="2.03554">
        <ele>151.6</ele>
        <time>2026-05-24T08:03:24Z</time>
      </trkpt>
      <trkpt lat="48.62768" lon="2.0356">
        <ele>151.8</ele>
        <time>2026-05-24T08:03:25Z</time>
      </trkpt>
      <trkpt lat="48.62769" lon="2.03566">
        <ele>151.8</ele>
        <time>2026-05-24T08:03:26Z</time>
      </trkpt>
      <trkpt lat="48.62771" lon="2.03572">
        <ele>151.8</ele>
        <time>2026-05-24T08:03:27Z</time>
      </trkpt>
      <trkpt lat="48.62772" lon="2.03578">
        <ele>151.8</ele>
        <time>2026-05-24T08:03:28Z</time>
      </trkpt>
      <trkpt lat="48.62773" lon="2.03584">
        <ele>152</ele>
        <time>2026-05-24T08:03:29Z</time>
      </trkpt>
      <trkpt lat="48.62775" lon="2.03591">
        <ele>152</ele>
        <time>2026-05-24T08:03:30Z</time>
      </trkpt>
      <trkpt lat="48.62776" lon="2.03597">
        <ele>152</ele>
        <time>2026-05-24T08:03:31Z</time>
      </trkpt>
      <trkpt lat="48.62778" lon="2.03603">
        <ele>152</ele>
        <time>2026-05-24T08:03:32Z</time>
      </trkpt>
      <trkpt lat="48.6278" lon="2.03608">
        <ele>151.6</ele>
        <time>2026-05-24T08:03:33Z</time>
      </trkpt>
      <trkpt lat="48.62781" lon="2.03613">
        <ele>151.6</ele>
        <time>2026-05-24T08:03:34Z</time>
      </trkpt>
      <trkpt lat="48.62783" lon="2.03618">
        <ele>151.6</ele>
        <time>2026-05-24T08:03:35Z</time>
      </trkpt>
      <trkpt lat="48.62784" lon="2.03625">
        <ele>152.4</ele>
        <time>2026-05-24T08:03:36Z</time>
      </trkpt>
      <trkpt lat="48.62786" lon="2.03631">
        <ele>152.8</ele>
        <time>2026-05-24T08:03:37Z</time>
      </trkpt>
      <trkpt lat="48.62786" lon="2.03635">
        <ele>152.8</ele>
        <time>2026-05-24T08:03:38Z</time>
      </trkpt>
      <trkpt lat="48.62788" lon="2.0364">
        <ele>152.8</ele>
        <time>2026-05-24T08:03:39Z</time>
      </trkpt>
      <trkpt lat="48.62789" lon="2.03646">
        <ele>152.8</ele>
        <time>2026-05-24T08:03:40Z</time>
      </trkpt>
      <trkpt lat="48.62791" lon="2.03652">
        <ele>152.8</ele>
        <time>2026-05-24T08:03:41Z</time>
      </trkpt>
      <trkpt lat="48.62792" lon="2.03657">
        <ele>152.8</ele>
        <time>2026-05-24T08:03:42Z</time>
      </trkpt>
      <trkpt lat="48.62793" lon="2.03662">
        <ele>152.8</ele>
        <time>2026-05-24T08:03:43Z</time>
      </trkpt>
      <trkpt lat="48.62795" lon="2.03668">
        <ele>152.2</ele>
        <time>2026-05-24T08:03:44Z</time>
      </trkpt>
      <trkpt lat="48.62797" lon="2.03673">
        <ele>152.6</ele>
        <time>2026-05-24T08:03:45Z</time>
      </trkpt>
      <trkpt lat="48.62797" lon="2.03679">
        <ele>152.6</ele>
        <time>2026-05-24T08:03:46Z</time>
      </trkpt>
      <trkpt lat="48.62798" lon="2.03685">
        <ele>152.6</ele>
        <time>2026-05-24T08:03:47Z</time>
      </trkpt>
      <trkpt lat="48.628" lon="2.03689">
        <ele>152.6</ele>
        <time>2026-05-24T08:03:48Z</time>
      </trkpt>
      <trkpt lat="48.62802" lon="2.03695">
        <ele>152.4</ele>
        <time>2026-05-24T08:03:49Z</time>
      </trkpt>
      <trkpt lat="48.62804" lon="2.037">
        <ele>152.4</ele>
        <time>2026-05-24T08:03:50Z</time>
      </trkpt>
      <trkpt lat="48.62806" lon="2.03706">
        <ele>152.4</ele>
        <time>2026-05-24T08:03:51Z</time>
      </trkpt>
      <trkpt lat="48.62808" lon="2.03712">
        <ele>152.6</ele>
        <time>2026-05-24T08:03:52Z</time>
      </trkpt>
      <trkpt lat="48.62809" lon="2.03717">
        <ele>152.8</ele>
        <time>2026-05-24T08:03:53Z</time>
      </trkpt>
      <trkpt lat="48.62811" lon="2.03723">
        <ele>152.8</ele>
        <time>2026-05-24T08:03:54Z</time>
      </trkpt>
      <trkpt lat="48.62813" lon="2.03728">
        <ele>152.8</ele>
        <time>2026-05-24T08:03:55Z</time>
      </trkpt>
      <trkpt lat="48.62815" lon="2.03734">
        <ele>153.2</ele>
        <time>2026-05-24T08:03:56Z</time>
      </trkpt>
      <trkpt lat="48.62817" lon="2.0374">
        <ele>153.2</ele>
        <time>2026-05-24T08:03:57Z</time>
      </trkpt>
      <trkpt lat="48.62819" lon="2.03746">
        <ele>153.2</ele>
        <time>2026-05-24T08:03:58Z</time>
      </trkpt>
      <trkpt lat="48.62821" lon="2.03751">
        <ele>153.2</ele>
        <time>2026-05-24T08:03:59Z</time>
      </trkpt>
      <trkpt lat="48.62823" lon="2.03758">
        <ele>153.2</ele>
        <time>2026-05-24T08:04:00Z</time>
      </trkpt>
      <trkpt lat="48.62825" lon="2.03764">
        <ele>153.4</ele>
        <time>2026-05-24T08:04:01Z</time>
      </trkpt>
      <trkpt lat="48.62827" lon="2.0377">
        <ele>153.4</ele>
        <time>2026-05-24T08:04:02Z</time>
      </trkpt>
      <trkpt lat="48.62828" lon="2.03776">
        <ele>153.4</ele>
        <time>2026-05-24T08:04:03Z</time>
      </trkpt>
      <trkpt lat="48.6283" lon="2.0378">
        <ele>154</ele>
        <time>2026-05-24T08:04:04Z</time>
      </trkpt>
      <trkpt lat="48.62832" lon="2.03785">
        <ele>153.6</ele>
        <time>2026-05-24T08:04:05Z</time>
      </trkpt>
      <trkpt lat="48.62833" lon="2.0379">
        <ele>153.6</ele>
        <time>2026-05-24T08:04:06Z</time>
      </trkpt>
      <trkpt lat="48.62835" lon="2.03794">
        <ele>153.6</ele>
        <time>2026-05-24T08:04:07Z</time>
      </trkpt>
      <trkpt lat="48.62838" lon="2.03798">
        <ele>153.6</ele>
        <time>2026-05-24T08:04:08Z</time>
      </trkpt>
      <trkpt lat="48.6284" lon="2.03803">
        <ele>154.6</ele>
        <time>2026-05-24T08:04:09Z</time>
      </trkpt>
      <trkpt lat="48.62842" lon="2.03807">
        <ele>154.6</ele>
        <time>2026-05-24T08:04:10Z</time>
      </trkpt>
      <trkpt lat="48.62844" lon="2.03812">
        <ele>154.6</ele>
        <time>2026-05-24T08:04:11Z</time>
      </trkpt>
      <trkpt lat="48.62846" lon="2.03816">
        <ele>154.4</ele>
        <time>2026-05-24T08:04:12Z</time>
      </trkpt>
      <trkpt lat="48.62849" lon="2.03821">
        <ele>154.2</ele>
        <time>2026-05-24T08:04:13Z</time>
      </trkpt>
      <trkpt lat="48.6285" lon="2.03827">
        <ele>154.2</ele>
        <time>2026-05-24T08:04:14Z</time>
      </trkpt>
      <trkpt lat="48.62852" lon="2.03833">
        <ele>154.2</ele>
        <time>2026-05-24T08:04:15Z</time>
      </trkpt>
      <trkpt lat="48.62854" lon="2.03839">
        <ele>154.2</ele>
        <time>2026-05-24T08:04:16Z</time>
      </trkpt>
      <trkpt lat="48.62856" lon="2.03845">
        <ele>153.6</ele>
        <time>2026-05-24T08:04:17Z</time>
      </trkpt>
      <trkpt lat="48.62858" lon="2.03852">
        <ele>153.6</ele>
        <time>2026-05-24T08:04:18Z</time>
      </trkpt>
      <trkpt lat="48.6286" lon="2.03858">
        <ele>153.6</ele>
        <time>2026-05-24T08:04:19Z</time>
      </trkpt>
      <trkpt lat="48.62863" lon="2.03864">
        <ele>153.6</ele>
        <time>2026-05-24T08:04:20Z</time>
      </trkpt>
      <trkpt lat="48.62866" lon="2.0387">
        <ele>153.6</ele>
        <time>2026-05-24T08:04:21Z</time>
      </trkpt>
      <trkpt lat="48.62869" lon="2.03875">
        <ele>153.6</ele>
        <time>2026-05-24T08:04:22Z</time>
      </trkpt>
      <trkpt lat="48.62871" lon="2.03881">
        <ele>153.6</ele>
        <time>2026-05-24T08:04:23Z</time>
      </trkpt>
      <trkpt lat="48.62874" lon="2.03887">
        <ele>153.6</ele>
        <time>2026-05-24T08:04:24Z</time>
      </trkpt>
      <trkpt lat="48.62877" lon="2.03893">
        <ele>153.4</ele>
        <time>2026-05-24T08:04:25Z</time>
      </trkpt>
      <trkpt lat="48.62879" lon="2.03898">
        <ele>153.4</ele>
        <time>2026-05-24T08:04:26Z</time>
      </trkpt>
      <trkpt lat="48.62881" lon="2.03903">
        <ele>153.4</ele>
        <time>2026-05-24T08:04:27Z</time>
      </trkpt>
      <trkpt lat="48.62883" lon="2.03908">
        <ele>153.6</ele>
        <time>2026-05-24T08:04:28Z</time>
      </trkpt>
      <trkpt lat="48.62885" lon="2.03913">
        <ele>153.6</ele>
        <time>2026-05-24T08:04:29Z</time>
      </trkpt>
      <trkpt lat="48.62888" lon="2.03917">
        <ele>153.6</ele>
        <time>2026-05-24T08:04:30Z</time>
      </trkpt>
      <trkpt lat="48.62891" lon="2.03923">
        <ele>153.6</ele>
        <time>2026-05-24T08:04:31Z</time>
      </trkpt>
      <trkpt lat="48.62893" lon="2.03928">
        <ele>153.6</ele>
        <time>2026-05-24T08:04:32Z</time>
      </trkpt>
      <trkpt lat="48.62895" lon="2.03933">
        <ele>154.4</ele>
        <time>2026-05-24T08:04:33Z</time>
      </trkpt>
      <trkpt lat="48.62897" lon="2.03938">
        <ele>154.4</ele>
        <time>2026-05-24T08:04:34Z</time>
      </trkpt>
      <trkpt lat="48.62899" lon="2.03942">
        <ele>154.4</ele>
        <time>2026-05-24T08:04:35Z</time>
      </trkpt>
      <trkpt lat="48.62901" lon="2.03947">
        <ele>154.2</ele>
        <time>2026-05-24T08:04:36Z</time>
      </trkpt>
      <trkpt lat="48.62903" lon="2.03951">
        <ele>154.2</ele>
        <time>2026-05-24T08:04:37Z</time>
      </trkpt>
      <trkpt lat="48.62904" lon="2.03957">
        <ele>154.2</ele>
        <time>2026-05-24T08:04:38Z</time>
      </trkpt>
      <trkpt lat="48.62905" lon="2.03962">
        <ele>154.2</ele>
        <time>2026-05-24T08:04:39Z</time>
      </trkpt>
      <trkpt lat="48.62906" lon="2.03966">
        <ele>154.2</ele>
        <time>2026-05-24T08:04:40Z</time>
      </trkpt>
      <trkpt lat="48.62908" lon="2.0397">
        <ele>154.4</ele>
        <time>2026-05-24T08:04:41Z</time>
      </trkpt>
      <trkpt lat="48.62911" lon="2.03974">
        <ele>154.4</ele>
        <time>2026-05-24T08:04:42Z</time>
      </trkpt>
      <trkpt lat="48.62913" lon="2.03979">
        <ele>154.4</ele>
        <time>2026-05-24T08:04:43Z</time>
      </trkpt>
      <trkpt lat="48.62916" lon="2.03985">
        <ele>154.4</ele>
        <time>2026-05-24T08:04:44Z</time>
      </trkpt>
      <trkpt lat="48.62919" lon="2.03991">
        <ele>154.4</ele>
        <time>2026-05-24T08:04:45Z</time>
      </trkpt>
      <trkpt lat="48.62922" lon="2.03996">
        <ele>154.4</ele>
        <time>2026-05-24T08:04:46Z</time>
      </trkpt>
      <trkpt lat="48.62925" lon="2.04001">
        <ele>154.4</ele>
        <time>2026-05-24T08:04:47Z</time>
      </trkpt>
      <trkpt lat="48.62928" lon="2.04005">
        <ele>154.4</ele>
        <time>2026-05-24T08:04:48Z</time>
      </trkpt>
      <trkpt lat="48.6293" lon="2.0401">
        <ele>154.6</ele>
        <time>2026-05-24T08:04:49Z</time>
      </trkpt>
      <trkpt lat="48.62933" lon="2.04014">
        <ele>154.6</ele>
        <time>2026-05-24T08:04:50Z</time>
      </trkpt>
      <trkpt lat="48.62935" lon="2.04019">
        <ele>154.6</ele>
        <time>2026-05-24T08:04:51Z</time>
      </trkpt>
      <trkpt lat="48.62938" lon="2.04024">
        <ele>154.6</ele>
        <time>2026-05-24T08:04:52Z</time>
      </trkpt>
      <trkpt lat="48.62941" lon="2.04028">
        <ele>154.6</ele>
        <time>2026-05-24T08:04:53Z</time>
      </trkpt>
      <trkpt lat="48.62943" lon="2.04032">
        <ele>154.6</ele>
        <time>2026-05-24T08:04:54Z</time>
      </trkpt>
      <trkpt lat="48.62946" lon="2.04036">
        <ele>154.6</ele>
        <time>2026-05-24T08:04:55Z</time>
      </trkpt>
      <trkpt lat="48.62948" lon="2.0404">
        <ele>154.6</ele>
        <time>2026-05-24T08:04:56Z</time>
      </trkpt>
      <trkpt lat="48.6295" lon="2.04044">
        <ele>155</ele>
        <time>2026-05-24T08:04:57Z</time>
      </trkpt>
      <trkpt lat="48.62953" lon="2.04048">
        <ele>155</ele>
        <time>2026-05-24T08:04:58Z</time>
      </trkpt>
      <trkpt lat="48.62956" lon="2.04052">
        <ele>155</ele>
        <time>2026-05-24T08:04:59Z</time>
      </trkpt>
      <trkpt lat="48.62958" lon="2.04056">
        <ele>155</ele>
        <time>2026-05-24T08:05:00Z</time>
      </trkpt>
      <trkpt lat="48.62961" lon="2.0406">
        <ele>155.2</ele>
        <time>2026-05-24T08:05:01Z</time>
      </trkpt>
      <trkpt lat="48.62963" lon="2.04064">
        <ele>155.2</ele>
        <time>2026-05-24T08:05:02Z</time>
      </trkpt>
      <trkpt lat="48.62966" lon="2.04068">
        <ele>155.2</ele>
        <time>2026-05-24T08:05:03Z</time>
      </trkpt>
      <trkpt lat="48.62969" lon="2.04072">
        <ele>155.2</ele>
        <time>2026-05-24T08:05:04Z</time>
      </trkpt>
      <trkpt lat="48.62972" lon="2.04076">
        <ele>155.2</ele>
        <time>2026-05-24T08:05:05Z</time>
      </trkpt>
      <trkpt lat="48.62974" lon="2.0408">
        <ele>155.2</ele>
        <time>2026-05-24T08:05:06Z</time>
      </trkpt>
      <trkpt lat="48.62976" lon="2.04083">
        <ele>155.2</ele>
        <time>2026-05-24T08:05:07Z</time>
      </trkpt>
      <trkpt lat="48.62979" lon="2.04087">
        <ele>155.2</ele>
        <time>2026-05-24T08:05:08Z</time>
      </trkpt>
      <trkpt lat="48.62982" lon="2.0409">
        <ele>155</ele>
        <time>2026-05-24T08:05:09Z</time>
      </trkpt>
      <trkpt lat="48.62984" lon="2.04094">
        <ele>155</ele>
        <time>2026-05-24T08:05:10Z</time>
      </trkpt>
      <trkpt lat="48.62987" lon="2.04099">
        <ele>155</ele>
        <time>2026-05-24T08:05:11Z</time>
      </trkpt>
      <trkpt lat="48.62989" lon="2.04103">
        <ele>155</ele>
        <time>2026-05-24T08:05:12Z</time>
      </trkpt>
      <trkpt lat="48.62991" lon="2.04107">
        <ele>155.6</ele>
        <time>2026-05-24T08:05:13Z</time>
      </trkpt>
      <trkpt lat="48.62993" lon="2.04111">
        <ele>155.6</ele>
        <time>2026-05-24T08:05:14Z</time>
      </trkpt>
      <trkpt lat="48.62996" lon="2.04114">
        <ele>155.6</ele>
        <time>2026-05-24T08:05:15Z</time>
      </trkpt>
      <trkpt lat="48.62998" lon="2.04118">
        <ele>156.2</ele>
        <time>2026-05-24T08:05:16Z</time>
      </trkpt>
      <trkpt lat="48.63001" lon="2.04121">
        <ele>156</ele>
        <time>2026-05-24T08:05:17Z</time>
      </trkpt>
      <trkpt lat="48.63002" lon="2.04125">
        <ele>156</ele>
        <time>2026-05-24T08:05:18Z</time>
      </trkpt>
      <trkpt lat="48.63005" lon="2.04128">
        <ele>156</ele>
        <time>2026-05-24T08:05:19Z</time>
      </trkpt>
      <trkpt lat="48.63009" lon="2.04131">
        <ele>156</ele>
        <time>2026-05-24T08:05:20Z</time>
      </trkpt>
      <trkpt lat="48.63012" lon="2.04134">
        <ele>156.4</ele>
        <time>2026-05-24T08:05:21Z</time>
      </trkpt>
      <trkpt lat="48.63014" lon="2.04137">
        <ele>156.4</ele>
        <time>2026-05-24T08:05:22Z</time>
      </trkpt>
      <trkpt lat="48.63017" lon="2.0414">
        <ele>156.4</ele>
        <time>2026-05-24T08:05:23Z</time>
      </trkpt>
      <trkpt lat="48.6302" lon="2.04143">
        <ele>156.4</ele>
        <time>2026-05-24T08:05:24Z</time>
      </trkpt>
      <trkpt lat="48.63023" lon="2.04146">
        <ele>156</ele>
        <time>2026-05-24T08:05:25Z</time>
      </trkpt>
      <trkpt lat="48.63026" lon="2.04149">
        <ele>156</ele>
        <time>2026-05-24T08:05:26Z</time>
      </trkpt>
      <trkpt lat="48.63029" lon="2.04152">
        <ele>156</ele>
        <time>2026-05-24T08:05:27Z</time>
      </trkpt>
      <trkpt lat="48.63032" lon="2.04156">
        <ele>156</ele>
        <time>2026-05-24T08:05:28Z</time>
      </trkpt>
      <trkpt lat="48.63036" lon="2.0416">
        <ele>156.4</ele>
        <time>2026-05-24T08:05:29Z</time>
      </trkpt>
      <trkpt lat="48.6304" lon="2.04164">
        <ele>156.4</ele>
        <time>2026-05-24T08:05:30Z</time>
      </trkpt>
      <trkpt lat="48.63044" lon="2.04168">
        <ele>156.4</ele>
        <time>2026-05-24T08:05:31Z</time>
      </trkpt>
      <trkpt lat="48.63048" lon="2.04172">
        <ele>156.4</ele>
        <time>2026-05-24T08:05:32Z</time>
      </trkpt>
      <trkpt lat="48.63051" lon="2.04176">
        <ele>156.4</ele>
        <time>2026-05-24T08:05:33Z</time>
      </trkpt>
      <trkpt lat="48.63055" lon="2.04181">
        <ele>156.4</ele>
        <time>2026-05-24T08:05:34Z</time>
      </trkpt>
      <trkpt lat="48.63059" lon="2.04185">
        <ele>156.4</ele>
        <time>2026-05-24T08:05:35Z</time>
      </trkpt>
      <trkpt lat="48.63062" lon="2.04188">
        <ele>156.4</ele>
        <time>2026-05-24T08:05:36Z</time>
      </trkpt>
      <trkpt lat="48.63066" lon="2.04192">
        <ele>156.4</ele>
        <time>2026-05-24T08:05:37Z</time>
      </trkpt>
      <trkpt lat="48.63069" lon="2.04196">
        <ele>156.4</ele>
        <time>2026-05-24T08:05:38Z</time>
      </trkpt>
      <trkpt lat="48.63072" lon="2.042">
        <ele>156.4</ele>
        <time>2026-05-24T08:05:39Z</time>
      </trkpt>
      <trkpt lat="48.63076" lon="2.04203">
        <ele>155.8</ele>
        <time>2026-05-24T08:05:40Z</time>
      </trkpt>
      <trkpt lat="48.63079" lon="2.04206">
        <ele>155.8</ele>
        <time>2026-05-24T08:05:41Z</time>
      </trkpt>
      <trkpt lat="48.63082" lon="2.04209">
        <ele>155.8</ele>
        <time>2026-05-24T08:05:42Z</time>
      </trkpt>
      <trkpt lat="48.63085" lon="2.04212">
        <ele>155.8</ele>
        <time>2026-05-24T08:05:43Z</time>
      </trkpt>
      <trkpt lat="48.63088" lon="2.04216">
        <ele>156.2</ele>
        <time>2026-05-24T08:05:44Z</time>
      </trkpt>
      <trkpt lat="48.63092" lon="2.04221">
        <ele>156.4</ele>
        <time>2026-05-24T08:05:45Z</time>
      </trkpt>
      <trkpt lat="48.63096" lon="2.04225">
        <ele>156.4</ele>
        <time>2026-05-24T08:05:46Z</time>
      </trkpt>
      <trkpt lat="48.63099" lon="2.04229">
        <ele>156.4</ele>
        <time>2026-05-24T08:05:47Z</time>
      </trkpt>
      <trkpt lat="48.63103" lon="2.04233">
        <ele>156.4</ele>
        <time>2026-05-24T08:05:48Z</time>
      </trkpt>
      <trkpt lat="48.63107" lon="2.04237">
        <ele>156.4</ele>
        <time>2026-05-24T08:05:49Z</time>
      </trkpt>
      <trkpt lat="48.6311" lon="2.04241">
        <ele>156.4</ele>
        <time>2026-05-24T08:05:50Z</time>
      </trkpt>
      <trkpt lat="48.63114" lon="2.04245">
        <ele>156.4</ele>
        <time>2026-05-24T08:05:51Z</time>
      </trkpt>
      <trkpt lat="48.63117" lon="2.04249">
        <ele>156.4</ele>
        <time>2026-05-24T08:05:52Z</time>
      </trkpt>
      <trkpt lat="48.63121" lon="2.04253">
        <ele>156.6</ele>
        <time>2026-05-24T08:05:53Z</time>
      </trkpt>
      <trkpt lat="48.63125" lon="2.04257">
        <ele>156.6</ele>
        <time>2026-05-24T08:05:54Z</time>
      </trkpt>
      <trkpt lat="48.63128" lon="2.0426">
        <ele>156.6</ele>
        <time>2026-05-24T08:05:55Z</time>
      </trkpt>
      <trkpt lat="48.63131" lon="2.04264">
        <ele>156.6</ele>
        <time>2026-05-24T08:05:56Z</time>
      </trkpt>
      <trkpt lat="48.63135" lon="2.04268">
        <ele>156.6</ele>
        <time>2026-05-24T08:05:57Z</time>
      </trkpt>
      <trkpt lat="48.63138" lon="2.04272">
        <ele>156.6</ele>
        <time>2026-05-24T08:05:58Z</time>
      </trkpt>
      <trkpt lat="48.63142" lon="2.04276">
        <ele>156.6</ele>
        <time>2026-05-24T08:05:59Z</time>
      </trkpt>
      <trkpt lat="48.63145" lon="2.0428">
        <ele>156.8</ele>
        <time>2026-05-24T08:06:00Z</time>
      </trkpt>
      <trkpt lat="48.63149" lon="2.04284">
        <ele>156.8</ele>
        <time>2026-05-24T08:06:01Z</time>
      </trkpt>
      <trkpt lat="48.63152" lon="2.04288">
        <ele>156.8</ele>
        <time>2026-05-24T08:06:02Z</time>
      </trkpt>
      <trkpt lat="48.63156" lon="2.04291">
        <ele>156.8</ele>
        <time>2026-05-24T08:06:03Z</time>
      </trkpt>
      <trkpt lat="48.63159" lon="2.04295">
        <ele>157</ele>
        <time>2026-05-24T08:06:04Z</time>
      </trkpt>
      <trkpt lat="48.63162" lon="2.04299">
        <ele>157.2</ele>
        <time>2026-05-24T08:06:05Z</time>
      </trkpt>
      <trkpt lat="48.63166" lon="2.04302">
        <ele>157.2</ele>
        <time>2026-05-24T08:06:06Z</time>
      </trkpt>
      <trkpt lat="48.63169" lon="2.04306">
        <ele>157.2</ele>
        <time>2026-05-24T08:06:07Z</time>
      </trkpt>
      <trkpt lat="48.63172" lon="2.0431">
        <ele>157.2</ele>
        <time>2026-05-24T08:06:08Z</time>
      </trkpt>
      <trkpt lat="48.63176" lon="2.04313">
        <ele>157.4</ele>
        <time>2026-05-24T08:06:09Z</time>
      </trkpt>
      <trkpt lat="48.63178" lon="2.04317">
        <ele>157.4</ele>
        <time>2026-05-24T08:06:10Z</time>
      </trkpt>
      <trkpt lat="48.63181" lon="2.0432">
        <ele>157.4</ele>
        <time>2026-05-24T08:06:11Z</time>
      </trkpt>
      <trkpt lat="48.63185" lon="2.04323">
        <ele>157.4</ele>
        <time>2026-05-24T08:06:12Z</time>
      </trkpt>
      <trkpt lat="48.63189" lon="2.04326">
        <ele>157.6</ele>
        <time>2026-05-24T08:06:13Z</time>
      </trkpt>
      <trkpt lat="48.63192" lon="2.0433">
        <ele>157.6</ele>
        <time>2026-05-24T08:06:14Z</time>
      </trkpt>
      <trkpt lat="48.63195" lon="2.04333">
        <ele>157.6</ele>
        <time>2026-05-24T08:06:15Z</time>
      </trkpt>
      <trkpt lat="48.63198" lon="2.04337">
        <ele>157.6</ele>
        <time>2026-05-24T08:06:16Z</time>
      </trkpt>
      <trkpt lat="48.63201" lon="2.0434">
        <ele>157.8</ele>
        <time>2026-05-24T08:06:17Z</time>
      </trkpt>
      <trkpt lat="48.63204" lon="2.04343">
        <ele>157.8</ele>
        <time>2026-05-24T08:06:18Z</time>
      </trkpt>
      <trkpt lat="48.63206" lon="2.04347">
        <ele>157.8</ele>
        <time>2026-05-24T08:06:19Z</time>
      </trkpt>
      <trkpt lat="48.63209" lon="2.04351">
        <ele>157.8</ele>
        <time>2026-05-24T08:06:20Z</time>
      </trkpt>
      <trkpt lat="48.63213" lon="2.04355">
        <ele>158.2</ele>
        <time>2026-05-24T08:06:21Z</time>
      </trkpt>
      <trkpt lat="48.63216" lon="2.04358">
        <ele>158.2</ele>
        <time>2026-05-24T08:06:22Z</time>
      </trkpt>
      <trkpt lat="48.63219" lon="2.04362">
        <ele>158.2</ele>
        <time>2026-05-24T08:06:23Z</time>
      </trkpt>
      <trkpt lat="48.63222" lon="2.04365">
        <ele>157.6</ele>
        <time>2026-05-24T08:06:24Z</time>
      </trkpt>
      <trkpt lat="48.63225" lon="2.04368">
        <ele>157.8</ele>
        <time>2026-05-24T08:06:25Z</time>
      </trkpt>
      <trkpt lat="48.63228" lon="2.04372">
        <ele>157.8</ele>
        <time>2026-05-24T08:06:26Z</time>
      </trkpt>
      <trkpt lat="48.63231" lon="2.04375">
        <ele>157.8</ele>
        <time>2026-05-24T08:06:27Z</time>
      </trkpt>
      <trkpt lat="48.63234" lon="2.04378">
        <ele>158.2</ele>
        <time>2026-05-24T08:06:28Z</time>
      </trkpt>
      <trkpt lat="48.63237" lon="2.04382">
        <ele>158</ele>
        <time>2026-05-24T08:06:29Z</time>
      </trkpt>
      <trkpt lat="48.6324" lon="2.04386">
        <ele>158</ele>
        <time>2026-05-24T08:06:30Z</time>
      </trkpt>
      <trkpt lat="48.63243" lon="2.04389">
        <ele>158</ele>
        <time>2026-05-24T08:06:31Z</time>
      </trkpt>
      <trkpt lat="48.63245" lon="2.04392">
        <ele>158</ele>
        <time>2026-05-24T08:06:32Z</time>
      </trkpt>
      <trkpt lat="48.63248" lon="2.04395">
        <ele>158.4</ele>
        <time>2026-05-24T08:06:33Z</time>
      </trkpt>
      <trkpt lat="48.63251" lon="2.04398">
        <ele>158.4</ele>
        <time>2026-05-24T08:06:34Z</time>
      </trkpt>
      <trkpt lat="48.63254" lon="2.044">
        <ele>158.4</ele>
        <time>2026-05-24T08:06:35Z</time>
      </trkpt>
      <trkpt lat="48.63257" lon="2.04403">
        <ele>157.8</ele>
        <time>2026-05-24T08:06:36Z</time>
      </trkpt>
      <trkpt lat="48.63259" lon="2.04407">
        <ele>158</ele>
        <time>2026-05-24T08:06:37Z</time>
      </trkpt>
      <trkpt lat="48.63262" lon="2.04411">
        <ele>158</ele>
        <time>2026-05-24T08:06:38Z</time>
      </trkpt>
      <trkpt lat="48.63265" lon="2.04415">
        <ele>158</ele>
        <time>2026-05-24T08:06:39Z</time>
      </trkpt>
      <trkpt lat="48.63268" lon="2.04419">
        <ele>158</ele>
        <time>2026-05-24T08:06:40Z</time>
      </trkpt>
      <trkpt lat="48.6327" lon="2.04423">
        <ele>158.4</ele>
        <time>2026-05-24T08:06:41Z</time>
      </trkpt>
      <trkpt lat="48.63273" lon="2.04426">
        <ele>158.4</ele>
        <time>2026-05-24T08:06:42Z</time>
      </trkpt>
      <trkpt lat="48.63277" lon="2.04431">
        <ele>158.4</ele>
        <time>2026-05-24T08:06:43Z</time>
      </trkpt>
      <trkpt lat="48.63281" lon="2.04435">
        <ele>158.4</ele>
        <time>2026-05-24T08:06:44Z</time>
      </trkpt>
      <trkpt lat="48.63285" lon="2.04439">
        <ele>158.4</ele>
        <time>2026-05-24T08:06:45Z</time>
      </trkpt>
      <trkpt lat="48.63288" lon="2.04443">
        <ele>158.4</ele>
        <time>2026-05-24T08:06:46Z</time>
      </trkpt>
      <trkpt lat="48.63292" lon="2.04447">
        <ele>158.4</ele>
        <time>2026-05-24T08:06:47Z</time>
      </trkpt>
      <trkpt lat="48.63295" lon="2.04451">
        <ele>158.4</ele>
        <time>2026-05-24T08:06:48Z</time>
      </trkpt>
      <trkpt lat="48.63298" lon="2.04455">
        <ele>158.4</ele>
        <time>2026-05-24T08:06:49Z</time>
      </trkpt>
      <trkpt lat="48.63301" lon="2.04458">
        <ele>158.4</ele>
        <time>2026-05-24T08:06:50Z</time>
      </trkpt>
      <trkpt lat="48.63304" lon="2.04462">
        <ele>158.4</ele>
        <time>2026-05-24T08:06:51Z</time>
      </trkpt>
      <trkpt lat="48.63307" lon="2.04466">
        <ele>158.4</ele>
        <time>2026-05-24T08:06:52Z</time>
      </trkpt>
      <trkpt lat="48.6331" lon="2.0447">
        <ele>158.8</ele>
        <time>2026-05-24T08:06:53Z</time>
      </trkpt>
      <trkpt lat="48.63313" lon="2.04474">
        <ele>158.8</ele>
        <time>2026-05-24T08:06:54Z</time>
      </trkpt>
      <trkpt lat="48.63315" lon="2.04478">
        <ele>158.8</ele>
        <time>2026-05-24T08:06:55Z</time>
      </trkpt>
      <trkpt lat="48.63318" lon="2.04482">
        <ele>158.8</ele>
        <time>2026-05-24T08:06:56Z</time>
      </trkpt>
      <trkpt lat="48.63321" lon="2.04485">
        <ele>159.4</ele>
        <time>2026-05-24T08:06:57Z</time>
      </trkpt>
      <trkpt lat="48.63323" lon="2.04489">
        <ele>159.4</ele>
        <time>2026-05-24T08:06:58Z</time>
      </trkpt>
      <trkpt lat="48.63326" lon="2.04493">
        <ele>159.4</ele>
        <time>2026-05-24T08:06:59Z</time>
      </trkpt>
      <trkpt lat="48.63329" lon="2.04496">
        <ele>159.4</ele>
        <time>2026-05-24T08:07:00Z</time>
      </trkpt>
      <trkpt lat="48.63331" lon="2.045">
        <ele>158.8</ele>
        <time>2026-05-24T08:07:01Z</time>
      </trkpt>
      <trkpt lat="48.63334" lon="2.04504">
        <ele>158.8</ele>
        <time>2026-05-24T08:07:02Z</time>
      </trkpt>
      <trkpt lat="48.63337" lon="2.04508">
        <ele>158.8</ele>
        <time>2026-05-24T08:07:03Z</time>
      </trkpt>
      <trkpt lat="48.63339" lon="2.04511">
        <ele>158.8</ele>
        <time>2026-05-24T08:07:04Z</time>
      </trkpt>
      <trkpt lat="48.63342" lon="2.04515">
        <ele>159</ele>
        <time>2026-05-24T08:07:05Z</time>
      </trkpt>
      <trkpt lat="48.63345" lon="2.0452">
        <ele>159</ele>
        <time>2026-05-24T08:07:06Z</time>
      </trkpt>
      <trkpt lat="48.63348" lon="2.04524">
        <ele>159</ele>
        <time>2026-05-24T08:07:07Z</time>
      </trkpt>
      <trkpt lat="48.6335" lon="2.04527">
        <ele>159</ele>
        <time>2026-05-24T08:07:08Z</time>
      </trkpt>
      <trkpt lat="48.63353" lon="2.04531">
        <ele>159</ele>
        <time>2026-05-24T08:07:09Z</time>
      </trkpt>
      <trkpt lat="48.63355" lon="2.04535">
        <ele>159</ele>
        <time>2026-05-24T08:07:10Z</time>
      </trkpt>
      <trkpt lat="48.63358" lon="2.04539">
        <ele>159</ele>
        <time>2026-05-24T08:07:11Z</time>
      </trkpt>
      <trkpt lat="48.6336" lon="2.04543">
        <ele>159</ele>
        <time>2026-05-24T08:07:12Z</time>
      </trkpt>
      <trkpt lat="48.63363" lon="2.04547">
        <ele>158.4</ele>
        <time>2026-05-24T08:07:13Z</time>
      </trkpt>
      <trkpt lat="48.63365" lon="2.04551">
        <ele>158.4</ele>
        <time>2026-05-24T08:07:14Z</time>
      </trkpt>
      <trkpt lat="48.63368" lon="2.04556">
        <ele>158.4</ele>
        <time>2026-05-24T08:07:15Z</time>
      </trkpt>
      <trkpt lat="48.6337" lon="2.0456">
        <ele>159.4</ele>
        <time>2026-05-24T08:07:16Z</time>
      </trkpt>
      <trkpt lat="48.63373" lon="2.04564">
        <ele>159.2</ele>
        <time>2026-05-24T08:07:17Z</time>
      </trkpt>
      <trkpt lat="48.63375" lon="2.04568">
        <ele>159.2</ele>
        <time>2026-05-24T08:07:18Z</time>
      </trkpt>
      <trkpt lat="48.63378" lon="2.04572">
        <ele>159.2</ele>
        <time>2026-05-24T08:07:19Z</time>
      </trkpt>
      <trkpt lat="48.6338" lon="2.04576">
        <ele>159.2</ele>
        <time>2026-05-24T08:07:20Z</time>
      </trkpt>
      <trkpt lat="48.63382" lon="2.04581">
        <ele>159</ele>
        <time>2026-05-24T08:07:21Z</time>
      </trkpt>
      <trkpt lat="48.63385" lon="2.04584">
        <ele>159</ele>
        <time>2026-05-24T08:07:22Z</time>
      </trkpt>
      <trkpt lat="48.63387" lon="2.04588">
        <ele>159</ele>
        <time>2026-05-24T08:07:23Z</time>
      </trkpt>
      <trkpt lat="48.6339" lon="2.04592">
        <ele>159.6</ele>
        <time>2026-05-24T08:07:24Z</time>
      </trkpt>
      <trkpt lat="48.63392" lon="2.04597">
        <ele>160</ele>
        <time>2026-05-24T08:07:25Z</time>
      </trkpt>
      <trkpt lat="48.63395" lon="2.04601">
        <ele>160</ele>
        <time>2026-05-24T08:07:26Z</time>
      </trkpt>
      <trkpt lat="48.63397" lon="2.04606">
        <ele>160</ele>
        <time>2026-05-24T08:07:27Z</time>
      </trkpt>
      <trkpt lat="48.63399" lon="2.0461">
        <ele>159.8</ele>
        <time>2026-05-24T08:07:28Z</time>
      </trkpt>
      <trkpt lat="48.63401" lon="2.04615">
        <ele>160.4</ele>
        <time>2026-05-24T08:07:29Z</time>
      </trkpt>
      <trkpt lat="48.63403" lon="2.04619">
        <ele>160.4</ele>
        <time>2026-05-24T08:07:30Z</time>
      </trkpt>
      <trkpt lat="48.63405" lon="2.04623">
        <ele>160.4</ele>
        <time>2026-05-24T08:07:31Z</time>
      </trkpt>
      <trkpt lat="48.63408" lon="2.04628">
        <ele>160.4</ele>
        <time>2026-05-24T08:07:32Z</time>
      </trkpt>
      <trkpt lat="48.6341" lon="2.04633">
        <ele>160</ele>
        <time>2026-05-24T08:07:33Z</time>
      </trkpt>
      <trkpt lat="48.63412" lon="2.04637">
        <ele>160</ele>
        <time>2026-05-24T08:07:34Z</time>
      </trkpt>
      <trkpt lat="48.63414" lon="2.04642">
        <ele>160</ele>
        <time>2026-05-24T08:07:35Z</time>
      </trkpt>
      <trkpt lat="48.63416" lon="2.04646">
        <ele>159.6</ele>
        <time>2026-05-24T08:07:36Z</time>
      </trkpt>
      <trkpt lat="48.63418" lon="2.04651">
        <ele>160</ele>
        <time>2026-05-24T08:07:37Z</time>
      </trkpt>
      <trkpt lat="48.63421" lon="2.04656">
        <ele>160</ele>
        <time>2026-05-24T08:07:38Z</time>
      </trkpt>
      <trkpt lat="48.63423" lon="2.0466">
        <ele>160</ele>
        <time>2026-05-24T08:07:39Z</time>
      </trkpt>
      <trkpt lat="48.63425" lon="2.04665">
        <ele>160</ele>
        <time>2026-05-24T08:07:40Z</time>
      </trkpt>
      <trkpt lat="48.63427" lon="2.04669">
        <ele>160</ele>
        <time>2026-05-24T08:07:41Z</time>
      </trkpt>
      <trkpt lat="48.63429" lon="2.04674">
        <ele>160</ele>
        <time>2026-05-24T08:07:42Z</time>
      </trkpt>
      <trkpt lat="48.63431" lon="2.04679">
        <ele>160</ele>
        <time>2026-05-24T08:07:43Z</time>
      </trkpt>
      <trkpt lat="48.63433" lon="2.04683">
        <ele>160.4</ele>
        <time>2026-05-24T08:07:44Z</time>
      </trkpt>
      <trkpt lat="48.63435" lon="2.04688">
        <ele>160.4</ele>
        <time>2026-05-24T08:07:45Z</time>
      </trkpt>
      <trkpt lat="48.63437" lon="2.04693">
        <ele>160.4</ele>
        <time>2026-05-24T08:07:46Z</time>
      </trkpt>
      <trkpt lat="48.63439" lon="2.04698">
        <ele>160.4</ele>
        <time>2026-05-24T08:07:47Z</time>
      </trkpt>
      <trkpt lat="48.63441" lon="2.04702">
        <ele>160.6</ele>
        <time>2026-05-24T08:07:48Z</time>
      </trkpt>
      <trkpt lat="48.63443" lon="2.04707">
        <ele>160.6</ele>
        <time>2026-05-24T08:07:49Z</time>
      </trkpt>
      <trkpt lat="48.63445" lon="2.04712">
        <ele>160.6</ele>
        <time>2026-05-24T08:07:50Z</time>
      </trkpt>
      <trkpt lat="48.63447" lon="2.04716">
        <ele>160.6</ele>
        <time>2026-05-24T08:07:51Z</time>
      </trkpt>
      <trkpt lat="48.63448" lon="2.04721">
        <ele>160.6</ele>
        <time>2026-05-24T08:07:52Z</time>
      </trkpt>
      <trkpt lat="48.6345" lon="2.04726">
        <ele>160.8</ele>
        <time>2026-05-24T08:07:53Z</time>
      </trkpt>
      <trkpt lat="48.63452" lon="2.0473">
        <ele>160.8</ele>
        <time>2026-05-24T08:07:54Z</time>
      </trkpt>
      <trkpt lat="48.63453" lon="2.04735">
        <ele>160.8</ele>
        <time>2026-05-24T08:07:55Z</time>
      </trkpt>
      <trkpt lat="48.63454" lon="2.0474">
        <ele>160.8</ele>
        <time>2026-05-24T08:07:56Z</time>
      </trkpt>
      <trkpt lat="48.63456" lon="2.04745">
        <ele>160.8</ele>
        <time>2026-05-24T08:07:57Z</time>
      </trkpt>
      <trkpt lat="48.63457" lon="2.04749">
        <ele>160.8</ele>
        <time>2026-05-24T08:07:58Z</time>
      </trkpt>
      <trkpt lat="48.63459" lon="2.04754">
        <ele>160.8</ele>
        <time>2026-05-24T08:07:59Z</time>
      </trkpt>
      <trkpt lat="48.6346" lon="2.04758">
        <ele>160.8</ele>
        <time>2026-05-24T08:08:00Z</time>
      </trkpt>
      <trkpt lat="48.63462" lon="2.04763">
        <ele>161.4</ele>
        <time>2026-05-24T08:08:01Z</time>
      </trkpt>
      <trkpt lat="48.63463" lon="2.04768">
        <ele>161.4</ele>
        <time>2026-05-24T08:08:02Z</time>
      </trkpt>
      <trkpt lat="48.63464" lon="2.04773">
        <ele>161.4</ele>
        <time>2026-05-24T08:08:03Z</time>
      </trkpt>
      <trkpt lat="48.63465" lon="2.04778">
        <ele>161.4</ele>
        <time>2026-05-24T08:08:04Z</time>
      </trkpt>
      <trkpt lat="48.63466" lon="2.04783">
        <ele>161.4</ele>
        <time>2026-05-24T08:08:05Z</time>
      </trkpt>
      <trkpt lat="48.63468" lon="2.04788">
        <ele>161.4</ele>
        <time>2026-05-24T08:08:06Z</time>
      </trkpt>
      <trkpt lat="48.63469" lon="2.04793">
        <ele>161.4</ele>
        <time>2026-05-24T08:08:07Z</time>
      </trkpt>
      <trkpt lat="48.63471" lon="2.04799">
        <ele>161.4</ele>
        <time>2026-05-24T08:08:08Z</time>
      </trkpt>
      <trkpt lat="48.63472" lon="2.04804">
        <ele>161.8</ele>
        <time>2026-05-24T08:08:09Z</time>
      </trkpt>
      <trkpt lat="48.63473" lon="2.04809">
        <ele>161.8</ele>
        <time>2026-05-24T08:08:10Z</time>
      </trkpt>
      <trkpt lat="48.63475" lon="2.04814">
        <ele>161.8</ele>
        <time>2026-05-24T08:08:11Z</time>
      </trkpt>
      <trkpt lat="48.63476" lon="2.04818">
        <ele>161.8</ele>
        <time>2026-05-24T08:08:12Z</time>
      </trkpt>
      <trkpt lat="48.63478" lon="2.04823">
        <ele>161.8</ele>
        <time>2026-05-24T08:08:13Z</time>
      </trkpt>
      <trkpt lat="48.63479" lon="2.04828">
        <ele>161.8</ele>
        <time>2026-05-24T08:08:14Z</time>
      </trkpt>
      <trkpt lat="48.63481" lon="2.04833">
        <ele>161.8</ele>
        <time>2026-05-24T08:08:15Z</time>
      </trkpt>
      <trkpt lat="48.63481" lon="2.04838">
        <ele>161.8</ele>
        <time>2026-05-24T08:08:16Z</time>
      </trkpt>
      <trkpt lat="48.63483" lon="2.04843">
        <ele>162.2</ele>
        <time>2026-05-24T08:08:17Z</time>
      </trkpt>
      <trkpt lat="48.63484" lon="2.04847">
        <ele>162.2</ele>
        <time>2026-05-24T08:08:18Z</time>
      </trkpt>
      <trkpt lat="48.63485" lon="2.04852">
        <ele>162.2</ele>
        <time>2026-05-24T08:08:19Z</time>
      </trkpt>
      <trkpt lat="48.63486" lon="2.04857">
        <ele>162.2</ele>
        <time>2026-05-24T08:08:20Z</time>
      </trkpt>
      <trkpt lat="48.63488" lon="2.04863">
        <ele>162</ele>
        <time>2026-05-24T08:08:21Z</time>
      </trkpt>
      <trkpt lat="48.63489" lon="2.04867">
        <ele>162</ele>
        <time>2026-05-24T08:08:22Z</time>
      </trkpt>
      <trkpt lat="48.6349" lon="2.04872">
        <ele>162</ele>
        <time>2026-05-24T08:08:23Z</time>
      </trkpt>
      <trkpt lat="48.63491" lon="2.04876">
        <ele>162</ele>
        <time>2026-05-24T08:08:24Z</time>
      </trkpt>
      <trkpt lat="48.63492" lon="2.04881">
        <ele>162.4</ele>
        <time>2026-05-24T08:08:25Z</time>
      </trkpt>
      <trkpt lat="48.63493" lon="2.04886">
        <ele>162.4</ele>
        <time>2026-05-24T08:08:26Z</time>
      </trkpt>
      <trkpt lat="48.63495" lon="2.04892">
        <ele>162.4</ele>
        <time>2026-05-24T08:08:27Z</time>
      </trkpt>
      <trkpt lat="48.63496" lon="2.04897">
        <ele>162.4</ele>
        <time>2026-05-24T08:08:28Z</time>
      </trkpt>
      <trkpt lat="48.63497" lon="2.04902">
        <ele>162.6</ele>
        <time>2026-05-24T08:08:29Z</time>
      </trkpt>
      <trkpt lat="48.63498" lon="2.04907">
        <ele>162.6</ele>
        <time>2026-05-24T08:08:30Z</time>
      </trkpt>
      <trkpt lat="48.63499" lon="2.04911">
        <ele>162.6</ele>
        <time>2026-05-24T08:08:31Z</time>
      </trkpt>
      <trkpt lat="48.63501" lon="2.04916">
        <ele>162.8</ele>
        <time>2026-05-24T08:08:32Z</time>
      </trkpt>
      <trkpt lat="48.63502" lon="2.0492">
        <ele>162.8</ele>
        <time>2026-05-24T08:08:33Z</time>
      </trkpt>
      <trkpt lat="48.63503" lon="2.04925">
        <ele>162.8</ele>
        <time>2026-05-24T08:08:34Z</time>
      </trkpt>
      <trkpt lat="48.63505" lon="2.04931">
        <ele>162.8</ele>
        <time>2026-05-24T08:08:35Z</time>
      </trkpt>
      <trkpt lat="48.63506" lon="2.04935">
        <ele>162.8</ele>
        <time>2026-05-24T08:08:36Z</time>
      </trkpt>
      <trkpt lat="48.63507" lon="2.0494">
        <ele>162.8</ele>
        <time>2026-05-24T08:08:37Z</time>
      </trkpt>
      <trkpt lat="48.63508" lon="2.04944">
        <ele>162.8</ele>
        <time>2026-05-24T08:08:38Z</time>
      </trkpt>
      <trkpt lat="48.6351" lon="2.04949">
        <ele>162.8</ele>
        <time>2026-05-24T08:08:39Z</time>
      </trkpt>
      <trkpt lat="48.6351" lon="2.04954">
        <ele>162.8</ele>
        <time>2026-05-24T08:08:40Z</time>
      </trkpt>
      <trkpt lat="48.63512" lon="2.04959">
        <ele>162.8</ele>
        <time>2026-05-24T08:08:41Z</time>
      </trkpt>
      <trkpt lat="48.63512" lon="2.04963">
        <ele>162.8</ele>
        <time>2026-05-24T08:08:42Z</time>
      </trkpt>
      <trkpt lat="48.63514" lon="2.04967">
        <ele>162.8</ele>
        <time>2026-05-24T08:08:43Z</time>
      </trkpt>
      <trkpt lat="48.63514" lon="2.04972">
        <ele>162.8</ele>
        <time>2026-05-24T08:08:44Z</time>
      </trkpt>
      <trkpt lat="48.63515" lon="2.04976">
        <ele>163</ele>
        <time>2026-05-24T08:08:45Z</time>
      </trkpt>
      <trkpt lat="48.63516" lon="2.0498">
        <ele>163</ele>
        <time>2026-05-24T08:08:46Z</time>
      </trkpt>
      <trkpt lat="48.63518" lon="2.04986">
        <ele>163</ele>
        <time>2026-05-24T08:08:47Z</time>
      </trkpt>
      <trkpt lat="48.63519" lon="2.04991">
        <ele>163.2</ele>
        <time>2026-05-24T08:08:48Z</time>
      </trkpt>
      <trkpt lat="48.63521" lon="2.04997">
        <ele>163.2</ele>
        <time>2026-05-24T08:08:49Z</time>
      </trkpt>
      <trkpt lat="48.63522" lon="2.05002">
        <ele>163.2</ele>
        <time>2026-05-24T08:08:50Z</time>
      </trkpt>
      <trkpt lat="48.63524" lon="2.05009">
        <ele>163.2</ele>
        <time>2026-05-24T08:08:51Z</time>
      </trkpt>
      <trkpt lat="48.63525" lon="2.05013">
        <ele>163.2</ele>
        <time>2026-05-24T08:08:52Z</time>
      </trkpt>
      <trkpt lat="48.63526" lon="2.05017">
        <ele>163.4</ele>
        <time>2026-05-24T08:08:53Z</time>
      </trkpt>
      <trkpt lat="48.63527" lon="2.05024">
        <ele>163.4</ele>
        <time>2026-05-24T08:08:54Z</time>
      </trkpt>
      <trkpt lat="48.63528" lon="2.05028">
        <ele>163.4</ele>
        <time>2026-05-24T08:08:55Z</time>
      </trkpt>
      <trkpt lat="48.6353" lon="2.05034">
        <ele>163.4</ele>
        <time>2026-05-24T08:08:56Z</time>
      </trkpt>
      <trkpt lat="48.63531" lon="2.05039">
        <ele>164.2</ele>
        <time>2026-05-24T08:08:57Z</time>
      </trkpt>
      <trkpt lat="48.63532" lon="2.05044">
        <ele>164.2</ele>
        <time>2026-05-24T08:08:58Z</time>
      </trkpt>
      <trkpt lat="48.63534" lon="2.0505">
        <ele>164.2</ele>
        <time>2026-05-24T08:08:59Z</time>
      </trkpt>
      <trkpt lat="48.63537" lon="2.05057">
        <ele>164.2</ele>
        <time>2026-05-24T08:09:00Z</time>
      </trkpt>
      <trkpt lat="48.63539" lon="2.05064">
        <ele>163.8</ele>
        <time>2026-05-24T08:09:01Z</time>
      </trkpt>
      <trkpt lat="48.63542" lon="2.05071">
        <ele>163.8</ele>
        <time>2026-05-24T08:09:02Z</time>
      </trkpt>
      <trkpt lat="48.63543" lon="2.05076">
        <ele>163.8</ele>
        <time>2026-05-24T08:09:03Z</time>
      </trkpt>
      <trkpt lat="48.63545" lon="2.05081">
        <ele>164.2</ele>
        <time>2026-05-24T08:09:04Z</time>
      </trkpt>
      <trkpt lat="48.63547" lon="2.05089">
        <ele>164.2</ele>
        <time>2026-05-24T08:09:05Z</time>
      </trkpt>
      <trkpt lat="48.63549" lon="2.05095">
        <ele>164.2</ele>
        <time>2026-05-24T08:09:06Z</time>
      </trkpt>
      <trkpt lat="48.6355" lon="2.051">
        <ele>164.2</ele>
        <time>2026-05-24T08:09:07Z</time>
      </trkpt>
      <trkpt lat="48.63552" lon="2.05107">
        <ele>164.2</ele>
        <time>2026-05-24T08:09:08Z</time>
      </trkpt>
      <trkpt lat="48.63553" lon="2.05112">
        <ele>164</ele>
        <time>2026-05-24T08:09:09Z</time>
      </trkpt>
      <trkpt lat="48.63554" lon="2.05119">
        <ele>164</ele>
        <time>2026-05-24T08:09:10Z</time>
      </trkpt>
      <trkpt lat="48.63556" lon="2.05126">
        <ele>164</ele>
        <time>2026-05-24T08:09:11Z</time>
      </trkpt>
      <trkpt lat="48.63558" lon="2.05132">
        <ele>164.8</ele>
        <time>2026-05-24T08:09:12Z</time>
      </trkpt>
      <trkpt lat="48.6356" lon="2.05139">
        <ele>164.6</ele>
        <time>2026-05-24T08:09:13Z</time>
      </trkpt>
      <trkpt lat="48.63561" lon="2.05144">
        <ele>164.6</ele>
        <time>2026-05-24T08:09:14Z</time>
      </trkpt>
      <trkpt lat="48.63562" lon="2.0515">
        <ele>164.6</ele>
        <time>2026-05-24T08:09:15Z</time>
      </trkpt>
      <trkpt lat="48.63564" lon="2.05156">
        <ele>164.6</ele>
        <time>2026-05-24T08:09:16Z</time>
      </trkpt>
      <trkpt lat="48.63565" lon="2.05161">
        <ele>165</ele>
        <time>2026-05-24T08:09:17Z</time>
      </trkpt>
      <trkpt lat="48.63567" lon="2.05167">
        <ele>165</ele>
        <time>2026-05-24T08:09:18Z</time>
      </trkpt>
      <trkpt lat="48.63568" lon="2.05172">
        <ele>165</ele>
        <time>2026-05-24T08:09:19Z</time>
      </trkpt>
      <trkpt lat="48.63569" lon="2.05177">
        <ele>164.8</ele>
        <time>2026-05-24T08:09:20Z</time>
      </trkpt>
      <trkpt lat="48.63571" lon="2.0518">
        <ele>164.6</ele>
        <time>2026-05-24T08:09:21Z</time>
      </trkpt>
      <trkpt lat="48.63573" lon="2.05185">
        <ele>164.6</ele>
        <time>2026-05-24T08:09:22Z</time>
      </trkpt>
      <trkpt lat="48.63574" lon="2.0519">
        <ele>164.6</ele>
        <time>2026-05-24T08:09:23Z</time>
      </trkpt>
      <trkpt lat="48.63575" lon="2.05196">
        <ele>164.8</ele>
        <time>2026-05-24T08:09:24Z</time>
      </trkpt>
      <trkpt lat="48.63577" lon="2.05202">
        <ele>165</ele>
        <time>2026-05-24T08:09:25Z</time>
      </trkpt>
      <trkpt lat="48.63578" lon="2.05208">
        <ele>165</ele>
        <time>2026-05-24T08:09:26Z</time>
      </trkpt>
      <trkpt lat="48.63579" lon="2.05213">
        <ele>165</ele>
        <time>2026-05-24T08:09:27Z</time>
      </trkpt>
      <trkpt lat="48.63581" lon="2.05219">
        <ele>165</ele>
        <time>2026-05-24T08:09:28Z</time>
      </trkpt>
      <trkpt lat="48.63581" lon="2.05224">
        <ele>164.6</ele>
        <time>2026-05-24T08:09:29Z</time>
      </trkpt>
      <trkpt lat="48.63583" lon="2.05229">
        <ele>164.6</ele>
        <time>2026-05-24T08:09:30Z</time>
      </trkpt>
      <trkpt lat="48.63584" lon="2.05234">
        <ele>164.6</ele>
        <time>2026-05-24T08:09:31Z</time>
      </trkpt>
      <trkpt lat="48.63585" lon="2.05241">
        <ele>165</ele>
        <time>2026-05-24T08:09:32Z</time>
      </trkpt>
      <trkpt lat="48.63586" lon="2.05247">
        <ele>165.2</ele>
        <time>2026-05-24T08:09:33Z</time>
      </trkpt>
      <trkpt lat="48.63588" lon="2.05254">
        <ele>165.2</ele>
        <time>2026-05-24T08:09:34Z</time>
      </trkpt>
      <trkpt lat="48.63589" lon="2.05259">
        <ele>165.2</ele>
        <time>2026-05-24T08:09:35Z</time>
      </trkpt>
      <trkpt lat="48.6359" lon="2.05264">
        <ele>165.2</ele>
        <time>2026-05-24T08:09:36Z</time>
      </trkpt>
      <trkpt lat="48.63591" lon="2.0527">
        <ele>165.4</ele>
        <time>2026-05-24T08:09:37Z</time>
      </trkpt>
      <trkpt lat="48.63592" lon="2.05276">
        <ele>165.4</ele>
        <time>2026-05-24T08:09:38Z</time>
      </trkpt>
      <trkpt lat="48.63592" lon="2.05281">
        <ele>165.4</ele>
        <time>2026-05-24T08:09:39Z</time>
      </trkpt>
      <trkpt lat="48.63593" lon="2.05287">
        <ele>165.4</ele>
        <time>2026-05-24T08:09:40Z</time>
      </trkpt>
      <trkpt lat="48.63594" lon="2.05293">
        <ele>165.4</ele>
        <time>2026-05-24T08:09:41Z</time>
      </trkpt>
      <trkpt lat="48.63596" lon="2.05299">
        <ele>165.4</ele>
        <time>2026-05-24T08:09:42Z</time>
      </trkpt>
      <trkpt lat="48.63597" lon="2.05304">
        <ele>165.4</ele>
        <time>2026-05-24T08:09:43Z</time>
      </trkpt>
      <trkpt lat="48.63599" lon="2.0531">
        <ele>165.8</ele>
        <time>2026-05-24T08:09:44Z</time>
      </trkpt>
      <trkpt lat="48.63601" lon="2.05316">
        <ele>165.8</ele>
        <time>2026-05-24T08:09:45Z</time>
      </trkpt>
      <trkpt lat="48.63602" lon="2.05322">
        <ele>165.8</ele>
        <time>2026-05-24T08:09:46Z</time>
      </trkpt>
      <trkpt lat="48.63602" lon="2.05327">
        <ele>165.8</ele>
        <time>2026-05-24T08:09:47Z</time>
      </trkpt>
      <trkpt lat="48.63604" lon="2.05332">
        <ele>166.2</ele>
        <time>2026-05-24T08:09:48Z</time>
      </trkpt>
      <trkpt lat="48.63605" lon="2.05338">
        <ele>166.2</ele>
        <time>2026-05-24T08:09:49Z</time>
      </trkpt>
      <trkpt lat="48.63607" lon="2.05343">
        <ele>166.2</ele>
        <time>2026-05-24T08:09:50Z</time>
      </trkpt>
      <trkpt lat="48.63608" lon="2.05349">
        <ele>166.2</ele>
        <time>2026-05-24T08:09:51Z</time>
      </trkpt>
      <trkpt lat="48.6361" lon="2.05354">
        <ele>166.2</ele>
        <time>2026-05-24T08:09:52Z</time>
      </trkpt>
      <trkpt lat="48.63611" lon="2.0536">
        <ele>166.2</ele>
        <time>2026-05-24T08:09:53Z</time>
      </trkpt>
      <trkpt lat="48.63613" lon="2.05365">
        <ele>166.2</ele>
        <time>2026-05-24T08:09:54Z</time>
      </trkpt>
      <trkpt lat="48.63614" lon="2.05371">
        <ele>166.2</ele>
        <time>2026-05-24T08:09:55Z</time>
      </trkpt>
      <trkpt lat="48.63614" lon="2.05376">
        <ele>166.2</ele>
        <time>2026-05-24T08:09:56Z</time>
      </trkpt>
      <trkpt lat="48.63615" lon="2.05381">
        <ele>165.8</ele>
        <time>2026-05-24T08:09:57Z</time>
      </trkpt>
      <trkpt lat="48.63616" lon="2.05387">
        <ele>165.8</ele>
        <time>2026-05-24T08:09:58Z</time>
      </trkpt>
      <trkpt lat="48.63618" lon="2.05392">
        <ele>165.8</ele>
        <time>2026-05-24T08:09:59Z</time>
      </trkpt>
      <trkpt lat="48.63619" lon="2.05397">
        <ele>165.8</ele>
        <time>2026-05-24T08:10:00Z</time>
      </trkpt>
      <trkpt lat="48.6362" lon="2.05402">
        <ele>166.2</ele>
        <time>2026-05-24T08:10:01Z</time>
      </trkpt>
      <trkpt lat="48.63621" lon="2.05406">
        <ele>166.2</ele>
        <time>2026-05-24T08:10:02Z</time>
      </trkpt>
      <trkpt lat="48.63622" lon="2.05411">
        <ele>166.2</ele>
        <time>2026-05-24T08:10:03Z</time>
      </trkpt>
      <trkpt lat="48.63623" lon="2.05417">
        <ele>166.2</ele>
        <time>2026-05-24T08:10:04Z</time>
      </trkpt>
      <trkpt lat="48.63624" lon="2.05422">
        <ele>166.6</ele>
        <time>2026-05-24T08:10:05Z</time>
      </trkpt>
      <trkpt lat="48.63625" lon="2.05427">
        <ele>166.6</ele>
        <time>2026-05-24T08:10:06Z</time>
      </trkpt>
      <trkpt lat="48.63627" lon="2.05431">
        <ele>166.6</ele>
        <time>2026-05-24T08:10:07Z</time>
      </trkpt>
      <trkpt lat="48.63628" lon="2.05435">
        <ele>166.6</ele>
        <time>2026-05-24T08:10:08Z</time>
      </trkpt>
      <trkpt lat="48.63629" lon="2.05439">
        <ele>166.4</ele>
        <time>2026-05-24T08:10:09Z</time>
      </trkpt>
      <trkpt lat="48.63631" lon="2.05444">
        <ele>166.4</ele>
        <time>2026-05-24T08:10:10Z</time>
      </trkpt>
      <trkpt lat="48.63632" lon="2.05447">
        <ele>166.4</ele>
        <time>2026-05-24T08:10:11Z</time>
      </trkpt>
      <trkpt lat="48.63634" lon="2.05452">
        <ele>166.4</ele>
        <time>2026-05-24T08:10:12Z</time>
      </trkpt>
      <trkpt lat="48.63636" lon="2.05457">
        <ele>167.2</ele>
        <time>2026-05-24T08:10:13Z</time>
      </trkpt>
      <trkpt lat="48.63638" lon="2.05461">
        <ele>167.2</ele>
        <time>2026-05-24T08:10:14Z</time>
      </trkpt>
      <trkpt lat="48.6364" lon="2.05466">
        <ele>167.2</ele>
        <time>2026-05-24T08:10:15Z</time>
      </trkpt>
      <trkpt lat="48.63642" lon="2.05471">
        <ele>167.2</ele>
        <time>2026-05-24T08:10:16Z</time>
      </trkpt>
      <trkpt lat="48.63643" lon="2.05476">
        <ele>167.2</ele>
        <time>2026-05-24T08:10:17Z</time>
      </trkpt>
      <trkpt lat="48.63644" lon="2.05481">
        <ele>167.2</ele>
        <time>2026-05-24T08:10:18Z</time>
      </trkpt>
      <trkpt lat="48.63646" lon="2.05486">
        <ele>167.2</ele>
        <time>2026-05-24T08:10:19Z</time>
      </trkpt>
      <trkpt lat="48.63647" lon="2.05492">
        <ele>167.4</ele>
        <time>2026-05-24T08:10:20Z</time>
      </trkpt>
      <trkpt lat="48.63649" lon="2.05497">
        <ele>167.2</ele>
        <time>2026-05-24T08:10:21Z</time>
      </trkpt>
      <trkpt lat="48.6365" lon="2.05503">
        <ele>167.2</ele>
        <time>2026-05-24T08:10:22Z</time>
      </trkpt>
      <trkpt lat="48.63652" lon="2.05508">
        <ele>167.2</ele>
        <time>2026-05-24T08:10:23Z</time>
      </trkpt>
      <trkpt lat="48.63654" lon="2.05513">
        <ele>167.2</ele>
        <time>2026-05-24T08:10:24Z</time>
      </trkpt>
      <trkpt lat="48.63656" lon="2.05519">
        <ele>167.4</ele>
        <time>2026-05-24T08:10:25Z</time>
      </trkpt>
      <trkpt lat="48.63658" lon="2.05524">
        <ele>167.4</ele>
        <time>2026-05-24T08:10:26Z</time>
      </trkpt>
      <trkpt lat="48.6366" lon="2.05529">
        <ele>167.4</ele>
        <time>2026-05-24T08:10:27Z</time>
      </trkpt>
      <trkpt lat="48.63661" lon="2.05535">
        <ele>167.4</ele>
        <time>2026-05-24T08:10:28Z</time>
      </trkpt>
      <trkpt lat="48.63663" lon="2.0554">
        <ele>168</ele>
        <time>2026-05-24T08:10:29Z</time>
      </trkpt>
      <trkpt lat="48.63665" lon="2.05545">
        <ele>168</ele>
        <time>2026-05-24T08:10:30Z</time>
      </trkpt>
      <trkpt lat="48.63667" lon="2.0555">
        <ele>168</ele>
        <time>2026-05-24T08:10:31Z</time>
      </trkpt>
      <trkpt lat="48.63669" lon="2.05555">
        <ele>168</ele>
        <time>2026-05-24T08:10:32Z</time>
      </trkpt>
      <trkpt lat="48.63671" lon="2.05561">
        <ele>168</ele>
        <time>2026-05-24T08:10:33Z</time>
      </trkpt>
      <trkpt lat="48.63673" lon="2.05566">
        <ele>168</ele>
        <time>2026-05-24T08:10:34Z</time>
      </trkpt>
      <trkpt lat="48.63675" lon="2.05571">
        <ele>168</ele>
        <time>2026-05-24T08:10:35Z</time>
      </trkpt>
      <trkpt lat="48.63677" lon="2.05576">
        <ele>168</ele>
        <time>2026-05-24T08:10:36Z</time>
      </trkpt>
      <trkpt lat="48.63679" lon="2.05581">
        <ele>168</ele>
        <time>2026-05-24T08:10:37Z</time>
      </trkpt>
      <trkpt lat="48.63681" lon="2.05585">
        <ele>168</ele>
        <time>2026-05-24T08:10:38Z</time>
      </trkpt>
      <trkpt lat="48.63683" lon="2.0559">
        <ele>168</ele>
        <time>2026-05-24T08:10:39Z</time>
      </trkpt>
      <trkpt lat="48.63685" lon="2.05595">
        <ele>168</ele>
        <time>2026-05-24T08:10:40Z</time>
      </trkpt>
      <trkpt lat="48.63687" lon="2.056">
        <ele>168.2</ele>
        <time>2026-05-24T08:10:41Z</time>
      </trkpt>
      <trkpt lat="48.63689" lon="2.05605">
        <ele>168.2</ele>
        <time>2026-05-24T08:10:42Z</time>
      </trkpt>
      <trkpt lat="48.63691" lon="2.05609">
        <ele>168.2</ele>
        <time>2026-05-24T08:10:43Z</time>
      </trkpt>
      <trkpt lat="48.63693" lon="2.05614">
        <ele>168.2</ele>
        <time>2026-05-24T08:10:44Z</time>
      </trkpt>
      <trkpt lat="48.63695" lon="2.05619">
        <ele>168.6</ele>
        <time>2026-05-24T08:10:45Z</time>
      </trkpt>
      <trkpt lat="48.63697" lon="2.05624">
        <ele>168.6</ele>
        <time>2026-05-24T08:10:46Z</time>
      </trkpt>
      <trkpt lat="48.637" lon="2.05629">
        <ele>168.6</ele>
        <time>2026-05-24T08:10:47Z</time>
      </trkpt>
      <trkpt lat="48.63701" lon="2.05634">
        <ele>168.2</ele>
        <time>2026-05-24T08:10:48Z</time>
      </trkpt>
      <trkpt lat="48.63704" lon="2.05639">
        <ele>168</ele>
        <time>2026-05-24T08:10:49Z</time>
      </trkpt>
      <trkpt lat="48.63706" lon="2.05643">
        <ele>168</ele>
        <time>2026-05-24T08:10:50Z</time>
      </trkpt>
      <trkpt lat="48.63708" lon="2.05649">
        <ele>168</ele>
        <time>2026-05-24T08:10:51Z</time>
      </trkpt>
      <trkpt lat="48.63711" lon="2.05653">
        <ele>168.6</ele>
        <time>2026-05-24T08:10:52Z</time>
      </trkpt>
      <trkpt lat="48.63713" lon="2.05658">
        <ele>168.6</ele>
        <time>2026-05-24T08:10:53Z</time>
      </trkpt>
      <trkpt lat="48.63715" lon="2.05663">
        <ele>168.6</ele>
        <time>2026-05-24T08:10:54Z</time>
      </trkpt>
      <trkpt lat="48.63718" lon="2.05667">
        <ele>168.6</ele>
        <time>2026-05-24T08:10:55Z</time>
      </trkpt>
      <trkpt lat="48.6372" lon="2.05672">
        <ele>168.6</ele>
        <time>2026-05-24T08:10:56Z</time>
      </trkpt>
      <trkpt lat="48.63722" lon="2.05677">
        <ele>169.2</ele>
        <time>2026-05-24T08:10:57Z</time>
      </trkpt>
      <trkpt lat="48.63724" lon="2.05681">
        <ele>169.2</ele>
        <time>2026-05-24T08:10:58Z</time>
      </trkpt>
      <trkpt lat="48.63726" lon="2.05686">
        <ele>169.2</ele>
        <time>2026-05-24T08:10:59Z</time>
      </trkpt>
      <trkpt lat="48.63728" lon="2.0569">
        <ele>168.8</ele>
        <time>2026-05-24T08:11:00Z</time>
      </trkpt>
      <trkpt lat="48.6373" lon="2.05695">
        <ele>168.2</ele>
        <time>2026-05-24T08:11:01Z</time>
      </trkpt>
      <trkpt lat="48.63733" lon="2.057">
        <ele>168.2</ele>
        <time>2026-05-24T08:11:02Z</time>
      </trkpt>
      <trkpt lat="48.63735" lon="2.05704">
        <ele>168.2</ele>
        <time>2026-05-24T08:11:03Z</time>
      </trkpt>
      <trkpt lat="48.63737" lon="2.05708">
        <ele>168.6</ele>
        <time>2026-05-24T08:11:04Z</time>
      </trkpt>
      <trkpt lat="48.63739" lon="2.05713">
        <ele>169</ele>
        <time>2026-05-24T08:11:05Z</time>
      </trkpt>
      <trkpt lat="48.63741" lon="2.05717">
        <ele>169</ele>
        <time>2026-05-24T08:11:06Z</time>
      </trkpt>
      <trkpt lat="48.63744" lon="2.05722">
        <ele>169</ele>
        <time>2026-05-24T08:11:07Z</time>
      </trkpt>
      <trkpt lat="48.63746" lon="2.05726">
        <ele>169</ele>
        <time>2026-05-24T08:11:08Z</time>
      </trkpt>
      <trkpt lat="48.63749" lon="2.0573">
        <ele>168.8</ele>
        <time>2026-05-24T08:11:09Z</time>
      </trkpt>
      <trkpt lat="48.63751" lon="2.05734">
        <ele>168.8</ele>
        <time>2026-05-24T08:11:10Z</time>
      </trkpt>
      <trkpt lat="48.63753" lon="2.05738">
        <ele>168.8</ele>
        <time>2026-05-24T08:11:11Z</time>
      </trkpt>
      <trkpt lat="48.63755" lon="2.05742">
        <ele>168.8</ele>
        <time>2026-05-24T08:11:12Z</time>
      </trkpt>
      <trkpt lat="48.63757" lon="2.05747">
        <ele>169.2</ele>
        <time>2026-05-24T08:11:13Z</time>
      </trkpt>
      <trkpt lat="48.6376" lon="2.05751">
        <ele>169.2</ele>
        <time>2026-05-24T08:11:14Z</time>
      </trkpt>
      <trkpt lat="48.63762" lon="2.05755">
        <ele>169.2</ele>
        <time>2026-05-24T08:11:15Z</time>
      </trkpt>
      <trkpt lat="48.63765" lon="2.05759">
        <ele>169.2</ele>
        <time>2026-05-24T08:11:16Z</time>
      </trkpt>
      <trkpt lat="48.63767" lon="2.05763">
        <ele>169.6</ele>
        <time>2026-05-24T08:11:17Z</time>
      </trkpt>
      <trkpt lat="48.6377" lon="2.05768">
        <ele>169.6</ele>
        <time>2026-05-24T08:11:18Z</time>
      </trkpt>
      <trkpt lat="48.63772" lon="2.05772">
        <ele>169.6</ele>
        <time>2026-05-24T08:11:19Z</time>
      </trkpt>
      <trkpt lat="48.63775" lon="2.05776">
        <ele>169.6</ele>
        <time>2026-05-24T08:11:20Z</time>
      </trkpt>
      <trkpt lat="48.63776" lon="2.05781">
        <ele>169.8</ele>
        <time>2026-05-24T08:11:21Z</time>
      </trkpt>
      <trkpt lat="48.63779" lon="2.05785">
        <ele>169.8</ele>
        <time>2026-05-24T08:11:22Z</time>
      </trkpt>
      <trkpt lat="48.63781" lon="2.0579">
        <ele>169.8</ele>
        <time>2026-05-24T08:11:23Z</time>
      </trkpt>
      <trkpt lat="48.63783" lon="2.05793">
        <ele>169.8</ele>
        <time>2026-05-24T08:11:24Z</time>
      </trkpt>
      <trkpt lat="48.63786" lon="2.05797">
        <ele>169.8</ele>
        <time>2026-05-24T08:11:25Z</time>
      </trkpt>
      <trkpt lat="48.63788" lon="2.05801">
        <ele>169.8</ele>
        <time>2026-05-24T08:11:26Z</time>
      </trkpt>
      <trkpt lat="48.63791" lon="2.05804">
        <ele>169.8</ele>
        <time>2026-05-24T08:11:27Z</time>
      </trkpt>
      <trkpt lat="48.63794" lon="2.05807">
        <ele>169.8</ele>
        <time>2026-05-24T08:11:28Z</time>
      </trkpt>
      <trkpt lat="48.63796" lon="2.05811">
        <ele>169.8</ele>
        <time>2026-05-24T08:11:29Z</time>
      </trkpt>
      <trkpt lat="48.63799" lon="2.05815">
        <ele>169.8</ele>
        <time>2026-05-24T08:11:30Z</time>
      </trkpt>
      <trkpt lat="48.63802" lon="2.05819">
        <ele>169.8</ele>
        <time>2026-05-24T08:11:31Z</time>
      </trkpt>
      <trkpt lat="48.63805" lon="2.05823">
        <ele>169.8</ele>
        <time>2026-05-24T08:11:32Z</time>
      </trkpt>
      <trkpt lat="48.63808" lon="2.05827">
        <ele>170</ele>
        <time>2026-05-24T08:11:33Z</time>
      </trkpt>
      <trkpt lat="48.63811" lon="2.05831">
        <ele>170</ele>
        <time>2026-05-24T08:11:34Z</time>
      </trkpt>
      <trkpt lat="48.63814" lon="2.05835">
        <ele>170</ele>
        <time>2026-05-24T08:11:35Z</time>
      </trkpt>
      <trkpt lat="48.63817" lon="2.05839">
        <ele>170</ele>
        <time>2026-05-24T08:11:36Z</time>
      </trkpt>
      <trkpt lat="48.6382" lon="2.05843">
        <ele>169.6</ele>
        <time>2026-05-24T08:11:37Z</time>
      </trkpt>
      <trkpt lat="48.63822" lon="2.05846">
        <ele>169.6</ele>
        <time>2026-05-24T08:11:38Z</time>
      </trkpt>
      <trkpt lat="48.63825" lon="2.05849">
        <ele>169.6</ele>
        <time>2026-05-24T08:11:39Z</time>
      </trkpt>
      <trkpt lat="48.63828" lon="2.05854">
        <ele>170.4</ele>
        <time>2026-05-24T08:11:40Z</time>
      </trkpt>
      <trkpt lat="48.63831" lon="2.05858">
        <ele>169.6</ele>
        <time>2026-05-24T08:11:41Z</time>
      </trkpt>
      <trkpt lat="48.63834" lon="2.0586">
        <ele>169.6</ele>
        <time>2026-05-24T08:11:42Z</time>
      </trkpt>
      <trkpt lat="48.63837" lon="2.05864">
        <ele>169.6</ele>
        <time>2026-05-24T08:11:43Z</time>
      </trkpt>
      <trkpt lat="48.6384" lon="2.05868">
        <ele>170</ele>
        <time>2026-05-24T08:11:44Z</time>
      </trkpt>
      <trkpt lat="48.63843" lon="2.05872">
        <ele>170.2</ele>
        <time>2026-05-24T08:11:45Z</time>
      </trkpt>
      <trkpt lat="48.63846" lon="2.05876">
        <ele>170.2</ele>
        <time>2026-05-24T08:11:46Z</time>
      </trkpt>
      <trkpt lat="48.6385" lon="2.05879">
        <ele>170.2</ele>
        <time>2026-05-24T08:11:47Z</time>
      </trkpt>
      <trkpt lat="48.63853" lon="2.05883">
        <ele>170.6</ele>
        <time>2026-05-24T08:11:48Z</time>
      </trkpt>
      <trkpt lat="48.63857" lon="2.05887">
        <ele>171</ele>
        <time>2026-05-24T08:11:49Z</time>
      </trkpt>
      <trkpt lat="48.6386" lon="2.0589">
        <ele>171</ele>
        <time>2026-05-24T08:11:50Z</time>
      </trkpt>
      <trkpt lat="48.63863" lon="2.05894">
        <ele>171</ele>
        <time>2026-05-24T08:11:51Z</time>
      </trkpt>
      <trkpt lat="48.63866" lon="2.05898">
        <ele>171</ele>
        <time>2026-05-24T08:11:52Z</time>
      </trkpt>
      <trkpt lat="48.63869" lon="2.05902">
        <ele>170.8</ele>
        <time>2026-05-24T08:11:53Z</time>
      </trkpt>
      <trkpt lat="48.63873" lon="2.05905">
        <ele>170.8</ele>
        <time>2026-05-24T08:11:54Z</time>
      </trkpt>
      <trkpt lat="48.63876" lon="2.05909">
        <ele>170.8</ele>
        <time>2026-05-24T08:11:55Z</time>
      </trkpt>
      <trkpt lat="48.63879" lon="2.05912">
        <ele>171</ele>
        <time>2026-05-24T08:11:56Z</time>
      </trkpt>
      <trkpt lat="48.63882" lon="2.05915">
        <ele>171.6</ele>
        <time>2026-05-24T08:11:57Z</time>
      </trkpt>
      <trkpt lat="48.63885" lon="2.05919">
        <ele>171.6</ele>
        <time>2026-05-24T08:11:58Z</time>
      </trkpt>
      <trkpt lat="48.63889" lon="2.05922">
        <ele>171.6</ele>
        <time>2026-05-24T08:11:59Z</time>
      </trkpt>
      <trkpt lat="48.63892" lon="2.05925">
        <ele>171</ele>
        <time>2026-05-24T08:12:00Z</time>
      </trkpt>
      <trkpt lat="48.63895" lon="2.05929">
        <ele>171.2</ele>
        <time>2026-05-24T08:12:01Z</time>
      </trkpt>
      <trkpt lat="48.63897" lon="2.05932">
        <ele>171.2</ele>
        <time>2026-05-24T08:12:02Z</time>
      </trkpt>
      <trkpt lat="48.63901" lon="2.05935">
        <ele>171.2</ele>
        <time>2026-05-24T08:12:03Z</time>
      </trkpt>
      <trkpt lat="48.63905" lon="2.05937">
        <ele>171.2</ele>
        <time>2026-05-24T08:12:04Z</time>
      </trkpt>
      <trkpt lat="48.63908" lon="2.0594">
        <ele>171.8</ele>
        <time>2026-05-24T08:12:05Z</time>
      </trkpt>
      <trkpt lat="48.63912" lon="2.05943">
        <ele>171.8</ele>
        <time>2026-05-24T08:12:06Z</time>
      </trkpt>
      <trkpt lat="48.63915" lon="2.05947">
        <ele>171.8</ele>
        <time>2026-05-24T08:12:07Z</time>
      </trkpt>
      <trkpt lat="48.63918" lon="2.0595">
        <ele>171.8</ele>
        <time>2026-05-24T08:12:08Z</time>
      </trkpt>
      <trkpt lat="48.63922" lon="2.05953">
        <ele>171.6</ele>
        <time>2026-05-24T08:12:09Z</time>
      </trkpt>
      <trkpt lat="48.63925" lon="2.05956">
        <ele>171.6</ele>
        <time>2026-05-24T08:12:10Z</time>
      </trkpt>
      <trkpt lat="48.63928" lon="2.05959">
        <ele>171.6</ele>
        <time>2026-05-24T08:12:11Z</time>
      </trkpt>
      <trkpt lat="48.63932" lon="2.05962">
        <ele>171.6</ele>
        <time>2026-05-24T08:12:12Z</time>
      </trkpt>
      <trkpt lat="48.63936" lon="2.05964">
        <ele>171.8</ele>
        <time>2026-05-24T08:12:13Z</time>
      </trkpt>
      <trkpt lat="48.63939" lon="2.05967">
        <ele>171.8</ele>
        <time>2026-05-24T08:12:14Z</time>
      </trkpt>
      <trkpt lat="48.63943" lon="2.0597">
        <ele>171.8</ele>
        <time>2026-05-24T08:12:15Z</time>
      </trkpt>
      <trkpt lat="48.63946" lon="2.05972">
        <ele>171.8</ele>
        <time>2026-05-24T08:12:16Z</time>
      </trkpt>
      <trkpt lat="48.6395" lon="2.05976">
        <ele>172</ele>
        <time>2026-05-24T08:12:17Z</time>
      </trkpt>
      <trkpt lat="48.63953" lon="2.05979">
        <ele>172</ele>
        <time>2026-05-24T08:12:18Z</time>
      </trkpt>
      <trkpt lat="48.63956" lon="2.05982">
        <ele>172</ele>
        <time>2026-05-24T08:12:19Z</time>
      </trkpt>
      <trkpt lat="48.6396" lon="2.05986">
        <ele>171.8</ele>
        <time>2026-05-24T08:12:20Z</time>
      </trkpt>
      <trkpt lat="48.63963" lon="2.05988">
        <ele>171.6</ele>
        <time>2026-05-24T08:12:21Z</time>
      </trkpt>
      <trkpt lat="48.63967" lon="2.05991">
        <ele>171.6</ele>
        <time>2026-05-24T08:12:22Z</time>
      </trkpt>
      <trkpt lat="48.6397" lon="2.05994">
        <ele>171.6</ele>
        <time>2026-05-24T08:12:23Z</time>
      </trkpt>
      <trkpt lat="48.63974" lon="2.05998">
        <ele>172.2</ele>
        <time>2026-05-24T08:12:24Z</time>
      </trkpt>
      <trkpt lat="48.63978" lon="2.06001">
        <ele>172.4</ele>
        <time>2026-05-24T08:12:25Z</time>
      </trkpt>
      <trkpt lat="48.63981" lon="2.06004">
        <ele>172.4</ele>
        <time>2026-05-24T08:12:26Z</time>
      </trkpt>
      <trkpt lat="48.63985" lon="2.06008">
        <ele>172.4</ele>
        <time>2026-05-24T08:12:27Z</time>
      </trkpt>
      <trkpt lat="48.63988" lon="2.06011">
        <ele>172.6</ele>
        <time>2026-05-24T08:12:28Z</time>
      </trkpt>
      <trkpt lat="48.63991" lon="2.06014">
        <ele>172.2</ele>
        <time>2026-05-24T08:12:29Z</time>
      </trkpt>
      <trkpt lat="48.63995" lon="2.06017">
        <ele>172.2</ele>
        <time>2026-05-24T08:12:30Z</time>
      </trkpt>
      <trkpt lat="48.63998" lon="2.0602">
        <ele>172.2</ele>
        <time>2026-05-24T08:12:31Z</time>
      </trkpt>
      <trkpt lat="48.64002" lon="2.06023">
        <ele>173.2</ele>
        <time>2026-05-24T08:12:32Z</time>
      </trkpt>
      <trkpt lat="48.64005" lon="2.06026">
        <ele>173.2</ele>
        <time>2026-05-24T08:12:33Z</time>
      </trkpt>
      <trkpt lat="48.64009" lon="2.06029">
        <ele>173.2</ele>
        <time>2026-05-24T08:12:34Z</time>
      </trkpt>
      <trkpt lat="48.64013" lon="2.06032">
        <ele>173.2</ele>
        <time>2026-05-24T08:12:35Z</time>
      </trkpt>
      <trkpt lat="48.64016" lon="2.06035">
        <ele>173.4</ele>
        <time>2026-05-24T08:12:36Z</time>
      </trkpt>
      <trkpt lat="48.64019" lon="2.06038">
        <ele>173.4</ele>
        <time>2026-05-24T08:12:37Z</time>
      </trkpt>
      <trkpt lat="48.64023" lon="2.06042">
        <ele>173.4</ele>
        <time>2026-05-24T08:12:38Z</time>
      </trkpt>
      <trkpt lat="48.64026" lon="2.06045">
        <ele>173.4</ele>
        <time>2026-05-24T08:12:39Z</time>
      </trkpt>
      <trkpt lat="48.6403" lon="2.06048">
        <ele>173.4</ele>
        <time>2026-05-24T08:12:40Z</time>
      </trkpt>
      <trkpt lat="48.64033" lon="2.06051">
        <ele>173.8</ele>
        <time>2026-05-24T08:12:41Z</time>
      </trkpt>
      <trkpt lat="48.64037" lon="2.06055">
        <ele>173.8</ele>
        <time>2026-05-24T08:12:42Z</time>
      </trkpt>
      <trkpt lat="48.6404" lon="2.06058">
        <ele>173.8</ele>
        <time>2026-05-24T08:12:43Z</time>
      </trkpt>
      <trkpt lat="48.64043" lon="2.06061">
        <ele>174.4</ele>
        <time>2026-05-24T08:12:44Z</time>
      </trkpt>
      <trkpt lat="48.64047" lon="2.06065">
        <ele>174.4</ele>
        <time>2026-05-24T08:12:45Z</time>
      </trkpt>
      <trkpt lat="48.6405" lon="2.06069">
        <ele>174.4</ele>
        <time>2026-05-24T08:12:46Z</time>
      </trkpt>
      <trkpt lat="48.64053" lon="2.06072">
        <ele>174.4</ele>
        <time>2026-05-24T08:12:47Z</time>
      </trkpt>
      <trkpt lat="48.64057" lon="2.06075">
        <ele>174.2</ele>
        <time>2026-05-24T08:12:48Z</time>
      </trkpt>
      <trkpt lat="48.6406" lon="2.06078">
        <ele>174.4</ele>
        <time>2026-05-24T08:12:49Z</time>
      </trkpt>
      <trkpt lat="48.64064" lon="2.06081">
        <ele>174.4</ele>
        <time>2026-05-24T08:12:50Z</time>
      </trkpt>
      <trkpt lat="48.64067" lon="2.06084">
        <ele>174.4</ele>
        <time>2026-05-24T08:12:51Z</time>
      </trkpt>
      <trkpt lat="48.64071" lon="2.06088">
        <ele>174.4</ele>
        <time>2026-05-24T08:12:52Z</time>
      </trkpt>
      <trkpt lat="48.64075" lon="2.06091">
        <ele>174</ele>
        <time>2026-05-24T08:12:53Z</time>
      </trkpt>
      <trkpt lat="48.64079" lon="2.06095">
        <ele>174</ele>
        <time>2026-05-24T08:12:54Z</time>
      </trkpt>
      <trkpt lat="48.64083" lon="2.06098">
        <ele>174</ele>
        <time>2026-05-24T08:12:55Z</time>
      </trkpt>
      <trkpt lat="48.64086" lon="2.06101">
        <ele>174</ele>
        <time>2026-05-24T08:12:56Z</time>
      </trkpt>
      <trkpt lat="48.6409" lon="2.06105">
        <ele>174.2</ele>
        <time>2026-05-24T08:12:57Z</time>
      </trkpt>
      <trkpt lat="48.64094" lon="2.06108">
        <ele>174.2</ele>
        <time>2026-05-24T08:12:58Z</time>
      </trkpt>
      <trkpt lat="48.64098" lon="2.06112">
        <ele>174.2</ele>
        <time>2026-05-24T08:12:59Z</time>
      </trkpt>
      <trkpt lat="48.64102" lon="2.06115">
        <ele>174.4</ele>
        <time>2026-05-24T08:13:00Z</time>
      </trkpt>
      <trkpt lat="48.64106" lon="2.06118">
        <ele>174</ele>
        <time>2026-05-24T08:13:01Z</time>
      </trkpt>
      <trkpt lat="48.6411" lon="2.06121">
        <ele>174</ele>
        <time>2026-05-24T08:13:02Z</time>
      </trkpt>
      <trkpt lat="48.64114" lon="2.06124">
        <ele>174</ele>
        <time>2026-05-24T08:13:03Z</time>
      </trkpt>
      <trkpt lat="48.64118" lon="2.06127">
        <ele>174.4</ele>
        <time>2026-05-24T08:13:04Z</time>
      </trkpt>
      <trkpt lat="48.64122" lon="2.06131">
        <ele>174.2</ele>
        <time>2026-05-24T08:13:05Z</time>
      </trkpt>
      <trkpt lat="48.64126" lon="2.06134">
        <ele>174.2</ele>
        <time>2026-05-24T08:13:06Z</time>
      </trkpt>
      <trkpt lat="48.6413" lon="2.06137">
        <ele>174.2</ele>
        <time>2026-05-24T08:13:07Z</time>
      </trkpt>
      <trkpt lat="48.64134" lon="2.0614">
        <ele>174</ele>
        <time>2026-05-24T08:13:08Z</time>
      </trkpt>
      <trkpt lat="48.64138" lon="2.06143">
        <ele>174</ele>
        <time>2026-05-24T08:13:09Z</time>
      </trkpt>
      <trkpt lat="48.64141" lon="2.06146">
        <ele>174</ele>
        <time>2026-05-24T08:13:10Z</time>
      </trkpt>
      <trkpt lat="48.64145" lon="2.06149">
        <ele>174</ele>
        <time>2026-05-24T08:13:11Z</time>
      </trkpt>
      <trkpt lat="48.64149" lon="2.06153">
        <ele>174</ele>
        <time>2026-05-24T08:13:12Z</time>
      </trkpt>
      <trkpt lat="48.64153" lon="2.06156">
        <ele>174.6</ele>
        <time>2026-05-24T08:13:13Z</time>
      </trkpt>
      <trkpt lat="48.64156" lon="2.06158">
        <ele>174.6</ele>
        <time>2026-05-24T08:13:14Z</time>
      </trkpt>
      <trkpt lat="48.6416" lon="2.06161">
        <ele>174.6</ele>
        <time>2026-05-24T08:13:15Z</time>
      </trkpt>
      <trkpt lat="48.64164" lon="2.06164">
        <ele>173.8</ele>
        <time>2026-05-24T08:13:16Z</time>
      </trkpt>
      <trkpt lat="48.64168" lon="2.06168">
        <ele>173.6</ele>
        <time>2026-05-24T08:13:17Z</time>
      </trkpt>
      <trkpt lat="48.64172" lon="2.06171">
        <ele>173.6</ele>
        <time>2026-05-24T08:13:18Z</time>
      </trkpt>
      <trkpt lat="48.64176" lon="2.06175">
        <ele>173.6</ele>
        <time>2026-05-24T08:13:19Z</time>
      </trkpt>
      <trkpt lat="48.6418" lon="2.06178">
        <ele>174</ele>
        <time>2026-05-24T08:13:20Z</time>
      </trkpt>
      <trkpt lat="48.64184" lon="2.06182">
        <ele>174</ele>
        <time>2026-05-24T08:13:21Z</time>
      </trkpt>
      <trkpt lat="48.64188" lon="2.06185">
        <ele>174</ele>
        <time>2026-05-24T08:13:22Z</time>
      </trkpt>
      <trkpt lat="48.64193" lon="2.06188">
        <ele>174</ele>
        <time>2026-05-24T08:13:23Z</time>
      </trkpt>
      <trkpt lat="48.64197" lon="2.06192">
        <ele>174</ele>
        <time>2026-05-24T08:13:24Z</time>
      </trkpt>
      <trkpt lat="48.64201" lon="2.06196">
        <ele>174</ele>
        <time>2026-05-24T08:13:25Z</time>
      </trkpt>
      <trkpt lat="48.64205" lon="2.06199">
        <ele>174</ele>
        <time>2026-05-24T08:13:26Z</time>
      </trkpt>
      <trkpt lat="48.64209" lon="2.06203">
        <ele>174</ele>
        <time>2026-05-24T08:13:27Z</time>
      </trkpt>
      <trkpt lat="48.64213" lon="2.06206">
        <ele>174</ele>
        <time>2026-05-24T08:13:28Z</time>
      </trkpt>
      <trkpt lat="48.64217" lon="2.0621">
        <ele>173.4</ele>
        <time>2026-05-24T08:13:29Z</time>
      </trkpt>
      <trkpt lat="48.6422" lon="2.06214">
        <ele>173.4</ele>
        <time>2026-05-24T08:13:30Z</time>
      </trkpt>
      <trkpt lat="48.64224" lon="2.06217">
        <ele>173.4</ele>
        <time>2026-05-24T08:13:31Z</time>
      </trkpt>
      <trkpt lat="48.64228" lon="2.06221">
        <ele>173.4</ele>
        <time>2026-05-24T08:13:32Z</time>
      </trkpt>
      <trkpt lat="48.64232" lon="2.06224">
        <ele>173.6</ele>
        <time>2026-05-24T08:13:33Z</time>
      </trkpt>
      <trkpt lat="48.64236" lon="2.06227">
        <ele>173.6</ele>
        <time>2026-05-24T08:13:34Z</time>
      </trkpt>
      <trkpt lat="48.6424" lon="2.06231">
        <ele>173.6</ele>
        <time>2026-05-24T08:13:35Z</time>
      </trkpt>
      <trkpt lat="48.64244" lon="2.06235">
        <ele>173</ele>
        <time>2026-05-24T08:13:36Z</time>
      </trkpt>
      <trkpt lat="48.64249" lon="2.06238">
        <ele>173</ele>
        <time>2026-05-24T08:13:37Z</time>
      </trkpt>
      <trkpt lat="48.64253" lon="2.06242">
        <ele>173</ele>
        <time>2026-05-24T08:13:38Z</time>
      </trkpt>
      <trkpt lat="48.64256" lon="2.06246">
        <ele>173</ele>
        <time>2026-05-24T08:13:39Z</time>
      </trkpt>
      <trkpt lat="48.6426" lon="2.06249">
        <ele>173</ele>
        <time>2026-05-24T08:13:40Z</time>
      </trkpt>
      <trkpt lat="48.64265" lon="2.06252">
        <ele>172.6</ele>
        <time>2026-05-24T08:13:41Z</time>
      </trkpt>
      <trkpt lat="48.64268" lon="2.06255">
        <ele>172.6</ele>
        <time>2026-05-24T08:13:42Z</time>
      </trkpt>
      <trkpt lat="48.64272" lon="2.06259">
        <ele>172.6</ele>
        <time>2026-05-24T08:13:43Z</time>
      </trkpt>
      <trkpt lat="48.64276" lon="2.06262">
        <ele>172.6</ele>
        <time>2026-05-24T08:13:44Z</time>
      </trkpt>
      <trkpt lat="48.6428" lon="2.06265">
        <ele>173.4</ele>
        <time>2026-05-24T08:13:45Z</time>
      </trkpt>
      <trkpt lat="48.64284" lon="2.06267">
        <ele>173.4</ele>
        <time>2026-05-24T08:13:46Z</time>
      </trkpt>
      <trkpt lat="48.64288" lon="2.0627">
        <ele>173.4</ele>
        <time>2026-05-24T08:13:47Z</time>
      </trkpt>
      <trkpt lat="48.64293" lon="2.06273">
        <ele>173.4</ele>
        <time>2026-05-24T08:13:48Z</time>
      </trkpt>
      <trkpt lat="48.64297" lon="2.06276">
        <ele>172.6</ele>
        <time>2026-05-24T08:13:49Z</time>
      </trkpt>
      <trkpt lat="48.643" lon="2.06279">
        <ele>172.6</ele>
        <time>2026-05-24T08:13:50Z</time>
      </trkpt>
      <trkpt lat="48.64304" lon="2.06282">
        <ele>172.6</ele>
        <time>2026-05-24T08:13:51Z</time>
      </trkpt>
      <trkpt lat="48.64308" lon="2.06285">
        <ele>171.6</ele>
        <time>2026-05-24T08:13:52Z</time>
      </trkpt>
      <trkpt lat="48.64311" lon="2.06288">
        <ele>171.6</ele>
        <time>2026-05-24T08:13:53Z</time>
      </trkpt>
      <trkpt lat="48.64315" lon="2.06291">
        <ele>171.6</ele>
        <time>2026-05-24T08:13:54Z</time>
      </trkpt>
      <trkpt lat="48.64319" lon="2.06294">
        <ele>171.6</ele>
        <time>2026-05-24T08:13:55Z</time>
      </trkpt>
      <trkpt lat="48.64322" lon="2.06297">
        <ele>171.6</ele>
        <time>2026-05-24T08:13:56Z</time>
      </trkpt>
      <trkpt lat="48.64326" lon="2.063">
        <ele>171.2</ele>
        <time>2026-05-24T08:13:57Z</time>
      </trkpt>
      <trkpt lat="48.6433" lon="2.06304">
        <ele>171.2</ele>
        <time>2026-05-24T08:13:58Z</time>
      </trkpt>
      <trkpt lat="48.64333" lon="2.06307">
        <ele>171.2</ele>
        <time>2026-05-24T08:13:59Z</time>
      </trkpt>
      <trkpt lat="48.64337" lon="2.06311">
        <ele>171.2</ele>
        <time>2026-05-24T08:14:00Z</time>
      </trkpt>
      <trkpt lat="48.6434" lon="2.06314">
        <ele>170.8</ele>
        <time>2026-05-24T08:14:01Z</time>
      </trkpt>
      <trkpt lat="48.64343" lon="2.06319">
        <ele>170.8</ele>
        <time>2026-05-24T08:14:02Z</time>
      </trkpt>
      <trkpt lat="48.64347" lon="2.06323">
        <ele>170.8</ele>
        <time>2026-05-24T08:14:03Z</time>
      </trkpt>
      <trkpt lat="48.6435" lon="2.06327">
        <ele>170.8</ele>
        <time>2026-05-24T08:14:04Z</time>
      </trkpt>
      <trkpt lat="48.64354" lon="2.06331">
        <ele>171</ele>
        <time>2026-05-24T08:14:05Z</time>
      </trkpt>
      <trkpt lat="48.64358" lon="2.06334">
        <ele>171</ele>
        <time>2026-05-24T08:14:06Z</time>
      </trkpt>
      <trkpt lat="48.64361" lon="2.06338">
        <ele>171</ele>
        <time>2026-05-24T08:14:07Z</time>
      </trkpt>
      <trkpt lat="48.64365" lon="2.06342">
        <ele>171</ele>
        <time>2026-05-24T08:14:08Z</time>
      </trkpt>
      <trkpt lat="48.64368" lon="2.06346">
        <ele>171</ele>
        <time>2026-05-24T08:14:09Z</time>
      </trkpt>
      <trkpt lat="48.64372" lon="2.06349">
        <ele>171</ele>
        <time>2026-05-24T08:14:10Z</time>
      </trkpt>
      <trkpt lat="48.64375" lon="2.06352">
        <ele>171</ele>
        <time>2026-05-24T08:14:11Z</time>
      </trkpt>
      <trkpt lat="48.64379" lon="2.06355">
        <ele>171</ele>
        <time>2026-05-24T08:14:12Z</time>
      </trkpt>
      <trkpt lat="48.64382" lon="2.06358">
        <ele>170.6</ele>
        <time>2026-05-24T08:14:13Z</time>
      </trkpt>
      <trkpt lat="48.64386" lon="2.06361">
        <ele>170.6</ele>
        <time>2026-05-24T08:14:14Z</time>
      </trkpt>
      <trkpt lat="48.64389" lon="2.06363">
        <ele>170.6</ele>
        <time>2026-05-24T08:14:15Z</time>
      </trkpt>
      <trkpt lat="48.64393" lon="2.06366">
        <ele>170.6</ele>
        <time>2026-05-24T08:14:16Z</time>
      </trkpt>
      <trkpt lat="48.64396" lon="2.06369">
        <ele>170.4</ele>
        <time>2026-05-24T08:14:17Z</time>
      </trkpt>
      <trkpt lat="48.644" lon="2.06372">
        <ele>170.4</ele>
        <time>2026-05-24T08:14:18Z</time>
      </trkpt>
      <trkpt lat="48.64404" lon="2.06375">
        <ele>170.4</ele>
        <time>2026-05-24T08:14:19Z</time>
      </trkpt>
      <trkpt lat="48.64409" lon="2.06378">
        <ele>170.4</ele>
        <time>2026-05-24T08:14:20Z</time>
      </trkpt>
      <trkpt lat="48.64413" lon="2.06382">
        <ele>169.4</ele>
        <time>2026-05-24T08:14:21Z</time>
      </trkpt>
      <trkpt lat="48.64418" lon="2.06386">
        <ele>169.4</ele>
        <time>2026-05-24T08:14:22Z</time>
      </trkpt>
      <trkpt lat="48.64423" lon="2.0639">
        <ele>169.4</ele>
        <time>2026-05-24T08:14:23Z</time>
      </trkpt>
      <trkpt lat="48.64427" lon="2.06394">
        <ele>169.4</ele>
        <time>2026-05-24T08:14:24Z</time>
      </trkpt>
      <trkpt lat="48.64431" lon="2.06397">
        <ele>167.8</ele>
        <time>2026-05-24T08:14:25Z</time>
      </trkpt>
      <trkpt lat="48.64435" lon="2.064">
        <ele>167.8</ele>
        <time>2026-05-24T08:14:26Z</time>
      </trkpt>
      <trkpt lat="48.64439" lon="2.06403">
        <ele>167.8</ele>
        <time>2026-05-24T08:14:27Z</time>
      </trkpt>
      <trkpt lat="48.64444" lon="2.06407">
        <ele>167.8</ele>
        <time>2026-05-24T08:14:28Z</time>
      </trkpt>
      <trkpt lat="48.64449" lon="2.06411">
        <ele>166.4</ele>
        <time>2026-05-24T08:14:29Z</time>
      </trkpt>
      <trkpt lat="48.64454" lon="2.06414">
        <ele>166.4</ele>
        <time>2026-05-24T08:14:30Z</time>
      </trkpt>
      <trkpt lat="48.64459" lon="2.06418">
        <ele>166.4</ele>
        <time>2026-05-24T08:14:31Z</time>
      </trkpt>
      <trkpt lat="48.64465" lon="2.06421">
        <ele>165.4</ele>
        <time>2026-05-24T08:14:32Z</time>
      </trkpt>
      <trkpt lat="48.64469" lon="2.06424">
        <ele>164.2</ele>
        <time>2026-05-24T08:14:33Z</time>
      </trkpt>
      <trkpt lat="48.64472" lon="2.06427">
        <ele>164.2</ele>
        <time>2026-05-24T08:14:34Z</time>
      </trkpt>
      <trkpt lat="48.64474" lon="2.06427">
        <ele>164.2</ele>
        <time>2026-05-24T08:14:35Z</time>
      </trkpt>
      <trkpt lat="48.64477" lon="2.06426">
        <ele>164.2</ele>
        <time>2026-05-24T08:14:36Z</time>
      </trkpt>
      <trkpt lat="48.64479" lon="2.06425">
        <ele>164.6</ele>
        <time>2026-05-24T08:14:37Z</time>
      </trkpt>
      <trkpt lat="48.64482" lon="2.06424">
        <ele>164.6</ele>
        <time>2026-05-24T08:14:38Z</time>
      </trkpt>
      <trkpt lat="48.64484" lon="2.06422">
        <ele>164.6</ele>
        <time>2026-05-24T08:14:39Z</time>
      </trkpt>
      <trkpt lat="48.64484" lon="2.06419">
        <ele>164.6</ele>
        <time>2026-05-24T08:14:40Z</time>
      </trkpt>
      <trkpt lat="48.64485" lon="2.06415">
        <ele>164.6</ele>
        <time>2026-05-24T08:14:41Z</time>
      </trkpt>
      <trkpt lat="48.64485" lon="2.06412">
        <ele>164.6</ele>
        <time>2026-05-24T08:14:42Z</time>
      </trkpt>
      <trkpt lat="48.64487" lon="2.0641">
        <ele>164.6</ele>
        <time>2026-05-24T08:14:43Z</time>
      </trkpt>
      <trkpt lat="48.64489" lon="2.0641">
        <ele>164.8</ele>
        <time>2026-05-24T08:14:44Z</time>
      </trkpt>
      <trkpt lat="48.64491" lon="2.0641">
        <ele>164.8</ele>
        <time>2026-05-24T08:14:45Z</time>
      </trkpt>
      <trkpt lat="48.64493" lon="2.06407">
        <ele>164.8</ele>
        <time>2026-05-24T08:14:46Z</time>
      </trkpt>
      <trkpt lat="48.64494" lon="2.06403">
        <ele>164.8</ele>
        <time>2026-05-24T08:14:47Z</time>
      </trkpt>
      <trkpt lat="48.64495" lon="2.064">
        <ele>165.2</ele>
        <time>2026-05-24T08:14:48Z</time>
      </trkpt>
      <trkpt lat="48.64497" lon="2.06397">
        <ele>165</ele>
        <time>2026-05-24T08:14:49Z</time>
      </trkpt>
      <trkpt lat="48.64499" lon="2.06397">
        <ele>165</ele>
        <time>2026-05-24T08:14:50Z</time>
      </trkpt>
      <trkpt lat="48.64502" lon="2.06398">
        <ele>165</ele>
        <time>2026-05-24T08:14:51Z</time>
      </trkpt>
      <trkpt lat="48.64505" lon="2.064">
        <ele>165</ele>
        <time>2026-05-24T08:14:52Z</time>
      </trkpt>
      <trkpt lat="48.64508" lon="2.06402">
        <ele>164.6</ele>
        <time>2026-05-24T08:14:53Z</time>
      </trkpt>
      <trkpt lat="48.64511" lon="2.06405">
        <ele>164.6</ele>
        <time>2026-05-24T08:14:54Z</time>
      </trkpt>
      <trkpt lat="48.64514" lon="2.06407">
        <ele>164.6</ele>
        <time>2026-05-24T08:14:55Z</time>
      </trkpt>
      <trkpt lat="48.64517" lon="2.0641">
        <ele>164.6</ele>
        <time>2026-05-24T08:14:56Z</time>
      </trkpt>
      <trkpt lat="48.6452" lon="2.06412">
        <ele>164.8</ele>
        <time>2026-05-24T08:14:57Z</time>
      </trkpt>
      <trkpt lat="48.64523" lon="2.06415">
        <ele>164.8</ele>
        <time>2026-05-24T08:14:58Z</time>
      </trkpt>
      <trkpt lat="48.64526" lon="2.06417">
        <ele>164.8</ele>
        <time>2026-05-24T08:14:59Z</time>
      </trkpt>
      <trkpt lat="48.6453" lon="2.0642">
        <ele>164.8</ele>
        <time>2026-05-24T08:15:00Z</time>
      </trkpt>
      <trkpt lat="48.64533" lon="2.06423">
        <ele>165.4</ele>
        <time>2026-05-24T08:15:01Z</time>
      </trkpt>
      <trkpt lat="48.64536" lon="2.06425">
        <ele>165.4</ele>
        <time>2026-05-24T08:15:02Z</time>
      </trkpt>
      <trkpt lat="48.64539" lon="2.06428">
        <ele>165.4</ele>
        <time>2026-05-24T08:15:03Z</time>
      </trkpt>
      <trkpt lat="48.64543" lon="2.0643">
        <ele>164.6</ele>
        <time>2026-05-24T08:15:04Z</time>
      </trkpt>
      <trkpt lat="48.64546" lon="2.06433">
        <ele>165.2</ele>
        <time>2026-05-24T08:15:05Z</time>
      </trkpt>
      <trkpt lat="48.64549" lon="2.06435">
        <ele>165.2</ele>
        <time>2026-05-24T08:15:06Z</time>
      </trkpt>
      <trkpt lat="48.64553" lon="2.06438">
        <ele>165.2</ele>
        <time>2026-05-24T08:15:07Z</time>
      </trkpt>
      <trkpt lat="48.64556" lon="2.0644">
        <ele>164.6</ele>
        <time>2026-05-24T08:15:08Z</time>
      </trkpt>
      <trkpt lat="48.6456" lon="2.06443">
        <ele>164.6</ele>
        <time>2026-05-24T08:15:09Z</time>
      </trkpt>
      <trkpt lat="48.64563" lon="2.06446">
        <ele>164.6</ele>
        <time>2026-05-24T08:15:10Z</time>
      </trkpt>
      <trkpt lat="48.64567" lon="2.06449">
        <ele>164.6</ele>
        <time>2026-05-24T08:15:11Z</time>
      </trkpt>
      <trkpt lat="48.6457" lon="2.06453">
        <ele>164.6</ele>
        <time>2026-05-24T08:15:12Z</time>
      </trkpt>
      <trkpt lat="48.64573" lon="2.06456">
        <ele>165.2</ele>
        <time>2026-05-24T08:15:13Z</time>
      </trkpt>
      <trkpt lat="48.64576" lon="2.0646">
        <ele>165.2</ele>
        <time>2026-05-24T08:15:14Z</time>
      </trkpt>
      <trkpt lat="48.64578" lon="2.06463">
        <ele>165.2</ele>
        <time>2026-05-24T08:15:15Z</time>
      </trkpt>
      <trkpt lat="48.6458" lon="2.06467">
        <ele>165.6</ele>
        <time>2026-05-24T08:15:16Z</time>
      </trkpt>
      <trkpt lat="48.64582" lon="2.06471">
        <ele>165.6</ele>
        <time>2026-05-24T08:15:17Z</time>
      </trkpt>
      <trkpt lat="48.64584" lon="2.06475">
        <ele>165.6</ele>
        <time>2026-05-24T08:15:18Z</time>
      </trkpt>
      <trkpt lat="48.64585" lon="2.06478">
        <ele>165.6</ele>
        <time>2026-05-24T08:15:19Z</time>
      </trkpt>
      <trkpt lat="48.64586" lon="2.06482">
        <ele>166.2</ele>
        <time>2026-05-24T08:15:20Z</time>
      </trkpt>
      <trkpt lat="48.64588" lon="2.06486">
        <ele>166.2</ele>
        <time>2026-05-24T08:15:21Z</time>
      </trkpt>
      <trkpt lat="48.6459" lon="2.0649">
        <ele>166.2</ele>
        <time>2026-05-24T08:15:22Z</time>
      </trkpt>
      <trkpt lat="48.64592" lon="2.06493">
        <ele>166.2</ele>
        <time>2026-05-24T08:15:23Z</time>
      </trkpt>
      <trkpt lat="48.64594" lon="2.06496">
        <ele>167</ele>
        <time>2026-05-24T08:15:24Z</time>
      </trkpt>
      <trkpt lat="48.64596" lon="2.06498">
        <ele>167.8</ele>
        <time>2026-05-24T08:15:25Z</time>
      </trkpt>
      <trkpt lat="48.64598" lon="2.06501">
        <ele>167.8</ele>
        <time>2026-05-24T08:15:26Z</time>
      </trkpt>
      <trkpt lat="48.646" lon="2.06503">
        <ele>167.8</ele>
        <time>2026-05-24T08:15:27Z</time>
      </trkpt>
      <trkpt lat="48.64603" lon="2.06506">
        <ele>167.8</ele>
        <time>2026-05-24T08:15:28Z</time>
      </trkpt>
      <trkpt lat="48.64605" lon="2.06508">
        <ele>167.8</ele>
        <time>2026-05-24T08:15:29Z</time>
      </trkpt>
      <trkpt lat="48.64607" lon="2.06511">
        <ele>167.8</ele>
        <time>2026-05-24T08:15:30Z</time>
      </trkpt>
      <trkpt lat="48.64609" lon="2.06514">
        <ele>167.8</ele>
        <time>2026-05-24T08:15:31Z</time>
      </trkpt>
      <trkpt lat="48.64611" lon="2.06516">
        <ele>168.2</ele>
        <time>2026-05-24T08:15:32Z</time>
      </trkpt>
      <trkpt lat="48.64614" lon="2.06519">
        <ele>168</ele>
        <time>2026-05-24T08:15:33Z</time>
      </trkpt>
      <trkpt lat="48.64616" lon="2.06522">
        <ele>168</ele>
        <time>2026-05-24T08:15:34Z</time>
      </trkpt>
      <trkpt lat="48.64618" lon="2.06525">
        <ele>168</ele>
        <time>2026-05-24T08:15:35Z</time>
      </trkpt>
      <trkpt lat="48.64621" lon="2.06528">
        <ele>169</ele>
        <time>2026-05-24T08:15:36Z</time>
      </trkpt>
      <trkpt lat="48.64623" lon="2.0653">
        <ele>169.4</ele>
        <time>2026-05-24T08:15:37Z</time>
      </trkpt>
      <trkpt lat="48.64625" lon="2.06532">
        <ele>169.4</ele>
        <time>2026-05-24T08:15:38Z</time>
      </trkpt>
      <trkpt lat="48.64628" lon="2.06535">
        <ele>169.4</ele>
        <time>2026-05-24T08:15:39Z</time>
      </trkpt>
      <trkpt lat="48.6463" lon="2.06537">
        <ele>169.8</ele>
        <time>2026-05-24T08:15:40Z</time>
      </trkpt>
      <trkpt lat="48.64633" lon="2.06539">
        <ele>169.8</ele>
        <time>2026-05-24T08:15:41Z</time>
      </trkpt>
      <trkpt lat="48.64636" lon="2.06542">
        <ele>169.8</ele>
        <time>2026-05-24T08:15:42Z</time>
      </trkpt>
      <trkpt lat="48.64638" lon="2.06544">
        <ele>169.8</ele>
        <time>2026-05-24T08:15:43Z</time>
      </trkpt>
      <trkpt lat="48.64641" lon="2.06546">
        <ele>170.2</ele>
        <time>2026-05-24T08:15:44Z</time>
      </trkpt>
      <trkpt lat="48.64643" lon="2.06548">
        <ele>170.2</ele>
        <time>2026-05-24T08:15:45Z</time>
      </trkpt>
      <trkpt lat="48.64646" lon="2.0655">
        <ele>170.2</ele>
        <time>2026-05-24T08:15:46Z</time>
      </trkpt>
      <trkpt lat="48.64648" lon="2.06552">
        <ele>170.2</ele>
        <time>2026-05-24T08:15:47Z</time>
      </trkpt>
      <trkpt lat="48.64651" lon="2.06555">
        <ele>170.8</ele>
        <time>2026-05-24T08:15:48Z</time>
      </trkpt>
      <trkpt lat="48.64654" lon="2.06557">
        <ele>171.2</ele>
        <time>2026-05-24T08:15:49Z</time>
      </trkpt>
      <trkpt lat="48.64656" lon="2.06559">
        <ele>171.2</ele>
        <time>2026-05-24T08:15:50Z</time>
      </trkpt>
      <trkpt lat="48.64659" lon="2.06561">
        <ele>171.2</ele>
        <time>2026-05-24T08:15:51Z</time>
      </trkpt>
      <trkpt lat="48.64661" lon="2.06563">
        <ele>171.2</ele>
        <time>2026-05-24T08:15:52Z</time>
      </trkpt>
      <trkpt lat="48.64664" lon="2.06566">
        <ele>171.6</ele>
        <time>2026-05-24T08:15:53Z</time>
      </trkpt>
      <trkpt lat="48.64666" lon="2.06568">
        <ele>171.6</ele>
        <time>2026-05-24T08:15:54Z</time>
      </trkpt>
      <trkpt lat="48.64669" lon="2.0657">
        <ele>171.6</ele>
        <time>2026-05-24T08:15:55Z</time>
      </trkpt>
      <trkpt lat="48.64671" lon="2.06573">
        <ele>172.4</ele>
        <time>2026-05-24T08:15:56Z</time>
      </trkpt>
      <trkpt lat="48.64674" lon="2.06575">
        <ele>172.2</ele>
        <time>2026-05-24T08:15:57Z</time>
      </trkpt>
      <trkpt lat="48.64677" lon="2.06578">
        <ele>172.2</ele>
        <time>2026-05-24T08:15:58Z</time>
      </trkpt>
      <trkpt lat="48.6468" lon="2.0658">
        <ele>172.2</ele>
        <time>2026-05-24T08:15:59Z</time>
      </trkpt>
      <trkpt lat="48.64683" lon="2.06583">
        <ele>172.2</ele>
        <time>2026-05-24T08:16:00Z</time>
      </trkpt>
      <trkpt lat="48.64685" lon="2.06585">
        <ele>172.2</ele>
        <time>2026-05-24T08:16:01Z</time>
      </trkpt>
      <trkpt lat="48.64688" lon="2.06588">
        <ele>172.2</ele>
        <time>2026-05-24T08:16:02Z</time>
      </trkpt>
      <trkpt lat="48.64691" lon="2.06591">
        <ele>172.2</ele>
        <time>2026-05-24T08:16:03Z</time>
      </trkpt>
      <trkpt lat="48.64694" lon="2.06593">
        <ele>172.2</ele>
        <time>2026-05-24T08:16:04Z</time>
      </trkpt>
      <trkpt lat="48.64697" lon="2.06596">
        <ele>172.6</ele>
        <time>2026-05-24T08:16:05Z</time>
      </trkpt>
      <trkpt lat="48.647" lon="2.06598">
        <ele>172.6</ele>
        <time>2026-05-24T08:16:06Z</time>
      </trkpt>
      <trkpt lat="48.64703" lon="2.06601">
        <ele>172.6</ele>
        <time>2026-05-24T08:16:07Z</time>
      </trkpt>
      <trkpt lat="48.64706" lon="2.06603">
        <ele>172.4</ele>
        <time>2026-05-24T08:16:08Z</time>
      </trkpt>
      <trkpt lat="48.64709" lon="2.06606">
        <ele>172.6</ele>
        <time>2026-05-24T08:16:09Z</time>
      </trkpt>
      <trkpt lat="48.64713" lon="2.06609">
        <ele>172.6</ele>
        <time>2026-05-24T08:16:10Z</time>
      </trkpt>
      <trkpt lat="48.64716" lon="2.06612">
        <ele>172.6</ele>
        <time>2026-05-24T08:16:11Z</time>
      </trkpt>
      <trkpt lat="48.64719" lon="2.06614">
        <ele>172.6</ele>
        <time>2026-05-24T08:16:12Z</time>
      </trkpt>
      <trkpt lat="48.64722" lon="2.06617">
        <ele>172.4</ele>
        <time>2026-05-24T08:16:13Z</time>
      </trkpt>
      <trkpt lat="48.64725" lon="2.0662">
        <ele>172.4</ele>
        <time>2026-05-24T08:16:14Z</time>
      </trkpt>
      <trkpt lat="48.64728" lon="2.06623">
        <ele>172.4</ele>
        <time>2026-05-24T08:16:15Z</time>
      </trkpt>
      <trkpt lat="48.64732" lon="2.06625">
        <ele>172.4</ele>
        <time>2026-05-24T08:16:16Z</time>
      </trkpt>
      <trkpt lat="48.64735" lon="2.06628">
        <ele>172.4</ele>
        <time>2026-05-24T08:16:17Z</time>
      </trkpt>
      <trkpt lat="48.64739" lon="2.0663">
        <ele>172.4</ele>
        <time>2026-05-24T08:16:18Z</time>
      </trkpt>
      <trkpt lat="48.64742" lon="2.06633">
        <ele>172.4</ele>
        <time>2026-05-24T08:16:19Z</time>
      </trkpt>
      <trkpt lat="48.64746" lon="2.06636">
        <ele>172.4</ele>
        <time>2026-05-24T08:16:20Z</time>
      </trkpt>
      <trkpt lat="48.64749" lon="2.06639">
        <ele>172.4</ele>
        <time>2026-05-24T08:16:21Z</time>
      </trkpt>
      <trkpt lat="48.64753" lon="2.06642">
        <ele>172.4</ele>
        <time>2026-05-24T08:16:22Z</time>
      </trkpt>
      <trkpt lat="48.64756" lon="2.06645">
        <ele>172.4</ele>
        <time>2026-05-24T08:16:23Z</time>
      </trkpt>
      <trkpt lat="48.6476" lon="2.06648">
        <ele>172.4</ele>
        <time>2026-05-24T08:16:24Z</time>
      </trkpt>
      <trkpt lat="48.64763" lon="2.0665">
        <ele>173</ele>
        <time>2026-05-24T08:16:25Z</time>
      </trkpt>
      <trkpt lat="48.64767" lon="2.06653">
        <ele>173</ele>
        <time>2026-05-24T08:16:26Z</time>
      </trkpt>
      <trkpt lat="48.6477" lon="2.06657">
        <ele>173</ele>
        <time>2026-05-24T08:16:27Z</time>
      </trkpt>
      <trkpt lat="48.64774" lon="2.0666">
        <ele>173</ele>
        <time>2026-05-24T08:16:28Z</time>
      </trkpt>
      <trkpt lat="48.64777" lon="2.06663">
        <ele>172.4</ele>
        <time>2026-05-24T08:16:29Z</time>
      </trkpt>
      <trkpt lat="48.6478" lon="2.06665">
        <ele>172.4</ele>
        <time>2026-05-24T08:16:30Z</time>
      </trkpt>
      <trkpt lat="48.64783" lon="2.06668">
        <ele>172.4</ele>
        <time>2026-05-24T08:16:31Z</time>
      </trkpt>
      <trkpt lat="48.64787" lon="2.06671">
        <ele>172.4</ele>
        <time>2026-05-24T08:16:32Z</time>
      </trkpt>
      <trkpt lat="48.6479" lon="2.06673">
        <ele>172.4</ele>
        <time>2026-05-24T08:16:33Z</time>
      </trkpt>
      <trkpt lat="48.64794" lon="2.06676">
        <ele>172.4</ele>
        <time>2026-05-24T08:16:34Z</time>
      </trkpt>
      <trkpt lat="48.64798" lon="2.06679">
        <ele>172.4</ele>
        <time>2026-05-24T08:16:35Z</time>
      </trkpt>
      <trkpt lat="48.64802" lon="2.06682">
        <ele>172.4</ele>
        <time>2026-05-24T08:16:36Z</time>
      </trkpt>
      <trkpt lat="48.64806" lon="2.06684">
        <ele>172</ele>
        <time>2026-05-24T08:16:37Z</time>
      </trkpt>
      <trkpt lat="48.6481" lon="2.06687">
        <ele>172</ele>
        <time>2026-05-24T08:16:38Z</time>
      </trkpt>
      <trkpt lat="48.64814" lon="2.0669">
        <ele>172</ele>
        <time>2026-05-24T08:16:39Z</time>
      </trkpt>
      <trkpt lat="48.64818" lon="2.06692">
        <ele>172</ele>
        <time>2026-05-24T08:16:40Z</time>
      </trkpt>
      <trkpt lat="48.64822" lon="2.06694">
        <ele>172.6</ele>
        <time>2026-05-24T08:16:41Z</time>
      </trkpt>
      <trkpt lat="48.64826" lon="2.06696">
        <ele>172.6</ele>
        <time>2026-05-24T08:16:42Z</time>
      </trkpt>
      <trkpt lat="48.6483" lon="2.06697">
        <ele>172.6</ele>
        <time>2026-05-24T08:16:43Z</time>
      </trkpt>
      <trkpt lat="48.64833" lon="2.06699">
        <ele>173</ele>
        <time>2026-05-24T08:16:44Z</time>
      </trkpt>
      <trkpt lat="48.64836" lon="2.06702">
        <ele>173</ele>
        <time>2026-05-24T08:16:45Z</time>
      </trkpt>
      <trkpt lat="48.64839" lon="2.06705">
        <ele>173</ele>
        <time>2026-05-24T08:16:46Z</time>
      </trkpt>
      <trkpt lat="48.64843" lon="2.06708">
        <ele>173</ele>
        <time>2026-05-24T08:16:47Z</time>
      </trkpt>
      <trkpt lat="48.64846" lon="2.06711">
        <ele>173</ele>
        <time>2026-05-24T08:16:48Z</time>
      </trkpt>
      <trkpt lat="48.64849" lon="2.06715">
        <ele>172.4</ele>
        <time>2026-05-24T08:16:49Z</time>
      </trkpt>
      <trkpt lat="48.64852" lon="2.06717">
        <ele>172.4</ele>
        <time>2026-05-24T08:16:50Z</time>
      </trkpt>
      <trkpt lat="48.64856" lon="2.0672">
        <ele>172.4</ele>
        <time>2026-05-24T08:16:51Z</time>
      </trkpt>
      <trkpt lat="48.64859" lon="2.06723">
        <ele>172.4</ele>
        <time>2026-05-24T08:16:52Z</time>
      </trkpt>
      <trkpt lat="48.64863" lon="2.06726">
        <ele>172.4</ele>
        <time>2026-05-24T08:16:53Z</time>
      </trkpt>
      <trkpt lat="48.64866" lon="2.06728">
        <ele>172.4</ele>
        <time>2026-05-24T08:16:54Z</time>
      </trkpt>
      <trkpt lat="48.64869" lon="2.06731">
        <ele>172.4</ele>
        <time>2026-05-24T08:16:55Z</time>
      </trkpt>
      <trkpt lat="48.64872" lon="2.06734">
        <ele>172.6</ele>
        <time>2026-05-24T08:16:56Z</time>
      </trkpt>
      <trkpt lat="48.64876" lon="2.06736">
        <ele>172.6</ele>
        <time>2026-05-24T08:16:57Z</time>
      </trkpt>
      <trkpt lat="48.64879" lon="2.06739">
        <ele>172.6</ele>
        <time>2026-05-24T08:16:58Z</time>
      </trkpt>
      <trkpt lat="48.64882" lon="2.06742">
        <ele>172.6</ele>
        <time>2026-05-24T08:16:59Z</time>
      </trkpt>
      <trkpt lat="48.64886" lon="2.06746">
        <ele>172.6</ele>
        <time>2026-05-24T08:17:00Z</time>
      </trkpt>
      <trkpt lat="48.64889" lon="2.06749">
        <ele>172.6</ele>
        <time>2026-05-24T08:17:01Z</time>
      </trkpt>
      <trkpt lat="48.64891" lon="2.06752">
        <ele>172.6</ele>
        <time>2026-05-24T08:17:02Z</time>
      </trkpt>
      <trkpt lat="48.64894" lon="2.06755">
        <ele>172.6</ele>
        <time>2026-05-24T08:17:03Z</time>
      </trkpt>
      <trkpt lat="48.64898" lon="2.06759">
        <ele>173.2</ele>
        <time>2026-05-24T08:17:04Z</time>
      </trkpt>
      <trkpt lat="48.64902" lon="2.06761">
        <ele>173.2</ele>
        <time>2026-05-24T08:17:05Z</time>
      </trkpt>
      <trkpt lat="48.64906" lon="2.06765">
        <ele>173.2</ele>
        <time>2026-05-24T08:17:06Z</time>
      </trkpt>
      <trkpt lat="48.64909" lon="2.06768">
        <ele>173.2</ele>
        <time>2026-05-24T08:17:07Z</time>
      </trkpt>
      <trkpt lat="48.64912" lon="2.06772">
        <ele>173.2</ele>
        <time>2026-05-24T08:17:08Z</time>
      </trkpt>
      <trkpt lat="48.64916" lon="2.06775">
        <ele>173</ele>
        <time>2026-05-24T08:17:09Z</time>
      </trkpt>
      <trkpt lat="48.64919" lon="2.06778">
        <ele>173</ele>
        <time>2026-05-24T08:17:10Z</time>
      </trkpt>
      <trkpt lat="48.64923" lon="2.06781">
        <ele>173</ele>
        <time>2026-05-24T08:17:11Z</time>
      </trkpt>
      <trkpt lat="48.64927" lon="2.06784">
        <ele>173</ele>
        <time>2026-05-24T08:17:12Z</time>
      </trkpt>
      <trkpt lat="48.64931" lon="2.06788">
        <ele>172.8</ele>
        <time>2026-05-24T08:17:13Z</time>
      </trkpt>
      <trkpt lat="48.64935" lon="2.06792">
        <ele>172.8</ele>
        <time>2026-05-24T08:17:14Z</time>
      </trkpt>
      <trkpt lat="48.64939" lon="2.06795">
        <ele>172.8</ele>
        <time>2026-05-24T08:17:15Z</time>
      </trkpt>
      <trkpt lat="48.64942" lon="2.06798">
        <ele>173.4</ele>
        <time>2026-05-24T08:17:16Z</time>
      </trkpt>
      <trkpt lat="48.64945" lon="2.06802">
        <ele>173</ele>
        <time>2026-05-24T08:17:17Z</time>
      </trkpt>
      <trkpt lat="48.64948" lon="2.06806">
        <ele>173</ele>
        <time>2026-05-24T08:17:18Z</time>
      </trkpt>
      <trkpt lat="48.64952" lon="2.06808">
        <ele>173</ele>
        <time>2026-05-24T08:17:19Z</time>
      </trkpt>
      <trkpt lat="48.64955" lon="2.0681">
        <ele>174</ele>
        <time>2026-05-24T08:17:20Z</time>
      </trkpt>
      <trkpt lat="48.64959" lon="2.06812">
        <ele>173.8</ele>
        <time>2026-05-24T08:17:21Z</time>
      </trkpt>
      <trkpt lat="48.64963" lon="2.06814">
        <ele>173.8</ele>
        <time>2026-05-24T08:17:22Z</time>
      </trkpt>
      <trkpt lat="48.64965" lon="2.06816">
        <ele>173.8</ele>
        <time>2026-05-24T08:17:23Z</time>
      </trkpt>
      <trkpt lat="48.64968" lon="2.06817">
        <ele>174</ele>
        <time>2026-05-24T08:17:24Z</time>
      </trkpt>
      <trkpt lat="48.64971" lon="2.06819">
        <ele>174.2</ele>
        <time>2026-05-24T08:17:25Z</time>
      </trkpt>
      <trkpt lat="48.64973" lon="2.0682">
        <ele>174.2</ele>
        <time>2026-05-24T08:17:26Z</time>
      </trkpt>
      <trkpt lat="48.64975" lon="2.06822">
        <ele>174.2</ele>
        <time>2026-05-24T08:17:27Z</time>
      </trkpt>
      <trkpt lat="48.64976" lon="2.06822">
        <ele>175.2</ele>
        <time>2026-05-24T08:17:28Z</time>
      </trkpt>
      <trkpt lat="48.64978" lon="2.06823">
        <ele>176.2</ele>
        <time>2026-05-24T08:17:29Z</time>
      </trkpt>
      <trkpt lat="48.6498" lon="2.06824">
        <ele>176.2</ele>
        <time>2026-05-24T08:17:30Z</time>
      </trkpt>
      <trkpt lat="48.64982" lon="2.06826">
        <ele>176.2</ele>
        <time>2026-05-24T08:17:31Z</time>
      </trkpt>
      <trkpt lat="48.64984" lon="2.06827">
        <ele>176.6</ele>
        <time>2026-05-24T08:17:32Z</time>
      </trkpt>
      <trkpt lat="48.64985" lon="2.06829">
        <ele>176.8</ele>
        <time>2026-05-24T08:17:33Z</time>
      </trkpt>
      <trkpt lat="48.64987" lon="2.0683">
        <ele>176.8</ele>
        <time>2026-05-24T08:17:34Z</time>
      </trkpt>
      <trkpt lat="48.64989" lon="2.0683">
        <ele>176.8</ele>
        <time>2026-05-24T08:17:35Z</time>
      </trkpt>
      <trkpt lat="48.64991" lon="2.06832">
        <ele>177.8</ele>
        <time>2026-05-24T08:17:36Z</time>
      </trkpt>
      <trkpt lat="48.64993" lon="2.06833">
        <ele>178</ele>
        <time>2026-05-24T08:17:37Z</time>
      </trkpt>
      <trkpt lat="48.64996" lon="2.06835">
        <ele>178</ele>
        <time>2026-05-24T08:17:38Z</time>
      </trkpt>
      <trkpt lat="48.64998" lon="2.06837">
        <ele>178</ele>
        <time>2026-05-24T08:17:39Z</time>
      </trkpt>
      <trkpt lat="48.65" lon="2.06839">
        <ele>178.8</ele>
        <time>2026-05-24T08:17:40Z</time>
      </trkpt>
      <trkpt lat="48.65002" lon="2.06841">
        <ele>179</ele>
        <time>2026-05-24T08:17:41Z</time>
      </trkpt>
      <trkpt lat="48.65004" lon="2.06843">
        <ele>179</ele>
        <time>2026-05-24T08:17:42Z</time>
      </trkpt>
      <trkpt lat="48.65007" lon="2.06845">
        <ele>179</ele>
        <time>2026-05-24T08:17:43Z</time>
      </trkpt>
      <trkpt lat="48.65009" lon="2.06847">
        <ele>179</ele>
        <time>2026-05-24T08:17:44Z</time>
      </trkpt>
      <trkpt lat="48.65011" lon="2.06849">
        <ele>178.8</ele>
        <time>2026-05-24T08:17:45Z</time>
      </trkpt>
      <trkpt lat="48.65013" lon="2.0685">
        <ele>178.8</ele>
        <time>2026-05-24T08:17:46Z</time>
      </trkpt>
      <trkpt lat="48.65014" lon="2.06851">
        <ele>178.8</ele>
        <time>2026-05-24T08:17:47Z</time>
      </trkpt>
      <trkpt lat="48.65016" lon="2.06853">
        <ele>179.2</ele>
        <time>2026-05-24T08:17:48Z</time>
      </trkpt>
      <trkpt lat="48.65018" lon="2.06855">
        <ele>179.4</ele>
        <time>2026-05-24T08:17:49Z</time>
      </trkpt>
      <trkpt lat="48.6502" lon="2.06857">
        <ele>179.4</ele>
        <time>2026-05-24T08:17:50Z</time>
      </trkpt>
      <trkpt lat="48.65022" lon="2.06858">
        <ele>179.4</ele>
        <time>2026-05-24T08:17:51Z</time>
      </trkpt>
      <trkpt lat="48.65024" lon="2.0686">
        <ele>179.4</ele>
        <time>2026-05-24T08:17:52Z</time>
      </trkpt>
      <trkpt lat="48.65025" lon="2.06862">
        <ele>179</ele>
        <time>2026-05-24T08:17:53Z</time>
      </trkpt>
      <trkpt lat="48.65027" lon="2.06864">
        <ele>179</ele>
        <time>2026-05-24T08:17:54Z</time>
      </trkpt>
      <trkpt lat="48.65028" lon="2.06865">
        <ele>179</ele>
        <time>2026-05-24T08:17:55Z</time>
      </trkpt>
      <trkpt lat="48.6503" lon="2.06866">
        <ele>179.6</ele>
        <time>2026-05-24T08:17:56Z</time>
      </trkpt>
      <trkpt lat="48.65032" lon="2.06868">
        <ele>179.2</ele>
        <time>2026-05-24T08:17:57Z</time>
      </trkpt>
      <trkpt lat="48.65034" lon="2.06869">
        <ele>179.2</ele>
        <time>2026-05-24T08:17:58Z</time>
      </trkpt>
      <trkpt lat="48.65036" lon="2.0687">
        <ele>179.2</ele>
        <time>2026-05-24T08:17:59Z</time>
      </trkpt>
      <trkpt lat="48.65038" lon="2.06871">
        <ele>179.2</ele>
        <time>2026-05-24T08:18:00Z</time>
      </trkpt>
      <trkpt lat="48.6504" lon="2.06871">
        <ele>180</ele>
        <time>2026-05-24T08:18:01Z</time>
      </trkpt>
      <trkpt lat="48.65042" lon="2.06872">
        <ele>180</ele>
        <time>2026-05-24T08:18:02Z</time>
      </trkpt>
      <trkpt lat="48.65046" lon="2.06873">
        <ele>180</ele>
        <time>2026-05-24T08:18:03Z</time>
      </trkpt>
      <trkpt lat="48.65049" lon="2.06874">
        <ele>179.6</ele>
        <time>2026-05-24T08:18:04Z</time>
      </trkpt>
      <trkpt lat="48.65053" lon="2.06875">
        <ele>180.4</ele>
        <time>2026-05-24T08:18:05Z</time>
      </trkpt>
      <trkpt lat="48.65055" lon="2.06875">
        <ele>180.4</ele>
        <time>2026-05-24T08:18:06Z</time>
      </trkpt>
      <trkpt lat="48.65058" lon="2.06873">
        <ele>180.4</ele>
        <time>2026-05-24T08:18:07Z</time>
      </trkpt>
      <trkpt lat="48.65061" lon="2.06871">
        <ele>180</ele>
        <time>2026-05-24T08:18:08Z</time>
      </trkpt>
      <trkpt lat="48.65063" lon="2.06869">
        <ele>179.8</ele>
        <time>2026-05-24T08:18:09Z</time>
      </trkpt>
      <trkpt lat="48.65065" lon="2.06866">
        <ele>179.8</ele>
        <time>2026-05-24T08:18:10Z</time>
      </trkpt>
      <trkpt lat="48.65067" lon="2.06863">
        <ele>179.8</ele>
        <time>2026-05-24T08:18:11Z</time>
      </trkpt>
      <trkpt lat="48.65069" lon="2.0686">
        <ele>179.8</ele>
        <time>2026-05-24T08:18:12Z</time>
      </trkpt>
      <trkpt lat="48.6507" lon="2.06856">
        <ele>179.2</ele>
        <time>2026-05-24T08:18:13Z</time>
      </trkpt>
      <trkpt lat="48.65071" lon="2.06853">
        <ele>179.2</ele>
        <time>2026-05-24T08:18:14Z</time>
      </trkpt>
      <trkpt lat="48.65072" lon="2.06849">
        <ele>179.2</ele>
        <time>2026-05-24T08:18:15Z</time>
      </trkpt>
      <trkpt lat="48.65073" lon="2.06845">
        <ele>179.8</ele>
        <time>2026-05-24T08:18:16Z</time>
      </trkpt>
      <trkpt lat="48.65073" lon="2.06841">
        <ele>179.4</ele>
        <time>2026-05-24T08:18:17Z</time>
      </trkpt>
      <trkpt lat="48.65073" lon="2.06837">
        <ele>179.4</ele>
        <time>2026-05-24T08:18:18Z</time>
      </trkpt>
      <trkpt lat="48.65074" lon="2.06833">
        <ele>179.4</ele>
        <time>2026-05-24T08:18:19Z</time>
      </trkpt>
      <trkpt lat="48.65074" lon="2.06829">
        <ele>180.2</ele>
        <time>2026-05-24T08:18:20Z</time>
      </trkpt>
      <trkpt lat="48.65074" lon="2.06824">
        <ele>179.6</ele>
        <time>2026-05-24T08:18:21Z</time>
      </trkpt>
      <trkpt lat="48.65074" lon="2.0682">
        <ele>179.6</ele>
        <time>2026-05-24T08:18:22Z</time>
      </trkpt>
      <trkpt lat="48.65075" lon="2.06816">
        <ele>179.6</ele>
        <time>2026-05-24T08:18:23Z</time>
      </trkpt>
      <trkpt lat="48.65075" lon="2.06811">
        <ele>179.6</ele>
        <time>2026-05-24T08:18:24Z</time>
      </trkpt>
      <trkpt lat="48.65075" lon="2.06807">
        <ele>180</ele>
        <time>2026-05-24T08:18:25Z</time>
      </trkpt>
      <trkpt lat="48.65076" lon="2.06803">
        <ele>180</ele>
        <time>2026-05-24T08:18:26Z</time>
      </trkpt>
      <trkpt lat="48.65076" lon="2.06799">
        <ele>180</ele>
        <time>2026-05-24T08:18:27Z</time>
      </trkpt>
      <trkpt lat="48.65076" lon="2.06795">
        <ele>180</ele>
        <time>2026-05-24T08:18:28Z</time>
      </trkpt>
      <trkpt lat="48.65076" lon="2.0679">
        <ele>180.4</ele>
        <time>2026-05-24T08:18:29Z</time>
      </trkpt>
      <trkpt lat="48.65076" lon="2.06786">
        <ele>180.4</ele>
        <time>2026-05-24T08:18:30Z</time>
      </trkpt>
      <trkpt lat="48.65076" lon="2.06782">
        <ele>180.4</ele>
        <time>2026-05-24T08:18:31Z</time>
      </trkpt>
      <trkpt lat="48.65076" lon="2.06777">
        <ele>180.4</ele>
        <time>2026-05-24T08:18:32Z</time>
      </trkpt>
      <trkpt lat="48.65077" lon="2.06772">
        <ele>180</ele>
        <time>2026-05-24T08:18:33Z</time>
      </trkpt>
      <trkpt lat="48.65076" lon="2.06768">
        <ele>180</ele>
        <time>2026-05-24T08:18:34Z</time>
      </trkpt>
      <trkpt lat="48.65076" lon="2.06763">
        <ele>180</ele>
        <time>2026-05-24T08:18:35Z</time>
      </trkpt>
      <trkpt lat="48.65077" lon="2.06758">
        <ele>180</ele>
        <time>2026-05-24T08:18:36Z</time>
      </trkpt>
      <trkpt lat="48.65077" lon="2.06753">
        <ele>179.2</ele>
        <time>2026-05-24T08:18:37Z</time>
      </trkpt>
      <trkpt lat="48.65078" lon="2.06748">
        <ele>179.2</ele>
        <time>2026-05-24T08:18:38Z</time>
      </trkpt>
      <trkpt lat="48.65078" lon="2.06743">
        <ele>179.2</ele>
        <time>2026-05-24T08:18:39Z</time>
      </trkpt>
      <trkpt lat="48.65079" lon="2.06739">
        <ele>180.2</ele>
        <time>2026-05-24T08:18:40Z</time>
      </trkpt>
      <trkpt lat="48.65079" lon="2.06734">
        <ele>180.2</ele>
        <time>2026-05-24T08:18:41Z</time>
      </trkpt>
      <trkpt lat="48.65079" lon="2.06729">
        <ele>180.2</ele>
        <time>2026-05-24T08:18:42Z</time>
      </trkpt>
      <trkpt lat="48.65079" lon="2.06724">
        <ele>180.2</ele>
        <time>2026-05-24T08:18:43Z</time>
      </trkpt>
      <trkpt lat="48.65079" lon="2.06719">
        <ele>180.4</ele>
        <time>2026-05-24T08:18:44Z</time>
      </trkpt>
      <trkpt lat="48.65079" lon="2.06714">
        <ele>180.6</ele>
        <time>2026-05-24T08:18:45Z</time>
      </trkpt>
      <trkpt lat="48.65079" lon="2.06709">
        <ele>180.6</ele>
        <time>2026-05-24T08:18:46Z</time>
      </trkpt>
      <trkpt lat="48.65079" lon="2.06703">
        <ele>180.6</ele>
        <time>2026-05-24T08:18:47Z</time>
      </trkpt>
      <trkpt lat="48.65079" lon="2.06698">
        <ele>180.6</ele>
        <time>2026-05-24T08:18:48Z</time>
      </trkpt>
      <trkpt lat="48.65079" lon="2.06692">
        <ele>180.8</ele>
        <time>2026-05-24T08:18:49Z</time>
      </trkpt>
      <trkpt lat="48.65079" lon="2.06687">
        <ele>180.8</ele>
        <time>2026-05-24T08:18:50Z</time>
      </trkpt>
      <trkpt lat="48.65079" lon="2.06681">
        <ele>180.8</ele>
        <time>2026-05-24T08:18:51Z</time>
      </trkpt>
      <trkpt lat="48.65079" lon="2.06676">
        <ele>180.8</ele>
        <time>2026-05-24T08:18:52Z</time>
      </trkpt>
      <trkpt lat="48.65079" lon="2.0667">
        <ele>180.4</ele>
        <time>2026-05-24T08:18:53Z</time>
      </trkpt>
      <trkpt lat="48.65079" lon="2.06665">
        <ele>180.4</ele>
        <time>2026-05-24T08:18:54Z</time>
      </trkpt>
      <trkpt lat="48.65079" lon="2.06659">
        <ele>180.4</ele>
        <time>2026-05-24T08:18:55Z</time>
      </trkpt>
      <trkpt lat="48.65079" lon="2.06653">
        <ele>180.4</ele>
        <time>2026-05-24T08:18:56Z</time>
      </trkpt>
      <trkpt lat="48.65078" lon="2.06648">
        <ele>180.8</ele>
        <time>2026-05-24T08:18:57Z</time>
      </trkpt>
      <trkpt lat="48.65078" lon="2.06642">
        <ele>180.8</ele>
        <time>2026-05-24T08:18:58Z</time>
      </trkpt>
      <trkpt lat="48.65078" lon="2.06636">
        <ele>180.8</ele>
        <time>2026-05-24T08:18:59Z</time>
      </trkpt>
      <trkpt lat="48.65078" lon="2.06631">
        <ele>180.8</ele>
        <time>2026-05-24T08:19:00Z</time>
      </trkpt>
      <trkpt lat="48.65078" lon="2.06625">
        <ele>181.6</ele>
        <time>2026-05-24T08:19:01Z</time>
      </trkpt>
      <trkpt lat="48.65079" lon="2.0662">
        <ele>181.6</ele>
        <time>2026-05-24T08:19:02Z</time>
      </trkpt>
      <trkpt lat="48.65079" lon="2.06614">
        <ele>181.6</ele>
        <time>2026-05-24T08:19:03Z</time>
      </trkpt>
      <trkpt lat="48.65078" lon="2.06609">
        <ele>180.8</ele>
        <time>2026-05-24T08:19:04Z</time>
      </trkpt>
      <trkpt lat="48.65077" lon="2.06603">
        <ele>180.4</ele>
        <time>2026-05-24T08:19:05Z</time>
      </trkpt>
      <trkpt lat="48.65077" lon="2.06598">
        <ele>180.4</ele>
        <time>2026-05-24T08:19:06Z</time>
      </trkpt>
      <trkpt lat="48.65077" lon="2.06592">
        <ele>180.4</ele>
        <time>2026-05-24T08:19:07Z</time>
      </trkpt>
      <trkpt lat="48.65077" lon="2.06587">
        <ele>180.8</ele>
        <time>2026-05-24T08:19:08Z</time>
      </trkpt>
      <trkpt lat="48.65078" lon="2.06581">
        <ele>180.8</ele>
        <time>2026-05-24T08:19:09Z</time>
      </trkpt>
      <trkpt lat="48.65078" lon="2.06575">
        <ele>180.8</ele>
        <time>2026-05-24T08:19:10Z</time>
      </trkpt>
      <trkpt lat="48.65078" lon="2.06569">
        <ele>180.8</ele>
        <time>2026-05-24T08:19:11Z</time>
      </trkpt>
      <trkpt lat="48.65078" lon="2.06564">
        <ele>180.8</ele>
        <time>2026-05-24T08:19:12Z</time>
      </trkpt>
      <trkpt lat="48.65078" lon="2.06558">
        <ele>181</ele>
        <time>2026-05-24T08:19:13Z</time>
      </trkpt>
      <trkpt lat="48.65078" lon="2.06552">
        <ele>181</ele>
        <time>2026-05-24T08:19:14Z</time>
      </trkpt>
      <trkpt lat="48.65078" lon="2.06546">
        <ele>181</ele>
        <time>2026-05-24T08:19:15Z</time>
      </trkpt>
      <trkpt lat="48.65078" lon="2.0654">
        <ele>181</ele>
        <time>2026-05-24T08:19:16Z</time>
      </trkpt>
      <trkpt lat="48.65078" lon="2.06534">
        <ele>181.6</ele>
        <time>2026-05-24T08:19:17Z</time>
      </trkpt>
      <trkpt lat="48.65077" lon="2.06529">
        <ele>181.6</ele>
        <time>2026-05-24T08:19:18Z</time>
      </trkpt>
      <trkpt lat="48.65077" lon="2.06523">
        <ele>181.6</ele>
        <time>2026-05-24T08:19:19Z</time>
      </trkpt>
      <trkpt lat="48.65076" lon="2.06517">
        <ele>181.2</ele>
        <time>2026-05-24T08:19:20Z</time>
      </trkpt>
      <trkpt lat="48.65076" lon="2.06511">
        <ele>179.4</ele>
        <time>2026-05-24T08:19:21Z</time>
      </trkpt>
      <trkpt lat="48.65075" lon="2.06505">
        <ele>179.4</ele>
        <time>2026-05-24T08:19:22Z</time>
      </trkpt>
      <trkpt lat="48.65074" lon="2.06499">
        <ele>179.4</ele>
        <time>2026-05-24T08:19:23Z</time>
      </trkpt>
      <trkpt lat="48.65074" lon="2.06494">
        <ele>180.4</ele>
        <time>2026-05-24T08:19:24Z</time>
      </trkpt>
      <trkpt lat="48.65073" lon="2.06488">
        <ele>181.6</ele>
        <time>2026-05-24T08:19:25Z</time>
      </trkpt>
      <trkpt lat="48.65072" lon="2.06482">
        <ele>181.6</ele>
        <time>2026-05-24T08:19:26Z</time>
      </trkpt>
      <trkpt lat="48.65072" lon="2.06476">
        <ele>181.6</ele>
        <time>2026-05-24T08:19:27Z</time>
      </trkpt>
      <trkpt lat="48.65071" lon="2.0647">
        <ele>181.6</ele>
        <time>2026-05-24T08:19:28Z</time>
      </trkpt>
      <trkpt lat="48.65071" lon="2.06464">
        <ele>181.6</ele>
        <time>2026-05-24T08:19:29Z</time>
      </trkpt>
      <trkpt lat="48.6507" lon="2.06459">
        <ele>181.6</ele>
        <time>2026-05-24T08:19:30Z</time>
      </trkpt>
      <trkpt lat="48.65069" lon="2.06453">
        <ele>181.6</ele>
        <time>2026-05-24T08:19:31Z</time>
      </trkpt>
      <trkpt lat="48.65069" lon="2.06447">
        <ele>181.6</ele>
        <time>2026-05-24T08:19:32Z</time>
      </trkpt>
      <trkpt lat="48.65068" lon="2.06442">
        <ele>180.8</ele>
        <time>2026-05-24T08:19:33Z</time>
      </trkpt>
      <trkpt lat="48.65067" lon="2.06437">
        <ele>180.8</ele>
        <time>2026-05-24T08:19:34Z</time>
      </trkpt>
      <trkpt lat="48.65067" lon="2.06432">
        <ele>180.8</ele>
        <time>2026-05-24T08:19:35Z</time>
      </trkpt>
      <trkpt lat="48.65066" lon="2.06427">
        <ele>180.8</ele>
        <time>2026-05-24T08:19:36Z</time>
      </trkpt>
      <trkpt lat="48.65066" lon="2.06421">
        <ele>181.8</ele>
        <time>2026-05-24T08:19:37Z</time>
      </trkpt>
      <trkpt lat="48.65065" lon="2.06416">
        <ele>181.8</ele>
        <time>2026-05-24T08:19:38Z</time>
      </trkpt>
      <trkpt lat="48.65065" lon="2.0641">
        <ele>181.8</ele>
        <time>2026-05-24T08:19:39Z</time>
      </trkpt>
      <trkpt lat="48.65065" lon="2.06405">
        <ele>181.8</ele>
        <time>2026-05-24T08:19:40Z</time>
      </trkpt>
      <trkpt lat="48.65064" lon="2.06399">
        <ele>180.6</ele>
        <time>2026-05-24T08:19:41Z</time>
      </trkpt>
      <trkpt lat="48.65064" lon="2.06393">
        <ele>180.6</ele>
        <time>2026-05-24T08:19:42Z</time>
      </trkpt>
      <trkpt lat="48.65063" lon="2.06387">
        <ele>180.6</ele>
        <time>2026-05-24T08:19:43Z</time>
      </trkpt>
      <trkpt lat="48.65063" lon="2.06382">
        <ele>181.6</ele>
        <time>2026-05-24T08:19:44Z</time>
      </trkpt>
      <trkpt lat="48.65062" lon="2.06376">
        <ele>181.8</ele>
        <time>2026-05-24T08:19:45Z</time>
      </trkpt>
      <trkpt lat="48.65062" lon="2.06371">
        <ele>181.8</ele>
        <time>2026-05-24T08:19:46Z</time>
      </trkpt>
      <trkpt lat="48.65062" lon="2.06365">
        <ele>181.8</ele>
        <time>2026-05-24T08:19:47Z</time>
      </trkpt>
      <trkpt lat="48.65061" lon="2.0636">
        <ele>180.8</ele>
        <time>2026-05-24T08:19:48Z</time>
      </trkpt>
      <trkpt lat="48.65061" lon="2.06354">
        <ele>180</ele>
        <time>2026-05-24T08:19:49Z</time>
      </trkpt>
      <trkpt lat="48.65061" lon="2.06349">
        <ele>180</ele>
        <time>2026-05-24T08:19:50Z</time>
      </trkpt>
      <trkpt lat="48.6506" lon="2.06343">
        <ele>180</ele>
        <time>2026-05-24T08:19:51Z</time>
      </trkpt>
      <trkpt lat="48.6506" lon="2.06338">
        <ele>181</ele>
        <time>2026-05-24T08:19:52Z</time>
      </trkpt>
      <trkpt lat="48.65059" lon="2.06332">
        <ele>181</ele>
        <time>2026-05-24T08:19:53Z</time>
      </trkpt>
      <trkpt lat="48.65059" lon="2.06326">
        <ele>181</ele>
        <time>2026-05-24T08:19:54Z</time>
      </trkpt>
      <trkpt lat="48.65058" lon="2.06321">
        <ele>181</ele>
        <time>2026-05-24T08:19:55Z</time>
      </trkpt>
      <trkpt lat="48.65058" lon="2.06315">
        <ele>181</ele>
        <time>2026-05-24T08:19:56Z</time>
      </trkpt>
      <trkpt lat="48.65057" lon="2.0631">
        <ele>180.4</ele>
        <time>2026-05-24T08:19:57Z</time>
      </trkpt>
      <trkpt lat="48.65057" lon="2.06305">
        <ele>180.4</ele>
        <time>2026-05-24T08:19:58Z</time>
      </trkpt>
      <trkpt lat="48.65056" lon="2.063">
        <ele>180.4</ele>
        <time>2026-05-24T08:19:59Z</time>
      </trkpt>
      <trkpt lat="48.65055" lon="2.06296">
        <ele>180.6</ele>
        <time>2026-05-24T08:20:00Z</time>
      </trkpt>
      <trkpt lat="48.65054" lon="2.06291">
        <ele>180.6</ele>
        <time>2026-05-24T08:20:01Z</time>
      </trkpt>
      <trkpt lat="48.65053" lon="2.06286">
        <ele>180.6</ele>
        <time>2026-05-24T08:20:02Z</time>
      </trkpt>
      <trkpt lat="48.65053" lon="2.06282">
        <ele>180.6</ele>
        <time>2026-05-24T08:20:03Z</time>
      </trkpt>
      <trkpt lat="48.65052" lon="2.06278">
        <ele>180.6</ele>
        <time>2026-05-24T08:20:04Z</time>
      </trkpt>
      <trkpt lat="48.65053" lon="2.06273">
        <ele>180.6</ele>
        <time>2026-05-24T08:20:05Z</time>
      </trkpt>
      <trkpt lat="48.65055" lon="2.06271">
        <ele>180.6</ele>
        <time>2026-05-24T08:20:06Z</time>
      </trkpt>
      <trkpt lat="48.65058" lon="2.06271">
        <ele>180.6</ele>
        <time>2026-05-24T08:20:07Z</time>
      </trkpt>
      <trkpt lat="48.65061" lon="2.06272">
        <ele>180.6</ele>
        <time>2026-05-24T08:20:08Z</time>
      </trkpt>
      <trkpt lat="48.65064" lon="2.06273">
        <ele>179.8</ele>
        <time>2026-05-24T08:20:09Z</time>
      </trkpt>
      <trkpt lat="48.65067" lon="2.06274">
        <ele>179.8</ele>
        <time>2026-05-24T08:20:10Z</time>
      </trkpt>
      <trkpt lat="48.65071" lon="2.06275">
        <ele>179.8</ele>
        <time>2026-05-24T08:20:11Z</time>
      </trkpt>
      <trkpt lat="48.65074" lon="2.06277">
        <ele>180.8</ele>
        <time>2026-05-24T08:20:12Z</time>
      </trkpt>
      <trkpt lat="48.65077" lon="2.06278">
        <ele>180.8</ele>
        <time>2026-05-24T08:20:13Z</time>
      </trkpt>
      <trkpt lat="48.65081" lon="2.06279">
        <ele>180.8</ele>
        <time>2026-05-24T08:20:14Z</time>
      </trkpt>
      <trkpt lat="48.65085" lon="2.0628">
        <ele>180.8</ele>
        <time>2026-05-24T08:20:15Z</time>
      </trkpt>
      <trkpt lat="48.65088" lon="2.06282">
        <ele>180.8</ele>
        <time>2026-05-24T08:20:16Z</time>
      </trkpt>
      <trkpt lat="48.65091" lon="2.06284">
        <ele>180.8</ele>
        <time>2026-05-24T08:20:17Z</time>
      </trkpt>
      <trkpt lat="48.65094" lon="2.06287">
        <ele>180.8</ele>
        <time>2026-05-24T08:20:18Z</time>
      </trkpt>
      <trkpt lat="48.65098" lon="2.06289">
        <ele>180.8</ele>
        <time>2026-05-24T08:20:19Z</time>
      </trkpt>
      <trkpt lat="48.65101" lon="2.06292">
        <ele>181.4</ele>
        <time>2026-05-24T08:20:20Z</time>
      </trkpt>
      <trkpt lat="48.65104" lon="2.06294">
        <ele>181.2</ele>
        <time>2026-05-24T08:20:21Z</time>
      </trkpt>
      <trkpt lat="48.65108" lon="2.06297">
        <ele>181.2</ele>
        <time>2026-05-24T08:20:22Z</time>
      </trkpt>
      <trkpt lat="48.65111" lon="2.06299">
        <ele>181.2</ele>
        <time>2026-05-24T08:20:23Z</time>
      </trkpt>
      <trkpt lat="48.65114" lon="2.06302">
        <ele>181.4</ele>
        <time>2026-05-24T08:20:24Z</time>
      </trkpt>
      <trkpt lat="48.65118" lon="2.06305">
        <ele>181.8</ele>
        <time>2026-05-24T08:20:25Z</time>
      </trkpt>
      <trkpt lat="48.65121" lon="2.06307">
        <ele>181.8</ele>
        <time>2026-05-24T08:20:26Z</time>
      </trkpt>
      <trkpt lat="48.65124" lon="2.0631">
        <ele>181.8</ele>
        <time>2026-05-24T08:20:27Z</time>
      </trkpt>
      <trkpt lat="48.65128" lon="2.06312">
        <ele>181.8</ele>
        <time>2026-05-24T08:20:28Z</time>
      </trkpt>
      <trkpt lat="48.65131" lon="2.06314">
        <ele>181.2</ele>
        <time>2026-05-24T08:20:29Z</time>
      </trkpt>
      <trkpt lat="48.65134" lon="2.06316">
        <ele>181.2</ele>
        <time>2026-05-24T08:20:30Z</time>
      </trkpt>
      <trkpt lat="48.65137" lon="2.06318">
        <ele>181.2</ele>
        <time>2026-05-24T08:20:31Z</time>
      </trkpt>
      <trkpt lat="48.65141" lon="2.06321">
        <ele>182</ele>
        <time>2026-05-24T08:20:32Z</time>
      </trkpt>
      <trkpt lat="48.65144" lon="2.06324">
        <ele>181.6</ele>
        <time>2026-05-24T08:20:33Z</time>
      </trkpt>
      <trkpt lat="48.65147" lon="2.06326">
        <ele>181.6</ele>
        <time>2026-05-24T08:20:34Z</time>
      </trkpt>
      <trkpt lat="48.6515" lon="2.06329">
        <ele>181.6</ele>
        <time>2026-05-24T08:20:35Z</time>
      </trkpt>
      <trkpt lat="48.65153" lon="2.06331">
        <ele>181.6</ele>
        <time>2026-05-24T08:20:36Z</time>
      </trkpt>
      <trkpt lat="48.65157" lon="2.06334">
        <ele>183.4</ele>
        <time>2026-05-24T08:20:37Z</time>
      </trkpt>
      <trkpt lat="48.6516" lon="2.06337">
        <ele>183.4</ele>
        <time>2026-05-24T08:20:38Z</time>
      </trkpt>
      <trkpt lat="48.65163" lon="2.06339">
        <ele>183.4</ele>
        <time>2026-05-24T08:20:39Z</time>
      </trkpt>
      <trkpt lat="48.65166" lon="2.06341">
        <ele>182.6</ele>
        <time>2026-05-24T08:20:40Z</time>
      </trkpt>
      <trkpt lat="48.65169" lon="2.06344">
        <ele>182.2</ele>
        <time>2026-05-24T08:20:41Z</time>
      </trkpt>
      <trkpt lat="48.65172" lon="2.06347">
        <ele>182.2</ele>
        <time>2026-05-24T08:20:42Z</time>
      </trkpt>
      <trkpt lat="48.65175" lon="2.06349">
        <ele>182.2</ele>
        <time>2026-05-24T08:20:43Z</time>
      </trkpt>
      <trkpt lat="48.65178" lon="2.06352">
        <ele>182.2</ele>
        <time>2026-05-24T08:20:44Z</time>
      </trkpt>
      <trkpt lat="48.65181" lon="2.06354">
        <ele>182</ele>
        <time>2026-05-24T08:20:45Z</time>
      </trkpt>
      <trkpt lat="48.65184" lon="2.06357">
        <ele>182</ele>
        <time>2026-05-24T08:20:46Z</time>
      </trkpt>
      <trkpt lat="48.65188" lon="2.06359">
        <ele>182</ele>
        <time>2026-05-24T08:20:47Z</time>
      </trkpt>
      <trkpt lat="48.65191" lon="2.06361">
        <ele>182</ele>
        <time>2026-05-24T08:20:48Z</time>
      </trkpt>
      <trkpt lat="48.65194" lon="2.06364">
        <ele>182</ele>
        <time>2026-05-24T08:20:49Z</time>
      </trkpt>
      <trkpt lat="48.65197" lon="2.06367">
        <ele>182</ele>
        <time>2026-05-24T08:20:50Z</time>
      </trkpt>
      <trkpt lat="48.65201" lon="2.06369">
        <ele>182</ele>
        <time>2026-05-24T08:20:51Z</time>
      </trkpt>
      <trkpt lat="48.65204" lon="2.06372">
        <ele>182</ele>
        <time>2026-05-24T08:20:52Z</time>
      </trkpt>
      <trkpt lat="48.65207" lon="2.06374">
        <ele>182.6</ele>
        <time>2026-05-24T08:20:53Z</time>
      </trkpt>
      <trkpt lat="48.6521" lon="2.06377">
        <ele>182.6</ele>
        <time>2026-05-24T08:20:54Z</time>
      </trkpt>
      <trkpt lat="48.65213" lon="2.06379">
        <ele>182.6</ele>
        <time>2026-05-24T08:20:55Z</time>
      </trkpt>
      <trkpt lat="48.65217" lon="2.06381">
        <ele>182.6</ele>
        <time>2026-05-24T08:20:56Z</time>
      </trkpt>
      <trkpt lat="48.6522" lon="2.06384">
        <ele>182.8</ele>
        <time>2026-05-24T08:20:57Z</time>
      </trkpt>
      <trkpt lat="48.65223" lon="2.06386">
        <ele>182.8</ele>
        <time>2026-05-24T08:20:58Z</time>
      </trkpt>
      <trkpt lat="48.65227" lon="2.06388">
        <ele>182.8</ele>
        <time>2026-05-24T08:20:59Z</time>
      </trkpt>
      <trkpt lat="48.6523" lon="2.0639">
        <ele>182.8</ele>
        <time>2026-05-24T08:21:00Z</time>
      </trkpt>
      <trkpt lat="48.65234" lon="2.06392">
        <ele>182.4</ele>
        <time>2026-05-24T08:21:01Z</time>
      </trkpt>
      <trkpt lat="48.65237" lon="2.06395">
        <ele>182.4</ele>
        <time>2026-05-24T08:21:02Z</time>
      </trkpt>
      <trkpt lat="48.6524" lon="2.06397">
        <ele>182.4</ele>
        <time>2026-05-24T08:21:03Z</time>
      </trkpt>
      <trkpt lat="48.65244" lon="2.064">
        <ele>182.4</ele>
        <time>2026-05-24T08:21:04Z</time>
      </trkpt>
      <trkpt lat="48.65247" lon="2.06402">
        <ele>183.2</ele>
        <time>2026-05-24T08:21:05Z</time>
      </trkpt>
      <trkpt lat="48.6525" lon="2.06405">
        <ele>183.2</ele>
        <time>2026-05-24T08:21:06Z</time>
      </trkpt>
      <trkpt lat="48.65253" lon="2.06407">
        <ele>183.2</ele>
        <time>2026-05-24T08:21:07Z</time>
      </trkpt>
      <trkpt lat="48.65256" lon="2.06409">
        <ele>182.8</ele>
        <time>2026-05-24T08:21:08Z</time>
      </trkpt>
      <trkpt lat="48.65259" lon="2.06412">
        <ele>182.8</ele>
        <time>2026-05-24T08:21:09Z</time>
      </trkpt>
      <trkpt lat="48.65262" lon="2.06414">
        <ele>182.8</ele>
        <time>2026-05-24T08:21:10Z</time>
      </trkpt>
      <trkpt lat="48.65265" lon="2.06416">
        <ele>182.8</ele>
        <time>2026-05-24T08:21:11Z</time>
      </trkpt>
      <trkpt lat="48.65268" lon="2.06419">
        <ele>183.8</ele>
        <time>2026-05-24T08:21:12Z</time>
      </trkpt>
      <trkpt lat="48.65272" lon="2.06422">
        <ele>182.8</ele>
        <time>2026-05-24T08:21:13Z</time>
      </trkpt>
      <trkpt lat="48.65275" lon="2.06425">
        <ele>182.8</ele>
        <time>2026-05-24T08:21:14Z</time>
      </trkpt>
      <trkpt lat="48.65278" lon="2.06428">
        <ele>182.8</ele>
        <time>2026-05-24T08:21:15Z</time>
      </trkpt>
      <trkpt lat="48.65281" lon="2.06431">
        <ele>183.2</ele>
        <time>2026-05-24T08:21:16Z</time>
      </trkpt>
      <trkpt lat="48.65284" lon="2.06434">
        <ele>183.6</ele>
        <time>2026-05-24T08:21:17Z</time>
      </trkpt>
      <trkpt lat="48.65287" lon="2.06438">
        <ele>183.6</ele>
        <time>2026-05-24T08:21:18Z</time>
      </trkpt>
      <trkpt lat="48.65289" lon="2.06442">
        <ele>183.6</ele>
        <time>2026-05-24T08:21:19Z</time>
      </trkpt>
      <trkpt lat="48.65291" lon="2.06446">
        <ele>182.8</ele>
        <time>2026-05-24T08:21:20Z</time>
      </trkpt>
      <trkpt lat="48.65293" lon="2.06451">
        <ele>183.2</ele>
        <time>2026-05-24T08:21:21Z</time>
      </trkpt>
      <trkpt lat="48.65294" lon="2.06457">
        <ele>183.2</ele>
        <time>2026-05-24T08:21:22Z</time>
      </trkpt>
      <trkpt lat="48.65295" lon="2.06462">
        <ele>183.2</ele>
        <time>2026-05-24T08:21:23Z</time>
      </trkpt>
      <trkpt lat="48.65297" lon="2.06467">
        <ele>183.8</ele>
        <time>2026-05-24T08:21:24Z</time>
      </trkpt>
      <trkpt lat="48.65298" lon="2.06473">
        <ele>183.6</ele>
        <time>2026-05-24T08:21:25Z</time>
      </trkpt>
      <trkpt lat="48.653" lon="2.06478">
        <ele>183.6</ele>
        <time>2026-05-24T08:21:26Z</time>
      </trkpt>
      <trkpt lat="48.65301" lon="2.06483">
        <ele>183.6</ele>
        <time>2026-05-24T08:21:27Z</time>
      </trkpt>
      <trkpt lat="48.65303" lon="2.06487">
        <ele>183.6</ele>
        <time>2026-05-24T08:21:28Z</time>
      </trkpt>
      <trkpt lat="48.65305" lon="2.06492">
        <ele>184</ele>
        <time>2026-05-24T08:21:29Z</time>
      </trkpt>
      <trkpt lat="48.65307" lon="2.06496">
        <ele>184</ele>
        <time>2026-05-24T08:21:30Z</time>
      </trkpt>
      <trkpt lat="48.65308" lon="2.06501">
        <ele>184</ele>
        <time>2026-05-24T08:21:31Z</time>
      </trkpt>
      <trkpt lat="48.6531" lon="2.06506">
        <ele>183.6</ele>
        <time>2026-05-24T08:21:32Z</time>
      </trkpt>
      <trkpt lat="48.65312" lon="2.06511">
        <ele>183.8</ele>
        <time>2026-05-24T08:21:33Z</time>
      </trkpt>
      <trkpt lat="48.65314" lon="2.06516">
        <ele>183.8</ele>
        <time>2026-05-24T08:21:34Z</time>
      </trkpt>
      <trkpt lat="48.65316" lon="2.06521">
        <ele>183.8</ele>
        <time>2026-05-24T08:21:35Z</time>
      </trkpt>
      <trkpt lat="48.65318" lon="2.06527">
        <ele>183.8</ele>
        <time>2026-05-24T08:21:36Z</time>
      </trkpt>
      <trkpt lat="48.6532" lon="2.06532">
        <ele>183.8</ele>
        <time>2026-05-24T08:21:37Z</time>
      </trkpt>
      <trkpt lat="48.65323" lon="2.06536">
        <ele>183.8</ele>
        <time>2026-05-24T08:21:38Z</time>
      </trkpt>
      <trkpt lat="48.65325" lon="2.06541">
        <ele>183.8</ele>
        <time>2026-05-24T08:21:39Z</time>
      </trkpt>
      <trkpt lat="48.65329" lon="2.06545">
        <ele>183.8</ele>
        <time>2026-05-24T08:21:40Z</time>
      </trkpt>
      <trkpt lat="48.65332" lon="2.06548">
        <ele>183.6</ele>
        <time>2026-05-24T08:21:41Z</time>
      </trkpt>
      <trkpt lat="48.65336" lon="2.06551">
        <ele>183.6</ele>
        <time>2026-05-24T08:21:42Z</time>
      </trkpt>
      <trkpt lat="48.6534" lon="2.06553">
        <ele>183.6</ele>
        <time>2026-05-24T08:21:43Z</time>
      </trkpt>
      <trkpt lat="48.65344" lon="2.06554">
        <ele>183.6</ele>
        <time>2026-05-24T08:21:44Z</time>
      </trkpt>
      <trkpt lat="48.65348" lon="2.06555">
        <ele>183</ele>
        <time>2026-05-24T08:21:45Z</time>
      </trkpt>
      <trkpt lat="48.65353" lon="2.06556">
        <ele>183</ele>
        <time>2026-05-24T08:21:46Z</time>
      </trkpt>
      <trkpt lat="48.65357" lon="2.06556">
        <ele>183</ele>
        <time>2026-05-24T08:21:47Z</time>
      </trkpt>
      <trkpt lat="48.65362" lon="2.06556">
        <ele>183</ele>
        <time>2026-05-24T08:21:48Z</time>
      </trkpt>
      <trkpt lat="48.65366" lon="2.06554">
        <ele>183.2</ele>
        <time>2026-05-24T08:21:49Z</time>
      </trkpt>
      <trkpt lat="48.6537" lon="2.06552">
        <ele>183.2</ele>
        <time>2026-05-24T08:21:50Z</time>
      </trkpt>
      <trkpt lat="48.65375" lon="2.06551">
        <ele>183.2</ele>
        <time>2026-05-24T08:21:51Z</time>
      </trkpt>
      <trkpt lat="48.65379" lon="2.0655">
        <ele>183.2</ele>
        <time>2026-05-24T08:21:52Z</time>
      </trkpt>
      <trkpt lat="48.65383" lon="2.06549">
        <ele>183.8</ele>
        <time>2026-05-24T08:21:53Z</time>
      </trkpt>
      <trkpt lat="48.65388" lon="2.06549">
        <ele>183.8</ele>
        <time>2026-05-24T08:21:54Z</time>
      </trkpt>
      <trkpt lat="48.65392" lon="2.06548">
        <ele>183.8</ele>
        <time>2026-05-24T08:21:55Z</time>
      </trkpt>
      <trkpt lat="48.65396" lon="2.06548">
        <ele>183.8</ele>
        <time>2026-05-24T08:21:56Z</time>
      </trkpt>
      <trkpt lat="48.654" lon="2.06548">
        <ele>183.6</ele>
        <time>2026-05-24T08:21:57Z</time>
      </trkpt>
      <trkpt lat="48.65405" lon="2.06548">
        <ele>183.6</ele>
        <time>2026-05-24T08:21:58Z</time>
      </trkpt>
      <trkpt lat="48.65409" lon="2.06548">
        <ele>183.6</ele>
        <time>2026-05-24T08:21:59Z</time>
      </trkpt>
      <trkpt lat="48.65414" lon="2.06549">
        <ele>183.6</ele>
        <time>2026-05-24T08:22:00Z</time>
      </trkpt>
      <trkpt lat="48.65418" lon="2.06549">
        <ele>183.6</ele>
        <time>2026-05-24T08:22:01Z</time>
      </trkpt>
      <trkpt lat="48.65423" lon="2.06548">
        <ele>183.6</ele>
        <time>2026-05-24T08:22:02Z</time>
      </trkpt>
      <trkpt lat="48.65427" lon="2.06548">
        <ele>183.6</ele>
        <time>2026-05-24T08:22:03Z</time>
      </trkpt>
      <trkpt lat="48.65431" lon="2.06546">
        <ele>183.6</ele>
        <time>2026-05-24T08:22:04Z</time>
      </trkpt>
      <trkpt lat="48.65436" lon="2.06545">
        <ele>184</ele>
        <time>2026-05-24T08:22:05Z</time>
      </trkpt>
      <trkpt lat="48.6544" lon="2.06543">
        <ele>184</ele>
        <time>2026-05-24T08:22:06Z</time>
      </trkpt>
      <trkpt lat="48.65444" lon="2.06539">
        <ele>184</ele>
        <time>2026-05-24T08:22:07Z</time>
      </trkpt>
      <trkpt lat="48.65447" lon="2.06534">
        <ele>184</ele>
        <time>2026-05-24T08:22:08Z</time>
      </trkpt>
      <trkpt lat="48.65449" lon="2.06529">
        <ele>183.8</ele>
        <time>2026-05-24T08:22:09Z</time>
      </trkpt>
      <trkpt lat="48.65451" lon="2.06523">
        <ele>183.8</ele>
        <time>2026-05-24T08:22:10Z</time>
      </trkpt>
      <trkpt lat="48.65453" lon="2.06516">
        <ele>183.8</ele>
        <time>2026-05-24T08:22:11Z</time>
      </trkpt>
      <trkpt lat="48.65454" lon="2.0651">
        <ele>184.2</ele>
        <time>2026-05-24T08:22:12Z</time>
      </trkpt>
      <trkpt lat="48.65455" lon="2.06503">
        <ele>184</ele>
        <time>2026-05-24T08:22:13Z</time>
      </trkpt>
      <trkpt lat="48.65456" lon="2.06496">
        <ele>184</ele>
        <time>2026-05-24T08:22:14Z</time>
      </trkpt>
      <trkpt lat="48.65457" lon="2.06489">
        <ele>184</ele>
        <time>2026-05-24T08:22:15Z</time>
      </trkpt>
      <trkpt lat="48.65459" lon="2.06483">
        <ele>184</ele>
        <time>2026-05-24T08:22:16Z</time>
      </trkpt>
      <trkpt lat="48.6546" lon="2.06476">
        <ele>184.4</ele>
        <time>2026-05-24T08:22:17Z</time>
      </trkpt>
      <trkpt lat="48.65461" lon="2.06469">
        <ele>184.4</ele>
        <time>2026-05-24T08:22:18Z</time>
      </trkpt>
      <trkpt lat="48.65463" lon="2.06463">
        <ele>184.4</ele>
        <time>2026-05-24T08:22:19Z</time>
      </trkpt>
      <trkpt lat="48.65464" lon="2.06456">
        <ele>183.8</ele>
        <time>2026-05-24T08:22:20Z</time>
      </trkpt>
      <trkpt lat="48.65465" lon="2.06449">
        <ele>184.2</ele>
        <time>2026-05-24T08:22:21Z</time>
      </trkpt>
      <trkpt lat="48.65467" lon="2.06442">
        <ele>184.2</ele>
        <time>2026-05-24T08:22:22Z</time>
      </trkpt>
      <trkpt lat="48.65468" lon="2.06436">
        <ele>184.2</ele>
        <time>2026-05-24T08:22:23Z</time>
      </trkpt>
      <trkpt lat="48.65469" lon="2.06429">
        <ele>184.2</ele>
        <time>2026-05-24T08:22:24Z</time>
      </trkpt>
      <trkpt lat="48.6547" lon="2.06422">
        <ele>183.8</ele>
        <time>2026-05-24T08:22:25Z</time>
      </trkpt>
      <trkpt lat="48.65472" lon="2.06415">
        <ele>183.8</ele>
        <time>2026-05-24T08:22:26Z</time>
      </trkpt>
      <trkpt lat="48.65473" lon="2.06408">
        <ele>183.8</ele>
        <time>2026-05-24T08:22:27Z</time>
      </trkpt>
      <trkpt lat="48.65474" lon="2.06401">
        <ele>183.8</ele>
        <time>2026-05-24T08:22:28Z</time>
      </trkpt>
      <trkpt lat="48.65476" lon="2.06395">
        <ele>184.2</ele>
        <time>2026-05-24T08:22:29Z</time>
      </trkpt>
      <trkpt lat="48.65478" lon="2.06388">
        <ele>184.2</ele>
        <time>2026-05-24T08:22:30Z</time>
      </trkpt>
      <trkpt lat="48.65479" lon="2.06382">
        <ele>184.2</ele>
        <time>2026-05-24T08:22:31Z</time>
      </trkpt>
      <trkpt lat="48.6548" lon="2.06375">
        <ele>184.2</ele>
        <time>2026-05-24T08:22:32Z</time>
      </trkpt>
      <trkpt lat="48.65481" lon="2.06369">
        <ele>183.8</ele>
        <time>2026-05-24T08:22:33Z</time>
      </trkpt>
      <trkpt lat="48.65482" lon="2.06363">
        <ele>183.8</ele>
        <time>2026-05-24T08:22:34Z</time>
      </trkpt>
      <trkpt lat="48.65484" lon="2.06357">
        <ele>183.8</ele>
        <time>2026-05-24T08:22:35Z</time>
      </trkpt>
      <trkpt lat="48.65485" lon="2.06351">
        <ele>183.8</ele>
        <time>2026-05-24T08:22:36Z</time>
      </trkpt>
      <trkpt lat="48.65486" lon="2.06344">
        <ele>183.8</ele>
        <time>2026-05-24T08:22:37Z</time>
      </trkpt>
      <trkpt lat="48.65488" lon="2.06338">
        <ele>183.8</ele>
        <time>2026-05-24T08:22:38Z</time>
      </trkpt>
      <trkpt lat="48.65489" lon="2.06331">
        <ele>183.8</ele>
        <time>2026-05-24T08:22:39Z</time>
      </trkpt>
      <trkpt lat="48.65491" lon="2.06324">
        <ele>183.8</ele>
        <time>2026-05-24T08:22:40Z</time>
      </trkpt>
      <trkpt lat="48.65492" lon="2.06318">
        <ele>183.8</ele>
        <time>2026-05-24T08:22:41Z</time>
      </trkpt>
      <trkpt lat="48.65493" lon="2.06311">
        <ele>183.8</ele>
        <time>2026-05-24T08:22:42Z</time>
      </trkpt>
      <trkpt lat="48.65495" lon="2.06304">
        <ele>183.8</ele>
        <time>2026-05-24T08:22:43Z</time>
      </trkpt>
      <trkpt lat="48.65496" lon="2.06297">
        <ele>183.8</ele>
        <time>2026-05-24T08:22:44Z</time>
      </trkpt>
      <trkpt lat="48.65497" lon="2.06289">
        <ele>184</ele>
        <time>2026-05-24T08:22:45Z</time>
      </trkpt>
      <trkpt lat="48.65499" lon="2.06282">
        <ele>184</ele>
        <time>2026-05-24T08:22:46Z</time>
      </trkpt>
      <trkpt lat="48.655" lon="2.06275">
        <ele>184</ele>
        <time>2026-05-24T08:22:47Z</time>
      </trkpt>
      <trkpt lat="48.65501" lon="2.06267">
        <ele>183.8</ele>
        <time>2026-05-24T08:22:48Z</time>
      </trkpt>
      <trkpt lat="48.65502" lon="2.0626">
        <ele>183.8</ele>
        <time>2026-05-24T08:22:49Z</time>
      </trkpt>
      <trkpt lat="48.65504" lon="2.06253">
        <ele>183.8</ele>
        <time>2026-05-24T08:22:50Z</time>
      </trkpt>
      <trkpt lat="48.65505" lon="2.06245">
        <ele>183.8</ele>
        <time>2026-05-24T08:22:51Z</time>
      </trkpt>
      <trkpt lat="48.65507" lon="2.06238">
        <ele>183.8</ele>
        <time>2026-05-24T08:22:52Z</time>
      </trkpt>
      <trkpt lat="48.65508" lon="2.06231">
        <ele>184.8</ele>
        <time>2026-05-24T08:22:53Z</time>
      </trkpt>
      <trkpt lat="48.6551" lon="2.06223">
        <ele>184.8</ele>
        <time>2026-05-24T08:22:54Z</time>
      </trkpt>
      <trkpt lat="48.65511" lon="2.06216">
        <ele>184.8</ele>
        <time>2026-05-24T08:22:55Z</time>
      </trkpt>
      <trkpt lat="48.65513" lon="2.06209">
        <ele>184</ele>
        <time>2026-05-24T08:22:56Z</time>
      </trkpt>
      <trkpt lat="48.65514" lon="2.06202">
        <ele>184.2</ele>
        <time>2026-05-24T08:22:57Z</time>
      </trkpt>
      <trkpt lat="48.65515" lon="2.06195">
        <ele>184.2</ele>
        <time>2026-05-24T08:22:58Z</time>
      </trkpt>
      <trkpt lat="48.65517" lon="2.06188">
        <ele>184.2</ele>
        <time>2026-05-24T08:22:59Z</time>
      </trkpt>
      <trkpt lat="48.65518" lon="2.06181">
        <ele>183.8</ele>
        <time>2026-05-24T08:23:00Z</time>
      </trkpt>
      <trkpt lat="48.65519" lon="2.06175">
        <ele>184.4</ele>
        <time>2026-05-24T08:23:01Z</time>
      </trkpt>
      <trkpt lat="48.65521" lon="2.06169">
        <ele>184.4</ele>
        <time>2026-05-24T08:23:02Z</time>
      </trkpt>
      <trkpt lat="48.65521" lon="2.06162">
        <ele>184.4</ele>
        <time>2026-05-24T08:23:03Z</time>
      </trkpt>
      <trkpt lat="48.65523" lon="2.06155">
        <ele>184</ele>
        <time>2026-05-24T08:23:04Z</time>
      </trkpt>
      <trkpt lat="48.65524" lon="2.06148">
        <ele>183.8</ele>
        <time>2026-05-24T08:23:05Z</time>
      </trkpt>
      <trkpt lat="48.65525" lon="2.06142">
        <ele>183.8</ele>
        <time>2026-05-24T08:23:06Z</time>
      </trkpt>
      <trkpt lat="48.65527" lon="2.06135">
        <ele>183.8</ele>
        <time>2026-05-24T08:23:07Z</time>
      </trkpt>
      <trkpt lat="48.65528" lon="2.06128">
        <ele>183.8</ele>
        <time>2026-05-24T08:23:08Z</time>
      </trkpt>
      <trkpt lat="48.65529" lon="2.06122">
        <ele>184</ele>
        <time>2026-05-24T08:23:09Z</time>
      </trkpt>
      <trkpt lat="48.6553" lon="2.06114">
        <ele>184</ele>
        <time>2026-05-24T08:23:10Z</time>
      </trkpt>
      <trkpt lat="48.65532" lon="2.06108">
        <ele>184</ele>
        <time>2026-05-24T08:23:11Z</time>
      </trkpt>
      <trkpt lat="48.65533" lon="2.06102">
        <ele>184</ele>
        <time>2026-05-24T08:23:12Z</time>
      </trkpt>
      <trkpt lat="48.65535" lon="2.06095">
        <ele>183.8</ele>
        <time>2026-05-24T08:23:13Z</time>
      </trkpt>
      <trkpt lat="48.65536" lon="2.06088">
        <ele>183.8</ele>
        <time>2026-05-24T08:23:14Z</time>
      </trkpt>
      <trkpt lat="48.65537" lon="2.06081">
        <ele>183.8</ele>
        <time>2026-05-24T08:23:15Z</time>
      </trkpt>
      <trkpt lat="48.65538" lon="2.06074">
        <ele>183.8</ele>
        <time>2026-05-24T08:23:16Z</time>
      </trkpt>
      <trkpt lat="48.6554" lon="2.06067">
        <ele>184.8</ele>
        <time>2026-05-24T08:23:17Z</time>
      </trkpt>
      <trkpt lat="48.65541" lon="2.0606">
        <ele>184.8</ele>
        <time>2026-05-24T08:23:18Z</time>
      </trkpt>
      <trkpt lat="48.65542" lon="2.06053">
        <ele>184.8</ele>
        <time>2026-05-24T08:23:19Z</time>
      </trkpt>
      <trkpt lat="48.65543" lon="2.06046">
        <ele>184.4</ele>
        <time>2026-05-24T08:23:20Z</time>
      </trkpt>
      <trkpt lat="48.65544" lon="2.06039">
        <ele>184.2</ele>
        <time>2026-05-24T08:23:21Z</time>
      </trkpt>
      <trkpt lat="48.65545" lon="2.06032">
        <ele>184.2</ele>
        <time>2026-05-24T08:23:22Z</time>
      </trkpt>
      <trkpt lat="48.65546" lon="2.06025">
        <ele>184.2</ele>
        <time>2026-05-24T08:23:23Z</time>
      </trkpt>
      <trkpt lat="48.65548" lon="2.06018">
        <ele>184.2</ele>
        <time>2026-05-24T08:23:24Z</time>
      </trkpt>
      <trkpt lat="48.65549" lon="2.06011">
        <ele>184.2</ele>
        <time>2026-05-24T08:23:25Z</time>
      </trkpt>
      <trkpt lat="48.6555" lon="2.06004">
        <ele>184.2</ele>
        <time>2026-05-24T08:23:26Z</time>
      </trkpt>
      <trkpt lat="48.65552" lon="2.05997">
        <ele>184.2</ele>
        <time>2026-05-24T08:23:27Z</time>
      </trkpt>
      <trkpt lat="48.65554" lon="2.0599">
        <ele>184.2</ele>
        <time>2026-05-24T08:23:28Z</time>
      </trkpt>
      <trkpt lat="48.65556" lon="2.05983">
        <ele>184.8</ele>
        <time>2026-05-24T08:23:29Z</time>
      </trkpt>
      <trkpt lat="48.65558" lon="2.05976">
        <ele>184.8</ele>
        <time>2026-05-24T08:23:30Z</time>
      </trkpt>
      <trkpt lat="48.65558" lon="2.05969">
        <ele>184.8</ele>
        <time>2026-05-24T08:23:31Z</time>
      </trkpt>
      <trkpt lat="48.6556" lon="2.05961">
        <ele>184</ele>
        <time>2026-05-24T08:23:32Z</time>
      </trkpt>
      <trkpt lat="48.65562" lon="2.05954">
        <ele>184</ele>
        <time>2026-05-24T08:23:33Z</time>
      </trkpt>
      <trkpt lat="48.65563" lon="2.05947">
        <ele>184</ele>
        <time>2026-05-24T08:23:34Z</time>
      </trkpt>
      <trkpt lat="48.65564" lon="2.05939">
        <ele>184</ele>
        <time>2026-05-24T08:23:35Z</time>
      </trkpt>
      <trkpt lat="48.65566" lon="2.05931">
        <ele>184</ele>
        <time>2026-05-24T08:23:36Z</time>
      </trkpt>
      <trkpt lat="48.65567" lon="2.05924">
        <ele>185</ele>
        <time>2026-05-24T08:23:37Z</time>
      </trkpt>
      <trkpt lat="48.65569" lon="2.05916">
        <ele>185</ele>
        <time>2026-05-24T08:23:38Z</time>
      </trkpt>
      <trkpt lat="48.65571" lon="2.05909">
        <ele>185</ele>
        <time>2026-05-24T08:23:39Z</time>
      </trkpt>
      <trkpt lat="48.65573" lon="2.05901">
        <ele>184.2</ele>
        <time>2026-05-24T08:23:40Z</time>
      </trkpt>
      <trkpt lat="48.65574" lon="2.05894">
        <ele>184</ele>
        <time>2026-05-24T08:23:41Z</time>
      </trkpt>
      <trkpt lat="48.65576" lon="2.05886">
        <ele>184</ele>
        <time>2026-05-24T08:23:42Z</time>
      </trkpt>
      <trkpt lat="48.65578" lon="2.05879">
        <ele>184</ele>
        <time>2026-05-24T08:23:43Z</time>
      </trkpt>
      <trkpt lat="48.65579" lon="2.05871">
        <ele>184.6</ele>
        <time>2026-05-24T08:23:44Z</time>
      </trkpt>
      <trkpt lat="48.65581" lon="2.05864">
        <ele>184</ele>
        <time>2026-05-24T08:23:45Z</time>
      </trkpt>
      <trkpt lat="48.65582" lon="2.05856">
        <ele>184</ele>
        <time>2026-05-24T08:23:46Z</time>
      </trkpt>
      <trkpt lat="48.65584" lon="2.05849">
        <ele>184</ele>
        <time>2026-05-24T08:23:47Z</time>
      </trkpt>
      <trkpt lat="48.65586" lon="2.05841">
        <ele>184</ele>
        <time>2026-05-24T08:23:48Z</time>
      </trkpt>
      <trkpt lat="48.65587" lon="2.05834">
        <ele>184.2</ele>
        <time>2026-05-24T08:23:49Z</time>
      </trkpt>
      <trkpt lat="48.65589" lon="2.05826">
        <ele>184.2</ele>
        <time>2026-05-24T08:23:50Z</time>
      </trkpt>
      <trkpt lat="48.6559" lon="2.05818">
        <ele>184.2</ele>
        <time>2026-05-24T08:23:51Z</time>
      </trkpt>
      <trkpt lat="48.65592" lon="2.0581">
        <ele>184.2</ele>
        <time>2026-05-24T08:23:52Z</time>
      </trkpt>
      <trkpt lat="48.65594" lon="2.05803">
        <ele>184</ele>
        <time>2026-05-24T08:23:53Z</time>
      </trkpt>
      <trkpt lat="48.65595" lon="2.05795">
        <ele>184</ele>
        <time>2026-05-24T08:23:54Z</time>
      </trkpt>
      <trkpt lat="48.65597" lon="2.05788">
        <ele>184</ele>
        <time>2026-05-24T08:23:55Z</time>
      </trkpt>
      <trkpt lat="48.65598" lon="2.0578">
        <ele>184.6</ele>
        <time>2026-05-24T08:23:56Z</time>
      </trkpt>
      <trkpt lat="48.65599" lon="2.05773">
        <ele>184.2</ele>
        <time>2026-05-24T08:23:57Z</time>
      </trkpt>
      <trkpt lat="48.65601" lon="2.05765">
        <ele>184.2</ele>
        <time>2026-05-24T08:23:58Z</time>
      </trkpt>
      <trkpt lat="48.65603" lon="2.05758">
        <ele>184.2</ele>
        <time>2026-05-24T08:23:59Z</time>
      </trkpt>
      <trkpt lat="48.65604" lon="2.0575">
        <ele>184.2</ele>
        <time>2026-05-24T08:24:00Z</time>
      </trkpt>
      <trkpt lat="48.65606" lon="2.05743">
        <ele>184.2</ele>
        <time>2026-05-24T08:24:01Z</time>
      </trkpt>
      <trkpt lat="48.65607" lon="2.05735">
        <ele>184.2</ele>
        <time>2026-05-24T08:24:02Z</time>
      </trkpt>
      <trkpt lat="48.65608" lon="2.05727">
        <ele>184.2</ele>
        <time>2026-05-24T08:24:03Z</time>
      </trkpt>
      <trkpt lat="48.6561" lon="2.0572">
        <ele>184.4</ele>
        <time>2026-05-24T08:24:04Z</time>
      </trkpt>
      <trkpt lat="48.65611" lon="2.05712">
        <ele>184.2</ele>
        <time>2026-05-24T08:24:05Z</time>
      </trkpt>
      <trkpt lat="48.65612" lon="2.05704">
        <ele>184.2</ele>
        <time>2026-05-24T08:24:06Z</time>
      </trkpt>
      <trkpt lat="48.65613" lon="2.05696">
        <ele>184.2</ele>
        <time>2026-05-24T08:24:07Z</time>
      </trkpt>
      <trkpt lat="48.65613" lon="2.05688">
        <ele>184.2</ele>
        <time>2026-05-24T08:24:08Z</time>
      </trkpt>
      <trkpt lat="48.65614" lon="2.0568">
        <ele>184.2</ele>
        <time>2026-05-24T08:24:09Z</time>
      </trkpt>
      <trkpt lat="48.65614" lon="2.05671">
        <ele>184.2</ele>
        <time>2026-05-24T08:24:10Z</time>
      </trkpt>
      <trkpt lat="48.65615" lon="2.05663">
        <ele>184.2</ele>
        <time>2026-05-24T08:24:11Z</time>
      </trkpt>
      <trkpt lat="48.65615" lon="2.05655">
        <ele>184.4</ele>
        <time>2026-05-24T08:24:12Z</time>
      </trkpt>
      <trkpt lat="48.65616" lon="2.05647">
        <ele>184.4</ele>
        <time>2026-05-24T08:24:13Z</time>
      </trkpt>
      <trkpt lat="48.65616" lon="2.05638">
        <ele>184.4</ele>
        <time>2026-05-24T08:24:14Z</time>
      </trkpt>
      <trkpt lat="48.65617" lon="2.0563">
        <ele>184.4</ele>
        <time>2026-05-24T08:24:15Z</time>
      </trkpt>
      <trkpt lat="48.65617" lon="2.05622">
        <ele>184.4</ele>
        <time>2026-05-24T08:24:16Z</time>
      </trkpt>
      <trkpt lat="48.65618" lon="2.05613">
        <ele>184.2</ele>
        <time>2026-05-24T08:24:17Z</time>
      </trkpt>
      <trkpt lat="48.65618" lon="2.05605">
        <ele>184.2</ele>
        <time>2026-05-24T08:24:18Z</time>
      </trkpt>
      <trkpt lat="48.65619" lon="2.05597">
        <ele>184.2</ele>
        <time>2026-05-24T08:24:19Z</time>
      </trkpt>
      <trkpt lat="48.65619" lon="2.0559">
        <ele>184.2</ele>
        <time>2026-05-24T08:24:20Z</time>
      </trkpt>
      <trkpt lat="48.6562" lon="2.05582">
        <ele>184.2</ele>
        <time>2026-05-24T08:24:21Z</time>
      </trkpt>
      <trkpt lat="48.6562" lon="2.05574">
        <ele>184.2</ele>
        <time>2026-05-24T08:24:22Z</time>
      </trkpt>
      <trkpt lat="48.65621" lon="2.05566">
        <ele>184.2</ele>
        <time>2026-05-24T08:24:23Z</time>
      </trkpt>
      <trkpt lat="48.65621" lon="2.05558">
        <ele>183.8</ele>
        <time>2026-05-24T08:24:24Z</time>
      </trkpt>
      <trkpt lat="48.65621" lon="2.0555">
        <ele>184.6</ele>
        <time>2026-05-24T08:24:25Z</time>
      </trkpt>
      <trkpt lat="48.65621" lon="2.05542">
        <ele>184.6</ele>
        <time>2026-05-24T08:24:26Z</time>
      </trkpt>
      <trkpt lat="48.65622" lon="2.05534">
        <ele>184.6</ele>
        <time>2026-05-24T08:24:27Z</time>
      </trkpt>
      <trkpt lat="48.65622" lon="2.05526">
        <ele>183.6</ele>
        <time>2026-05-24T08:24:28Z</time>
      </trkpt>
      <trkpt lat="48.65622" lon="2.05517">
        <ele>183</ele>
        <time>2026-05-24T08:24:29Z</time>
      </trkpt>
      <trkpt lat="48.65623" lon="2.05509">
        <ele>183</ele>
        <time>2026-05-24T08:24:30Z</time>
      </trkpt>
      <trkpt lat="48.65623" lon="2.05501">
        <ele>183</ele>
        <time>2026-05-24T08:24:31Z</time>
      </trkpt>
      <trkpt lat="48.65624" lon="2.05492">
        <ele>183.2</ele>
        <time>2026-05-24T08:24:32Z</time>
      </trkpt>
      <trkpt lat="48.65624" lon="2.05484">
        <ele>183.8</ele>
        <time>2026-05-24T08:24:33Z</time>
      </trkpt>
      <trkpt lat="48.65625" lon="2.05475">
        <ele>183.8</ele>
        <time>2026-05-24T08:24:34Z</time>
      </trkpt>
      <trkpt lat="48.65625" lon="2.05467">
        <ele>183.8</ele>
        <time>2026-05-24T08:24:35Z</time>
      </trkpt>
      <trkpt lat="48.65626" lon="2.05459">
        <ele>182.8</ele>
        <time>2026-05-24T08:24:36Z</time>
      </trkpt>
      <trkpt lat="48.65626" lon="2.0545">
        <ele>183.6</ele>
        <time>2026-05-24T08:24:37Z</time>
      </trkpt>
      <trkpt lat="48.65627" lon="2.05442">
        <ele>183.6</ele>
        <time>2026-05-24T08:24:38Z</time>
      </trkpt>
      <trkpt lat="48.65627" lon="2.05434">
        <ele>183.6</ele>
        <time>2026-05-24T08:24:39Z</time>
      </trkpt>
      <trkpt lat="48.65628" lon="2.05426">
        <ele>183.6</ele>
        <time>2026-05-24T08:24:40Z</time>
      </trkpt>
      <trkpt lat="48.65628" lon="2.05418">
        <ele>183.2</ele>
        <time>2026-05-24T08:24:41Z</time>
      </trkpt>
      <trkpt lat="48.65628" lon="2.0541">
        <ele>183.2</ele>
        <time>2026-05-24T08:24:42Z</time>
      </trkpt>
      <trkpt lat="48.65628" lon="2.05402">
        <ele>183.2</ele>
        <time>2026-05-24T08:24:43Z</time>
      </trkpt>
      <trkpt lat="48.65628" lon="2.05393">
        <ele>183.2</ele>
        <time>2026-05-24T08:24:44Z</time>
      </trkpt>
      <trkpt lat="48.65628" lon="2.05385">
        <ele>183</ele>
        <time>2026-05-24T08:24:45Z</time>
      </trkpt>
      <trkpt lat="48.65628" lon="2.05378">
        <ele>183</ele>
        <time>2026-05-24T08:24:46Z</time>
      </trkpt>
      <trkpt lat="48.65628" lon="2.0537">
        <ele>183</ele>
        <time>2026-05-24T08:24:47Z</time>
      </trkpt>
      <trkpt lat="48.65629" lon="2.05363">
        <ele>183.8</ele>
        <time>2026-05-24T08:24:48Z</time>
      </trkpt>
      <trkpt lat="48.65629" lon="2.05356">
        <ele>183.6</ele>
        <time>2026-05-24T08:24:49Z</time>
      </trkpt>
      <trkpt lat="48.6563" lon="2.0535">
        <ele>183.6</ele>
        <time>2026-05-24T08:24:50Z</time>
      </trkpt>
      <trkpt lat="48.6563" lon="2.05343">
        <ele>183.6</ele>
        <time>2026-05-24T08:24:51Z</time>
      </trkpt>
      <trkpt lat="48.6563" lon="2.05336">
        <ele>183.6</ele>
        <time>2026-05-24T08:24:52Z</time>
      </trkpt>
      <trkpt lat="48.65631" lon="2.05329">
        <ele>183.8</ele>
        <time>2026-05-24T08:24:53Z</time>
      </trkpt>
      <trkpt lat="48.65631" lon="2.05323">
        <ele>183.8</ele>
        <time>2026-05-24T08:24:54Z</time>
      </trkpt>
      <trkpt lat="48.65631" lon="2.05316">
        <ele>183.8</ele>
        <time>2026-05-24T08:24:55Z</time>
      </trkpt>
      <trkpt lat="48.65632" lon="2.05309">
        <ele>183.2</ele>
        <time>2026-05-24T08:24:56Z</time>
      </trkpt>
      <trkpt lat="48.65632" lon="2.05302">
        <ele>183.6</ele>
        <time>2026-05-24T08:24:57Z</time>
      </trkpt>
      <trkpt lat="48.65632" lon="2.05295">
        <ele>183.6</ele>
        <time>2026-05-24T08:24:58Z</time>
      </trkpt>
      <trkpt lat="48.65633" lon="2.05289">
        <ele>183.6</ele>
        <time>2026-05-24T08:24:59Z</time>
      </trkpt>
      <trkpt lat="48.65633" lon="2.05282">
        <ele>183.6</ele>
        <time>2026-05-24T08:25:00Z</time>
      </trkpt>
      <trkpt lat="48.65635" lon="2.05276">
        <ele>185.6</ele>
        <time>2026-05-24T08:25:01Z</time>
      </trkpt>
      <trkpt lat="48.65636" lon="2.05271">
        <ele>185.6</ele>
        <time>2026-05-24T08:25:02Z</time>
      </trkpt>
      <trkpt lat="48.65638" lon="2.05265">
        <ele>185.6</ele>
        <time>2026-05-24T08:25:03Z</time>
      </trkpt>
      <trkpt lat="48.65639" lon="2.0526">
        <ele>184.6</ele>
        <time>2026-05-24T08:25:04Z</time>
      </trkpt>
      <trkpt lat="48.65642" lon="2.05256">
        <ele>183.6</ele>
        <time>2026-05-24T08:25:05Z</time>
      </trkpt>
      <trkpt lat="48.65645" lon="2.05253">
        <ele>183.6</ele>
        <time>2026-05-24T08:25:06Z</time>
      </trkpt>
      <trkpt lat="48.65648" lon="2.05252">
        <ele>183.6</ele>
        <time>2026-05-24T08:25:07Z</time>
      </trkpt>
      <trkpt lat="48.65653" lon="2.05252">
        <ele>182.6</ele>
        <time>2026-05-24T08:25:08Z</time>
      </trkpt>
      <trkpt lat="48.65657" lon="2.05253">
        <ele>182.2</ele>
        <time>2026-05-24T08:25:09Z</time>
      </trkpt>
      <trkpt lat="48.6566" lon="2.05257">
        <ele>182.2</ele>
        <time>2026-05-24T08:25:10Z</time>
      </trkpt>
      <trkpt lat="48.65664" lon="2.0526">
        <ele>182.2</ele>
        <time>2026-05-24T08:25:11Z</time>
      </trkpt>
      <trkpt lat="48.65668" lon="2.05263">
        <ele>183.2</ele>
        <time>2026-05-24T08:25:12Z</time>
      </trkpt>
      <trkpt lat="48.65672" lon="2.05267">
        <ele>182.4</ele>
        <time>2026-05-24T08:25:13Z</time>
      </trkpt>
      <trkpt lat="48.65676" lon="2.0527">
        <ele>182.4</ele>
        <time>2026-05-24T08:25:14Z</time>
      </trkpt>
      <trkpt lat="48.6568" lon="2.05273">
        <ele>182.4</ele>
        <time>2026-05-24T08:25:15Z</time>
      </trkpt>
      <trkpt lat="48.65684" lon="2.05276">
        <ele>182.4</ele>
        <time>2026-05-24T08:25:16Z</time>
      </trkpt>
      <trkpt lat="48.65688" lon="2.05279">
        <ele>183</ele>
        <time>2026-05-24T08:25:17Z</time>
      </trkpt>
      <trkpt lat="48.65692" lon="2.05282">
        <ele>183</ele>
        <time>2026-05-24T08:25:18Z</time>
      </trkpt>
      <trkpt lat="48.65696" lon="2.05285">
        <ele>183</ele>
        <time>2026-05-24T08:25:19Z</time>
      </trkpt>
      <trkpt lat="48.657" lon="2.05288">
        <ele>183</ele>
        <time>2026-05-24T08:25:20Z</time>
      </trkpt>
      <trkpt lat="48.65704" lon="2.05291">
        <ele>182.8</ele>
        <time>2026-05-24T08:25:21Z</time>
      </trkpt>
      <trkpt lat="48.65709" lon="2.05293">
        <ele>182.8</ele>
        <time>2026-05-24T08:25:22Z</time>
      </trkpt>
      <trkpt lat="48.65713" lon="2.05297">
        <ele>182.8</ele>
        <time>2026-05-24T08:25:23Z</time>
      </trkpt>
      <trkpt lat="48.65717" lon="2.053">
        <ele>182.8</ele>
        <time>2026-05-24T08:25:24Z</time>
      </trkpt>
      <trkpt lat="48.65721" lon="2.05302">
        <ele>182.2</ele>
        <time>2026-05-24T08:25:25Z</time>
      </trkpt>
      <trkpt lat="48.65725" lon="2.05305">
        <ele>182.2</ele>
        <time>2026-05-24T08:25:26Z</time>
      </trkpt>
      <trkpt lat="48.65729" lon="2.05307">
        <ele>182.2</ele>
        <time>2026-05-24T08:25:27Z</time>
      </trkpt>
      <trkpt lat="48.65734" lon="2.0531">
        <ele>183.2</ele>
        <time>2026-05-24T08:25:28Z</time>
      </trkpt>
      <trkpt lat="48.65738" lon="2.05312">
        <ele>181.8</ele>
        <time>2026-05-24T08:25:29Z</time>
      </trkpt>
      <trkpt lat="48.65742" lon="2.05314">
        <ele>181.8</ele>
        <time>2026-05-24T08:25:30Z</time>
      </trkpt>
      <trkpt lat="48.65747" lon="2.05316">
        <ele>181.8</ele>
        <time>2026-05-24T08:25:31Z</time>
      </trkpt>
      <trkpt lat="48.65751" lon="2.05319">
        <ele>182.4</ele>
        <time>2026-05-24T08:25:32Z</time>
      </trkpt>
      <trkpt lat="48.65755" lon="2.05321">
        <ele>182.4</ele>
        <time>2026-05-24T08:25:33Z</time>
      </trkpt>
      <trkpt lat="48.6576" lon="2.05323">
        <ele>182.4</ele>
        <time>2026-05-24T08:25:34Z</time>
      </trkpt>
      <trkpt lat="48.65764" lon="2.05326">
        <ele>182.4</ele>
        <time>2026-05-24T08:25:35Z</time>
      </trkpt>
      <trkpt lat="48.65768" lon="2.05328">
        <ele>182.8</ele>
        <time>2026-05-24T08:25:36Z</time>
      </trkpt>
      <trkpt lat="48.65773" lon="2.0533">
        <ele>183</ele>
        <time>2026-05-24T08:25:37Z</time>
      </trkpt>
      <trkpt lat="48.65777" lon="2.05332">
        <ele>183</ele>
        <time>2026-05-24T08:25:38Z</time>
      </trkpt>
      <trkpt lat="48.65782" lon="2.05333">
        <ele>183</ele>
        <time>2026-05-24T08:25:39Z</time>
      </trkpt>
      <trkpt lat="48.65786" lon="2.05335">
        <ele>182.8</ele>
        <time>2026-05-24T08:25:40Z</time>
      </trkpt>
      <trkpt lat="48.65791" lon="2.05337">
        <ele>182</ele>
        <time>2026-05-24T08:25:41Z</time>
      </trkpt>
      <trkpt lat="48.65795" lon="2.05339">
        <ele>182</ele>
        <time>2026-05-24T08:25:42Z</time>
      </trkpt>
      <trkpt lat="48.658" lon="2.05342">
        <ele>182</ele>
        <time>2026-05-24T08:25:43Z</time>
      </trkpt>
      <trkpt lat="48.65804" lon="2.05344">
        <ele>182</ele>
        <time>2026-05-24T08:25:44Z</time>
      </trkpt>
      <trkpt lat="48.65809" lon="2.05346">
        <ele>183.2</ele>
        <time>2026-05-24T08:25:45Z</time>
      </trkpt>
      <trkpt lat="48.65813" lon="2.05348">
        <ele>183.2</ele>
        <time>2026-05-24T08:25:46Z</time>
      </trkpt>
      <trkpt lat="48.65818" lon="2.0535">
        <ele>183.2</ele>
        <time>2026-05-24T08:25:47Z</time>
      </trkpt>
      <trkpt lat="48.65823" lon="2.05352">
        <ele>183.2</ele>
        <time>2026-05-24T08:25:48Z</time>
      </trkpt>
      <trkpt lat="48.65827" lon="2.05354">
        <ele>183.2</ele>
        <time>2026-05-24T08:25:49Z</time>
      </trkpt>
      <trkpt lat="48.65832" lon="2.05357">
        <ele>183.2</ele>
        <time>2026-05-24T08:25:50Z</time>
      </trkpt>
      <trkpt lat="48.65837" lon="2.05359">
        <ele>183.2</ele>
        <time>2026-05-24T08:25:51Z</time>
      </trkpt>
      <trkpt lat="48.65841" lon="2.05361">
        <ele>182.4</ele>
        <time>2026-05-24T08:25:52Z</time>
      </trkpt>
      <trkpt lat="48.65845" lon="2.05364">
        <ele>182.4</ele>
        <time>2026-05-24T08:25:53Z</time>
      </trkpt>
      <trkpt lat="48.6585" lon="2.05367">
        <ele>182.4</ele>
        <time>2026-05-24T08:25:54Z</time>
      </trkpt>
      <trkpt lat="48.65854" lon="2.05368">
        <ele>182.4</ele>
        <time>2026-05-24T08:25:55Z</time>
      </trkpt>
      <trkpt lat="48.65859" lon="2.0537">
        <ele>182.4</ele>
        <time>2026-05-24T08:25:56Z</time>
      </trkpt>
      <trkpt lat="48.65864" lon="2.05372">
        <ele>182.6</ele>
        <time>2026-05-24T08:25:57Z</time>
      </trkpt>
      <trkpt lat="48.65869" lon="2.05374">
        <ele>182.6</ele>
        <time>2026-05-24T08:25:58Z</time>
      </trkpt>
      <trkpt lat="48.65873" lon="2.05376">
        <ele>182.6</ele>
        <time>2026-05-24T08:25:59Z</time>
      </trkpt>
      <trkpt lat="48.65878" lon="2.05379">
        <ele>182.6</ele>
        <time>2026-05-24T08:26:00Z</time>
      </trkpt>
      <trkpt lat="48.65882" lon="2.05381">
        <ele>183</ele>
        <time>2026-05-24T08:26:01Z</time>
      </trkpt>
      <trkpt lat="48.65887" lon="2.05383">
        <ele>183</ele>
        <time>2026-05-24T08:26:02Z</time>
      </trkpt>
      <trkpt lat="48.65891" lon="2.05385">
        <ele>183</ele>
        <time>2026-05-24T08:26:03Z</time>
      </trkpt>
      <trkpt lat="48.65896" lon="2.05387">
        <ele>183</ele>
        <time>2026-05-24T08:26:04Z</time>
      </trkpt>
      <trkpt lat="48.659" lon="2.05389">
        <ele>183.2</ele>
        <time>2026-05-24T08:26:05Z</time>
      </trkpt>
      <trkpt lat="48.65905" lon="2.0539">
        <ele>183.2</ele>
        <time>2026-05-24T08:26:06Z</time>
      </trkpt>
      <trkpt lat="48.65909" lon="2.05392">
        <ele>183.2</ele>
        <time>2026-05-24T08:26:07Z</time>
      </trkpt>
      <trkpt lat="48.65913" lon="2.05393">
        <ele>183.2</ele>
        <time>2026-05-24T08:26:08Z</time>
      </trkpt>
      <trkpt lat="48.65918" lon="2.05394">
        <ele>181.8</ele>
        <time>2026-05-24T08:26:09Z</time>
      </trkpt>
      <trkpt lat="48.65922" lon="2.05394">
        <ele>181.8</ele>
        <time>2026-05-24T08:26:10Z</time>
      </trkpt>
      <trkpt lat="48.65926" lon="2.05395">
        <ele>181.8</ele>
        <time>2026-05-24T08:26:11Z</time>
      </trkpt>
      <trkpt lat="48.6593" lon="2.05395">
        <ele>182.4</ele>
        <time>2026-05-24T08:26:12Z</time>
      </trkpt>
      <trkpt lat="48.65934" lon="2.05396">
        <ele>183</ele>
        <time>2026-05-24T08:26:13Z</time>
      </trkpt>
      <trkpt lat="48.65938" lon="2.05394">
        <ele>183</ele>
        <time>2026-05-24T08:26:14Z</time>
      </trkpt>
      <trkpt lat="48.65941" lon="2.0539">
        <ele>183</ele>
        <time>2026-05-24T08:26:15Z</time>
      </trkpt>
      <trkpt lat="48.65942" lon="2.05384">
        <ele>183</ele>
        <time>2026-05-24T08:26:16Z</time>
      </trkpt>
      <trkpt lat="48.65942" lon="2.05379">
        <ele>183.2</ele>
        <time>2026-05-24T08:26:17Z</time>
      </trkpt>
      <trkpt lat="48.65943" lon="2.05373">
        <ele>183.2</ele>
        <time>2026-05-24T08:26:18Z</time>
      </trkpt>
      <trkpt lat="48.65944" lon="2.05367">
        <ele>183.2</ele>
        <time>2026-05-24T08:26:19Z</time>
      </trkpt>
      <trkpt lat="48.65944" lon="2.05362">
        <ele>183.2</ele>
        <time>2026-05-24T08:26:20Z</time>
      </trkpt>
      <trkpt lat="48.65945" lon="2.05356">
        <ele>183.2</ele>
        <time>2026-05-24T08:26:21Z</time>
      </trkpt>
      <trkpt lat="48.65945" lon="2.0535">
        <ele>183.2</ele>
        <time>2026-05-24T08:26:22Z</time>
      </trkpt>
      <trkpt lat="48.65946" lon="2.05343">
        <ele>183.2</ele>
        <time>2026-05-24T08:26:23Z</time>
      </trkpt>
      <trkpt lat="48.65947" lon="2.05337">
        <ele>183.2</ele>
        <time>2026-05-24T08:26:24Z</time>
      </trkpt>
      <trkpt lat="48.65948" lon="2.0533">
        <ele>182.8</ele>
        <time>2026-05-24T08:26:25Z</time>
      </trkpt>
      <trkpt lat="48.65948" lon="2.05323">
        <ele>182.8</ele>
        <time>2026-05-24T08:26:26Z</time>
      </trkpt>
      <trkpt lat="48.65949" lon="2.05317">
        <ele>182.8</ele>
        <time>2026-05-24T08:26:27Z</time>
      </trkpt>
      <trkpt lat="48.6595" lon="2.0531">
        <ele>183.2</ele>
        <time>2026-05-24T08:26:28Z</time>
      </trkpt>
      <trkpt lat="48.65951" lon="2.05304">
        <ele>182.8</ele>
        <time>2026-05-24T08:26:29Z</time>
      </trkpt>
      <trkpt lat="48.65952" lon="2.05297">
        <ele>182.8</ele>
        <time>2026-05-24T08:26:30Z</time>
      </trkpt>
      <trkpt lat="48.65953" lon="2.05291">
        <ele>182.8</ele>
        <time>2026-05-24T08:26:31Z</time>
      </trkpt>
      <trkpt lat="48.65953" lon="2.05284">
        <ele>183.2</ele>
        <time>2026-05-24T08:26:32Z</time>
      </trkpt>
      <trkpt lat="48.65954" lon="2.05278">
        <ele>184.4</ele>
        <time>2026-05-24T08:26:33Z</time>
      </trkpt>
      <trkpt lat="48.65955" lon="2.05271">
        <ele>184.4</ele>
        <time>2026-05-24T08:26:34Z</time>
      </trkpt>
      <trkpt lat="48.65956" lon="2.05265">
        <ele>184.4</ele>
        <time>2026-05-24T08:26:35Z</time>
      </trkpt>
      <trkpt lat="48.65957" lon="2.05259">
        <ele>183.4</ele>
        <time>2026-05-24T08:26:36Z</time>
      </trkpt>
      <trkpt lat="48.65957" lon="2.05253">
        <ele>183.2</ele>
        <time>2026-05-24T08:26:37Z</time>
      </trkpt>
      <trkpt lat="48.65958" lon="2.05247">
        <ele>183.2</ele>
        <time>2026-05-24T08:26:38Z</time>
      </trkpt>
      <trkpt lat="48.65959" lon="2.0524">
        <ele>183.2</ele>
        <time>2026-05-24T08:26:39Z</time>
      </trkpt>
      <trkpt lat="48.65959" lon="2.05233">
        <ele>183.2</ele>
        <time>2026-05-24T08:26:40Z</time>
      </trkpt>
      <trkpt lat="48.65961" lon="2.05227">
        <ele>183.2</ele>
        <time>2026-05-24T08:26:41Z</time>
      </trkpt>
      <trkpt lat="48.65962" lon="2.0522">
        <ele>183.2</ele>
        <time>2026-05-24T08:26:42Z</time>
      </trkpt>
      <trkpt lat="48.65962" lon="2.05214">
        <ele>183.2</ele>
        <time>2026-05-24T08:26:43Z</time>
      </trkpt>
      <trkpt lat="48.65961" lon="2.05207">
        <ele>183.2</ele>
        <time>2026-05-24T08:26:44Z</time>
      </trkpt>
      <trkpt lat="48.6596" lon="2.052">
        <ele>183.2</ele>
        <time>2026-05-24T08:26:45Z</time>
      </trkpt>
      <trkpt lat="48.6596" lon="2.05193">
        <ele>183.2</ele>
        <time>2026-05-24T08:26:46Z</time>
      </trkpt>
      <trkpt lat="48.65959" lon="2.05187">
        <ele>183.2</ele>
        <time>2026-05-24T08:26:47Z</time>
      </trkpt>
      <trkpt lat="48.65958" lon="2.0518">
        <ele>183.2</ele>
        <time>2026-05-24T08:26:48Z</time>
      </trkpt>
      <trkpt lat="48.65956" lon="2.05174">
        <ele>183.8</ele>
        <time>2026-05-24T08:26:49Z</time>
      </trkpt>
      <trkpt lat="48.65955" lon="2.05168">
        <ele>183.8</ele>
        <time>2026-05-24T08:26:50Z</time>
      </trkpt>
      <trkpt lat="48.65953" lon="2.05162">
        <ele>183.8</ele>
        <time>2026-05-24T08:26:51Z</time>
      </trkpt>
      <trkpt lat="48.65952" lon="2.05155">
        <ele>183</ele>
        <time>2026-05-24T08:26:52Z</time>
      </trkpt>
      <trkpt lat="48.6595" lon="2.05148">
        <ele>182.8</ele>
        <time>2026-05-24T08:26:53Z</time>
      </trkpt>
      <trkpt lat="48.65949" lon="2.05142">
        <ele>182.8</ele>
        <time>2026-05-24T08:26:54Z</time>
      </trkpt>
      <trkpt lat="48.65948" lon="2.05135">
        <ele>182.8</ele>
        <time>2026-05-24T08:26:55Z</time>
      </trkpt>
      <trkpt lat="48.65946" lon="2.05127">
        <ele>182.8</ele>
        <time>2026-05-24T08:26:56Z</time>
      </trkpt>
      <trkpt lat="48.65945" lon="2.0512">
        <ele>183.6</ele>
        <time>2026-05-24T08:26:57Z</time>
      </trkpt>
      <trkpt lat="48.65943" lon="2.05114">
        <ele>183.6</ele>
        <time>2026-05-24T08:26:58Z</time>
      </trkpt>
      <trkpt lat="48.65942" lon="2.05106">
        <ele>183.6</ele>
        <time>2026-05-24T08:26:59Z</time>
      </trkpt>
      <trkpt lat="48.65942" lon="2.051">
        <ele>183.6</ele>
        <time>2026-05-24T08:27:00Z</time>
      </trkpt>
      <trkpt lat="48.65942" lon="2.05093">
        <ele>184.4</ele>
        <time>2026-05-24T08:27:01Z</time>
      </trkpt>
      <trkpt lat="48.65943" lon="2.05087">
        <ele>184.4</ele>
        <time>2026-05-24T08:27:02Z</time>
      </trkpt>
      <trkpt lat="48.65943" lon="2.0508">
        <ele>184.4</ele>
        <time>2026-05-24T08:27:03Z</time>
      </trkpt>
      <trkpt lat="48.65943" lon="2.05074">
        <ele>183.4</ele>
        <time>2026-05-24T08:27:04Z</time>
      </trkpt>
      <trkpt lat="48.65942" lon="2.05067">
        <ele>183.4</ele>
        <time>2026-05-24T08:27:05Z</time>
      </trkpt>
      <trkpt lat="48.65942" lon="2.05061">
        <ele>183.4</ele>
        <time>2026-05-24T08:27:06Z</time>
      </trkpt>
      <trkpt lat="48.65942" lon="2.05054">
        <ele>183.4</ele>
        <time>2026-05-24T08:27:07Z</time>
      </trkpt>
      <trkpt lat="48.65943" lon="2.05048">
        <ele>183.4</ele>
        <time>2026-05-24T08:27:08Z</time>
      </trkpt>
      <trkpt lat="48.65943" lon="2.05041">
        <ele>183.2</ele>
        <time>2026-05-24T08:27:09Z</time>
      </trkpt>
      <trkpt lat="48.65943" lon="2.05034">
        <ele>183.2</ele>
        <time>2026-05-24T08:27:10Z</time>
      </trkpt>
      <trkpt lat="48.65942" lon="2.05028">
        <ele>183.2</ele>
        <time>2026-05-24T08:27:11Z</time>
      </trkpt>
      <trkpt lat="48.65943" lon="2.05021">
        <ele>184</ele>
        <time>2026-05-24T08:27:12Z</time>
      </trkpt>
      <trkpt lat="48.65942" lon="2.05014">
        <ele>184</ele>
        <time>2026-05-24T08:27:13Z</time>
      </trkpt>
      <trkpt lat="48.65941" lon="2.05007">
        <ele>184</ele>
        <time>2026-05-24T08:27:14Z</time>
      </trkpt>
      <trkpt lat="48.65941" lon="2.05001">
        <ele>184</ele>
        <time>2026-05-24T08:27:15Z</time>
      </trkpt>
      <trkpt lat="48.65941" lon="2.04994">
        <ele>183.2</ele>
        <time>2026-05-24T08:27:16Z</time>
      </trkpt>
      <trkpt lat="48.65941" lon="2.04987">
        <ele>183.8</ele>
        <time>2026-05-24T08:27:17Z</time>
      </trkpt>
      <trkpt lat="48.65941" lon="2.04981">
        <ele>183.8</ele>
        <time>2026-05-24T08:27:18Z</time>
      </trkpt>
      <trkpt lat="48.65941" lon="2.04975">
        <ele>183.8</ele>
        <time>2026-05-24T08:27:19Z</time>
      </trkpt>
      <trkpt lat="48.65941" lon="2.04969">
        <ele>183.8</ele>
        <time>2026-05-24T08:27:20Z</time>
      </trkpt>
      <trkpt lat="48.65942" lon="2.04963">
        <ele>182.8</ele>
        <time>2026-05-24T08:27:21Z</time>
      </trkpt>
      <trkpt lat="48.65942" lon="2.04957">
        <ele>182.8</ele>
        <time>2026-05-24T08:27:22Z</time>
      </trkpt>
      <trkpt lat="48.65941" lon="2.04952">
        <ele>182.8</ele>
        <time>2026-05-24T08:27:23Z</time>
      </trkpt>
      <trkpt lat="48.65941" lon="2.04946">
        <ele>182.8</ele>
        <time>2026-05-24T08:27:24Z</time>
      </trkpt>
      <trkpt lat="48.65941" lon="2.04941">
        <ele>183</ele>
        <time>2026-05-24T08:27:25Z</time>
      </trkpt>
      <trkpt lat="48.65943" lon="2.04937">
        <ele>183</ele>
        <time>2026-05-24T08:27:26Z</time>
      </trkpt>
      <trkpt lat="48.65946" lon="2.04935">
        <ele>183</ele>
        <time>2026-05-24T08:27:27Z</time>
      </trkpt>
      <trkpt lat="48.65949" lon="2.04936">
        <ele>183</ele>
        <time>2026-05-24T08:27:28Z</time>
      </trkpt>
      <trkpt lat="48.65953" lon="2.04938">
        <ele>183.2</ele>
        <time>2026-05-24T08:27:29Z</time>
      </trkpt>
      <trkpt lat="48.65957" lon="2.0494">
        <ele>183.2</ele>
        <time>2026-05-24T08:27:30Z</time>
      </trkpt>
      <trkpt lat="48.6596" lon="2.04942">
        <ele>183.2</ele>
        <time>2026-05-24T08:27:31Z</time>
      </trkpt>
      <trkpt lat="48.65965" lon="2.04943">
        <ele>183.4</ele>
        <time>2026-05-24T08:27:32Z</time>
      </trkpt>
      <trkpt lat="48.65969" lon="2.04945">
        <ele>183</ele>
        <time>2026-05-24T08:27:33Z</time>
      </trkpt>
      <trkpt lat="48.65973" lon="2.04946">
        <ele>183</ele>
        <time>2026-05-24T08:27:34Z</time>
      </trkpt>
      <trkpt lat="48.65977" lon="2.04948">
        <ele>183</ele>
        <time>2026-05-24T08:27:35Z</time>
      </trkpt>
      <trkpt lat="48.65982" lon="2.04949">
        <ele>183.4</ele>
        <time>2026-05-24T08:27:36Z</time>
      </trkpt>
      <trkpt lat="48.65986" lon="2.04951">
        <ele>183.2</ele>
        <time>2026-05-24T08:27:37Z</time>
      </trkpt>
      <trkpt lat="48.6599" lon="2.04953">
        <ele>183.2</ele>
        <time>2026-05-24T08:27:38Z</time>
      </trkpt>
      <trkpt lat="48.65995" lon="2.04954">
        <ele>183.2</ele>
        <time>2026-05-24T08:27:39Z</time>
      </trkpt>
      <trkpt lat="48.65999" lon="2.04956">
        <ele>183.2</ele>
        <time>2026-05-24T08:27:40Z</time>
      </trkpt>
      <trkpt lat="48.66004" lon="2.04957">
        <ele>183.4</ele>
        <time>2026-05-24T08:27:41Z</time>
      </trkpt>
      <trkpt lat="48.66008" lon="2.04959">
        <ele>183.4</ele>
        <time>2026-05-24T08:27:42Z</time>
      </trkpt>
      <trkpt lat="48.66012" lon="2.04961">
        <ele>183.4</ele>
        <time>2026-05-24T08:27:43Z</time>
      </trkpt>
      <trkpt lat="48.66017" lon="2.04962">
        <ele>183.2</ele>
        <time>2026-05-24T08:27:44Z</time>
      </trkpt>
      <trkpt lat="48.66021" lon="2.04963">
        <ele>183.2</ele>
        <time>2026-05-24T08:27:45Z</time>
      </trkpt>
      <trkpt lat="48.66025" lon="2.04965">
        <ele>183.2</ele>
        <time>2026-05-24T08:27:46Z</time>
      </trkpt>
      <trkpt lat="48.6603" lon="2.04966">
        <ele>183.2</ele>
        <time>2026-05-24T08:27:47Z</time>
      </trkpt>
      <trkpt lat="48.66034" lon="2.04968">
        <ele>183.2</ele>
        <time>2026-05-24T08:27:48Z</time>
      </trkpt>
      <trkpt lat="48.66039" lon="2.04969">
        <ele>182.8</ele>
        <time>2026-05-24T08:27:49Z</time>
      </trkpt>
      <trkpt lat="48.66043" lon="2.04971">
        <ele>182.8</ele>
        <time>2026-05-24T08:27:50Z</time>
      </trkpt>
      <trkpt lat="48.66047" lon="2.04972">
        <ele>182.8</ele>
        <time>2026-05-24T08:27:51Z</time>
      </trkpt>
      <trkpt lat="48.66051" lon="2.04974">
        <ele>182.8</ele>
        <time>2026-05-24T08:27:52Z</time>
      </trkpt>
      <trkpt lat="48.66056" lon="2.04976">
        <ele>183.8</ele>
        <time>2026-05-24T08:27:53Z</time>
      </trkpt>
      <trkpt lat="48.6606" lon="2.04977">
        <ele>183.8</ele>
        <time>2026-05-24T08:27:54Z</time>
      </trkpt>
      <trkpt lat="48.66064" lon="2.04979">
        <ele>183.8</ele>
        <time>2026-05-24T08:27:55Z</time>
      </trkpt>
      <trkpt lat="48.66069" lon="2.0498">
        <ele>182.8</ele>
        <time>2026-05-24T08:27:56Z</time>
      </trkpt>
      <trkpt lat="48.66073" lon="2.04981">
        <ele>183.2</ele>
        <time>2026-05-24T08:27:57Z</time>
      </trkpt>
      <trkpt lat="48.66077" lon="2.04983">
        <ele>183.2</ele>
        <time>2026-05-24T08:27:58Z</time>
      </trkpt>
      <trkpt lat="48.66081" lon="2.04985">
        <ele>183.2</ele>
        <time>2026-05-24T08:27:59Z</time>
      </trkpt>
      <trkpt lat="48.66086" lon="2.04986">
        <ele>183.2</ele>
        <time>2026-05-24T08:28:00Z</time>
      </trkpt>
      <trkpt lat="48.6609" lon="2.04988">
        <ele>183.2</ele>
        <time>2026-05-24T08:28:01Z</time>
      </trkpt>
      <trkpt lat="48.66094" lon="2.04989">
        <ele>183.2</ele>
        <time>2026-05-24T08:28:02Z</time>
      </trkpt>
      <trkpt lat="48.66099" lon="2.04991">
        <ele>183.2</ele>
        <time>2026-05-24T08:28:03Z</time>
      </trkpt>
      <trkpt lat="48.66103" lon="2.04992">
        <ele>183.2</ele>
        <time>2026-05-24T08:28:04Z</time>
      </trkpt>
      <trkpt lat="48.66107" lon="2.04994">
        <ele>183.8</ele>
        <time>2026-05-24T08:28:05Z</time>
      </trkpt>
      <trkpt lat="48.66112" lon="2.04995">
        <ele>183.8</ele>
        <time>2026-05-24T08:28:06Z</time>
      </trkpt>
      <trkpt lat="48.66116" lon="2.04997">
        <ele>183.8</ele>
        <time>2026-05-24T08:28:07Z</time>
      </trkpt>
      <trkpt lat="48.6612" lon="2.05">
        <ele>183.2</ele>
        <time>2026-05-24T08:28:08Z</time>
      </trkpt>
      <trkpt lat="48.66124" lon="2.05002">
        <ele>183.2</ele>
        <time>2026-05-24T08:28:09Z</time>
      </trkpt>
      <trkpt lat="48.66129" lon="2.05003">
        <ele>183.2</ele>
        <time>2026-05-24T08:28:10Z</time>
      </trkpt>
      <trkpt lat="48.66133" lon="2.05004">
        <ele>183.2</ele>
        <time>2026-05-24T08:28:11Z</time>
      </trkpt>
      <trkpt lat="48.66137" lon="2.05006">
        <ele>183.2</ele>
        <time>2026-05-24T08:28:12Z</time>
      </trkpt>
      <trkpt lat="48.66142" lon="2.05007">
        <ele>183.2</ele>
        <time>2026-05-24T08:28:13Z</time>
      </trkpt>
      <trkpt lat="48.66146" lon="2.05008">
        <ele>183.2</ele>
        <time>2026-05-24T08:28:14Z</time>
      </trkpt>
      <trkpt lat="48.66151" lon="2.0501">
        <ele>183.2</ele>
        <time>2026-05-24T08:28:15Z</time>
      </trkpt>
      <trkpt lat="48.66155" lon="2.05011">
        <ele>183</ele>
        <time>2026-05-24T08:28:16Z</time>
      </trkpt>
      <trkpt lat="48.6616" lon="2.05012">
        <ele>183.2</ele>
        <time>2026-05-24T08:28:17Z</time>
      </trkpt>
      <trkpt lat="48.66165" lon="2.05013">
        <ele>183.2</ele>
        <time>2026-05-24T08:28:18Z</time>
      </trkpt>
      <trkpt lat="48.66169" lon="2.05015">
        <ele>183.2</ele>
        <time>2026-05-24T08:28:19Z</time>
      </trkpt>
      <trkpt lat="48.66174" lon="2.05017">
        <ele>183.2</ele>
        <time>2026-05-24T08:28:20Z</time>
      </trkpt>
      <trkpt lat="48.66178" lon="2.05018">
        <ele>183.2</ele>
        <time>2026-05-24T08:28:21Z</time>
      </trkpt>
      <trkpt lat="48.66183" lon="2.0502">
        <ele>183.2</ele>
        <time>2026-05-24T08:28:22Z</time>
      </trkpt>
      <trkpt lat="48.66188" lon="2.05022">
        <ele>183.2</ele>
        <time>2026-05-24T08:28:23Z</time>
      </trkpt>
      <trkpt lat="48.66193" lon="2.05023">
        <ele>183</ele>
        <time>2026-05-24T08:28:24Z</time>
      </trkpt>
      <trkpt lat="48.66197" lon="2.05025">
        <ele>182.4</ele>
        <time>2026-05-24T08:28:25Z</time>
      </trkpt>
      <trkpt lat="48.66202" lon="2.05026">
        <ele>182.4</ele>
        <time>2026-05-24T08:28:26Z</time>
      </trkpt>
      <trkpt lat="48.66207" lon="2.05028">
        <ele>182.4</ele>
        <time>2026-05-24T08:28:27Z</time>
      </trkpt>
      <trkpt lat="48.66212" lon="2.0503">
        <ele>182.4</ele>
        <time>2026-05-24T08:28:28Z</time>
      </trkpt>
      <trkpt lat="48.66217" lon="2.05031">
        <ele>182.8</ele>
        <time>2026-05-24T08:28:29Z</time>
      </trkpt>
      <trkpt lat="48.66222" lon="2.05033">
        <ele>182.8</ele>
        <time>2026-05-24T08:28:30Z</time>
      </trkpt>
      <trkpt lat="48.66227" lon="2.05035">
        <ele>182.8</ele>
        <time>2026-05-24T08:28:31Z</time>
      </trkpt>
      <trkpt lat="48.66231" lon="2.05036">
        <ele>182.8</ele>
        <time>2026-05-24T08:28:32Z</time>
      </trkpt>
      <trkpt lat="48.66236" lon="2.05038">
        <ele>182.6</ele>
        <time>2026-05-24T08:28:33Z</time>
      </trkpt>
      <trkpt lat="48.66241" lon="2.05041">
        <ele>182.6</ele>
        <time>2026-05-24T08:28:34Z</time>
      </trkpt>
      <trkpt lat="48.66246" lon="2.05043">
        <ele>182.6</ele>
        <time>2026-05-24T08:28:35Z</time>
      </trkpt>
      <trkpt lat="48.66251" lon="2.05045">
        <ele>182.6</ele>
        <time>2026-05-24T08:28:36Z</time>
      </trkpt>
      <trkpt lat="48.66256" lon="2.05046">
        <ele>182.4</ele>
        <time>2026-05-24T08:28:37Z</time>
      </trkpt>
      <trkpt lat="48.66261" lon="2.05047">
        <ele>182.4</ele>
        <time>2026-05-24T08:28:38Z</time>
      </trkpt>
      <trkpt lat="48.66266" lon="2.05049">
        <ele>182.4</ele>
        <time>2026-05-24T08:28:39Z</time>
      </trkpt>
      <trkpt lat="48.6627" lon="2.05051">
        <ele>182.4</ele>
        <time>2026-05-24T08:28:40Z</time>
      </trkpt>
      <trkpt lat="48.66275" lon="2.05053">
        <ele>182</ele>
        <time>2026-05-24T08:28:41Z</time>
      </trkpt>
      <trkpt lat="48.6628" lon="2.05054">
        <ele>182</ele>
        <time>2026-05-24T08:28:42Z</time>
      </trkpt>
      <trkpt lat="48.66285" lon="2.05056">
        <ele>182</ele>
        <time>2026-05-24T08:28:43Z</time>
      </trkpt>
      <trkpt lat="48.6629" lon="2.05058">
        <ele>182</ele>
        <time>2026-05-24T08:28:44Z</time>
      </trkpt>
      <trkpt lat="48.66295" lon="2.0506">
        <ele>181.8</ele>
        <time>2026-05-24T08:28:45Z</time>
      </trkpt>
      <trkpt lat="48.663" lon="2.05061">
        <ele>181.8</ele>
        <time>2026-05-24T08:28:46Z</time>
      </trkpt>
      <trkpt lat="48.66304" lon="2.05063">
        <ele>181.8</ele>
        <time>2026-05-24T08:28:47Z</time>
      </trkpt>
      <trkpt lat="48.66309" lon="2.05064">
        <ele>181.8</ele>
        <time>2026-05-24T08:28:48Z</time>
      </trkpt>
      <trkpt lat="48.66314" lon="2.05066">
        <ele>181.8</ele>
        <time>2026-05-24T08:28:49Z</time>
      </trkpt>
      <trkpt lat="48.66319" lon="2.05067">
        <ele>181.8</ele>
        <time>2026-05-24T08:28:50Z</time>
      </trkpt>
      <trkpt lat="48.66324" lon="2.05069">
        <ele>181.8</ele>
        <time>2026-05-24T08:28:51Z</time>
      </trkpt>
      <trkpt lat="48.66329" lon="2.05071">
        <ele>181.8</ele>
        <time>2026-05-24T08:28:52Z</time>
      </trkpt>
      <trkpt lat="48.66333" lon="2.05073">
        <ele>181.2</ele>
        <time>2026-05-24T08:28:53Z</time>
      </trkpt>
      <trkpt lat="48.66338" lon="2.05075">
        <ele>181.2</ele>
        <time>2026-05-24T08:28:54Z</time>
      </trkpt>
      <trkpt lat="48.66343" lon="2.05077">
        <ele>181.2</ele>
        <time>2026-05-24T08:28:55Z</time>
      </trkpt>
      <trkpt lat="48.66347" lon="2.05079">
        <ele>181.2</ele>
        <time>2026-05-24T08:28:56Z</time>
      </trkpt>
      <trkpt lat="48.66352" lon="2.05081">
        <ele>181.4</ele>
        <time>2026-05-24T08:28:57Z</time>
      </trkpt>
      <trkpt lat="48.66357" lon="2.05082">
        <ele>181.4</ele>
        <time>2026-05-24T08:28:58Z</time>
      </trkpt>
      <trkpt lat="48.66362" lon="2.05084">
        <ele>181.4</ele>
        <time>2026-05-24T08:28:59Z</time>
      </trkpt>
      <trkpt lat="48.66367" lon="2.05085">
        <ele>181.4</ele>
        <time>2026-05-24T08:29:00Z</time>
      </trkpt>
      <trkpt lat="48.66372" lon="2.05087">
        <ele>181.2</ele>
        <time>2026-05-24T08:29:01Z</time>
      </trkpt>
      <trkpt lat="48.66377" lon="2.05089">
        <ele>181.2</ele>
        <time>2026-05-24T08:29:02Z</time>
      </trkpt>
      <trkpt lat="48.66382" lon="2.0509">
        <ele>181.2</ele>
        <time>2026-05-24T08:29:03Z</time>
      </trkpt>
      <trkpt lat="48.66387" lon="2.05092">
        <ele>181.2</ele>
        <time>2026-05-24T08:29:04Z</time>
      </trkpt>
      <trkpt lat="48.66392" lon="2.05094">
        <ele>180.8</ele>
        <time>2026-05-24T08:29:05Z</time>
      </trkpt>
      <trkpt lat="48.66397" lon="2.05096">
        <ele>180.8</ele>
        <time>2026-05-24T08:29:06Z</time>
      </trkpt>
      <trkpt lat="48.66402" lon="2.05098">
        <ele>180.8</ele>
        <time>2026-05-24T08:29:07Z</time>
      </trkpt>
      <trkpt lat="48.66406" lon="2.051">
        <ele>181</ele>
        <time>2026-05-24T08:29:08Z</time>
      </trkpt>
      <trkpt lat="48.66411" lon="2.05101">
        <ele>181.4</ele>
        <time>2026-05-24T08:29:09Z</time>
      </trkpt>
      <trkpt lat="48.66416" lon="2.05102">
        <ele>181.4</ele>
        <time>2026-05-24T08:29:10Z</time>
      </trkpt>
      <trkpt lat="48.66421" lon="2.05104">
        <ele>181.4</ele>
        <time>2026-05-24T08:29:11Z</time>
      </trkpt>
      <trkpt lat="48.66426" lon="2.05105">
        <ele>181.2</ele>
        <time>2026-05-24T08:29:12Z</time>
      </trkpt>
      <trkpt lat="48.66431" lon="2.05106">
        <ele>180.4</ele>
        <time>2026-05-24T08:29:13Z</time>
      </trkpt>
      <trkpt lat="48.66436" lon="2.05107">
        <ele>180.4</ele>
        <time>2026-05-24T08:29:14Z</time>
      </trkpt>
      <trkpt lat="48.6644" lon="2.05109">
        <ele>180.4</ele>
        <time>2026-05-24T08:29:15Z</time>
      </trkpt>
      <trkpt lat="48.66445" lon="2.0511">
        <ele>181</ele>
        <time>2026-05-24T08:29:16Z</time>
      </trkpt>
      <trkpt lat="48.6645" lon="2.05112">
        <ele>181</ele>
        <time>2026-05-24T08:29:17Z</time>
      </trkpt>
      <trkpt lat="48.66454" lon="2.05113">
        <ele>181</ele>
        <time>2026-05-24T08:29:18Z</time>
      </trkpt>
      <trkpt lat="48.66459" lon="2.05115">
        <ele>181</ele>
        <time>2026-05-24T08:29:19Z</time>
      </trkpt>
      <trkpt lat="48.66464" lon="2.05117">
        <ele>180.6</ele>
        <time>2026-05-24T08:29:20Z</time>
      </trkpt>
      <trkpt lat="48.66468" lon="2.05118">
        <ele>181</ele>
        <time>2026-05-24T08:29:21Z</time>
      </trkpt>
      <trkpt lat="48.66473" lon="2.0512">
        <ele>181</ele>
        <time>2026-05-24T08:29:22Z</time>
      </trkpt>
      <trkpt lat="48.66478" lon="2.05121">
        <ele>181</ele>
        <time>2026-05-24T08:29:23Z</time>
      </trkpt>
      <trkpt lat="48.66482" lon="2.05123">
        <ele>180.8</ele>
        <time>2026-05-24T08:29:24Z</time>
      </trkpt>
      <trkpt lat="48.66487" lon="2.05125">
        <ele>180</ele>
        <time>2026-05-24T08:29:25Z</time>
      </trkpt>
      <trkpt lat="48.66491" lon="2.05126">
        <ele>180</ele>
        <time>2026-05-24T08:29:26Z</time>
      </trkpt>
      <trkpt lat="48.66496" lon="2.05128">
        <ele>180</ele>
        <time>2026-05-24T08:29:27Z</time>
      </trkpt>
      <trkpt lat="48.665" lon="2.05129">
        <ele>181</ele>
        <time>2026-05-24T08:29:28Z</time>
      </trkpt>
      <trkpt lat="48.66505" lon="2.05131">
        <ele>180.4</ele>
        <time>2026-05-24T08:29:29Z</time>
      </trkpt>
      <trkpt lat="48.66509" lon="2.05132">
        <ele>180.4</ele>
        <time>2026-05-24T08:29:30Z</time>
      </trkpt>
      <trkpt lat="48.66514" lon="2.05134">
        <ele>180.4</ele>
        <time>2026-05-24T08:29:31Z</time>
      </trkpt>
      <trkpt lat="48.66518" lon="2.05136">
        <ele>180.4</ele>
        <time>2026-05-24T08:29:32Z</time>
      </trkpt>
      <trkpt lat="48.66523" lon="2.05137">
        <ele>180</ele>
        <time>2026-05-24T08:29:33Z</time>
      </trkpt>
      <trkpt lat="48.66528" lon="2.05139">
        <ele>180</ele>
        <time>2026-05-24T08:29:34Z</time>
      </trkpt>
      <trkpt lat="48.66532" lon="2.0514">
        <ele>180</ele>
        <time>2026-05-24T08:29:35Z</time>
      </trkpt>
      <trkpt lat="48.66537" lon="2.05143">
        <ele>180</ele>
        <time>2026-05-24T08:29:36Z</time>
      </trkpt>
      <trkpt lat="48.66541" lon="2.05145">
        <ele>180.4</ele>
        <time>2026-05-24T08:29:37Z</time>
      </trkpt>
      <trkpt lat="48.66546" lon="2.05147">
        <ele>180.4</ele>
        <time>2026-05-24T08:29:38Z</time>
      </trkpt>
      <trkpt lat="48.66551" lon="2.05148">
        <ele>180.4</ele>
        <time>2026-05-24T08:29:39Z</time>
      </trkpt>
      <trkpt lat="48.66555" lon="2.0515">
        <ele>180.4</ele>
        <time>2026-05-24T08:29:40Z</time>
      </trkpt>
      <trkpt lat="48.6656" lon="2.05151">
        <ele>180.4</ele>
        <time>2026-05-24T08:29:41Z</time>
      </trkpt>
      <trkpt lat="48.66565" lon="2.05153">
        <ele>180.4</ele>
        <time>2026-05-24T08:29:42Z</time>
      </trkpt>
      <trkpt lat="48.66569" lon="2.05154">
        <ele>180.4</ele>
        <time>2026-05-24T08:29:43Z</time>
      </trkpt>
      <trkpt lat="48.66574" lon="2.05156">
        <ele>180</ele>
        <time>2026-05-24T08:29:44Z</time>
      </trkpt>
      <trkpt lat="48.66578" lon="2.05158">
        <ele>179.4</ele>
        <time>2026-05-24T08:29:45Z</time>
      </trkpt>
      <trkpt lat="48.66583" lon="2.0516">
        <ele>179.4</ele>
        <time>2026-05-24T08:29:46Z</time>
      </trkpt>
      <trkpt lat="48.66588" lon="2.05162">
        <ele>179.4</ele>
        <time>2026-05-24T08:29:47Z</time>
      </trkpt>
      <trkpt lat="48.66592" lon="2.05163">
        <ele>179.4</ele>
        <time>2026-05-24T08:29:48Z</time>
      </trkpt>
      <trkpt lat="48.66597" lon="2.05164">
        <ele>179.4</ele>
        <time>2026-05-24T08:29:49Z</time>
      </trkpt>
      <trkpt lat="48.66602" lon="2.05166">
        <ele>179.4</ele>
        <time>2026-05-24T08:29:50Z</time>
      </trkpt>
      <trkpt lat="48.66606" lon="2.05167">
        <ele>179.4</ele>
        <time>2026-05-24T08:29:51Z</time>
      </trkpt>
      <trkpt lat="48.66611" lon="2.05168">
        <ele>179.4</ele>
        <time>2026-05-24T08:29:52Z</time>
      </trkpt>
      <trkpt lat="48.66616" lon="2.0517">
        <ele>179.8</ele>
        <time>2026-05-24T08:29:53Z</time>
      </trkpt>
      <trkpt lat="48.66621" lon="2.05172">
        <ele>179.8</ele>
        <time>2026-05-24T08:29:54Z</time>
      </trkpt>
      <trkpt lat="48.66625" lon="2.05173">
        <ele>179.8</ele>
        <time>2026-05-24T08:29:55Z</time>
      </trkpt>
      <trkpt lat="48.6663" lon="2.05175">
        <ele>179.8</ele>
        <time>2026-05-24T08:29:56Z</time>
      </trkpt>
      <trkpt lat="48.66635" lon="2.05176">
        <ele>179.4</ele>
        <time>2026-05-24T08:29:57Z</time>
      </trkpt>
      <trkpt lat="48.6664" lon="2.05178">
        <ele>179.4</ele>
        <time>2026-05-24T08:29:58Z</time>
      </trkpt>
      <trkpt lat="48.66644" lon="2.05179">
        <ele>179.4</ele>
        <time>2026-05-24T08:29:59Z</time>
      </trkpt>
      <trkpt lat="48.66649" lon="2.05181">
        <ele>179.4</ele>
        <time>2026-05-24T08:30:00Z</time>
      </trkpt>
      <trkpt lat="48.66653" lon="2.05183">
        <ele>179.6</ele>
        <time>2026-05-24T08:30:01Z</time>
      </trkpt>
      <trkpt lat="48.66658" lon="2.05185">
        <ele>179.6</ele>
        <time>2026-05-24T08:30:02Z</time>
      </trkpt>
      <trkpt lat="48.66662" lon="2.05188">
        <ele>179.6</ele>
        <time>2026-05-24T08:30:03Z</time>
      </trkpt>
      <trkpt lat="48.66667" lon="2.0519">
        <ele>179.6</ele>
        <time>2026-05-24T08:30:04Z</time>
      </trkpt>
      <trkpt lat="48.66672" lon="2.05192">
        <ele>179</ele>
        <time>2026-05-24T08:30:05Z</time>
      </trkpt>
      <trkpt lat="48.66676" lon="2.05194">
        <ele>179</ele>
        <time>2026-05-24T08:30:06Z</time>
      </trkpt>
      <trkpt lat="48.66681" lon="2.05195">
        <ele>179</ele>
        <time>2026-05-24T08:30:07Z</time>
      </trkpt>
      <trkpt lat="48.66685" lon="2.05197">
        <ele>179.6</ele>
        <time>2026-05-24T08:30:08Z</time>
      </trkpt>
      <trkpt lat="48.6669" lon="2.05198">
        <ele>179.6</ele>
        <time>2026-05-24T08:30:09Z</time>
      </trkpt>
      <trkpt lat="48.66695" lon="2.052">
        <ele>179.6</ele>
        <time>2026-05-24T08:30:10Z</time>
      </trkpt>
      <trkpt lat="48.66699" lon="2.05202">
        <ele>179.6</ele>
        <time>2026-05-24T08:30:11Z</time>
      </trkpt>
      <trkpt lat="48.66704" lon="2.05204">
        <ele>178.6</ele>
        <time>2026-05-24T08:30:12Z</time>
      </trkpt>
      <trkpt lat="48.66709" lon="2.05205">
        <ele>179.6</ele>
        <time>2026-05-24T08:30:13Z</time>
      </trkpt>
      <trkpt lat="48.66714" lon="2.05207">
        <ele>179.6</ele>
        <time>2026-05-24T08:30:14Z</time>
      </trkpt>
      <trkpt lat="48.66718" lon="2.05208">
        <ele>179.6</ele>
        <time>2026-05-24T08:30:15Z</time>
      </trkpt>
      <trkpt lat="48.66723" lon="2.0521">
        <ele>179.6</ele>
        <time>2026-05-24T08:30:16Z</time>
      </trkpt>
      <trkpt lat="48.66728" lon="2.05211">
        <ele>179.6</ele>
        <time>2026-05-24T08:30:17Z</time>
      </trkpt>
      <trkpt lat="48.66733" lon="2.05213">
        <ele>179.6</ele>
        <time>2026-05-24T08:30:18Z</time>
      </trkpt>
      <trkpt lat="48.66737" lon="2.05214">
        <ele>179.6</ele>
        <time>2026-05-24T08:30:19Z</time>
      </trkpt>
      <trkpt lat="48.66742" lon="2.05216">
        <ele>179.2</ele>
        <time>2026-05-24T08:30:20Z</time>
      </trkpt>
      <trkpt lat="48.66747" lon="2.05218">
        <ele>178.4</ele>
        <time>2026-05-24T08:30:21Z</time>
      </trkpt>
      <trkpt lat="48.66752" lon="2.05219">
        <ele>178.4</ele>
        <time>2026-05-24T08:30:22Z</time>
      </trkpt>
      <trkpt lat="48.66756" lon="2.05221">
        <ele>178.4</ele>
        <time>2026-05-24T08:30:23Z</time>
      </trkpt>
      <trkpt lat="48.66761" lon="2.05222">
        <ele>179.4</ele>
        <time>2026-05-24T08:30:24Z</time>
      </trkpt>
      <trkpt lat="48.66766" lon="2.05224">
        <ele>180</ele>
        <time>2026-05-24T08:30:25Z</time>
      </trkpt>
      <trkpt lat="48.6677" lon="2.05226">
        <ele>180</ele>
        <time>2026-05-24T08:30:26Z</time>
      </trkpt>
      <trkpt lat="48.66775" lon="2.05228">
        <ele>180</ele>
        <time>2026-05-24T08:30:27Z</time>
      </trkpt>
      <trkpt lat="48.66779" lon="2.05229">
        <ele>179.6</ele>
        <time>2026-05-24T08:30:28Z</time>
      </trkpt>
      <trkpt lat="48.66784" lon="2.05231">
        <ele>179.4</ele>
        <time>2026-05-24T08:30:29Z</time>
      </trkpt>
      <trkpt lat="48.66789" lon="2.05233">
        <ele>179.4</ele>
        <time>2026-05-24T08:30:30Z</time>
      </trkpt>
      <trkpt lat="48.66793" lon="2.05235">
        <ele>179.4</ele>
        <time>2026-05-24T08:30:31Z</time>
      </trkpt>
      <trkpt lat="48.66798" lon="2.05236">
        <ele>180</ele>
        <time>2026-05-24T08:30:32Z</time>
      </trkpt>
      <trkpt lat="48.66803" lon="2.05237">
        <ele>179</ele>
        <time>2026-05-24T08:30:33Z</time>
      </trkpt>
      <trkpt lat="48.66807" lon="2.05239">
        <ele>179</ele>
        <time>2026-05-24T08:30:34Z</time>
      </trkpt>
      <trkpt lat="48.66812" lon="2.05241">
        <ele>179</ele>
        <time>2026-05-24T08:30:35Z</time>
      </trkpt>
      <trkpt lat="48.66816" lon="2.05242">
        <ele>179</ele>
        <time>2026-05-24T08:30:36Z</time>
      </trkpt>
      <trkpt lat="48.6682" lon="2.05244">
        <ele>179.2</ele>
        <time>2026-05-24T08:30:37Z</time>
      </trkpt>
      <trkpt lat="48.66825" lon="2.05245">
        <ele>179.2</ele>
        <time>2026-05-24T08:30:38Z</time>
      </trkpt>
      <trkpt lat="48.66829" lon="2.05247">
        <ele>179.2</ele>
        <time>2026-05-24T08:30:39Z</time>
      </trkpt>
      <trkpt lat="48.66833" lon="2.05248">
        <ele>179.2</ele>
        <time>2026-05-24T08:30:40Z</time>
      </trkpt>
      <trkpt lat="48.66837" lon="2.0525">
        <ele>179</ele>
        <time>2026-05-24T08:30:41Z</time>
      </trkpt>
      <trkpt lat="48.66841" lon="2.05251">
        <ele>179</ele>
        <time>2026-05-24T08:30:42Z</time>
      </trkpt>
      <trkpt lat="48.66844" lon="2.05252">
        <ele>179</ele>
        <time>2026-05-24T08:30:43Z</time>
      </trkpt>
      <trkpt lat="48.66848" lon="2.05252">
        <ele>179</ele>
        <time>2026-05-24T08:30:44Z</time>
      </trkpt>
      <trkpt lat="48.66851" lon="2.05252">
        <ele>179.2</ele>
        <time>2026-05-24T08:30:45Z</time>
      </trkpt>
      <trkpt lat="48.66854" lon="2.0525">
        <ele>179.2</ele>
        <time>2026-05-24T08:30:46Z</time>
      </trkpt>
      <trkpt lat="48.66857" lon="2.05246">
        <ele>179.2</ele>
        <time>2026-05-24T08:30:47Z</time>
      </trkpt>
      <trkpt lat="48.66859" lon="2.0524">
        <ele>179.2</ele>
        <time>2026-05-24T08:30:48Z</time>
      </trkpt>
      <trkpt lat="48.66861" lon="2.05234">
        <ele>179</ele>
        <time>2026-05-24T08:30:49Z</time>
      </trkpt>
      <trkpt lat="48.66863" lon="2.05228">
        <ele>179</ele>
        <time>2026-05-24T08:30:50Z</time>
      </trkpt>
      <trkpt lat="48.66865" lon="2.05222">
        <ele>179</ele>
        <time>2026-05-24T08:30:51Z</time>
      </trkpt>
      <trkpt lat="48.66867" lon="2.05215">
        <ele>179</ele>
        <time>2026-05-24T08:30:52Z</time>
      </trkpt>
      <trkpt lat="48.6687" lon="2.05208">
        <ele>179.2</ele>
        <time>2026-05-24T08:30:53Z</time>
      </trkpt>
      <trkpt lat="48.66872" lon="2.05201">
        <ele>179.2</ele>
        <time>2026-05-24T08:30:54Z</time>
      </trkpt>
      <trkpt lat="48.66874" lon="2.05194">
        <ele>179.2</ele>
        <time>2026-05-24T08:30:55Z</time>
      </trkpt>
      <trkpt lat="48.66877" lon="2.05187">
        <ele>179.2</ele>
        <time>2026-05-24T08:30:56Z</time>
      </trkpt>
      <trkpt lat="48.6688" lon="2.0518">
        <ele>178.8</ele>
        <time>2026-05-24T08:30:57Z</time>
      </trkpt>
      <trkpt lat="48.66882" lon="2.05173">
        <ele>178.8</ele>
        <time>2026-05-24T08:30:58Z</time>
      </trkpt>
      <trkpt lat="48.66885" lon="2.05167">
        <ele>178.8</ele>
        <time>2026-05-24T08:30:59Z</time>
      </trkpt>
      <trkpt lat="48.66887" lon="2.0516">
        <ele>178.8</ele>
        <time>2026-05-24T08:31:00Z</time>
      </trkpt>
      <trkpt lat="48.6689" lon="2.05153">
        <ele>178.8</ele>
        <time>2026-05-24T08:31:01Z</time>
      </trkpt>
      <trkpt lat="48.66893" lon="2.05147">
        <ele>178.8</ele>
        <time>2026-05-24T08:31:02Z</time>
      </trkpt>
      <trkpt lat="48.66896" lon="2.0514">
        <ele>178.8</ele>
        <time>2026-05-24T08:31:03Z</time>
      </trkpt>
      <trkpt lat="48.66899" lon="2.05134">
        <ele>178.8</ele>
        <time>2026-05-24T08:31:04Z</time>
      </trkpt>
      <trkpt lat="48.66903" lon="2.05129">
        <ele>178.8</ele>
        <time>2026-05-24T08:31:05Z</time>
      </trkpt>
      <trkpt lat="48.66907" lon="2.05125">
        <ele>178.8</ele>
        <time>2026-05-24T08:31:06Z</time>
      </trkpt>
      <trkpt lat="48.66912" lon="2.05123">
        <ele>178.8</ele>
        <time>2026-05-24T08:31:07Z</time>
      </trkpt>
      <trkpt lat="48.66917" lon="2.05121">
        <ele>178.8</ele>
        <time>2026-05-24T08:31:08Z</time>
      </trkpt>
      <trkpt lat="48.66922" lon="2.0512">
        <ele>178.2</ele>
        <time>2026-05-24T08:31:09Z</time>
      </trkpt>
      <trkpt lat="48.66927" lon="2.05121">
        <ele>178.2</ele>
        <time>2026-05-24T08:31:10Z</time>
      </trkpt>
      <trkpt lat="48.66932" lon="2.05121">
        <ele>178.2</ele>
        <time>2026-05-24T08:31:11Z</time>
      </trkpt>
      <trkpt lat="48.66937" lon="2.05121">
        <ele>178.2</ele>
        <time>2026-05-24T08:31:12Z</time>
      </trkpt>
      <trkpt lat="48.66942" lon="2.05121">
        <ele>178.2</ele>
        <time>2026-05-24T08:31:13Z</time>
      </trkpt>
      <trkpt lat="48.66947" lon="2.05121">
        <ele>178.2</ele>
        <time>2026-05-24T08:31:14Z</time>
      </trkpt>
      <trkpt lat="48.66953" lon="2.05122">
        <ele>178.2</ele>
        <time>2026-05-24T08:31:15Z</time>
      </trkpt>
      <trkpt lat="48.66958" lon="2.05122">
        <ele>178.2</ele>
        <time>2026-05-24T08:31:16Z</time>
      </trkpt>
      <trkpt lat="48.66963" lon="2.05122">
        <ele>178</ele>
        <time>2026-05-24T08:31:17Z</time>
      </trkpt>
      <trkpt lat="48.66968" lon="2.05122">
        <ele>178</ele>
        <time>2026-05-24T08:31:18Z</time>
      </trkpt>
      <trkpt lat="48.66973" lon="2.05123">
        <ele>178</ele>
        <time>2026-05-24T08:31:19Z</time>
      </trkpt>
      <trkpt lat="48.66978" lon="2.05123">
        <ele>178</ele>
        <time>2026-05-24T08:31:20Z</time>
      </trkpt>
      <trkpt lat="48.66983" lon="2.05123">
        <ele>177.6</ele>
        <time>2026-05-24T08:31:21Z</time>
      </trkpt>
      <trkpt lat="48.66988" lon="2.05123">
        <ele>177.6</ele>
        <time>2026-05-24T08:31:22Z</time>
      </trkpt>
      <trkpt lat="48.66993" lon="2.05123">
        <ele>177.6</ele>
        <time>2026-05-24T08:31:23Z</time>
      </trkpt>
      <trkpt lat="48.66998" lon="2.05123">
        <ele>177.4</ele>
        <time>2026-05-24T08:31:24Z</time>
      </trkpt>
      <trkpt lat="48.67003" lon="2.05123">
        <ele>177.2</ele>
        <time>2026-05-24T08:31:25Z</time>
      </trkpt>
      <trkpt lat="48.67008" lon="2.05124">
        <ele>177.2</ele>
        <time>2026-05-24T08:31:26Z</time>
      </trkpt>
      <trkpt lat="48.67013" lon="2.05124">
        <ele>177.2</ele>
        <time>2026-05-24T08:31:27Z</time>
      </trkpt>
      <trkpt lat="48.67017" lon="2.05124">
        <ele>177.2</ele>
        <time>2026-05-24T08:31:28Z</time>
      </trkpt>
      <trkpt lat="48.67022" lon="2.05124">
        <ele>177</ele>
        <time>2026-05-24T08:31:29Z</time>
      </trkpt>
      <trkpt lat="48.67026" lon="2.05124">
        <ele>177</ele>
        <time>2026-05-24T08:31:30Z</time>
      </trkpt>
      <trkpt lat="48.67031" lon="2.05124">
        <ele>177</ele>
        <time>2026-05-24T08:31:31Z</time>
      </trkpt>
      <trkpt lat="48.67035" lon="2.05124">
        <ele>177</ele>
        <time>2026-05-24T08:31:32Z</time>
      </trkpt>
      <trkpt lat="48.6704" lon="2.05124">
        <ele>177.4</ele>
        <time>2026-05-24T08:31:33Z</time>
      </trkpt>
      <trkpt lat="48.67044" lon="2.05124">
        <ele>177.4</ele>
        <time>2026-05-24T08:31:34Z</time>
      </trkpt>
      <trkpt lat="48.67048" lon="2.05124">
        <ele>177.4</ele>
        <time>2026-05-24T08:31:35Z</time>
      </trkpt>
      <trkpt lat="48.67052" lon="2.05124">
        <ele>176.8</ele>
        <time>2026-05-24T08:31:36Z</time>
      </trkpt>
      <trkpt lat="48.67056" lon="2.05124">
        <ele>177.2</ele>
        <time>2026-05-24T08:31:37Z</time>
      </trkpt>
      <trkpt lat="48.6706" lon="2.05124">
        <ele>177.2</ele>
        <time>2026-05-24T08:31:38Z</time>
      </trkpt>
      <trkpt lat="48.67063" lon="2.05121">
        <ele>177.2</ele>
        <time>2026-05-24T08:31:39Z</time>
      </trkpt>
      <trkpt lat="48.67065" lon="2.05115">
        <ele>177.2</ele>
        <time>2026-05-24T08:31:40Z</time>
      </trkpt>
      <trkpt lat="48.67066" lon="2.0511">
        <ele>177.2</ele>
        <time>2026-05-24T08:31:41Z</time>
      </trkpt>
      <trkpt lat="48.67065" lon="2.05104">
        <ele>177.2</ele>
        <time>2026-05-24T08:31:42Z</time>
      </trkpt>
      <trkpt lat="48.67064" lon="2.05099">
        <ele>177.2</ele>
        <time>2026-05-24T08:31:43Z</time>
      </trkpt>
      <trkpt lat="48.67063" lon="2.05093">
        <ele>177.2</ele>
        <time>2026-05-24T08:31:44Z</time>
      </trkpt>
      <trkpt lat="48.67063" lon="2.05087">
        <ele>177.2</ele>
        <time>2026-05-24T08:31:45Z</time>
      </trkpt>
      <trkpt lat="48.67062" lon="2.05081">
        <ele>177.2</ele>
        <time>2026-05-24T08:31:46Z</time>
      </trkpt>
      <trkpt lat="48.67061" lon="2.05075">
        <ele>177.2</ele>
        <time>2026-05-24T08:31:47Z</time>
      </trkpt>
      <trkpt lat="48.6706" lon="2.05068">
        <ele>177.2</ele>
        <time>2026-05-24T08:31:48Z</time>
      </trkpt>
      <trkpt lat="48.67059" lon="2.05062">
        <ele>177.4</ele>
        <time>2026-05-24T08:31:49Z</time>
      </trkpt>
      <trkpt lat="48.67058" lon="2.05056">
        <ele>177.4</ele>
        <time>2026-05-24T08:31:50Z</time>
      </trkpt>
      <trkpt lat="48.67057" lon="2.05049">
        <ele>177.4</ele>
        <time>2026-05-24T08:31:51Z</time>
      </trkpt>
      <trkpt lat="48.67056" lon="2.05042">
        <ele>177.4</ele>
        <time>2026-05-24T08:31:52Z</time>
      </trkpt>
      <trkpt lat="48.67056" lon="2.05036">
        <ele>177.8</ele>
        <time>2026-05-24T08:31:53Z</time>
      </trkpt>
      <trkpt lat="48.67055" lon="2.05029">
        <ele>177.8</ele>
        <time>2026-05-24T08:31:54Z</time>
      </trkpt>
      <trkpt lat="48.67054" lon="2.05022">
        <ele>177.8</ele>
        <time>2026-05-24T08:31:55Z</time>
      </trkpt>
      <trkpt lat="48.67053" lon="2.05016">
        <ele>177.2</ele>
        <time>2026-05-24T08:31:56Z</time>
      </trkpt>
      <trkpt lat="48.67052" lon="2.05009">
        <ele>177</ele>
        <time>2026-05-24T08:31:57Z</time>
      </trkpt>
      <trkpt lat="48.67051" lon="2.05002">
        <ele>177</ele>
        <time>2026-05-24T08:31:58Z</time>
      </trkpt>
      <trkpt lat="48.6705" lon="2.04996">
        <ele>177</ele>
        <time>2026-05-24T08:31:59Z</time>
      </trkpt>
      <trkpt lat="48.6705" lon="2.04989">
        <ele>177</ele>
        <time>2026-05-24T08:32:00Z</time>
      </trkpt>
      <trkpt lat="48.67049" lon="2.04982">
        <ele>177.8</ele>
        <time>2026-05-24T08:32:01Z</time>
      </trkpt>
      <trkpt lat="48.67049" lon="2.04976">
        <ele>177.8</ele>
        <time>2026-05-24T08:32:02Z</time>
      </trkpt>
      <trkpt lat="48.67048" lon="2.04969">
        <ele>177.8</ele>
        <time>2026-05-24T08:32:03Z</time>
      </trkpt>
      <trkpt lat="48.67047" lon="2.04962">
        <ele>176.8</ele>
        <time>2026-05-24T08:32:04Z</time>
      </trkpt>
      <trkpt lat="48.67046" lon="2.04956">
        <ele>177</ele>
        <time>2026-05-24T08:32:05Z</time>
      </trkpt>
      <trkpt lat="48.67046" lon="2.04949">
        <ele>177</ele>
        <time>2026-05-24T08:32:06Z</time>
      </trkpt>
      <trkpt lat="48.67045" lon="2.04943">
        <ele>177</ele>
        <time>2026-05-24T08:32:07Z</time>
      </trkpt>
      <trkpt lat="48.67044" lon="2.04936">
        <ele>177</ele>
        <time>2026-05-24T08:32:08Z</time>
      </trkpt>
      <trkpt lat="48.67043" lon="2.04929">
        <ele>177.2</ele>
        <time>2026-05-24T08:32:09Z</time>
      </trkpt>
      <trkpt lat="48.67042" lon="2.04922">
        <ele>177.2</ele>
        <time>2026-05-24T08:32:10Z</time>
      </trkpt>
      <trkpt lat="48.67041" lon="2.04916">
        <ele>177.2</ele>
        <time>2026-05-24T08:32:11Z</time>
      </trkpt>
      <trkpt lat="48.6704" lon="2.04909">
        <ele>177.2</ele>
        <time>2026-05-24T08:32:12Z</time>
      </trkpt>
      <trkpt lat="48.67039" lon="2.04902">
        <ele>179.6</ele>
        <time>2026-05-24T08:32:13Z</time>
      </trkpt>
      <trkpt lat="48.67038" lon="2.04895">
        <ele>179.6</ele>
        <time>2026-05-24T08:32:14Z</time>
      </trkpt>
      <trkpt lat="48.67038" lon="2.04889">
        <ele>179.6</ele>
        <time>2026-05-24T08:32:15Z</time>
      </trkpt>
      <trkpt lat="48.67037" lon="2.04882">
        <ele>178.6</ele>
        <time>2026-05-24T08:32:16Z</time>
      </trkpt>
      <trkpt lat="48.67036" lon="2.04876">
        <ele>177.4</ele>
        <time>2026-05-24T08:32:17Z</time>
      </trkpt>
      <trkpt lat="48.67035" lon="2.04869">
        <ele>177.4</ele>
        <time>2026-05-24T08:32:18Z</time>
      </trkpt>
      <trkpt lat="48.67033" lon="2.04863">
        <ele>177.4</ele>
        <time>2026-05-24T08:32:19Z</time>
      </trkpt>
      <trkpt lat="48.67032" lon="2.04856">
        <ele>177.4</ele>
        <time>2026-05-24T08:32:20Z</time>
      </trkpt>
      <trkpt lat="48.67031" lon="2.0485">
        <ele>177.2</ele>
        <time>2026-05-24T08:32:21Z</time>
      </trkpt>
      <trkpt lat="48.67031" lon="2.04844">
        <ele>177.2</ele>
        <time>2026-05-24T08:32:22Z</time>
      </trkpt>
      <trkpt lat="48.6703" lon="2.04839">
        <ele>177.2</ele>
        <time>2026-05-24T08:32:23Z</time>
      </trkpt>
      <trkpt lat="48.67029" lon="2.04833">
        <ele>177.4</ele>
        <time>2026-05-24T08:32:24Z</time>
      </trkpt>
      <trkpt lat="48.67028" lon="2.04827">
        <ele>177.8</ele>
        <time>2026-05-24T08:32:25Z</time>
      </trkpt>
      <trkpt lat="48.67028" lon="2.0482">
        <ele>177.8</ele>
        <time>2026-05-24T08:32:26Z</time>
      </trkpt>
      <trkpt lat="48.67027" lon="2.04814">
        <ele>177.8</ele>
        <time>2026-05-24T08:32:27Z</time>
      </trkpt>
      <trkpt lat="48.67026" lon="2.04808">
        <ele>177.8</ele>
        <time>2026-05-24T08:32:28Z</time>
      </trkpt>
      <trkpt lat="48.67025" lon="2.04801">
        <ele>177.8</ele>
        <time>2026-05-24T08:32:29Z</time>
      </trkpt>
      <trkpt lat="48.67024" lon="2.04795">
        <ele>177.8</ele>
        <time>2026-05-24T08:32:30Z</time>
      </trkpt>
      <trkpt lat="48.67023" lon="2.04789">
        <ele>177.8</ele>
        <time>2026-05-24T08:32:31Z</time>
      </trkpt>
      <trkpt lat="48.67022" lon="2.04783">
        <ele>177.8</ele>
        <time>2026-05-24T08:32:32Z</time>
      </trkpt>
      <trkpt lat="48.67022" lon="2.04777">
        <ele>177.8</ele>
        <time>2026-05-24T08:32:33Z</time>
      </trkpt>
      <trkpt lat="48.67022" lon="2.04771">
        <ele>177.8</ele>
        <time>2026-05-24T08:32:34Z</time>
      </trkpt>
      <trkpt lat="48.67022" lon="2.04765">
        <ele>177.8</ele>
        <time>2026-05-24T08:32:35Z</time>
      </trkpt>
      <trkpt lat="48.67024" lon="2.04758">
        <ele>177.8</ele>
        <time>2026-05-24T08:32:36Z</time>
      </trkpt>
      <trkpt lat="48.67025" lon="2.04752">
        <ele>177.6</ele>
        <time>2026-05-24T08:32:37Z</time>
      </trkpt>
      <trkpt lat="48.67025" lon="2.04746">
        <ele>177.6</ele>
        <time>2026-05-24T08:32:38Z</time>
      </trkpt>
      <trkpt lat="48.67026" lon="2.04739">
        <ele>177.6</ele>
        <time>2026-05-24T08:32:39Z</time>
      </trkpt>
      <trkpt lat="48.67026" lon="2.04733">
        <ele>177.6</ele>
        <time>2026-05-24T08:32:40Z</time>
      </trkpt>
      <trkpt lat="48.67026" lon="2.04727">
        <ele>177.4</ele>
        <time>2026-05-24T08:32:41Z</time>
      </trkpt>
      <trkpt lat="48.67027" lon="2.0472">
        <ele>177.4</ele>
        <time>2026-05-24T08:32:42Z</time>
      </trkpt>
      <trkpt lat="48.67027" lon="2.04714">
        <ele>177.4</ele>
        <time>2026-05-24T08:32:43Z</time>
      </trkpt>
      <trkpt lat="48.67028" lon="2.04707">
        <ele>177.8</ele>
        <time>2026-05-24T08:32:44Z</time>
      </trkpt>
      <trkpt lat="48.67028" lon="2.047">
        <ele>178.2</ele>
        <time>2026-05-24T08:32:45Z</time>
      </trkpt>
      <trkpt lat="48.67028" lon="2.04694">
        <ele>178.2</ele>
        <time>2026-05-24T08:32:46Z</time>
      </trkpt>
      <trkpt lat="48.67028" lon="2.04687">
        <ele>178.2</ele>
        <time>2026-05-24T08:32:47Z</time>
      </trkpt>
      <trkpt lat="48.67028" lon="2.0468">
        <ele>177.4</ele>
        <time>2026-05-24T08:32:48Z</time>
      </trkpt>
      <trkpt lat="48.67028" lon="2.04673">
        <ele>178.4</ele>
        <time>2026-05-24T08:32:49Z</time>
      </trkpt>
      <trkpt lat="48.67028" lon="2.04666">
        <ele>178.4</ele>
        <time>2026-05-24T08:32:50Z</time>
      </trkpt>
      <trkpt lat="48.67027" lon="2.04659">
        <ele>178.4</ele>
        <time>2026-05-24T08:32:51Z</time>
      </trkpt>
      <trkpt lat="48.67027" lon="2.04652">
        <ele>178.4</ele>
        <time>2026-05-24T08:32:52Z</time>
      </trkpt>
      <trkpt lat="48.67026" lon="2.04646">
        <ele>177.6</ele>
        <time>2026-05-24T08:32:53Z</time>
      </trkpt>
      <trkpt lat="48.67025" lon="2.04639">
        <ele>177.6</ele>
        <time>2026-05-24T08:32:54Z</time>
      </trkpt>
      <trkpt lat="48.67025" lon="2.04632">
        <ele>177.6</ele>
        <time>2026-05-24T08:32:55Z</time>
      </trkpt>
      <trkpt lat="48.67024" lon="2.04626">
        <ele>178.6</ele>
        <time>2026-05-24T08:32:56Z</time>
      </trkpt>
      <trkpt lat="48.67023" lon="2.04619">
        <ele>178.8</ele>
        <time>2026-05-24T08:32:57Z</time>
      </trkpt>
      <trkpt lat="48.67022" lon="2.04613">
        <ele>178.8</ele>
        <time>2026-05-24T08:32:58Z</time>
      </trkpt>
      <trkpt lat="48.67021" lon="2.04606">
        <ele>178.8</ele>
        <time>2026-05-24T08:32:59Z</time>
      </trkpt>
      <trkpt lat="48.6702" lon="2.046">
        <ele>178.8</ele>
        <time>2026-05-24T08:33:00Z</time>
      </trkpt>
      <trkpt lat="48.67019" lon="2.04594">
        <ele>178.8</ele>
        <time>2026-05-24T08:33:01Z</time>
      </trkpt>
      <trkpt lat="48.67018" lon="2.04587">
        <ele>178.8</ele>
        <time>2026-05-24T08:33:02Z</time>
      </trkpt>
      <trkpt lat="48.67017" lon="2.04581">
        <ele>178.8</ele>
        <time>2026-05-24T08:33:03Z</time>
      </trkpt>
      <trkpt lat="48.67015" lon="2.04574">
        <ele>177.8</ele>
        <time>2026-05-24T08:33:04Z</time>
      </trkpt>
      <trkpt lat="48.67014" lon="2.04568">
        <ele>177.4</ele>
        <time>2026-05-24T08:33:05Z</time>
      </trkpt>
      <trkpt lat="48.67013" lon="2.04561">
        <ele>177.4</ele>
        <time>2026-05-24T08:33:06Z</time>
      </trkpt>
      <trkpt lat="48.67011" lon="2.04555">
        <ele>177.4</ele>
        <time>2026-05-24T08:33:07Z</time>
      </trkpt>
      <trkpt lat="48.6701" lon="2.04548">
        <ele>178.4</ele>
        <time>2026-05-24T08:33:08Z</time>
      </trkpt>
      <trkpt lat="48.67009" lon="2.04542">
        <ele>178.6</ele>
        <time>2026-05-24T08:33:09Z</time>
      </trkpt>
      <trkpt lat="48.67007" lon="2.04535">
        <ele>178.6</ele>
        <time>2026-05-24T08:33:10Z</time>
      </trkpt>
      <trkpt lat="48.67006" lon="2.04528">
        <ele>178.6</ele>
        <time>2026-05-24T08:33:11Z</time>
      </trkpt>
      <trkpt lat="48.67005" lon="2.04522">
        <ele>177.6</ele>
        <time>2026-05-24T08:33:12Z</time>
      </trkpt>
      <trkpt lat="48.67003" lon="2.04515">
        <ele>178.6</ele>
        <time>2026-05-24T08:33:13Z</time>
      </trkpt>
      <trkpt lat="48.67002" lon="2.04509">
        <ele>178.6</ele>
        <time>2026-05-24T08:33:14Z</time>
      </trkpt>
      <trkpt lat="48.67001" lon="2.04502">
        <ele>178.6</ele>
        <time>2026-05-24T08:33:15Z</time>
      </trkpt>
      <trkpt lat="48.66999" lon="2.04495">
        <ele>178.6</ele>
        <time>2026-05-24T08:33:16Z</time>
      </trkpt>
      <trkpt lat="48.66998" lon="2.04489">
        <ele>177.2</ele>
        <time>2026-05-24T08:33:17Z</time>
      </trkpt>
      <trkpt lat="48.66997" lon="2.04482">
        <ele>177.2</ele>
        <time>2026-05-24T08:33:18Z</time>
      </trkpt>
      <trkpt lat="48.66996" lon="2.04476">
        <ele>177.2</ele>
        <time>2026-05-24T08:33:19Z</time>
      </trkpt>
      <trkpt lat="48.66994" lon="2.04469">
        <ele>178.2</ele>
        <time>2026-05-24T08:33:20Z</time>
      </trkpt>
      <trkpt lat="48.66993" lon="2.04463">
        <ele>178.8</ele>
        <time>2026-05-24T08:33:21Z</time>
      </trkpt>
      <trkpt lat="48.66991" lon="2.04456">
        <ele>178.8</ele>
        <time>2026-05-24T08:33:22Z</time>
      </trkpt>
      <trkpt lat="48.6699" lon="2.0445">
        <ele>178.8</ele>
        <time>2026-05-24T08:33:23Z</time>
      </trkpt>
      <trkpt lat="48.66988" lon="2.04444">
        <ele>178.2</ele>
        <time>2026-05-24T08:33:24Z</time>
      </trkpt>
      <trkpt lat="48.66988" lon="2.04438">
        <ele>178.4</ele>
        <time>2026-05-24T08:33:25Z</time>
      </trkpt>
      <trkpt lat="48.66992" lon="2.04434">
        <ele>178.4</ele>
        <time>2026-05-24T08:33:26Z</time>
      </trkpt>
      <trkpt lat="48.66996" lon="2.04434">
        <ele>178.4</ele>
        <time>2026-05-24T08:33:27Z</time>
      </trkpt>
      <trkpt lat="48.66999" lon="2.04436">
        <ele>178.4</ele>
        <time>2026-05-24T08:33:28Z</time>
      </trkpt>
      <trkpt lat="48.67004" lon="2.04437">
        <ele>178.4</ele>
        <time>2026-05-24T08:33:29Z</time>
      </trkpt>
      <trkpt lat="48.67007" lon="2.04438">
        <ele>178.4</ele>
        <time>2026-05-24T08:33:30Z</time>
      </trkpt>
      <trkpt lat="48.67011" lon="2.0444">
        <ele>178.4</ele>
        <time>2026-05-24T08:33:31Z</time>
      </trkpt>
      <trkpt lat="48.67015" lon="2.04441">
        <ele>178.4</ele>
        <time>2026-05-24T08:33:32Z</time>
      </trkpt>
      <trkpt lat="48.67019" lon="2.04443">
        <ele>179.8</ele>
        <time>2026-05-24T08:33:33Z</time>
      </trkpt>
      <trkpt lat="48.67023" lon="2.04444">
        <ele>179.8</ele>
        <time>2026-05-24T08:33:34Z</time>
      </trkpt>
      <trkpt lat="48.67027" lon="2.04445">
        <ele>179.8</ele>
        <time>2026-05-24T08:33:35Z</time>
      </trkpt>
      <trkpt lat="48.67031" lon="2.04447">
        <ele>178.8</ele>
        <time>2026-05-24T08:33:36Z</time>
      </trkpt>
      <trkpt lat="48.67035" lon="2.04448">
        <ele>178.8</ele>
        <time>2026-05-24T08:33:37Z</time>
      </trkpt>
      <trkpt lat="48.67039" lon="2.04449">
        <ele>178.8</ele>
        <time>2026-05-24T08:33:38Z</time>
      </trkpt>
      <trkpt lat="48.67043" lon="2.0445">
        <ele>178.8</ele>
        <time>2026-05-24T08:33:39Z</time>
      </trkpt>
      <trkpt lat="48.67047" lon="2.04452">
        <ele>178.8</ele>
        <time>2026-05-24T08:33:40Z</time>
      </trkpt>
      <trkpt lat="48.67051" lon="2.04453">
        <ele>178.8</ele>
        <time>2026-05-24T08:33:41Z</time>
      </trkpt>
      <trkpt lat="48.67055" lon="2.04454">
        <ele>178.8</ele>
        <time>2026-05-24T08:33:42Z</time>
      </trkpt>
      <trkpt lat="48.67058" lon="2.04455">
        <ele>178.8</ele>
        <time>2026-05-24T08:33:43Z</time>
      </trkpt>
      <trkpt lat="48.67062" lon="2.04456">
        <ele>178.8</ele>
        <time>2026-05-24T08:33:44Z</time>
      </trkpt>
      <trkpt lat="48.67066" lon="2.04458">
        <ele>179</ele>
        <time>2026-05-24T08:33:45Z</time>
      </trkpt>
      <trkpt lat="48.6707" lon="2.0446">
        <ele>179</ele>
        <time>2026-05-24T08:33:46Z</time>
      </trkpt>
      <trkpt lat="48.67073" lon="2.04462">
        <ele>179</ele>
        <time>2026-05-24T08:33:47Z</time>
      </trkpt>
      <trkpt lat="48.67077" lon="2.04463">
        <ele>179</ele>
        <time>2026-05-24T08:33:48Z</time>
      </trkpt>
      <trkpt lat="48.67081" lon="2.04463">
        <ele>179</ele>
        <time>2026-05-24T08:33:49Z</time>
      </trkpt>
      <trkpt lat="48.67085" lon="2.04464">
        <ele>179</ele>
        <time>2026-05-24T08:33:50Z</time>
      </trkpt>
      <trkpt lat="48.67089" lon="2.04466">
        <ele>179</ele>
        <time>2026-05-24T08:33:51Z</time>
      </trkpt>
      <trkpt lat="48.67093" lon="2.04467">
        <ele>179</ele>
        <time>2026-05-24T08:33:52Z</time>
      </trkpt>
      <trkpt lat="48.67096" lon="2.04468">
        <ele>179.2</ele>
        <time>2026-05-24T08:33:53Z</time>
      </trkpt>
      <trkpt lat="48.671" lon="2.0447">
        <ele>179.2</ele>
        <time>2026-05-24T08:33:54Z</time>
      </trkpt>
      <trkpt lat="48.67104" lon="2.04471">
        <ele>179.2</ele>
        <time>2026-05-24T08:33:55Z</time>
      </trkpt>
      <trkpt lat="48.67108" lon="2.04472">
        <ele>179.8</ele>
        <time>2026-05-24T08:33:56Z</time>
      </trkpt>
      <trkpt lat="48.67112" lon="2.04473">
        <ele>179.4</ele>
        <time>2026-05-24T08:33:57Z</time>
      </trkpt>
      <trkpt lat="48.67116" lon="2.04474">
        <ele>179.4</ele>
        <time>2026-05-24T08:33:58Z</time>
      </trkpt>
      <trkpt lat="48.67119" lon="2.04475">
        <ele>179.4</ele>
        <time>2026-05-24T08:33:59Z</time>
      </trkpt>
      <trkpt lat="48.67123" lon="2.04476">
        <ele>179.6</ele>
        <time>2026-05-24T08:34:00Z</time>
      </trkpt>
      <trkpt lat="48.67127" lon="2.04478">
        <ele>179.8</ele>
        <time>2026-05-24T08:34:01Z</time>
      </trkpt>
      <trkpt lat="48.67131" lon="2.0448">
        <ele>179.8</ele>
        <time>2026-05-24T08:34:02Z</time>
      </trkpt>
      <trkpt lat="48.67134" lon="2.04481">
        <ele>179.8</ele>
        <time>2026-05-24T08:34:03Z</time>
      </trkpt>
      <trkpt lat="48.67138" lon="2.04482">
        <ele>179.8</ele>
        <time>2026-05-24T08:34:04Z</time>
      </trkpt>
      <trkpt lat="48.67142" lon="2.04483">
        <ele>180</ele>
        <time>2026-05-24T08:34:05Z</time>
      </trkpt>
      <trkpt lat="48.67145" lon="2.04485">
        <ele>180</ele>
        <time>2026-05-24T08:34:06Z</time>
      </trkpt>
      <trkpt lat="48.67149" lon="2.04486">
        <ele>180</ele>
        <time>2026-05-24T08:34:07Z</time>
      </trkpt>
      <trkpt lat="48.67153" lon="2.04487">
        <ele>180</ele>
        <time>2026-05-24T08:34:08Z</time>
      </trkpt>
      <trkpt lat="48.67157" lon="2.04489">
        <ele>180</ele>
        <time>2026-05-24T08:34:09Z</time>
      </trkpt>
      <trkpt lat="48.6716" lon="2.04491">
        <ele>180</ele>
        <time>2026-05-24T08:34:10Z</time>
      </trkpt>
      <trkpt lat="48.67164" lon="2.04493">
        <ele>180</ele>
        <time>2026-05-24T08:34:11Z</time>
      </trkpt>
      <trkpt lat="48.67168" lon="2.04494">
        <ele>180</ele>
        <time>2026-05-24T08:34:12Z</time>
      </trkpt>
      <trkpt lat="48.67172" lon="2.04495">
        <ele>180.6</ele>
        <time>2026-05-24T08:34:13Z</time>
      </trkpt>
      <trkpt lat="48.67176" lon="2.04496">
        <ele>180.6</ele>
        <time>2026-05-24T08:34:14Z</time>
      </trkpt>
      <trkpt lat="48.6718" lon="2.04497">
        <ele>180.6</ele>
        <time>2026-05-24T08:34:15Z</time>
      </trkpt>
      <trkpt lat="48.67184" lon="2.04498">
        <ele>180.6</ele>
        <time>2026-05-24T08:34:16Z</time>
      </trkpt>
      <trkpt lat="48.67188" lon="2.04498">
        <ele>179.4</ele>
        <time>2026-05-24T08:34:17Z</time>
      </trkpt>
      <trkpt lat="48.67191" lon="2.04498">
        <ele>179.4</ele>
        <time>2026-05-24T08:34:18Z</time>
      </trkpt>
      <trkpt lat="48.67195" lon="2.045">
        <ele>179.4</ele>
        <time>2026-05-24T08:34:19Z</time>
      </trkpt>
      <trkpt lat="48.67199" lon="2.04501">
        <ele>180.4</ele>
        <time>2026-05-24T08:34:20Z</time>
      </trkpt>
      <trkpt lat="48.67203" lon="2.04503">
        <ele>180.2</ele>
        <time>2026-05-24T08:34:21Z</time>
      </trkpt>
      <trkpt lat="48.67207" lon="2.04504">
        <ele>180.2</ele>
        <time>2026-05-24T08:34:22Z</time>
      </trkpt>
      <trkpt lat="48.67212" lon="2.04505">
        <ele>180.2</ele>
        <time>2026-05-24T08:34:23Z</time>
      </trkpt>
      <trkpt lat="48.67216" lon="2.04506">
        <ele>180.2</ele>
        <time>2026-05-24T08:34:24Z</time>
      </trkpt>
      <trkpt lat="48.6722" lon="2.04507">
        <ele>180.6</ele>
        <time>2026-05-24T08:34:25Z</time>
      </trkpt>
      <trkpt lat="48.67224" lon="2.04508">
        <ele>180.6</ele>
        <time>2026-05-24T08:34:26Z</time>
      </trkpt>
      <trkpt lat="48.67228" lon="2.0451">
        <ele>180.6</ele>
        <time>2026-05-24T08:34:27Z</time>
      </trkpt>
      <trkpt lat="48.67232" lon="2.04511">
        <ele>180.6</ele>
        <time>2026-05-24T08:34:28Z</time>
      </trkpt>
      <trkpt lat="48.67236" lon="2.04513">
        <ele>181.4</ele>
        <time>2026-05-24T08:34:29Z</time>
      </trkpt>
      <trkpt lat="48.6724" lon="2.04514">
        <ele>181.4</ele>
        <time>2026-05-24T08:34:30Z</time>
      </trkpt>
      <trkpt lat="48.67244" lon="2.04515">
        <ele>181.4</ele>
        <time>2026-05-24T08:34:31Z</time>
      </trkpt>
      <trkpt lat="48.67248" lon="2.04516">
        <ele>181.4</ele>
        <time>2026-05-24T08:34:32Z</time>
      </trkpt>
      <trkpt lat="48.67252" lon="2.04517">
        <ele>181.2</ele>
        <time>2026-05-24T08:34:33Z</time>
      </trkpt>
      <trkpt lat="48.67256" lon="2.04519">
        <ele>181.2</ele>
        <time>2026-05-24T08:34:34Z</time>
      </trkpt>
      <trkpt lat="48.6726" lon="2.0452">
        <ele>181.2</ele>
        <time>2026-05-24T08:34:35Z</time>
      </trkpt>
      <trkpt lat="48.67264" lon="2.04522">
        <ele>180.4</ele>
        <time>2026-05-24T08:34:36Z</time>
      </trkpt>
      <trkpt lat="48.67268" lon="2.04523">
        <ele>180.2</ele>
        <time>2026-05-24T08:34:37Z</time>
      </trkpt>
      <trkpt lat="48.67272" lon="2.04524">
        <ele>180.2</ele>
        <time>2026-05-24T08:34:38Z</time>
      </trkpt>
      <trkpt lat="48.67276" lon="2.04526">
        <ele>180.2</ele>
        <time>2026-05-24T08:34:39Z</time>
      </trkpt>
      <trkpt lat="48.6728" lon="2.04526">
        <ele>180.8</ele>
        <time>2026-05-24T08:34:40Z</time>
      </trkpt>
      <trkpt lat="48.67283" lon="2.04524">
        <ele>181.4</ele>
        <time>2026-05-24T08:34:41Z</time>
      </trkpt>
      <trkpt lat="48.67286" lon="2.0452">
        <ele>181.4</ele>
        <time>2026-05-24T08:34:42Z</time>
      </trkpt>
      <trkpt lat="48.67288" lon="2.04514">
        <ele>181.4</ele>
        <time>2026-05-24T08:34:43Z</time>
      </trkpt>
      <trkpt lat="48.67289" lon="2.04508">
        <ele>180.8</ele>
        <time>2026-05-24T08:34:44Z</time>
      </trkpt>
      <trkpt lat="48.6729" lon="2.04501">
        <ele>181.2</ele>
        <time>2026-05-24T08:34:45Z</time>
      </trkpt>
      <trkpt lat="48.67291" lon="2.04494">
        <ele>181.2</ele>
        <time>2026-05-24T08:34:46Z</time>
      </trkpt>
      <trkpt lat="48.67291" lon="2.04487">
        <ele>181.2</ele>
        <time>2026-05-24T08:34:47Z</time>
      </trkpt>
      <trkpt lat="48.67292" lon="2.0448">
        <ele>181.2</ele>
        <time>2026-05-24T08:34:48Z</time>
      </trkpt>
      <trkpt lat="48.67293" lon="2.04474">
        <ele>180.6</ele>
        <time>2026-05-24T08:34:49Z</time>
      </trkpt>
      <trkpt lat="48.67293" lon="2.04467">
        <ele>180.6</ele>
        <time>2026-05-24T08:34:50Z</time>
      </trkpt>
      <trkpt lat="48.67294" lon="2.04461">
        <ele>180.6</ele>
        <time>2026-05-24T08:34:51Z</time>
      </trkpt>
      <trkpt lat="48.67294" lon="2.04455">
        <ele>181.2</ele>
        <time>2026-05-24T08:34:52Z</time>
      </trkpt>
      <trkpt lat="48.67295" lon="2.04448">
        <ele>181.4</ele>
        <time>2026-05-24T08:34:53Z</time>
      </trkpt>
      <trkpt lat="48.67296" lon="2.04442">
        <ele>181.4</ele>
        <time>2026-05-24T08:34:54Z</time>
      </trkpt>
      <trkpt lat="48.67296" lon="2.04435">
        <ele>181.4</ele>
        <time>2026-05-24T08:34:55Z</time>
      </trkpt>
      <trkpt lat="48.67297" lon="2.04429">
        <ele>181.2</ele>
        <time>2026-05-24T08:34:56Z</time>
      </trkpt>
      <trkpt lat="48.67298" lon="2.04422">
        <ele>180.6</ele>
        <time>2026-05-24T08:34:57Z</time>
      </trkpt>
      <trkpt lat="48.67298" lon="2.04416">
        <ele>180.6</ele>
        <time>2026-05-24T08:34:58Z</time>
      </trkpt>
      <trkpt lat="48.67299" lon="2.04409">
        <ele>180.6</ele>
        <time>2026-05-24T08:34:59Z</time>
      </trkpt>
      <trkpt lat="48.673" lon="2.04402">
        <ele>180.6</ele>
        <time>2026-05-24T08:35:00Z</time>
      </trkpt>
      <trkpt lat="48.673" lon="2.04395">
        <ele>181.2</ele>
        <time>2026-05-24T08:35:01Z</time>
      </trkpt>
      <trkpt lat="48.67301" lon="2.04388">
        <ele>181.2</ele>
        <time>2026-05-24T08:35:02Z</time>
      </trkpt>
      <trkpt lat="48.67301" lon="2.04381">
        <ele>181.2</ele>
        <time>2026-05-24T08:35:03Z</time>
      </trkpt>
      <trkpt lat="48.67302" lon="2.04374">
        <ele>181.8</ele>
        <time>2026-05-24T08:35:04Z</time>
      </trkpt>
      <trkpt lat="48.67303" lon="2.04367">
        <ele>181.4</ele>
        <time>2026-05-24T08:35:05Z</time>
      </trkpt>
      <trkpt lat="48.67303" lon="2.0436">
        <ele>181.4</ele>
        <time>2026-05-24T08:35:06Z</time>
      </trkpt>
      <trkpt lat="48.67304" lon="2.04353">
        <ele>181.4</ele>
        <time>2026-05-24T08:35:07Z</time>
      </trkpt>
      <trkpt lat="48.67305" lon="2.04346">
        <ele>181.4</ele>
        <time>2026-05-24T08:35:08Z</time>
      </trkpt>
      <trkpt lat="48.67306" lon="2.04339">
        <ele>180.8</ele>
        <time>2026-05-24T08:35:09Z</time>
      </trkpt>
      <trkpt lat="48.67306" lon="2.04332">
        <ele>180.8</ele>
        <time>2026-05-24T08:35:10Z</time>
      </trkpt>
      <trkpt lat="48.67307" lon="2.04325">
        <ele>180.8</ele>
        <time>2026-05-24T08:35:11Z</time>
      </trkpt>
      <trkpt lat="48.67307" lon="2.04318">
        <ele>181.8</ele>
        <time>2026-05-24T08:35:12Z</time>
      </trkpt>
      <trkpt lat="48.67308" lon="2.04311">
        <ele>181.2</ele>
        <time>2026-05-24T08:35:13Z</time>
      </trkpt>
      <trkpt lat="48.67309" lon="2.04303">
        <ele>181.2</ele>
        <time>2026-05-24T08:35:14Z</time>
      </trkpt>
      <trkpt lat="48.67309" lon="2.04296">
        <ele>181.2</ele>
        <time>2026-05-24T08:35:15Z</time>
      </trkpt>
      <trkpt lat="48.6731" lon="2.04289">
        <ele>181.2</ele>
        <time>2026-05-24T08:35:16Z</time>
      </trkpt>
      <trkpt lat="48.6731" lon="2.04282">
        <ele>180.8</ele>
        <time>2026-05-24T08:35:17Z</time>
      </trkpt>
      <trkpt lat="48.67311" lon="2.04275">
        <ele>180.8</ele>
        <time>2026-05-24T08:35:18Z</time>
      </trkpt>
      <trkpt lat="48.67311" lon="2.04268">
        <ele>180.8</ele>
        <time>2026-05-24T08:35:19Z</time>
      </trkpt>
      <trkpt lat="48.67312" lon="2.04261">
        <ele>180.8</ele>
        <time>2026-05-24T08:35:20Z</time>
      </trkpt>
      <trkpt lat="48.67313" lon="2.04255">
        <ele>181</ele>
        <time>2026-05-24T08:35:21Z</time>
      </trkpt>
      <trkpt lat="48.67313" lon="2.04248">
        <ele>181</ele>
        <time>2026-05-24T08:35:22Z</time>
      </trkpt>
      <trkpt lat="48.67314" lon="2.04241">
        <ele>181</ele>
        <time>2026-05-24T08:35:23Z</time>
      </trkpt>
      <trkpt lat="48.67314" lon="2.04234">
        <ele>181</ele>
        <time>2026-05-24T08:35:24Z</time>
      </trkpt>
      <trkpt lat="48.67315" lon="2.04227">
        <ele>180.8</ele>
        <time>2026-05-24T08:35:25Z</time>
      </trkpt>
      <trkpt lat="48.67315" lon="2.0422">
        <ele>180.8</ele>
        <time>2026-05-24T08:35:26Z</time>
      </trkpt>
      <trkpt lat="48.67316" lon="2.04213">
        <ele>180.8</ele>
        <time>2026-05-24T08:35:27Z</time>
      </trkpt>
      <trkpt lat="48.67317" lon="2.04206">
        <ele>181.8</ele>
        <time>2026-05-24T08:35:28Z</time>
      </trkpt>
      <trkpt lat="48.67317" lon="2.04199">
        <ele>182.2</ele>
        <time>2026-05-24T08:35:29Z</time>
      </trkpt>
      <trkpt lat="48.67318" lon="2.04192">
        <ele>182.2</ele>
        <time>2026-05-24T08:35:30Z</time>
      </trkpt>
      <trkpt lat="48.67318" lon="2.04184">
        <ele>182.2</ele>
        <time>2026-05-24T08:35:31Z</time>
      </trkpt>
      <trkpt lat="48.67319" lon="2.04177">
        <ele>181.2</ele>
        <time>2026-05-24T08:35:32Z</time>
      </trkpt>
      <trkpt lat="48.6732" lon="2.0417">
        <ele>182.2</ele>
        <time>2026-05-24T08:35:33Z</time>
      </trkpt>
      <trkpt lat="48.6732" lon="2.04163">
        <ele>182.2</ele>
        <time>2026-05-24T08:35:34Z</time>
      </trkpt>
      <trkpt lat="48.67321" lon="2.04155">
        <ele>182.2</ele>
        <time>2026-05-24T08:35:35Z</time>
      </trkpt>
      <trkpt lat="48.67321" lon="2.04148">
        <ele>181.2</ele>
        <time>2026-05-24T08:35:36Z</time>
      </trkpt>
      <trkpt lat="48.67322" lon="2.04141">
        <ele>180.4</ele>
        <time>2026-05-24T08:35:37Z</time>
      </trkpt>
      <trkpt lat="48.67323" lon="2.04134">
        <ele>180.4</ele>
        <time>2026-05-24T08:35:38Z</time>
      </trkpt>
      <trkpt lat="48.67323" lon="2.04126">
        <ele>180.4</ele>
        <time>2026-05-24T08:35:39Z</time>
      </trkpt>
      <trkpt lat="48.67324" lon="2.04119">
        <ele>181.4</ele>
        <time>2026-05-24T08:35:40Z</time>
      </trkpt>
      <trkpt lat="48.67325" lon="2.04112">
        <ele>180.4</ele>
        <time>2026-05-24T08:35:41Z</time>
      </trkpt>
      <trkpt lat="48.67325" lon="2.04106">
        <ele>180.4</ele>
        <time>2026-05-24T08:35:42Z</time>
      </trkpt>
      <trkpt lat="48.67326" lon="2.04099">
        <ele>180.4</ele>
        <time>2026-05-24T08:35:43Z</time>
      </trkpt>
      <trkpt lat="48.67327" lon="2.04092">
        <ele>180.4</ele>
        <time>2026-05-24T08:35:44Z</time>
      </trkpt>
      <trkpt lat="48.67327" lon="2.04085">
        <ele>181.2</ele>
        <time>2026-05-24T08:35:45Z</time>
      </trkpt>
      <trkpt lat="48.67328" lon="2.04078">
        <ele>181.2</ele>
        <time>2026-05-24T08:35:46Z</time>
      </trkpt>
      <trkpt lat="48.67328" lon="2.04071">
        <ele>181.2</ele>
        <time>2026-05-24T08:35:47Z</time>
      </trkpt>
      <trkpt lat="48.67329" lon="2.04064">
        <ele>181.2</ele>
        <time>2026-05-24T08:35:48Z</time>
      </trkpt>
      <trkpt lat="48.6733" lon="2.04058">
        <ele>181.4</ele>
        <time>2026-05-24T08:35:49Z</time>
      </trkpt>
      <trkpt lat="48.6733" lon="2.04051">
        <ele>181.4</ele>
        <time>2026-05-24T08:35:50Z</time>
      </trkpt>
      <trkpt lat="48.67331" lon="2.04044">
        <ele>181.4</ele>
        <time>2026-05-24T08:35:51Z</time>
      </trkpt>
      <trkpt lat="48.67331" lon="2.04037">
        <ele>181.4</ele>
        <time>2026-05-24T08:35:52Z</time>
      </trkpt>
      <trkpt lat="48.67332" lon="2.0403">
        <ele>182</ele>
        <time>2026-05-24T08:35:53Z</time>
      </trkpt>
      <trkpt lat="48.67333" lon="2.04023">
        <ele>182</ele>
        <time>2026-05-24T08:35:54Z</time>
      </trkpt>
      <trkpt lat="48.67333" lon="2.04015">
        <ele>182</ele>
        <time>2026-05-24T08:35:55Z</time>
      </trkpt>
      <trkpt lat="48.67334" lon="2.04008">
        <ele>181.4</ele>
        <time>2026-05-24T08:35:56Z</time>
      </trkpt>
      <trkpt lat="48.67334" lon="2.04001">
        <ele>181</ele>
        <time>2026-05-24T08:35:57Z</time>
      </trkpt>
      <trkpt lat="48.67335" lon="2.03994">
        <ele>181</ele>
        <time>2026-05-24T08:35:58Z</time>
      </trkpt>
      <trkpt lat="48.67336" lon="2.03987">
        <ele>181</ele>
        <time>2026-05-24T08:35:59Z</time>
      </trkpt>
      <trkpt lat="48.67336" lon="2.0398">
        <ele>182</ele>
        <time>2026-05-24T08:36:00Z</time>
      </trkpt>
      <trkpt lat="48.67337" lon="2.03973">
        <ele>181.2</ele>
        <time>2026-05-24T08:36:01Z</time>
      </trkpt>
      <trkpt lat="48.67337" lon="2.03965">
        <ele>181.2</ele>
        <time>2026-05-24T08:36:02Z</time>
      </trkpt>
      <trkpt lat="48.67338" lon="2.03958">
        <ele>181.2</ele>
        <time>2026-05-24T08:36:03Z</time>
      </trkpt>
      <trkpt lat="48.67339" lon="2.03951">
        <ele>181.2</ele>
        <time>2026-05-24T08:36:04Z</time>
      </trkpt>
      <trkpt lat="48.67339" lon="2.03944">
        <ele>184.2</ele>
        <time>2026-05-24T08:36:05Z</time>
      </trkpt>
      <trkpt lat="48.6734" lon="2.03936">
        <ele>184.2</ele>
        <time>2026-05-24T08:36:06Z</time>
      </trkpt>
      <trkpt lat="48.67341" lon="2.03929">
        <ele>184.2</ele>
        <time>2026-05-24T08:36:07Z</time>
      </trkpt>
      <trkpt lat="48.67341" lon="2.03922">
        <ele>183.2</ele>
        <time>2026-05-24T08:36:08Z</time>
      </trkpt>
      <trkpt lat="48.67342" lon="2.03915">
        <ele>181.8</ele>
        <time>2026-05-24T08:36:09Z</time>
      </trkpt>
      <trkpt lat="48.67343" lon="2.03908">
        <ele>181.8</ele>
        <time>2026-05-24T08:36:10Z</time>
      </trkpt>
      <trkpt lat="48.67344" lon="2.03901">
        <ele>181.8</ele>
        <time>2026-05-24T08:36:11Z</time>
      </trkpt>
      <trkpt lat="48.67344" lon="2.03893">
        <ele>181.8</ele>
        <time>2026-05-24T08:36:12Z</time>
      </trkpt>
      <trkpt lat="48.67345" lon="2.03886">
        <ele>181.4</ele>
        <time>2026-05-24T08:36:13Z</time>
      </trkpt>
      <trkpt lat="48.67346" lon="2.03879">
        <ele>181.4</ele>
        <time>2026-05-24T08:36:14Z</time>
      </trkpt>
      <trkpt lat="48.67346" lon="2.03871">
        <ele>181.4</ele>
        <time>2026-05-24T08:36:15Z</time>
      </trkpt>
      <trkpt lat="48.67347" lon="2.03864">
        <ele>182.2</ele>
        <time>2026-05-24T08:36:16Z</time>
      </trkpt>
      <trkpt lat="48.67348" lon="2.03857">
        <ele>182.2</ele>
        <time>2026-05-24T08:36:17Z</time>
      </trkpt>
      <trkpt lat="48.67349" lon="2.03849">
        <ele>182.2</ele>
        <time>2026-05-24T08:36:18Z</time>
      </trkpt>
      <trkpt lat="48.6735" lon="2.03841">
        <ele>182.2</ele>
        <time>2026-05-24T08:36:19Z</time>
      </trkpt>
      <trkpt lat="48.6735" lon="2.03833">
        <ele>182.2</ele>
        <time>2026-05-24T08:36:20Z</time>
      </trkpt>
      <trkpt lat="48.67351" lon="2.03825">
        <ele>181.4</ele>
        <time>2026-05-24T08:36:21Z</time>
      </trkpt>
      <trkpt lat="48.67352" lon="2.03817">
        <ele>181.4</ele>
        <time>2026-05-24T08:36:22Z</time>
      </trkpt>
      <trkpt lat="48.67353" lon="2.03809">
        <ele>181.4</ele>
        <time>2026-05-24T08:36:23Z</time>
      </trkpt>
      <trkpt lat="48.67354" lon="2.03801">
        <ele>181.4</ele>
        <time>2026-05-24T08:36:24Z</time>
      </trkpt>
      <trkpt lat="48.67355" lon="2.03793">
        <ele>182.6</ele>
        <time>2026-05-24T08:36:25Z</time>
      </trkpt>
      <trkpt lat="48.67356" lon="2.03785">
        <ele>182.6</ele>
        <time>2026-05-24T08:36:26Z</time>
      </trkpt>
      <trkpt lat="48.67356" lon="2.03776">
        <ele>182.6</ele>
        <time>2026-05-24T08:36:27Z</time>
      </trkpt>
      <trkpt lat="48.67357" lon="2.03768">
        <ele>181.6</ele>
        <time>2026-05-24T08:36:28Z</time>
      </trkpt>
      <trkpt lat="48.67358" lon="2.0376">
        <ele>179.8</ele>
        <time>2026-05-24T08:36:29Z</time>
      </trkpt>
      <trkpt lat="48.67358" lon="2.03752">
        <ele>179.8</ele>
        <time>2026-05-24T08:36:30Z</time>
      </trkpt>
      <trkpt lat="48.67359" lon="2.03744">
        <ele>179.8</ele>
        <time>2026-05-24T08:36:31Z</time>
      </trkpt>
      <trkpt lat="48.6736" lon="2.03736">
        <ele>180.8</ele>
        <time>2026-05-24T08:36:32Z</time>
      </trkpt>
      <trkpt lat="48.6736" lon="2.03728">
        <ele>183.2</ele>
        <time>2026-05-24T08:36:33Z</time>
      </trkpt>
      <trkpt lat="48.67361" lon="2.0372">
        <ele>183.2</ele>
        <time>2026-05-24T08:36:34Z</time>
      </trkpt>
      <trkpt lat="48.67362" lon="2.03712">
        <ele>183.2</ele>
        <time>2026-05-24T08:36:35Z</time>
      </trkpt>
      <trkpt lat="48.67362" lon="2.03704">
        <ele>182.2</ele>
        <time>2026-05-24T08:36:36Z</time>
      </trkpt>
      <trkpt lat="48.67363" lon="2.03696">
        <ele>182</ele>
        <time>2026-05-24T08:36:37Z</time>
      </trkpt>
      <trkpt lat="48.67364" lon="2.03688">
        <ele>182</ele>
        <time>2026-05-24T08:36:38Z</time>
      </trkpt>
      <trkpt lat="48.67365" lon="2.0368">
        <ele>182</ele>
        <time>2026-05-24T08:36:39Z</time>
      </trkpt>
      <trkpt lat="48.67365" lon="2.03672">
        <ele>182</ele>
        <time>2026-05-24T08:36:40Z</time>
      </trkpt>
      <trkpt lat="48.67366" lon="2.03664">
        <ele>181.6</ele>
        <time>2026-05-24T08:36:41Z</time>
      </trkpt>
      <trkpt lat="48.67367" lon="2.03656">
        <ele>181.6</ele>
        <time>2026-05-24T08:36:42Z</time>
      </trkpt>
      <trkpt lat="48.67367" lon="2.03648">
        <ele>181.6</ele>
        <time>2026-05-24T08:36:43Z</time>
      </trkpt>
      <trkpt lat="48.67368" lon="2.03639">
        <ele>181.6</ele>
        <time>2026-05-24T08:36:44Z</time>
      </trkpt>
      <trkpt lat="48.67369" lon="2.03631">
        <ele>181.2</ele>
        <time>2026-05-24T08:36:45Z</time>
      </trkpt>
      <trkpt lat="48.6737" lon="2.03623">
        <ele>181.2</ele>
        <time>2026-05-24T08:36:46Z</time>
      </trkpt>
      <trkpt lat="48.6737" lon="2.03615">
        <ele>181.2</ele>
        <time>2026-05-24T08:36:47Z</time>
      </trkpt>
      <trkpt lat="48.67371" lon="2.03607">
        <ele>181.2</ele>
        <time>2026-05-24T08:36:48Z</time>
      </trkpt>
      <trkpt lat="48.67372" lon="2.03599">
        <ele>181</ele>
        <time>2026-05-24T08:36:49Z</time>
      </trkpt>
      <trkpt lat="48.67373" lon="2.0359">
        <ele>181</ele>
        <time>2026-05-24T08:36:50Z</time>
      </trkpt>
      <trkpt lat="48.67373" lon="2.03582">
        <ele>181</ele>
        <time>2026-05-24T08:36:51Z</time>
      </trkpt>
      <trkpt lat="48.67374" lon="2.03574">
        <ele>181</ele>
        <time>2026-05-24T08:36:52Z</time>
      </trkpt>
      <trkpt lat="48.67375" lon="2.03566">
        <ele>181.6</ele>
        <time>2026-05-24T08:36:53Z</time>
      </trkpt>
      <trkpt lat="48.67375" lon="2.03558">
        <ele>181.6</ele>
        <time>2026-05-24T08:36:54Z</time>
      </trkpt>
      <trkpt lat="48.67376" lon="2.0355">
        <ele>181.6</ele>
        <time>2026-05-24T08:36:55Z</time>
      </trkpt>
      <trkpt lat="48.67377" lon="2.03542">
        <ele>181.6</ele>
        <time>2026-05-24T08:36:56Z</time>
      </trkpt>
      <trkpt lat="48.67378" lon="2.03534">
        <ele>181.8</ele>
        <time>2026-05-24T08:36:57Z</time>
      </trkpt>
      <trkpt lat="48.67378" lon="2.03526">
        <ele>181.8</ele>
        <time>2026-05-24T08:36:58Z</time>
      </trkpt>
      <trkpt lat="48.67379" lon="2.03518">
        <ele>181.8</ele>
        <time>2026-05-24T08:36:59Z</time>
      </trkpt>
      <trkpt lat="48.6738" lon="2.0351">
        <ele>181.8</ele>
        <time>2026-05-24T08:37:00Z</time>
      </trkpt>
      <trkpt lat="48.6738" lon="2.03502">
        <ele>181.8</ele>
        <time>2026-05-24T08:37:01Z</time>
      </trkpt>
      <trkpt lat="48.67381" lon="2.03494">
        <ele>181.8</ele>
        <time>2026-05-24T08:37:02Z</time>
      </trkpt>
      <trkpt lat="48.67382" lon="2.03486">
        <ele>181.8</ele>
        <time>2026-05-24T08:37:03Z</time>
      </trkpt>
      <trkpt lat="48.67382" lon="2.03478">
        <ele>181.8</ele>
        <time>2026-05-24T08:37:04Z</time>
      </trkpt>
      <trkpt lat="48.67383" lon="2.0347">
        <ele>181.4</ele>
        <time>2026-05-24T08:37:05Z</time>
      </trkpt>
      <trkpt lat="48.67384" lon="2.03462">
        <ele>181.4</ele>
        <time>2026-05-24T08:37:06Z</time>
      </trkpt>
      <trkpt lat="48.67384" lon="2.03454">
        <ele>181.4</ele>
        <time>2026-05-24T08:37:07Z</time>
      </trkpt>
      <trkpt lat="48.67385" lon="2.03446">
        <ele>181.4</ele>
        <time>2026-05-24T08:37:08Z</time>
      </trkpt>
      <trkpt lat="48.67386" lon="2.03438">
        <ele>182.2</ele>
        <time>2026-05-24T08:37:09Z</time>
      </trkpt>
      <trkpt lat="48.67387" lon="2.0343">
        <ele>182.2</ele>
        <time>2026-05-24T08:37:10Z</time>
      </trkpt>
      <trkpt lat="48.67387" lon="2.03421">
        <ele>182.2</ele>
        <time>2026-05-24T08:37:11Z</time>
      </trkpt>
      <trkpt lat="48.67388" lon="2.03413">
        <ele>181.2</ele>
        <time>2026-05-24T08:37:12Z</time>
      </trkpt>
      <trkpt lat="48.67389" lon="2.03405">
        <ele>182</ele>
        <time>2026-05-24T08:37:13Z</time>
      </trkpt>
      <trkpt lat="48.67389" lon="2.03397">
        <ele>182</ele>
        <time>2026-05-24T08:37:14Z</time>
      </trkpt>
      <trkpt lat="48.6739" lon="2.03388">
        <ele>182</ele>
        <time>2026-05-24T08:37:15Z</time>
      </trkpt>
      <trkpt lat="48.67391" lon="2.0338">
        <ele>181</ele>
        <time>2026-05-24T08:37:16Z</time>
      </trkpt>
      <trkpt lat="48.67392" lon="2.03373">
        <ele>182.8</ele>
        <time>2026-05-24T08:37:17Z</time>
      </trkpt>
      <trkpt lat="48.67393" lon="2.03365">
        <ele>182.8</ele>
        <time>2026-05-24T08:37:18Z</time>
      </trkpt>
      <trkpt lat="48.67395" lon="2.03359">
        <ele>182.8</ele>
        <time>2026-05-24T08:37:19Z</time>
      </trkpt>
      <trkpt lat="48.67399" lon="2.03354">
        <ele>182.8</ele>
        <time>2026-05-24T08:37:20Z</time>
      </trkpt>
      <trkpt lat="48.67403" lon="2.03352">
        <ele>181.2</ele>
        <time>2026-05-24T08:37:21Z</time>
      </trkpt>
      <trkpt lat="48.67407" lon="2.03351">
        <ele>181.2</ele>
        <time>2026-05-24T08:37:22Z</time>
      </trkpt>
      <trkpt lat="48.67412" lon="2.03352">
        <ele>181.2</ele>
        <time>2026-05-24T08:37:23Z</time>
      </trkpt>
      <trkpt lat="48.67416" lon="2.03352">
        <ele>181.2</ele>
        <time>2026-05-24T08:37:24Z</time>
      </trkpt>
      <trkpt lat="48.67421" lon="2.03353">
        <ele>182.2</ele>
        <time>2026-05-24T08:37:25Z</time>
      </trkpt>
      <trkpt lat="48.67426" lon="2.03353">
        <ele>182.2</ele>
        <time>2026-05-24T08:37:26Z</time>
      </trkpt>
      <trkpt lat="48.67431" lon="2.03353">
        <ele>182.2</ele>
        <time>2026-05-24T08:37:27Z</time>
      </trkpt>
      <trkpt lat="48.67436" lon="2.03353">
        <ele>181.2</ele>
        <time>2026-05-24T08:37:28Z</time>
      </trkpt>
      <trkpt lat="48.6744" lon="2.03353">
        <ele>181.4</ele>
        <time>2026-05-24T08:37:29Z</time>
      </trkpt>
      <trkpt lat="48.67445" lon="2.03353">
        <ele>181.4</ele>
        <time>2026-05-24T08:37:30Z</time>
      </trkpt>
      <trkpt lat="48.6745" lon="2.03353">
        <ele>181.4</ele>
        <time>2026-05-24T08:37:31Z</time>
      </trkpt>
      <trkpt lat="48.67455" lon="2.03352">
        <ele>181.4</ele>
        <time>2026-05-24T08:37:32Z</time>
      </trkpt>
      <trkpt lat="48.6746" lon="2.03352">
        <ele>181.2</ele>
        <time>2026-05-24T08:37:33Z</time>
      </trkpt>
      <trkpt lat="48.67465" lon="2.03352">
        <ele>181.2</ele>
        <time>2026-05-24T08:37:34Z</time>
      </trkpt>
      <trkpt lat="48.6747" lon="2.03352">
        <ele>181.2</ele>
        <time>2026-05-24T08:37:35Z</time>
      </trkpt>
      <trkpt lat="48.67475" lon="2.03352">
        <ele>182</ele>
        <time>2026-05-24T08:37:36Z</time>
      </trkpt>
      <trkpt lat="48.6748" lon="2.03351">
        <ele>181.6</ele>
        <time>2026-05-24T08:37:37Z</time>
      </trkpt>
      <trkpt lat="48.67485" lon="2.03351">
        <ele>181.6</ele>
        <time>2026-05-24T08:37:38Z</time>
      </trkpt>
      <trkpt lat="48.67491" lon="2.03351">
        <ele>181.6</ele>
        <time>2026-05-24T08:37:39Z</time>
      </trkpt>
      <trkpt lat="48.67496" lon="2.03351">
        <ele>181.6</ele>
        <time>2026-05-24T08:37:40Z</time>
      </trkpt>
      <trkpt lat="48.67501" lon="2.03351">
        <ele>181.2</ele>
        <time>2026-05-24T08:37:41Z</time>
      </trkpt>
      <trkpt lat="48.67506" lon="2.03351">
        <ele>181.2</ele>
        <time>2026-05-24T08:37:42Z</time>
      </trkpt>
      <trkpt lat="48.67511" lon="2.03351">
        <ele>181.2</ele>
        <time>2026-05-24T08:37:43Z</time>
      </trkpt>
      <trkpt lat="48.67517" lon="2.03351">
        <ele>181.2</ele>
        <time>2026-05-24T08:37:44Z</time>
      </trkpt>
      <trkpt lat="48.67522" lon="2.03351">
        <ele>181.4</ele>
        <time>2026-05-24T08:37:45Z</time>
      </trkpt>
      <trkpt lat="48.67527" lon="2.03351">
        <ele>181.4</ele>
        <time>2026-05-24T08:37:46Z</time>
      </trkpt>
      <trkpt lat="48.67532" lon="2.03352">
        <ele>181.4</ele>
        <time>2026-05-24T08:37:47Z</time>
      </trkpt>
      <trkpt lat="48.67538" lon="2.03352">
        <ele>181.4</ele>
        <time>2026-05-24T08:37:48Z</time>
      </trkpt>
      <trkpt lat="48.67543" lon="2.03352">
        <ele>181.2</ele>
        <time>2026-05-24T08:37:49Z</time>
      </trkpt>
      <trkpt lat="48.67548" lon="2.03352">
        <ele>181.2</ele>
        <time>2026-05-24T08:37:50Z</time>
      </trkpt>
      <trkpt lat="48.67554" lon="2.03353">
        <ele>181.2</ele>
        <time>2026-05-24T08:37:51Z</time>
      </trkpt>
      <trkpt lat="48.67559" lon="2.03353">
        <ele>181.2</ele>
        <time>2026-05-24T08:37:52Z</time>
      </trkpt>
      <trkpt lat="48.67565" lon="2.03354">
        <ele>180.8</ele>
        <time>2026-05-24T08:37:53Z</time>
      </trkpt>
      <trkpt lat="48.6757" lon="2.03354">
        <ele>180.8</ele>
        <time>2026-05-24T08:37:54Z</time>
      </trkpt>
      <trkpt lat="48.67576" lon="2.03355">
        <ele>180.8</ele>
        <time>2026-05-24T08:37:55Z</time>
      </trkpt>
      <trkpt lat="48.67581" lon="2.03355">
        <ele>180.6</ele>
        <time>2026-05-24T08:37:56Z</time>
      </trkpt>
      <trkpt lat="48.67587" lon="2.03356">
        <ele>180.6</ele>
        <time>2026-05-24T08:37:57Z</time>
      </trkpt>
      <trkpt lat="48.67592" lon="2.03356">
        <ele>180.6</ele>
        <time>2026-05-24T08:37:58Z</time>
      </trkpt>
      <trkpt lat="48.67598" lon="2.03357">
        <ele>180.6</ele>
        <time>2026-05-24T08:37:59Z</time>
      </trkpt>
      <trkpt lat="48.67603" lon="2.03358">
        <ele>180.6</ele>
        <time>2026-05-24T08:38:00Z</time>
      </trkpt>
      <trkpt lat="48.67609" lon="2.03359">
        <ele>179</ele>
        <time>2026-05-24T08:38:01Z</time>
      </trkpt>
      <trkpt lat="48.67615" lon="2.0336">
        <ele>179</ele>
        <time>2026-05-24T08:38:02Z</time>
      </trkpt>
      <trkpt lat="48.6762" lon="2.03361">
        <ele>179</ele>
        <time>2026-05-24T08:38:03Z</time>
      </trkpt>
      <trkpt lat="48.67626" lon="2.03361">
        <ele>180</ele>
        <time>2026-05-24T08:38:04Z</time>
      </trkpt>
      <trkpt lat="48.67631" lon="2.03362">
        <ele>180.2</ele>
        <time>2026-05-24T08:38:05Z</time>
      </trkpt>
      <trkpt lat="48.67636" lon="2.03363">
        <ele>180.2</ele>
        <time>2026-05-24T08:38:06Z</time>
      </trkpt>
      <trkpt lat="48.67642" lon="2.03364">
        <ele>180.2</ele>
        <time>2026-05-24T08:38:07Z</time>
      </trkpt>
      <trkpt lat="48.67646" lon="2.03363">
        <ele>179.4</ele>
        <time>2026-05-24T08:38:08Z</time>
      </trkpt>
      <trkpt lat="48.67651" lon="2.03363">
        <ele>178.6</ele>
        <time>2026-05-24T08:38:09Z</time>
      </trkpt>
      <trkpt lat="48.67655" lon="2.03364">
        <ele>178.6</ele>
        <time>2026-05-24T08:38:10Z</time>
      </trkpt>
      <trkpt lat="48.6766" lon="2.03365">
        <ele>178.6</ele>
        <time>2026-05-24T08:38:11Z</time>
      </trkpt>
      <trkpt lat="48.67664" lon="2.03366">
        <ele>179.6</ele>
        <time>2026-05-24T08:38:12Z</time>
      </trkpt>
      <trkpt lat="48.67669" lon="2.03366">
        <ele>179.8</ele>
        <time>2026-05-24T08:38:13Z</time>
      </trkpt>
      <trkpt lat="48.67673" lon="2.03367">
        <ele>179.8</ele>
        <time>2026-05-24T08:38:14Z</time>
      </trkpt>
      <trkpt lat="48.67678" lon="2.03367">
        <ele>179.8</ele>
        <time>2026-05-24T08:38:15Z</time>
      </trkpt>
      <trkpt lat="48.67683" lon="2.03368">
        <ele>179.4</ele>
        <time>2026-05-24T08:38:16Z</time>
      </trkpt>
      <trkpt lat="48.67688" lon="2.03368">
        <ele>179.4</ele>
        <time>2026-05-24T08:38:17Z</time>
      </trkpt>
      <trkpt lat="48.67694" lon="2.03369">
        <ele>179.4</ele>
        <time>2026-05-24T08:38:18Z</time>
      </trkpt>
      <trkpt lat="48.67699" lon="2.03369">
        <ele>179.4</ele>
        <time>2026-05-24T08:38:19Z</time>
      </trkpt>
      <trkpt lat="48.67704" lon="2.03369">
        <ele>178.8</ele>
        <time>2026-05-24T08:38:20Z</time>
      </trkpt>
      <trkpt lat="48.6771" lon="2.0337">
        <ele>178.8</ele>
        <time>2026-05-24T08:38:21Z</time>
      </trkpt>
      <trkpt lat="48.67715" lon="2.03371">
        <ele>178.8</ele>
        <time>2026-05-24T08:38:22Z</time>
      </trkpt>
      <trkpt lat="48.6772" lon="2.03371">
        <ele>178.8</ele>
        <time>2026-05-24T08:38:23Z</time>
      </trkpt>
      <trkpt lat="48.67725" lon="2.03372">
        <ele>178.4</ele>
        <time>2026-05-24T08:38:24Z</time>
      </trkpt>
      <trkpt lat="48.6773" lon="2.03373">
        <ele>179</ele>
        <time>2026-05-24T08:38:25Z</time>
      </trkpt>
      <trkpt lat="48.67736" lon="2.03374">
        <ele>179</ele>
        <time>2026-05-24T08:38:26Z</time>
      </trkpt>
      <trkpt lat="48.67741" lon="2.03374">
        <ele>179</ele>
        <time>2026-05-24T08:38:27Z</time>
      </trkpt>
      <trkpt lat="48.67746" lon="2.03375">
        <ele>178</ele>
        <time>2026-05-24T08:38:28Z</time>
      </trkpt>
      <trkpt lat="48.67752" lon="2.03376">
        <ele>178</ele>
        <time>2026-05-24T08:38:29Z</time>
      </trkpt>
      <trkpt lat="48.67757" lon="2.03376">
        <ele>178</ele>
        <time>2026-05-24T08:38:30Z</time>
      </trkpt>
      <trkpt lat="48.67763" lon="2.03377">
        <ele>178</ele>
        <time>2026-05-24T08:38:31Z</time>
      </trkpt>
      <trkpt lat="48.67768" lon="2.03378">
        <ele>178</ele>
        <time>2026-05-24T08:38:32Z</time>
      </trkpt>
      <trkpt lat="48.67774" lon="2.03379">
        <ele>178</ele>
        <time>2026-05-24T08:38:33Z</time>
      </trkpt>
      <trkpt lat="48.67779" lon="2.0338">
        <ele>178</ele>
        <time>2026-05-24T08:38:34Z</time>
      </trkpt>
      <trkpt lat="48.67784" lon="2.03381">
        <ele>178</ele>
        <time>2026-05-24T08:38:35Z</time>
      </trkpt>
      <trkpt lat="48.6779" lon="2.03381">
        <ele>178</ele>
        <time>2026-05-24T08:38:36Z</time>
      </trkpt>
      <trkpt lat="48.67795" lon="2.03382">
        <ele>177.6</ele>
        <time>2026-05-24T08:38:37Z</time>
      </trkpt>
      <trkpt lat="48.67801" lon="2.03382">
        <ele>177.6</ele>
        <time>2026-05-24T08:38:38Z</time>
      </trkpt>
      <trkpt lat="48.67806" lon="2.03383">
        <ele>177.6</ele>
        <time>2026-05-24T08:38:39Z</time>
      </trkpt>
      <trkpt lat="48.67812" lon="2.03383">
        <ele>176.6</ele>
        <time>2026-05-24T08:38:40Z</time>
      </trkpt>
      <trkpt lat="48.67817" lon="2.03384">
        <ele>177.4</ele>
        <time>2026-05-24T08:38:41Z</time>
      </trkpt>
      <trkpt lat="48.67822" lon="2.03385">
        <ele>177.4</ele>
        <time>2026-05-24T08:38:42Z</time>
      </trkpt>
      <trkpt lat="48.67828" lon="2.03385">
        <ele>177.4</ele>
        <time>2026-05-24T08:38:43Z</time>
      </trkpt>
      <trkpt lat="48.67833" lon="2.03386">
        <ele>176.4</ele>
        <time>2026-05-24T08:38:44Z</time>
      </trkpt>
      <trkpt lat="48.67839" lon="2.03386">
        <ele>176.2</ele>
        <time>2026-05-24T08:38:45Z</time>
      </trkpt>
      <trkpt lat="48.67844" lon="2.03387">
        <ele>176.2</ele>
        <time>2026-05-24T08:38:46Z</time>
      </trkpt>
      <trkpt lat="48.6785" lon="2.03387">
        <ele>176.2</ele>
        <time>2026-05-24T08:38:47Z</time>
      </trkpt>
      <trkpt lat="48.67855" lon="2.03388">
        <ele>177.2</ele>
        <time>2026-05-24T08:38:48Z</time>
      </trkpt>
      <trkpt lat="48.67861" lon="2.03388">
        <ele>176.8</ele>
        <time>2026-05-24T08:38:49Z</time>
      </trkpt>
      <trkpt lat="48.67866" lon="2.03389">
        <ele>176.8</ele>
        <time>2026-05-24T08:38:50Z</time>
      </trkpt>
      <trkpt lat="48.67871" lon="2.03389">
        <ele>176.8</ele>
        <time>2026-05-24T08:38:51Z</time>
      </trkpt>
      <trkpt lat="48.67877" lon="2.0339">
        <ele>176.8</ele>
        <time>2026-05-24T08:38:52Z</time>
      </trkpt>
      <trkpt lat="48.67882" lon="2.0339">
        <ele>176.4</ele>
        <time>2026-05-24T08:38:53Z</time>
      </trkpt>
      <trkpt lat="48.67887" lon="2.03391">
        <ele>176.4</ele>
        <time>2026-05-24T08:38:54Z</time>
      </trkpt>
      <trkpt lat="48.67893" lon="2.03391">
        <ele>176.4</ele>
        <time>2026-05-24T08:38:55Z</time>
      </trkpt>
      <trkpt lat="48.67898" lon="2.03392">
        <ele>176.4</ele>
        <time>2026-05-24T08:38:56Z</time>
      </trkpt>
      <trkpt lat="48.67904" lon="2.03392">
        <ele>176.4</ele>
        <time>2026-05-24T08:38:57Z</time>
      </trkpt>
      <trkpt lat="48.67909" lon="2.03393">
        <ele>176.4</ele>
        <time>2026-05-24T08:38:58Z</time>
      </trkpt>
      <trkpt lat="48.67914" lon="2.03393">
        <ele>176.4</ele>
        <time>2026-05-24T08:38:59Z</time>
      </trkpt>
      <trkpt lat="48.6792" lon="2.03393">
        <ele>176.4</ele>
        <time>2026-05-24T08:39:00Z</time>
      </trkpt>
      <trkpt lat="48.67925" lon="2.03393">
        <ele>175.6</ele>
        <time>2026-05-24T08:39:01Z</time>
      </trkpt>
      <trkpt lat="48.6793" lon="2.03393">
        <ele>175.6</ele>
        <time>2026-05-24T08:39:02Z</time>
      </trkpt>
      <trkpt lat="48.67936" lon="2.03393">
        <ele>175.6</ele>
        <time>2026-05-24T08:39:03Z</time>
      </trkpt>
      <trkpt lat="48.67941" lon="2.03392">
        <ele>176.2</ele>
        <time>2026-05-24T08:39:04Z</time>
      </trkpt>
      <trkpt lat="48.67946" lon="2.03391">
        <ele>175.8</ele>
        <time>2026-05-24T08:39:05Z</time>
      </trkpt>
      <trkpt lat="48.67951" lon="2.03389">
        <ele>175.8</ele>
        <time>2026-05-24T08:39:06Z</time>
      </trkpt>
      <trkpt lat="48.67956" lon="2.03387">
        <ele>175.8</ele>
        <time>2026-05-24T08:39:07Z</time>
      </trkpt>
      <trkpt lat="48.67961" lon="2.03386">
        <ele>175.8</ele>
        <time>2026-05-24T08:39:08Z</time>
      </trkpt>
      <trkpt lat="48.67965" lon="2.03384">
        <ele>177.2</ele>
        <time>2026-05-24T08:39:09Z</time>
      </trkpt>
      <trkpt lat="48.6797" lon="2.03382">
        <ele>177.2</ele>
        <time>2026-05-24T08:39:10Z</time>
      </trkpt>
      <trkpt lat="48.67974" lon="2.0338">
        <ele>177.2</ele>
        <time>2026-05-24T08:39:11Z</time>
      </trkpt>
      <trkpt lat="48.67978" lon="2.03378">
        <ele>176.2</ele>
        <time>2026-05-24T08:39:12Z</time>
      </trkpt>
      <trkpt lat="48.67981" lon="2.03376">
        <ele>176.2</ele>
        <time>2026-05-24T08:39:13Z</time>
      </trkpt>
      <trkpt lat="48.67985" lon="2.03374">
        <ele>176.2</ele>
        <time>2026-05-24T08:39:14Z</time>
      </trkpt>
      <trkpt lat="48.67989" lon="2.03372">
        <ele>176.2</ele>
        <time>2026-05-24T08:39:15Z</time>
      </trkpt>
      <trkpt lat="48.67993" lon="2.0337">
        <ele>176.2</ele>
        <time>2026-05-24T08:39:16Z</time>
      </trkpt>
      <trkpt lat="48.67996" lon="2.03366">
        <ele>177</ele>
        <time>2026-05-24T08:39:17Z</time>
      </trkpt>
      <trkpt lat="48.67999" lon="2.03363">
        <ele>177</ele>
        <time>2026-05-24T08:39:18Z</time>
      </trkpt>
      <trkpt lat="48.68002" lon="2.0336">
        <ele>177</ele>
        <time>2026-05-24T08:39:19Z</time>
      </trkpt>
      <trkpt lat="48.68006" lon="2.03357">
        <ele>177</ele>
        <time>2026-05-24T08:39:20Z</time>
      </trkpt>
      <trkpt lat="48.6801" lon="2.03355">
        <ele>176.8</ele>
        <time>2026-05-24T08:39:21Z</time>
      </trkpt>
      <trkpt lat="48.68014" lon="2.03353">
        <ele>176.8</ele>
        <time>2026-05-24T08:39:22Z</time>
      </trkpt>
      <trkpt lat="48.68018" lon="2.03351">
        <ele>176.8</ele>
        <time>2026-05-24T08:39:23Z</time>
      </trkpt>
      <trkpt lat="48.68022" lon="2.03349">
        <ele>176.8</ele>
        <time>2026-05-24T08:39:24Z</time>
      </trkpt>
      <trkpt lat="48.68026" lon="2.03347">
        <ele>176.4</ele>
        <time>2026-05-24T08:39:25Z</time>
      </trkpt>
      <trkpt lat="48.6803" lon="2.03345">
        <ele>176.4</ele>
        <time>2026-05-24T08:39:26Z</time>
      </trkpt>
      <trkpt lat="48.68035" lon="2.03342">
        <ele>176.4</ele>
        <time>2026-05-24T08:39:27Z</time>
      </trkpt>
      <trkpt lat="48.68038" lon="2.03338">
        <ele>176.6</ele>
        <time>2026-05-24T08:39:28Z</time>
      </trkpt>
      <trkpt lat="48.68042" lon="2.03335">
        <ele>177</ele>
        <time>2026-05-24T08:39:29Z</time>
      </trkpt>
      <trkpt lat="48.68046" lon="2.03332">
        <ele>177</ele>
        <time>2026-05-24T08:39:30Z</time>
      </trkpt>
      <trkpt lat="48.6805" lon="2.03331">
        <ele>177</ele>
        <time>2026-05-24T08:39:31Z</time>
      </trkpt>
      <trkpt lat="48.68054" lon="2.0333">
        <ele>177</ele>
        <time>2026-05-24T08:39:32Z</time>
      </trkpt>
      <trkpt lat="48.68058" lon="2.03328">
        <ele>177</ele>
        <time>2026-05-24T08:39:33Z</time>
      </trkpt>
      <trkpt lat="48.68062" lon="2.03326">
        <ele>177</ele>
        <time>2026-05-24T08:39:34Z</time>
      </trkpt>
      <trkpt lat="48.68066" lon="2.03324">
        <ele>177</ele>
        <time>2026-05-24T08:39:35Z</time>
      </trkpt>
      <trkpt lat="48.68071" lon="2.03321">
        <ele>177</ele>
        <time>2026-05-24T08:39:36Z</time>
      </trkpt>
      <trkpt lat="48.68075" lon="2.03319">
        <ele>177.8</ele>
        <time>2026-05-24T08:39:37Z</time>
      </trkpt>
      <trkpt lat="48.68079" lon="2.03317">
        <ele>177.8</ele>
        <time>2026-05-24T08:39:38Z</time>
      </trkpt>
      <trkpt lat="48.68083" lon="2.03314">
        <ele>177.8</ele>
        <time>2026-05-24T08:39:39Z</time>
      </trkpt>
      <trkpt lat="48.68088" lon="2.03312">
        <ele>177.4</ele>
        <time>2026-05-24T08:39:40Z</time>
      </trkpt>
      <trkpt lat="48.68092" lon="2.0331">
        <ele>177.4</ele>
        <time>2026-05-24T08:39:41Z</time>
      </trkpt>
      <trkpt lat="48.68097" lon="2.03308">
        <ele>177.4</ele>
        <time>2026-05-24T08:39:42Z</time>
      </trkpt>
      <trkpt lat="48.68102" lon="2.03306">
        <ele>177.4</ele>
        <time>2026-05-24T08:39:43Z</time>
      </trkpt>
      <trkpt lat="48.68106" lon="2.03304">
        <ele>176.4</ele>
        <time>2026-05-24T08:39:44Z</time>
      </trkpt>
      <trkpt lat="48.68111" lon="2.03302">
        <ele>176.8</ele>
        <time>2026-05-24T08:39:45Z</time>
      </trkpt>
      <trkpt lat="48.68116" lon="2.033">
        <ele>176.8</ele>
        <time>2026-05-24T08:39:46Z</time>
      </trkpt>
      <trkpt lat="48.6812" lon="2.03299">
        <ele>176.8</ele>
        <time>2026-05-24T08:39:47Z</time>
      </trkpt>
      <trkpt lat="48.68125" lon="2.03297">
        <ele>176.8</ele>
        <time>2026-05-24T08:39:48Z</time>
      </trkpt>
      <trkpt lat="48.6813" lon="2.03294">
        <ele>176.4</ele>
        <time>2026-05-24T08:39:49Z</time>
      </trkpt>
      <trkpt lat="48.68134" lon="2.03292">
        <ele>176.4</ele>
        <time>2026-05-24T08:39:50Z</time>
      </trkpt>
      <trkpt lat="48.68139" lon="2.0329">
        <ele>176.4</ele>
        <time>2026-05-24T08:39:51Z</time>
      </trkpt>
      <trkpt lat="48.68143" lon="2.03288">
        <ele>176.4</ele>
        <time>2026-05-24T08:39:52Z</time>
      </trkpt>
      <trkpt lat="48.68147" lon="2.03287">
        <ele>176.8</ele>
        <time>2026-05-24T08:39:53Z</time>
      </trkpt>
      <trkpt lat="48.68151" lon="2.03284">
        <ele>176.8</ele>
        <time>2026-05-24T08:39:54Z</time>
      </trkpt>
      <trkpt lat="48.68155" lon="2.03282">
        <ele>176.8</ele>
        <time>2026-05-24T08:39:55Z</time>
      </trkpt>
      <trkpt lat="48.68158" lon="2.0328">
        <ele>176.8</ele>
        <time>2026-05-24T08:39:56Z</time>
      </trkpt>
      <trkpt lat="48.68161" lon="2.03277">
        <ele>177.2</ele>
        <time>2026-05-24T08:39:57Z</time>
      </trkpt>
      <trkpt lat="48.68165" lon="2.03274">
        <ele>177.2</ele>
        <time>2026-05-24T08:39:58Z</time>
      </trkpt>
      <trkpt lat="48.68168" lon="2.03272">
        <ele>177.2</ele>
        <time>2026-05-24T08:39:59Z</time>
      </trkpt>
      <trkpt lat="48.68171" lon="2.0327">
        <ele>177.8</ele>
        <time>2026-05-24T08:40:00Z</time>
      </trkpt>
      <trkpt lat="48.68175" lon="2.03268">
        <ele>177.4</ele>
        <time>2026-05-24T08:40:01Z</time>
      </trkpt>
      <trkpt lat="48.68178" lon="2.03265">
        <ele>177.4</ele>
        <time>2026-05-24T08:40:02Z</time>
      </trkpt>
      <trkpt lat="48.68182" lon="2.03262">
        <ele>177.4</ele>
        <time>2026-05-24T08:40:03Z</time>
      </trkpt>
      <trkpt lat="48.68185" lon="2.03258">
        <ele>177.8</ele>
        <time>2026-05-24T08:40:04Z</time>
      </trkpt>
      <trkpt lat="48.68188" lon="2.03254">
        <ele>178.4</ele>
        <time>2026-05-24T08:40:05Z</time>
      </trkpt>
      <trkpt lat="48.68192" lon="2.03249">
        <ele>178.4</ele>
        <time>2026-05-24T08:40:06Z</time>
      </trkpt>
      <trkpt lat="48.68195" lon="2.03245">
        <ele>178.4</ele>
        <time>2026-05-24T08:40:07Z</time>
      </trkpt>
      <trkpt lat="48.68198" lon="2.0324">
        <ele>177.8</ele>
        <time>2026-05-24T08:40:08Z</time>
      </trkpt>
      <trkpt lat="48.68201" lon="2.03234">
        <ele>178.4</ele>
        <time>2026-05-24T08:40:09Z</time>
      </trkpt>
      <trkpt lat="48.68203" lon="2.03229">
        <ele>178.4</ele>
        <time>2026-05-24T08:40:10Z</time>
      </trkpt>
      <trkpt lat="48.68206" lon="2.03224">
        <ele>178.4</ele>
        <time>2026-05-24T08:40:11Z</time>
      </trkpt>
      <trkpt lat="48.68208" lon="2.03217">
        <ele>177.4</ele>
        <time>2026-05-24T08:40:12Z</time>
      </trkpt>
      <trkpt lat="48.68209" lon="2.03212">
        <ele>176.4</ele>
        <time>2026-05-24T08:40:13Z</time>
      </trkpt>
      <trkpt lat="48.68211" lon="2.03206">
        <ele>176.4</ele>
        <time>2026-05-24T08:40:14Z</time>
      </trkpt>
      <trkpt lat="48.68212" lon="2.032">
        <ele>176.4</ele>
        <time>2026-05-24T08:40:15Z</time>
      </trkpt>
      <trkpt lat="48.68214" lon="2.03194">
        <ele>176.8</ele>
        <time>2026-05-24T08:40:16Z</time>
      </trkpt>
      <trkpt lat="48.68215" lon="2.03188">
        <ele>176.6</ele>
        <time>2026-05-24T08:40:17Z</time>
      </trkpt>
      <trkpt lat="48.68216" lon="2.03182">
        <ele>176.6</ele>
        <time>2026-05-24T08:40:18Z</time>
      </trkpt>
      <trkpt lat="48.68218" lon="2.03176">
        <ele>176.6</ele>
        <time>2026-05-24T08:40:19Z</time>
      </trkpt>
      <trkpt lat="48.68219" lon="2.0317">
        <ele>177</ele>
        <time>2026-05-24T08:40:20Z</time>
      </trkpt>
      <trkpt lat="48.68221" lon="2.03165">
        <ele>177</ele>
        <time>2026-05-24T08:40:21Z</time>
      </trkpt>
      <trkpt lat="48.68222" lon="2.03161">
        <ele>177</ele>
        <time>2026-05-24T08:40:22Z</time>
      </trkpt>
      <trkpt lat="48.68224" lon="2.03156">
        <ele>177</ele>
        <time>2026-05-24T08:40:23Z</time>
      </trkpt>
      <trkpt lat="48.68225" lon="2.03151">
        <ele>177.4</ele>
        <time>2026-05-24T08:40:24Z</time>
      </trkpt>
      <trkpt lat="48.68225" lon="2.03146">
        <ele>177.2</ele>
        <time>2026-05-24T08:40:25Z</time>
      </trkpt>
      <trkpt lat="48.68226" lon="2.0314">
        <ele>177.2</ele>
        <time>2026-05-24T08:40:26Z</time>
      </trkpt>
      <trkpt lat="48.68228" lon="2.03135">
        <ele>177.2</ele>
        <time>2026-05-24T08:40:27Z</time>
      </trkpt>
      <trkpt lat="48.68229" lon="2.03129">
        <ele>177.2</ele>
        <time>2026-05-24T08:40:28Z</time>
      </trkpt>
      <trkpt lat="48.68232" lon="2.03124">
        <ele>177.6</ele>
        <time>2026-05-24T08:40:29Z</time>
      </trkpt>
      <trkpt lat="48.68234" lon="2.03119">
        <ele>177.6</ele>
        <time>2026-05-24T08:40:30Z</time>
      </trkpt>
      <trkpt lat="48.68236" lon="2.03115">
        <ele>177.6</ele>
        <time>2026-05-24T08:40:31Z</time>
      </trkpt>
      <trkpt lat="48.68238" lon="2.03111">
        <ele>177.4</ele>
        <time>2026-05-24T08:40:32Z</time>
      </trkpt>
      <trkpt lat="48.6824" lon="2.03105">
        <ele>177.4</ele>
        <time>2026-05-24T08:40:33Z</time>
      </trkpt>
      <trkpt lat="48.68243" lon="2.031">
        <ele>177.4</ele>
        <time>2026-05-24T08:40:34Z</time>
      </trkpt>
      <trkpt lat="48.68245" lon="2.03095">
        <ele>177.4</ele>
        <time>2026-05-24T08:40:35Z</time>
      </trkpt>
      <trkpt lat="48.68247" lon="2.0309">
        <ele>178</ele>
        <time>2026-05-24T08:40:36Z</time>
      </trkpt>
      <trkpt lat="48.68249" lon="2.03085">
        <ele>177.6</ele>
        <time>2026-05-24T08:40:37Z</time>
      </trkpt>
      <trkpt lat="48.68251" lon="2.03081">
        <ele>177.6</ele>
        <time>2026-05-24T08:40:38Z</time>
      </trkpt>
      <trkpt lat="48.68254" lon="2.03077">
        <ele>177.6</ele>
        <time>2026-05-24T08:40:39Z</time>
      </trkpt>
      <trkpt lat="48.68256" lon="2.03073">
        <ele>176.8</ele>
        <time>2026-05-24T08:40:40Z</time>
      </trkpt>
      <trkpt lat="48.68258" lon="2.03067">
        <ele>177.6</ele>
        <time>2026-05-24T08:40:41Z</time>
      </trkpt>
      <trkpt lat="48.6826" lon="2.03061">
        <ele>177.6</ele>
        <time>2026-05-24T08:40:42Z</time>
      </trkpt>
      <trkpt lat="48.68261" lon="2.03056">
        <ele>177.6</ele>
        <time>2026-05-24T08:40:43Z</time>
      </trkpt>
      <trkpt lat="48.68263" lon="2.0305">
        <ele>177.6</ele>
        <time>2026-05-24T08:40:44Z</time>
      </trkpt>
      <trkpt lat="48.68266" lon="2.03045">
        <ele>177.6</ele>
        <time>2026-05-24T08:40:45Z</time>
      </trkpt>
      <trkpt lat="48.68267" lon="2.03039">
        <ele>177.6</ele>
        <time>2026-05-24T08:40:46Z</time>
      </trkpt>
      <trkpt lat="48.6827" lon="2.03032">
        <ele>177.6</ele>
        <time>2026-05-24T08:40:47Z</time>
      </trkpt>
      <trkpt lat="48.68272" lon="2.03027">
        <ele>177.6</ele>
        <time>2026-05-24T08:40:48Z</time>
      </trkpt>
      <trkpt lat="48.68275" lon="2.03024">
        <ele>177.4</ele>
        <time>2026-05-24T08:40:49Z</time>
      </trkpt>
      <trkpt lat="48.68277" lon="2.03018">
        <ele>177.4</ele>
        <time>2026-05-24T08:40:50Z</time>
      </trkpt>
      <trkpt lat="48.68279" lon="2.03013">
        <ele>177.4</ele>
        <time>2026-05-24T08:40:51Z</time>
      </trkpt>
      <trkpt lat="48.68281" lon="2.03006">
        <ele>177.4</ele>
        <time>2026-05-24T08:40:52Z</time>
      </trkpt>
      <trkpt lat="48.68283" lon="2.03001">
        <ele>177.4</ele>
        <time>2026-05-24T08:40:53Z</time>
      </trkpt>
      <trkpt lat="48.68286" lon="2.02996">
        <ele>177.4</ele>
        <time>2026-05-24T08:40:54Z</time>
      </trkpt>
      <trkpt lat="48.68289" lon="2.02991">
        <ele>177.4</ele>
        <time>2026-05-24T08:40:55Z</time>
      </trkpt>
      <trkpt lat="48.68291" lon="2.02984">
        <ele>177.4</ele>
        <time>2026-05-24T08:40:56Z</time>
      </trkpt>
      <trkpt lat="48.68293" lon="2.02979">
        <ele>176.8</ele>
        <time>2026-05-24T08:40:57Z</time>
      </trkpt>
      <trkpt lat="48.68296" lon="2.02975">
        <ele>176.8</ele>
        <time>2026-05-24T08:40:58Z</time>
      </trkpt>
      <trkpt lat="48.683" lon="2.02973">
        <ele>176.8</ele>
        <time>2026-05-24T08:40:59Z</time>
      </trkpt>
      <trkpt lat="48.68303" lon="2.02969">
        <ele>177.2</ele>
        <time>2026-05-24T08:41:00Z</time>
      </trkpt>
      <trkpt lat="48.68306" lon="2.02968">
        <ele>177.2</ele>
        <time>2026-05-24T08:41:01Z</time>
      </trkpt>
      <trkpt lat="48.68309" lon="2.02965">
        <ele>177.2</ele>
        <time>2026-05-24T08:41:02Z</time>
      </trkpt>
      <trkpt lat="48.68312" lon="2.02962">
        <ele>177.2</ele>
        <time>2026-05-24T08:41:03Z</time>
      </trkpt>
      <trkpt lat="48.68316" lon="2.0296">
        <ele>177.2</ele>
        <time>2026-05-24T08:41:04Z</time>
      </trkpt>
      <trkpt lat="48.6832" lon="2.0296">
        <ele>177.8</ele>
        <time>2026-05-24T08:41:05Z</time>
      </trkpt>
      <trkpt lat="48.68323" lon="2.0296">
        <ele>177.8</ele>
        <time>2026-05-24T08:41:06Z</time>
      </trkpt>
      <trkpt lat="48.68325" lon="2.02957">
        <ele>177.8</ele>
        <time>2026-05-24T08:41:07Z</time>
      </trkpt>
      <trkpt lat="48.68329" lon="2.02954">
        <ele>177.8</ele>
        <time>2026-05-24T08:41:08Z</time>
      </trkpt>
      <trkpt lat="48.68332" lon="2.02953">
        <ele>178.2</ele>
        <time>2026-05-24T08:41:09Z</time>
      </trkpt>
      <trkpt lat="48.68335" lon="2.02951">
        <ele>178.2</ele>
        <time>2026-05-24T08:41:10Z</time>
      </trkpt>
      <trkpt lat="48.68339" lon="2.02948">
        <ele>178.2</ele>
        <time>2026-05-24T08:41:11Z</time>
      </trkpt>
      <trkpt lat="48.68342" lon="2.02946">
        <ele>178.2</ele>
        <time>2026-05-24T08:41:12Z</time>
      </trkpt>
      <trkpt lat="48.68346" lon="2.02943">
        <ele>178</ele>
        <time>2026-05-24T08:41:13Z</time>
      </trkpt>
      <trkpt lat="48.6835" lon="2.02939">
        <ele>178</ele>
        <time>2026-05-24T08:41:14Z</time>
      </trkpt>
      <trkpt lat="48.68354" lon="2.02937">
        <ele>178</ele>
        <time>2026-05-24T08:41:15Z</time>
      </trkpt>
      <trkpt lat="48.68358" lon="2.02932">
        <ele>178</ele>
        <time>2026-05-24T08:41:16Z</time>
      </trkpt>
      <trkpt lat="48.68362" lon="2.02929">
        <ele>178</ele>
        <time>2026-05-24T08:41:17Z</time>
      </trkpt>
      <trkpt lat="48.68366" lon="2.02927">
        <ele>178</ele>
        <time>2026-05-24T08:41:18Z</time>
      </trkpt>
      <trkpt lat="48.68371" lon="2.02926">
        <ele>178</ele>
        <time>2026-05-24T08:41:19Z</time>
      </trkpt>
      <trkpt lat="48.68375" lon="2.02925">
        <ele>178</ele>
        <time>2026-05-24T08:41:20Z</time>
      </trkpt>
      <trkpt lat="48.68379" lon="2.02924">
        <ele>178.2</ele>
        <time>2026-05-24T08:41:21Z</time>
      </trkpt>
      <trkpt lat="48.68383" lon="2.02924">
        <ele>178.2</ele>
        <time>2026-05-24T08:41:22Z</time>
      </trkpt>
      <trkpt lat="48.68387" lon="2.02923">
        <ele>178.2</ele>
        <time>2026-05-24T08:41:23Z</time>
      </trkpt>
      <trkpt lat="48.68393" lon="2.02922">
        <ele>178.2</ele>
        <time>2026-05-24T08:41:24Z</time>
      </trkpt>
      <trkpt lat="48.68396" lon="2.02922">
        <ele>178</ele>
        <time>2026-05-24T08:41:25Z</time>
      </trkpt>
      <trkpt lat="48.68401" lon="2.02921">
        <ele>178</ele>
        <time>2026-05-24T08:41:26Z</time>
      </trkpt>
      <trkpt lat="48.68406" lon="2.0292">
        <ele>178</ele>
        <time>2026-05-24T08:41:27Z</time>
      </trkpt>
      <trkpt lat="48.68411" lon="2.02918">
        <ele>178</ele>
        <time>2026-05-24T08:41:28Z</time>
      </trkpt>
      <trkpt lat="48.68415" lon="2.02917">
        <ele>178</ele>
        <time>2026-05-24T08:41:29Z</time>
      </trkpt>
      <trkpt lat="48.6842" lon="2.02917">
        <ele>178</ele>
        <time>2026-05-24T08:41:30Z</time>
      </trkpt>
      <trkpt lat="48.68424" lon="2.02916">
        <ele>178</ele>
        <time>2026-05-24T08:41:31Z</time>
      </trkpt>
      <trkpt lat="48.68429" lon="2.02915">
        <ele>178</ele>
        <time>2026-05-24T08:41:32Z</time>
      </trkpt>
      <trkpt lat="48.68433" lon="2.02915">
        <ele>179.4</ele>
        <time>2026-05-24T08:41:33Z</time>
      </trkpt>
      <trkpt lat="48.68437" lon="2.02913">
        <ele>179.4</ele>
        <time>2026-05-24T08:41:34Z</time>
      </trkpt>
      <trkpt lat="48.68442" lon="2.02911">
        <ele>179.4</ele>
        <time>2026-05-24T08:41:35Z</time>
      </trkpt>
      <trkpt lat="48.68446" lon="2.0291">
        <ele>178.4</ele>
        <time>2026-05-24T08:41:36Z</time>
      </trkpt>
      <trkpt lat="48.68449" lon="2.02908">
        <ele>178.4</ele>
        <time>2026-05-24T08:41:37Z</time>
      </trkpt>
      <trkpt lat="48.68453" lon="2.02907">
        <ele>178.4</ele>
        <time>2026-05-24T08:41:38Z</time>
      </trkpt>
      <trkpt lat="48.68459" lon="2.02904">
        <ele>178.4</ele>
        <time>2026-05-24T08:41:39Z</time>
      </trkpt>
      <trkpt lat="48.68463" lon="2.02902">
        <ele>178</ele>
        <time>2026-05-24T08:41:40Z</time>
      </trkpt>
      <trkpt lat="48.68468" lon="2.02901">
        <ele>178.2</ele>
        <time>2026-05-24T08:41:41Z</time>
      </trkpt>
      <trkpt lat="48.68472" lon="2.02901">
        <ele>178.2</ele>
        <time>2026-05-24T08:41:42Z</time>
      </trkpt>
      <trkpt lat="48.68476" lon="2.029">
        <ele>178.2</ele>
        <time>2026-05-24T08:41:43Z</time>
      </trkpt>
      <trkpt lat="48.6848" lon="2.02899">
        <ele>178.2</ele>
        <time>2026-05-24T08:41:44Z</time>
      </trkpt>
      <trkpt lat="48.68485" lon="2.02899">
        <ele>177.8</ele>
        <time>2026-05-24T08:41:45Z</time>
      </trkpt>
      <trkpt lat="48.68489" lon="2.02897">
        <ele>177.8</ele>
        <time>2026-05-24T08:41:46Z</time>
      </trkpt>
      <trkpt lat="48.68493" lon="2.02895">
        <ele>177.8</ele>
        <time>2026-05-24T08:41:47Z</time>
      </trkpt>
      <trkpt lat="48.68498" lon="2.02894">
        <ele>178</ele>
        <time>2026-05-24T08:41:48Z</time>
      </trkpt>
      <trkpt lat="48.68503" lon="2.02893">
        <ele>178.2</ele>
        <time>2026-05-24T08:41:49Z</time>
      </trkpt>
      <trkpt lat="48.68507" lon="2.02892">
        <ele>178.2</ele>
        <time>2026-05-24T08:41:50Z</time>
      </trkpt>
      <trkpt lat="48.68511" lon="2.02891">
        <ele>178.2</ele>
        <time>2026-05-24T08:41:51Z</time>
      </trkpt>
      <trkpt lat="48.68515" lon="2.02891">
        <ele>178.2</ele>
        <time>2026-05-24T08:41:52Z</time>
      </trkpt>
      <trkpt lat="48.6852" lon="2.0289">
        <ele>178.4</ele>
        <time>2026-05-24T08:41:53Z</time>
      </trkpt>
      <trkpt lat="48.68525" lon="2.02889">
        <ele>178.4</ele>
        <time>2026-05-24T08:41:54Z</time>
      </trkpt>
      <trkpt lat="48.6853" lon="2.02889">
        <ele>178.4</ele>
        <time>2026-05-24T08:41:55Z</time>
      </trkpt>
      <trkpt lat="48.68535" lon="2.02888">
        <ele>177.8</ele>
        <time>2026-05-24T08:41:56Z</time>
      </trkpt>
      <trkpt lat="48.6854" lon="2.02886">
        <ele>177.8</ele>
        <time>2026-05-24T08:41:57Z</time>
      </trkpt>
      <trkpt lat="48.68545" lon="2.02885">
        <ele>177.8</ele>
        <time>2026-05-24T08:41:58Z</time>
      </trkpt>
      <trkpt lat="48.6855" lon="2.02883">
        <ele>177.8</ele>
        <time>2026-05-24T08:41:59Z</time>
      </trkpt>
      <trkpt lat="48.68554" lon="2.02882">
        <ele>177</ele>
        <time>2026-05-24T08:42:00Z</time>
      </trkpt>
      <trkpt lat="48.68558" lon="2.02879">
        <ele>177.2</ele>
        <time>2026-05-24T08:42:01Z</time>
      </trkpt>
      <trkpt lat="48.68562" lon="2.02877">
        <ele>177.2</ele>
        <time>2026-05-24T08:42:02Z</time>
      </trkpt>
      <trkpt lat="48.68566" lon="2.02877">
        <ele>177.2</ele>
        <time>2026-05-24T08:42:03Z</time>
      </trkpt>
      <trkpt lat="48.6857" lon="2.02876">
        <ele>177.2</ele>
        <time>2026-05-24T08:42:04Z</time>
      </trkpt>
      <trkpt lat="48.68574" lon="2.02875">
        <ele>177.4</ele>
        <time>2026-05-24T08:42:05Z</time>
      </trkpt>
      <trkpt lat="48.68579" lon="2.02874">
        <ele>177.4</ele>
        <time>2026-05-24T08:42:06Z</time>
      </trkpt>
      <trkpt lat="48.68584" lon="2.02875">
        <ele>177.4</ele>
        <time>2026-05-24T08:42:07Z</time>
      </trkpt>
      <trkpt lat="48.68589" lon="2.02873">
        <ele>177.4</ele>
        <time>2026-05-24T08:42:08Z</time>
      </trkpt>
      <trkpt lat="48.68594" lon="2.02872">
        <ele>177.2</ele>
        <time>2026-05-24T08:42:09Z</time>
      </trkpt>
      <trkpt lat="48.686" lon="2.02869">
        <ele>177.2</ele>
        <time>2026-05-24T08:42:10Z</time>
      </trkpt>
      <trkpt lat="48.68606" lon="2.02868">
        <ele>177.2</ele>
        <time>2026-05-24T08:42:11Z</time>
      </trkpt>
      <trkpt lat="48.68611" lon="2.02868">
        <ele>177.2</ele>
        <time>2026-05-24T08:42:12Z</time>
      </trkpt>
      <trkpt lat="48.68616" lon="2.02867">
        <ele>176.8</ele>
        <time>2026-05-24T08:42:13Z</time>
      </trkpt>
      <trkpt lat="48.68622" lon="2.02867">
        <ele>176.8</ele>
        <time>2026-05-24T08:42:14Z</time>
      </trkpt>
      <trkpt lat="48.68628" lon="2.02868">
        <ele>176.8</ele>
        <time>2026-05-24T08:42:15Z</time>
      </trkpt>
      <trkpt lat="48.68632" lon="2.0287">
        <ele>176.8</ele>
        <time>2026-05-24T08:42:16Z</time>
      </trkpt>
      <trkpt lat="48.68638" lon="2.0287">
        <ele>176.8</ele>
        <time>2026-05-24T08:42:17Z</time>
      </trkpt>
      <trkpt lat="48.68644" lon="2.02871">
        <ele>176.8</ele>
        <time>2026-05-24T08:42:18Z</time>
      </trkpt>
      <trkpt lat="48.68649" lon="2.02872">
        <ele>176.8</ele>
        <time>2026-05-24T08:42:19Z</time>
      </trkpt>
      <trkpt lat="48.68655" lon="2.02873">
        <ele>175.8</ele>
        <time>2026-05-24T08:42:20Z</time>
      </trkpt>
      <trkpt lat="48.68661" lon="2.02873">
        <ele>176.6</ele>
        <time>2026-05-24T08:42:21Z</time>
      </trkpt>
      <trkpt lat="48.68666" lon="2.02874">
        <ele>176.6</ele>
        <time>2026-05-24T08:42:22Z</time>
      </trkpt>
      <trkpt lat="48.6867" lon="2.02875">
        <ele>176.6</ele>
        <time>2026-05-24T08:42:23Z</time>
      </trkpt>
      <trkpt lat="48.68676" lon="2.02876">
        <ele>176.6</ele>
        <time>2026-05-24T08:42:24Z</time>
      </trkpt>
      <trkpt lat="48.68681" lon="2.02877">
        <ele>175.8</ele>
        <time>2026-05-24T08:42:25Z</time>
      </trkpt>
      <trkpt lat="48.68687" lon="2.02875">
        <ele>175.8</ele>
        <time>2026-05-24T08:42:26Z</time>
      </trkpt>
      <trkpt lat="48.68691" lon="2.02875">
        <ele>175.8</ele>
        <time>2026-05-24T08:42:27Z</time>
      </trkpt>
      <trkpt lat="48.68695" lon="2.02875">
        <ele>175.8</ele>
        <time>2026-05-24T08:42:28Z</time>
      </trkpt>
      <trkpt lat="48.687" lon="2.02875">
        <ele>175.4</ele>
        <time>2026-05-24T08:42:29Z</time>
      </trkpt>
      <trkpt lat="48.68706" lon="2.02875">
        <ele>175.4</ele>
        <time>2026-05-24T08:42:30Z</time>
      </trkpt>
      <trkpt lat="48.68712" lon="2.02875">
        <ele>175.4</ele>
        <time>2026-05-24T08:42:31Z</time>
      </trkpt>
      <trkpt lat="48.68717" lon="2.02873">
        <ele>175.4</ele>
        <time>2026-05-24T08:42:32Z</time>
      </trkpt>
      <trkpt lat="48.68722" lon="2.02872">
        <ele>174.2</ele>
        <time>2026-05-24T08:42:33Z</time>
      </trkpt>
      <trkpt lat="48.68726" lon="2.0287">
        <ele>174.2</ele>
        <time>2026-05-24T08:42:34Z</time>
      </trkpt>
      <trkpt lat="48.68731" lon="2.02868">
        <ele>174.2</ele>
        <time>2026-05-24T08:42:35Z</time>
      </trkpt>
      <trkpt lat="48.68735" lon="2.02865">
        <ele>175.2</ele>
        <time>2026-05-24T08:42:36Z</time>
      </trkpt>
      <trkpt lat="48.68741" lon="2.02862">
        <ele>174.4</ele>
        <time>2026-05-24T08:42:37Z</time>
      </trkpt>
      <trkpt lat="48.68746" lon="2.0286">
        <ele>174.4</ele>
        <time>2026-05-24T08:42:38Z</time>
      </trkpt>
      <trkpt lat="48.68751" lon="2.02857">
        <ele>174.4</ele>
        <time>2026-05-24T08:42:39Z</time>
      </trkpt>
      <trkpt lat="48.68755" lon="2.02855">
        <ele>174.4</ele>
        <time>2026-05-24T08:42:40Z</time>
      </trkpt>
      <trkpt lat="48.6876" lon="2.02854">
        <ele>176.4</ele>
        <time>2026-05-24T08:42:41Z</time>
      </trkpt>
      <trkpt lat="48.68763" lon="2.02853">
        <ele>176.4</ele>
        <time>2026-05-24T08:42:42Z</time>
      </trkpt>
      <trkpt lat="48.68766" lon="2.0285">
        <ele>176.4</ele>
        <time>2026-05-24T08:42:43Z</time>
      </trkpt>
      <trkpt lat="48.6877" lon="2.02848">
        <ele>175.4</ele>
        <time>2026-05-24T08:42:44Z</time>
      </trkpt>
      <trkpt lat="48.68774" lon="2.02846">
        <ele>174.4</ele>
        <time>2026-05-24T08:42:45Z</time>
      </trkpt>
      <trkpt lat="48.68779" lon="2.02844">
        <ele>174.4</ele>
        <time>2026-05-24T08:42:46Z</time>
      </trkpt>
      <trkpt lat="48.68784" lon="2.0284">
        <ele>174.4</ele>
        <time>2026-05-24T08:42:47Z</time>
      </trkpt>
      <trkpt lat="48.68788" lon="2.02838">
        <ele>174.4</ele>
        <time>2026-05-24T08:42:48Z</time>
      </trkpt>
      <trkpt lat="48.68791" lon="2.02835">
        <ele>173.2</ele>
        <time>2026-05-24T08:42:49Z</time>
      </trkpt>
      <trkpt lat="48.68796" lon="2.02832">
        <ele>173.2</ele>
        <time>2026-05-24T08:42:50Z</time>
      </trkpt>
      <trkpt lat="48.688" lon="2.02827">
        <ele>173.2</ele>
        <time>2026-05-24T08:42:51Z</time>
      </trkpt>
      <trkpt lat="48.68803" lon="2.02824">
        <ele>173.2</ele>
        <time>2026-05-24T08:42:52Z</time>
      </trkpt>
      <trkpt lat="48.68807" lon="2.0282">
        <ele>172.6</ele>
        <time>2026-05-24T08:42:53Z</time>
      </trkpt>
      <trkpt lat="48.68811" lon="2.02817">
        <ele>172.6</ele>
        <time>2026-05-24T08:42:54Z</time>
      </trkpt>
      <trkpt lat="48.68816" lon="2.02815">
        <ele>172.6</ele>
        <time>2026-05-24T08:42:55Z</time>
      </trkpt>
      <trkpt lat="48.68819" lon="2.02812">
        <ele>172.4</ele>
        <time>2026-05-24T08:42:56Z</time>
      </trkpt>
      <trkpt lat="48.68822" lon="2.02809">
        <ele>172.4</ele>
        <time>2026-05-24T08:42:57Z</time>
      </trkpt>
      <trkpt lat="48.68827" lon="2.02806">
        <ele>172.4</ele>
        <time>2026-05-24T08:42:58Z</time>
      </trkpt>
      <trkpt lat="48.68831" lon="2.02803">
        <ele>172.4</ele>
        <time>2026-05-24T08:42:59Z</time>
      </trkpt>
      <trkpt lat="48.68834" lon="2.02802">
        <ele>172.4</ele>
        <time>2026-05-24T08:43:00Z</time>
      </trkpt>
      <trkpt lat="48.68838" lon="2.02802">
        <ele>172.6</ele>
        <time>2026-05-24T08:43:01Z</time>
      </trkpt>
      <trkpt lat="48.68843" lon="2.028">
        <ele>172.6</ele>
        <time>2026-05-24T08:43:02Z</time>
      </trkpt>
      <trkpt lat="48.68846" lon="2.02799">
        <ele>172.6</ele>
        <time>2026-05-24T08:43:03Z</time>
      </trkpt>
      <trkpt lat="48.68851" lon="2.02797">
        <ele>171.6</ele>
        <time>2026-05-24T08:43:04Z</time>
      </trkpt>
      <trkpt lat="48.68856" lon="2.02795">
        <ele>171</ele>
        <time>2026-05-24T08:43:05Z</time>
      </trkpt>
      <trkpt lat="48.68861" lon="2.02793">
        <ele>171</ele>
        <time>2026-05-24T08:43:06Z</time>
      </trkpt>
      <trkpt lat="48.68866" lon="2.02793">
        <ele>171</ele>
        <time>2026-05-24T08:43:07Z</time>
      </trkpt>
      <trkpt lat="48.68869" lon="2.02795">
        <ele>170</ele>
        <time>2026-05-24T08:43:08Z</time>
      </trkpt>
      <trkpt lat="48.68874" lon="2.02796">
        <ele>170.6</ele>
        <time>2026-05-24T08:43:09Z</time>
      </trkpt>
      <trkpt lat="48.6888" lon="2.02797">
        <ele>170.6</ele>
        <time>2026-05-24T08:43:10Z</time>
      </trkpt>
      <trkpt lat="48.68885" lon="2.02798">
        <ele>170.6</ele>
        <time>2026-05-24T08:43:11Z</time>
      </trkpt>
      <trkpt lat="48.68891" lon="2.028">
        <ele>170.2</ele>
        <time>2026-05-24T08:43:12Z</time>
      </trkpt>
      <trkpt lat="48.68894" lon="2.02801">
        <ele>169.6</ele>
        <time>2026-05-24T08:43:13Z</time>
      </trkpt>
      <trkpt lat="48.68897" lon="2.02801">
        <ele>169.6</ele>
        <time>2026-05-24T08:43:14Z</time>
      </trkpt>
      <trkpt lat="48.689" lon="2.02802">
        <ele>169.6</ele>
        <time>2026-05-24T08:43:15Z</time>
      </trkpt>
      <trkpt lat="48.68903" lon="2.02803">
        <ele>169.6</ele>
        <time>2026-05-24T08:43:16Z</time>
      </trkpt>
      <trkpt lat="48.68904" lon="2.02806">
        <ele>169.8</ele>
        <time>2026-05-24T08:43:17Z</time>
      </trkpt>
      <trkpt lat="48.68904" lon="2.02809">
        <ele>169.8</ele>
        <time>2026-05-24T08:43:18Z</time>
      </trkpt>
      <trkpt lat="48.68905" lon="2.02813">
        <ele>169.8</ele>
        <time>2026-05-24T08:43:19Z</time>
      </trkpt>
      <trkpt lat="48.68905" lon="2.02818">
        <ele>169.8</ele>
        <time>2026-05-24T08:43:20Z</time>
      </trkpt>
      <trkpt lat="48.68906" lon="2.02823">
        <ele>170</ele>
        <time>2026-05-24T08:43:21Z</time>
      </trkpt>
      <trkpt lat="48.68907" lon="2.02828">
        <ele>170</ele>
        <time>2026-05-24T08:43:22Z</time>
      </trkpt>
      <trkpt lat="48.68908" lon="2.02834">
        <ele>170</ele>
        <time>2026-05-24T08:43:23Z</time>
      </trkpt>
      <trkpt lat="48.68908" lon="2.02838">
        <ele>170</ele>
        <time>2026-05-24T08:43:24Z</time>
      </trkpt>
      <trkpt lat="48.68908" lon="2.02843">
        <ele>170.2</ele>
        <time>2026-05-24T08:43:25Z</time>
      </trkpt>
      <trkpt lat="48.68908" lon="2.02847">
        <ele>170.2</ele>
        <time>2026-05-24T08:43:26Z</time>
      </trkpt>
      <trkpt lat="48.68907" lon="2.02852">
        <ele>170.2</ele>
        <time>2026-05-24T08:43:27Z</time>
      </trkpt>
      <trkpt lat="48.68907" lon="2.02858">
        <ele>170</ele>
        <time>2026-05-24T08:43:28Z</time>
      </trkpt>
      <trkpt lat="48.68908" lon="2.02865">
        <ele>169.6</ele>
        <time>2026-05-24T08:43:29Z</time>
      </trkpt>
      <trkpt lat="48.68908" lon="2.02869">
        <ele>169.6</ele>
        <time>2026-05-24T08:43:30Z</time>
      </trkpt>
      <trkpt lat="48.68907" lon="2.02875">
        <ele>169.6</ele>
        <time>2026-05-24T08:43:31Z</time>
      </trkpt>
      <trkpt lat="48.68908" lon="2.02882">
        <ele>169.6</ele>
        <time>2026-05-24T08:43:32Z</time>
      </trkpt>
      <trkpt lat="48.68908" lon="2.02889">
        <ele>169.4</ele>
        <time>2026-05-24T08:43:33Z</time>
      </trkpt>
      <trkpt lat="48.68909" lon="2.02896">
        <ele>169.4</ele>
        <time>2026-05-24T08:43:34Z</time>
      </trkpt>
      <trkpt lat="48.68909" lon="2.02902">
        <ele>169.4</ele>
        <time>2026-05-24T08:43:35Z</time>
      </trkpt>
      <trkpt lat="48.68909" lon="2.02909">
        <ele>169.4</ele>
        <time>2026-05-24T08:43:36Z</time>
      </trkpt>
      <trkpt lat="48.68909" lon="2.02915">
        <ele>169.8</ele>
        <time>2026-05-24T08:43:37Z</time>
      </trkpt>
      <trkpt lat="48.6891" lon="2.02923">
        <ele>169.8</ele>
        <time>2026-05-24T08:43:38Z</time>
      </trkpt>
      <trkpt lat="48.68909" lon="2.02928">
        <ele>169.8</ele>
        <time>2026-05-24T08:43:39Z</time>
      </trkpt>
      <trkpt lat="48.6891" lon="2.02935">
        <ele>169.6</ele>
        <time>2026-05-24T08:43:40Z</time>
      </trkpt>
      <trkpt lat="48.68909" lon="2.02941">
        <ele>169.2</ele>
        <time>2026-05-24T08:43:41Z</time>
      </trkpt>
      <trkpt lat="48.6891" lon="2.02946">
        <ele>169.2</ele>
        <time>2026-05-24T08:43:42Z</time>
      </trkpt>
      <trkpt lat="48.6891" lon="2.02952">
        <ele>169.2</ele>
        <time>2026-05-24T08:43:43Z</time>
      </trkpt>
      <trkpt lat="48.68909" lon="2.02957">
        <ele>169.2</ele>
        <time>2026-05-24T08:43:44Z</time>
      </trkpt>
      <trkpt lat="48.6891" lon="2.02964">
        <ele>169.6</ele>
        <time>2026-05-24T08:43:45Z</time>
      </trkpt>
      <trkpt lat="48.6891" lon="2.02969">
        <ele>169.6</ele>
        <time>2026-05-24T08:43:46Z</time>
      </trkpt>
      <trkpt lat="48.6891" lon="2.02978">
        <ele>169.6</ele>
        <time>2026-05-24T08:43:47Z</time>
      </trkpt>
      <trkpt lat="48.6891" lon="2.02985">
        <ele>169.6</ele>
        <time>2026-05-24T08:43:48Z</time>
      </trkpt>
      <trkpt lat="48.68911" lon="2.02992">
        <ele>169.6</ele>
        <time>2026-05-24T08:43:49Z</time>
      </trkpt>
      <trkpt lat="48.68911" lon="2.03">
        <ele>169.6</ele>
        <time>2026-05-24T08:43:50Z</time>
      </trkpt>
      <trkpt lat="48.68911" lon="2.03007">
        <ele>169.6</ele>
        <time>2026-05-24T08:43:51Z</time>
      </trkpt>
      <trkpt lat="48.68911" lon="2.03014">
        <ele>169.6</ele>
        <time>2026-05-24T08:43:52Z</time>
      </trkpt>
      <trkpt lat="48.68911" lon="2.03021">
        <ele>169</ele>
        <time>2026-05-24T08:43:53Z</time>
      </trkpt>
      <trkpt lat="48.68911" lon="2.03028">
        <ele>169</ele>
        <time>2026-05-24T08:43:54Z</time>
      </trkpt>
      <trkpt lat="48.68912" lon="2.03036">
        <ele>169</ele>
        <time>2026-05-24T08:43:55Z</time>
      </trkpt>
      <trkpt lat="48.68912" lon="2.03042">
        <ele>169.4</ele>
        <time>2026-05-24T08:43:56Z</time>
      </trkpt>
      <trkpt lat="48.68912" lon="2.03049">
        <ele>170</ele>
        <time>2026-05-24T08:43:57Z</time>
      </trkpt>
      <trkpt lat="48.68912" lon="2.03054">
        <ele>170</ele>
        <time>2026-05-24T08:43:58Z</time>
      </trkpt>
      <trkpt lat="48.68911" lon="2.03061">
        <ele>170</ele>
        <time>2026-05-24T08:43:59Z</time>
      </trkpt>
      <trkpt lat="48.68911" lon="2.03068">
        <ele>169.8</ele>
        <time>2026-05-24T08:44:00Z</time>
      </trkpt>
      <trkpt lat="48.68911" lon="2.03075">
        <ele>169.4</ele>
        <time>2026-05-24T08:44:01Z</time>
      </trkpt>
      <trkpt lat="48.6891" lon="2.0308">
        <ele>169.4</ele>
        <time>2026-05-24T08:44:02Z</time>
      </trkpt>
      <trkpt lat="48.6891" lon="2.03089">
        <ele>169.4</ele>
        <time>2026-05-24T08:44:03Z</time>
      </trkpt>
      <trkpt lat="48.68911" lon="2.03098">
        <ele>169.4</ele>
        <time>2026-05-24T08:44:04Z</time>
      </trkpt>
      <trkpt lat="48.6891" lon="2.03103">
        <ele>169</ele>
        <time>2026-05-24T08:44:05Z</time>
      </trkpt>
      <trkpt lat="48.6891" lon="2.03109">
        <ele>169</ele>
        <time>2026-05-24T08:44:06Z</time>
      </trkpt>
      <trkpt lat="48.68911" lon="2.03113">
        <ele>169</ele>
        <time>2026-05-24T08:44:07Z</time>
      </trkpt>
      <trkpt lat="48.68911" lon="2.03117">
        <ele>169</ele>
        <time>2026-05-24T08:44:08Z</time>
      </trkpt>
      <trkpt lat="48.68911" lon="2.03122">
        <ele>169.4</ele>
        <time>2026-05-24T08:44:09Z</time>
      </trkpt>
      <trkpt lat="48.68911" lon="2.03124">
        <ele>169.4</ele>
        <time>2026-05-24T08:44:10Z</time>
      </trkpt>
      <trkpt lat="48.68911" lon="2.03127">
        <ele>169.4</ele>
        <time>2026-05-24T08:44:11Z</time>
      </trkpt>
      <trkpt lat="48.68912" lon="2.03131">
        <ele>169.2</ele>
        <time>2026-05-24T08:44:12Z</time>
      </trkpt>
      <trkpt lat="48.68912" lon="2.03134">
        <ele>169.2</ele>
        <time>2026-05-24T08:44:13Z</time>
      </trkpt>
      <trkpt lat="48.68912" lon="2.03137">
        <ele>169.2</ele>
        <time>2026-05-24T08:44:14Z</time>
      </trkpt>
      <trkpt lat="48.68911" lon="2.03139">
        <ele>169.2</ele>
        <time>2026-05-24T08:44:15Z</time>
      </trkpt>
      <trkpt lat="48.68909" lon="2.03145">
        <ele>169.2</ele>
        <time>2026-05-24T08:44:16Z</time>
      </trkpt>
      <trkpt lat="48.68909" lon="2.03149">
        <ele>169.8</ele>
        <time>2026-05-24T08:44:17Z</time>
      </trkpt>
      <trkpt lat="48.68908" lon="2.03153">
        <ele>169.8</ele>
        <time>2026-05-24T08:44:18Z</time>
      </trkpt>
      <trkpt lat="48.68908" lon="2.03157">
        <ele>169.8</ele>
        <time>2026-05-24T08:44:19Z</time>
      </trkpt>
      <trkpt lat="48.68908" lon="2.03162">
        <ele>169.8</ele>
        <time>2026-05-24T08:44:20Z</time>
      </trkpt>
      <trkpt lat="48.68908" lon="2.03166">
        <ele>169.4</ele>
        <time>2026-05-24T08:44:21Z</time>
      </trkpt>
      <trkpt lat="48.68909" lon="2.03172">
        <ele>169.4</ele>
        <time>2026-05-24T08:44:22Z</time>
      </trkpt>
      <trkpt lat="48.68909" lon="2.03178">
        <ele>169.4</ele>
        <time>2026-05-24T08:44:23Z</time>
      </trkpt>
      <trkpt lat="48.68909" lon="2.03184">
        <ele>169.4</ele>
        <time>2026-05-24T08:44:24Z</time>
      </trkpt>
      <trkpt lat="48.68909" lon="2.0319">
        <ele>169.4</ele>
        <time>2026-05-24T08:44:25Z</time>
      </trkpt>
      <trkpt lat="48.68909" lon="2.03195">
        <ele>169.4</ele>
        <time>2026-05-24T08:44:26Z</time>
      </trkpt>
      <trkpt lat="48.68909" lon="2.03201">
        <ele>169.4</ele>
        <time>2026-05-24T08:44:27Z</time>
      </trkpt>
      <trkpt lat="48.68911" lon="2.03206">
        <ele>169.4</ele>
        <time>2026-05-24T08:44:28Z</time>
      </trkpt>
      <trkpt lat="48.68911" lon="2.03212">
        <ele>168.8</ele>
        <time>2026-05-24T08:44:29Z</time>
      </trkpt>
      <trkpt lat="48.68912" lon="2.03218">
        <ele>168.8</ele>
        <time>2026-05-24T08:44:30Z</time>
      </trkpt>
      <trkpt lat="48.68913" lon="2.03223">
        <ele>168.8</ele>
        <time>2026-05-24T08:44:31Z</time>
      </trkpt>
      <trkpt lat="48.68915" lon="2.03226">
        <ele>169</ele>
        <time>2026-05-24T08:44:32Z</time>
      </trkpt>
      <trkpt lat="48.68918" lon="2.0323">
        <ele>169.2</ele>
        <time>2026-05-24T08:44:33Z</time>
      </trkpt>
      <trkpt lat="48.68921" lon="2.03232">
        <ele>169.2</ele>
        <time>2026-05-24T08:44:34Z</time>
      </trkpt>
      <trkpt lat="48.68924" lon="2.03234">
        <ele>169.2</ele>
        <time>2026-05-24T08:44:35Z</time>
      </trkpt>
      <trkpt lat="48.68926" lon="2.03238">
        <ele>168.2</ele>
        <time>2026-05-24T08:44:36Z</time>
      </trkpt>
      <trkpt lat="48.68928" lon="2.03242">
        <ele>168.4</ele>
        <time>2026-05-24T08:44:37Z</time>
      </trkpt>
      <trkpt lat="48.68929" lon="2.03248">
        <ele>168.4</ele>
        <time>2026-05-24T08:44:38Z</time>
      </trkpt>
      <trkpt lat="48.68929" lon="2.03253">
        <ele>168.4</ele>
        <time>2026-05-24T08:44:39Z</time>
      </trkpt>
      <trkpt lat="48.68931" lon="2.03258">
        <ele>168.4</ele>
        <time>2026-05-24T08:44:40Z</time>
      </trkpt>
      <trkpt lat="48.68933" lon="2.03262">
        <ele>168.4</ele>
        <time>2026-05-24T08:44:41Z</time>
      </trkpt>
      <trkpt lat="48.68936" lon="2.03265">
        <ele>168.4</ele>
        <time>2026-05-24T08:44:42Z</time>
      </trkpt>
      <trkpt lat="48.68939" lon="2.03268">
        <ele>168.4</ele>
        <time>2026-05-24T08:44:43Z</time>
      </trkpt>
      <trkpt lat="48.68942" lon="2.0327">
        <ele>168.4</ele>
        <time>2026-05-24T08:44:44Z</time>
      </trkpt>
      <trkpt lat="48.68945" lon="2.03273">
        <ele>168.6</ele>
        <time>2026-05-24T08:44:45Z</time>
      </trkpt>
      <trkpt lat="48.68949" lon="2.03275">
        <ele>168.6</ele>
        <time>2026-05-24T08:44:46Z</time>
      </trkpt>
      <trkpt lat="48.68952" lon="2.03276">
        <ele>168.6</ele>
        <time>2026-05-24T08:44:47Z</time>
      </trkpt>
      <trkpt lat="48.68955" lon="2.03278">
        <ele>167.6</ele>
        <time>2026-05-24T08:44:48Z</time>
      </trkpt>
      <trkpt lat="48.68959" lon="2.03282">
        <ele>168.6</ele>
        <time>2026-05-24T08:44:49Z</time>
      </trkpt>
      <trkpt lat="48.68963" lon="2.03285">
        <ele>168.6</ele>
        <time>2026-05-24T08:44:50Z</time>
      </trkpt>
      <trkpt lat="48.68968" lon="2.03287">
        <ele>168.6</ele>
        <time>2026-05-24T08:44:51Z</time>
      </trkpt>
      <trkpt lat="48.68972" lon="2.03288">
        <ele>168.2</ele>
        <time>2026-05-24T08:44:52Z</time>
      </trkpt>
      <trkpt lat="48.68975" lon="2.03291">
        <ele>167.8</ele>
        <time>2026-05-24T08:44:53Z</time>
      </trkpt>
      <trkpt lat="48.68979" lon="2.03292">
        <ele>167.8</ele>
        <time>2026-05-24T08:44:54Z</time>
      </trkpt>
      <trkpt lat="48.68982" lon="2.03294">
        <ele>167.8</ele>
        <time>2026-05-24T08:44:55Z</time>
      </trkpt>
      <trkpt lat="48.68986" lon="2.03296">
        <ele>167.8</ele>
        <time>2026-05-24T08:44:56Z</time>
      </trkpt>
      <trkpt lat="48.68989" lon="2.03298">
        <ele>166.6</ele>
        <time>2026-05-24T08:44:57Z</time>
      </trkpt>
      <trkpt lat="48.68993" lon="2.03299">
        <ele>166.6</ele>
        <time>2026-05-24T08:44:58Z</time>
      </trkpt>
      <trkpt lat="48.68997" lon="2.03302">
        <ele>166.6</ele>
        <time>2026-05-24T08:44:59Z</time>
      </trkpt>
      <trkpt lat="48.69001" lon="2.03305">
        <ele>166.6</ele>
        <time>2026-05-24T08:45:00Z</time>
      </trkpt>
      <trkpt lat="48.69005" lon="2.03307">
        <ele>166.8</ele>
        <time>2026-05-24T08:45:01Z</time>
      </trkpt>
      <trkpt lat="48.69008" lon="2.03309">
        <ele>166.8</ele>
        <time>2026-05-24T08:45:02Z</time>
      </trkpt>
      <trkpt lat="48.69011" lon="2.03308">
        <ele>166.8</ele>
        <time>2026-05-24T08:45:03Z</time>
      </trkpt>
      <trkpt lat="48.69014" lon="2.03308">
        <ele>166.8</ele>
        <time>2026-05-24T08:45:04Z</time>
      </trkpt>
      <trkpt lat="48.69016" lon="2.03309">
        <ele>167</ele>
        <time>2026-05-24T08:45:05Z</time>
      </trkpt>
      <trkpt lat="48.69016" lon="2.03308">
        <ele>167</ele>
        <time>2026-05-24T08:45:06Z</time>
      </trkpt>
      <trkpt lat="48.69016" lon="2.03308">
        <ele>167</ele>
        <time>2026-05-24T08:45:07Z</time>
      </trkpt>
      <trkpt lat="48.69046" lon="2.0332">
        <ele>166.6</ele>
        <time>2026-05-24T08:45:32Z</time>
      </trkpt>
      <trkpt lat="48.69047" lon="2.0332">
        <ele>166.2</ele>
        <time>2026-05-24T08:45:33Z</time>
      </trkpt>
      <trkpt lat="48.69049" lon="2.03321">
        <ele>166.2</ele>
        <time>2026-05-24T08:45:34Z</time>
      </trkpt>
      <trkpt lat="48.69052" lon="2.03322">
        <ele>166.2</ele>
        <time>2026-05-24T08:45:35Z</time>
      </trkpt>
      <trkpt lat="48.69055" lon="2.03324">
        <ele>166.2</ele>
        <time>2026-05-24T08:45:36Z</time>
      </trkpt>
      <trkpt lat="48.69058" lon="2.03325">
        <ele>166</ele>
        <time>2026-05-24T08:45:37Z</time>
      </trkpt>
      <trkpt lat="48.69061" lon="2.03326">
        <ele>166</ele>
        <time>2026-05-24T08:45:38Z</time>
      </trkpt>
      <trkpt lat="48.69064" lon="2.03327">
        <ele>166</ele>
        <time>2026-05-24T08:45:39Z</time>
      </trkpt>
      <trkpt lat="48.69067" lon="2.03327">
        <ele>165.8</ele>
        <time>2026-05-24T08:45:40Z</time>
      </trkpt>
      <trkpt lat="48.69071" lon="2.03329">
        <ele>165.8</ele>
        <time>2026-05-24T08:45:41Z</time>
      </trkpt>
      <trkpt lat="48.69074" lon="2.03331">
        <ele>165.8</ele>
        <time>2026-05-24T08:45:42Z</time>
      </trkpt>
      <trkpt lat="48.69079" lon="2.03334">
        <ele>165.8</ele>
        <time>2026-05-24T08:45:43Z</time>
      </trkpt>
      <trkpt lat="48.69084" lon="2.03338">
        <ele>165.8</ele>
        <time>2026-05-24T08:45:44Z</time>
      </trkpt>
      <trkpt lat="48.69088" lon="2.03342">
        <ele>165.2</ele>
        <time>2026-05-24T08:45:45Z</time>
      </trkpt>
      <trkpt lat="48.69092" lon="2.03345">
        <ele>165.2</ele>
        <time>2026-05-24T08:45:46Z</time>
      </trkpt>
      <trkpt lat="48.69096" lon="2.03347">
        <ele>165.2</ele>
        <time>2026-05-24T08:45:47Z</time>
      </trkpt>
      <trkpt lat="48.691" lon="2.03348">
        <ele>165.2</ele>
        <time>2026-05-24T08:45:48Z</time>
      </trkpt>
      <trkpt lat="48.69104" lon="2.0335">
        <ele>165</ele>
        <time>2026-05-24T08:45:49Z</time>
      </trkpt>
      <trkpt lat="48.69107" lon="2.03352">
        <ele>165</ele>
        <time>2026-05-24T08:45:50Z</time>
      </trkpt>
      <trkpt lat="48.69108" lon="2.03355">
        <ele>165</ele>
        <time>2026-05-24T08:45:51Z</time>
      </trkpt>
      <trkpt lat="48.69108" lon="2.03358">
        <ele>165</ele>
        <time>2026-05-24T08:45:52Z</time>
      </trkpt>
      <trkpt lat="48.69108" lon="2.0336">
        <ele>165.4</ele>
        <time>2026-05-24T08:45:53Z</time>
      </trkpt>
      <trkpt lat="48.69108" lon="2.03364">
        <ele>165.4</ele>
        <time>2026-05-24T08:45:54Z</time>
      </trkpt>
      <trkpt lat="48.69109" lon="2.03368">
        <ele>165.4</ele>
        <time>2026-05-24T08:45:55Z</time>
      </trkpt>
      <trkpt lat="48.69108" lon="2.03372">
        <ele>165.4</ele>
        <time>2026-05-24T08:45:56Z</time>
      </trkpt>
      <trkpt lat="48.69109" lon="2.03376">
        <ele>165</ele>
        <time>2026-05-24T08:45:57Z</time>
      </trkpt>
      <trkpt lat="48.69109" lon="2.03381">
        <ele>165</ele>
        <time>2026-05-24T08:45:58Z</time>
      </trkpt>
      <trkpt lat="48.69109" lon="2.03385">
        <ele>165</ele>
        <time>2026-05-24T08:45:59Z</time>
      </trkpt>
      <trkpt lat="48.69108" lon="2.0339">
        <ele>165.4</ele>
        <time>2026-05-24T08:46:00Z</time>
      </trkpt>
      <trkpt lat="48.69107" lon="2.03394">
        <ele>165.4</ele>
        <time>2026-05-24T08:46:01Z</time>
      </trkpt>
      <trkpt lat="48.69107" lon="2.03399">
        <ele>165.4</ele>
        <time>2026-05-24T08:46:02Z</time>
      </trkpt>
      <trkpt lat="48.69108" lon="2.03405">
        <ele>165.4</ele>
        <time>2026-05-24T08:46:03Z</time>
      </trkpt>
      <trkpt lat="48.69109" lon="2.03409">
        <ele>165.4</ele>
        <time>2026-05-24T08:46:04Z</time>
      </trkpt>
      <trkpt lat="48.6911" lon="2.03413">
        <ele>164.6</ele>
        <time>2026-05-24T08:46:05Z</time>
      </trkpt>
      <trkpt lat="48.69112" lon="2.03418">
        <ele>164.6</ele>
        <time>2026-05-24T08:46:06Z</time>
      </trkpt>
      <trkpt lat="48.69116" lon="2.03424">
        <ele>164.6</ele>
        <time>2026-05-24T08:46:07Z</time>
      </trkpt>
      <trkpt lat="48.69119" lon="2.03432">
        <ele>164.6</ele>
        <time>2026-05-24T08:46:08Z</time>
      </trkpt>
      <trkpt lat="48.69123" lon="2.03439">
        <ele>164.6</ele>
        <time>2026-05-24T08:46:09Z</time>
      </trkpt>
      <trkpt lat="48.69126" lon="2.03445">
        <ele>164.6</ele>
        <time>2026-05-24T08:46:10Z</time>
      </trkpt>
      <trkpt lat="48.6913" lon="2.03451">
        <ele>164.6</ele>
        <time>2026-05-24T08:46:11Z</time>
      </trkpt>
      <trkpt lat="48.69134" lon="2.03457">
        <ele>163.8</ele>
        <time>2026-05-24T08:46:12Z</time>
      </trkpt>
      <trkpt lat="48.69138" lon="2.03463">
        <ele>163</ele>
        <time>2026-05-24T08:46:13Z</time>
      </trkpt>
      <trkpt lat="48.69142" lon="2.03469">
        <ele>163</ele>
        <time>2026-05-24T08:46:14Z</time>
      </trkpt>
      <trkpt lat="48.69146" lon="2.03475">
        <ele>163</ele>
        <time>2026-05-24T08:46:15Z</time>
      </trkpt>
      <trkpt lat="48.6915" lon="2.03481">
        <ele>163</ele>
        <time>2026-05-24T08:46:16Z</time>
      </trkpt>
      <trkpt lat="48.69154" lon="2.03486">
        <ele>163.8</ele>
        <time>2026-05-24T08:46:17Z</time>
      </trkpt>
      <trkpt lat="48.69159" lon="2.0349">
        <ele>163.8</ele>
        <time>2026-05-24T08:46:18Z</time>
      </trkpt>
      <trkpt lat="48.69163" lon="2.03493">
        <ele>163.8</ele>
        <time>2026-05-24T08:46:19Z</time>
      </trkpt>
      <trkpt lat="48.69168" lon="2.03495">
        <ele>162.8</ele>
        <time>2026-05-24T08:46:20Z</time>
      </trkpt>
      <trkpt lat="48.69172" lon="2.03498">
        <ele>163</ele>
        <time>2026-05-24T08:46:21Z</time>
      </trkpt>
      <trkpt lat="48.69176" lon="2.03501">
        <ele>163</ele>
        <time>2026-05-24T08:46:22Z</time>
      </trkpt>
      <trkpt lat="48.69179" lon="2.03503">
        <ele>163</ele>
        <time>2026-05-24T08:46:23Z</time>
      </trkpt>
      <trkpt lat="48.69183" lon="2.03506">
        <ele>163</ele>
        <time>2026-05-24T08:46:24Z</time>
      </trkpt>
      <trkpt lat="48.69187" lon="2.03508">
        <ele>162.4</ele>
        <time>2026-05-24T08:46:25Z</time>
      </trkpt>
      <trkpt lat="48.69191" lon="2.03513">
        <ele>162.4</ele>
        <time>2026-05-24T08:46:26Z</time>
      </trkpt>
      <trkpt lat="48.69195" lon="2.03516">
        <ele>162.4</ele>
        <time>2026-05-24T08:46:27Z</time>
      </trkpt>
      <trkpt lat="48.692" lon="2.03519">
        <ele>162.4</ele>
        <time>2026-05-24T08:46:28Z</time>
      </trkpt>
      <trkpt lat="48.69205" lon="2.03522">
        <ele>162.4</ele>
        <time>2026-05-24T08:46:29Z</time>
      </trkpt>
      <trkpt lat="48.6921" lon="2.03525">
        <ele>162.4</ele>
        <time>2026-05-24T08:46:30Z</time>
      </trkpt>
      <trkpt lat="48.69214" lon="2.03526">
        <ele>162.4</ele>
        <time>2026-05-24T08:46:31Z</time>
      </trkpt>
      <trkpt lat="48.69219" lon="2.03529">
        <ele>161.6</ele>
        <time>2026-05-24T08:46:32Z</time>
      </trkpt>
      <trkpt lat="48.69224" lon="2.03533">
        <ele>161.6</ele>
        <time>2026-05-24T08:46:33Z</time>
      </trkpt>
      <trkpt lat="48.69229" lon="2.03537">
        <ele>161.6</ele>
        <time>2026-05-24T08:46:34Z</time>
      </trkpt>
      <trkpt lat="48.69235" lon="2.0354">
        <ele>161.6</ele>
        <time>2026-05-24T08:46:35Z</time>
      </trkpt>
      <trkpt lat="48.69239" lon="2.03543">
        <ele>160.6</ele>
        <time>2026-05-24T08:46:36Z</time>
      </trkpt>
      <trkpt lat="48.69244" lon="2.03547">
        <ele>159.8</ele>
        <time>2026-05-24T08:46:37Z</time>
      </trkpt>
      <trkpt lat="48.6925" lon="2.03552">
        <ele>159.8</ele>
        <time>2026-05-24T08:46:38Z</time>
      </trkpt>
      <trkpt lat="48.69256" lon="2.03556">
        <ele>159.8</ele>
        <time>2026-05-24T08:46:39Z</time>
      </trkpt>
      <trkpt lat="48.69263" lon="2.0356">
        <ele>159</ele>
        <time>2026-05-24T08:46:40Z</time>
      </trkpt>
      <trkpt lat="48.69269" lon="2.03565">
        <ele>159.4</ele>
        <time>2026-05-24T08:46:41Z</time>
      </trkpt>
      <trkpt lat="48.69276" lon="2.03569">
        <ele>159.4</ele>
        <time>2026-05-24T08:46:42Z</time>
      </trkpt>
      <trkpt lat="48.69282" lon="2.03573">
        <ele>159.4</ele>
        <time>2026-05-24T08:46:43Z</time>
      </trkpt>
      <trkpt lat="48.69288" lon="2.03577">
        <ele>158.8</ele>
        <time>2026-05-24T08:46:44Z</time>
      </trkpt>
      <trkpt lat="48.69294" lon="2.03582">
        <ele>158.6</ele>
        <time>2026-05-24T08:46:45Z</time>
      </trkpt>
      <trkpt lat="48.69299" lon="2.03587">
        <ele>158.6</ele>
        <time>2026-05-24T08:46:46Z</time>
      </trkpt>
      <trkpt lat="48.69304" lon="2.03591">
        <ele>158.6</ele>
        <time>2026-05-24T08:46:47Z</time>
      </trkpt>
      <trkpt lat="48.69309" lon="2.03595">
        <ele>158.6</ele>
        <time>2026-05-24T08:46:48Z</time>
      </trkpt>
      <trkpt lat="48.69314" lon="2.036">
        <ele>158.4</ele>
        <time>2026-05-24T08:46:49Z</time>
      </trkpt>
      <trkpt lat="48.6932" lon="2.03604">
        <ele>158.4</ele>
        <time>2026-05-24T08:46:50Z</time>
      </trkpt>
      <trkpt lat="48.69326" lon="2.03607">
        <ele>158.4</ele>
        <time>2026-05-24T08:46:51Z</time>
      </trkpt>
      <trkpt lat="48.69332" lon="2.03612">
        <ele>158.4</ele>
        <time>2026-05-24T08:46:52Z</time>
      </trkpt>
      <trkpt lat="48.69337" lon="2.03618">
        <ele>158.8</ele>
        <time>2026-05-24T08:46:53Z</time>
      </trkpt>
      <trkpt lat="48.69342" lon="2.03624">
        <ele>158.8</ele>
        <time>2026-05-24T08:46:54Z</time>
      </trkpt>
      <trkpt lat="48.69348" lon="2.03627">
        <ele>158.8</ele>
        <time>2026-05-24T08:46:55Z</time>
      </trkpt>
      <trkpt lat="48.69353" lon="2.0363">
        <ele>158.8</ele>
        <time>2026-05-24T08:46:56Z</time>
      </trkpt>
      <trkpt lat="48.69357" lon="2.03634">
        <ele>160.2</ele>
        <time>2026-05-24T08:46:57Z</time>
      </trkpt>
      <trkpt lat="48.69362" lon="2.03636">
        <ele>160.2</ele>
        <time>2026-05-24T08:46:58Z</time>
      </trkpt>
      <trkpt lat="48.69366" lon="2.03639">
        <ele>160.2</ele>
        <time>2026-05-24T08:46:59Z</time>
      </trkpt>
      <trkpt lat="48.6937" lon="2.03643">
        <ele>161.2</ele>
        <time>2026-05-24T08:47:00Z</time>
      </trkpt>
      <trkpt lat="48.69375" lon="2.03646">
        <ele>161.6</ele>
        <time>2026-05-24T08:47:01Z</time>
      </trkpt>
      <trkpt lat="48.69379" lon="2.03649">
        <ele>161.6</ele>
        <time>2026-05-24T08:47:02Z</time>
      </trkpt>
      <trkpt lat="48.69383" lon="2.03652">
        <ele>161.6</ele>
        <time>2026-05-24T08:47:03Z</time>
      </trkpt>
      <trkpt lat="48.69387" lon="2.03653">
        <ele>162.4</ele>
        <time>2026-05-24T08:47:04Z</time>
      </trkpt>
      <trkpt lat="48.69389" lon="2.03655">
        <ele>163</ele>
        <time>2026-05-24T08:47:05Z</time>
      </trkpt>
      <trkpt lat="48.69392" lon="2.03658">
        <ele>163</ele>
        <time>2026-05-24T08:47:06Z</time>
      </trkpt>
      <trkpt lat="48.69394" lon="2.03661">
        <ele>163</ele>
        <time>2026-05-24T08:47:07Z</time>
      </trkpt>
      <trkpt lat="48.69396" lon="2.03663">
        <ele>163</ele>
        <time>2026-05-24T08:47:08Z</time>
      </trkpt>
      <trkpt lat="48.69399" lon="2.03665">
        <ele>163.2</ele>
        <time>2026-05-24T08:47:09Z</time>
      </trkpt>
      <trkpt lat="48.694" lon="2.03666">
        <ele>163.2</ele>
        <time>2026-05-24T08:47:10Z</time>
      </trkpt>
      <trkpt lat="48.69404" lon="2.03668">
        <ele>163.2</ele>
        <time>2026-05-24T08:47:11Z</time>
      </trkpt>
      <trkpt lat="48.69407" lon="2.0367">
        <ele>164.2</ele>
        <time>2026-05-24T08:47:12Z</time>
      </trkpt>
      <trkpt lat="48.69411" lon="2.03672">
        <ele>164.2</ele>
        <time>2026-05-24T08:47:13Z</time>
      </trkpt>
      <trkpt lat="48.69414" lon="2.03675">
        <ele>164.2</ele>
        <time>2026-05-24T08:47:14Z</time>
      </trkpt>
      <trkpt lat="48.69418" lon="2.03677">
        <ele>164.2</ele>
        <time>2026-05-24T08:47:15Z</time>
      </trkpt>
      <trkpt lat="48.69421" lon="2.03678">
        <ele>165.2</ele>
        <time>2026-05-24T08:47:16Z</time>
      </trkpt>
      <trkpt lat="48.69425" lon="2.03681">
        <ele>165.2</ele>
        <time>2026-05-24T08:47:17Z</time>
      </trkpt>
      <trkpt lat="48.69428" lon="2.03682">
        <ele>165.2</ele>
        <time>2026-05-24T08:47:18Z</time>
      </trkpt>
      <trkpt lat="48.69431" lon="2.03685">
        <ele>165.2</ele>
        <time>2026-05-24T08:47:19Z</time>
      </trkpt>
      <trkpt lat="48.69433" lon="2.03689">
        <ele>165.2</ele>
        <time>2026-05-24T08:47:20Z</time>
      </trkpt>
      <trkpt lat="48.69435" lon="2.03694">
        <ele>166</ele>
        <time>2026-05-24T08:47:21Z</time>
      </trkpt>
      <trkpt lat="48.69435" lon="2.03698">
        <ele>166</ele>
        <time>2026-05-24T08:47:22Z</time>
      </trkpt>
      <trkpt lat="48.69436" lon="2.03703">
        <ele>166</ele>
        <time>2026-05-24T08:47:23Z</time>
      </trkpt>
      <trkpt lat="48.69437" lon="2.03706">
        <ele>165.8</ele>
        <time>2026-05-24T08:47:24Z</time>
      </trkpt>
      <trkpt lat="48.6944" lon="2.03707">
        <ele>166.2</ele>
        <time>2026-05-24T08:47:25Z</time>
      </trkpt>
      <trkpt lat="48.69443" lon="2.03708">
        <ele>166.2</ele>
        <time>2026-05-24T08:47:26Z</time>
      </trkpt>
      <trkpt lat="48.69446" lon="2.0371">
        <ele>166.2</ele>
        <time>2026-05-24T08:47:27Z</time>
      </trkpt>
      <trkpt lat="48.69449" lon="2.03711">
        <ele>166.2</ele>
        <time>2026-05-24T08:47:28Z</time>
      </trkpt>
      <trkpt lat="48.69451" lon="2.03714">
        <ele>167</ele>
        <time>2026-05-24T08:47:29Z</time>
      </trkpt>
      <trkpt lat="48.69452" lon="2.03717">
        <ele>167</ele>
        <time>2026-05-24T08:47:30Z</time>
      </trkpt>
      <trkpt lat="48.69454" lon="2.03721">
        <ele>167</ele>
        <time>2026-05-24T08:47:31Z</time>
      </trkpt>
      <trkpt lat="48.69454" lon="2.03725">
        <ele>166</ele>
        <time>2026-05-24T08:47:32Z</time>
      </trkpt>
      <trkpt lat="48.69455" lon="2.03729">
        <ele>165.8</ele>
        <time>2026-05-24T08:47:33Z</time>
      </trkpt>
      <trkpt lat="48.69455" lon="2.03732">
        <ele>165.8</ele>
        <time>2026-05-24T08:47:34Z</time>
      </trkpt>
      <trkpt lat="48.69455" lon="2.03737">
        <ele>165.8</ele>
        <time>2026-05-24T08:47:35Z</time>
      </trkpt>
      <trkpt lat="48.69455" lon="2.0374">
        <ele>166.8</ele>
        <time>2026-05-24T08:47:36Z</time>
      </trkpt>
      <trkpt lat="48.69454" lon="2.03743">
        <ele>166.8</ele>
        <time>2026-05-24T08:47:37Z</time>
      </trkpt>
      <trkpt lat="48.69453" lon="2.03746">
        <ele>166.8</ele>
        <time>2026-05-24T08:47:38Z</time>
      </trkpt>
      <trkpt lat="48.69452" lon="2.03751">
        <ele>166.8</ele>
        <time>2026-05-24T08:47:39Z</time>
      </trkpt>
      <trkpt lat="48.69451" lon="2.03755">
        <ele>166.8</ele>
        <time>2026-05-24T08:47:40Z</time>
      </trkpt>
      <trkpt lat="48.6945" lon="2.03759">
        <ele>166.2</ele>
        <time>2026-05-24T08:47:41Z</time>
      </trkpt>
      <trkpt lat="48.69449" lon="2.03763">
        <ele>166.2</ele>
        <time>2026-05-24T08:47:42Z</time>
      </trkpt>
      <trkpt lat="48.69448" lon="2.03767">
        <ele>166.2</ele>
        <time>2026-05-24T08:47:43Z</time>
      </trkpt>
      <trkpt lat="48.69447" lon="2.03771">
        <ele>166.2</ele>
        <time>2026-05-24T08:47:44Z</time>
      </trkpt>
      <trkpt lat="48.69447" lon="2.03775">
        <ele>166.2</ele>
        <time>2026-05-24T08:47:45Z</time>
      </trkpt>
      <trkpt lat="48.69446" lon="2.0378">
        <ele>166.2</ele>
        <time>2026-05-24T08:47:46Z</time>
      </trkpt>
      <trkpt lat="48.69446" lon="2.03785">
        <ele>166.2</ele>
        <time>2026-05-24T08:47:47Z</time>
      </trkpt>
      <trkpt lat="48.69446" lon="2.03792">
        <ele>167.2</ele>
        <time>2026-05-24T08:47:48Z</time>
      </trkpt>
      <trkpt lat="48.69446" lon="2.03797">
        <ele>166.4</ele>
        <time>2026-05-24T08:47:49Z</time>
      </trkpt>
      <trkpt lat="48.69446" lon="2.03802">
        <ele>166.4</ele>
        <time>2026-05-24T08:47:50Z</time>
      </trkpt>
      <trkpt lat="48.69445" lon="2.03805">
        <ele>166.4</ele>
        <time>2026-05-24T08:47:51Z</time>
      </trkpt>
      <trkpt lat="48.69442" lon="2.03809">
        <ele>166.4</ele>
        <time>2026-05-24T08:47:52Z</time>
      </trkpt>
      <trkpt lat="48.69441" lon="2.03813">
        <ele>166.4</ele>
        <time>2026-05-24T08:47:53Z</time>
      </trkpt>
      <trkpt lat="48.6944" lon="2.03817">
        <ele>166.4</ele>
        <time>2026-05-24T08:47:54Z</time>
      </trkpt>
      <trkpt lat="48.69439" lon="2.03823">
        <ele>166.4</ele>
        <time>2026-05-24T08:47:55Z</time>
      </trkpt>
      <trkpt lat="48.69439" lon="2.03829">
        <ele>166.4</ele>
        <time>2026-05-24T08:47:56Z</time>
      </trkpt>
      <trkpt lat="48.69439" lon="2.03833">
        <ele>166.2</ele>
        <time>2026-05-24T08:47:57Z</time>
      </trkpt>
      <trkpt lat="48.69437" lon="2.03839">
        <ele>166.2</ele>
        <time>2026-05-24T08:47:58Z</time>
      </trkpt>
      <trkpt lat="48.69436" lon="2.03843">
        <ele>166.2</ele>
        <time>2026-05-24T08:47:59Z</time>
      </trkpt>
      <trkpt lat="48.69434" lon="2.03847">
        <ele>166.2</ele>
        <time>2026-05-24T08:48:00Z</time>
      </trkpt>
      <trkpt lat="48.69433" lon="2.03852">
        <ele>166.4</ele>
        <time>2026-05-24T08:48:01Z</time>
      </trkpt>
      <trkpt lat="48.69432" lon="2.03857">
        <ele>166.4</ele>
        <time>2026-05-24T08:48:02Z</time>
      </trkpt>
      <trkpt lat="48.69431" lon="2.03863">
        <ele>166.4</ele>
        <time>2026-05-24T08:48:03Z</time>
      </trkpt>
      <trkpt lat="48.69431" lon="2.03868">
        <ele>165.4</ele>
        <time>2026-05-24T08:48:04Z</time>
      </trkpt>
      <trkpt lat="48.69429" lon="2.03874">
        <ele>166</ele>
        <time>2026-05-24T08:48:05Z</time>
      </trkpt>
      <trkpt lat="48.69428" lon="2.03879">
        <ele>166</ele>
        <time>2026-05-24T08:48:06Z</time>
      </trkpt>
      <trkpt lat="48.69426" lon="2.03884">
        <ele>166</ele>
        <time>2026-05-24T08:48:07Z</time>
      </trkpt>
      <trkpt lat="48.69426" lon="2.0389">
        <ele>165.8</ele>
        <time>2026-05-24T08:48:08Z</time>
      </trkpt>
      <trkpt lat="48.69426" lon="2.03897">
        <ele>166.2</ele>
        <time>2026-05-24T08:48:09Z</time>
      </trkpt>
      <trkpt lat="48.69427" lon="2.03904">
        <ele>166.2</ele>
        <time>2026-05-24T08:48:10Z</time>
      </trkpt>
      <trkpt lat="48.69427" lon="2.0391">
        <ele>166.2</ele>
        <time>2026-05-24T08:48:11Z</time>
      </trkpt>
      <trkpt lat="48.69426" lon="2.03917">
        <ele>166.8</ele>
        <time>2026-05-24T08:48:12Z</time>
      </trkpt>
      <trkpt lat="48.69426" lon="2.03924">
        <ele>166.4</ele>
        <time>2026-05-24T08:48:13Z</time>
      </trkpt>
      <trkpt lat="48.69426" lon="2.0393">
        <ele>166.4</ele>
        <time>2026-05-24T08:48:14Z</time>
      </trkpt>
      <trkpt lat="48.69426" lon="2.03938">
        <ele>166.4</ele>
        <time>2026-05-24T08:48:15Z</time>
      </trkpt>
      <trkpt lat="48.69428" lon="2.03943">
        <ele>166.8</ele>
        <time>2026-05-24T08:48:16Z</time>
      </trkpt>
      <trkpt lat="48.69428" lon="2.03948">
        <ele>166.6</ele>
        <time>2026-05-24T08:48:17Z</time>
      </trkpt>
      <trkpt lat="48.69429" lon="2.03953">
        <ele>166.6</ele>
        <time>2026-05-24T08:48:18Z</time>
      </trkpt>
      <trkpt lat="48.6943" lon="2.03959">
        <ele>166.6</ele>
        <time>2026-05-24T08:48:19Z</time>
      </trkpt>
      <trkpt lat="48.69431" lon="2.03965">
        <ele>166.6</ele>
        <time>2026-05-24T08:48:20Z</time>
      </trkpt>
      <trkpt lat="48.69431" lon="2.0397">
        <ele>167</ele>
        <time>2026-05-24T08:48:21Z</time>
      </trkpt>
      <trkpt lat="48.69431" lon="2.03974">
        <ele>167</ele>
        <time>2026-05-24T08:48:22Z</time>
      </trkpt>
      <trkpt lat="48.69431" lon="2.0398">
        <ele>167</ele>
        <time>2026-05-24T08:48:23Z</time>
      </trkpt>
      <trkpt lat="48.69433" lon="2.03986">
        <ele>167.2</ele>
        <time>2026-05-24T08:48:24Z</time>
      </trkpt>
      <trkpt lat="48.69433" lon="2.03991">
        <ele>167.2</ele>
        <time>2026-05-24T08:48:25Z</time>
      </trkpt>
      <trkpt lat="48.69433" lon="2.03998">
        <ele>167.2</ele>
        <time>2026-05-24T08:48:26Z</time>
      </trkpt>
      <trkpt lat="48.69433" lon="2.04003">
        <ele>167.2</ele>
        <time>2026-05-24T08:48:27Z</time>
      </trkpt>
      <trkpt lat="48.69433" lon="2.04007">
        <ele>167.2</ele>
        <time>2026-05-24T08:48:28Z</time>
      </trkpt>
      <trkpt lat="48.69432" lon="2.04014">
        <ele>168.6</ele>
        <time>2026-05-24T08:48:29Z</time>
      </trkpt>
      <trkpt lat="48.69433" lon="2.04018">
        <ele>168.6</ele>
        <time>2026-05-24T08:48:30Z</time>
      </trkpt>
      <trkpt lat="48.69434" lon="2.04024">
        <ele>168.6</ele>
        <time>2026-05-24T08:48:31Z</time>
      </trkpt>
      <trkpt lat="48.69434" lon="2.04029">
        <ele>167.6</ele>
        <time>2026-05-24T08:48:32Z</time>
      </trkpt>
      <trkpt lat="48.69434" lon="2.04035">
        <ele>167.6</ele>
        <time>2026-05-24T08:48:33Z</time>
      </trkpt>
      <trkpt lat="48.69435" lon="2.04041">
        <ele>167.6</ele>
        <time>2026-05-24T08:48:34Z</time>
      </trkpt>
      <trkpt lat="48.69435" lon="2.04046">
        <ele>167.6</ele>
        <time>2026-05-24T08:48:35Z</time>
      </trkpt>
      <trkpt lat="48.69436" lon="2.0405">
        <ele>168.6</ele>
        <time>2026-05-24T08:48:36Z</time>
      </trkpt>
      <trkpt lat="48.69437" lon="2.04056">
        <ele>169</ele>
        <time>2026-05-24T08:48:37Z</time>
      </trkpt>
      <trkpt lat="48.69437" lon="2.04061">
        <ele>169</ele>
        <time>2026-05-24T08:48:38Z</time>
      </trkpt>
      <trkpt lat="48.69438" lon="2.04066">
        <ele>169</ele>
        <time>2026-05-24T08:48:39Z</time>
      </trkpt>
      <trkpt lat="48.69438" lon="2.04073">
        <ele>169</ele>
        <time>2026-05-24T08:48:40Z</time>
      </trkpt>
      <trkpt lat="48.69438" lon="2.04078">
        <ele>169.4</ele>
        <time>2026-05-24T08:48:41Z</time>
      </trkpt>
      <trkpt lat="48.69439" lon="2.04085">
        <ele>169.4</ele>
        <time>2026-05-24T08:48:42Z</time>
      </trkpt>
      <trkpt lat="48.69439" lon="2.04091">
        <ele>169.4</ele>
        <time>2026-05-24T08:48:43Z</time>
      </trkpt>
      <trkpt lat="48.69439" lon="2.04098">
        <ele>169.4</ele>
        <time>2026-05-24T08:48:44Z</time>
      </trkpt>
      <trkpt lat="48.69439" lon="2.04104">
        <ele>169.4</ele>
        <time>2026-05-24T08:48:45Z</time>
      </trkpt>
      <trkpt lat="48.6944" lon="2.04109">
        <ele>169.4</ele>
        <time>2026-05-24T08:48:46Z</time>
      </trkpt>
      <trkpt lat="48.69439" lon="2.04114">
        <ele>169.4</ele>
        <time>2026-05-24T08:48:47Z</time>
      </trkpt>
      <trkpt lat="48.6944" lon="2.04119">
        <ele>169.2</ele>
        <time>2026-05-24T08:48:48Z</time>
      </trkpt>
      <trkpt lat="48.6944" lon="2.04124">
        <ele>169.4</ele>
        <time>2026-05-24T08:48:49Z</time>
      </trkpt>
      <trkpt lat="48.6944" lon="2.04129">
        <ele>169.4</ele>
        <time>2026-05-24T08:48:50Z</time>
      </trkpt>
      <trkpt lat="48.6944" lon="2.04135">
        <ele>169.4</ele>
        <time>2026-05-24T08:48:51Z</time>
      </trkpt>
      <trkpt lat="48.6944" lon="2.04141">
        <ele>169.4</ele>
        <time>2026-05-24T08:48:52Z</time>
      </trkpt>
      <trkpt lat="48.6944" lon="2.04146">
        <ele>169.6</ele>
        <time>2026-05-24T08:48:53Z</time>
      </trkpt>
      <trkpt lat="48.6944" lon="2.04152">
        <ele>169.6</ele>
        <time>2026-05-24T08:48:54Z</time>
      </trkpt>
      <trkpt lat="48.6944" lon="2.04157">
        <ele>169.6</ele>
        <time>2026-05-24T08:48:55Z</time>
      </trkpt>
      <trkpt lat="48.69441" lon="2.04162">
        <ele>169.6</ele>
        <time>2026-05-24T08:48:56Z</time>
      </trkpt>
      <trkpt lat="48.69442" lon="2.04168">
        <ele>169.6</ele>
        <time>2026-05-24T08:48:57Z</time>
      </trkpt>
      <trkpt lat="48.69442" lon="2.04172">
        <ele>169.6</ele>
        <time>2026-05-24T08:48:58Z</time>
      </trkpt>
      <trkpt lat="48.69442" lon="2.04179">
        <ele>169.6</ele>
        <time>2026-05-24T08:48:59Z</time>
      </trkpt>
      <trkpt lat="48.69442" lon="2.04186">
        <ele>169.6</ele>
        <time>2026-05-24T08:49:00Z</time>
      </trkpt>
      <trkpt lat="48.69442" lon="2.04192">
        <ele>170.8</ele>
        <time>2026-05-24T08:49:01Z</time>
      </trkpt>
      <trkpt lat="48.69441" lon="2.04197">
        <ele>170.8</ele>
        <time>2026-05-24T08:49:02Z</time>
      </trkpt>
      <trkpt lat="48.69441" lon="2.04203">
        <ele>170.8</ele>
        <time>2026-05-24T08:49:03Z</time>
      </trkpt>
      <trkpt lat="48.69441" lon="2.04208">
        <ele>170.2</ele>
        <time>2026-05-24T08:49:04Z</time>
      </trkpt>
      <trkpt lat="48.69442" lon="2.04213">
        <ele>170.6</ele>
        <time>2026-05-24T08:49:05Z</time>
      </trkpt>
      <trkpt lat="48.69442" lon="2.04217">
        <ele>170.6</ele>
        <time>2026-05-24T08:49:06Z</time>
      </trkpt>
      <trkpt lat="48.69442" lon="2.04223">
        <ele>170.6</ele>
        <time>2026-05-24T08:49:07Z</time>
      </trkpt>
      <trkpt lat="48.69441" lon="2.04228">
        <ele>170.6</ele>
        <time>2026-05-24T08:49:08Z</time>
      </trkpt>
      <trkpt lat="48.69441" lon="2.04233">
        <ele>170</ele>
        <time>2026-05-24T08:49:09Z</time>
      </trkpt>
      <trkpt lat="48.69442" lon="2.04238">
        <ele>170</ele>
        <time>2026-05-24T08:49:10Z</time>
      </trkpt>
      <trkpt lat="48.69442" lon="2.04243">
        <ele>170</ele>
        <time>2026-05-24T08:49:11Z</time>
      </trkpt>
      <trkpt lat="48.69442" lon="2.0425">
        <ele>170.4</ele>
        <time>2026-05-24T08:49:12Z</time>
      </trkpt>
      <trkpt lat="48.69442" lon="2.04255">
        <ele>170.4</ele>
        <time>2026-05-24T08:49:13Z</time>
      </trkpt>
      <trkpt lat="48.69442" lon="2.04262">
        <ele>170.4</ele>
        <time>2026-05-24T08:49:14Z</time>
      </trkpt>
      <trkpt lat="48.69442" lon="2.04267">
        <ele>170.4</ele>
        <time>2026-05-24T08:49:15Z</time>
      </trkpt>
      <trkpt lat="48.69442" lon="2.04272">
        <ele>170</ele>
        <time>2026-05-24T08:49:16Z</time>
      </trkpt>
      <trkpt lat="48.69442" lon="2.04277">
        <ele>170.6</ele>
        <time>2026-05-24T08:49:17Z</time>
      </trkpt>
      <trkpt lat="48.69442" lon="2.04283">
        <ele>170.6</ele>
        <time>2026-05-24T08:49:18Z</time>
      </trkpt>
      <trkpt lat="48.69442" lon="2.04289">
        <ele>170.6</ele>
        <time>2026-05-24T08:49:19Z</time>
      </trkpt>
      <trkpt lat="48.69442" lon="2.04294">
        <ele>170.6</ele>
        <time>2026-05-24T08:49:20Z</time>
      </trkpt>
      <trkpt lat="48.69441" lon="2.04299">
        <ele>170.8</ele>
        <time>2026-05-24T08:49:21Z</time>
      </trkpt>
      <trkpt lat="48.69442" lon="2.04304">
        <ele>170.8</ele>
        <time>2026-05-24T08:49:22Z</time>
      </trkpt>
      <trkpt lat="48.69442" lon="2.04309">
        <ele>170.8</ele>
        <time>2026-05-24T08:49:23Z</time>
      </trkpt>
      <trkpt lat="48.69441" lon="2.04314">
        <ele>170.8</ele>
        <time>2026-05-24T08:49:24Z</time>
      </trkpt>
      <trkpt lat="48.69441" lon="2.0432">
        <ele>171</ele>
        <time>2026-05-24T08:49:25Z</time>
      </trkpt>
      <trkpt lat="48.6944" lon="2.04326">
        <ele>171</ele>
        <time>2026-05-24T08:49:26Z</time>
      </trkpt>
      <trkpt lat="48.6944" lon="2.04332">
        <ele>171</ele>
        <time>2026-05-24T08:49:27Z</time>
      </trkpt>
      <trkpt lat="48.6944" lon="2.04337">
        <ele>171</ele>
        <time>2026-05-24T08:49:28Z</time>
      </trkpt>
      <trkpt lat="48.6944" lon="2.04342">
        <ele>170.6</ele>
        <time>2026-05-24T08:49:29Z</time>
      </trkpt>
      <trkpt lat="48.69439" lon="2.04351">
        <ele>170.6</ele>
        <time>2026-05-24T08:49:30Z</time>
      </trkpt>
      <trkpt lat="48.69439" lon="2.04358">
        <ele>170.6</ele>
        <time>2026-05-24T08:49:31Z</time>
      </trkpt>
      <trkpt lat="48.69439" lon="2.04363">
        <ele>171</ele>
        <time>2026-05-24T08:49:32Z</time>
      </trkpt>
      <trkpt lat="48.69439" lon="2.0437">
        <ele>171</ele>
        <time>2026-05-24T08:49:33Z</time>
      </trkpt>
      <trkpt lat="48.6944" lon="2.04377">
        <ele>171</ele>
        <time>2026-05-24T08:49:34Z</time>
      </trkpt>
      <trkpt lat="48.69441" lon="2.04384">
        <ele>171</ele>
        <time>2026-05-24T08:49:35Z</time>
      </trkpt>
      <trkpt lat="48.6944" lon="2.04391">
        <ele>171</ele>
        <time>2026-05-24T08:49:36Z</time>
      </trkpt>
      <trkpt lat="48.69439" lon="2.04398">
        <ele>170.8</ele>
        <time>2026-05-24T08:49:37Z</time>
      </trkpt>
      <trkpt lat="48.6944" lon="2.04404">
        <ele>170.8</ele>
        <time>2026-05-24T08:49:38Z</time>
      </trkpt>
      <trkpt lat="48.6944" lon="2.04409">
        <ele>170.8</ele>
        <time>2026-05-24T08:49:39Z</time>
      </trkpt>
      <trkpt lat="48.6944" lon="2.04415">
        <ele>170.8</ele>
        <time>2026-05-24T08:49:40Z</time>
      </trkpt>
      <trkpt lat="48.6944" lon="2.04422">
        <ele>170.8</ele>
        <time>2026-05-24T08:49:41Z</time>
      </trkpt>
      <trkpt lat="48.6944" lon="2.04428">
        <ele>170.8</ele>
        <time>2026-05-24T08:49:42Z</time>
      </trkpt>
      <trkpt lat="48.6944" lon="2.04436">
        <ele>170.8</ele>
        <time>2026-05-24T08:49:43Z</time>
      </trkpt>
      <trkpt lat="48.69441" lon="2.04444">
        <ele>171.2</ele>
        <time>2026-05-24T08:49:44Z</time>
      </trkpt>
      <trkpt lat="48.69441" lon="2.04452">
        <ele>171</ele>
        <time>2026-05-24T08:49:45Z</time>
      </trkpt>
      <trkpt lat="48.69441" lon="2.04458">
        <ele>171</ele>
        <time>2026-05-24T08:49:46Z</time>
      </trkpt>
      <trkpt lat="48.69441" lon="2.04465">
        <ele>171</ele>
        <time>2026-05-24T08:49:47Z</time>
      </trkpt>
      <trkpt lat="48.6944" lon="2.04469">
        <ele>171</ele>
        <time>2026-05-24T08:49:48Z</time>
      </trkpt>
      <trkpt lat="48.69438" lon="2.04473">
        <ele>171</ele>
        <time>2026-05-24T08:49:49Z</time>
      </trkpt>
      <trkpt lat="48.69438" lon="2.04478">
        <ele>171</ele>
        <time>2026-05-24T08:49:50Z</time>
      </trkpt>
      <trkpt lat="48.69438" lon="2.04485">
        <ele>171</ele>
        <time>2026-05-24T08:49:51Z</time>
      </trkpt>
      <trkpt lat="48.69437" lon="2.04492">
        <ele>171</ele>
        <time>2026-05-24T08:49:52Z</time>
      </trkpt>
      <trkpt lat="48.69438" lon="2.04497">
        <ele>171.6</ele>
        <time>2026-05-24T08:49:53Z</time>
      </trkpt>
      <trkpt lat="48.69438" lon="2.04504">
        <ele>171.6</ele>
        <time>2026-05-24T08:49:54Z</time>
      </trkpt>
      <trkpt lat="48.69438" lon="2.0451">
        <ele>171.6</ele>
        <time>2026-05-24T08:49:55Z</time>
      </trkpt>
      <trkpt lat="48.69438" lon="2.04516">
        <ele>171.6</ele>
        <time>2026-05-24T08:49:56Z</time>
      </trkpt>
      <trkpt lat="48.69438" lon="2.04523">
        <ele>173.6</ele>
        <time>2026-05-24T08:49:57Z</time>
      </trkpt>
      <trkpt lat="48.69439" lon="2.04529">
        <ele>173.6</ele>
        <time>2026-05-24T08:49:58Z</time>
      </trkpt>
      <trkpt lat="48.6944" lon="2.04534">
        <ele>173.6</ele>
        <time>2026-05-24T08:49:59Z</time>
      </trkpt>
      <trkpt lat="48.69441" lon="2.0454">
        <ele>172.6</ele>
        <time>2026-05-24T08:50:00Z</time>
      </trkpt>
      <trkpt lat="48.69441" lon="2.04544">
        <ele>171.6</ele>
        <time>2026-05-24T08:50:01Z</time>
      </trkpt>
      <trkpt lat="48.69439" lon="2.0455">
        <ele>171.6</ele>
        <time>2026-05-24T08:50:02Z</time>
      </trkpt>
      <trkpt lat="48.69439" lon="2.04554">
        <ele>171.6</ele>
        <time>2026-05-24T08:50:03Z</time>
      </trkpt>
      <trkpt lat="48.69439" lon="2.04561">
        <ele>171.6</ele>
        <time>2026-05-24T08:50:04Z</time>
      </trkpt>
      <trkpt lat="48.69438" lon="2.04566">
        <ele>172</ele>
        <time>2026-05-24T08:50:05Z</time>
      </trkpt>
      <trkpt lat="48.69437" lon="2.04571">
        <ele>172</ele>
        <time>2026-05-24T08:50:06Z</time>
      </trkpt>
      <trkpt lat="48.69436" lon="2.04575">
        <ele>172</ele>
        <time>2026-05-24T08:50:07Z</time>
      </trkpt>
      <trkpt lat="48.69435" lon="2.04581">
        <ele>172</ele>
        <time>2026-05-24T08:50:08Z</time>
      </trkpt>
      <trkpt lat="48.69433" lon="2.04587">
        <ele>171.8</ele>
        <time>2026-05-24T08:50:09Z</time>
      </trkpt>
      <trkpt lat="48.6943" lon="2.04591">
        <ele>171.8</ele>
        <time>2026-05-24T08:50:10Z</time>
      </trkpt>
      <trkpt lat="48.69429" lon="2.04595">
        <ele>171.8</ele>
        <time>2026-05-24T08:50:11Z</time>
      </trkpt>
      <trkpt lat="48.69426" lon="2.04601">
        <ele>171.8</ele>
        <time>2026-05-24T08:50:12Z</time>
      </trkpt>
      <trkpt lat="48.69425" lon="2.04606">
        <ele>172.4</ele>
        <time>2026-05-24T08:50:13Z</time>
      </trkpt>
      <trkpt lat="48.69424" lon="2.04611">
        <ele>172.4</ele>
        <time>2026-05-24T08:50:14Z</time>
      </trkpt>
      <trkpt lat="48.69423" lon="2.04618">
        <ele>172.4</ele>
        <time>2026-05-24T08:50:15Z</time>
      </trkpt>
      <trkpt lat="48.69423" lon="2.04624">
        <ele>172.4</ele>
        <time>2026-05-24T08:50:16Z</time>
      </trkpt>
      <trkpt lat="48.69422" lon="2.04631">
        <ele>172.2</ele>
        <time>2026-05-24T08:50:17Z</time>
      </trkpt>
      <trkpt lat="48.69422" lon="2.04637">
        <ele>172.2</ele>
        <time>2026-05-24T08:50:18Z</time>
      </trkpt>
      <trkpt lat="48.69421" lon="2.04643">
        <ele>172.2</ele>
        <time>2026-05-24T08:50:19Z</time>
      </trkpt>
      <trkpt lat="48.69419" lon="2.04649">
        <ele>172.4</ele>
        <time>2026-05-24T08:50:20Z</time>
      </trkpt>
      <trkpt lat="48.69418" lon="2.04655">
        <ele>172.4</ele>
        <time>2026-05-24T08:50:21Z</time>
      </trkpt>
      <trkpt lat="48.69415" lon="2.04662">
        <ele>172.4</ele>
        <time>2026-05-24T08:50:22Z</time>
      </trkpt>
      <trkpt lat="48.69414" lon="2.04669">
        <ele>172.4</ele>
        <time>2026-05-24T08:50:23Z</time>
      </trkpt>
      <trkpt lat="48.69412" lon="2.04675">
        <ele>172.2</ele>
        <time>2026-05-24T08:50:24Z</time>
      </trkpt>
      <trkpt lat="48.69411" lon="2.04681">
        <ele>172.4</ele>
        <time>2026-05-24T08:50:25Z</time>
      </trkpt>
      <trkpt lat="48.6941" lon="2.04687">
        <ele>172.4</ele>
        <time>2026-05-24T08:50:26Z</time>
      </trkpt>
      <trkpt lat="48.6941" lon="2.04693">
        <ele>172.4</ele>
        <time>2026-05-24T08:50:27Z</time>
      </trkpt>
      <trkpt lat="48.69411" lon="2.04699">
        <ele>172.4</ele>
        <time>2026-05-24T08:50:28Z</time>
      </trkpt>
      <trkpt lat="48.69411" lon="2.04706">
        <ele>172</ele>
        <time>2026-05-24T08:50:29Z</time>
      </trkpt>
      <trkpt lat="48.69411" lon="2.04711">
        <ele>172</ele>
        <time>2026-05-24T08:50:30Z</time>
      </trkpt>
      <trkpt lat="48.69411" lon="2.0472">
        <ele>172</ele>
        <time>2026-05-24T08:50:31Z</time>
      </trkpt>
      <trkpt lat="48.6941" lon="2.04728">
        <ele>172</ele>
        <time>2026-05-24T08:50:32Z</time>
      </trkpt>
      <trkpt lat="48.69408" lon="2.04735">
        <ele>171.6</ele>
        <time>2026-05-24T08:50:33Z</time>
      </trkpt>
      <trkpt lat="48.69407" lon="2.04739">
        <ele>171.6</ele>
        <time>2026-05-24T08:50:34Z</time>
      </trkpt>
      <trkpt lat="48.69407" lon="2.04744">
        <ele>171.6</ele>
        <time>2026-05-24T08:50:35Z</time>
      </trkpt>
      <trkpt lat="48.69406" lon="2.04751">
        <ele>172.4</ele>
        <time>2026-05-24T08:50:36Z</time>
      </trkpt>
      <trkpt lat="48.69405" lon="2.04757">
        <ele>172.4</ele>
        <time>2026-05-24T08:50:37Z</time>
      </trkpt>
      <trkpt lat="48.69404" lon="2.04764">
        <ele>172.4</ele>
        <time>2026-05-24T08:50:38Z</time>
      </trkpt>
      <trkpt lat="48.69403" lon="2.04771">
        <ele>172.4</ele>
        <time>2026-05-24T08:50:39Z</time>
      </trkpt>
      <trkpt lat="48.69403" lon="2.04779">
        <ele>171.8</ele>
        <time>2026-05-24T08:50:40Z</time>
      </trkpt>
      <trkpt lat="48.69403" lon="2.04784">
        <ele>171.8</ele>
        <time>2026-05-24T08:50:41Z</time>
      </trkpt>
      <trkpt lat="48.69403" lon="2.04792">
        <ele>171.8</ele>
        <time>2026-05-24T08:50:42Z</time>
      </trkpt>
      <trkpt lat="48.69403" lon="2.04799">
        <ele>171.8</ele>
        <time>2026-05-24T08:50:43Z</time>
      </trkpt>
      <trkpt lat="48.69404" lon="2.04806">
        <ele>171.8</ele>
        <time>2026-05-24T08:50:44Z</time>
      </trkpt>
      <trkpt lat="48.69402" lon="2.04813">
        <ele>172.8</ele>
        <time>2026-05-24T08:50:45Z</time>
      </trkpt>
      <trkpt lat="48.69402" lon="2.04818">
        <ele>172.8</ele>
        <time>2026-05-24T08:50:46Z</time>
      </trkpt>
      <trkpt lat="48.69403" lon="2.04824">
        <ele>172.8</ele>
        <time>2026-05-24T08:50:47Z</time>
      </trkpt>
      <trkpt lat="48.69402" lon="2.0483">
        <ele>172.2</ele>
        <time>2026-05-24T08:50:48Z</time>
      </trkpt>
      <trkpt lat="48.69401" lon="2.04838">
        <ele>172</ele>
        <time>2026-05-24T08:50:49Z</time>
      </trkpt>
      <trkpt lat="48.694" lon="2.04845">
        <ele>172</ele>
        <time>2026-05-24T08:50:50Z</time>
      </trkpt>
      <trkpt lat="48.69399" lon="2.04851">
        <ele>172</ele>
        <time>2026-05-24T08:50:51Z</time>
      </trkpt>
      <trkpt lat="48.69399" lon="2.04858">
        <ele>172.6</ele>
        <time>2026-05-24T08:50:52Z</time>
      </trkpt>
      <trkpt lat="48.69398" lon="2.04866">
        <ele>172.2</ele>
        <time>2026-05-24T08:50:53Z</time>
      </trkpt>
      <trkpt lat="48.694" lon="2.04873">
        <ele>172.2</ele>
        <time>2026-05-24T08:50:54Z</time>
      </trkpt>
      <trkpt lat="48.69401" lon="2.04882">
        <ele>172.2</ele>
        <time>2026-05-24T08:50:55Z</time>
      </trkpt>
      <trkpt lat="48.69402" lon="2.04888">
        <ele>172.2</ele>
        <time>2026-05-24T08:50:56Z</time>
      </trkpt>
      <trkpt lat="48.69404" lon="2.04895">
        <ele>172.6</ele>
        <time>2026-05-24T08:50:57Z</time>
      </trkpt>
      <trkpt lat="48.69406" lon="2.04901">
        <ele>172.6</ele>
        <time>2026-05-24T08:50:58Z</time>
      </trkpt>
      <trkpt lat="48.69407" lon="2.04908">
        <ele>172.6</ele>
        <time>2026-05-24T08:50:59Z</time>
      </trkpt>
      <trkpt lat="48.69408" lon="2.04916">
        <ele>172.6</ele>
        <time>2026-05-24T08:51:00Z</time>
      </trkpt>
      <trkpt lat="48.69406" lon="2.04922">
        <ele>172</ele>
        <time>2026-05-24T08:51:01Z</time>
      </trkpt>
      <trkpt lat="48.69407" lon="2.04928">
        <ele>172</ele>
        <time>2026-05-24T08:51:02Z</time>
      </trkpt>
      <trkpt lat="48.69407" lon="2.04933">
        <ele>172</ele>
        <time>2026-05-24T08:51:03Z</time>
      </trkpt>
      <trkpt lat="48.69408" lon="2.0494">
        <ele>172</ele>
        <time>2026-05-24T08:51:04Z</time>
      </trkpt>
      <trkpt lat="48.69409" lon="2.04947">
        <ele>171.6</ele>
        <time>2026-05-24T08:51:05Z</time>
      </trkpt>
      <trkpt lat="48.69411" lon="2.04953">
        <ele>171.6</ele>
        <time>2026-05-24T08:51:06Z</time>
      </trkpt>
      <trkpt lat="48.69413" lon="2.04959">
        <ele>171.6</ele>
        <time>2026-05-24T08:51:07Z</time>
      </trkpt>
      <trkpt lat="48.69414" lon="2.04967">
        <ele>172.2</ele>
        <time>2026-05-24T08:51:08Z</time>
      </trkpt>
      <trkpt lat="48.69414" lon="2.04974">
        <ele>172</ele>
        <time>2026-05-24T08:51:09Z</time>
      </trkpt>
      <trkpt lat="48.69414" lon="2.04981">
        <ele>172</ele>
        <time>2026-05-24T08:51:10Z</time>
      </trkpt>
      <trkpt lat="48.69415" lon="2.04988">
        <ele>172</ele>
        <time>2026-05-24T08:51:11Z</time>
      </trkpt>
      <trkpt lat="48.69416" lon="2.04996">
        <ele>172</ele>
        <time>2026-05-24T08:51:12Z</time>
      </trkpt>
      <trkpt lat="48.69418" lon="2.05003">
        <ele>172.2</ele>
        <time>2026-05-24T08:51:13Z</time>
      </trkpt>
      <trkpt lat="48.69419" lon="2.05009">
        <ele>172.2</ele>
        <time>2026-05-24T08:51:14Z</time>
      </trkpt>
      <trkpt lat="48.6942" lon="2.05015">
        <ele>172.2</ele>
        <time>2026-05-24T08:51:15Z</time>
      </trkpt>
      <trkpt lat="48.69421" lon="2.05021">
        <ele>172</ele>
        <time>2026-05-24T08:51:16Z</time>
      </trkpt>
      <trkpt lat="48.69422" lon="2.05028">
        <ele>172.6</ele>
        <time>2026-05-24T08:51:17Z</time>
      </trkpt>
      <trkpt lat="48.69423" lon="2.05035">
        <ele>172.6</ele>
        <time>2026-05-24T08:51:18Z</time>
      </trkpt>
      <trkpt lat="48.69424" lon="2.05042">
        <ele>172.6</ele>
        <time>2026-05-24T08:51:19Z</time>
      </trkpt>
      <trkpt lat="48.69425" lon="2.05047">
        <ele>171.8</ele>
        <time>2026-05-24T08:51:20Z</time>
      </trkpt>
      <trkpt lat="48.69427" lon="2.05054">
        <ele>171.6</ele>
        <time>2026-05-24T08:51:21Z</time>
      </trkpt>
      <trkpt lat="48.6943" lon="2.0506">
        <ele>171.6</ele>
        <time>2026-05-24T08:51:22Z</time>
      </trkpt>
      <trkpt lat="48.69431" lon="2.05065">
        <ele>171.6</ele>
        <time>2026-05-24T08:51:23Z</time>
      </trkpt>
      <trkpt lat="48.69433" lon="2.05072">
        <ele>171.6</ele>
        <time>2026-05-24T08:51:24Z</time>
      </trkpt>
      <trkpt lat="48.69435" lon="2.05079">
        <ele>172</ele>
        <time>2026-05-24T08:51:25Z</time>
      </trkpt>
      <trkpt lat="48.69437" lon="2.05085">
        <ele>172</ele>
        <time>2026-05-24T08:51:26Z</time>
      </trkpt>
      <trkpt lat="48.69438" lon="2.0509">
        <ele>172</ele>
        <time>2026-05-24T08:51:27Z</time>
      </trkpt>
      <trkpt lat="48.69441" lon="2.05096">
        <ele>171.2</ele>
        <time>2026-05-24T08:51:28Z</time>
      </trkpt>
      <trkpt lat="48.69442" lon="2.05101">
        <ele>172.4</ele>
        <time>2026-05-24T08:51:29Z</time>
      </trkpt>
      <trkpt lat="48.69445" lon="2.05108">
        <ele>172.4</ele>
        <time>2026-05-24T08:51:30Z</time>
      </trkpt>
      <trkpt lat="48.69447" lon="2.05114">
        <ele>172.4</ele>
        <time>2026-05-24T08:51:31Z</time>
      </trkpt>
      <trkpt lat="48.6945" lon="2.05122">
        <ele>171.6</ele>
        <time>2026-05-24T08:51:32Z</time>
      </trkpt>
      <trkpt lat="48.69454" lon="2.05131">
        <ele>171</ele>
        <time>2026-05-24T08:51:33Z</time>
      </trkpt>
      <trkpt lat="48.69456" lon="2.05138">
        <ele>171</ele>
        <time>2026-05-24T08:51:34Z</time>
      </trkpt>
      <trkpt lat="48.69459" lon="2.05145">
        <ele>171</ele>
        <time>2026-05-24T08:51:35Z</time>
      </trkpt>
      <trkpt lat="48.69462" lon="2.05151">
        <ele>171</ele>
        <time>2026-05-24T08:51:36Z</time>
      </trkpt>
      <trkpt lat="48.69464" lon="2.05157">
        <ele>170.8</ele>
        <time>2026-05-24T08:51:37Z</time>
      </trkpt>
      <trkpt lat="48.69469" lon="2.05166">
        <ele>170.8</ele>
        <time>2026-05-24T08:51:38Z</time>
      </trkpt>
      <trkpt lat="48.69471" lon="2.05173">
        <ele>170.8</ele>
        <time>2026-05-24T08:51:39Z</time>
      </trkpt>
      <trkpt lat="48.69472" lon="2.05182">
        <ele>170.8</ele>
        <time>2026-05-24T08:51:40Z</time>
      </trkpt>
      <trkpt lat="48.69474" lon="2.0519">
        <ele>170.4</ele>
        <time>2026-05-24T08:51:41Z</time>
      </trkpt>
      <trkpt lat="48.69477" lon="2.05198">
        <ele>170.4</ele>
        <time>2026-05-24T08:51:42Z</time>
      </trkpt>
      <trkpt lat="48.69478" lon="2.05205">
        <ele>170.4</ele>
        <time>2026-05-24T08:51:43Z</time>
      </trkpt>
      <trkpt lat="48.69481" lon="2.05214">
        <ele>170.4</ele>
        <time>2026-05-24T08:51:44Z</time>
      </trkpt>
      <trkpt lat="48.69483" lon="2.05221">
        <ele>170.6</ele>
        <time>2026-05-24T08:51:45Z</time>
      </trkpt>
      <trkpt lat="48.69486" lon="2.05229">
        <ele>170.6</ele>
        <time>2026-05-24T08:51:46Z</time>
      </trkpt>
      <trkpt lat="48.69488" lon="2.05237">
        <ele>170.6</ele>
        <time>2026-05-24T08:51:47Z</time>
      </trkpt>
      <trkpt lat="48.6949" lon="2.05243">
        <ele>170</ele>
        <time>2026-05-24T08:51:48Z</time>
      </trkpt>
      <trkpt lat="48.69492" lon="2.05249">
        <ele>170.4</ele>
        <time>2026-05-24T08:51:49Z</time>
      </trkpt>
      <trkpt lat="48.69496" lon="2.05259">
        <ele>170.4</ele>
        <time>2026-05-24T08:51:50Z</time>
      </trkpt>
      <trkpt lat="48.69497" lon="2.05266">
        <ele>170.4</ele>
        <time>2026-05-24T08:51:51Z</time>
      </trkpt>
      <trkpt lat="48.695" lon="2.05274">
        <ele>169.4</ele>
        <time>2026-05-24T08:51:52Z</time>
      </trkpt>
      <trkpt lat="48.69505" lon="2.0528">
        <ele>169.2</ele>
        <time>2026-05-24T08:51:53Z</time>
      </trkpt>
      <trkpt lat="48.69507" lon="2.05285">
        <ele>169.2</ele>
        <time>2026-05-24T08:51:54Z</time>
      </trkpt>
      <trkpt lat="48.69511" lon="2.05291">
        <ele>169.2</ele>
        <time>2026-05-24T08:51:55Z</time>
      </trkpt>
      <trkpt lat="48.69515" lon="2.05297">
        <ele>169.2</ele>
        <time>2026-05-24T08:51:56Z</time>
      </trkpt>
      <trkpt lat="48.69519" lon="2.05304">
        <ele>169.2</ele>
        <time>2026-05-24T08:51:57Z</time>
      </trkpt>
      <trkpt lat="48.69523" lon="2.0531">
        <ele>169.2</ele>
        <time>2026-05-24T08:51:58Z</time>
      </trkpt>
      <trkpt lat="48.69527" lon="2.05314">
        <ele>169.2</ele>
        <time>2026-05-24T08:51:59Z</time>
      </trkpt>
      <trkpt lat="48.69531" lon="2.0532">
        <ele>168.4</ele>
        <time>2026-05-24T08:52:00Z</time>
      </trkpt>
      <trkpt lat="48.69536" lon="2.05326">
        <ele>169.2</ele>
        <time>2026-05-24T08:52:01Z</time>
      </trkpt>
      <trkpt lat="48.69541" lon="2.05334">
        <ele>169.2</ele>
        <time>2026-05-24T08:52:02Z</time>
      </trkpt>
      <trkpt lat="48.69546" lon="2.05339">
        <ele>169.2</ele>
        <time>2026-05-24T08:52:03Z</time>
      </trkpt>
      <trkpt lat="48.69549" lon="2.05343">
        <ele>168.2</ele>
        <time>2026-05-24T08:52:04Z</time>
      </trkpt>
      <trkpt lat="48.69554" lon="2.05347">
        <ele>168.2</ele>
        <time>2026-05-24T08:52:05Z</time>
      </trkpt>
      <trkpt lat="48.69559" lon="2.05348">
        <ele>168.2</ele>
        <time>2026-05-24T08:52:06Z</time>
      </trkpt>
      <trkpt lat="48.69565" lon="2.05351">
        <ele>168.2</ele>
        <time>2026-05-24T08:52:07Z</time>
      </trkpt>
      <trkpt lat="48.69571" lon="2.05354">
        <ele>167.4</ele>
        <time>2026-05-24T08:52:08Z</time>
      </trkpt>
      <trkpt lat="48.69575" lon="2.05355">
        <ele>167.6</ele>
        <time>2026-05-24T08:52:09Z</time>
      </trkpt>
      <trkpt lat="48.69579" lon="2.05355">
        <ele>167.6</ele>
        <time>2026-05-24T08:52:10Z</time>
      </trkpt>
      <trkpt lat="48.69584" lon="2.05356">
        <ele>167.6</ele>
        <time>2026-05-24T08:52:11Z</time>
      </trkpt>
      <trkpt lat="48.69588" lon="2.05357">
        <ele>167.6</ele>
        <time>2026-05-24T08:52:12Z</time>
      </trkpt>
      <trkpt lat="48.69593" lon="2.05358">
        <ele>166.6</ele>
        <time>2026-05-24T08:52:13Z</time>
      </trkpt>
      <trkpt lat="48.69597" lon="2.05359">
        <ele>166.6</ele>
        <time>2026-05-24T08:52:14Z</time>
      </trkpt>
      <trkpt lat="48.69601" lon="2.05362">
        <ele>166.6</ele>
        <time>2026-05-24T08:52:15Z</time>
      </trkpt>
      <trkpt lat="48.69604" lon="2.05364">
        <ele>167</ele>
        <time>2026-05-24T08:52:16Z</time>
      </trkpt>
      <trkpt lat="48.6961" lon="2.05365">
        <ele>167.2</ele>
        <time>2026-05-24T08:52:17Z</time>
      </trkpt>
      <trkpt lat="48.69614" lon="2.05368">
        <ele>167.2</ele>
        <time>2026-05-24T08:52:18Z</time>
      </trkpt>
      <trkpt lat="48.69619" lon="2.05371">
        <ele>167.2</ele>
        <time>2026-05-24T08:52:19Z</time>
      </trkpt>
      <trkpt lat="48.69622" lon="2.05377">
        <ele>167.4</ele>
        <time>2026-05-24T08:52:20Z</time>
      </trkpt>
      <trkpt lat="48.69625" lon="2.05382">
        <ele>168</ele>
        <time>2026-05-24T08:52:21Z</time>
      </trkpt>
      <trkpt lat="48.69627" lon="2.05389">
        <ele>168</ele>
        <time>2026-05-24T08:52:22Z</time>
      </trkpt>
      <trkpt lat="48.69629" lon="2.05396">
        <ele>168</ele>
        <time>2026-05-24T08:52:23Z</time>
      </trkpt>
      <trkpt lat="48.69628" lon="2.05402">
        <ele>167</ele>
        <time>2026-05-24T08:52:24Z</time>
      </trkpt>
      <trkpt lat="48.69628" lon="2.0541">
        <ele>166.2</ele>
        <time>2026-05-24T08:52:25Z</time>
      </trkpt>
      <trkpt lat="48.69628" lon="2.05416">
        <ele>166.2</ele>
        <time>2026-05-24T08:52:26Z</time>
      </trkpt>
      <trkpt lat="48.69628" lon="2.05423">
        <ele>166.2</ele>
        <time>2026-05-24T08:52:27Z</time>
      </trkpt>
      <trkpt lat="48.69628" lon="2.0543">
        <ele>166.4</ele>
        <time>2026-05-24T08:52:28Z</time>
      </trkpt>
      <trkpt lat="48.69629" lon="2.05437">
        <ele>167</ele>
        <time>2026-05-24T08:52:29Z</time>
      </trkpt>
      <trkpt lat="48.69629" lon="2.05445">
        <ele>167</ele>
        <time>2026-05-24T08:52:30Z</time>
      </trkpt>
      <trkpt lat="48.6963" lon="2.05453">
        <ele>167</ele>
        <time>2026-05-24T08:52:31Z</time>
      </trkpt>
      <trkpt lat="48.69629" lon="2.0546">
        <ele>166</ele>
        <time>2026-05-24T08:52:32Z</time>
      </trkpt>
      <trkpt lat="48.69629" lon="2.05467">
        <ele>166.2</ele>
        <time>2026-05-24T08:52:33Z</time>
      </trkpt>
      <trkpt lat="48.69631" lon="2.05475">
        <ele>166.2</ele>
        <time>2026-05-24T08:52:34Z</time>
      </trkpt>
      <trkpt lat="48.69632" lon="2.05484">
        <ele>166.2</ele>
        <time>2026-05-24T08:52:35Z</time>
      </trkpt>
      <trkpt lat="48.69631" lon="2.05492">
        <ele>165.6</ele>
        <time>2026-05-24T08:52:36Z</time>
      </trkpt>
      <trkpt lat="48.69632" lon="2.05499">
        <ele>166.8</ele>
        <time>2026-05-24T08:52:37Z</time>
      </trkpt>
      <trkpt lat="48.69632" lon="2.05507">
        <ele>166.8</ele>
        <time>2026-05-24T08:52:38Z</time>
      </trkpt>
      <trkpt lat="48.69632" lon="2.05514">
        <ele>166.8</ele>
        <time>2026-05-24T08:52:39Z</time>
      </trkpt>
      <trkpt lat="48.69632" lon="2.05521">
        <ele>165.8</ele>
        <time>2026-05-24T08:52:40Z</time>
      </trkpt>
      <trkpt lat="48.69633" lon="2.05527">
        <ele>165.2</ele>
        <time>2026-05-24T08:52:41Z</time>
      </trkpt>
      <trkpt lat="48.69632" lon="2.05532">
        <ele>165.2</ele>
        <time>2026-05-24T08:52:42Z</time>
      </trkpt>
      <trkpt lat="48.69634" lon="2.05537">
        <ele>165.2</ele>
        <time>2026-05-24T08:52:43Z</time>
      </trkpt>
      <trkpt lat="48.69636" lon="2.05541">
        <ele>164.2</ele>
        <time>2026-05-24T08:52:44Z</time>
      </trkpt>
      <trkpt lat="48.69639" lon="2.05544">
        <ele>162.8</ele>
        <time>2026-05-24T08:52:45Z</time>
      </trkpt>
      <trkpt lat="48.69643" lon="2.05547">
        <ele>162.8</ele>
        <time>2026-05-24T08:52:46Z</time>
      </trkpt>
      <trkpt lat="48.69645" lon="2.05547">
        <ele>162.8</ele>
        <time>2026-05-24T08:52:47Z</time>
      </trkpt>
      <trkpt lat="48.69647" lon="2.05549">
        <ele>163.4</ele>
        <time>2026-05-24T08:52:48Z</time>
      </trkpt>
      <trkpt lat="48.6965" lon="2.05551">
        <ele>164.6</ele>
        <time>2026-05-24T08:52:49Z</time>
      </trkpt>
      <trkpt lat="48.69654" lon="2.05552">
        <ele>164.6</ele>
        <time>2026-05-24T08:52:50Z</time>
      </trkpt>
      <trkpt lat="48.69657" lon="2.05553">
        <ele>164.6</ele>
        <time>2026-05-24T08:52:51Z</time>
      </trkpt>
      <trkpt lat="48.6966" lon="2.05555">
        <ele>163.8</ele>
        <time>2026-05-24T08:52:52Z</time>
      </trkpt>
      <trkpt lat="48.69663" lon="2.05557">
        <ele>164.2</ele>
        <time>2026-05-24T08:52:53Z</time>
      </trkpt>
      <trkpt lat="48.69666" lon="2.05559">
        <ele>164.2</ele>
        <time>2026-05-24T08:52:54Z</time>
      </trkpt>
      <trkpt lat="48.69668" lon="2.05562">
        <ele>164.2</ele>
        <time>2026-05-24T08:52:55Z</time>
      </trkpt>
      <trkpt lat="48.69671" lon="2.05564">
        <ele>164.2</ele>
        <time>2026-05-24T08:52:56Z</time>
      </trkpt>
      <trkpt lat="48.69674" lon="2.05566">
        <ele>163.4</ele>
        <time>2026-05-24T08:52:57Z</time>
      </trkpt>
      <trkpt lat="48.69677" lon="2.05569">
        <ele>163.4</ele>
        <time>2026-05-24T08:52:58Z</time>
      </trkpt>
      <trkpt lat="48.69681" lon="2.05574">
        <ele>163.4</ele>
        <time>2026-05-24T08:52:59Z</time>
      </trkpt>
      <trkpt lat="48.69684" lon="2.05579">
        <ele>163.4</ele>
        <time>2026-05-24T08:53:00Z</time>
      </trkpt>
      <trkpt lat="48.69686" lon="2.05584">
        <ele>162.2</ele>
        <time>2026-05-24T08:53:01Z</time>
      </trkpt>
      <trkpt lat="48.69689" lon="2.0559">
        <ele>162.2</ele>
        <time>2026-05-24T08:53:02Z</time>
      </trkpt>
      <trkpt lat="48.6969" lon="2.05597">
        <ele>162.2</ele>
        <time>2026-05-24T08:53:03Z</time>
      </trkpt>
      <trkpt lat="48.69691" lon="2.05603">
        <ele>161.2</ele>
        <time>2026-05-24T08:53:04Z</time>
      </trkpt>
      <trkpt lat="48.69692" lon="2.0561">
        <ele>159.6</ele>
        <time>2026-05-24T08:53:05Z</time>
      </trkpt>
      <trkpt lat="48.69695" lon="2.05616">
        <ele>159.6</ele>
        <time>2026-05-24T08:53:06Z</time>
      </trkpt>
      <trkpt lat="48.69697" lon="2.05622">
        <ele>159.6</ele>
        <time>2026-05-24T08:53:07Z</time>
      </trkpt>
      <trkpt lat="48.69698" lon="2.05628">
        <ele>158.6</ele>
        <time>2026-05-24T08:53:08Z</time>
      </trkpt>
      <trkpt lat="48.69698" lon="2.05632">
        <ele>158.2</ele>
        <time>2026-05-24T08:53:09Z</time>
      </trkpt>
      <trkpt lat="48.69698" lon="2.05637">
        <ele>158.2</ele>
        <time>2026-05-24T08:53:10Z</time>
      </trkpt>
      <trkpt lat="48.69698" lon="2.0564">
        <ele>158.2</ele>
        <time>2026-05-24T08:53:11Z</time>
      </trkpt>
      <trkpt lat="48.69697" lon="2.05644">
        <ele>157.2</ele>
        <time>2026-05-24T08:53:12Z</time>
      </trkpt>
      <trkpt lat="48.69695" lon="2.05647">
        <ele>156.4</ele>
        <time>2026-05-24T08:53:13Z</time>
      </trkpt>
      <trkpt lat="48.69692" lon="2.05651">
        <ele>156.4</ele>
        <time>2026-05-24T08:53:14Z</time>
      </trkpt>
      <trkpt lat="48.69689" lon="2.05652">
        <ele>156.4</ele>
        <time>2026-05-24T08:53:15Z</time>
      </trkpt>
      <trkpt lat="48.69686" lon="2.0565">
        <ele>155.4</ele>
        <time>2026-05-24T08:53:16Z</time>
      </trkpt>
      <trkpt lat="48.69684" lon="2.05649">
        <ele>154.2</ele>
        <time>2026-05-24T08:53:17Z</time>
      </trkpt>
      <trkpt lat="48.69683" lon="2.05646">
        <ele>154.2</ele>
        <time>2026-05-24T08:53:18Z</time>
      </trkpt>
      <trkpt lat="48.69683" lon="2.05642">
        <ele>154.2</ele>
        <time>2026-05-24T08:53:19Z</time>
      </trkpt>
      <trkpt lat="48.69684" lon="2.05638">
        <ele>154.2</ele>
        <time>2026-05-24T08:53:20Z</time>
      </trkpt>
      <trkpt lat="48.69685" lon="2.05634">
        <ele>155</ele>
        <time>2026-05-24T08:53:21Z</time>
      </trkpt>
      <trkpt lat="48.69686" lon="2.05629">
        <ele>155</ele>
        <time>2026-05-24T08:53:22Z</time>
      </trkpt>
      <trkpt lat="48.69684" lon="2.05627">
        <ele>155</ele>
        <time>2026-05-24T08:53:23Z</time>
      </trkpt>
      <trkpt lat="48.69682" lon="2.05624">
        <ele>154.2</ele>
        <time>2026-05-24T08:53:24Z</time>
      </trkpt>
      <trkpt lat="48.6968" lon="2.05622">
        <ele>154.6</ele>
        <time>2026-05-24T08:53:25Z</time>
      </trkpt>
      <trkpt lat="48.69678" lon="2.0562">
        <ele>154.6</ele>
        <time>2026-05-24T08:53:26Z</time>
      </trkpt>
      <trkpt lat="48.69675" lon="2.05621">
        <ele>154.6</ele>
        <time>2026-05-24T08:53:27Z</time>
      </trkpt>
      <trkpt lat="48.69672" lon="2.05622">
        <ele>154.6</ele>
        <time>2026-05-24T08:53:28Z</time>
      </trkpt>
      <trkpt lat="48.69669" lon="2.05623">
        <ele>154.6</ele>
        <time>2026-05-24T08:53:29Z</time>
      </trkpt>
      <trkpt lat="48.69666" lon="2.05625">
        <ele>154.6</ele>
        <time>2026-05-24T08:53:30Z</time>
      </trkpt>
      <trkpt lat="48.69663" lon="2.05626">
        <ele>154.6</ele>
        <time>2026-05-24T08:53:31Z</time>
      </trkpt>
      <trkpt lat="48.69658" lon="2.05629">
        <ele>153.6</ele>
        <time>2026-05-24T08:53:32Z</time>
      </trkpt>
      <trkpt lat="48.69653" lon="2.05631">
        <ele>153.6</ele>
        <time>2026-05-24T08:53:33Z</time>
      </trkpt>
      <trkpt lat="48.6965" lon="2.05631">
        <ele>153.6</ele>
        <time>2026-05-24T08:53:34Z</time>
      </trkpt>
      <trkpt lat="48.69647" lon="2.05631">
        <ele>153.6</ele>
        <time>2026-05-24T08:53:35Z</time>
      </trkpt>
      <trkpt lat="48.69643" lon="2.05631">
        <ele>153</ele>
        <time>2026-05-24T08:53:36Z</time>
      </trkpt>
      <trkpt lat="48.69641" lon="2.0563">
        <ele>153.6</ele>
        <time>2026-05-24T08:53:37Z</time>
      </trkpt>
      <trkpt lat="48.69637" lon="2.05628">
        <ele>153.6</ele>
        <time>2026-05-24T08:53:38Z</time>
      </trkpt>
      <trkpt lat="48.69634" lon="2.05626">
        <ele>153.6</ele>
        <time>2026-05-24T08:53:39Z</time>
      </trkpt>
      <trkpt lat="48.69631" lon="2.05623">
        <ele>153.6</ele>
        <time>2026-05-24T08:53:40Z</time>
      </trkpt>
      <trkpt lat="48.69628" lon="2.0562">
        <ele>153.8</ele>
        <time>2026-05-24T08:53:41Z</time>
      </trkpt>
      <trkpt lat="48.69624" lon="2.05617">
        <ele>153.8</ele>
        <time>2026-05-24T08:53:42Z</time>
      </trkpt>
      <trkpt lat="48.69622" lon="2.05615">
        <ele>153.8</ele>
        <time>2026-05-24T08:53:43Z</time>
      </trkpt>
      <trkpt lat="48.69619" lon="2.05616">
        <ele>153.8</ele>
        <time>2026-05-24T08:53:44Z</time>
      </trkpt>
      <trkpt lat="48.69615" lon="2.05617">
        <ele>154</ele>
        <time>2026-05-24T08:53:45Z</time>
      </trkpt>
      <trkpt lat="48.69612" lon="2.05615">
        <ele>154</ele>
        <time>2026-05-24T08:53:46Z</time>
      </trkpt>
      <trkpt lat="48.6961" lon="2.05614">
        <ele>154</ele>
        <time>2026-05-24T08:53:47Z</time>
      </trkpt>
      <trkpt lat="48.69609" lon="2.05612">
        <ele>154</ele>
        <time>2026-05-24T08:53:48Z</time>
      </trkpt>
      <trkpt lat="48.69607" lon="2.05608">
        <ele>154.6</ele>
        <time>2026-05-24T08:53:49Z</time>
      </trkpt>
      <trkpt lat="48.69606" lon="2.05606">
        <ele>154.6</ele>
        <time>2026-05-24T08:53:50Z</time>
      </trkpt>
      <trkpt lat="48.69604" lon="2.05602">
        <ele>154.6</ele>
        <time>2026-05-24T08:53:51Z</time>
      </trkpt>
      <trkpt lat="48.69601" lon="2.05601">
        <ele>154.6</ele>
        <time>2026-05-24T08:53:52Z</time>
      </trkpt>
      <trkpt lat="48.69598" lon="2.05598">
        <ele>154.2</ele>
        <time>2026-05-24T08:53:53Z</time>
      </trkpt>
      <trkpt lat="48.69594" lon="2.05596">
        <ele>154.2</ele>
        <time>2026-05-24T08:53:54Z</time>
      </trkpt>
      <trkpt lat="48.69591" lon="2.05594">
        <ele>154.2</ele>
        <time>2026-05-24T08:53:55Z</time>
      </trkpt>
      <trkpt lat="48.69587" lon="2.05592">
        <ele>155.2</ele>
        <time>2026-05-24T08:53:56Z</time>
      </trkpt>
      <trkpt lat="48.69584" lon="2.05591">
        <ele>155</ele>
        <time>2026-05-24T08:53:57Z</time>
      </trkpt>
      <trkpt lat="48.69581" lon="2.0559">
        <ele>155</ele>
        <time>2026-05-24T08:53:58Z</time>
      </trkpt>
      <trkpt lat="48.69577" lon="2.05588">
        <ele>155</ele>
        <time>2026-05-24T08:53:59Z</time>
      </trkpt>
      <trkpt lat="48.69574" lon="2.05585">
        <ele>155</ele>
        <time>2026-05-24T08:54:00Z</time>
      </trkpt>
      <trkpt lat="48.69571" lon="2.05583">
        <ele>155</ele>
        <time>2026-05-24T08:54:01Z</time>
      </trkpt>
      <trkpt lat="48.69569" lon="2.05582">
        <ele>155</ele>
        <time>2026-05-24T08:54:02Z</time>
      </trkpt>
      <trkpt lat="48.69566" lon="2.05581">
        <ele>155</ele>
        <time>2026-05-24T08:54:03Z</time>
      </trkpt>
      <trkpt lat="48.69562" lon="2.0558">
        <ele>155</ele>
        <time>2026-05-24T08:54:04Z</time>
      </trkpt>
      <trkpt lat="48.69557" lon="2.05576">
        <ele>155.2</ele>
        <time>2026-05-24T08:54:05Z</time>
      </trkpt>
      <trkpt lat="48.69553" lon="2.05574">
        <ele>155.2</ele>
        <time>2026-05-24T08:54:06Z</time>
      </trkpt>
      <trkpt lat="48.6955" lon="2.05571">
        <ele>155.2</ele>
        <time>2026-05-24T08:54:07Z</time>
      </trkpt>
      <trkpt lat="48.69546" lon="2.0557">
        <ele>155.2</ele>
        <time>2026-05-24T08:54:08Z</time>
      </trkpt>
      <trkpt lat="48.69543" lon="2.05567">
        <ele>156</ele>
        <time>2026-05-24T08:54:09Z</time>
      </trkpt>
      <trkpt lat="48.6954" lon="2.05565">
        <ele>156</ele>
        <time>2026-05-24T08:54:10Z</time>
      </trkpt>
      <trkpt lat="48.69537" lon="2.05564">
        <ele>156</ele>
        <time>2026-05-24T08:54:11Z</time>
      </trkpt>
      <trkpt lat="48.69534" lon="2.05563">
        <ele>155.8</ele>
        <time>2026-05-24T08:54:12Z</time>
      </trkpt>
      <trkpt lat="48.69531" lon="2.05564">
        <ele>156</ele>
        <time>2026-05-24T08:54:13Z</time>
      </trkpt>
      <trkpt lat="48.69527" lon="2.05562">
        <ele>156</ele>
        <time>2026-05-24T08:54:14Z</time>
      </trkpt>
      <trkpt lat="48.69525" lon="2.05562">
        <ele>156</ele>
        <time>2026-05-24T08:54:15Z</time>
      </trkpt>
      <trkpt lat="48.69523" lon="2.05564">
        <ele>156</ele>
        <time>2026-05-24T08:54:16Z</time>
      </trkpt>
      <trkpt lat="48.69521" lon="2.0557">
        <ele>154.8</ele>
        <time>2026-05-24T08:54:17Z</time>
      </trkpt>
      <trkpt lat="48.69518" lon="2.05576">
        <ele>154.8</ele>
        <time>2026-05-24T08:54:18Z</time>
      </trkpt>
      <trkpt lat="48.69515" lon="2.05578">
        <ele>154.8</ele>
        <time>2026-05-24T08:54:19Z</time>
      </trkpt>
      <trkpt lat="48.69511" lon="2.05577">
        <ele>153.8</ele>
        <time>2026-05-24T08:54:20Z</time>
      </trkpt>
      <trkpt lat="48.69507" lon="2.05578">
        <ele>153.6</ele>
        <time>2026-05-24T08:54:21Z</time>
      </trkpt>
      <trkpt lat="48.69504" lon="2.05579">
        <ele>153.6</ele>
        <time>2026-05-24T08:54:22Z</time>
      </trkpt>
      <trkpt lat="48.695" lon="2.05579">
        <ele>153.6</ele>
        <time>2026-05-24T08:54:23Z</time>
      </trkpt>
      <trkpt lat="48.69498" lon="2.05581">
        <ele>153.6</ele>
        <time>2026-05-24T08:54:24Z</time>
      </trkpt>
      <trkpt lat="48.69495" lon="2.05583">
        <ele>152.8</ele>
        <time>2026-05-24T08:54:25Z</time>
      </trkpt>
      <trkpt lat="48.69491" lon="2.05586">
        <ele>152.8</ele>
        <time>2026-05-24T08:54:26Z</time>
      </trkpt>
      <trkpt lat="48.69486" lon="2.05589">
        <ele>152.8</ele>
        <time>2026-05-24T08:54:27Z</time>
      </trkpt>
      <trkpt lat="48.69483" lon="2.05591">
        <ele>152.8</ele>
        <time>2026-05-24T08:54:28Z</time>
      </trkpt>
      <trkpt lat="48.69479" lon="2.05595">
        <ele>151</ele>
        <time>2026-05-24T08:54:29Z</time>
      </trkpt>
      <trkpt lat="48.69474" lon="2.05601">
        <ele>151</ele>
        <time>2026-05-24T08:54:30Z</time>
      </trkpt>
      <trkpt lat="48.69469" lon="2.05605">
        <ele>151</ele>
        <time>2026-05-24T08:54:31Z</time>
      </trkpt>
      <trkpt lat="48.69467" lon="2.0561">
        <ele>150</ele>
        <time>2026-05-24T08:54:32Z</time>
      </trkpt>
      <trkpt lat="48.69466" lon="2.05616">
        <ele>149.2</ele>
        <time>2026-05-24T08:54:33Z</time>
      </trkpt>
      <trkpt lat="48.69464" lon="2.05621">
        <ele>149.2</ele>
        <time>2026-05-24T08:54:34Z</time>
      </trkpt>
      <trkpt lat="48.69464" lon="2.05624">
        <ele>149.2</ele>
        <time>2026-05-24T08:54:35Z</time>
      </trkpt>
      <trkpt lat="48.69465" lon="2.05629">
        <ele>148.2</ele>
        <time>2026-05-24T08:54:36Z</time>
      </trkpt>
      <trkpt lat="48.69465" lon="2.05634">
        <ele>144</ele>
        <time>2026-05-24T08:54:37Z</time>
      </trkpt>
      <trkpt lat="48.69467" lon="2.05639">
        <ele>144</ele>
        <time>2026-05-24T08:54:38Z</time>
      </trkpt>
      <trkpt lat="48.69469" lon="2.05644">
        <ele>144</ele>
        <time>2026-05-24T08:54:39Z</time>
      </trkpt>
      <trkpt lat="48.69472" lon="2.05648">
        <ele>144</ele>
        <time>2026-05-24T08:54:40Z</time>
      </trkpt>
      <trkpt lat="48.69474" lon="2.05651">
        <ele>141.2</ele>
        <time>2026-05-24T08:54:41Z</time>
      </trkpt>
      <trkpt lat="48.69477" lon="2.05654">
        <ele>141.2</ele>
        <time>2026-05-24T08:54:42Z</time>
      </trkpt>
      <trkpt lat="48.69478" lon="2.05658">
        <ele>141.2</ele>
        <time>2026-05-24T08:54:43Z</time>
      </trkpt>
      <trkpt lat="48.6948" lon="2.0566">
        <ele>141.2</ele>
        <time>2026-05-24T08:54:44Z</time>
      </trkpt>
      <trkpt lat="48.69482" lon="2.05663">
        <ele>138.8</ele>
        <time>2026-05-24T08:54:45Z</time>
      </trkpt>
      <trkpt lat="48.69484" lon="2.05665">
        <ele>138.8</ele>
        <time>2026-05-24T08:54:46Z</time>
      </trkpt>
      <trkpt lat="48.69485" lon="2.05668">
        <ele>138.8</ele>
        <time>2026-05-24T08:54:47Z</time>
      </trkpt>
      <trkpt lat="48.69487" lon="2.05671">
        <ele>137.8</ele>
        <time>2026-05-24T08:54:48Z</time>
      </trkpt>
      <trkpt lat="48.69488" lon="2.05675">
        <ele>135.4</ele>
        <time>2026-05-24T08:54:49Z</time>
      </trkpt>
      <trkpt lat="48.69489" lon="2.05679">
        <ele>135.4</ele>
        <time>2026-05-24T08:54:50Z</time>
      </trkpt>
      <trkpt lat="48.6949" lon="2.05683">
        <ele>135.4</ele>
        <time>2026-05-24T08:54:51Z</time>
      </trkpt>
      <trkpt lat="48.69491" lon="2.05686">
        <ele>134.4</ele>
        <time>2026-05-24T08:54:52Z</time>
      </trkpt>
      <trkpt lat="48.69493" lon="2.05688">
        <ele>134</ele>
        <time>2026-05-24T08:54:53Z</time>
      </trkpt>
      <trkpt lat="48.69492" lon="2.05691">
        <ele>134</ele>
        <time>2026-05-24T08:54:54Z</time>
      </trkpt>
      <trkpt lat="48.69492" lon="2.05695">
        <ele>134</ele>
        <time>2026-05-24T08:54:55Z</time>
      </trkpt>
      <trkpt lat="48.69492" lon="2.05699">
        <ele>133</ele>
        <time>2026-05-24T08:54:56Z</time>
      </trkpt>
      <trkpt lat="48.69493" lon="2.05703">
        <ele>130.2</ele>
        <time>2026-05-24T08:54:57Z</time>
      </trkpt>
      <trkpt lat="48.69493" lon="2.05708">
        <ele>130.2</ele>
        <time>2026-05-24T08:54:58Z</time>
      </trkpt>
      <trkpt lat="48.69494" lon="2.05711">
        <ele>130.2</ele>
        <time>2026-05-24T08:54:59Z</time>
      </trkpt>
      <trkpt lat="48.69495" lon="2.05716">
        <ele>129.2</ele>
        <time>2026-05-24T08:55:00Z</time>
      </trkpt>
      <trkpt lat="48.69496" lon="2.0572">
        <ele>127.4</ele>
        <time>2026-05-24T08:55:01Z</time>
      </trkpt>
      <trkpt lat="48.69497" lon="2.05727">
        <ele>127.4</ele>
        <time>2026-05-24T08:55:02Z</time>
      </trkpt>
      <trkpt lat="48.69497" lon="2.05731">
        <ele>127.4</ele>
        <time>2026-05-24T08:55:03Z</time>
      </trkpt>
      <trkpt lat="48.69497" lon="2.05734">
        <ele>126.4</ele>
        <time>2026-05-24T08:55:04Z</time>
      </trkpt>
      <trkpt lat="48.69498" lon="2.05737">
        <ele>125</ele>
        <time>2026-05-24T08:55:05Z</time>
      </trkpt>
      <trkpt lat="48.69498" lon="2.0574">
        <ele>125</ele>
        <time>2026-05-24T08:55:06Z</time>
      </trkpt>
      <trkpt lat="48.69499" lon="2.05746">
        <ele>125</ele>
        <time>2026-05-24T08:55:07Z</time>
      </trkpt>
      <trkpt lat="48.69499" lon="2.0575">
        <ele>125</ele>
        <time>2026-05-24T08:55:08Z</time>
      </trkpt>
      <trkpt lat="48.69499" lon="2.05755">
        <ele>122.6</ele>
        <time>2026-05-24T08:55:09Z</time>
      </trkpt>
      <trkpt lat="48.69499" lon="2.05759">
        <ele>122.6</ele>
        <time>2026-05-24T08:55:10Z</time>
      </trkpt>
      <trkpt lat="48.695" lon="2.05763">
        <ele>122.6</ele>
        <time>2026-05-24T08:55:11Z</time>
      </trkpt>
      <trkpt lat="48.69499" lon="2.05767">
        <ele>121.6</ele>
        <time>2026-05-24T08:55:12Z</time>
      </trkpt>
      <trkpt lat="48.69499" lon="2.0577">
        <ele>120.4</ele>
        <time>2026-05-24T08:55:13Z</time>
      </trkpt>
      <trkpt lat="48.69499" lon="2.05774">
        <ele>120.4</ele>
        <time>2026-05-24T08:55:14Z</time>
      </trkpt>
      <trkpt lat="48.69499" lon="2.05779">
        <ele>120.4</ele>
        <time>2026-05-24T08:55:15Z</time>
      </trkpt>
      <trkpt lat="48.69498" lon="2.05784">
        <ele>120.4</ele>
        <time>2026-05-24T08:55:16Z</time>
      </trkpt>
      <trkpt lat="48.69498" lon="2.05787">
        <ele>118.8</ele>
        <time>2026-05-24T08:55:17Z</time>
      </trkpt>
      <trkpt lat="48.69498" lon="2.0579">
        <ele>118.8</ele>
        <time>2026-05-24T08:55:18Z</time>
      </trkpt>
      <trkpt lat="48.69497" lon="2.05793">
        <ele>118.8</ele>
        <time>2026-05-24T08:55:19Z</time>
      </trkpt>
      <trkpt lat="48.69496" lon="2.05796">
        <ele>118.8</ele>
        <time>2026-05-24T08:55:20Z</time>
      </trkpt>
      <trkpt lat="48.69496" lon="2.05798">
        <ele>118</ele>
        <time>2026-05-24T08:55:21Z</time>
      </trkpt>
      <trkpt lat="48.69496" lon="2.05802">
        <ele>118</ele>
        <time>2026-05-24T08:55:22Z</time>
      </trkpt>
      <trkpt lat="48.69495" lon="2.05805">
        <ele>118</ele>
        <time>2026-05-24T08:55:23Z</time>
      </trkpt>
      <trkpt lat="48.69495" lon="2.05809">
        <ele>118</ele>
        <time>2026-05-24T08:55:24Z</time>
      </trkpt>
      <trkpt lat="48.69497" lon="2.05813">
        <ele>117.4</ele>
        <time>2026-05-24T08:55:25Z</time>
      </trkpt>
      <trkpt lat="48.69497" lon="2.05815">
        <ele>117.4</ele>
        <time>2026-05-24T08:55:26Z</time>
      </trkpt>
      <trkpt lat="48.69496" lon="2.05818">
        <ele>117.4</ele>
        <time>2026-05-24T08:55:27Z</time>
      </trkpt>
      <trkpt lat="48.69496" lon="2.05821">
        <ele>117.4</ele>
        <time>2026-05-24T08:55:28Z</time>
      </trkpt>
      <trkpt lat="48.69495" lon="2.05825">
        <ele>115.6</ele>
        <time>2026-05-24T08:55:29Z</time>
      </trkpt>
      <trkpt lat="48.69496" lon="2.05829">
        <ele>115.6</ele>
        <time>2026-05-24T08:55:30Z</time>
      </trkpt>
      <trkpt lat="48.69496" lon="2.05834">
        <ele>115.6</ele>
        <time>2026-05-24T08:55:31Z</time>
      </trkpt>
      <trkpt lat="48.69497" lon="2.05838">
        <ele>115.6</ele>
        <time>2026-05-24T08:55:32Z</time>
      </trkpt>
      <trkpt lat="48.69497" lon="2.05844">
        <ele>115</ele>
        <time>2026-05-24T08:55:33Z</time>
      </trkpt>
      <trkpt lat="48.69497" lon="2.0585">
        <ele>115</ele>
        <time>2026-05-24T08:55:34Z</time>
      </trkpt>
      <trkpt lat="48.69497" lon="2.05856">
        <ele>115</ele>
        <time>2026-05-24T08:55:35Z</time>
      </trkpt>
      <trkpt lat="48.69497" lon="2.05864">
        <ele>115</ele>
        <time>2026-05-24T08:55:36Z</time>
      </trkpt>
      <trkpt lat="48.69497" lon="2.05872">
        <ele>114</ele>
        <time>2026-05-24T08:55:37Z</time>
      </trkpt>
      <trkpt lat="48.69497" lon="2.0588">
        <ele>114</ele>
        <time>2026-05-24T08:55:38Z</time>
      </trkpt>
      <trkpt lat="48.69499" lon="2.05887">
        <ele>114</ele>
        <time>2026-05-24T08:55:39Z</time>
      </trkpt>
      <trkpt lat="48.69501" lon="2.05891">
        <ele>114</ele>
        <time>2026-05-24T08:55:40Z</time>
      </trkpt>
      <trkpt lat="48.69503" lon="2.05896">
        <ele>114</ele>
        <time>2026-05-24T08:55:41Z</time>
      </trkpt>
      <trkpt lat="48.69505" lon="2.05897">
        <ele>114</ele>
        <time>2026-05-24T08:55:42Z</time>
      </trkpt>
      <trkpt lat="48.69507" lon="2.05899">
        <ele>114</ele>
        <time>2026-05-24T08:55:43Z</time>
      </trkpt>
      <trkpt lat="48.69509" lon="2.059">
        <ele>114</ele>
        <time>2026-05-24T08:55:44Z</time>
      </trkpt>
      <trkpt lat="48.69512" lon="2.059">
        <ele>113.6</ele>
        <time>2026-05-24T08:55:45Z</time>
      </trkpt>
      <trkpt lat="48.69516" lon="2.059">
        <ele>113.6</ele>
        <time>2026-05-24T08:55:46Z</time>
      </trkpt>
      <trkpt lat="48.6952" lon="2.059">
        <ele>113.6</ele>
        <time>2026-05-24T08:55:47Z</time>
      </trkpt>
      <trkpt lat="48.69524" lon="2.05899">
        <ele>113.6</ele>
        <time>2026-05-24T08:55:48Z</time>
      </trkpt>
      <trkpt lat="48.69528" lon="2.059">
        <ele>113.2</ele>
        <time>2026-05-24T08:55:49Z</time>
      </trkpt>
      <trkpt lat="48.69532" lon="2.059">
        <ele>113.2</ele>
        <time>2026-05-24T08:55:50Z</time>
      </trkpt>
      <trkpt lat="48.69536" lon="2.059">
        <ele>113.2</ele>
        <time>2026-05-24T08:55:51Z</time>
      </trkpt>
      <trkpt lat="48.69541" lon="2.059">
        <ele>113.2</ele>
        <time>2026-05-24T08:55:52Z</time>
      </trkpt>
      <trkpt lat="48.69545" lon="2.059">
        <ele>112.8</ele>
        <time>2026-05-24T08:55:53Z</time>
      </trkpt>
      <trkpt lat="48.6955" lon="2.059">
        <ele>112.8</ele>
        <time>2026-05-24T08:55:54Z</time>
      </trkpt>
      <trkpt lat="48.69554" lon="2.059">
        <ele>112.8</ele>
        <time>2026-05-24T08:55:55Z</time>
      </trkpt>
      <trkpt lat="48.69558" lon="2.05901">
        <ele>112.8</ele>
        <time>2026-05-24T08:55:56Z</time>
      </trkpt>
      <trkpt lat="48.69563" lon="2.05901">
        <ele>112.2</ele>
        <time>2026-05-24T08:55:57Z</time>
      </trkpt>
      <trkpt lat="48.69566" lon="2.059">
        <ele>112.2</ele>
        <time>2026-05-24T08:55:58Z</time>
      </trkpt>
      <trkpt lat="48.69569" lon="2.05901">
        <ele>112.2</ele>
        <time>2026-05-24T08:55:59Z</time>
      </trkpt>
      <trkpt lat="48.69573" lon="2.05902">
        <ele>112.2</ele>
        <time>2026-05-24T08:56:00Z</time>
      </trkpt>
      <trkpt lat="48.69578" lon="2.05903">
        <ele>112.2</ele>
        <time>2026-05-24T08:56:01Z</time>
      </trkpt>
      <trkpt lat="48.69583" lon="2.05905">
        <ele>112.2</ele>
        <time>2026-05-24T08:56:02Z</time>
      </trkpt>
      <trkpt lat="48.69587" lon="2.05907">
        <ele>112.2</ele>
        <time>2026-05-24T08:56:03Z</time>
      </trkpt>
      <trkpt lat="48.69593" lon="2.0591">
        <ele>112.2</ele>
        <time>2026-05-24T08:56:04Z</time>
      </trkpt>
      <trkpt lat="48.69598" lon="2.05912">
        <ele>111.4</ele>
        <time>2026-05-24T08:56:05Z</time>
      </trkpt>
      <trkpt lat="48.69603" lon="2.05914">
        <ele>111.4</ele>
        <time>2026-05-24T08:56:06Z</time>
      </trkpt>
      <trkpt lat="48.69607" lon="2.05915">
        <ele>111.4</ele>
        <time>2026-05-24T08:56:07Z</time>
      </trkpt>
      <trkpt lat="48.69611" lon="2.05917">
        <ele>111.4</ele>
        <time>2026-05-24T08:56:08Z</time>
      </trkpt>
      <trkpt lat="48.69615" lon="2.05917">
        <ele>110.6</ele>
        <time>2026-05-24T08:56:09Z</time>
      </trkpt>
      <trkpt lat="48.6962" lon="2.05917">
        <ele>110.6</ele>
        <time>2026-05-24T08:56:10Z</time>
      </trkpt>
      <trkpt lat="48.69625" lon="2.05919">
        <ele>110.6</ele>
        <time>2026-05-24T08:56:11Z</time>
      </trkpt>
      <trkpt lat="48.69631" lon="2.0592">
        <ele>110.6</ele>
        <time>2026-05-24T08:56:12Z</time>
      </trkpt>
      <trkpt lat="48.69637" lon="2.05924">
        <ele>110.6</ele>
        <time>2026-05-24T08:56:13Z</time>
      </trkpt>
      <trkpt lat="48.69643" lon="2.05926">
        <ele>110.6</ele>
        <time>2026-05-24T08:56:14Z</time>
      </trkpt>
      <trkpt lat="48.69648" lon="2.05928">
        <ele>110.6</ele>
        <time>2026-05-24T08:56:15Z</time>
      </trkpt>
      <trkpt lat="48.69653" lon="2.0593">
        <ele>110.6</ele>
        <time>2026-05-24T08:56:16Z</time>
      </trkpt>
      <trkpt lat="48.69659" lon="2.05931">
        <ele>109.4</ele>
        <time>2026-05-24T08:56:17Z</time>
      </trkpt>
      <trkpt lat="48.69665" lon="2.05932">
        <ele>109.4</ele>
        <time>2026-05-24T08:56:18Z</time>
      </trkpt>
      <trkpt lat="48.69671" lon="2.05934">
        <ele>109.4</ele>
        <time>2026-05-24T08:56:19Z</time>
      </trkpt>
      <trkpt lat="48.69677" lon="2.05936">
        <ele>109.4</ele>
        <time>2026-05-24T08:56:20Z</time>
      </trkpt>
      <trkpt lat="48.69681" lon="2.05938">
        <ele>109</ele>
        <time>2026-05-24T08:56:21Z</time>
      </trkpt>
      <trkpt lat="48.69686" lon="2.0594">
        <ele>109</ele>
        <time>2026-05-24T08:56:22Z</time>
      </trkpt>
      <trkpt lat="48.6969" lon="2.05941">
        <ele>109</ele>
        <time>2026-05-24T08:56:23Z</time>
      </trkpt>
      <trkpt lat="48.69695" lon="2.05943">
        <ele>109.4</ele>
        <time>2026-05-24T08:56:24Z</time>
      </trkpt>
      <trkpt lat="48.69701" lon="2.05945">
        <ele>109.6</ele>
        <time>2026-05-24T08:56:25Z</time>
      </trkpt>
      <trkpt lat="48.69706" lon="2.05946">
        <ele>109.6</ele>
        <time>2026-05-24T08:56:26Z</time>
      </trkpt>
      <trkpt lat="48.6971" lon="2.05948">
        <ele>109.6</ele>
        <time>2026-05-24T08:56:27Z</time>
      </trkpt>
      <trkpt lat="48.69715" lon="2.0595">
        <ele>108.8</ele>
        <time>2026-05-24T08:56:28Z</time>
      </trkpt>
      <trkpt lat="48.6972" lon="2.05951">
        <ele>108.2</ele>
        <time>2026-05-24T08:56:29Z</time>
      </trkpt>
      <trkpt lat="48.69725" lon="2.05952">
        <ele>108.2</ele>
        <time>2026-05-24T08:56:30Z</time>
      </trkpt>
      <trkpt lat="48.69731" lon="2.05955">
        <ele>108.2</ele>
        <time>2026-05-24T08:56:31Z</time>
      </trkpt>
      <trkpt lat="48.69735" lon="2.05958">
        <ele>108.2</ele>
        <time>2026-05-24T08:56:32Z</time>
      </trkpt>
      <trkpt lat="48.69739" lon="2.05959">
        <ele>107.8</ele>
        <time>2026-05-24T08:56:33Z</time>
      </trkpt>
      <trkpt lat="48.69743" lon="2.05961">
        <ele>107.8</ele>
        <time>2026-05-24T08:56:34Z</time>
      </trkpt>
      <trkpt lat="48.69748" lon="2.05964">
        <ele>107.8</ele>
        <time>2026-05-24T08:56:35Z</time>
      </trkpt>
      <trkpt lat="48.69751" lon="2.05966">
        <ele>107.8</ele>
        <time>2026-05-24T08:56:36Z</time>
      </trkpt>
      <trkpt lat="48.69756" lon="2.05967">
        <ele>107.6</ele>
        <time>2026-05-24T08:56:37Z</time>
      </trkpt>
      <trkpt lat="48.69759" lon="2.05968">
        <ele>107.6</ele>
        <time>2026-05-24T08:56:38Z</time>
      </trkpt>
      <trkpt lat="48.69763" lon="2.05972">
        <ele>107.6</ele>
        <time>2026-05-24T08:56:39Z</time>
      </trkpt>
      <trkpt lat="48.69767" lon="2.05975">
        <ele>106.6</ele>
        <time>2026-05-24T08:56:40Z</time>
      </trkpt>
      <trkpt lat="48.69771" lon="2.05978">
        <ele>107</ele>
        <time>2026-05-24T08:56:41Z</time>
      </trkpt>
      <trkpt lat="48.69775" lon="2.05979">
        <ele>107</ele>
        <time>2026-05-24T08:56:42Z</time>
      </trkpt>
      <trkpt lat="48.6978" lon="2.05982">
        <ele>107</ele>
        <time>2026-05-24T08:56:43Z</time>
      </trkpt>
      <trkpt lat="48.69784" lon="2.05984">
        <ele>107</ele>
        <time>2026-05-24T08:56:44Z</time>
      </trkpt>
      <trkpt lat="48.69788" lon="2.05987">
        <ele>106.6</ele>
        <time>2026-05-24T08:56:45Z</time>
      </trkpt>
      <trkpt lat="48.69792" lon="2.0599">
        <ele>106.6</ele>
        <time>2026-05-24T08:56:46Z</time>
      </trkpt>
      <trkpt lat="48.69796" lon="2.05993">
        <ele>106.6</ele>
        <time>2026-05-24T08:56:47Z</time>
      </trkpt>
      <trkpt lat="48.69799" lon="2.05996">
        <ele>106.6</ele>
        <time>2026-05-24T08:56:48Z</time>
      </trkpt>
      <trkpt lat="48.69802" lon="2.05999">
        <ele>106.6</ele>
        <time>2026-05-24T08:56:49Z</time>
      </trkpt>
      <trkpt lat="48.69806" lon="2.06001">
        <ele>106.6</ele>
        <time>2026-05-24T08:56:50Z</time>
      </trkpt>
      <trkpt lat="48.6981" lon="2.06003">
        <ele>106.6</ele>
        <time>2026-05-24T08:56:51Z</time>
      </trkpt>
      <trkpt lat="48.69814" lon="2.06007">
        <ele>106.6</ele>
        <time>2026-05-24T08:56:52Z</time>
      </trkpt>
      <trkpt lat="48.69818" lon="2.06009">
        <ele>104.4</ele>
        <time>2026-05-24T08:56:53Z</time>
      </trkpt>
      <trkpt lat="48.69821" lon="2.06012">
        <ele>104.4</ele>
        <time>2026-05-24T08:56:54Z</time>
      </trkpt>
      <trkpt lat="48.69824" lon="2.06015">
        <ele>104.4</ele>
        <time>2026-05-24T08:56:55Z</time>
      </trkpt>
      <trkpt lat="48.69828" lon="2.06018">
        <ele>105.4</ele>
        <time>2026-05-24T08:56:56Z</time>
      </trkpt>
      <trkpt lat="48.69832" lon="2.06021">
        <ele>105.2</ele>
        <time>2026-05-24T08:56:57Z</time>
      </trkpt>
      <trkpt lat="48.69836" lon="2.06024">
        <ele>105.2</ele>
        <time>2026-05-24T08:56:58Z</time>
      </trkpt>
      <trkpt lat="48.69841" lon="2.06028">
        <ele>105.2</ele>
        <time>2026-05-24T08:56:59Z</time>
      </trkpt>
      <trkpt lat="48.69848" lon="2.06031">
        <ele>104.6</ele>
        <time>2026-05-24T08:57:00Z</time>
      </trkpt>
      <trkpt lat="48.69853" lon="2.06035">
        <ele>105.4</ele>
        <time>2026-05-24T08:57:01Z</time>
      </trkpt>
      <trkpt lat="48.69857" lon="2.0604">
        <ele>105.4</ele>
        <time>2026-05-24T08:57:02Z</time>
      </trkpt>
      <trkpt lat="48.69862" lon="2.06043">
        <ele>105.4</ele>
        <time>2026-05-24T08:57:03Z</time>
      </trkpt>
      <trkpt lat="48.69866" lon="2.06045">
        <ele>104.4</ele>
        <time>2026-05-24T08:57:04Z</time>
      </trkpt>
      <trkpt lat="48.69871" lon="2.06048">
        <ele>104.2</ele>
        <time>2026-05-24T08:57:05Z</time>
      </trkpt>
      <trkpt lat="48.69876" lon="2.06051">
        <ele>104.2</ele>
        <time>2026-05-24T08:57:06Z</time>
      </trkpt>
      <trkpt lat="48.6988" lon="2.06054">
        <ele>104.2</ele>
        <time>2026-05-24T08:57:07Z</time>
      </trkpt>
      <trkpt lat="48.69884" lon="2.06058">
        <ele>104.2</ele>
        <time>2026-05-24T08:57:08Z</time>
      </trkpt>
      <trkpt lat="48.69888" lon="2.06062">
        <ele>104.6</ele>
        <time>2026-05-24T08:57:09Z</time>
      </trkpt>
      <trkpt lat="48.69892" lon="2.06065">
        <ele>104.6</ele>
        <time>2026-05-24T08:57:10Z</time>
      </trkpt>
      <trkpt lat="48.69896" lon="2.0607">
        <ele>104.6</ele>
        <time>2026-05-24T08:57:11Z</time>
      </trkpt>
      <trkpt lat="48.699" lon="2.06073">
        <ele>104.6</ele>
        <time>2026-05-24T08:57:12Z</time>
      </trkpt>
      <trkpt lat="48.69905" lon="2.06077">
        <ele>104</ele>
        <time>2026-05-24T08:57:13Z</time>
      </trkpt>
      <trkpt lat="48.69909" lon="2.06081">
        <ele>104</ele>
        <time>2026-05-24T08:57:14Z</time>
      </trkpt>
      <trkpt lat="48.69913" lon="2.06084">
        <ele>104</ele>
        <time>2026-05-24T08:57:15Z</time>
      </trkpt>
      <trkpt lat="48.69917" lon="2.06088">
        <ele>103.6</ele>
        <time>2026-05-24T08:57:16Z</time>
      </trkpt>
      <trkpt lat="48.69922" lon="2.06091">
        <ele>104.2</ele>
        <time>2026-05-24T08:57:17Z</time>
      </trkpt>
      <trkpt lat="48.69926" lon="2.06096">
        <ele>104.2</ele>
        <time>2026-05-24T08:57:18Z</time>
      </trkpt>
      <trkpt lat="48.69931" lon="2.061">
        <ele>104.2</ele>
        <time>2026-05-24T08:57:19Z</time>
      </trkpt>
      <trkpt lat="48.69936" lon="2.06102">
        <ele>104.2</ele>
        <time>2026-05-24T08:57:20Z</time>
      </trkpt>
      <trkpt lat="48.6994" lon="2.06105">
        <ele>102.4</ele>
        <time>2026-05-24T08:57:21Z</time>
      </trkpt>
      <trkpt lat="48.69943" lon="2.06107">
        <ele>102.4</ele>
        <time>2026-05-24T08:57:22Z</time>
      </trkpt>
      <trkpt lat="48.69946" lon="2.0611">
        <ele>102.4</ele>
        <time>2026-05-24T08:57:23Z</time>
      </trkpt>
      <trkpt lat="48.69949" lon="2.06114">
        <ele>102.4</ele>
        <time>2026-05-24T08:57:24Z</time>
      </trkpt>
      <trkpt lat="48.69953" lon="2.06118">
        <ele>103</ele>
        <time>2026-05-24T08:57:25Z</time>
      </trkpt>
      <trkpt lat="48.69956" lon="2.06122">
        <ele>103</ele>
        <time>2026-05-24T08:57:26Z</time>
      </trkpt>
      <trkpt lat="48.6996" lon="2.06125">
        <ele>103</ele>
        <time>2026-05-24T08:57:27Z</time>
      </trkpt>
      <trkpt lat="48.69963" lon="2.06129">
        <ele>103</ele>
        <time>2026-05-24T08:57:28Z</time>
      </trkpt>
      <trkpt lat="48.69967" lon="2.06132">
        <ele>102</ele>
        <time>2026-05-24T08:57:29Z</time>
      </trkpt>
      <trkpt lat="48.69971" lon="2.06136">
        <ele>102</ele>
        <time>2026-05-24T08:57:30Z</time>
      </trkpt>
      <trkpt lat="48.69974" lon="2.0614">
        <ele>102</ele>
        <time>2026-05-24T08:57:31Z</time>
      </trkpt>
      <trkpt lat="48.69977" lon="2.06144">
        <ele>102.8</ele>
        <time>2026-05-24T08:57:32Z</time>
      </trkpt>
      <trkpt lat="48.69981" lon="2.0615">
        <ele>102.4</ele>
        <time>2026-05-24T08:57:33Z</time>
      </trkpt>
      <trkpt lat="48.69984" lon="2.06156">
        <ele>102.4</ele>
        <time>2026-05-24T08:57:34Z</time>
      </trkpt>
      <trkpt lat="48.6999" lon="2.06163">
        <ele>102.4</ele>
        <time>2026-05-24T08:57:35Z</time>
      </trkpt>
      <trkpt lat="48.69994" lon="2.06168">
        <ele>101.4</ele>
        <time>2026-05-24T08:57:36Z</time>
      </trkpt>
      <trkpt lat="48.69997" lon="2.06173">
        <ele>101.4</ele>
        <time>2026-05-24T08:57:37Z</time>
      </trkpt>
      <trkpt lat="48.70002" lon="2.06179">
        <ele>101.4</ele>
        <time>2026-05-24T08:57:38Z</time>
      </trkpt>
      <trkpt lat="48.70006" lon="2.06185">
        <ele>101.4</ele>
        <time>2026-05-24T08:57:39Z</time>
      </trkpt>
      <trkpt lat="48.70011" lon="2.06191">
        <ele>101.4</ele>
        <time>2026-05-24T08:57:40Z</time>
      </trkpt>
      <trkpt lat="48.70016" lon="2.06198">
        <ele>100.4</ele>
        <time>2026-05-24T08:57:41Z</time>
      </trkpt>
      <trkpt lat="48.70021" lon="2.06206">
        <ele>100.4</ele>
        <time>2026-05-24T08:57:42Z</time>
      </trkpt>
      <trkpt lat="48.70026" lon="2.06212">
        <ele>100.4</ele>
        <time>2026-05-24T08:57:43Z</time>
      </trkpt>
      <trkpt lat="48.70031" lon="2.06219">
        <ele>100.8</ele>
        <time>2026-05-24T08:57:44Z</time>
      </trkpt>
      <trkpt lat="48.70035" lon="2.06226">
        <ele>100.6</ele>
        <time>2026-05-24T08:57:45Z</time>
      </trkpt>
      <trkpt lat="48.7004" lon="2.06233">
        <ele>100.6</ele>
        <time>2026-05-24T08:57:46Z</time>
      </trkpt>
      <trkpt lat="48.70044" lon="2.06239">
        <ele>100.6</ele>
        <time>2026-05-24T08:57:47Z</time>
      </trkpt>
      <trkpt lat="48.70049" lon="2.06245">
        <ele>99.8</ele>
        <time>2026-05-24T08:57:48Z</time>
      </trkpt>
      <trkpt lat="48.70053" lon="2.06252">
        <ele>100</ele>
        <time>2026-05-24T08:57:49Z</time>
      </trkpt>
      <trkpt lat="48.70057" lon="2.06259">
        <ele>100</ele>
        <time>2026-05-24T08:57:50Z</time>
      </trkpt>
      <trkpt lat="48.70061" lon="2.06266">
        <ele>100</ele>
        <time>2026-05-24T08:57:51Z</time>
      </trkpt>
      <trkpt lat="48.70065" lon="2.06273">
        <ele>99.2</ele>
        <time>2026-05-24T08:57:52Z</time>
      </trkpt>
      <trkpt lat="48.70069" lon="2.0628">
        <ele>98.6</ele>
        <time>2026-05-24T08:57:53Z</time>
      </trkpt>
      <trkpt lat="48.70074" lon="2.06288">
        <ele>98.6</ele>
        <time>2026-05-24T08:57:54Z</time>
      </trkpt>
      <trkpt lat="48.70078" lon="2.06296">
        <ele>98.6</ele>
        <time>2026-05-24T08:57:55Z</time>
      </trkpt>
      <trkpt lat="48.70082" lon="2.06304">
        <ele>98.6</ele>
        <time>2026-05-24T08:57:56Z</time>
      </trkpt>
      <trkpt lat="48.70086" lon="2.06311">
        <ele>98.2</ele>
        <time>2026-05-24T08:57:57Z</time>
      </trkpt>
      <trkpt lat="48.70089" lon="2.06318">
        <ele>98.2</ele>
        <time>2026-05-24T08:57:58Z</time>
      </trkpt>
      <trkpt lat="48.70093" lon="2.06325">
        <ele>98.2</ele>
        <time>2026-05-24T08:57:59Z</time>
      </trkpt>
      <trkpt lat="48.70097" lon="2.06333">
        <ele>98.2</ele>
        <time>2026-05-24T08:58:00Z</time>
      </trkpt>
      <trkpt lat="48.701" lon="2.0634">
        <ele>98.6</ele>
        <time>2026-05-24T08:58:01Z</time>
      </trkpt>
      <trkpt lat="48.70104" lon="2.06348">
        <ele>98.6</ele>
        <time>2026-05-24T08:58:02Z</time>
      </trkpt>
      <trkpt lat="48.70108" lon="2.06356">
        <ele>98.6</ele>
        <time>2026-05-24T08:58:03Z</time>
      </trkpt>
      <trkpt lat="48.70112" lon="2.06365">
        <ele>97.8</ele>
        <time>2026-05-24T08:58:04Z</time>
      </trkpt>
      <trkpt lat="48.70115" lon="2.06373">
        <ele>97.6</ele>
        <time>2026-05-24T08:58:05Z</time>
      </trkpt>
      <trkpt lat="48.70119" lon="2.06381">
        <ele>97.6</ele>
        <time>2026-05-24T08:58:06Z</time>
      </trkpt>
      <trkpt lat="48.70123" lon="2.06389">
        <ele>97.6</ele>
        <time>2026-05-24T08:58:07Z</time>
      </trkpt>
      <trkpt lat="48.70126" lon="2.06398">
        <ele>97.6</ele>
        <time>2026-05-24T08:58:08Z</time>
      </trkpt>
      <trkpt lat="48.7013" lon="2.06406">
        <ele>97.8</ele>
        <time>2026-05-24T08:58:09Z</time>
      </trkpt>
      <trkpt lat="48.70134" lon="2.06414">
        <ele>97.8</ele>
        <time>2026-05-24T08:58:10Z</time>
      </trkpt>
      <trkpt lat="48.70137" lon="2.06423">
        <ele>97.8</ele>
        <time>2026-05-24T08:58:11Z</time>
      </trkpt>
      <trkpt lat="48.7014" lon="2.06431">
        <ele>97.8</ele>
        <time>2026-05-24T08:58:12Z</time>
      </trkpt>
      <trkpt lat="48.70143" lon="2.0644">
        <ele>97.2</ele>
        <time>2026-05-24T08:58:13Z</time>
      </trkpt>
      <trkpt lat="48.70145" lon="2.06448">
        <ele>97.2</ele>
        <time>2026-05-24T08:58:14Z</time>
      </trkpt>
      <trkpt lat="48.70148" lon="2.06456">
        <ele>97.2</ele>
        <time>2026-05-24T08:58:15Z</time>
      </trkpt>
      <trkpt lat="48.70151" lon="2.06464">
        <ele>97.2</ele>
        <time>2026-05-24T08:58:16Z</time>
      </trkpt>
      <trkpt lat="48.70154" lon="2.06472">
        <ele>96</ele>
        <time>2026-05-24T08:58:17Z</time>
      </trkpt>
      <trkpt lat="48.70157" lon="2.06479">
        <ele>96</ele>
        <time>2026-05-24T08:58:18Z</time>
      </trkpt>
      <trkpt lat="48.70159" lon="2.06486">
        <ele>96</ele>
        <time>2026-05-24T08:58:19Z</time>
      </trkpt>
      <trkpt lat="48.70163" lon="2.06494">
        <ele>96</ele>
        <time>2026-05-24T08:58:20Z</time>
      </trkpt>
      <trkpt lat="48.70166" lon="2.06501">
        <ele>95.4</ele>
        <time>2026-05-24T08:58:21Z</time>
      </trkpt>
      <trkpt lat="48.7017" lon="2.06509">
        <ele>95.4</ele>
        <time>2026-05-24T08:58:22Z</time>
      </trkpt>
      <trkpt lat="48.70173" lon="2.06517">
        <ele>95.4</ele>
        <time>2026-05-24T08:58:23Z</time>
      </trkpt>
      <trkpt lat="48.70175" lon="2.06524">
        <ele>95.4</ele>
        <time>2026-05-24T08:58:24Z</time>
      </trkpt>
      <trkpt lat="48.70179" lon="2.06532">
        <ele>95.6</ele>
        <time>2026-05-24T08:58:25Z</time>
      </trkpt>
      <trkpt lat="48.70181" lon="2.06539">
        <ele>95.6</ele>
        <time>2026-05-24T08:58:26Z</time>
      </trkpt>
      <trkpt lat="48.70184" lon="2.06548">
        <ele>95.6</ele>
        <time>2026-05-24T08:58:27Z</time>
      </trkpt>
      <trkpt lat="48.70187" lon="2.06556">
        <ele>94.6</ele>
        <time>2026-05-24T08:58:28Z</time>
      </trkpt>
      <trkpt lat="48.70189" lon="2.06565">
        <ele>94.4</ele>
        <time>2026-05-24T08:58:29Z</time>
      </trkpt>
      <trkpt lat="48.70192" lon="2.06574">
        <ele>94.4</ele>
        <time>2026-05-24T08:58:30Z</time>
      </trkpt>
      <trkpt lat="48.70195" lon="2.06582">
        <ele>94.4</ele>
        <time>2026-05-24T08:58:31Z</time>
      </trkpt>
      <trkpt lat="48.70197" lon="2.06591">
        <ele>94.4</ele>
        <time>2026-05-24T08:58:32Z</time>
      </trkpt>
      <trkpt lat="48.70199" lon="2.06598">
        <ele>94.2</ele>
        <time>2026-05-24T08:58:33Z</time>
      </trkpt>
      <trkpt lat="48.70202" lon="2.06606">
        <ele>94.2</ele>
        <time>2026-05-24T08:58:34Z</time>
      </trkpt>
      <trkpt lat="48.70204" lon="2.06613">
        <ele>94.2</ele>
        <time>2026-05-24T08:58:35Z</time>
      </trkpt>
      <trkpt lat="48.70206" lon="2.06621">
        <ele>94.2</ele>
        <time>2026-05-24T08:58:36Z</time>
      </trkpt>
      <trkpt lat="48.70208" lon="2.06628">
        <ele>93.6</ele>
        <time>2026-05-24T08:58:37Z</time>
      </trkpt>
      <trkpt lat="48.7021" lon="2.06636">
        <ele>93.6</ele>
        <time>2026-05-24T08:58:38Z</time>
      </trkpt>
      <trkpt lat="48.70212" lon="2.06645">
        <ele>93.6</ele>
        <time>2026-05-24T08:58:39Z</time>
      </trkpt>
      <trkpt lat="48.70214" lon="2.06652">
        <ele>93</ele>
        <time>2026-05-24T08:58:40Z</time>
      </trkpt>
      <trkpt lat="48.70216" lon="2.06659">
        <ele>93</ele>
        <time>2026-05-24T08:58:41Z</time>
      </trkpt>
      <trkpt lat="48.70218" lon="2.06667">
        <ele>93</ele>
        <time>2026-05-24T08:58:42Z</time>
      </trkpt>
      <trkpt lat="48.70219" lon="2.06675">
        <ele>93</ele>
        <time>2026-05-24T08:58:43Z</time>
      </trkpt>
      <trkpt lat="48.70221" lon="2.06685">
        <ele>93</ele>
        <time>2026-05-24T08:58:44Z</time>
      </trkpt>
      <trkpt lat="48.70222" lon="2.06693">
        <ele>92.4</ele>
        <time>2026-05-24T08:58:45Z</time>
      </trkpt>
      <trkpt lat="48.70225" lon="2.06701">
        <ele>92.4</ele>
        <time>2026-05-24T08:58:46Z</time>
      </trkpt>
      <trkpt lat="48.70226" lon="2.0671">
        <ele>92.4</ele>
        <time>2026-05-24T08:58:47Z</time>
      </trkpt>
      <trkpt lat="48.70227" lon="2.06717">
        <ele>92.4</ele>
        <time>2026-05-24T08:58:48Z</time>
      </trkpt>
      <trkpt lat="48.70228" lon="2.06725">
        <ele>92.4</ele>
        <time>2026-05-24T08:58:49Z</time>
      </trkpt>
      <trkpt lat="48.7023" lon="2.06732">
        <ele>92.4</ele>
        <time>2026-05-24T08:58:50Z</time>
      </trkpt>
      <trkpt lat="48.70232" lon="2.0674">
        <ele>92.4</ele>
        <time>2026-05-24T08:58:51Z</time>
      </trkpt>
      <trkpt lat="48.70233" lon="2.06749">
        <ele>92.4</ele>
        <time>2026-05-24T08:58:52Z</time>
      </trkpt>
      <trkpt lat="48.70234" lon="2.06757">
        <ele>91.8</ele>
        <time>2026-05-24T08:58:53Z</time>
      </trkpt>
      <trkpt lat="48.70236" lon="2.06765">
        <ele>91.8</ele>
        <time>2026-05-24T08:58:54Z</time>
      </trkpt>
      <trkpt lat="48.70237" lon="2.06773">
        <ele>91.8</ele>
        <time>2026-05-24T08:58:55Z</time>
      </trkpt>
      <trkpt lat="48.70239" lon="2.06781">
        <ele>91.8</ele>
        <time>2026-05-24T08:58:56Z</time>
      </trkpt>
      <trkpt lat="48.70238" lon="2.06787">
        <ele>91.4</ele>
        <time>2026-05-24T08:58:57Z</time>
      </trkpt>
      <trkpt lat="48.70239" lon="2.06794">
        <ele>91.4</ele>
        <time>2026-05-24T08:58:58Z</time>
      </trkpt>
      <trkpt lat="48.70241" lon="2.06802">
        <ele>91.4</ele>
        <time>2026-05-24T08:58:59Z</time>
      </trkpt>
      <trkpt lat="48.70242" lon="2.0681">
        <ele>91.4</ele>
        <time>2026-05-24T08:59:00Z</time>
      </trkpt>
      <trkpt lat="48.70244" lon="2.06817">
        <ele>91.6</ele>
        <time>2026-05-24T08:59:01Z</time>
      </trkpt>
      <trkpt lat="48.70244" lon="2.06825">
        <ele>91.6</ele>
        <time>2026-05-24T08:59:02Z</time>
      </trkpt>
      <trkpt lat="48.70246" lon="2.06834">
        <ele>91.6</ele>
        <time>2026-05-24T08:59:03Z</time>
      </trkpt>
      <trkpt lat="48.70247" lon="2.06845">
        <ele>91.6</ele>
        <time>2026-05-24T08:59:04Z</time>
      </trkpt>
      <trkpt lat="48.70248" lon="2.06855">
        <ele>91</ele>
        <time>2026-05-24T08:59:05Z</time>
      </trkpt>
      <trkpt lat="48.70249" lon="2.06864">
        <ele>91</ele>
        <time>2026-05-24T08:59:06Z</time>
      </trkpt>
      <trkpt lat="48.7025" lon="2.06874">
        <ele>91</ele>
        <time>2026-05-24T08:59:07Z</time>
      </trkpt>
      <trkpt lat="48.70251" lon="2.06883">
        <ele>91</ele>
        <time>2026-05-24T08:59:08Z</time>
      </trkpt>
      <trkpt lat="48.70253" lon="2.06893">
        <ele>90.8</ele>
        <time>2026-05-24T08:59:09Z</time>
      </trkpt>
      <trkpt lat="48.70253" lon="2.06902">
        <ele>90.8</ele>
        <time>2026-05-24T08:59:10Z</time>
      </trkpt>
      <trkpt lat="48.70254" lon="2.06912">
        <ele>90.8</ele>
        <time>2026-05-24T08:59:11Z</time>
      </trkpt>
      <trkpt lat="48.70255" lon="2.0692">
        <ele>90.8</ele>
        <time>2026-05-24T08:59:12Z</time>
      </trkpt>
      <trkpt lat="48.70255" lon="2.06929">
        <ele>90.8</ele>
        <time>2026-05-24T08:59:13Z</time>
      </trkpt>
      <trkpt lat="48.70255" lon="2.06936">
        <ele>90.8</ele>
        <time>2026-05-24T08:59:14Z</time>
      </trkpt>
      <trkpt lat="48.70255" lon="2.06942">
        <ele>90.8</ele>
        <time>2026-05-24T08:59:15Z</time>
      </trkpt>
      <trkpt lat="48.70256" lon="2.06946">
        <ele>91.2</ele>
        <time>2026-05-24T08:59:16Z</time>
      </trkpt>
      <trkpt lat="48.70258" lon="2.06948">
        <ele>91</ele>
        <time>2026-05-24T08:59:17Z</time>
      </trkpt>
      <trkpt lat="48.70261" lon="2.06951">
        <ele>91</ele>
        <time>2026-05-24T08:59:18Z</time>
      </trkpt>
      <trkpt lat="48.70264" lon="2.06954">
        <ele>91</ele>
        <time>2026-05-24T08:59:19Z</time>
      </trkpt>
      <trkpt lat="48.70268" lon="2.06956">
        <ele>91</ele>
        <time>2026-05-24T08:59:20Z</time>
      </trkpt>
      <trkpt lat="48.70271" lon="2.0696">
        <ele>90.8</ele>
        <time>2026-05-24T08:59:21Z</time>
      </trkpt>
      <trkpt lat="48.70275" lon="2.06964">
        <ele>90.8</ele>
        <time>2026-05-24T08:59:22Z</time>
      </trkpt>
      <trkpt lat="48.7028" lon="2.06967">
        <ele>90.8</ele>
        <time>2026-05-24T08:59:23Z</time>
      </trkpt>
      <trkpt lat="48.70285" lon="2.0697">
        <ele>89.8</ele>
        <time>2026-05-24T08:59:24Z</time>
      </trkpt>
      <trkpt lat="48.7029" lon="2.06974">
        <ele>88.4</ele>
        <time>2026-05-24T08:59:25Z</time>
      </trkpt>
      <trkpt lat="48.70293" lon="2.06982">
        <ele>88.4</ele>
        <time>2026-05-24T08:59:26Z</time>
      </trkpt>
      <trkpt lat="48.70295" lon="2.0699">
        <ele>88.4</ele>
        <time>2026-05-24T08:59:27Z</time>
      </trkpt>
      <trkpt lat="48.70295" lon="2.06998">
        <ele>89.4</ele>
        <time>2026-05-24T08:59:28Z</time>
      </trkpt>
      <trkpt lat="48.70296" lon="2.07007">
        <ele>89.8</ele>
        <time>2026-05-24T08:59:29Z</time>
      </trkpt>
      <trkpt lat="48.70297" lon="2.07014">
        <ele>89.8</ele>
        <time>2026-05-24T08:59:30Z</time>
      </trkpt>
      <trkpt lat="48.70298" lon="2.07022">
        <ele>89.8</ele>
        <time>2026-05-24T08:59:31Z</time>
      </trkpt>
      <trkpt lat="48.70298" lon="2.07029">
        <ele>89.8</ele>
        <time>2026-05-24T08:59:32Z</time>
      </trkpt>
      <trkpt lat="48.70299" lon="2.07037">
        <ele>90.2</ele>
        <time>2026-05-24T08:59:33Z</time>
      </trkpt>
      <trkpt lat="48.70299" lon="2.07044">
        <ele>90.2</ele>
        <time>2026-05-24T08:59:34Z</time>
      </trkpt>
      <trkpt lat="48.703" lon="2.0705">
        <ele>90.2</ele>
        <time>2026-05-24T08:59:35Z</time>
      </trkpt>
      <trkpt lat="48.703" lon="2.07057">
        <ele>90.2</ele>
        <time>2026-05-24T08:59:36Z</time>
      </trkpt>
      <trkpt lat="48.70302" lon="2.07063">
        <ele>90.8</ele>
        <time>2026-05-24T08:59:37Z</time>
      </trkpt>
      <trkpt lat="48.70304" lon="2.07069">
        <ele>90.8</ele>
        <time>2026-05-24T08:59:38Z</time>
      </trkpt>
      <trkpt lat="48.70307" lon="2.07074">
        <ele>90.8</ele>
        <time>2026-05-24T08:59:39Z</time>
      </trkpt>
      <trkpt lat="48.70311" lon="2.07078">
        <ele>90.8</ele>
        <time>2026-05-24T08:59:40Z</time>
      </trkpt>
      <trkpt lat="48.70315" lon="2.07081">
        <ele>90.2</ele>
        <time>2026-05-24T08:59:41Z</time>
      </trkpt>
      <trkpt lat="48.70318" lon="2.07087">
        <ele>90.2</ele>
        <time>2026-05-24T08:59:42Z</time>
      </trkpt>
      <trkpt lat="48.70319" lon="2.07094">
        <ele>90.2</ele>
        <time>2026-05-24T08:59:43Z</time>
      </trkpt>
      <trkpt lat="48.7032" lon="2.07102">
        <ele>90.2</ele>
        <time>2026-05-24T08:59:44Z</time>
      </trkpt>
      <trkpt lat="48.70321" lon="2.07109">
        <ele>90.2</ele>
        <time>2026-05-24T08:59:45Z</time>
      </trkpt>
      <trkpt lat="48.70322" lon="2.07118">
        <ele>90.2</ele>
        <time>2026-05-24T08:59:46Z</time>
      </trkpt>
      <trkpt lat="48.70323" lon="2.07126">
        <ele>90.2</ele>
        <time>2026-05-24T08:59:47Z</time>
      </trkpt>
      <trkpt lat="48.70324" lon="2.07134">
        <ele>90.2</ele>
        <time>2026-05-24T08:59:48Z</time>
      </trkpt>
      <trkpt lat="48.70325" lon="2.07142">
        <ele>90.6</ele>
        <time>2026-05-24T08:59:49Z</time>
      </trkpt>
      <trkpt lat="48.70326" lon="2.0715">
        <ele>90.6</ele>
        <time>2026-05-24T08:59:50Z</time>
      </trkpt>
      <trkpt lat="48.70328" lon="2.07159">
        <ele>90.6</ele>
        <time>2026-05-24T08:59:51Z</time>
      </trkpt>
      <trkpt lat="48.70329" lon="2.07168">
        <ele>89.6</ele>
        <time>2026-05-24T08:59:52Z</time>
      </trkpt>
      <trkpt lat="48.70331" lon="2.07178">
        <ele>89</ele>
        <time>2026-05-24T08:59:53Z</time>
      </trkpt>
      <trkpt lat="48.70332" lon="2.07188">
        <ele>89</ele>
        <time>2026-05-24T08:59:54Z</time>
      </trkpt>
      <trkpt lat="48.70334" lon="2.07199">
        <ele>89</ele>
        <time>2026-05-24T08:59:55Z</time>
      </trkpt>
      <trkpt lat="48.70336" lon="2.0721">
        <ele>88</ele>
        <time>2026-05-24T08:59:56Z</time>
      </trkpt>
      <trkpt lat="48.70338" lon="2.07221">
        <ele>86.4</ele>
        <time>2026-05-24T08:59:57Z</time>
      </trkpt>
      <trkpt lat="48.7034" lon="2.07232">
        <ele>86.4</ele>
        <time>2026-05-24T08:59:58Z</time>
      </trkpt>
      <trkpt lat="48.70341" lon="2.07245">
        <ele>86.4</ele>
        <time>2026-05-24T08:59:59Z</time>
      </trkpt>
      <trkpt lat="48.70342" lon="2.07257">
        <ele>85.4</ele>
        <time>2026-05-24T09:00:00Z</time>
      </trkpt>
      <trkpt lat="48.70343" lon="2.0727">
        <ele>84</ele>
        <time>2026-05-24T09:00:01Z</time>
      </trkpt>
      <trkpt lat="48.70344" lon="2.07282">
        <ele>84</ele>
        <time>2026-05-24T09:00:02Z</time>
      </trkpt>
      <trkpt lat="48.70345" lon="2.07294">
        <ele>84</ele>
        <time>2026-05-24T09:00:03Z</time>
      </trkpt>
      <trkpt lat="48.70346" lon="2.07306">
        <ele>84</ele>
        <time>2026-05-24T09:00:04Z</time>
      </trkpt>
      <trkpt lat="48.70346" lon="2.07317">
        <ele>85</ele>
        <time>2026-05-24T09:00:05Z</time>
      </trkpt>
      <trkpt lat="48.70346" lon="2.07328">
        <ele>85</ele>
        <time>2026-05-24T09:00:06Z</time>
      </trkpt>
      <trkpt lat="48.70346" lon="2.07338">
        <ele>85</ele>
        <time>2026-05-24T09:00:07Z</time>
      </trkpt>
      <trkpt lat="48.70346" lon="2.07348">
        <ele>85.2</ele>
        <time>2026-05-24T09:00:08Z</time>
      </trkpt>
      <trkpt lat="48.70345" lon="2.07358">
        <ele>85.4</ele>
        <time>2026-05-24T09:00:09Z</time>
      </trkpt>
      <trkpt lat="48.70344" lon="2.07367">
        <ele>85.4</ele>
        <time>2026-05-24T09:00:10Z</time>
      </trkpt>
      <trkpt lat="48.70344" lon="2.07377">
        <ele>85.4</ele>
        <time>2026-05-24T09:00:11Z</time>
      </trkpt>
      <trkpt lat="48.70344" lon="2.07387">
        <ele>86</ele>
        <time>2026-05-24T09:00:12Z</time>
      </trkpt>
      <trkpt lat="48.70344" lon="2.07396">
        <ele>85.6</ele>
        <time>2026-05-24T09:00:13Z</time>
      </trkpt>
      <trkpt lat="48.70344" lon="2.07406">
        <ele>85.6</ele>
        <time>2026-05-24T09:00:14Z</time>
      </trkpt>
      <trkpt lat="48.70344" lon="2.07415">
        <ele>85.6</ele>
        <time>2026-05-24T09:00:15Z</time>
      </trkpt>
      <trkpt lat="48.70344" lon="2.07425">
        <ele>85.6</ele>
        <time>2026-05-24T09:00:16Z</time>
      </trkpt>
      <trkpt lat="48.70345" lon="2.07434">
        <ele>86</ele>
        <time>2026-05-24T09:00:17Z</time>
      </trkpt>
      <trkpt lat="48.70346" lon="2.07443">
        <ele>86</ele>
        <time>2026-05-24T09:00:18Z</time>
      </trkpt>
      <trkpt lat="48.70346" lon="2.07452">
        <ele>86</ele>
        <time>2026-05-24T09:00:19Z</time>
      </trkpt>
      <trkpt lat="48.70346" lon="2.0746">
        <ele>86.6</ele>
        <time>2026-05-24T09:00:20Z</time>
      </trkpt>
      <trkpt lat="48.70346" lon="2.07468">
        <ele>87</ele>
        <time>2026-05-24T09:00:21Z</time>
      </trkpt>
      <trkpt lat="48.70346" lon="2.07475">
        <ele>87</ele>
        <time>2026-05-24T09:00:22Z</time>
      </trkpt>
      <trkpt lat="48.70347" lon="2.07482">
        <ele>87</ele>
        <time>2026-05-24T09:00:23Z</time>
      </trkpt>
      <trkpt lat="48.70347" lon="2.07489">
        <ele>87.6</ele>
        <time>2026-05-24T09:00:24Z</time>
      </trkpt>
      <trkpt lat="48.70348" lon="2.07495">
        <ele>88</ele>
        <time>2026-05-24T09:00:25Z</time>
      </trkpt>
      <trkpt lat="48.70348" lon="2.07501">
        <ele>88</ele>
        <time>2026-05-24T09:00:26Z</time>
      </trkpt>
      <trkpt lat="48.70349" lon="2.07508">
        <ele>88</ele>
        <time>2026-05-24T09:00:27Z</time>
      </trkpt>
      <trkpt lat="48.70349" lon="2.07515">
        <ele>88</ele>
        <time>2026-05-24T09:00:28Z</time>
      </trkpt>
      <trkpt lat="48.70349" lon="2.07522">
        <ele>88</ele>
        <time>2026-05-24T09:00:29Z</time>
      </trkpt>
      <trkpt lat="48.70349" lon="2.07529">
        <ele>88</ele>
        <time>2026-05-24T09:00:30Z</time>
      </trkpt>
      <trkpt lat="48.7035" lon="2.07537">
        <ele>88</ele>
        <time>2026-05-24T09:00:31Z</time>
      </trkpt>
      <trkpt lat="48.7035" lon="2.07545">
        <ele>89</ele>
        <time>2026-05-24T09:00:32Z</time>
      </trkpt>
      <trkpt lat="48.70351" lon="2.07553">
        <ele>89.4</ele>
        <time>2026-05-24T09:00:33Z</time>
      </trkpt>
      <trkpt lat="48.70351" lon="2.07561">
        <ele>89.4</ele>
        <time>2026-05-24T09:00:34Z</time>
      </trkpt>
      <trkpt lat="48.70351" lon="2.07569">
        <ele>89.4</ele>
        <time>2026-05-24T09:00:35Z</time>
      </trkpt>
      <trkpt lat="48.70351" lon="2.07577">
        <ele>90.4</ele>
        <time>2026-05-24T09:00:36Z</time>
      </trkpt>
      <trkpt lat="48.70352" lon="2.07585">
        <ele>90.6</ele>
        <time>2026-05-24T09:00:37Z</time>
      </trkpt>
      <trkpt lat="48.70352" lon="2.07593">
        <ele>90.6</ele>
        <time>2026-05-24T09:00:38Z</time>
      </trkpt>
      <trkpt lat="48.70352" lon="2.07602">
        <ele>90.6</ele>
        <time>2026-05-24T09:00:39Z</time>
      </trkpt>
      <trkpt lat="48.70352" lon="2.0761">
        <ele>90.6</ele>
        <time>2026-05-24T09:00:40Z</time>
      </trkpt>
      <trkpt lat="48.70353" lon="2.07618">
        <ele>91.4</ele>
        <time>2026-05-24T09:00:41Z</time>
      </trkpt>
      <trkpt lat="48.70353" lon="2.07626">
        <ele>91.4</ele>
        <time>2026-05-24T09:00:42Z</time>
      </trkpt>
      <trkpt lat="48.70353" lon="2.07634">
        <ele>91.4</ele>
        <time>2026-05-24T09:00:43Z</time>
      </trkpt>
      <trkpt lat="48.70353" lon="2.07643">
        <ele>91.4</ele>
        <time>2026-05-24T09:00:44Z</time>
      </trkpt>
      <trkpt lat="48.70353" lon="2.07651">
        <ele>91.4</ele>
        <time>2026-05-24T09:00:45Z</time>
      </trkpt>
      <trkpt lat="48.70353" lon="2.0766">
        <ele>91.4</ele>
        <time>2026-05-24T09:00:46Z</time>
      </trkpt>
      <trkpt lat="48.70353" lon="2.07668">
        <ele>91.4</ele>
        <time>2026-05-24T09:00:47Z</time>
      </trkpt>
      <trkpt lat="48.70353" lon="2.07677">
        <ele>92.4</ele>
        <time>2026-05-24T09:00:48Z</time>
      </trkpt>
      <trkpt lat="48.70353" lon="2.07686">
        <ele>92.6</ele>
        <time>2026-05-24T09:00:49Z</time>
      </trkpt>
      <trkpt lat="48.70353" lon="2.07695">
        <ele>92.6</ele>
        <time>2026-05-24T09:00:50Z</time>
      </trkpt>
      <trkpt lat="48.70354" lon="2.07704">
        <ele>92.6</ele>
        <time>2026-05-24T09:00:51Z</time>
      </trkpt>
      <trkpt lat="48.70354" lon="2.07713">
        <ele>92.6</ele>
        <time>2026-05-24T09:00:52Z</time>
      </trkpt>
      <trkpt lat="48.70354" lon="2.07723">
        <ele>92.2</ele>
        <time>2026-05-24T09:00:53Z</time>
      </trkpt>
      <trkpt lat="48.70354" lon="2.07733">
        <ele>92.2</ele>
        <time>2026-05-24T09:00:54Z</time>
      </trkpt>
      <trkpt lat="48.70354" lon="2.07743">
        <ele>92.2</ele>
        <time>2026-05-24T09:00:55Z</time>
      </trkpt>
      <trkpt lat="48.70354" lon="2.07754">
        <ele>92.2</ele>
        <time>2026-05-24T09:00:56Z</time>
      </trkpt>
      <trkpt lat="48.70354" lon="2.07764">
        <ele>91.2</ele>
        <time>2026-05-24T09:00:57Z</time>
      </trkpt>
      <trkpt lat="48.70354" lon="2.07776">
        <ele>91.2</ele>
        <time>2026-05-24T09:00:58Z</time>
      </trkpt>
      <trkpt lat="48.70355" lon="2.07787">
        <ele>91.2</ele>
        <time>2026-05-24T09:00:59Z</time>
      </trkpt>
      <trkpt lat="48.70355" lon="2.07799">
        <ele>91.2</ele>
        <time>2026-05-24T09:01:00Z</time>
      </trkpt>
      <trkpt lat="48.70355" lon="2.0781">
        <ele>90.8</ele>
        <time>2026-05-24T09:01:01Z</time>
      </trkpt>
      <trkpt lat="48.70356" lon="2.07822">
        <ele>90.8</ele>
        <time>2026-05-24T09:01:02Z</time>
      </trkpt>
      <trkpt lat="48.70357" lon="2.07834">
        <ele>90.8</ele>
        <time>2026-05-24T09:01:03Z</time>
      </trkpt>
      <trkpt lat="48.70358" lon="2.07845">
        <ele>90.4</ele>
        <time>2026-05-24T09:01:04Z</time>
      </trkpt>
      <trkpt lat="48.7036" lon="2.07857">
        <ele>89.8</ele>
        <time>2026-05-24T09:01:05Z</time>
      </trkpt>
      <trkpt lat="48.70362" lon="2.07868">
        <ele>89.8</ele>
        <time>2026-05-24T09:01:06Z</time>
      </trkpt>
      <trkpt lat="48.70363" lon="2.07879">
        <ele>89.8</ele>
        <time>2026-05-24T09:01:07Z</time>
      </trkpt>
      <trkpt lat="48.70363" lon="2.0789">
        <ele>89.8</ele>
        <time>2026-05-24T09:01:08Z</time>
      </trkpt>
      <trkpt lat="48.70364" lon="2.07901">
        <ele>90</ele>
        <time>2026-05-24T09:01:09Z</time>
      </trkpt>
      <trkpt lat="48.70366" lon="2.07911">
        <ele>90</ele>
        <time>2026-05-24T09:01:10Z</time>
      </trkpt>
      <trkpt lat="48.70368" lon="2.07921">
        <ele>90</ele>
        <time>2026-05-24T09:01:11Z</time>
      </trkpt>
      <trkpt lat="48.7037" lon="2.07931">
        <ele>89.2</ele>
        <time>2026-05-24T09:01:12Z</time>
      </trkpt>
      <trkpt lat="48.70371" lon="2.07941">
        <ele>89.8</ele>
        <time>2026-05-24T09:01:13Z</time>
      </trkpt>
      <trkpt lat="48.70372" lon="2.0795">
        <ele>89.8</ele>
        <time>2026-05-24T09:01:14Z</time>
      </trkpt>
      <trkpt lat="48.70373" lon="2.0796">
        <ele>89.8</ele>
        <time>2026-05-24T09:01:15Z</time>
      </trkpt>
      <trkpt lat="48.70374" lon="2.07968">
        <ele>90.6</ele>
        <time>2026-05-24T09:01:16Z</time>
      </trkpt>
      <trkpt lat="48.70375" lon="2.07977">
        <ele>90.6</ele>
        <time>2026-05-24T09:01:17Z</time>
      </trkpt>
      <trkpt lat="48.70376" lon="2.07986">
        <ele>90.6</ele>
        <time>2026-05-24T09:01:18Z</time>
      </trkpt>
      <trkpt lat="48.70376" lon="2.07995">
        <ele>90.6</ele>
        <time>2026-05-24T09:01:19Z</time>
      </trkpt>
      <trkpt lat="48.70377" lon="2.08004">
        <ele>90.6</ele>
        <time>2026-05-24T09:01:20Z</time>
      </trkpt>
      <trkpt lat="48.70378" lon="2.08014">
        <ele>90.4</ele>
        <time>2026-05-24T09:01:21Z</time>
      </trkpt>
      <trkpt lat="48.70378" lon="2.08023">
        <ele>90.4</ele>
        <time>2026-05-24T09:01:22Z</time>
      </trkpt>
      <trkpt lat="48.70379" lon="2.08032">
        <ele>90.4</ele>
        <time>2026-05-24T09:01:23Z</time>
      </trkpt>
      <trkpt lat="48.7038" lon="2.08042">
        <ele>90.2</ele>
        <time>2026-05-24T09:01:24Z</time>
      </trkpt>
      <trkpt lat="48.70381" lon="2.08052">
        <ele>90.4</ele>
        <time>2026-05-24T09:01:25Z</time>
      </trkpt>
      <trkpt lat="48.70382" lon="2.08062">
        <ele>90.4</ele>
        <time>2026-05-24T09:01:26Z</time>
      </trkpt>
      <trkpt lat="48.70383" lon="2.08072">
        <ele>90.4</ele>
        <time>2026-05-24T09:01:27Z</time>
      </trkpt>
      <trkpt lat="48.70384" lon="2.08083">
        <ele>90.4</ele>
        <time>2026-05-24T09:01:28Z</time>
      </trkpt>
      <trkpt lat="48.70385" lon="2.08094">
        <ele>88.6</ele>
        <time>2026-05-24T09:01:29Z</time>
      </trkpt>
      <trkpt lat="48.70386" lon="2.08105">
        <ele>88.6</ele>
        <time>2026-05-24T09:01:30Z</time>
      </trkpt>
      <trkpt lat="48.70387" lon="2.08117">
        <ele>88.6</ele>
        <time>2026-05-24T09:01:31Z</time>
      </trkpt>
      <trkpt lat="48.70388" lon="2.08128">
        <ele>88.6</ele>
        <time>2026-05-24T09:01:32Z</time>
      </trkpt>
      <trkpt lat="48.70389" lon="2.0814">
        <ele>88</ele>
        <time>2026-05-24T09:01:33Z</time>
      </trkpt>
      <trkpt lat="48.7039" lon="2.08152">
        <ele>88</ele>
        <time>2026-05-24T09:01:34Z</time>
      </trkpt>
      <trkpt lat="48.70391" lon="2.08163">
        <ele>88</ele>
        <time>2026-05-24T09:01:35Z</time>
      </trkpt>
      <trkpt lat="48.70393" lon="2.08176">
        <ele>87</ele>
        <time>2026-05-24T09:01:36Z</time>
      </trkpt>
      <trkpt lat="48.70394" lon="2.08188">
        <ele>86</ele>
        <time>2026-05-24T09:01:37Z</time>
      </trkpt>
      <trkpt lat="48.70395" lon="2.08201">
        <ele>86</ele>
        <time>2026-05-24T09:01:38Z</time>
      </trkpt>
      <trkpt lat="48.70396" lon="2.08213">
        <ele>86</ele>
        <time>2026-05-24T09:01:39Z</time>
      </trkpt>
      <trkpt lat="48.70397" lon="2.08226">
        <ele>86</ele>
        <time>2026-05-24T09:01:40Z</time>
      </trkpt>
      <trkpt lat="48.70399" lon="2.08238">
        <ele>84.6</ele>
        <time>2026-05-24T09:01:41Z</time>
      </trkpt>
      <trkpt lat="48.70401" lon="2.0825">
        <ele>84.6</ele>
        <time>2026-05-24T09:01:42Z</time>
      </trkpt>
      <trkpt lat="48.70402" lon="2.08263">
        <ele>84.6</ele>
        <time>2026-05-24T09:01:43Z</time>
      </trkpt>
      <trkpt lat="48.70404" lon="2.08276">
        <ele>83.8</ele>
        <time>2026-05-24T09:01:44Z</time>
      </trkpt>
      <trkpt lat="48.70404" lon="2.08289">
        <ele>82.8</ele>
        <time>2026-05-24T09:01:45Z</time>
      </trkpt>
      <trkpt lat="48.70406" lon="2.08302">
        <ele>82.8</ele>
        <time>2026-05-24T09:01:46Z</time>
      </trkpt>
      <trkpt lat="48.70406" lon="2.08314">
        <ele>82.8</ele>
        <time>2026-05-24T09:01:47Z</time>
      </trkpt>
      <trkpt lat="48.70407" lon="2.08326">
        <ele>82.8</ele>
        <time>2026-05-24T09:01:48Z</time>
      </trkpt>
      <trkpt lat="48.70408" lon="2.08338">
        <ele>82.6</ele>
        <time>2026-05-24T09:01:49Z</time>
      </trkpt>
      <trkpt lat="48.70409" lon="2.08351">
        <ele>82.6</ele>
        <time>2026-05-24T09:01:50Z</time>
      </trkpt>
      <trkpt lat="48.70411" lon="2.08363">
        <ele>82.6</ele>
        <time>2026-05-24T09:01:51Z</time>
      </trkpt>
      <trkpt lat="48.70413" lon="2.08375">
        <ele>82.6</ele>
        <time>2026-05-24T09:01:52Z</time>
      </trkpt>
      <trkpt lat="48.70414" lon="2.08387">
        <ele>82.2</ele>
        <time>2026-05-24T09:01:53Z</time>
      </trkpt>
      <trkpt lat="48.70416" lon="2.08398">
        <ele>82.2</ele>
        <time>2026-05-24T09:01:54Z</time>
      </trkpt>
      <trkpt lat="48.70418" lon="2.0841">
        <ele>82.2</ele>
        <time>2026-05-24T09:01:55Z</time>
      </trkpt>
      <trkpt lat="48.70421" lon="2.0842">
        <ele>82.2</ele>
        <time>2026-05-24T09:01:56Z</time>
      </trkpt>
      <trkpt lat="48.70424" lon="2.0843">
        <ele>81.6</ele>
        <time>2026-05-24T09:01:57Z</time>
      </trkpt>
      <trkpt lat="48.70427" lon="2.08439">
        <ele>81.6</ele>
        <time>2026-05-24T09:01:58Z</time>
      </trkpt>
      <trkpt lat="48.70427" lon="2.08448">
        <ele>81.6</ele>
        <time>2026-05-24T09:01:59Z</time>
      </trkpt>
      <trkpt lat="48.70425" lon="2.08454">
        <ele>81.8</ele>
        <time>2026-05-24T09:02:00Z</time>
      </trkpt>
      <trkpt lat="48.70422" lon="2.08459">
        <ele>81.8</ele>
        <time>2026-05-24T09:02:01Z</time>
      </trkpt>
      <trkpt lat="48.70417" lon="2.08461">
        <ele>81.8</ele>
        <time>2026-05-24T09:02:02Z</time>
      </trkpt>
      <trkpt lat="48.70413" lon="2.08462">
        <ele>81.8</ele>
        <time>2026-05-24T09:02:03Z</time>
      </trkpt>
      <trkpt lat="48.70411" lon="2.08461">
        <ele>81.8</ele>
        <time>2026-05-24T09:02:04Z</time>
      </trkpt>
      <trkpt lat="48.70409" lon="2.08461">
        <ele>82.4</ele>
        <time>2026-05-24T09:02:05Z</time>
      </trkpt>
      <trkpt lat="48.70408" lon="2.0846">
        <ele>82.4</ele>
        <time>2026-05-24T09:02:06Z</time>
      </trkpt>
      <trkpt lat="48.70404" lon="2.08458">
        <ele>82.4</ele>
        <time>2026-05-24T09:02:07Z</time>
      </trkpt>
      <trkpt lat="48.70401" lon="2.0846">
        <ele>82.4</ele>
        <time>2026-05-24T09:02:08Z</time>
      </trkpt>
      <trkpt lat="48.70397" lon="2.08461">
        <ele>82.8</ele>
        <time>2026-05-24T09:02:09Z</time>
      </trkpt>
      <trkpt lat="48.70395" lon="2.08465">
        <ele>82.8</ele>
        <time>2026-05-24T09:02:10Z</time>
      </trkpt>
      <trkpt lat="48.70394" lon="2.0847">
        <ele>82.8</ele>
        <time>2026-05-24T09:02:11Z</time>
      </trkpt>
      <trkpt lat="48.70393" lon="2.08475">
        <ele>82.8</ele>
        <time>2026-05-24T09:02:12Z</time>
      </trkpt>
      <trkpt lat="48.70392" lon="2.08481">
        <ele>82.8</ele>
        <time>2026-05-24T09:02:13Z</time>
      </trkpt>
      <trkpt lat="48.70392" lon="2.08486">
        <ele>82.8</ele>
        <time>2026-05-24T09:02:14Z</time>
      </trkpt>
      <trkpt lat="48.70391" lon="2.08493">
        <ele>82.8</ele>
        <time>2026-05-24T09:02:15Z</time>
      </trkpt>
      <trkpt lat="48.70391" lon="2.08499">
        <ele>82.8</ele>
        <time>2026-05-24T09:02:16Z</time>
      </trkpt>
      <trkpt lat="48.7039" lon="2.08505">
        <ele>82.4</ele>
        <time>2026-05-24T09:02:17Z</time>
      </trkpt>
      <trkpt lat="48.7039" lon="2.08512">
        <ele>82.4</ele>
        <time>2026-05-24T09:02:18Z</time>
      </trkpt>
      <trkpt lat="48.7039" lon="2.08517">
        <ele>82.4</ele>
        <time>2026-05-24T09:02:19Z</time>
      </trkpt>
      <trkpt lat="48.70388" lon="2.08525">
        <ele>82.4</ele>
        <time>2026-05-24T09:02:20Z</time>
      </trkpt>
      <trkpt lat="48.70388" lon="2.08532">
        <ele>82.4</ele>
        <time>2026-05-24T09:02:21Z</time>
      </trkpt>
      <trkpt lat="48.70387" lon="2.08539">
        <ele>82.4</ele>
        <time>2026-05-24T09:02:22Z</time>
      </trkpt>
      <trkpt lat="48.70386" lon="2.08546">
        <ele>82.4</ele>
        <time>2026-05-24T09:02:23Z</time>
      </trkpt>
      <trkpt lat="48.70385" lon="2.08554">
        <ele>82.4</ele>
        <time>2026-05-24T09:02:24Z</time>
      </trkpt>
      <trkpt lat="48.70383" lon="2.08561">
        <ele>82.8</ele>
        <time>2026-05-24T09:02:25Z</time>
      </trkpt>
      <trkpt lat="48.70383" lon="2.08567">
        <ele>82.8</ele>
        <time>2026-05-24T09:02:26Z</time>
      </trkpt>
      <trkpt lat="48.70382" lon="2.08575">
        <ele>82.8</ele>
        <time>2026-05-24T09:02:27Z</time>
      </trkpt>
      <trkpt lat="48.70382" lon="2.08581">
        <ele>82.4</ele>
        <time>2026-05-24T09:02:28Z</time>
      </trkpt>
      <trkpt lat="48.70381" lon="2.08589">
        <ele>82.2</ele>
        <time>2026-05-24T09:02:29Z</time>
      </trkpt>
      <trkpt lat="48.70381" lon="2.08596">
        <ele>82.2</ele>
        <time>2026-05-24T09:02:30Z</time>
      </trkpt>
      <trkpt lat="48.70381" lon="2.08602">
        <ele>82.2</ele>
        <time>2026-05-24T09:02:31Z</time>
      </trkpt>
      <trkpt lat="48.7038" lon="2.08608">
        <ele>82.2</ele>
        <time>2026-05-24T09:02:32Z</time>
      </trkpt>
      <trkpt lat="48.70379" lon="2.08615">
        <ele>81.8</ele>
        <time>2026-05-24T09:02:33Z</time>
      </trkpt>
      <trkpt lat="48.70378" lon="2.08621">
        <ele>81.8</ele>
        <time>2026-05-24T09:02:34Z</time>
      </trkpt>
      <trkpt lat="48.70377" lon="2.08628">
        <ele>81.8</ele>
        <time>2026-05-24T09:02:35Z</time>
      </trkpt>
      <trkpt lat="48.70375" lon="2.08635">
        <ele>81.8</ele>
        <time>2026-05-24T09:02:36Z</time>
      </trkpt>
      <trkpt lat="48.70375" lon="2.08641">
        <ele>81.8</ele>
        <time>2026-05-24T09:02:37Z</time>
      </trkpt>
      <trkpt lat="48.70374" lon="2.08649">
        <ele>81.8</ele>
        <time>2026-05-24T09:02:38Z</time>
      </trkpt>
      <trkpt lat="48.70374" lon="2.08657">
        <ele>81.8</ele>
        <time>2026-05-24T09:02:39Z</time>
      </trkpt>
      <trkpt lat="48.70373" lon="2.08665">
        <ele>81.8</ele>
        <time>2026-05-24T09:02:40Z</time>
      </trkpt>
      <trkpt lat="48.70372" lon="2.08672">
        <ele>82.2</ele>
        <time>2026-05-24T09:02:41Z</time>
      </trkpt>
      <trkpt lat="48.70372" lon="2.08681">
        <ele>82.2</ele>
        <time>2026-05-24T09:02:42Z</time>
      </trkpt>
      <trkpt lat="48.70371" lon="2.0869">
        <ele>82.2</ele>
        <time>2026-05-24T09:02:43Z</time>
      </trkpt>
      <trkpt lat="48.70371" lon="2.08698">
        <ele>81.4</ele>
        <time>2026-05-24T09:02:44Z</time>
      </trkpt>
      <trkpt lat="48.7037" lon="2.08707">
        <ele>82</ele>
        <time>2026-05-24T09:02:45Z</time>
      </trkpt>
      <trkpt lat="48.7037" lon="2.08715">
        <ele>82</ele>
        <time>2026-05-24T09:02:46Z</time>
      </trkpt>
      <trkpt lat="48.70369" lon="2.08722">
        <ele>82</ele>
        <time>2026-05-24T09:02:47Z</time>
      </trkpt>
      <trkpt lat="48.70367" lon="2.08729">
        <ele>81.8</ele>
        <time>2026-05-24T09:02:48Z</time>
      </trkpt>
      <trkpt lat="48.70367" lon="2.08737">
        <ele>82</ele>
        <time>2026-05-24T09:02:49Z</time>
      </trkpt>
      <trkpt lat="48.70367" lon="2.08747">
        <ele>82</ele>
        <time>2026-05-24T09:02:50Z</time>
      </trkpt>
      <trkpt lat="48.70366" lon="2.08755">
        <ele>82</ele>
        <time>2026-05-24T09:02:51Z</time>
      </trkpt>
      <trkpt lat="48.70365" lon="2.08763">
        <ele>82</ele>
        <time>2026-05-24T09:02:52Z</time>
      </trkpt>
      <trkpt lat="48.70366" lon="2.08771">
        <ele>81.6</ele>
        <time>2026-05-24T09:02:53Z</time>
      </trkpt>
      <trkpt lat="48.70366" lon="2.08779">
        <ele>81.6</ele>
        <time>2026-05-24T09:02:54Z</time>
      </trkpt>
      <trkpt lat="48.70366" lon="2.08787">
        <ele>81.6</ele>
        <time>2026-05-24T09:02:55Z</time>
      </trkpt>
      <trkpt lat="48.70366" lon="2.08797">
        <ele>82.4</ele>
        <time>2026-05-24T09:02:56Z</time>
      </trkpt>
      <trkpt lat="48.70366" lon="2.08804">
        <ele>82.4</ele>
        <time>2026-05-24T09:02:57Z</time>
      </trkpt>
      <trkpt lat="48.70367" lon="2.08811">
        <ele>82.4</ele>
        <time>2026-05-24T09:02:58Z</time>
      </trkpt>
      <trkpt lat="48.70368" lon="2.08819">
        <ele>82.4</ele>
        <time>2026-05-24T09:02:59Z</time>
      </trkpt>
      <trkpt lat="48.70368" lon="2.08824">
        <ele>82.8</ele>
        <time>2026-05-24T09:03:00Z</time>
      </trkpt>
      <trkpt lat="48.70366" lon="2.08829">
        <ele>82.8</ele>
        <time>2026-05-24T09:03:01Z</time>
      </trkpt>
      <trkpt lat="48.70364" lon="2.08834">
        <ele>82.8</ele>
        <time>2026-05-24T09:03:02Z</time>
      </trkpt>
      <trkpt lat="48.70362" lon="2.08835">
        <ele>82.8</ele>
        <time>2026-05-24T09:03:03Z</time>
      </trkpt>
      <trkpt lat="48.70359" lon="2.08837">
        <ele>82.8</ele>
        <time>2026-05-24T09:03:04Z</time>
      </trkpt>
      <trkpt lat="48.70355" lon="2.08838">
        <ele>83.2</ele>
        <time>2026-05-24T09:03:05Z</time>
      </trkpt>
      <trkpt lat="48.70352" lon="2.08842">
        <ele>83.2</ele>
        <time>2026-05-24T09:03:06Z</time>
      </trkpt>
      <trkpt lat="48.70348" lon="2.08844">
        <ele>83.2</ele>
        <time>2026-05-24T09:03:07Z</time>
      </trkpt>
      <trkpt lat="48.70345" lon="2.08846">
        <ele>83.2</ele>
        <time>2026-05-24T09:03:08Z</time>
      </trkpt>
      <trkpt lat="48.70342" lon="2.08847">
        <ele>83.4</ele>
        <time>2026-05-24T09:03:09Z</time>
      </trkpt>
      <trkpt lat="48.70338" lon="2.08849">
        <ele>83.4</ele>
        <time>2026-05-24T09:03:10Z</time>
      </trkpt>
      <trkpt lat="48.70336" lon="2.08849">
        <ele>83.4</ele>
        <time>2026-05-24T09:03:11Z</time>
      </trkpt>
      <trkpt lat="48.70332" lon="2.08847">
        <ele>83.4</ele>
        <time>2026-05-24T09:03:12Z</time>
      </trkpt>
      <trkpt lat="48.70328" lon="2.08846">
        <ele>83.4</ele>
        <time>2026-05-24T09:03:13Z</time>
      </trkpt>
      <trkpt lat="48.70324" lon="2.08846">
        <ele>83.4</ele>
        <time>2026-05-24T09:03:14Z</time>
      </trkpt>
      <trkpt lat="48.7032" lon="2.08847">
        <ele>83.4</ele>
        <time>2026-05-24T09:03:15Z</time>
      </trkpt>
      <trkpt lat="48.70317" lon="2.08849">
        <ele>84</ele>
        <time>2026-05-24T09:03:16Z</time>
      </trkpt>
      <trkpt lat="48.70313" lon="2.08853">
        <ele>84.2</ele>
        <time>2026-05-24T09:03:17Z</time>
      </trkpt>
      <trkpt lat="48.7031" lon="2.08857">
        <ele>84.2</ele>
        <time>2026-05-24T09:03:18Z</time>
      </trkpt>
      <trkpt lat="48.70308" lon="2.08861">
        <ele>84.2</ele>
        <time>2026-05-24T09:03:19Z</time>
      </trkpt>
      <trkpt lat="48.70307" lon="2.08866">
        <ele>84.2</ele>
        <time>2026-05-24T09:03:20Z</time>
      </trkpt>
      <trkpt lat="48.70306" lon="2.08871">
        <ele>84.6</ele>
        <time>2026-05-24T09:03:21Z</time>
      </trkpt>
      <trkpt lat="48.70304" lon="2.08877">
        <ele>84.6</ele>
        <time>2026-05-24T09:03:22Z</time>
      </trkpt>
      <trkpt lat="48.70301" lon="2.08882">
        <ele>84.6</ele>
        <time>2026-05-24T09:03:23Z</time>
      </trkpt>
      <trkpt lat="48.70299" lon="2.08887">
        <ele>85.2</ele>
        <time>2026-05-24T09:03:24Z</time>
      </trkpt>
      <trkpt lat="48.70297" lon="2.08893">
        <ele>85</ele>
        <time>2026-05-24T09:03:25Z</time>
      </trkpt>
      <trkpt lat="48.70295" lon="2.08899">
        <ele>85</ele>
        <time>2026-05-24T09:03:26Z</time>
      </trkpt>
      <trkpt lat="48.70294" lon="2.08905">
        <ele>85</ele>
        <time>2026-05-24T09:03:27Z</time>
      </trkpt>
      <trkpt lat="48.70293" lon="2.0891">
        <ele>85.4</ele>
        <time>2026-05-24T09:03:28Z</time>
      </trkpt>
      <trkpt lat="48.70293" lon="2.08914">
        <ele>85.4</ele>
        <time>2026-05-24T09:03:29Z</time>
      </trkpt>
      <trkpt lat="48.70292" lon="2.08919">
        <ele>85.4</ele>
        <time>2026-05-24T09:03:30Z</time>
      </trkpt>
      <trkpt lat="48.70291" lon="2.08924">
        <ele>85.4</ele>
        <time>2026-05-24T09:03:31Z</time>
      </trkpt>
      <trkpt lat="48.70289" lon="2.0893">
        <ele>86</ele>
        <time>2026-05-24T09:03:32Z</time>
      </trkpt>
      <trkpt lat="48.70288" lon="2.08934">
        <ele>86.2</ele>
        <time>2026-05-24T09:03:33Z</time>
      </trkpt>
      <trkpt lat="48.70287" lon="2.08939">
        <ele>86.2</ele>
        <time>2026-05-24T09:03:34Z</time>
      </trkpt>
      <trkpt lat="48.70284" lon="2.08944">
        <ele>86.2</ele>
        <time>2026-05-24T09:03:35Z</time>
      </trkpt>
      <trkpt lat="48.70282" lon="2.08947">
        <ele>87</ele>
        <time>2026-05-24T09:03:36Z</time>
      </trkpt>
      <trkpt lat="48.7028" lon="2.08949">
        <ele>87</ele>
        <time>2026-05-24T09:03:37Z</time>
      </trkpt>
      <trkpt lat="48.70278" lon="2.0895">
        <ele>87</ele>
        <time>2026-05-24T09:03:38Z</time>
      </trkpt>
      <trkpt lat="48.70276" lon="2.0895">
        <ele>87</ele>
        <time>2026-05-24T09:03:39Z</time>
      </trkpt>
      <trkpt lat="48.70273" lon="2.0895">
        <ele>87.6</ele>
        <time>2026-05-24T09:03:40Z</time>
      </trkpt>
      <trkpt lat="48.7027" lon="2.08951">
        <ele>87.8</ele>
        <time>2026-05-24T09:03:41Z</time>
      </trkpt>
      <trkpt lat="48.70267" lon="2.08952">
        <ele>87.8</ele>
        <time>2026-05-24T09:03:42Z</time>
      </trkpt>
      <trkpt lat="48.70265" lon="2.08951">
        <ele>87.8</ele>
        <time>2026-05-24T09:03:43Z</time>
      </trkpt>
      <trkpt lat="48.70262" lon="2.08951">
        <ele>88.6</ele>
        <time>2026-05-24T09:03:44Z</time>
      </trkpt>
      <trkpt lat="48.7026" lon="2.08951">
        <ele>88.4</ele>
        <time>2026-05-24T09:03:45Z</time>
      </trkpt>
      <trkpt lat="48.70258" lon="2.08952">
        <ele>88.4</ele>
        <time>2026-05-24T09:03:46Z</time>
      </trkpt>
      <trkpt lat="48.70257" lon="2.08952">
        <ele>88.4</ele>
        <time>2026-05-24T09:03:47Z</time>
      </trkpt>
      <trkpt lat="48.70253" lon="2.08953">
        <ele>88.4</ele>
        <time>2026-05-24T09:03:48Z</time>
      </trkpt>
      <trkpt lat="48.70251" lon="2.08954">
        <ele>89.2</ele>
        <time>2026-05-24T09:03:49Z</time>
      </trkpt>
      <trkpt lat="48.70249" lon="2.08954">
        <ele>89.2</ele>
        <time>2026-05-24T09:03:50Z</time>
      </trkpt>
      <trkpt lat="48.70247" lon="2.08954">
        <ele>89.2</ele>
        <time>2026-05-24T09:03:51Z</time>
      </trkpt>
      <trkpt lat="48.70244" lon="2.08955">
        <ele>89.6</ele>
        <time>2026-05-24T09:03:52Z</time>
      </trkpt>
      <trkpt lat="48.70242" lon="2.08955">
        <ele>89.8</ele>
        <time>2026-05-24T09:03:53Z</time>
      </trkpt>
      <trkpt lat="48.7024" lon="2.08955">
        <ele>89.8</ele>
        <time>2026-05-24T09:03:54Z</time>
      </trkpt>
      <trkpt lat="48.70239" lon="2.08956">
        <ele>89.8</ele>
        <time>2026-05-24T09:03:55Z</time>
      </trkpt>
      <trkpt lat="48.70237" lon="2.08956">
        <ele>89.8</ele>
        <time>2026-05-24T09:03:56Z</time>
      </trkpt>
      <trkpt lat="48.70237" lon="2.08956">
        <ele>90</ele>
        <time>2026-05-24T09:03:57Z</time>
      </trkpt>
      <trkpt lat="48.70237" lon="2.08956">
        <ele>90</ele>
        <time>2026-05-24T09:03:58Z</time>
      </trkpt>
      <trkpt lat="48.70216" lon="2.08965">
        <ele>90.2</ele>
        <time>2026-05-24T09:05:31Z</time>
      </trkpt>
      <trkpt lat="48.70214" lon="2.08965">
        <ele>90.8</ele>
        <time>2026-05-24T09:05:32Z</time>
      </trkpt>
      <trkpt lat="48.70211" lon="2.08966">
        <ele>90.8</ele>
        <time>2026-05-24T09:05:33Z</time>
      </trkpt>
      <trkpt lat="48.70209" lon="2.08968">
        <ele>90.8</ele>
        <time>2026-05-24T09:05:34Z</time>
      </trkpt>
      <trkpt lat="48.70208" lon="2.0897">
        <ele>90.8</ele>
        <time>2026-05-24T09:05:35Z</time>
      </trkpt>
      <trkpt lat="48.70206" lon="2.08974">
        <ele>90.8</ele>
        <time>2026-05-24T09:05:36Z</time>
      </trkpt>
      <trkpt lat="48.70204" lon="2.08978">
        <ele>91.6</ele>
        <time>2026-05-24T09:05:37Z</time>
      </trkpt>
      <trkpt lat="48.70203" lon="2.08981">
        <ele>91.6</ele>
        <time>2026-05-24T09:05:38Z</time>
      </trkpt>
      <trkpt lat="48.70202" lon="2.08986">
        <ele>91.6</ele>
        <time>2026-05-24T09:05:39Z</time>
      </trkpt>
      <trkpt lat="48.70201" lon="2.0899">
        <ele>92.2</ele>
        <time>2026-05-24T09:05:40Z</time>
      </trkpt>
      <trkpt lat="48.70201" lon="2.08993">
        <ele>92.6</ele>
        <time>2026-05-24T09:05:41Z</time>
      </trkpt>
      <trkpt lat="48.70201" lon="2.08996">
        <ele>92.6</ele>
        <time>2026-05-24T09:05:42Z</time>
      </trkpt>
      <trkpt lat="48.702" lon="2.09">
        <ele>92.6</ele>
        <time>2026-05-24T09:05:43Z</time>
      </trkpt>
      <trkpt lat="48.70199" lon="2.09004">
        <ele>92.8</ele>
        <time>2026-05-24T09:05:44Z</time>
      </trkpt>
      <trkpt lat="48.70199" lon="2.09007">
        <ele>92.8</ele>
        <time>2026-05-24T09:05:45Z</time>
      </trkpt>
      <trkpt lat="48.70199" lon="2.0901">
        <ele>92.8</ele>
        <time>2026-05-24T09:05:46Z</time>
      </trkpt>
      <trkpt lat="48.70198" lon="2.09015">
        <ele>92.8</ele>
        <time>2026-05-24T09:05:47Z</time>
      </trkpt>
      <trkpt lat="48.70197" lon="2.09019">
        <ele>93.4</ele>
        <time>2026-05-24T09:05:48Z</time>
      </trkpt>
      <trkpt lat="48.70196" lon="2.09022">
        <ele>93.6</ele>
        <time>2026-05-24T09:05:49Z</time>
      </trkpt>
      <trkpt lat="48.70196" lon="2.09027">
        <ele>93.6</ele>
        <time>2026-05-24T09:05:50Z</time>
      </trkpt>
      <trkpt lat="48.70195" lon="2.09032">
        <ele>93.6</ele>
        <time>2026-05-24T09:05:51Z</time>
      </trkpt>
      <trkpt lat="48.70195" lon="2.09037">
        <ele>93.6</ele>
        <time>2026-05-24T09:05:52Z</time>
      </trkpt>
      <trkpt lat="48.70194" lon="2.09042">
        <ele>93.6</ele>
        <time>2026-05-24T09:05:53Z</time>
      </trkpt>
      <trkpt lat="48.70193" lon="2.09046">
        <ele>93.6</ele>
        <time>2026-05-24T09:05:54Z</time>
      </trkpt>
      <trkpt lat="48.70192" lon="2.0905">
        <ele>93.6</ele>
        <time>2026-05-24T09:05:55Z</time>
      </trkpt>
      <trkpt lat="48.70192" lon="2.09053">
        <ele>93.6</ele>
        <time>2026-05-24T09:05:56Z</time>
      </trkpt>
      <trkpt lat="48.70191" lon="2.09057">
        <ele>94.2</ele>
        <time>2026-05-24T09:05:57Z</time>
      </trkpt>
      <trkpt lat="48.70191" lon="2.09061">
        <ele>94.2</ele>
        <time>2026-05-24T09:05:58Z</time>
      </trkpt>
      <trkpt lat="48.7019" lon="2.09065">
        <ele>94.2</ele>
        <time>2026-05-24T09:05:59Z</time>
      </trkpt>
      <trkpt lat="48.7019" lon="2.09071">
        <ele>94.6</ele>
        <time>2026-05-24T09:06:00Z</time>
      </trkpt>
      <trkpt lat="48.7019" lon="2.09075">
        <ele>95.2</ele>
        <time>2026-05-24T09:06:01Z</time>
      </trkpt>
      <trkpt lat="48.70189" lon="2.0908">
        <ele>95.2</ele>
        <time>2026-05-24T09:06:02Z</time>
      </trkpt>
      <trkpt lat="48.70188" lon="2.09083">
        <ele>95.2</ele>
        <time>2026-05-24T09:06:03Z</time>
      </trkpt>
      <trkpt lat="48.70188" lon="2.09088">
        <ele>95.2</ele>
        <time>2026-05-24T09:06:04Z</time>
      </trkpt>
      <trkpt lat="48.70187" lon="2.09092">
        <ele>95.4</ele>
        <time>2026-05-24T09:06:05Z</time>
      </trkpt>
      <trkpt lat="48.70187" lon="2.09098">
        <ele>95.4</ele>
        <time>2026-05-24T09:06:06Z</time>
      </trkpt>
      <trkpt lat="48.70186" lon="2.09103">
        <ele>95.4</ele>
        <time>2026-05-24T09:06:07Z</time>
      </trkpt>
      <trkpt lat="48.70185" lon="2.09108">
        <ele>95.4</ele>
        <time>2026-05-24T09:06:08Z</time>
      </trkpt>
      <trkpt lat="48.70183" lon="2.09112">
        <ele>95.8</ele>
        <time>2026-05-24T09:06:09Z</time>
      </trkpt>
      <trkpt lat="48.70182" lon="2.09116">
        <ele>95.8</ele>
        <time>2026-05-24T09:06:10Z</time>
      </trkpt>
      <trkpt lat="48.70181" lon="2.09119">
        <ele>95.8</ele>
        <time>2026-05-24T09:06:11Z</time>
      </trkpt>
      <trkpt lat="48.7018" lon="2.09123">
        <ele>96</ele>
        <time>2026-05-24T09:06:12Z</time>
      </trkpt>
      <trkpt lat="48.70179" lon="2.09127">
        <ele>96</ele>
        <time>2026-05-24T09:06:13Z</time>
      </trkpt>
      <trkpt lat="48.70177" lon="2.09131">
        <ele>96</ele>
        <time>2026-05-24T09:06:14Z</time>
      </trkpt>
      <trkpt lat="48.70174" lon="2.09138">
        <ele>96</ele>
        <time>2026-05-24T09:06:15Z</time>
      </trkpt>
      <trkpt lat="48.70171" lon="2.09144">
        <ele>96.6</ele>
        <time>2026-05-24T09:06:16Z</time>
      </trkpt>
      <trkpt lat="48.7017" lon="2.09149">
        <ele>96.8</ele>
        <time>2026-05-24T09:06:17Z</time>
      </trkpt>
      <trkpt lat="48.70167" lon="2.09154">
        <ele>96.8</ele>
        <time>2026-05-24T09:06:18Z</time>
      </trkpt>
      <trkpt lat="48.70165" lon="2.09159">
        <ele>96.8</ele>
        <time>2026-05-24T09:06:19Z</time>
      </trkpt>
      <trkpt lat="48.70163" lon="2.09163">
        <ele>96.8</ele>
        <time>2026-05-24T09:06:20Z</time>
      </trkpt>
      <trkpt lat="48.70162" lon="2.09168">
        <ele>97.2</ele>
        <time>2026-05-24T09:06:21Z</time>
      </trkpt>
      <trkpt lat="48.7016" lon="2.09172">
        <ele>97.2</ele>
        <time>2026-05-24T09:06:22Z</time>
      </trkpt>
      <trkpt lat="48.70158" lon="2.09177">
        <ele>97.2</ele>
        <time>2026-05-24T09:06:23Z</time>
      </trkpt>
      <trkpt lat="48.70156" lon="2.09182">
        <ele>97.4</ele>
        <time>2026-05-24T09:06:24Z</time>
      </trkpt>
      <trkpt lat="48.70155" lon="2.09187">
        <ele>97.2</ele>
        <time>2026-05-24T09:06:25Z</time>
      </trkpt>
      <trkpt lat="48.70153" lon="2.09193">
        <ele>97.2</ele>
        <time>2026-05-24T09:06:26Z</time>
      </trkpt>
      <trkpt lat="48.70152" lon="2.09198">
        <ele>97.2</ele>
        <time>2026-05-24T09:06:27Z</time>
      </trkpt>
      <trkpt lat="48.70151" lon="2.09203">
        <ele>97.2</ele>
        <time>2026-05-24T09:06:28Z</time>
      </trkpt>
      <trkpt lat="48.70149" lon="2.09209">
        <ele>97.2</ele>
        <time>2026-05-24T09:06:29Z</time>
      </trkpt>
      <trkpt lat="48.70146" lon="2.09215">
        <ele>97.2</ele>
        <time>2026-05-24T09:06:30Z</time>
      </trkpt>
      <trkpt lat="48.70144" lon="2.09221">
        <ele>97.2</ele>
        <time>2026-05-24T09:06:31Z</time>
      </trkpt>
      <trkpt lat="48.70141" lon="2.09229">
        <ele>96.8</ele>
        <time>2026-05-24T09:06:32Z</time>
      </trkpt>
      <trkpt lat="48.70137" lon="2.09236">
        <ele>97.4</ele>
        <time>2026-05-24T09:06:33Z</time>
      </trkpt>
      <trkpt lat="48.70133" lon="2.09244">
        <ele>97.4</ele>
        <time>2026-05-24T09:06:34Z</time>
      </trkpt>
      <trkpt lat="48.70129" lon="2.0925">
        <ele>97.4</ele>
        <time>2026-05-24T09:06:35Z</time>
      </trkpt>
      <trkpt lat="48.70125" lon="2.09258">
        <ele>97.4</ele>
        <time>2026-05-24T09:06:36Z</time>
      </trkpt>
      <trkpt lat="48.70123" lon="2.09266">
        <ele>97.2</ele>
        <time>2026-05-24T09:06:37Z</time>
      </trkpt>
      <trkpt lat="48.7012" lon="2.09274">
        <ele>97.2</ele>
        <time>2026-05-24T09:06:38Z</time>
      </trkpt>
      <trkpt lat="48.70118" lon="2.0928">
        <ele>97.2</ele>
        <time>2026-05-24T09:06:39Z</time>
      </trkpt>
      <trkpt lat="48.70117" lon="2.09287">
        <ele>97.2</ele>
        <time>2026-05-24T09:06:40Z</time>
      </trkpt>
      <trkpt lat="48.70115" lon="2.09294">
        <ele>97</ele>
        <time>2026-05-24T09:06:41Z</time>
      </trkpt>
      <trkpt lat="48.70114" lon="2.09302">
        <ele>97</ele>
        <time>2026-05-24T09:06:42Z</time>
      </trkpt>
      <trkpt lat="48.70112" lon="2.09311">
        <ele>97</ele>
        <time>2026-05-24T09:06:43Z</time>
      </trkpt>
      <trkpt lat="48.7011" lon="2.0932">
        <ele>97</ele>
        <time>2026-05-24T09:06:44Z</time>
      </trkpt>
      <trkpt lat="48.70108" lon="2.09329">
        <ele>97</ele>
        <time>2026-05-24T09:06:45Z</time>
      </trkpt>
      <trkpt lat="48.70105" lon="2.09337">
        <ele>97</ele>
        <time>2026-05-24T09:06:46Z</time>
      </trkpt>
      <trkpt lat="48.70103" lon="2.09346">
        <ele>97</ele>
        <time>2026-05-24T09:06:47Z</time>
      </trkpt>
      <trkpt lat="48.701" lon="2.09354">
        <ele>97.6</ele>
        <time>2026-05-24T09:06:48Z</time>
      </trkpt>
      <trkpt lat="48.70098" lon="2.09362">
        <ele>97.6</ele>
        <time>2026-05-24T09:06:49Z</time>
      </trkpt>
      <trkpt lat="48.70096" lon="2.09371">
        <ele>97.6</ele>
        <time>2026-05-24T09:06:50Z</time>
      </trkpt>
      <trkpt lat="48.70094" lon="2.0938">
        <ele>97.6</ele>
        <time>2026-05-24T09:06:51Z</time>
      </trkpt>
      <trkpt lat="48.70091" lon="2.09389">
        <ele>97.4</ele>
        <time>2026-05-24T09:06:52Z</time>
      </trkpt>
      <trkpt lat="48.70088" lon="2.09398">
        <ele>97.8</ele>
        <time>2026-05-24T09:06:53Z</time>
      </trkpt>
      <trkpt lat="48.70086" lon="2.09406">
        <ele>97.8</ele>
        <time>2026-05-24T09:06:54Z</time>
      </trkpt>
      <trkpt lat="48.70083" lon="2.09414">
        <ele>97.8</ele>
        <time>2026-05-24T09:06:55Z</time>
      </trkpt>
      <trkpt lat="48.7008" lon="2.09422">
        <ele>97.8</ele>
        <time>2026-05-24T09:06:56Z</time>
      </trkpt>
      <trkpt lat="48.70078" lon="2.0943">
        <ele>97.8</ele>
        <time>2026-05-24T09:06:57Z</time>
      </trkpt>
      <trkpt lat="48.70076" lon="2.09437">
        <ele>97.8</ele>
        <time>2026-05-24T09:06:58Z</time>
      </trkpt>
      <trkpt lat="48.70073" lon="2.09444">
        <ele>97.8</ele>
        <time>2026-05-24T09:06:59Z</time>
      </trkpt>
      <trkpt lat="48.70071" lon="2.09451">
        <ele>97.8</ele>
        <time>2026-05-24T09:07:00Z</time>
      </trkpt>
      <trkpt lat="48.70069" lon="2.09458">
        <ele>98.4</ele>
        <time>2026-05-24T09:07:01Z</time>
      </trkpt>
      <trkpt lat="48.70066" lon="2.09465">
        <ele>98.4</ele>
        <time>2026-05-24T09:07:02Z</time>
      </trkpt>
      <trkpt lat="48.70064" lon="2.09473">
        <ele>98.4</ele>
        <time>2026-05-24T09:07:03Z</time>
      </trkpt>
      <trkpt lat="48.70063" lon="2.0948">
        <ele>98.4</ele>
        <time>2026-05-24T09:07:04Z</time>
      </trkpt>
      <trkpt lat="48.70061" lon="2.09487">
        <ele>99</ele>
        <time>2026-05-24T09:07:05Z</time>
      </trkpt>
      <trkpt lat="48.7006" lon="2.09494">
        <ele>99</ele>
        <time>2026-05-24T09:07:06Z</time>
      </trkpt>
      <trkpt lat="48.70058" lon="2.09501">
        <ele>99</ele>
        <time>2026-05-24T09:07:07Z</time>
      </trkpt>
      <trkpt lat="48.70056" lon="2.09508">
        <ele>99</ele>
        <time>2026-05-24T09:07:08Z</time>
      </trkpt>
      <trkpt lat="48.70054" lon="2.09515">
        <ele>99.2</ele>
        <time>2026-05-24T09:07:09Z</time>
      </trkpt>
      <trkpt lat="48.70052" lon="2.09522">
        <ele>99.2</ele>
        <time>2026-05-24T09:07:10Z</time>
      </trkpt>
      <trkpt lat="48.70049" lon="2.09529">
        <ele>99.2</ele>
        <time>2026-05-24T09:07:11Z</time>
      </trkpt>
      <trkpt lat="48.70047" lon="2.09535">
        <ele>99.2</ele>
        <time>2026-05-24T09:07:12Z</time>
      </trkpt>
      <trkpt lat="48.70045" lon="2.09542">
        <ele>99.4</ele>
        <time>2026-05-24T09:07:13Z</time>
      </trkpt>
      <trkpt lat="48.70043" lon="2.09549">
        <ele>99.4</ele>
        <time>2026-05-24T09:07:14Z</time>
      </trkpt>
      <trkpt lat="48.70041" lon="2.09556">
        <ele>99.4</ele>
        <time>2026-05-24T09:07:15Z</time>
      </trkpt>
      <trkpt lat="48.70039" lon="2.09563">
        <ele>99.4</ele>
        <time>2026-05-24T09:07:16Z</time>
      </trkpt>
      <trkpt lat="48.70037" lon="2.09569">
        <ele>100</ele>
        <time>2026-05-24T09:07:17Z</time>
      </trkpt>
      <trkpt lat="48.70034" lon="2.09576">
        <ele>100</ele>
        <time>2026-05-24T09:07:18Z</time>
      </trkpt>
      <trkpt lat="48.70032" lon="2.09582">
        <ele>100</ele>
        <time>2026-05-24T09:07:19Z</time>
      </trkpt>
      <trkpt lat="48.70029" lon="2.09589">
        <ele>99.8</ele>
        <time>2026-05-24T09:07:20Z</time>
      </trkpt>
      <trkpt lat="48.70027" lon="2.09595">
        <ele>100.4</ele>
        <time>2026-05-24T09:07:21Z</time>
      </trkpt>
      <trkpt lat="48.70024" lon="2.09602">
        <ele>100.4</ele>
        <time>2026-05-24T09:07:22Z</time>
      </trkpt>
      <trkpt lat="48.70022" lon="2.09609">
        <ele>100.4</ele>
        <time>2026-05-24T09:07:23Z</time>
      </trkpt>
      <trkpt lat="48.7002" lon="2.09616">
        <ele>100.4</ele>
        <time>2026-05-24T09:07:24Z</time>
      </trkpt>
      <trkpt lat="48.70018" lon="2.09623">
        <ele>101</ele>
        <time>2026-05-24T09:07:25Z</time>
      </trkpt>
      <trkpt lat="48.70017" lon="2.09631">
        <ele>101</ele>
        <time>2026-05-24T09:07:26Z</time>
      </trkpt>
      <trkpt lat="48.70015" lon="2.09638">
        <ele>101</ele>
        <time>2026-05-24T09:07:27Z</time>
      </trkpt>
      <trkpt lat="48.70013" lon="2.09645">
        <ele>101</ele>
        <time>2026-05-24T09:07:28Z</time>
      </trkpt>
      <trkpt lat="48.70011" lon="2.09652">
        <ele>100.8</ele>
        <time>2026-05-24T09:07:29Z</time>
      </trkpt>
      <trkpt lat="48.7001" lon="2.0966">
        <ele>100.8</ele>
        <time>2026-05-24T09:07:30Z</time>
      </trkpt>
      <trkpt lat="48.70008" lon="2.09667">
        <ele>100.8</ele>
        <time>2026-05-24T09:07:31Z</time>
      </trkpt>
      <trkpt lat="48.70007" lon="2.09674">
        <ele>100.8</ele>
        <time>2026-05-24T09:07:32Z</time>
      </trkpt>
      <trkpt lat="48.70005" lon="2.0968">
        <ele>101</ele>
        <time>2026-05-24T09:07:33Z</time>
      </trkpt>
      <trkpt lat="48.70004" lon="2.09687">
        <ele>101</ele>
        <time>2026-05-24T09:07:34Z</time>
      </trkpt>
      <trkpt lat="48.70002" lon="2.09693">
        <ele>101</ele>
        <time>2026-05-24T09:07:35Z</time>
      </trkpt>
      <trkpt lat="48.70001" lon="2.097">
        <ele>101.2</ele>
        <time>2026-05-24T09:07:36Z</time>
      </trkpt>
      <trkpt lat="48.69999" lon="2.09708">
        <ele>100.8</ele>
        <time>2026-05-24T09:07:37Z</time>
      </trkpt>
      <trkpt lat="48.69998" lon="2.09714">
        <ele>100.8</ele>
        <time>2026-05-24T09:07:38Z</time>
      </trkpt>
      <trkpt lat="48.69996" lon="2.09721">
        <ele>100.8</ele>
        <time>2026-05-24T09:07:39Z</time>
      </trkpt>
      <trkpt lat="48.69994" lon="2.09728">
        <ele>100.8</ele>
        <time>2026-05-24T09:07:40Z</time>
      </trkpt>
      <trkpt lat="48.69993" lon="2.09735">
        <ele>101.2</ele>
        <time>2026-05-24T09:07:41Z</time>
      </trkpt>
      <trkpt lat="48.69992" lon="2.09742">
        <ele>101.2</ele>
        <time>2026-05-24T09:07:42Z</time>
      </trkpt>
      <trkpt lat="48.6999" lon="2.09749">
        <ele>101.2</ele>
        <time>2026-05-24T09:07:43Z</time>
      </trkpt>
      <trkpt lat="48.69989" lon="2.09757">
        <ele>101.2</ele>
        <time>2026-05-24T09:07:44Z</time>
      </trkpt>
      <trkpt lat="48.69987" lon="2.09765">
        <ele>101.2</ele>
        <time>2026-05-24T09:07:45Z</time>
      </trkpt>
      <trkpt lat="48.69985" lon="2.09772">
        <ele>101.2</ele>
        <time>2026-05-24T09:07:46Z</time>
      </trkpt>
      <trkpt lat="48.69984" lon="2.0978">
        <ele>101.2</ele>
        <time>2026-05-24T09:07:47Z</time>
      </trkpt>
      <trkpt lat="48.69982" lon="2.09788">
        <ele>100.8</ele>
        <time>2026-05-24T09:07:48Z</time>
      </trkpt>
      <trkpt lat="48.6998" lon="2.09797">
        <ele>100.8</ele>
        <time>2026-05-24T09:07:49Z</time>
      </trkpt>
      <trkpt lat="48.69978" lon="2.09805">
        <ele>100.8</ele>
        <time>2026-05-24T09:07:50Z</time>
      </trkpt>
      <trkpt lat="48.69977" lon="2.09814">
        <ele>100.8</ele>
        <time>2026-05-24T09:07:51Z</time>
      </trkpt>
      <trkpt lat="48.69975" lon="2.09822">
        <ele>100</ele>
        <time>2026-05-24T09:07:52Z</time>
      </trkpt>
      <trkpt lat="48.69972" lon="2.09831">
        <ele>99.6</ele>
        <time>2026-05-24T09:07:53Z</time>
      </trkpt>
      <trkpt lat="48.69971" lon="2.0984">
        <ele>99.6</ele>
        <time>2026-05-24T09:07:54Z</time>
      </trkpt>
      <trkpt lat="48.69969" lon="2.0985">
        <ele>99.6</ele>
        <time>2026-05-24T09:07:55Z</time>
      </trkpt>
      <trkpt lat="48.69967" lon="2.0986">
        <ele>99</ele>
        <time>2026-05-24T09:07:56Z</time>
      </trkpt>
      <trkpt lat="48.69966" lon="2.09869">
        <ele>98.2</ele>
        <time>2026-05-24T09:07:57Z</time>
      </trkpt>
      <trkpt lat="48.69968" lon="2.09877">
        <ele>98.2</ele>
        <time>2026-05-24T09:07:58Z</time>
      </trkpt>
      <trkpt lat="48.69972" lon="2.09883">
        <ele>98.2</ele>
        <time>2026-05-24T09:07:59Z</time>
      </trkpt>
      <trkpt lat="48.69978" lon="2.09887">
        <ele>98.2</ele>
        <time>2026-05-24T09:08:00Z</time>
      </trkpt>
      <trkpt lat="48.69984" lon="2.09891">
        <ele>97.8</ele>
        <time>2026-05-24T09:08:01Z</time>
      </trkpt>
      <trkpt lat="48.6999" lon="2.09896">
        <ele>97.8</ele>
        <time>2026-05-24T09:08:02Z</time>
      </trkpt>
      <trkpt lat="48.69995" lon="2.09904">
        <ele>97.8</ele>
        <time>2026-05-24T09:08:03Z</time>
      </trkpt>
      <trkpt lat="48.69999" lon="2.09915">
        <ele>96.8</ele>
        <time>2026-05-24T09:08:04Z</time>
      </trkpt>
      <trkpt lat="48.70001" lon="2.09928">
        <ele>95.6</ele>
        <time>2026-05-24T09:08:05Z</time>
      </trkpt>
      <trkpt lat="48.7" lon="2.09941">
        <ele>95.6</ele>
        <time>2026-05-24T09:08:06Z</time>
      </trkpt>
      <trkpt lat="48.69997" lon="2.09952">
        <ele>95.6</ele>
        <time>2026-05-24T09:08:07Z</time>
      </trkpt>
      <trkpt lat="48.69993" lon="2.09963">
        <ele>94.6</ele>
        <time>2026-05-24T09:08:08Z</time>
      </trkpt>
      <trkpt lat="48.69989" lon="2.09974">
        <ele>95</ele>
        <time>2026-05-24T09:08:09Z</time>
      </trkpt>
      <trkpt lat="48.69986" lon="2.09985">
        <ele>95</ele>
        <time>2026-05-24T09:08:10Z</time>
      </trkpt>
      <trkpt lat="48.69982" lon="2.09996">
        <ele>95</ele>
        <time>2026-05-24T09:08:11Z</time>
      </trkpt>
      <trkpt lat="48.69978" lon="2.10006">
        <ele>94</ele>
        <time>2026-05-24T09:08:12Z</time>
      </trkpt>
      <trkpt lat="48.69974" lon="2.10017">
        <ele>92.4</ele>
        <time>2026-05-24T09:08:13Z</time>
      </trkpt>
      <trkpt lat="48.6997" lon="2.10027">
        <ele>92.4</ele>
        <time>2026-05-24T09:08:14Z</time>
      </trkpt>
      <trkpt lat="48.69966" lon="2.10038">
        <ele>92.4</ele>
        <time>2026-05-24T09:08:15Z</time>
      </trkpt>
      <trkpt lat="48.69962" lon="2.10048">
        <ele>92.6</ele>
        <time>2026-05-24T09:08:16Z</time>
      </trkpt>
      <trkpt lat="48.69958" lon="2.10056">
        <ele>92</ele>
        <time>2026-05-24T09:08:17Z</time>
      </trkpt>
      <trkpt lat="48.69956" lon="2.10064">
        <ele>92</ele>
        <time>2026-05-24T09:08:18Z</time>
      </trkpt>
      <trkpt lat="48.69955" lon="2.10072">
        <ele>92</ele>
        <time>2026-05-24T09:08:19Z</time>
      </trkpt>
      <trkpt lat="48.69958" lon="2.1008">
        <ele>91.2</ele>
        <time>2026-05-24T09:08:20Z</time>
      </trkpt>
      <trkpt lat="48.69962" lon="2.10086">
        <ele>91.2</ele>
        <time>2026-05-24T09:08:21Z</time>
      </trkpt>
      <trkpt lat="48.69968" lon="2.10089">
        <ele>91.2</ele>
        <time>2026-05-24T09:08:22Z</time>
      </trkpt>
      <trkpt lat="48.69974" lon="2.10094">
        <ele>91.2</ele>
        <time>2026-05-24T09:08:23Z</time>
      </trkpt>
      <trkpt lat="48.69981" lon="2.10099">
        <ele>90.2</ele>
        <time>2026-05-24T09:08:24Z</time>
      </trkpt>
      <trkpt lat="48.69987" lon="2.10105">
        <ele>89</ele>
        <time>2026-05-24T09:08:25Z</time>
      </trkpt>
      <trkpt lat="48.69995" lon="2.10112">
        <ele>89</ele>
        <time>2026-05-24T09:08:26Z</time>
      </trkpt>
      <trkpt lat="48.70002" lon="2.1012">
        <ele>89</ele>
        <time>2026-05-24T09:08:27Z</time>
      </trkpt>
      <trkpt lat="48.7001" lon="2.10127">
        <ele>88</ele>
        <time>2026-05-24T09:08:28Z</time>
      </trkpt>
      <trkpt lat="48.70019" lon="2.10134">
        <ele>86.6</ele>
        <time>2026-05-24T09:08:29Z</time>
      </trkpt>
      <trkpt lat="48.70028" lon="2.10139">
        <ele>86.6</ele>
        <time>2026-05-24T09:08:30Z</time>
      </trkpt>
      <trkpt lat="48.70038" lon="2.10143">
        <ele>86.6</ele>
        <time>2026-05-24T09:08:31Z</time>
      </trkpt>
      <trkpt lat="48.70045" lon="2.10146">
        <ele>85.6</ele>
        <time>2026-05-24T09:08:32Z</time>
      </trkpt>
      <trkpt lat="48.70055" lon="2.10148">
        <ele>83.2</ele>
        <time>2026-05-24T09:08:33Z</time>
      </trkpt>
      <trkpt lat="48.70062" lon="2.1015">
        <ele>83.2</ele>
        <time>2026-05-24T09:08:34Z</time>
      </trkpt>
      <trkpt lat="48.70068" lon="2.1015">
        <ele>83.2</ele>
        <time>2026-05-24T09:08:35Z</time>
      </trkpt>
      <trkpt lat="48.70071" lon="2.10152">
        <ele>83.2</ele>
        <time>2026-05-24T09:08:36Z</time>
      </trkpt>
      <trkpt lat="48.70072" lon="2.10156">
        <ele>84</ele>
        <time>2026-05-24T09:08:37Z</time>
      </trkpt>
      <trkpt lat="48.70073" lon="2.1016">
        <ele>84</ele>
        <time>2026-05-24T09:08:38Z</time>
      </trkpt>
      <trkpt lat="48.70072" lon="2.10164">
        <ele>84</ele>
        <time>2026-05-24T09:08:39Z</time>
      </trkpt>
      <trkpt lat="48.70071" lon="2.1017">
        <ele>84.8</ele>
        <time>2026-05-24T09:08:40Z</time>
      </trkpt>
      <trkpt lat="48.7007" lon="2.10176">
        <ele>84</ele>
        <time>2026-05-24T09:08:41Z</time>
      </trkpt>
      <trkpt lat="48.70069" lon="2.10181">
        <ele>84</ele>
        <time>2026-05-24T09:08:42Z</time>
      </trkpt>
      <trkpt lat="48.70068" lon="2.10188">
        <ele>84</ele>
        <time>2026-05-24T09:08:43Z</time>
      </trkpt>
      <trkpt lat="48.70067" lon="2.10197">
        <ele>84</ele>
        <time>2026-05-24T09:08:44Z</time>
      </trkpt>
      <trkpt lat="48.70066" lon="2.10205">
        <ele>83.8</ele>
        <time>2026-05-24T09:08:45Z</time>
      </trkpt>
      <trkpt lat="48.70064" lon="2.10214">
        <ele>83.8</ele>
        <time>2026-05-24T09:08:46Z</time>
      </trkpt>
      <trkpt lat="48.70063" lon="2.10223">
        <ele>83.8</ele>
        <time>2026-05-24T09:08:47Z</time>
      </trkpt>
      <trkpt lat="48.70061" lon="2.10232">
        <ele>83.8</ele>
        <time>2026-05-24T09:08:48Z</time>
      </trkpt>
      <trkpt lat="48.70059" lon="2.10242">
        <ele>83.2</ele>
        <time>2026-05-24T09:08:49Z</time>
      </trkpt>
      <trkpt lat="48.70057" lon="2.10251">
        <ele>83.2</ele>
        <time>2026-05-24T09:08:50Z</time>
      </trkpt>
      <trkpt lat="48.70055" lon="2.1026">
        <ele>83.2</ele>
        <time>2026-05-24T09:08:51Z</time>
      </trkpt>
      <trkpt lat="48.70053" lon="2.1027">
        <ele>83.2</ele>
        <time>2026-05-24T09:08:52Z</time>
      </trkpt>
      <trkpt lat="48.70051" lon="2.10279">
        <ele>83</ele>
        <time>2026-05-24T09:08:53Z</time>
      </trkpt>
      <trkpt lat="48.7005" lon="2.10289">
        <ele>83</ele>
        <time>2026-05-24T09:08:54Z</time>
      </trkpt>
      <trkpt lat="48.70049" lon="2.10298">
        <ele>83</ele>
        <time>2026-05-24T09:08:55Z</time>
      </trkpt>
      <trkpt lat="48.70048" lon="2.10308">
        <ele>83</ele>
        <time>2026-05-24T09:08:56Z</time>
      </trkpt>
      <trkpt lat="48.70049" lon="2.10317">
        <ele>83.2</ele>
        <time>2026-05-24T09:08:57Z</time>
      </trkpt>
      <trkpt lat="48.70049" lon="2.10326">
        <ele>83.2</ele>
        <time>2026-05-24T09:08:58Z</time>
      </trkpt>
      <trkpt lat="48.70049" lon="2.10334">
        <ele>83.2</ele>
        <time>2026-05-24T09:08:59Z</time>
      </trkpt>
      <trkpt lat="48.70048" lon="2.10344">
        <ele>83.2</ele>
        <time>2026-05-24T09:09:00Z</time>
      </trkpt>
      <trkpt lat="48.70048" lon="2.10354">
        <ele>82.8</ele>
        <time>2026-05-24T09:09:01Z</time>
      </trkpt>
      <trkpt lat="48.70048" lon="2.10364">
        <ele>82.8</ele>
        <time>2026-05-24T09:09:02Z</time>
      </trkpt>
      <trkpt lat="48.70047" lon="2.10373">
        <ele>82.8</ele>
        <time>2026-05-24T09:09:03Z</time>
      </trkpt>
      <trkpt lat="48.70048" lon="2.10383">
        <ele>82.8</ele>
        <time>2026-05-24T09:09:04Z</time>
      </trkpt>
      <trkpt lat="48.70048" lon="2.10393">
        <ele>82.8</ele>
        <time>2026-05-24T09:09:05Z</time>
      </trkpt>
      <trkpt lat="48.70047" lon="2.10402">
        <ele>82.8</ele>
        <time>2026-05-24T09:09:06Z</time>
      </trkpt>
      <trkpt lat="48.70046" lon="2.10411">
        <ele>82.8</ele>
        <time>2026-05-24T09:09:07Z</time>
      </trkpt>
      <trkpt lat="48.70046" lon="2.10421">
        <ele>82.8</ele>
        <time>2026-05-24T09:09:08Z</time>
      </trkpt>
      <trkpt lat="48.70046" lon="2.10431">
        <ele>82.6</ele>
        <time>2026-05-24T09:09:09Z</time>
      </trkpt>
      <trkpt lat="48.70046" lon="2.1044">
        <ele>82.6</ele>
        <time>2026-05-24T09:09:10Z</time>
      </trkpt>
      <trkpt lat="48.70046" lon="2.1045">
        <ele>82.6</ele>
        <time>2026-05-24T09:09:11Z</time>
      </trkpt>
      <trkpt lat="48.70046" lon="2.1046">
        <ele>82.6</ele>
        <time>2026-05-24T09:09:12Z</time>
      </trkpt>
      <trkpt lat="48.70046" lon="2.1047">
        <ele>82.8</ele>
        <time>2026-05-24T09:09:13Z</time>
      </trkpt>
      <trkpt lat="48.70046" lon="2.1048">
        <ele>82.8</ele>
        <time>2026-05-24T09:09:14Z</time>
      </trkpt>
      <trkpt lat="48.70046" lon="2.1049">
        <ele>82.8</ele>
        <time>2026-05-24T09:09:15Z</time>
      </trkpt>
      <trkpt lat="48.70046" lon="2.105">
        <ele>82.8</ele>
        <time>2026-05-24T09:09:16Z</time>
      </trkpt>
      <trkpt lat="48.70045" lon="2.1051">
        <ele>82.4</ele>
        <time>2026-05-24T09:09:17Z</time>
      </trkpt>
      <trkpt lat="48.70045" lon="2.10519">
        <ele>82.4</ele>
        <time>2026-05-24T09:09:18Z</time>
      </trkpt>
      <trkpt lat="48.70045" lon="2.10529">
        <ele>82.4</ele>
        <time>2026-05-24T09:09:19Z</time>
      </trkpt>
      <trkpt lat="48.70044" lon="2.10538">
        <ele>82.6</ele>
        <time>2026-05-24T09:09:20Z</time>
      </trkpt>
      <trkpt lat="48.70044" lon="2.10546">
        <ele>83.6</ele>
        <time>2026-05-24T09:09:21Z</time>
      </trkpt>
      <trkpt lat="48.70045" lon="2.10555">
        <ele>83.6</ele>
        <time>2026-05-24T09:09:22Z</time>
      </trkpt>
      <trkpt lat="48.70046" lon="2.10564">
        <ele>83.6</ele>
        <time>2026-05-24T09:09:23Z</time>
      </trkpt>
      <trkpt lat="48.70046" lon="2.10573">
        <ele>83.4</ele>
        <time>2026-05-24T09:09:24Z</time>
      </trkpt>
      <trkpt lat="48.70047" lon="2.10582">
        <ele>83</ele>
        <time>2026-05-24T09:09:25Z</time>
      </trkpt>
      <trkpt lat="48.70047" lon="2.10591">
        <ele>83</ele>
        <time>2026-05-24T09:09:26Z</time>
      </trkpt>
      <trkpt lat="48.70047" lon="2.106">
        <ele>83</ele>
        <time>2026-05-24T09:09:27Z</time>
      </trkpt>
      <trkpt lat="48.70048" lon="2.10609">
        <ele>83.4</ele>
        <time>2026-05-24T09:09:28Z</time>
      </trkpt>
      <trkpt lat="48.70048" lon="2.10618">
        <ele>82.8</ele>
        <time>2026-05-24T09:09:29Z</time>
      </trkpt>
      <trkpt lat="48.70048" lon="2.10627">
        <ele>82.8</ele>
        <time>2026-05-24T09:09:30Z</time>
      </trkpt>
      <trkpt lat="48.70048" lon="2.10636">
        <ele>82.8</ele>
        <time>2026-05-24T09:09:31Z</time>
      </trkpt>
      <trkpt lat="48.70049" lon="2.10645">
        <ele>83</ele>
        <time>2026-05-24T09:09:32Z</time>
      </trkpt>
      <trkpt lat="48.70051" lon="2.10653">
        <ele>83.4</ele>
        <time>2026-05-24T09:09:33Z</time>
      </trkpt>
      <trkpt lat="48.70053" lon="2.10661">
        <ele>83.4</ele>
        <time>2026-05-24T09:09:34Z</time>
      </trkpt>
      <trkpt lat="48.70057" lon="2.10669">
        <ele>83.4</ele>
        <time>2026-05-24T09:09:35Z</time>
      </trkpt>
      <trkpt lat="48.70062" lon="2.10676">
        <ele>82.4</ele>
        <time>2026-05-24T09:09:36Z</time>
      </trkpt>
      <trkpt lat="48.70066" lon="2.10684">
        <ele>82</ele>
        <time>2026-05-24T09:09:37Z</time>
      </trkpt>
      <trkpt lat="48.7007" lon="2.10692">
        <ele>82</ele>
        <time>2026-05-24T09:09:38Z</time>
      </trkpt>
      <trkpt lat="48.70073" lon="2.10702">
        <ele>82</ele>
        <time>2026-05-24T09:09:39Z</time>
      </trkpt>
      <trkpt lat="48.70074" lon="2.10711">
        <ele>82</ele>
        <time>2026-05-24T09:09:40Z</time>
      </trkpt>
      <trkpt lat="48.70074" lon="2.10721">
        <ele>81.8</ele>
        <time>2026-05-24T09:09:41Z</time>
      </trkpt>
      <trkpt lat="48.70074" lon="2.10729">
        <ele>81.8</ele>
        <time>2026-05-24T09:09:42Z</time>
      </trkpt>
      <trkpt lat="48.70073" lon="2.10738">
        <ele>81.8</ele>
        <time>2026-05-24T09:09:43Z</time>
      </trkpt>
      <trkpt lat="48.70072" lon="2.10745">
        <ele>81.8</ele>
        <time>2026-05-24T09:09:44Z</time>
      </trkpt>
      <trkpt lat="48.7007" lon="2.10751">
        <ele>81.8</ele>
        <time>2026-05-24T09:09:45Z</time>
      </trkpt>
      <trkpt lat="48.7007" lon="2.10756">
        <ele>81.8</ele>
        <time>2026-05-24T09:09:46Z</time>
      </trkpt>
      <trkpt lat="48.7007" lon="2.1076">
        <ele>81.8</ele>
        <time>2026-05-24T09:09:47Z</time>
      </trkpt>
      <trkpt lat="48.70069" lon="2.10764">
        <ele>81.6</ele>
        <time>2026-05-24T09:09:48Z</time>
      </trkpt>
      <trkpt lat="48.70068" lon="2.10769">
        <ele>82</ele>
        <time>2026-05-24T09:09:49Z</time>
      </trkpt>
      <trkpt lat="48.70067" lon="2.10773">
        <ele>82</ele>
        <time>2026-05-24T09:09:50Z</time>
      </trkpt>
      <trkpt lat="48.70066" lon="2.10779">
        <ele>82</ele>
        <time>2026-05-24T09:09:51Z</time>
      </trkpt>
      <trkpt lat="48.70067" lon="2.10784">
        <ele>81.4</ele>
        <time>2026-05-24T09:09:52Z</time>
      </trkpt>
      <trkpt lat="48.70067" lon="2.10791">
        <ele>82</ele>
        <time>2026-05-24T09:09:53Z</time>
      </trkpt>
      <trkpt lat="48.70067" lon="2.10798">
        <ele>82</ele>
        <time>2026-05-24T09:09:54Z</time>
      </trkpt>
      <trkpt lat="48.70067" lon="2.10807">
        <ele>82</ele>
        <time>2026-05-24T09:09:55Z</time>
      </trkpt>
      <trkpt lat="48.70068" lon="2.10815">
        <ele>82</ele>
        <time>2026-05-24T09:09:56Z</time>
      </trkpt>
      <trkpt lat="48.70068" lon="2.10823">
        <ele>82</ele>
        <time>2026-05-24T09:09:57Z</time>
      </trkpt>
      <trkpt lat="48.70069" lon="2.10832">
        <ele>82</ele>
        <time>2026-05-24T09:09:58Z</time>
      </trkpt>
      <trkpt lat="48.7007" lon="2.1084">
        <ele>82</ele>
        <time>2026-05-24T09:09:59Z</time>
      </trkpt>
      <trkpt lat="48.7007" lon="2.10848">
        <ele>82</ele>
        <time>2026-05-24T09:10:00Z</time>
      </trkpt>
      <trkpt lat="48.7007" lon="2.10855">
        <ele>82.4</ele>
        <time>2026-05-24T09:10:01Z</time>
      </trkpt>
      <trkpt lat="48.7007" lon="2.10863">
        <ele>82.4</ele>
        <time>2026-05-24T09:10:02Z</time>
      </trkpt>
      <trkpt lat="48.70071" lon="2.10871">
        <ele>82.4</ele>
        <time>2026-05-24T09:10:03Z</time>
      </trkpt>
      <trkpt lat="48.70073" lon="2.10879">
        <ele>82.8</ele>
        <time>2026-05-24T09:10:04Z</time>
      </trkpt>
      <trkpt lat="48.70075" lon="2.10887">
        <ele>83.2</ele>
        <time>2026-05-24T09:10:05Z</time>
      </trkpt>
      <trkpt lat="48.70076" lon="2.10895">
        <ele>83.2</ele>
        <time>2026-05-24T09:10:06Z</time>
      </trkpt>
      <trkpt lat="48.70078" lon="2.10903">
        <ele>83.2</ele>
        <time>2026-05-24T09:10:07Z</time>
      </trkpt>
      <trkpt lat="48.70079" lon="2.10912">
        <ele>83.2</ele>
        <time>2026-05-24T09:10:08Z</time>
      </trkpt>
      <trkpt lat="48.7008" lon="2.1092">
        <ele>82.8</ele>
        <time>2026-05-24T09:10:09Z</time>
      </trkpt>
      <trkpt lat="48.70081" lon="2.10928">
        <ele>82.8</ele>
        <time>2026-05-24T09:10:10Z</time>
      </trkpt>
      <trkpt lat="48.70081" lon="2.10936">
        <ele>82.8</ele>
        <time>2026-05-24T09:10:11Z</time>
      </trkpt>
      <trkpt lat="48.7008" lon="2.10943">
        <ele>82.8</ele>
        <time>2026-05-24T09:10:12Z</time>
      </trkpt>
      <trkpt lat="48.7008" lon="2.1095">
        <ele>83.6</ele>
        <time>2026-05-24T09:10:13Z</time>
      </trkpt>
      <trkpt lat="48.70079" lon="2.10958">
        <ele>83.6</ele>
        <time>2026-05-24T09:10:14Z</time>
      </trkpt>
      <trkpt lat="48.70079" lon="2.10966">
        <ele>83.6</ele>
        <time>2026-05-24T09:10:15Z</time>
      </trkpt>
      <trkpt lat="48.7008" lon="2.10974">
        <ele>83.8</ele>
        <time>2026-05-24T09:10:16Z</time>
      </trkpt>
      <trkpt lat="48.70081" lon="2.10982">
        <ele>83.4</ele>
        <time>2026-05-24T09:10:17Z</time>
      </trkpt>
      <trkpt lat="48.70081" lon="2.10991">
        <ele>83.4</ele>
        <time>2026-05-24T09:10:18Z</time>
      </trkpt>
      <trkpt lat="48.70081" lon="2.10999">
        <ele>83.4</ele>
        <time>2026-05-24T09:10:19Z</time>
      </trkpt>
      <trkpt lat="48.70082" lon="2.11007">
        <ele>83.4</ele>
        <time>2026-05-24T09:10:20Z</time>
      </trkpt>
      <trkpt lat="48.70082" lon="2.11015">
        <ele>84.6</ele>
        <time>2026-05-24T09:10:21Z</time>
      </trkpt>
      <trkpt lat="48.70083" lon="2.11023">
        <ele>84.6</ele>
        <time>2026-05-24T09:10:22Z</time>
      </trkpt>
      <trkpt lat="48.70083" lon="2.1103">
        <ele>84.6</ele>
        <time>2026-05-24T09:10:23Z</time>
      </trkpt>
      <trkpt lat="48.70084" lon="2.11038">
        <ele>84.6</ele>
        <time>2026-05-24T09:10:24Z</time>
      </trkpt>
      <trkpt lat="48.70084" lon="2.11045">
        <ele>85.2</ele>
        <time>2026-05-24T09:10:25Z</time>
      </trkpt>
      <trkpt lat="48.70085" lon="2.11054">
        <ele>85.2</ele>
        <time>2026-05-24T09:10:26Z</time>
      </trkpt>
      <trkpt lat="48.70085" lon="2.11061">
        <ele>85.2</ele>
        <time>2026-05-24T09:10:27Z</time>
      </trkpt>
      <trkpt lat="48.70085" lon="2.1107">
        <ele>85.2</ele>
        <time>2026-05-24T09:10:28Z</time>
      </trkpt>
      <trkpt lat="48.70085" lon="2.11078">
        <ele>85.8</ele>
        <time>2026-05-24T09:10:29Z</time>
      </trkpt>
      <trkpt lat="48.70085" lon="2.11086">
        <ele>85.8</ele>
        <time>2026-05-24T09:10:30Z</time>
      </trkpt>
      <trkpt lat="48.70085" lon="2.11094">
        <ele>85.8</ele>
        <time>2026-05-24T09:10:31Z</time>
      </trkpt>
      <trkpt lat="48.70085" lon="2.11102">
        <ele>84.8</ele>
        <time>2026-05-24T09:10:32Z</time>
      </trkpt>
      <trkpt lat="48.70085" lon="2.11111">
        <ele>84</ele>
        <time>2026-05-24T09:10:33Z</time>
      </trkpt>
      <trkpt lat="48.70086" lon="2.1112">
        <ele>84</ele>
        <time>2026-05-24T09:10:34Z</time>
      </trkpt>
      <trkpt lat="48.7009" lon="2.11129">
        <ele>84</ele>
        <time>2026-05-24T09:10:35Z</time>
      </trkpt>
      <trkpt lat="48.70094" lon="2.11136">
        <ele>83</ele>
        <time>2026-05-24T09:10:36Z</time>
      </trkpt>
      <trkpt lat="48.70099" lon="2.11143">
        <ele>81.8</ele>
        <time>2026-05-24T09:10:37Z</time>
      </trkpt>
      <trkpt lat="48.70102" lon="2.11151">
        <ele>81.8</ele>
        <time>2026-05-24T09:10:38Z</time>
      </trkpt>
      <trkpt lat="48.70106" lon="2.11157">
        <ele>81.8</ele>
        <time>2026-05-24T09:10:39Z</time>
      </trkpt>
      <trkpt lat="48.7011" lon="2.11161">
        <ele>81.8</ele>
        <time>2026-05-24T09:10:40Z</time>
      </trkpt>
      <trkpt lat="48.70113" lon="2.11162">
        <ele>81.8</ele>
        <time>2026-05-24T09:10:41Z</time>
      </trkpt>
      <trkpt lat="48.70118" lon="2.11162">
        <ele>81.8</ele>
        <time>2026-05-24T09:10:42Z</time>
      </trkpt>
      <trkpt lat="48.70123" lon="2.11163">
        <ele>81.8</ele>
        <time>2026-05-24T09:10:43Z</time>
      </trkpt>
      <trkpt lat="48.70129" lon="2.11163">
        <ele>81</ele>
        <time>2026-05-24T09:10:44Z</time>
      </trkpt>
      <trkpt lat="48.70136" lon="2.11164">
        <ele>80</ele>
        <time>2026-05-24T09:10:45Z</time>
      </trkpt>
      <trkpt lat="48.70143" lon="2.11164">
        <ele>80</ele>
        <time>2026-05-24T09:10:46Z</time>
      </trkpt>
      <trkpt lat="48.70151" lon="2.11166">
        <ele>80</ele>
        <time>2026-05-24T09:10:47Z</time>
      </trkpt>
      <trkpt lat="48.70158" lon="2.11167">
        <ele>79</ele>
        <time>2026-05-24T09:10:48Z</time>
      </trkpt>
      <trkpt lat="48.70165" lon="2.11167">
        <ele>79.2</ele>
        <time>2026-05-24T09:10:49Z</time>
      </trkpt>
      <trkpt lat="48.70172" lon="2.11168">
        <ele>79.2</ele>
        <time>2026-05-24T09:10:50Z</time>
      </trkpt>
      <trkpt lat="48.70178" lon="2.11167">
        <ele>79.2</ele>
        <time>2026-05-24T09:10:51Z</time>
      </trkpt>
      <trkpt lat="48.70185" lon="2.11166">
        <ele>79.2</ele>
        <time>2026-05-24T09:10:52Z</time>
      </trkpt>
      <trkpt lat="48.70192" lon="2.11164">
        <ele>78.6</ele>
        <time>2026-05-24T09:10:53Z</time>
      </trkpt>
      <trkpt lat="48.70198" lon="2.11161">
        <ele>78.6</ele>
        <time>2026-05-24T09:10:54Z</time>
      </trkpt>
      <trkpt lat="48.70204" lon="2.11158">
        <ele>78.6</ele>
        <time>2026-05-24T09:10:55Z</time>
      </trkpt>
      <trkpt lat="48.7021" lon="2.11155">
        <ele>78.6</ele>
        <time>2026-05-24T09:10:56Z</time>
      </trkpt>
      <trkpt lat="48.70216" lon="2.11152">
        <ele>78.6</ele>
        <time>2026-05-24T09:10:57Z</time>
      </trkpt>
      <trkpt lat="48.70222" lon="2.11149">
        <ele>78.6</ele>
        <time>2026-05-24T09:10:58Z</time>
      </trkpt>
      <trkpt lat="48.70228" lon="2.11145">
        <ele>78.6</ele>
        <time>2026-05-24T09:10:59Z</time>
      </trkpt>
      <trkpt lat="48.70235" lon="2.11142">
        <ele>78.6</ele>
        <time>2026-05-24T09:11:00Z</time>
      </trkpt>
      <trkpt lat="48.70241" lon="2.11138">
        <ele>77.8</ele>
        <time>2026-05-24T09:11:01Z</time>
      </trkpt>
      <trkpt lat="48.70248" lon="2.11134">
        <ele>77.8</ele>
        <time>2026-05-24T09:11:02Z</time>
      </trkpt>
      <trkpt lat="48.70254" lon="2.1113">
        <ele>77.8</ele>
        <time>2026-05-24T09:11:03Z</time>
      </trkpt>
      <trkpt lat="48.7026" lon="2.11127">
        <ele>78.6</ele>
        <time>2026-05-24T09:11:04Z</time>
      </trkpt>
      <trkpt lat="48.70265" lon="2.11126">
        <ele>78.4</ele>
        <time>2026-05-24T09:11:05Z</time>
      </trkpt>
      <trkpt lat="48.70271" lon="2.11126">
        <ele>78.4</ele>
        <time>2026-05-24T09:11:06Z</time>
      </trkpt>
      <trkpt lat="48.70275" lon="2.11126">
        <ele>78.4</ele>
        <time>2026-05-24T09:11:07Z</time>
      </trkpt>
      <trkpt lat="48.70278" lon="2.11128">
        <ele>78.6</ele>
        <time>2026-05-24T09:11:08Z</time>
      </trkpt>
      <trkpt lat="48.70278" lon="2.1113">
        <ele>78.4</ele>
        <time>2026-05-24T09:11:09Z</time>
      </trkpt>
      <trkpt lat="48.70277" lon="2.11133">
        <ele>78.4</ele>
        <time>2026-05-24T09:11:10Z</time>
      </trkpt>
      <trkpt lat="48.70277" lon="2.11136">
        <ele>78.4</ele>
        <time>2026-05-24T09:11:11Z</time>
      </trkpt>
      <trkpt lat="48.70277" lon="2.11142">
        <ele>78.4</ele>
        <time>2026-05-24T09:11:12Z</time>
      </trkpt>
      <trkpt lat="48.70276" lon="2.11149">
        <ele>78.2</ele>
        <time>2026-05-24T09:11:13Z</time>
      </trkpt>
      <trkpt lat="48.70276" lon="2.11155">
        <ele>78.2</ele>
        <time>2026-05-24T09:11:14Z</time>
      </trkpt>
      <trkpt lat="48.70276" lon="2.11163">
        <ele>78.2</ele>
        <time>2026-05-24T09:11:15Z</time>
      </trkpt>
      <trkpt lat="48.70276" lon="2.11171">
        <ele>78.2</ele>
        <time>2026-05-24T09:11:16Z</time>
      </trkpt>
      <trkpt lat="48.70276" lon="2.1118">
        <ele>78.6</ele>
        <time>2026-05-24T09:11:17Z</time>
      </trkpt>
      <trkpt lat="48.70277" lon="2.11188">
        <ele>78.6</ele>
        <time>2026-05-24T09:11:18Z</time>
      </trkpt>
      <trkpt lat="48.70277" lon="2.11196">
        <ele>78.6</ele>
        <time>2026-05-24T09:11:19Z</time>
      </trkpt>
      <trkpt lat="48.70277" lon="2.11204">
        <ele>78.6</ele>
        <time>2026-05-24T09:11:20Z</time>
      </trkpt>
      <trkpt lat="48.70276" lon="2.11212">
        <ele>79</ele>
        <time>2026-05-24T09:11:21Z</time>
      </trkpt>
      <trkpt lat="48.70275" lon="2.11221">
        <ele>79</ele>
        <time>2026-05-24T09:11:22Z</time>
      </trkpt>
      <trkpt lat="48.70273" lon="2.11229">
        <ele>79</ele>
        <time>2026-05-24T09:11:23Z</time>
      </trkpt>
      <trkpt lat="48.70271" lon="2.11237">
        <ele>78.2</ele>
        <time>2026-05-24T09:11:24Z</time>
      </trkpt>
      <trkpt lat="48.7027" lon="2.11243">
        <ele>78.6</ele>
        <time>2026-05-24T09:11:25Z</time>
      </trkpt>
      <trkpt lat="48.70268" lon="2.1125">
        <ele>78.6</ele>
        <time>2026-05-24T09:11:26Z</time>
      </trkpt>
      <trkpt lat="48.70265" lon="2.11254">
        <ele>78.6</ele>
        <time>2026-05-24T09:11:27Z</time>
      </trkpt>
      <trkpt lat="48.70261" lon="2.11256">
        <ele>77.8</ele>
        <time>2026-05-24T09:11:28Z</time>
      </trkpt>
      <trkpt lat="48.70257" lon="2.11259">
        <ele>77.4</ele>
        <time>2026-05-24T09:11:29Z</time>
      </trkpt>
      <trkpt lat="48.70255" lon="2.11265">
        <ele>77.4</ele>
        <time>2026-05-24T09:11:30Z</time>
      </trkpt>
      <trkpt lat="48.70255" lon="2.11271">
        <ele>77.4</ele>
        <time>2026-05-24T09:11:31Z</time>
      </trkpt>
      <trkpt lat="48.70254" lon="2.11278">
        <ele>78</ele>
        <time>2026-05-24T09:11:32Z</time>
      </trkpt>
      <trkpt lat="48.70252" lon="2.11285">
        <ele>77.4</ele>
        <time>2026-05-24T09:11:33Z</time>
      </trkpt>
      <trkpt lat="48.70251" lon="2.11292">
        <ele>77.4</ele>
        <time>2026-05-24T09:11:34Z</time>
      </trkpt>
      <trkpt lat="48.70249" lon="2.113">
        <ele>77.4</ele>
        <time>2026-05-24T09:11:35Z</time>
      </trkpt>
      <trkpt lat="48.70247" lon="2.11307">
        <ele>77.8</ele>
        <time>2026-05-24T09:11:36Z</time>
      </trkpt>
      <trkpt lat="48.70245" lon="2.11315">
        <ele>77.4</ele>
        <time>2026-05-24T09:11:37Z</time>
      </trkpt>
      <trkpt lat="48.70244" lon="2.11324">
        <ele>77.4</ele>
        <time>2026-05-24T09:11:38Z</time>
      </trkpt>
      <trkpt lat="48.70242" lon="2.11332">
        <ele>77.4</ele>
        <time>2026-05-24T09:11:39Z</time>
      </trkpt>
      <trkpt lat="48.7024" lon="2.1134">
        <ele>77.4</ele>
        <time>2026-05-24T09:11:40Z</time>
      </trkpt>
      <trkpt lat="48.70239" lon="2.11349">
        <ele>77.8</ele>
        <time>2026-05-24T09:11:41Z</time>
      </trkpt>
      <trkpt lat="48.70236" lon="2.11357">
        <ele>77.8</ele>
        <time>2026-05-24T09:11:42Z</time>
      </trkpt>
      <trkpt lat="48.70235" lon="2.11367">
        <ele>77.8</ele>
        <time>2026-05-24T09:11:43Z</time>
      </trkpt>
      <trkpt lat="48.70233" lon="2.11375">
        <ele>78.6</ele>
        <time>2026-05-24T09:11:44Z</time>
      </trkpt>
      <trkpt lat="48.70231" lon="2.11384">
        <ele>78</ele>
        <time>2026-05-24T09:11:45Z</time>
      </trkpt>
      <trkpt lat="48.7023" lon="2.11393">
        <ele>78</ele>
        <time>2026-05-24T09:11:46Z</time>
      </trkpt>
      <trkpt lat="48.70228" lon="2.11401">
        <ele>78</ele>
        <time>2026-05-24T09:11:47Z</time>
      </trkpt>
      <trkpt lat="48.70227" lon="2.1141">
        <ele>78.4</ele>
        <time>2026-05-24T09:11:48Z</time>
      </trkpt>
      <trkpt lat="48.70225" lon="2.1142">
        <ele>78</ele>
        <time>2026-05-24T09:11:49Z</time>
      </trkpt>
      <trkpt lat="48.70223" lon="2.11428">
        <ele>78</ele>
        <time>2026-05-24T09:11:50Z</time>
      </trkpt>
      <trkpt lat="48.7022" lon="2.11436">
        <ele>78</ele>
        <time>2026-05-24T09:11:51Z</time>
      </trkpt>
      <trkpt lat="48.70219" lon="2.11444">
        <ele>79</ele>
        <time>2026-05-24T09:11:52Z</time>
      </trkpt>
      <trkpt lat="48.70217" lon="2.11451">
        <ele>78.4</ele>
        <time>2026-05-24T09:11:53Z</time>
      </trkpt>
      <trkpt lat="48.70213" lon="2.11454">
        <ele>78.4</ele>
        <time>2026-05-24T09:11:54Z</time>
      </trkpt>
      <trkpt lat="48.70209" lon="2.11454">
        <ele>78.4</ele>
        <time>2026-05-24T09:11:55Z</time>
      </trkpt>
      <trkpt lat="48.70205" lon="2.11453">
        <ele>78.4</ele>
        <time>2026-05-24T09:11:56Z</time>
      </trkpt>
      <trkpt lat="48.702" lon="2.11452">
        <ele>77.6</ele>
        <time>2026-05-24T09:11:57Z</time>
      </trkpt>
      <trkpt lat="48.70195" lon="2.11452">
        <ele>77.6</ele>
        <time>2026-05-24T09:11:58Z</time>
      </trkpt>
      <trkpt lat="48.70189" lon="2.1145">
        <ele>77.6</ele>
        <time>2026-05-24T09:11:59Z</time>
      </trkpt>
      <trkpt lat="48.70183" lon="2.11449">
        <ele>77.6</ele>
        <time>2026-05-24T09:12:00Z</time>
      </trkpt>
      <trkpt lat="48.70177" lon="2.11447">
        <ele>77</ele>
        <time>2026-05-24T09:12:01Z</time>
      </trkpt>
      <trkpt lat="48.70172" lon="2.11446">
        <ele>77</ele>
        <time>2026-05-24T09:12:02Z</time>
      </trkpt>
      <trkpt lat="48.70166" lon="2.11444">
        <ele>77</ele>
        <time>2026-05-24T09:12:03Z</time>
      </trkpt>
      <trkpt lat="48.7016" lon="2.11442">
        <ele>77</ele>
        <time>2026-05-24T09:12:04Z</time>
      </trkpt>
      <trkpt lat="48.70154" lon="2.11439">
        <ele>77.6</ele>
        <time>2026-05-24T09:12:05Z</time>
      </trkpt>
      <trkpt lat="48.70149" lon="2.11436">
        <ele>77.6</ele>
        <time>2026-05-24T09:12:06Z</time>
      </trkpt>
      <trkpt lat="48.70144" lon="2.11434">
        <ele>77.6</ele>
        <time>2026-05-24T09:12:07Z</time>
      </trkpt>
      <trkpt lat="48.70139" lon="2.11432">
        <ele>78.4</ele>
        <time>2026-05-24T09:12:08Z</time>
      </trkpt>
      <trkpt lat="48.70134" lon="2.11429">
        <ele>77.6</ele>
        <time>2026-05-24T09:12:09Z</time>
      </trkpt>
      <trkpt lat="48.70128" lon="2.11431">
        <ele>77.6</ele>
        <time>2026-05-24T09:12:10Z</time>
      </trkpt>
      <trkpt lat="48.70125" lon="2.11436">
        <ele>77.6</ele>
        <time>2026-05-24T09:12:11Z</time>
      </trkpt>
      <trkpt lat="48.70123" lon="2.11442">
        <ele>77.6</ele>
        <time>2026-05-24T09:12:12Z</time>
      </trkpt>
      <trkpt lat="48.70121" lon="2.11449">
        <ele>77.4</ele>
        <time>2026-05-24T09:12:13Z</time>
      </trkpt>
      <trkpt lat="48.7012" lon="2.11456">
        <ele>77.4</ele>
        <time>2026-05-24T09:12:14Z</time>
      </trkpt>
      <trkpt lat="48.70118" lon="2.11463">
        <ele>77.4</ele>
        <time>2026-05-24T09:12:15Z</time>
      </trkpt>
      <trkpt lat="48.70117" lon="2.1147">
        <ele>77.6</ele>
        <time>2026-05-24T09:12:16Z</time>
      </trkpt>
      <trkpt lat="48.70116" lon="2.11476">
        <ele>77.2</ele>
        <time>2026-05-24T09:12:17Z</time>
      </trkpt>
      <trkpt lat="48.70115" lon="2.11484">
        <ele>77.2</ele>
        <time>2026-05-24T09:12:18Z</time>
      </trkpt>
      <trkpt lat="48.70114" lon="2.11491">
        <ele>77.2</ele>
        <time>2026-05-24T09:12:19Z</time>
      </trkpt>
      <trkpt lat="48.70113" lon="2.11499">
        <ele>77.2</ele>
        <time>2026-05-24T09:12:20Z</time>
      </trkpt>
      <trkpt lat="48.70112" lon="2.11508">
        <ele>77.4</ele>
        <time>2026-05-24T09:12:21Z</time>
      </trkpt>
      <trkpt lat="48.70111" lon="2.11516">
        <ele>77.4</ele>
        <time>2026-05-24T09:12:22Z</time>
      </trkpt>
      <trkpt lat="48.70111" lon="2.11525">
        <ele>77.4</ele>
        <time>2026-05-24T09:12:23Z</time>
      </trkpt>
      <trkpt lat="48.7011" lon="2.11532">
        <ele>77.4</ele>
        <time>2026-05-24T09:12:24Z</time>
      </trkpt>
      <trkpt lat="48.7011" lon="2.1154">
        <ele>77.4</ele>
        <time>2026-05-24T09:12:25Z</time>
      </trkpt>
      <trkpt lat="48.70108" lon="2.11549">
        <ele>77.4</ele>
        <time>2026-05-24T09:12:26Z</time>
      </trkpt>
      <trkpt lat="48.70107" lon="2.11557">
        <ele>77.4</ele>
        <time>2026-05-24T09:12:27Z</time>
      </trkpt>
      <trkpt lat="48.70104" lon="2.11566">
        <ele>77.4</ele>
        <time>2026-05-24T09:12:28Z</time>
      </trkpt>
      <trkpt lat="48.70102" lon="2.11574">
        <ele>76.8</ele>
        <time>2026-05-24T09:12:29Z</time>
      </trkpt>
      <trkpt lat="48.701" lon="2.11582">
        <ele>76.8</ele>
        <time>2026-05-24T09:12:30Z</time>
      </trkpt>
      <trkpt lat="48.70097" lon="2.11589">
        <ele>76.8</ele>
        <time>2026-05-24T09:12:31Z</time>
      </trkpt>
      <trkpt lat="48.70094" lon="2.11597">
        <ele>76.8</ele>
        <time>2026-05-24T09:12:32Z</time>
      </trkpt>
      <trkpt lat="48.70092" lon="2.11605">
        <ele>77.8</ele>
        <time>2026-05-24T09:12:33Z</time>
      </trkpt>
      <trkpt lat="48.70089" lon="2.11613">
        <ele>77.8</ele>
        <time>2026-05-24T09:12:34Z</time>
      </trkpt>
      <trkpt lat="48.70086" lon="2.11621">
        <ele>77.8</ele>
        <time>2026-05-24T09:12:35Z</time>
      </trkpt>
      <trkpt lat="48.70084" lon="2.11631">
        <ele>77.8</ele>
        <time>2026-05-24T09:12:36Z</time>
      </trkpt>
      <trkpt lat="48.70082" lon="2.11639">
        <ele>77.4</ele>
        <time>2026-05-24T09:12:37Z</time>
      </trkpt>
      <trkpt lat="48.70081" lon="2.11647">
        <ele>77.4</ele>
        <time>2026-05-24T09:12:38Z</time>
      </trkpt>
      <trkpt lat="48.7008" lon="2.11655">
        <ele>77.4</ele>
        <time>2026-05-24T09:12:39Z</time>
      </trkpt>
      <trkpt lat="48.70078" lon="2.11664">
        <ele>77.4</ele>
        <time>2026-05-24T09:12:40Z</time>
      </trkpt>
      <trkpt lat="48.70077" lon="2.11672">
        <ele>77.6</ele>
        <time>2026-05-24T09:12:41Z</time>
      </trkpt>
      <trkpt lat="48.70075" lon="2.11679">
        <ele>77.6</ele>
        <time>2026-05-24T09:12:42Z</time>
      </trkpt>
      <trkpt lat="48.70072" lon="2.11687">
        <ele>77.6</ele>
        <time>2026-05-24T09:12:43Z</time>
      </trkpt>
      <trkpt lat="48.7007" lon="2.11695">
        <ele>77.6</ele>
        <time>2026-05-24T09:12:44Z</time>
      </trkpt>
      <trkpt lat="48.70068" lon="2.11703">
        <ele>77.6</ele>
        <time>2026-05-24T09:12:45Z</time>
      </trkpt>
      <trkpt lat="48.70067" lon="2.11712">
        <ele>77.6</ele>
        <time>2026-05-24T09:12:46Z</time>
      </trkpt>
      <trkpt lat="48.70065" lon="2.11722">
        <ele>77.6</ele>
        <time>2026-05-24T09:12:47Z</time>
      </trkpt>
      <trkpt lat="48.70067" lon="2.11731">
        <ele>77.6</ele>
        <time>2026-05-24T09:12:48Z</time>
      </trkpt>
      <trkpt lat="48.70068" lon="2.1174">
        <ele>77</ele>
        <time>2026-05-24T09:12:49Z</time>
      </trkpt>
      <trkpt lat="48.70068" lon="2.1175">
        <ele>77</ele>
        <time>2026-05-24T09:12:50Z</time>
      </trkpt>
      <trkpt lat="48.70066" lon="2.11759">
        <ele>77</ele>
        <time>2026-05-24T09:12:51Z</time>
      </trkpt>
      <trkpt lat="48.70064" lon="2.11769">
        <ele>77</ele>
        <time>2026-05-24T09:12:52Z</time>
      </trkpt>
      <trkpt lat="48.70062" lon="2.11778">
        <ele>76.4</ele>
        <time>2026-05-24T09:12:53Z</time>
      </trkpt>
      <trkpt lat="48.70061" lon="2.11788">
        <ele>76.4</ele>
        <time>2026-05-24T09:12:54Z</time>
      </trkpt>
      <trkpt lat="48.70061" lon="2.11799">
        <ele>76.4</ele>
        <time>2026-05-24T09:12:55Z</time>
      </trkpt>
      <trkpt lat="48.70062" lon="2.11809">
        <ele>76.4</ele>
        <time>2026-05-24T09:12:56Z</time>
      </trkpt>
      <trkpt lat="48.70063" lon="2.11819">
        <ele>76.6</ele>
        <time>2026-05-24T09:12:57Z</time>
      </trkpt>
      <trkpt lat="48.70065" lon="2.11828">
        <ele>76.6</ele>
        <time>2026-05-24T09:12:58Z</time>
      </trkpt>
      <trkpt lat="48.70067" lon="2.11838">
        <ele>76.6</ele>
        <time>2026-05-24T09:12:59Z</time>
      </trkpt>
      <trkpt lat="48.70069" lon="2.11847">
        <ele>77.6</ele>
        <time>2026-05-24T09:13:00Z</time>
      </trkpt>
      <trkpt lat="48.70071" lon="2.11857">
        <ele>77.2</ele>
        <time>2026-05-24T09:13:01Z</time>
      </trkpt>
      <trkpt lat="48.70073" lon="2.11866">
        <ele>77.2</ele>
        <time>2026-05-24T09:13:02Z</time>
      </trkpt>
      <trkpt lat="48.70076" lon="2.11875">
        <ele>77.2</ele>
        <time>2026-05-24T09:13:03Z</time>
      </trkpt>
      <trkpt lat="48.70078" lon="2.11884">
        <ele>76.6</ele>
        <time>2026-05-24T09:13:04Z</time>
      </trkpt>
      <trkpt lat="48.70081" lon="2.11893">
        <ele>77.2</ele>
        <time>2026-05-24T09:13:05Z</time>
      </trkpt>
      <trkpt lat="48.70083" lon="2.11902">
        <ele>77.2</ele>
        <time>2026-05-24T09:13:06Z</time>
      </trkpt>
      <trkpt lat="48.70085" lon="2.11911">
        <ele>77.2</ele>
        <time>2026-05-24T09:13:07Z</time>
      </trkpt>
      <trkpt lat="48.70087" lon="2.1192">
        <ele>76.8</ele>
        <time>2026-05-24T09:13:08Z</time>
      </trkpt>
      <trkpt lat="48.70089" lon="2.11929">
        <ele>77.2</ele>
        <time>2026-05-24T09:13:09Z</time>
      </trkpt>
      <trkpt lat="48.70091" lon="2.11938">
        <ele>77.2</ele>
        <time>2026-05-24T09:13:10Z</time>
      </trkpt>
      <trkpt lat="48.70092" lon="2.11948">
        <ele>77.2</ele>
        <time>2026-05-24T09:13:11Z</time>
      </trkpt>
      <trkpt lat="48.70093" lon="2.11957">
        <ele>77.2</ele>
        <time>2026-05-24T09:13:12Z</time>
      </trkpt>
      <trkpt lat="48.70094" lon="2.11966">
        <ele>76.4</ele>
        <time>2026-05-24T09:13:13Z</time>
      </trkpt>
      <trkpt lat="48.70095" lon="2.11976">
        <ele>76.4</ele>
        <time>2026-05-24T09:13:14Z</time>
      </trkpt>
      <trkpt lat="48.70096" lon="2.11986">
        <ele>76.4</ele>
        <time>2026-05-24T09:13:15Z</time>
      </trkpt>
      <trkpt lat="48.70096" lon="2.11995">
        <ele>76.8</ele>
        <time>2026-05-24T09:13:16Z</time>
      </trkpt>
      <trkpt lat="48.70097" lon="2.12004">
        <ele>76.8</ele>
        <time>2026-05-24T09:13:17Z</time>
      </trkpt>
      <trkpt lat="48.70097" lon="2.12014">
        <ele>76.8</ele>
        <time>2026-05-24T09:13:18Z</time>
      </trkpt>
      <trkpt lat="48.70098" lon="2.12023">
        <ele>76.8</ele>
        <time>2026-05-24T09:13:19Z</time>
      </trkpt>
      <trkpt lat="48.701" lon="2.12032">
        <ele>76.8</ele>
        <time>2026-05-24T09:13:20Z</time>
      </trkpt>
      <trkpt lat="48.70101" lon="2.12041">
        <ele>76</ele>
        <time>2026-05-24T09:13:21Z</time>
      </trkpt>
      <trkpt lat="48.70102" lon="2.1205">
        <ele>76</ele>
        <time>2026-05-24T09:13:22Z</time>
      </trkpt>
      <trkpt lat="48.70105" lon="2.12059">
        <ele>76</ele>
        <time>2026-05-24T09:13:23Z</time>
      </trkpt>
      <trkpt lat="48.70107" lon="2.12068">
        <ele>77</ele>
        <time>2026-05-24T09:13:24Z</time>
      </trkpt>
      <trkpt lat="48.70109" lon="2.12076">
        <ele>76.8</ele>
        <time>2026-05-24T09:13:25Z</time>
      </trkpt>
      <trkpt lat="48.70111" lon="2.12085">
        <ele>76.8</ele>
        <time>2026-05-24T09:13:26Z</time>
      </trkpt>
      <trkpt lat="48.70112" lon="2.12093">
        <ele>76.8</ele>
        <time>2026-05-24T09:13:27Z</time>
      </trkpt>
      <trkpt lat="48.70113" lon="2.12102">
        <ele>76.8</ele>
        <time>2026-05-24T09:13:28Z</time>
      </trkpt>
      <trkpt lat="48.70112" lon="2.12111">
        <ele>77.8</ele>
        <time>2026-05-24T09:13:29Z</time>
      </trkpt>
      <trkpt lat="48.70111" lon="2.1212">
        <ele>77.8</ele>
        <time>2026-05-24T09:13:30Z</time>
      </trkpt>
      <trkpt lat="48.7011" lon="2.12128">
        <ele>77.8</ele>
        <time>2026-05-24T09:13:31Z</time>
      </trkpt>
      <trkpt lat="48.70108" lon="2.12137">
        <ele>77</ele>
        <time>2026-05-24T09:13:32Z</time>
      </trkpt>
      <trkpt lat="48.70107" lon="2.12146">
        <ele>77.6</ele>
        <time>2026-05-24T09:13:33Z</time>
      </trkpt>
      <trkpt lat="48.70105" lon="2.12155">
        <ele>77.6</ele>
        <time>2026-05-24T09:13:34Z</time>
      </trkpt>
      <trkpt lat="48.70104" lon="2.12164">
        <ele>77.6</ele>
        <time>2026-05-24T09:13:35Z</time>
      </trkpt>
      <trkpt lat="48.70102" lon="2.12173">
        <ele>77</ele>
        <time>2026-05-24T09:13:36Z</time>
      </trkpt>
      <trkpt lat="48.70101" lon="2.12182">
        <ele>76.8</ele>
        <time>2026-05-24T09:13:37Z</time>
      </trkpt>
      <trkpt lat="48.70099" lon="2.1219">
        <ele>76.8</ele>
        <time>2026-05-24T09:13:38Z</time>
      </trkpt>
      <trkpt lat="48.70097" lon="2.12199">
        <ele>76.8</ele>
        <time>2026-05-24T09:13:39Z</time>
      </trkpt>
      <trkpt lat="48.70095" lon="2.12207">
        <ele>76.8</ele>
        <time>2026-05-24T09:13:40Z</time>
      </trkpt>
      <trkpt lat="48.70094" lon="2.12216">
        <ele>77.2</ele>
        <time>2026-05-24T09:13:41Z</time>
      </trkpt>
      <trkpt lat="48.70092" lon="2.12224">
        <ele>77.2</ele>
        <time>2026-05-24T09:13:42Z</time>
      </trkpt>
      <trkpt lat="48.7009" lon="2.12232">
        <ele>77.2</ele>
        <time>2026-05-24T09:13:43Z</time>
      </trkpt>
      <trkpt lat="48.70088" lon="2.1224">
        <ele>77.2</ele>
        <time>2026-05-24T09:13:44Z</time>
      </trkpt>
      <trkpt lat="48.70086" lon="2.12248">
        <ele>76.4</ele>
        <time>2026-05-24T09:13:45Z</time>
      </trkpt>
      <trkpt lat="48.70083" lon="2.12256">
        <ele>76.4</ele>
        <time>2026-05-24T09:13:46Z</time>
      </trkpt>
      <trkpt lat="48.7008" lon="2.12264">
        <ele>76.4</ele>
        <time>2026-05-24T09:13:47Z</time>
      </trkpt>
      <trkpt lat="48.70077" lon="2.12272">
        <ele>76.8</ele>
        <time>2026-05-24T09:13:48Z</time>
      </trkpt>
      <trkpt lat="48.70074" lon="2.1228">
        <ele>77.2</ele>
        <time>2026-05-24T09:13:49Z</time>
      </trkpt>
      <trkpt lat="48.70071" lon="2.12288">
        <ele>77.2</ele>
        <time>2026-05-24T09:13:50Z</time>
      </trkpt>
      <trkpt lat="48.70068" lon="2.12295">
        <ele>77.2</ele>
        <time>2026-05-24T09:13:51Z</time>
      </trkpt>
      <trkpt lat="48.70065" lon="2.12303">
        <ele>77.2</ele>
        <time>2026-05-24T09:13:52Z</time>
      </trkpt>
      <trkpt lat="48.70062" lon="2.12311">
        <ele>76.8</ele>
        <time>2026-05-24T09:13:53Z</time>
      </trkpt>
      <trkpt lat="48.70059" lon="2.12319">
        <ele>76.8</ele>
        <time>2026-05-24T09:13:54Z</time>
      </trkpt>
      <trkpt lat="48.70056" lon="2.12326">
        <ele>76.8</ele>
        <time>2026-05-24T09:13:55Z</time>
      </trkpt>
      <trkpt lat="48.70052" lon="2.12334">
        <ele>76.8</ele>
        <time>2026-05-24T09:13:56Z</time>
      </trkpt>
      <trkpt lat="48.70049" lon="2.12341">
        <ele>76.4</ele>
        <time>2026-05-24T09:13:57Z</time>
      </trkpt>
      <trkpt lat="48.70046" lon="2.12349">
        <ele>76.4</ele>
        <time>2026-05-24T09:13:58Z</time>
      </trkpt>
      <trkpt lat="48.70043" lon="2.12356">
        <ele>76.4</ele>
        <time>2026-05-24T09:13:59Z</time>
      </trkpt>
      <trkpt lat="48.7004" lon="2.12363">
        <ele>76.6</ele>
        <time>2026-05-24T09:14:00Z</time>
      </trkpt>
      <trkpt lat="48.70037" lon="2.12371">
        <ele>77</ele>
        <time>2026-05-24T09:14:01Z</time>
      </trkpt>
      <trkpt lat="48.70035" lon="2.12379">
        <ele>77</ele>
        <time>2026-05-24T09:14:02Z</time>
      </trkpt>
      <trkpt lat="48.70032" lon="2.12387">
        <ele>77</ele>
        <time>2026-05-24T09:14:03Z</time>
      </trkpt>
      <trkpt lat="48.7003" lon="2.12395">
        <ele>77</ele>
        <time>2026-05-24T09:14:04Z</time>
      </trkpt>
      <trkpt lat="48.70029" lon="2.12404">
        <ele>77.4</ele>
        <time>2026-05-24T09:14:05Z</time>
      </trkpt>
      <trkpt lat="48.70029" lon="2.12413">
        <ele>77.4</ele>
        <time>2026-05-24T09:14:06Z</time>
      </trkpt>
      <trkpt lat="48.7003" lon="2.12422">
        <ele>77.4</ele>
        <time>2026-05-24T09:14:07Z</time>
      </trkpt>
      <trkpt lat="48.70034" lon="2.1243">
        <ele>76.8</ele>
        <time>2026-05-24T09:14:08Z</time>
      </trkpt>
      <trkpt lat="48.70038" lon="2.12435">
        <ele>77.2</ele>
        <time>2026-05-24T09:14:09Z</time>
      </trkpt>
      <trkpt lat="48.70043" lon="2.12439">
        <ele>77.2</ele>
        <time>2026-05-24T09:14:10Z</time>
      </trkpt>
      <trkpt lat="48.70049" lon="2.1244">
        <ele>77.2</ele>
        <time>2026-05-24T09:14:11Z</time>
      </trkpt>
      <trkpt lat="48.70055" lon="2.12441">
        <ele>77.2</ele>
        <time>2026-05-24T09:14:12Z</time>
      </trkpt>
      <trkpt lat="48.7006" lon="2.12443">
        <ele>76.8</ele>
        <time>2026-05-24T09:14:13Z</time>
      </trkpt>
      <trkpt lat="48.70065" lon="2.12446">
        <ele>76.8</ele>
        <time>2026-05-24T09:14:14Z</time>
      </trkpt>
      <trkpt lat="48.70071" lon="2.12449">
        <ele>76.8</ele>
        <time>2026-05-24T09:14:15Z</time>
      </trkpt>
      <trkpt lat="48.70076" lon="2.12452">
        <ele>76.8</ele>
        <time>2026-05-24T09:14:16Z</time>
      </trkpt>
      <trkpt lat="48.70081" lon="2.12455">
        <ele>77.6</ele>
        <time>2026-05-24T09:14:17Z</time>
      </trkpt>
      <trkpt lat="48.70086" lon="2.12457">
        <ele>77.6</ele>
        <time>2026-05-24T09:14:18Z</time>
      </trkpt>
      <trkpt lat="48.70091" lon="2.1246">
        <ele>77.6</ele>
        <time>2026-05-24T09:14:19Z</time>
      </trkpt>
      <trkpt lat="48.70096" lon="2.12462">
        <ele>77.6</ele>
        <time>2026-05-24T09:14:20Z</time>
      </trkpt>
      <trkpt lat="48.70102" lon="2.12464">
        <ele>77.6</ele>
        <time>2026-05-24T09:14:21Z</time>
      </trkpt>
      <trkpt lat="48.70106" lon="2.12465">
        <ele>77.6</ele>
        <time>2026-05-24T09:14:22Z</time>
      </trkpt>
      <trkpt lat="48.70112" lon="2.12465">
        <ele>77.6</ele>
        <time>2026-05-24T09:14:23Z</time>
      </trkpt>
      <trkpt lat="48.70117" lon="2.12466">
        <ele>76.8</ele>
        <time>2026-05-24T09:14:24Z</time>
      </trkpt>
      <trkpt lat="48.70122" lon="2.12467">
        <ele>77</ele>
        <time>2026-05-24T09:14:25Z</time>
      </trkpt>
      <trkpt lat="48.70126" lon="2.12469">
        <ele>77</ele>
        <time>2026-05-24T09:14:26Z</time>
      </trkpt>
      <trkpt lat="48.70129" lon="2.12472">
        <ele>77</ele>
        <time>2026-05-24T09:14:27Z</time>
      </trkpt>
      <trkpt lat="48.7013" lon="2.12476">
        <ele>76.8</ele>
        <time>2026-05-24T09:14:28Z</time>
      </trkpt>
      <trkpt lat="48.7013" lon="2.12482">
        <ele>76</ele>
        <time>2026-05-24T09:14:29Z</time>
      </trkpt>
      <trkpt lat="48.70129" lon="2.12487">
        <ele>76</ele>
        <time>2026-05-24T09:14:30Z</time>
      </trkpt>
      <trkpt lat="48.70128" lon="2.12493">
        <ele>76</ele>
        <time>2026-05-24T09:14:31Z</time>
      </trkpt>
      <trkpt lat="48.70126" lon="2.12501">
        <ele>76</ele>
        <time>2026-05-24T09:14:32Z</time>
      </trkpt>
      <trkpt lat="48.70125" lon="2.12507">
        <ele>76.2</ele>
        <time>2026-05-24T09:14:33Z</time>
      </trkpt>
      <trkpt lat="48.70125" lon="2.12512">
        <ele>76.2</ele>
        <time>2026-05-24T09:14:34Z</time>
      </trkpt>
      <trkpt lat="48.70126" lon="2.12518">
        <ele>76.2</ele>
        <time>2026-05-24T09:14:35Z</time>
      </trkpt>
      <trkpt lat="48.70126" lon="2.12523">
        <ele>77.2</ele>
        <time>2026-05-24T09:14:36Z</time>
      </trkpt>
      <trkpt lat="48.70127" lon="2.12529">
        <ele>78</ele>
        <time>2026-05-24T09:14:37Z</time>
      </trkpt>
      <trkpt lat="48.70125" lon="2.12534">
        <ele>78</ele>
        <time>2026-05-24T09:14:38Z</time>
      </trkpt>
      <trkpt lat="48.70122" lon="2.12538">
        <ele>78</ele>
        <time>2026-05-24T09:14:39Z</time>
      </trkpt>
      <trkpt lat="48.70119" lon="2.12542">
        <ele>78</ele>
        <time>2026-05-24T09:14:40Z</time>
      </trkpt>
      <trkpt lat="48.70116" lon="2.12544">
        <ele>76.8</ele>
        <time>2026-05-24T09:14:41Z</time>
      </trkpt>
      <trkpt lat="48.70114" lon="2.12547">
        <ele>76.8</ele>
        <time>2026-05-24T09:14:42Z</time>
      </trkpt>
      <trkpt lat="48.70113" lon="2.1255">
        <ele>76.8</ele>
        <time>2026-05-24T09:14:43Z</time>
      </trkpt>
      <trkpt lat="48.70111" lon="2.12553">
        <ele>76.8</ele>
        <time>2026-05-24T09:14:44Z</time>
      </trkpt>
      <trkpt lat="48.7011" lon="2.12558">
        <ele>76.8</ele>
        <time>2026-05-24T09:14:45Z</time>
      </trkpt>
      <trkpt lat="48.70107" lon="2.12562">
        <ele>76.8</ele>
        <time>2026-05-24T09:14:46Z</time>
      </trkpt>
      <trkpt lat="48.70104" lon="2.12567">
        <ele>76.8</ele>
        <time>2026-05-24T09:14:47Z</time>
      </trkpt>
      <trkpt lat="48.70101" lon="2.12571">
        <ele>76.2</ele>
        <time>2026-05-24T09:14:48Z</time>
      </trkpt>
      <trkpt lat="48.70097" lon="2.12576">
        <ele>76.4</ele>
        <time>2026-05-24T09:14:49Z</time>
      </trkpt>
      <trkpt lat="48.70094" lon="2.12581">
        <ele>76.4</ele>
        <time>2026-05-24T09:14:50Z</time>
      </trkpt>
      <trkpt lat="48.7009" lon="2.12585">
        <ele>76.4</ele>
        <time>2026-05-24T09:14:51Z</time>
      </trkpt>
      <trkpt lat="48.70087" lon="2.1259">
        <ele>76.4</ele>
        <time>2026-05-24T09:14:52Z</time>
      </trkpt>
      <trkpt lat="48.70085" lon="2.12594">
        <ele>76.8</ele>
        <time>2026-05-24T09:14:53Z</time>
      </trkpt>
      <trkpt lat="48.70081" lon="2.12597">
        <ele>76.8</ele>
        <time>2026-05-24T09:14:54Z</time>
      </trkpt>
      <trkpt lat="48.70078" lon="2.12601">
        <ele>76.8</ele>
        <time>2026-05-24T09:14:55Z</time>
      </trkpt>
      <trkpt lat="48.70076" lon="2.12604">
        <ele>76.8</ele>
        <time>2026-05-24T09:14:56Z</time>
      </trkpt>
      <trkpt lat="48.70073" lon="2.12608">
        <ele>76.8</ele>
        <time>2026-05-24T09:14:57Z</time>
      </trkpt>
      <trkpt lat="48.7007" lon="2.12612">
        <ele>76.8</ele>
        <time>2026-05-24T09:14:58Z</time>
      </trkpt>
      <trkpt lat="48.70066" lon="2.12616">
        <ele>76.8</ele>
        <time>2026-05-24T09:14:59Z</time>
      </trkpt>
      <trkpt lat="48.70064" lon="2.1262">
        <ele>76.8</ele>
        <time>2026-05-24T09:15:00Z</time>
      </trkpt>
      <trkpt lat="48.70061" lon="2.12625">
        <ele>77.2</ele>
        <time>2026-05-24T09:15:01Z</time>
      </trkpt>
      <trkpt lat="48.70058" lon="2.12629">
        <ele>77.2</ele>
        <time>2026-05-24T09:15:02Z</time>
      </trkpt>
      <trkpt lat="48.70054" lon="2.12634">
        <ele>77.2</ele>
        <time>2026-05-24T09:15:03Z</time>
      </trkpt>
      <trkpt lat="48.7005" lon="2.1264">
        <ele>77.2</ele>
        <time>2026-05-24T09:15:04Z</time>
      </trkpt>
      <trkpt lat="48.70045" lon="2.12645">
        <ele>76</ele>
        <time>2026-05-24T09:15:05Z</time>
      </trkpt>
      <trkpt lat="48.70041" lon="2.12649">
        <ele>76</ele>
        <time>2026-05-24T09:15:06Z</time>
      </trkpt>
      <trkpt lat="48.70037" lon="2.12654">
        <ele>76</ele>
        <time>2026-05-24T09:15:07Z</time>
      </trkpt>
      <trkpt lat="48.70033" lon="2.12661">
        <ele>76</ele>
        <time>2026-05-24T09:15:08Z</time>
      </trkpt>
      <trkpt lat="48.70028" lon="2.12667">
        <ele>76</ele>
        <time>2026-05-24T09:15:09Z</time>
      </trkpt>
      <trkpt lat="48.70023" lon="2.12674">
        <ele>76</ele>
        <time>2026-05-24T09:15:10Z</time>
      </trkpt>
      <trkpt lat="48.70019" lon="2.12681">
        <ele>76</ele>
        <time>2026-05-24T09:15:11Z</time>
      </trkpt>
      <trkpt lat="48.70015" lon="2.12688">
        <ele>76</ele>
        <time>2026-05-24T09:15:12Z</time>
      </trkpt>
      <trkpt lat="48.70012" lon="2.12694">
        <ele>76</ele>
        <time>2026-05-24T09:15:13Z</time>
      </trkpt>
      <trkpt lat="48.70009" lon="2.12702">
        <ele>76</ele>
        <time>2026-05-24T09:15:14Z</time>
      </trkpt>
      <trkpt lat="48.70005" lon="2.12709">
        <ele>76</ele>
        <time>2026-05-24T09:15:15Z</time>
      </trkpt>
      <trkpt lat="48.70001" lon="2.12716">
        <ele>75.6</ele>
        <time>2026-05-24T09:15:16Z</time>
      </trkpt>
      <trkpt lat="48.69998" lon="2.12723">
        <ele>75.8</ele>
        <time>2026-05-24T09:15:17Z</time>
      </trkpt>
      <trkpt lat="48.69994" lon="2.1273">
        <ele>75.8</ele>
        <time>2026-05-24T09:15:18Z</time>
      </trkpt>
      <trkpt lat="48.69991" lon="2.12737">
        <ele>75.8</ele>
        <time>2026-05-24T09:15:19Z</time>
      </trkpt>
      <trkpt lat="48.69988" lon="2.12745">
        <ele>75.8</ele>
        <time>2026-05-24T09:15:20Z</time>
      </trkpt>
      <trkpt lat="48.69985" lon="2.12753">
        <ele>76</ele>
        <time>2026-05-24T09:15:21Z</time>
      </trkpt>
      <trkpt lat="48.69982" lon="2.12761">
        <ele>76</ele>
        <time>2026-05-24T09:15:22Z</time>
      </trkpt>
      <trkpt lat="48.69978" lon="2.12768">
        <ele>76</ele>
        <time>2026-05-24T09:15:23Z</time>
      </trkpt>
      <trkpt lat="48.69976" lon="2.12776">
        <ele>76</ele>
        <time>2026-05-24T09:15:24Z</time>
      </trkpt>
      <trkpt lat="48.69973" lon="2.12784">
        <ele>75.6</ele>
        <time>2026-05-24T09:15:25Z</time>
      </trkpt>
      <trkpt lat="48.6997" lon="2.12792">
        <ele>75.6</ele>
        <time>2026-05-24T09:15:26Z</time>
      </trkpt>
      <trkpt lat="48.69967" lon="2.12799">
        <ele>75.6</ele>
        <time>2026-05-24T09:15:27Z</time>
      </trkpt>
      <trkpt lat="48.69964" lon="2.12806">
        <ele>76</ele>
        <time>2026-05-24T09:15:28Z</time>
      </trkpt>
      <trkpt lat="48.69962" lon="2.12813">
        <ele>76</ele>
        <time>2026-05-24T09:15:29Z</time>
      </trkpt>
      <trkpt lat="48.6996" lon="2.12821">
        <ele>76</ele>
        <time>2026-05-24T09:15:30Z</time>
      </trkpt>
      <trkpt lat="48.69958" lon="2.12828">
        <ele>76</ele>
        <time>2026-05-24T09:15:31Z</time>
      </trkpt>
      <trkpt lat="48.69957" lon="2.12837">
        <ele>76</ele>
        <time>2026-05-24T09:15:32Z</time>
      </trkpt>
      <trkpt lat="48.69954" lon="2.12845">
        <ele>76.2</ele>
        <time>2026-05-24T09:15:33Z</time>
      </trkpt>
      <trkpt lat="48.69952" lon="2.12854">
        <ele>76.2</ele>
        <time>2026-05-24T09:15:34Z</time>
      </trkpt>
      <trkpt lat="48.6995" lon="2.12862">
        <ele>76.2</ele>
        <time>2026-05-24T09:15:35Z</time>
      </trkpt>
      <trkpt lat="48.69948" lon="2.12871">
        <ele>76.2</ele>
        <time>2026-05-24T09:15:36Z</time>
      </trkpt>
      <trkpt lat="48.69946" lon="2.12879">
        <ele>76.2</ele>
        <time>2026-05-24T09:15:37Z</time>
      </trkpt>
      <trkpt lat="48.69944" lon="2.12888">
        <ele>76.2</ele>
        <time>2026-05-24T09:15:38Z</time>
      </trkpt>
      <trkpt lat="48.69941" lon="2.12896">
        <ele>76.2</ele>
        <time>2026-05-24T09:15:39Z</time>
      </trkpt>
      <trkpt lat="48.69937" lon="2.12903">
        <ele>76.4</ele>
        <time>2026-05-24T09:15:40Z</time>
      </trkpt>
      <trkpt lat="48.69933" lon="2.12909">
        <ele>77</ele>
        <time>2026-05-24T09:15:41Z</time>
      </trkpt>
      <trkpt lat="48.69927" lon="2.12911">
        <ele>77</ele>
        <time>2026-05-24T09:15:42Z</time>
      </trkpt>
      <trkpt lat="48.69922" lon="2.12909">
        <ele>77</ele>
        <time>2026-05-24T09:15:43Z</time>
      </trkpt>
      <trkpt lat="48.69918" lon="2.12904">
        <ele>76.4</ele>
        <time>2026-05-24T09:15:44Z</time>
      </trkpt>
      <trkpt lat="48.69914" lon="2.12899">
        <ele>76</ele>
        <time>2026-05-24T09:15:45Z</time>
      </trkpt>
      <trkpt lat="48.69908" lon="2.12896">
        <ele>76</ele>
        <time>2026-05-24T09:15:46Z</time>
      </trkpt>
      <trkpt lat="48.69902" lon="2.12896">
        <ele>76</ele>
        <time>2026-05-24T09:15:47Z</time>
      </trkpt>
      <trkpt lat="48.69896" lon="2.12898">
        <ele>76</ele>
        <time>2026-05-24T09:15:48Z</time>
      </trkpt>
      <trkpt lat="48.69889" lon="2.12899">
        <ele>75.6</ele>
        <time>2026-05-24T09:15:49Z</time>
      </trkpt>
      <trkpt lat="48.69883" lon="2.12901">
        <ele>75.6</ele>
        <time>2026-05-24T09:15:50Z</time>
      </trkpt>
      <trkpt lat="48.69877" lon="2.12902">
        <ele>75.6</ele>
        <time>2026-05-24T09:15:51Z</time>
      </trkpt>
      <trkpt lat="48.69871" lon="2.12905">
        <ele>75.6</ele>
        <time>2026-05-24T09:15:52Z</time>
      </trkpt>
      <trkpt lat="48.69865" lon="2.12908">
        <ele>75.6</ele>
        <time>2026-05-24T09:15:53Z</time>
      </trkpt>
      <trkpt lat="48.69859" lon="2.12914">
        <ele>75.6</ele>
        <time>2026-05-24T09:15:54Z</time>
      </trkpt>
      <trkpt lat="48.69854" lon="2.1292">
        <ele>75.6</ele>
        <time>2026-05-24T09:15:55Z</time>
      </trkpt>
      <trkpt lat="48.69849" lon="2.12927">
        <ele>75.6</ele>
        <time>2026-05-24T09:15:56Z</time>
      </trkpt>
      <trkpt lat="48.69845" lon="2.12933">
        <ele>76</ele>
        <time>2026-05-24T09:15:57Z</time>
      </trkpt>
      <trkpt lat="48.6984" lon="2.12939">
        <ele>76</ele>
        <time>2026-05-24T09:15:58Z</time>
      </trkpt>
      <trkpt lat="48.69836" lon="2.12945">
        <ele>76</ele>
        <time>2026-05-24T09:15:59Z</time>
      </trkpt>
      <trkpt lat="48.69833" lon="2.1295">
        <ele>76</ele>
        <time>2026-05-24T09:16:00Z</time>
      </trkpt>
      <trkpt lat="48.69829" lon="2.12956">
        <ele>76</ele>
        <time>2026-05-24T09:16:01Z</time>
      </trkpt>
      <trkpt lat="48.69826" lon="2.12962">
        <ele>76</ele>
        <time>2026-05-24T09:16:02Z</time>
      </trkpt>
      <trkpt lat="48.69822" lon="2.12968">
        <ele>76</ele>
        <time>2026-05-24T09:16:03Z</time>
      </trkpt>
      <trkpt lat="48.69819" lon="2.12975">
        <ele>76.2</ele>
        <time>2026-05-24T09:16:04Z</time>
      </trkpt>
      <trkpt lat="48.69816" lon="2.12982">
        <ele>75.8</ele>
        <time>2026-05-24T09:16:05Z</time>
      </trkpt>
      <trkpt lat="48.69813" lon="2.12989">
        <ele>75.8</ele>
        <time>2026-05-24T09:16:06Z</time>
      </trkpt>
      <trkpt lat="48.6981" lon="2.12996">
        <ele>75.8</ele>
        <time>2026-05-24T09:16:07Z</time>
      </trkpt>
      <trkpt lat="48.69807" lon="2.13003">
        <ele>75.8</ele>
        <time>2026-05-24T09:16:08Z</time>
      </trkpt>
      <trkpt lat="48.69804" lon="2.13009">
        <ele>75.4</ele>
        <time>2026-05-24T09:16:09Z</time>
      </trkpt>
      <trkpt lat="48.698" lon="2.13016">
        <ele>75.4</ele>
        <time>2026-05-24T09:16:10Z</time>
      </trkpt>
      <trkpt lat="48.69797" lon="2.13022">
        <ele>75.4</ele>
        <time>2026-05-24T09:16:11Z</time>
      </trkpt>
      <trkpt lat="48.69794" lon="2.1303">
        <ele>75.4</ele>
        <time>2026-05-24T09:16:12Z</time>
      </trkpt>
      <trkpt lat="48.6979" lon="2.13037">
        <ele>75.2</ele>
        <time>2026-05-24T09:16:13Z</time>
      </trkpt>
      <trkpt lat="48.69787" lon="2.13045">
        <ele>75.2</ele>
        <time>2026-05-24T09:16:14Z</time>
      </trkpt>
      <trkpt lat="48.69783" lon="2.13052">
        <ele>75.2</ele>
        <time>2026-05-24T09:16:15Z</time>
      </trkpt>
      <trkpt lat="48.69779" lon="2.13059">
        <ele>75.2</ele>
        <time>2026-05-24T09:16:16Z</time>
      </trkpt>
      <trkpt lat="48.69775" lon="2.13067">
        <ele>75.2</ele>
        <time>2026-05-24T09:16:17Z</time>
      </trkpt>
      <trkpt lat="48.69773" lon="2.13075">
        <ele>75.2</ele>
        <time>2026-05-24T09:16:18Z</time>
      </trkpt>
      <trkpt lat="48.69773" lon="2.13081">
        <ele>75.2</ele>
        <time>2026-05-24T09:16:19Z</time>
      </trkpt>
      <trkpt lat="48.69773" lon="2.13084">
        <ele>75.8</ele>
        <time>2026-05-24T09:16:20Z</time>
      </trkpt>
      <trkpt lat="48.69773" lon="2.13086">
        <ele>75.2</ele>
        <time>2026-05-24T09:16:21Z</time>
      </trkpt>
      <trkpt lat="48.69774" lon="2.13088">
        <ele>75.2</ele>
        <time>2026-05-24T09:16:22Z</time>
      </trkpt>
      <trkpt lat="48.69775" lon="2.1309">
        <ele>75.2</ele>
        <time>2026-05-24T09:16:23Z</time>
      </trkpt>
      <trkpt lat="48.69777" lon="2.13093">
        <ele>75.2</ele>
        <time>2026-05-24T09:16:24Z</time>
      </trkpt>
      <trkpt lat="48.69779" lon="2.13098">
        <ele>75.6</ele>
        <time>2026-05-24T09:16:25Z</time>
      </trkpt>
      <trkpt lat="48.69781" lon="2.13104">
        <ele>75.6</ele>
        <time>2026-05-24T09:16:26Z</time>
      </trkpt>
      <trkpt lat="48.69783" lon="2.13111">
        <ele>75.6</ele>
        <time>2026-05-24T09:16:27Z</time>
      </trkpt>
      <trkpt lat="48.69784" lon="2.13117">
        <ele>75.4</ele>
        <time>2026-05-24T09:16:28Z</time>
      </trkpt>
      <trkpt lat="48.69786" lon="2.13123">
        <ele>75.2</ele>
        <time>2026-05-24T09:16:29Z</time>
      </trkpt>
      <trkpt lat="48.69786" lon="2.1313">
        <ele>75.2</ele>
        <time>2026-05-24T09:16:30Z</time>
      </trkpt>
      <trkpt lat="48.69786" lon="2.13136">
        <ele>75.2</ele>
        <time>2026-05-24T09:16:31Z</time>
      </trkpt>
      <trkpt lat="48.69787" lon="2.13143">
        <ele>75.8</ele>
        <time>2026-05-24T09:16:32Z</time>
      </trkpt>
      <trkpt lat="48.69788" lon="2.1315">
        <ele>75.4</ele>
        <time>2026-05-24T09:16:33Z</time>
      </trkpt>
      <trkpt lat="48.6979" lon="2.13158">
        <ele>75.4</ele>
        <time>2026-05-24T09:16:34Z</time>
      </trkpt>
      <trkpt lat="48.69791" lon="2.13166">
        <ele>75.4</ele>
        <time>2026-05-24T09:16:35Z</time>
      </trkpt>
      <trkpt lat="48.69793" lon="2.13174">
        <ele>75.8</ele>
        <time>2026-05-24T09:16:36Z</time>
      </trkpt>
      <trkpt lat="48.69794" lon="2.13182">
        <ele>76</ele>
        <time>2026-05-24T09:16:37Z</time>
      </trkpt>
      <trkpt lat="48.69795" lon="2.1319">
        <ele>76</ele>
        <time>2026-05-24T09:16:38Z</time>
      </trkpt>
      <trkpt lat="48.69797" lon="2.13198">
        <ele>76</ele>
        <time>2026-05-24T09:16:39Z</time>
      </trkpt>
      <trkpt lat="48.69797" lon="2.13206">
        <ele>76</ele>
        <time>2026-05-24T09:16:40Z</time>
      </trkpt>
      <trkpt lat="48.69798" lon="2.13214">
        <ele>76</ele>
        <time>2026-05-24T09:16:41Z</time>
      </trkpt>
      <trkpt lat="48.69799" lon="2.13222">
        <ele>76</ele>
        <time>2026-05-24T09:16:42Z</time>
      </trkpt>
      <trkpt lat="48.69799" lon="2.13231">
        <ele>76</ele>
        <time>2026-05-24T09:16:43Z</time>
      </trkpt>
      <trkpt lat="48.698" lon="2.13239">
        <ele>76</ele>
        <time>2026-05-24T09:16:44Z</time>
      </trkpt>
      <trkpt lat="48.698" lon="2.13247">
        <ele>76.2</ele>
        <time>2026-05-24T09:16:45Z</time>
      </trkpt>
      <trkpt lat="48.69801" lon="2.13255">
        <ele>76.2</ele>
        <time>2026-05-24T09:16:46Z</time>
      </trkpt>
      <trkpt lat="48.69802" lon="2.13262">
        <ele>76.2</ele>
        <time>2026-05-24T09:16:47Z</time>
      </trkpt>
      <trkpt lat="48.69802" lon="2.1327">
        <ele>76.2</ele>
        <time>2026-05-24T09:16:48Z</time>
      </trkpt>
      <trkpt lat="48.69802" lon="2.13278">
        <ele>76.8</ele>
        <time>2026-05-24T09:16:49Z</time>
      </trkpt>
      <trkpt lat="48.69803" lon="2.13285">
        <ele>76.8</ele>
        <time>2026-05-24T09:16:50Z</time>
      </trkpt>
      <trkpt lat="48.69803" lon="2.13292">
        <ele>76.8</ele>
        <time>2026-05-24T09:16:51Z</time>
      </trkpt>
      <trkpt lat="48.69804" lon="2.13299">
        <ele>76.8</ele>
        <time>2026-05-24T09:16:52Z</time>
      </trkpt>
      <trkpt lat="48.69804" lon="2.13307">
        <ele>77.4</ele>
        <time>2026-05-24T09:16:53Z</time>
      </trkpt>
      <trkpt lat="48.69805" lon="2.13313">
        <ele>77.4</ele>
        <time>2026-05-24T09:16:54Z</time>
      </trkpt>
      <trkpt lat="48.69806" lon="2.1332">
        <ele>77.4</ele>
        <time>2026-05-24T09:16:55Z</time>
      </trkpt>
      <trkpt lat="48.69806" lon="2.13327">
        <ele>77.4</ele>
        <time>2026-05-24T09:16:56Z</time>
      </trkpt>
      <trkpt lat="48.69806" lon="2.13332">
        <ele>77.6</ele>
        <time>2026-05-24T09:16:57Z</time>
      </trkpt>
      <trkpt lat="48.69806" lon="2.13338">
        <ele>77.6</ele>
        <time>2026-05-24T09:16:58Z</time>
      </trkpt>
      <trkpt lat="48.69807" lon="2.13342">
        <ele>77.6</ele>
        <time>2026-05-24T09:16:59Z</time>
      </trkpt>
      <trkpt lat="48.69807" lon="2.13345">
        <ele>78.6</ele>
        <time>2026-05-24T09:17:00Z</time>
      </trkpt>
      <trkpt lat="48.69807" lon="2.13348">
        <ele>79.2</ele>
        <time>2026-05-24T09:17:01Z</time>
      </trkpt>
      <trkpt lat="48.69808" lon="2.13352">
        <ele>79.2</ele>
        <time>2026-05-24T09:17:02Z</time>
      </trkpt>
      <trkpt lat="48.69808" lon="2.13355">
        <ele>79.2</ele>
        <time>2026-05-24T09:17:03Z</time>
      </trkpt>
      <trkpt lat="48.69809" lon="2.13359">
        <ele>79.2</ele>
        <time>2026-05-24T09:17:04Z</time>
      </trkpt>
      <trkpt lat="48.6981" lon="2.13363">
        <ele>80</ele>
        <time>2026-05-24T09:17:05Z</time>
      </trkpt>
      <trkpt lat="48.6981" lon="2.13366">
        <ele>80</ele>
        <time>2026-05-24T09:17:06Z</time>
      </trkpt>
      <trkpt lat="48.69811" lon="2.1337">
        <ele>80</ele>
        <time>2026-05-24T09:17:07Z</time>
      </trkpt>
      <trkpt lat="48.69811" lon="2.13373">
        <ele>80</ele>
        <time>2026-05-24T09:17:08Z</time>
      </trkpt>
      <trkpt lat="48.69812" lon="2.13376">
        <ele>81.2</ele>
        <time>2026-05-24T09:17:09Z</time>
      </trkpt>
      <trkpt lat="48.69812" lon="2.13379">
        <ele>81.2</ele>
        <time>2026-05-24T09:17:10Z</time>
      </trkpt>
      <trkpt lat="48.69814" lon="2.13383">
        <ele>81.2</ele>
        <time>2026-05-24T09:17:11Z</time>
      </trkpt>
      <trkpt lat="48.69815" lon="2.13386">
        <ele>80.4</ele>
        <time>2026-05-24T09:17:12Z</time>
      </trkpt>
      <trkpt lat="48.69818" lon="2.13389">
        <ele>80.2</ele>
        <time>2026-05-24T09:17:13Z</time>
      </trkpt>
      <trkpt lat="48.69821" lon="2.13393">
        <ele>80.2</ele>
        <time>2026-05-24T09:17:14Z</time>
      </trkpt>
      <trkpt lat="48.69823" lon="2.13397">
        <ele>80.2</ele>
        <time>2026-05-24T09:17:15Z</time>
      </trkpt>
      <trkpt lat="48.69826" lon="2.13401">
        <ele>80.4</ele>
        <time>2026-05-24T09:17:16Z</time>
      </trkpt>
      <trkpt lat="48.69829" lon="2.13405">
        <ele>80.6</ele>
        <time>2026-05-24T09:17:17Z</time>
      </trkpt>
      <trkpt lat="48.69832" lon="2.13409">
        <ele>80.6</ele>
        <time>2026-05-24T09:17:18Z</time>
      </trkpt>
      <trkpt lat="48.69835" lon="2.13413">
        <ele>80.6</ele>
        <time>2026-05-24T09:17:19Z</time>
      </trkpt>
      <trkpt lat="48.69837" lon="2.13418">
        <ele>80</ele>
        <time>2026-05-24T09:17:20Z</time>
      </trkpt>
      <trkpt lat="48.6984" lon="2.13423">
        <ele>80.4</ele>
        <time>2026-05-24T09:17:21Z</time>
      </trkpt>
      <trkpt lat="48.69843" lon="2.13428">
        <ele>80.4</ele>
        <time>2026-05-24T09:17:22Z</time>
      </trkpt>
      <trkpt lat="48.69846" lon="2.13433">
        <ele>80.4</ele>
        <time>2026-05-24T09:17:23Z</time>
      </trkpt>
      <trkpt lat="48.69848" lon="2.13437">
        <ele>80.4</ele>
        <time>2026-05-24T09:17:24Z</time>
      </trkpt>
      <trkpt lat="48.69851" lon="2.13442">
        <ele>80.6</ele>
        <time>2026-05-24T09:17:25Z</time>
      </trkpt>
      <trkpt lat="48.69854" lon="2.13448">
        <ele>80.6</ele>
        <time>2026-05-24T09:17:26Z</time>
      </trkpt>
      <trkpt lat="48.69856" lon="2.13454">
        <ele>80.6</ele>
        <time>2026-05-24T09:17:27Z</time>
      </trkpt>
      <trkpt lat="48.69858" lon="2.1346">
        <ele>80.4</ele>
        <time>2026-05-24T09:17:28Z</time>
      </trkpt>
      <trkpt lat="48.6986" lon="2.13467">
        <ele>80.4</ele>
        <time>2026-05-24T09:17:29Z</time>
      </trkpt>
      <trkpt lat="48.69861" lon="2.13473">
        <ele>80.4</ele>
        <time>2026-05-24T09:17:30Z</time>
      </trkpt>
      <trkpt lat="48.69863" lon="2.1348">
        <ele>80.4</ele>
        <time>2026-05-24T09:17:31Z</time>
      </trkpt>
      <trkpt lat="48.69864" lon="2.13487">
        <ele>80.4</ele>
        <time>2026-05-24T09:17:32Z</time>
      </trkpt>
      <trkpt lat="48.69865" lon="2.13495">
        <ele>80.2</ele>
        <time>2026-05-24T09:17:33Z</time>
      </trkpt>
      <trkpt lat="48.69866" lon="2.13502">
        <ele>80.2</ele>
        <time>2026-05-24T09:17:34Z</time>
      </trkpt>
      <trkpt lat="48.69866" lon="2.1351">
        <ele>80.2</ele>
        <time>2026-05-24T09:17:35Z</time>
      </trkpt>
      <trkpt lat="48.69867" lon="2.13517">
        <ele>80.2</ele>
        <time>2026-05-24T09:17:36Z</time>
      </trkpt>
      <trkpt lat="48.69868" lon="2.13524">
        <ele>80.2</ele>
        <time>2026-05-24T09:17:37Z</time>
      </trkpt>
      <trkpt lat="48.69869" lon="2.13531">
        <ele>80.2</ele>
        <time>2026-05-24T09:17:38Z</time>
      </trkpt>
      <trkpt lat="48.69869" lon="2.13538">
        <ele>80.2</ele>
        <time>2026-05-24T09:17:39Z</time>
      </trkpt>
      <trkpt lat="48.6987" lon="2.13546">
        <ele>80.6</ele>
        <time>2026-05-24T09:17:40Z</time>
      </trkpt>
      <trkpt lat="48.6987" lon="2.13553">
        <ele>80.4</ele>
        <time>2026-05-24T09:17:41Z</time>
      </trkpt>
      <trkpt lat="48.6987" lon="2.1356">
        <ele>80.4</ele>
        <time>2026-05-24T09:17:42Z</time>
      </trkpt>
      <trkpt lat="48.69871" lon="2.13567">
        <ele>80.4</ele>
        <time>2026-05-24T09:17:43Z</time>
      </trkpt>
      <trkpt lat="48.69871" lon="2.13574">
        <ele>80.8</ele>
        <time>2026-05-24T09:17:44Z</time>
      </trkpt>
      <trkpt lat="48.69872" lon="2.13581">
        <ele>81</ele>
        <time>2026-05-24T09:17:45Z</time>
      </trkpt>
      <trkpt lat="48.69872" lon="2.13588">
        <ele>81</ele>
        <time>2026-05-24T09:17:46Z</time>
      </trkpt>
      <trkpt lat="48.69873" lon="2.13595">
        <ele>81</ele>
        <time>2026-05-24T09:17:47Z</time>
      </trkpt>
      <trkpt lat="48.69874" lon="2.13603">
        <ele>80.2</ele>
        <time>2026-05-24T09:17:48Z</time>
      </trkpt>
      <trkpt lat="48.69874" lon="2.1361">
        <ele>80.2</ele>
        <time>2026-05-24T09:17:49Z</time>
      </trkpt>
      <trkpt lat="48.69874" lon="2.13617">
        <ele>80.2</ele>
        <time>2026-05-24T09:17:50Z</time>
      </trkpt>
      <trkpt lat="48.69875" lon="2.13624">
        <ele>80.2</ele>
        <time>2026-05-24T09:17:51Z</time>
      </trkpt>
      <trkpt lat="48.69876" lon="2.13632">
        <ele>80.2</ele>
        <time>2026-05-24T09:17:52Z</time>
      </trkpt>
      <trkpt lat="48.69877" lon="2.13639">
        <ele>79.6</ele>
        <time>2026-05-24T09:17:53Z</time>
      </trkpt>
      <trkpt lat="48.69878" lon="2.13646">
        <ele>79.6</ele>
        <time>2026-05-24T09:17:54Z</time>
      </trkpt>
      <trkpt lat="48.6988" lon="2.13652">
        <ele>79.6</ele>
        <time>2026-05-24T09:17:55Z</time>
      </trkpt>
      <trkpt lat="48.69884" lon="2.13655">
        <ele>79.6</ele>
        <time>2026-05-24T09:17:56Z</time>
      </trkpt>
      <trkpt lat="48.69889" lon="2.13656">
        <ele>79.2</ele>
        <time>2026-05-24T09:17:57Z</time>
      </trkpt>
      <trkpt lat="48.69893" lon="2.13655">
        <ele>79.2</ele>
        <time>2026-05-24T09:17:58Z</time>
      </trkpt>
      <trkpt lat="48.69898" lon="2.13654">
        <ele>79.2</ele>
        <time>2026-05-24T09:17:59Z</time>
      </trkpt>
      <trkpt lat="48.69901" lon="2.13655">
        <ele>78.2</ele>
        <time>2026-05-24T09:18:00Z</time>
      </trkpt>
      <trkpt lat="48.69903" lon="2.13659">
        <ele>78</ele>
        <time>2026-05-24T09:18:01Z</time>
      </trkpt>
      <trkpt lat="48.69903" lon="2.13664">
        <ele>78</ele>
        <time>2026-05-24T09:18:02Z</time>
      </trkpt>
      <trkpt lat="48.69903" lon="2.13668">
        <ele>78</ele>
        <time>2026-05-24T09:18:03Z</time>
      </trkpt>
      <trkpt lat="48.69905" lon="2.13672">
        <ele>77.6</ele>
        <time>2026-05-24T09:18:04Z</time>
      </trkpt>
      <trkpt lat="48.69909" lon="2.13675">
        <ele>75.8</ele>
        <time>2026-05-24T09:18:05Z</time>
      </trkpt>
      <trkpt lat="48.69912" lon="2.13677">
        <ele>75.8</ele>
        <time>2026-05-24T09:18:06Z</time>
      </trkpt>
      <trkpt lat="48.69914" lon="2.1368">
        <ele>75.8</ele>
        <time>2026-05-24T09:18:07Z</time>
      </trkpt>
      <trkpt lat="48.69914" lon="2.13684">
        <ele>76.8</ele>
        <time>2026-05-24T09:18:08Z</time>
      </trkpt>
      <trkpt lat="48.69914" lon="2.13687">
        <ele>77.2</ele>
        <time>2026-05-24T09:18:09Z</time>
      </trkpt>
      <trkpt lat="48.69913" lon="2.1369">
        <ele>77.2</ele>
        <time>2026-05-24T09:18:10Z</time>
      </trkpt>
      <trkpt lat="48.69913" lon="2.13694">
        <ele>77.2</ele>
        <time>2026-05-24T09:18:11Z</time>
      </trkpt>
      <trkpt lat="48.69913" lon="2.13697">
        <ele>77.2</ele>
        <time>2026-05-24T09:18:12Z</time>
      </trkpt>
      <trkpt lat="48.69912" lon="2.13701">
        <ele>76.8</ele>
        <time>2026-05-24T09:18:13Z</time>
      </trkpt>
      <trkpt lat="48.6991" lon="2.13704">
        <ele>76.8</ele>
        <time>2026-05-24T09:18:14Z</time>
      </trkpt>
      <trkpt lat="48.6991" lon="2.13708">
        <ele>76.8</ele>
        <time>2026-05-24T09:18:15Z</time>
      </trkpt>
      <trkpt lat="48.69909" lon="2.13712">
        <ele>76.8</ele>
        <time>2026-05-24T09:18:16Z</time>
      </trkpt>
      <trkpt lat="48.69907" lon="2.13717">
        <ele>77.2</ele>
        <time>2026-05-24T09:18:17Z</time>
      </trkpt>
      <trkpt lat="48.69906" lon="2.13722">
        <ele>77.2</ele>
        <time>2026-05-24T09:18:18Z</time>
      </trkpt>
      <trkpt lat="48.69905" lon="2.13727">
        <ele>77.2</ele>
        <time>2026-05-24T09:18:19Z</time>
      </trkpt>
      <trkpt lat="48.69903" lon="2.13732">
        <ele>77.6</ele>
        <time>2026-05-24T09:18:20Z</time>
      </trkpt>
      <trkpt lat="48.69901" lon="2.13737">
        <ele>77.6</ele>
        <time>2026-05-24T09:18:21Z</time>
      </trkpt>
      <trkpt lat="48.69899" lon="2.13743">
        <ele>77.6</ele>
        <time>2026-05-24T09:18:22Z</time>
      </trkpt>
      <trkpt lat="48.69897" lon="2.13748">
        <ele>77.6</ele>
        <time>2026-05-24T09:18:23Z</time>
      </trkpt>
      <trkpt lat="48.69895" lon="2.13754">
        <ele>77.6</ele>
        <time>2026-05-24T09:18:24Z</time>
      </trkpt>
      <trkpt lat="48.69895" lon="2.13759">
        <ele>78</ele>
        <time>2026-05-24T09:18:25Z</time>
      </trkpt>
      <trkpt lat="48.69894" lon="2.13764">
        <ele>78</ele>
        <time>2026-05-24T09:18:26Z</time>
      </trkpt>
      <trkpt lat="48.69892" lon="2.1377">
        <ele>78</ele>
        <time>2026-05-24T09:18:27Z</time>
      </trkpt>
      <trkpt lat="48.69891" lon="2.13776">
        <ele>78</ele>
        <time>2026-05-24T09:18:28Z</time>
      </trkpt>
      <trkpt lat="48.69889" lon="2.13781">
        <ele>77.4</ele>
        <time>2026-05-24T09:18:29Z</time>
      </trkpt>
      <trkpt lat="48.69887" lon="2.13786">
        <ele>77.4</ele>
        <time>2026-05-24T09:18:30Z</time>
      </trkpt>
      <trkpt lat="48.69886" lon="2.13791">
        <ele>77.4</ele>
        <time>2026-05-24T09:18:31Z</time>
      </trkpt>
      <trkpt lat="48.69885" lon="2.13796">
        <ele>77.6</ele>
        <time>2026-05-24T09:18:32Z</time>
      </trkpt>
      <trkpt lat="48.69883" lon="2.13801">
        <ele>77.8</ele>
        <time>2026-05-24T09:18:33Z</time>
      </trkpt>
      <trkpt lat="48.69881" lon="2.13807">
        <ele>77.8</ele>
        <time>2026-05-24T09:18:34Z</time>
      </trkpt>
      <trkpt lat="48.69879" lon="2.13813">
        <ele>77.8</ele>
        <time>2026-05-24T09:18:35Z</time>
      </trkpt>
      <trkpt lat="48.69877" lon="2.1382">
        <ele>77.8</ele>
        <time>2026-05-24T09:18:36Z</time>
      </trkpt>
      <trkpt lat="48.69875" lon="2.13826">
        <ele>77.6</ele>
        <time>2026-05-24T09:18:37Z</time>
      </trkpt>
      <trkpt lat="48.69872" lon="2.13833">
        <ele>77.6</ele>
        <time>2026-05-24T09:18:38Z</time>
      </trkpt>
      <trkpt lat="48.69871" lon="2.1384">
        <ele>77.6</ele>
        <time>2026-05-24T09:18:39Z</time>
      </trkpt>
      <trkpt lat="48.69869" lon="2.13847">
        <ele>77.6</ele>
        <time>2026-05-24T09:18:40Z</time>
      </trkpt>
      <trkpt lat="48.69866" lon="2.13854">
        <ele>77.8</ele>
        <time>2026-05-24T09:18:41Z</time>
      </trkpt>
      <trkpt lat="48.69864" lon="2.13861">
        <ele>77.8</ele>
        <time>2026-05-24T09:18:42Z</time>
      </trkpt>
      <trkpt lat="48.69862" lon="2.13868">
        <ele>77.8</ele>
        <time>2026-05-24T09:18:43Z</time>
      </trkpt>
      <trkpt lat="48.6986" lon="2.13874">
        <ele>77.8</ele>
        <time>2026-05-24T09:18:44Z</time>
      </trkpt>
      <trkpt lat="48.69859" lon="2.13882">
        <ele>77.2</ele>
        <time>2026-05-24T09:18:45Z</time>
      </trkpt>
      <trkpt lat="48.69859" lon="2.1389">
        <ele>77.2</ele>
        <time>2026-05-24T09:18:46Z</time>
      </trkpt>
      <trkpt lat="48.69858" lon="2.13897">
        <ele>77.2</ele>
        <time>2026-05-24T09:18:47Z</time>
      </trkpt>
      <trkpt lat="48.69858" lon="2.13905">
        <ele>78</ele>
        <time>2026-05-24T09:18:48Z</time>
      </trkpt>
      <trkpt lat="48.69858" lon="2.13912">
        <ele>77.4</ele>
        <time>2026-05-24T09:18:49Z</time>
      </trkpt>
      <trkpt lat="48.69857" lon="2.1392">
        <ele>77.4</ele>
        <time>2026-05-24T09:18:50Z</time>
      </trkpt>
      <trkpt lat="48.69858" lon="2.13927">
        <ele>77.4</ele>
        <time>2026-05-24T09:18:51Z</time>
      </trkpt>
      <trkpt lat="48.69857" lon="2.13932">
        <ele>77.6</ele>
        <time>2026-05-24T09:18:52Z</time>
      </trkpt>
      <trkpt lat="48.69857" lon="2.13937">
        <ele>77.8</ele>
        <time>2026-05-24T09:18:53Z</time>
      </trkpt>
      <trkpt lat="48.69857" lon="2.13941">
        <ele>77.8</ele>
        <time>2026-05-24T09:18:54Z</time>
      </trkpt>
      <trkpt lat="48.69857" lon="2.13945">
        <ele>77.8</ele>
        <time>2026-05-24T09:18:55Z</time>
      </trkpt>
      <trkpt lat="48.69855" lon="2.13947">
        <ele>76.8</ele>
        <time>2026-05-24T09:18:56Z</time>
      </trkpt>
      <trkpt lat="48.69852" lon="2.13949">
        <ele>76.6</ele>
        <time>2026-05-24T09:18:57Z</time>
      </trkpt>
      <trkpt lat="48.69849" lon="2.1395">
        <ele>76.6</ele>
        <time>2026-05-24T09:18:58Z</time>
      </trkpt>
      <trkpt lat="48.69847" lon="2.1395">
        <ele>76.6</ele>
        <time>2026-05-24T09:18:59Z</time>
      </trkpt>
      <trkpt lat="48.69844" lon="2.13951">
        <ele>76.6</ele>
        <time>2026-05-24T09:19:00Z</time>
      </trkpt>
      <trkpt lat="48.69839" lon="2.13953">
        <ele>76.8</ele>
        <time>2026-05-24T09:19:01Z</time>
      </trkpt>
      <trkpt lat="48.69836" lon="2.13953">
        <ele>76.8</ele>
        <time>2026-05-24T09:19:02Z</time>
      </trkpt>
      <trkpt lat="48.69832" lon="2.13951">
        <ele>76.8</ele>
        <time>2026-05-24T09:19:03Z</time>
      </trkpt>
      <trkpt lat="48.69828" lon="2.13949">
        <ele>77.4</ele>
        <time>2026-05-24T09:19:04Z</time>
      </trkpt>
      <trkpt lat="48.69824" lon="2.13947">
        <ele>77</ele>
        <time>2026-05-24T09:19:05Z</time>
      </trkpt>
      <trkpt lat="48.6982" lon="2.13946">
        <ele>77</ele>
        <time>2026-05-24T09:19:06Z</time>
      </trkpt>
      <trkpt lat="48.69817" lon="2.13949">
        <ele>77</ele>
        <time>2026-05-24T09:19:07Z</time>
      </trkpt>
      <trkpt lat="48.69816" lon="2.13954">
        <ele>77.4</ele>
        <time>2026-05-24T09:19:08Z</time>
      </trkpt>
      <trkpt lat="48.69815" lon="2.13961">
        <ele>77.4</ele>
        <time>2026-05-24T09:19:09Z</time>
      </trkpt>
      <trkpt lat="48.69816" lon="2.13968">
        <ele>77.4</ele>
        <time>2026-05-24T09:19:10Z</time>
      </trkpt>
      <trkpt lat="48.69816" lon="2.13975">
        <ele>77.4</ele>
        <time>2026-05-24T09:19:11Z</time>
      </trkpt>
      <trkpt lat="48.69815" lon="2.13982">
        <ele>77.4</ele>
        <time>2026-05-24T09:19:12Z</time>
      </trkpt>
      <trkpt lat="48.69814" lon="2.13988">
        <ele>77.8</ele>
        <time>2026-05-24T09:19:13Z</time>
      </trkpt>
      <trkpt lat="48.69814" lon="2.13995">
        <ele>77.8</ele>
        <time>2026-05-24T09:19:14Z</time>
      </trkpt>
      <trkpt lat="48.69813" lon="2.14001">
        <ele>77.8</ele>
        <time>2026-05-24T09:19:15Z</time>
      </trkpt>
      <trkpt lat="48.69813" lon="2.14007">
        <ele>78.6</ele>
        <time>2026-05-24T09:19:16Z</time>
      </trkpt>
      <trkpt lat="48.69813" lon="2.14013">
        <ele>78</ele>
        <time>2026-05-24T09:19:17Z</time>
      </trkpt>
      <trkpt lat="48.69812" lon="2.14019">
        <ele>78</ele>
        <time>2026-05-24T09:19:18Z</time>
      </trkpt>
      <trkpt lat="48.69811" lon="2.14024">
        <ele>78</ele>
        <time>2026-05-24T09:19:19Z</time>
      </trkpt>
      <trkpt lat="48.69809" lon="2.14029">
        <ele>78</ele>
        <time>2026-05-24T09:19:20Z</time>
      </trkpt>
      <trkpt lat="48.69807" lon="2.14034">
        <ele>79.2</ele>
        <time>2026-05-24T09:19:21Z</time>
      </trkpt>
      <trkpt lat="48.69805" lon="2.14037">
        <ele>79.2</ele>
        <time>2026-05-24T09:19:22Z</time>
      </trkpt>
      <trkpt lat="48.69804" lon="2.14042">
        <ele>79.2</ele>
        <time>2026-05-24T09:19:23Z</time>
      </trkpt>
      <trkpt lat="48.69802" lon="2.14046">
        <ele>79.2</ele>
        <time>2026-05-24T09:19:24Z</time>
      </trkpt>
      <trkpt lat="48.69801" lon="2.1405">
        <ele>79.2</ele>
        <time>2026-05-24T09:19:25Z</time>
      </trkpt>
      <trkpt lat="48.698" lon="2.14055">
        <ele>79.2</ele>
        <time>2026-05-24T09:19:26Z</time>
      </trkpt>
      <trkpt lat="48.69799" lon="2.14059">
        <ele>79.2</ele>
        <time>2026-05-24T09:19:27Z</time>
      </trkpt>
      <trkpt lat="48.69798" lon="2.14063">
        <ele>80.2</ele>
        <time>2026-05-24T09:19:28Z</time>
      </trkpt>
      <trkpt lat="48.69797" lon="2.14067">
        <ele>80.2</ele>
        <time>2026-05-24T09:19:29Z</time>
      </trkpt>
      <trkpt lat="48.69797" lon="2.14071">
        <ele>80.2</ele>
        <time>2026-05-24T09:19:30Z</time>
      </trkpt>
      <trkpt lat="48.69796" lon="2.14075">
        <ele>80.2</ele>
        <time>2026-05-24T09:19:31Z</time>
      </trkpt>
      <trkpt lat="48.69795" lon="2.1408">
        <ele>81.2</ele>
        <time>2026-05-24T09:19:32Z</time>
      </trkpt>
      <trkpt lat="48.69794" lon="2.14084">
        <ele>81.6</ele>
        <time>2026-05-24T09:19:33Z</time>
      </trkpt>
      <trkpt lat="48.69793" lon="2.14088">
        <ele>81.6</ele>
        <time>2026-05-24T09:19:34Z</time>
      </trkpt>
      <trkpt lat="48.69792" lon="2.14092">
        <ele>81.6</ele>
        <time>2026-05-24T09:19:35Z</time>
      </trkpt>
      <trkpt lat="48.69791" lon="2.14096">
        <ele>81.6</ele>
        <time>2026-05-24T09:19:36Z</time>
      </trkpt>
      <trkpt lat="48.6979" lon="2.14101">
        <ele>82</ele>
        <time>2026-05-24T09:19:37Z</time>
      </trkpt>
      <trkpt lat="48.69789" lon="2.14104">
        <ele>82</ele>
        <time>2026-05-24T09:19:38Z</time>
      </trkpt>
      <trkpt lat="48.69788" lon="2.14108">
        <ele>82</ele>
        <time>2026-05-24T09:19:39Z</time>
      </trkpt>
      <trkpt lat="48.69787" lon="2.14111">
        <ele>82</ele>
        <time>2026-05-24T09:19:40Z</time>
      </trkpt>
      <trkpt lat="48.69787" lon="2.14114">
        <ele>83</ele>
        <time>2026-05-24T09:19:41Z</time>
      </trkpt>
      <trkpt lat="48.69786" lon="2.14118">
        <ele>83</ele>
        <time>2026-05-24T09:19:42Z</time>
      </trkpt>
      <trkpt lat="48.69785" lon="2.14121">
        <ele>83</ele>
        <time>2026-05-24T09:19:43Z</time>
      </trkpt>
      <trkpt lat="48.69785" lon="2.14125">
        <ele>83</ele>
        <time>2026-05-24T09:19:44Z</time>
      </trkpt>
      <trkpt lat="48.69785" lon="2.14129">
        <ele>82.4</ele>
        <time>2026-05-24T09:19:45Z</time>
      </trkpt>
      <trkpt lat="48.69784" lon="2.14132">
        <ele>82.4</ele>
        <time>2026-05-24T09:19:46Z</time>
      </trkpt>
      <trkpt lat="48.69782" lon="2.14134">
        <ele>82.4</ele>
        <time>2026-05-24T09:19:47Z</time>
      </trkpt>
      <trkpt lat="48.69781" lon="2.14136">
        <ele>83.4</ele>
        <time>2026-05-24T09:19:48Z</time>
      </trkpt>
      <trkpt lat="48.69779" lon="2.14138">
        <ele>84.2</ele>
        <time>2026-05-24T09:19:49Z</time>
      </trkpt>
      <trkpt lat="48.69778" lon="2.14141">
        <ele>84.2</ele>
        <time>2026-05-24T09:19:50Z</time>
      </trkpt>
      <trkpt lat="48.69775" lon="2.14143">
        <ele>84.2</ele>
        <time>2026-05-24T09:19:51Z</time>
      </trkpt>
      <trkpt lat="48.69773" lon="2.14145">
        <ele>84.4</ele>
        <time>2026-05-24T09:19:52Z</time>
      </trkpt>
      <trkpt lat="48.6977" lon="2.14145">
        <ele>84.6</ele>
        <time>2026-05-24T09:19:53Z</time>
      </trkpt>
      <trkpt lat="48.69768" lon="2.14146">
        <ele>84.6</ele>
        <time>2026-05-24T09:19:54Z</time>
      </trkpt>
      <trkpt lat="48.69765" lon="2.14146">
        <ele>84.6</ele>
        <time>2026-05-24T09:19:55Z</time>
      </trkpt>
      <trkpt lat="48.69763" lon="2.14147">
        <ele>85.4</ele>
        <time>2026-05-24T09:19:56Z</time>
      </trkpt>
      <trkpt lat="48.69761" lon="2.14148">
        <ele>85.4</ele>
        <time>2026-05-24T09:19:57Z</time>
      </trkpt>
      <trkpt lat="48.69759" lon="2.1415">
        <ele>85.4</ele>
        <time>2026-05-24T09:19:58Z</time>
      </trkpt>
      <trkpt lat="48.69757" lon="2.1415">
        <ele>85.4</ele>
        <time>2026-05-24T09:19:59Z</time>
      </trkpt>
      <trkpt lat="48.69754" lon="2.14151">
        <ele>86</ele>
        <time>2026-05-24T09:20:00Z</time>
      </trkpt>
      <trkpt lat="48.69752" lon="2.14151">
        <ele>86</ele>
        <time>2026-05-24T09:20:01Z</time>
      </trkpt>
      <trkpt lat="48.6975" lon="2.14152">
        <ele>86</ele>
        <time>2026-05-24T09:20:02Z</time>
      </trkpt>
      <trkpt lat="48.69748" lon="2.14152">
        <ele>86</ele>
        <time>2026-05-24T09:20:03Z</time>
      </trkpt>
      <trkpt lat="48.69746" lon="2.14152">
        <ele>86.8</ele>
        <time>2026-05-24T09:20:04Z</time>
      </trkpt>
      <trkpt lat="48.69744" lon="2.14152">
        <ele>86.8</ele>
        <time>2026-05-24T09:20:05Z</time>
      </trkpt>
      <trkpt lat="48.69741" lon="2.14152">
        <ele>86.8</ele>
        <time>2026-05-24T09:20:06Z</time>
      </trkpt>
      <trkpt lat="48.69739" lon="2.14152">
        <ele>86.8</ele>
        <time>2026-05-24T09:20:07Z</time>
      </trkpt>
      <trkpt lat="48.69737" lon="2.14152">
        <ele>87.6</ele>
        <time>2026-05-24T09:20:08Z</time>
      </trkpt>
      <trkpt lat="48.69735" lon="2.14152">
        <ele>88.2</ele>
        <time>2026-05-24T09:20:09Z</time>
      </trkpt>
      <trkpt lat="48.69733" lon="2.14152">
        <ele>88.2</ele>
        <time>2026-05-24T09:20:10Z</time>
      </trkpt>
      <trkpt lat="48.69731" lon="2.14153">
        <ele>88.2</ele>
        <time>2026-05-24T09:20:11Z</time>
      </trkpt>
      <trkpt lat="48.69729" lon="2.14153">
        <ele>88.4</ele>
        <time>2026-05-24T09:20:12Z</time>
      </trkpt>
      <trkpt lat="48.69726" lon="2.14153">
        <ele>88.8</ele>
        <time>2026-05-24T09:20:13Z</time>
      </trkpt>
      <trkpt lat="48.69724" lon="2.14153">
        <ele>88.8</ele>
        <time>2026-05-24T09:20:14Z</time>
      </trkpt>
      <trkpt lat="48.69722" lon="2.14153">
        <ele>88.8</ele>
        <time>2026-05-24T09:20:15Z</time>
      </trkpt>
      <trkpt lat="48.6972" lon="2.14153">
        <ele>88.8</ele>
        <time>2026-05-24T09:20:16Z</time>
      </trkpt>
      <trkpt lat="48.69718" lon="2.14153">
        <ele>89.4</ele>
        <time>2026-05-24T09:20:17Z</time>
      </trkpt>
      <trkpt lat="48.69716" lon="2.14154">
        <ele>89.4</ele>
        <time>2026-05-24T09:20:18Z</time>
      </trkpt>
      <trkpt lat="48.69714" lon="2.14154">
        <ele>89.4</ele>
        <time>2026-05-24T09:20:19Z</time>
      </trkpt>
      <trkpt lat="48.69712" lon="2.14154">
        <ele>90</ele>
        <time>2026-05-24T09:20:20Z</time>
      </trkpt>
      <trkpt lat="48.6971" lon="2.14155">
        <ele>90</ele>
        <time>2026-05-24T09:20:21Z</time>
      </trkpt>
      <trkpt lat="48.69708" lon="2.14155">
        <ele>90</ele>
        <time>2026-05-24T09:20:22Z</time>
      </trkpt>
      <trkpt lat="48.69706" lon="2.14155">
        <ele>90</ele>
        <time>2026-05-24T09:20:23Z</time>
      </trkpt>
      <trkpt lat="48.69704" lon="2.14154">
        <ele>90.4</ele>
        <time>2026-05-24T09:20:24Z</time>
      </trkpt>
      <trkpt lat="48.69701" lon="2.14154">
        <ele>90.8</ele>
        <time>2026-05-24T09:20:25Z</time>
      </trkpt>
      <trkpt lat="48.69699" lon="2.14153">
        <ele>90.8</ele>
        <time>2026-05-24T09:20:26Z</time>
      </trkpt>
      <trkpt lat="48.69697" lon="2.14153">
        <ele>90.8</ele>
        <time>2026-05-24T09:20:27Z</time>
      </trkpt>
      <trkpt lat="48.69695" lon="2.14153">
        <ele>91.2</ele>
        <time>2026-05-24T09:20:28Z</time>
      </trkpt>
      <trkpt lat="48.69693" lon="2.14153">
        <ele>91.6</ele>
        <time>2026-05-24T09:20:29Z</time>
      </trkpt>
      <trkpt lat="48.69691" lon="2.14152">
        <ele>91.6</ele>
        <time>2026-05-24T09:20:30Z</time>
      </trkpt>
      <trkpt lat="48.69689" lon="2.14152">
        <ele>91.6</ele>
        <time>2026-05-24T09:20:31Z</time>
      </trkpt>
      <trkpt lat="48.69687" lon="2.14152">
        <ele>92</ele>
        <time>2026-05-24T09:20:32Z</time>
      </trkpt>
      <trkpt lat="48.69684" lon="2.14151">
        <ele>91.8</ele>
        <time>2026-05-24T09:20:33Z</time>
      </trkpt>
      <trkpt lat="48.69682" lon="2.14151">
        <ele>91.8</ele>
        <time>2026-05-24T09:20:34Z</time>
      </trkpt>
      <trkpt lat="48.6968" lon="2.14151">
        <ele>91.8</ele>
        <time>2026-05-24T09:20:35Z</time>
      </trkpt>
      <trkpt lat="48.69678" lon="2.14151">
        <ele>92.4</ele>
        <time>2026-05-24T09:20:36Z</time>
      </trkpt>
      <trkpt lat="48.69676" lon="2.14152">
        <ele>92.6</ele>
        <time>2026-05-24T09:20:37Z</time>
      </trkpt>
      <trkpt lat="48.69674" lon="2.14153">
        <ele>92.6</ele>
        <time>2026-05-24T09:20:38Z</time>
      </trkpt>
      <trkpt lat="48.69672" lon="2.14154">
        <ele>92.6</ele>
        <time>2026-05-24T09:20:39Z</time>
      </trkpt>
      <trkpt lat="48.69669" lon="2.14154">
        <ele>93</ele>
        <time>2026-05-24T09:20:40Z</time>
      </trkpt>
      <trkpt lat="48.69667" lon="2.14155">
        <ele>92.8</ele>
        <time>2026-05-24T09:20:41Z</time>
      </trkpt>
      <trkpt lat="48.69665" lon="2.14155">
        <ele>92.8</ele>
        <time>2026-05-24T09:20:42Z</time>
      </trkpt>
      <trkpt lat="48.69663" lon="2.14156">
        <ele>92.8</ele>
        <time>2026-05-24T09:20:43Z</time>
      </trkpt>
      <trkpt lat="48.69661" lon="2.14156">
        <ele>93.2</ele>
        <time>2026-05-24T09:20:44Z</time>
      </trkpt>
      <trkpt lat="48.69659" lon="2.14156">
        <ele>93.4</ele>
        <time>2026-05-24T09:20:45Z</time>
      </trkpt>
      <trkpt lat="48.69657" lon="2.14156">
        <ele>93.4</ele>
        <time>2026-05-24T09:20:46Z</time>
      </trkpt>
      <trkpt lat="48.69654" lon="2.14157">
        <ele>93.4</ele>
        <time>2026-05-24T09:20:47Z</time>
      </trkpt>
      <trkpt lat="48.69652" lon="2.14157">
        <ele>93.4</ele>
        <time>2026-05-24T09:20:48Z</time>
      </trkpt>
      <trkpt lat="48.6965" lon="2.14157">
        <ele>94.4</ele>
        <time>2026-05-24T09:20:49Z</time>
      </trkpt>
      <trkpt lat="48.69648" lon="2.14158">
        <ele>94.4</ele>
        <time>2026-05-24T09:20:50Z</time>
      </trkpt>
      <trkpt lat="48.69646" lon="2.14158">
        <ele>94.4</ele>
        <time>2026-05-24T09:20:51Z</time>
      </trkpt>
      <trkpt lat="48.69644" lon="2.14159">
        <ele>95</ele>
        <time>2026-05-24T09:20:52Z</time>
      </trkpt>
      <trkpt lat="48.69641" lon="2.14159">
        <ele>95</ele>
        <time>2026-05-24T09:20:53Z</time>
      </trkpt>
      <trkpt lat="48.69639" lon="2.14159">
        <ele>95</ele>
        <time>2026-05-24T09:20:54Z</time>
      </trkpt>
      <trkpt lat="48.69637" lon="2.14159">
        <ele>95</ele>
        <time>2026-05-24T09:20:55Z</time>
      </trkpt>
      <trkpt lat="48.69635" lon="2.14159">
        <ele>95.6</ele>
        <time>2026-05-24T09:20:56Z</time>
      </trkpt>
      <trkpt lat="48.69633" lon="2.14159">
        <ele>95.2</ele>
        <time>2026-05-24T09:20:57Z</time>
      </trkpt>
      <trkpt lat="48.6963" lon="2.14159">
        <ele>95.2</ele>
        <time>2026-05-24T09:20:58Z</time>
      </trkpt>
      <trkpt lat="48.69628" lon="2.1416">
        <ele>95.2</ele>
        <time>2026-05-24T09:20:59Z</time>
      </trkpt>
      <trkpt lat="48.69626" lon="2.1416">
        <ele>95.8</ele>
        <time>2026-05-24T09:21:00Z</time>
      </trkpt>
      <trkpt lat="48.69624" lon="2.14161">
        <ele>95.8</ele>
        <time>2026-05-24T09:21:01Z</time>
      </trkpt>
      <trkpt lat="48.69622" lon="2.14161">
        <ele>95.8</ele>
        <time>2026-05-24T09:21:02Z</time>
      </trkpt>
      <trkpt lat="48.69619" lon="2.14161">
        <ele>95.8</ele>
        <time>2026-05-24T09:21:03Z</time>
      </trkpt>
      <trkpt lat="48.69617" lon="2.14161">
        <ele>95.8</ele>
        <time>2026-05-24T09:21:04Z</time>
      </trkpt>
      <trkpt lat="48.69615" lon="2.14161">
        <ele>96</ele>
        <time>2026-05-24T09:21:05Z</time>
      </trkpt>
      <trkpt lat="48.69613" lon="2.14161">
        <ele>96</ele>
        <time>2026-05-24T09:21:06Z</time>
      </trkpt>
      <trkpt lat="48.6961" lon="2.14161">
        <ele>96</ele>
        <time>2026-05-24T09:21:07Z</time>
      </trkpt>
      <trkpt lat="48.69608" lon="2.14162">
        <ele>96.8</ele>
        <time>2026-05-24T09:21:08Z</time>
      </trkpt>
      <trkpt lat="48.69606" lon="2.14161">
        <ele>97</ele>
        <time>2026-05-24T09:21:09Z</time>
      </trkpt>
      <trkpt lat="48.69604" lon="2.14162">
        <ele>97</ele>
        <time>2026-05-24T09:21:10Z</time>
      </trkpt>
      <trkpt lat="48.69601" lon="2.14161">
        <ele>97</ele>
        <time>2026-05-24T09:21:11Z</time>
      </trkpt>
      <trkpt lat="48.69599" lon="2.14161">
        <ele>97</ele>
        <time>2026-05-24T09:21:12Z</time>
      </trkpt>
      <trkpt lat="48.69597" lon="2.14162">
        <ele>97.4</ele>
        <time>2026-05-24T09:21:13Z</time>
      </trkpt>
      <trkpt lat="48.69594" lon="2.14162">
        <ele>97.4</ele>
        <time>2026-05-24T09:21:14Z</time>
      </trkpt>
      <trkpt lat="48.69592" lon="2.14162">
        <ele>97.4</ele>
        <time>2026-05-24T09:21:15Z</time>
      </trkpt>
      <trkpt lat="48.6959" lon="2.14162">
        <ele>97.4</ele>
        <time>2026-05-24T09:21:16Z</time>
      </trkpt>
      <trkpt lat="48.69588" lon="2.14163">
        <ele>98</ele>
        <time>2026-05-24T09:21:17Z</time>
      </trkpt>
      <trkpt lat="48.69585" lon="2.14163">
        <ele>98</ele>
        <time>2026-05-24T09:21:18Z</time>
      </trkpt>
      <trkpt lat="48.69583" lon="2.14164">
        <ele>98</ele>
        <time>2026-05-24T09:21:19Z</time>
      </trkpt>
      <trkpt lat="48.69581" lon="2.14164">
        <ele>98.4</ele>
        <time>2026-05-24T09:21:20Z</time>
      </trkpt>
      <trkpt lat="48.69579" lon="2.14164">
        <ele>98.6</ele>
        <time>2026-05-24T09:21:21Z</time>
      </trkpt>
      <trkpt lat="48.69577" lon="2.14164">
        <ele>98.6</ele>
        <time>2026-05-24T09:21:22Z</time>
      </trkpt>
      <trkpt lat="48.69576" lon="2.14164">
        <ele>98.6</ele>
        <time>2026-05-24T09:21:23Z</time>
      </trkpt>
      <trkpt lat="48.69574" lon="2.14165">
        <ele>98.6</ele>
        <time>2026-05-24T09:21:24Z</time>
      </trkpt>
      <trkpt lat="48.69573" lon="2.14165">
        <ele>99.6</ele>
        <time>2026-05-24T09:21:25Z</time>
      </trkpt>
      <trkpt lat="48.69571" lon="2.14165">
        <ele>99.6</ele>
        <time>2026-05-24T09:21:26Z</time>
      </trkpt>
      <trkpt lat="48.69569" lon="2.14165">
        <ele>99.6</ele>
        <time>2026-05-24T09:21:27Z</time>
      </trkpt>
      <trkpt lat="48.69568" lon="2.14165">
        <ele>100.4</ele>
        <time>2026-05-24T09:21:28Z</time>
      </trkpt>
      <trkpt lat="48.69567" lon="2.14165">
        <ele>100.8</ele>
        <time>2026-05-24T09:21:29Z</time>
      </trkpt>
      <trkpt lat="48.69565" lon="2.14164">
        <ele>100.8</ele>
        <time>2026-05-24T09:21:30Z</time>
      </trkpt>
      <trkpt lat="48.69564" lon="2.14165">
        <ele>100.8</ele>
        <time>2026-05-24T09:21:31Z</time>
      </trkpt>
      <trkpt lat="48.69562" lon="2.14165">
        <ele>100.8</ele>
        <time>2026-05-24T09:21:32Z</time>
      </trkpt>
      <trkpt lat="48.69561" lon="2.14165">
        <ele>101.4</ele>
        <time>2026-05-24T09:21:33Z</time>
      </trkpt>
      <trkpt lat="48.69559" lon="2.14165">
        <ele>101.4</ele>
        <time>2026-05-24T09:21:34Z</time>
      </trkpt>
      <trkpt lat="48.69558" lon="2.14165">
        <ele>101.4</ele>
        <time>2026-05-24T09:21:35Z</time>
      </trkpt>
      <trkpt lat="48.69556" lon="2.14165">
        <ele>101.4</ele>
        <time>2026-05-24T09:21:36Z</time>
      </trkpt>
      <trkpt lat="48.69555" lon="2.14164">
        <ele>102.4</ele>
        <time>2026-05-24T09:21:37Z</time>
      </trkpt>
      <trkpt lat="48.69553" lon="2.14164">
        <ele>102.4</ele>
        <time>2026-05-24T09:21:38Z</time>
      </trkpt>
      <trkpt lat="48.69551" lon="2.14163">
        <ele>102.4</ele>
        <time>2026-05-24T09:21:39Z</time>
      </trkpt>
      <trkpt lat="48.6955" lon="2.14163">
        <ele>102.4</ele>
        <time>2026-05-24T09:21:40Z</time>
      </trkpt>
      <trkpt lat="48.69548" lon="2.14163">
        <ele>102.8</ele>
        <time>2026-05-24T09:21:41Z</time>
      </trkpt>
      <trkpt lat="48.69546" lon="2.14163">
        <ele>102.8</ele>
        <time>2026-05-24T09:21:42Z</time>
      </trkpt>
      <trkpt lat="48.69545" lon="2.14163">
        <ele>102.8</ele>
        <time>2026-05-24T09:21:43Z</time>
      </trkpt>
      <trkpt lat="48.69543" lon="2.14163">
        <ele>103.6</ele>
        <time>2026-05-24T09:21:44Z</time>
      </trkpt>
      <trkpt lat="48.69541" lon="2.14162">
        <ele>103.6</ele>
        <time>2026-05-24T09:21:45Z</time>
      </trkpt>
      <trkpt lat="48.6954" lon="2.14162">
        <ele>103.6</ele>
        <time>2026-05-24T09:21:46Z</time>
      </trkpt>
      <trkpt lat="48.69538" lon="2.14162">
        <ele>103.6</ele>
        <time>2026-05-24T09:21:47Z</time>
      </trkpt>
      <trkpt lat="48.69536" lon="2.14162">
        <ele>104.2</ele>
        <time>2026-05-24T09:21:48Z</time>
      </trkpt>
      <trkpt lat="48.69535" lon="2.14162">
        <ele>104.6</ele>
        <time>2026-05-24T09:21:49Z</time>
      </trkpt>
      <trkpt lat="48.69533" lon="2.14162">
        <ele>104.6</ele>
        <time>2026-05-24T09:21:50Z</time>
      </trkpt>
      <trkpt lat="48.69531" lon="2.14162">
        <ele>104.6</ele>
        <time>2026-05-24T09:21:51Z</time>
      </trkpt>
      <trkpt lat="48.6953" lon="2.14162">
        <ele>104.4</ele>
        <time>2026-05-24T09:21:52Z</time>
      </trkpt>
      <trkpt lat="48.69528" lon="2.14162">
        <ele>104.6</ele>
        <time>2026-05-24T09:21:53Z</time>
      </trkpt>
      <trkpt lat="48.69527" lon="2.14162">
        <ele>104.6</ele>
        <time>2026-05-24T09:21:54Z</time>
      </trkpt>
      <trkpt lat="48.69525" lon="2.14161">
        <ele>104.6</ele>
        <time>2026-05-24T09:21:55Z</time>
      </trkpt>
      <trkpt lat="48.69523" lon="2.14162">
        <ele>105.6</ele>
        <time>2026-05-24T09:21:56Z</time>
      </trkpt>
      <trkpt lat="48.69522" lon="2.14161">
        <ele>105.2</ele>
        <time>2026-05-24T09:21:57Z</time>
      </trkpt>
      <trkpt lat="48.6952" lon="2.14161">
        <ele>105.2</ele>
        <time>2026-05-24T09:21:58Z</time>
      </trkpt>
      <trkpt lat="48.69518" lon="2.14162">
        <ele>105.2</ele>
        <time>2026-05-24T09:21:59Z</time>
      </trkpt>
      <trkpt lat="48.69517" lon="2.14162">
        <ele>105.2</ele>
        <time>2026-05-24T09:22:00Z</time>
      </trkpt>
      <trkpt lat="48.69515" lon="2.14162">
        <ele>106</ele>
        <time>2026-05-24T09:22:01Z</time>
      </trkpt>
      <trkpt lat="48.69513" lon="2.14162">
        <ele>106</ele>
        <time>2026-05-24T09:22:02Z</time>
      </trkpt>
      <trkpt lat="48.69512" lon="2.14163">
        <ele>106</ele>
        <time>2026-05-24T09:22:03Z</time>
      </trkpt>
      <trkpt lat="48.6951" lon="2.14163">
        <ele>106</ele>
        <time>2026-05-24T09:22:04Z</time>
      </trkpt>
      <trkpt lat="48.69509" lon="2.14164">
        <ele>106.2</ele>
        <time>2026-05-24T09:22:05Z</time>
      </trkpt>
      <trkpt lat="48.69507" lon="2.14164">
        <ele>106.2</ele>
        <time>2026-05-24T09:22:06Z</time>
      </trkpt>
      <trkpt lat="48.69505" lon="2.14165">
        <ele>106.2</ele>
        <time>2026-05-24T09:22:07Z</time>
      </trkpt>
      <trkpt lat="48.69504" lon="2.14165">
        <ele>107</ele>
        <time>2026-05-24T09:22:08Z</time>
      </trkpt>
      <trkpt lat="48.69502" lon="2.14165">
        <ele>106.6</ele>
        <time>2026-05-24T09:22:09Z</time>
      </trkpt>
      <trkpt lat="48.695" lon="2.14166">
        <ele>106.6</ele>
        <time>2026-05-24T09:22:10Z</time>
      </trkpt>
      <trkpt lat="48.69499" lon="2.14167">
        <ele>106.6</ele>
        <time>2026-05-24T09:22:11Z</time>
      </trkpt>
      <trkpt lat="48.69497" lon="2.14168">
        <ele>107.6</ele>
        <time>2026-05-24T09:22:12Z</time>
      </trkpt>
      <trkpt lat="48.69496" lon="2.14169">
        <ele>108</ele>
        <time>2026-05-24T09:22:13Z</time>
      </trkpt>
      <trkpt lat="48.69494" lon="2.1417">
        <ele>108</ele>
        <time>2026-05-24T09:22:14Z</time>
      </trkpt>
      <trkpt lat="48.69493" lon="2.14171">
        <ele>108</ele>
        <time>2026-05-24T09:22:15Z</time>
      </trkpt>
      <trkpt lat="48.69492" lon="2.14172">
        <ele>108</ele>
        <time>2026-05-24T09:22:16Z</time>
      </trkpt>
      <trkpt lat="48.6949" lon="2.14173">
        <ele>108.2</ele>
        <time>2026-05-24T09:22:17Z</time>
      </trkpt>
      <trkpt lat="48.69489" lon="2.14174">
        <ele>108.2</ele>
        <time>2026-05-24T09:22:18Z</time>
      </trkpt>
      <trkpt lat="48.69488" lon="2.14174">
        <ele>108.2</ele>
        <time>2026-05-24T09:22:19Z</time>
      </trkpt>
      <trkpt lat="48.69486" lon="2.14176">
        <ele>108.2</ele>
        <time>2026-05-24T09:22:20Z</time>
      </trkpt>
      <trkpt lat="48.69485" lon="2.14176">
        <ele>108.2</ele>
        <time>2026-05-24T09:22:21Z</time>
      </trkpt>
      <trkpt lat="48.69484" lon="2.14176">
        <ele>108.2</ele>
        <time>2026-05-24T09:22:22Z</time>
      </trkpt>
      <trkpt lat="48.69482" lon="2.14177">
        <ele>108.2</ele>
        <time>2026-05-24T09:22:23Z</time>
      </trkpt>
      <trkpt lat="48.69481" lon="2.14177">
        <ele>109</ele>
        <time>2026-05-24T09:22:24Z</time>
      </trkpt>
      <trkpt lat="48.69479" lon="2.14178">
        <ele>109</ele>
        <time>2026-05-24T09:22:25Z</time>
      </trkpt>
      <trkpt lat="48.69477" lon="2.14179">
        <ele>109</ele>
        <time>2026-05-24T09:22:26Z</time>
      </trkpt>
      <trkpt lat="48.69476" lon="2.14179">
        <ele>109</ele>
        <time>2026-05-24T09:22:27Z</time>
      </trkpt>
      <trkpt lat="48.69474" lon="2.1418">
        <ele>110</ele>
        <time>2026-05-24T09:22:28Z</time>
      </trkpt>
      <trkpt lat="48.69473" lon="2.1418">
        <ele>109.8</ele>
        <time>2026-05-24T09:22:29Z</time>
      </trkpt>
      <trkpt lat="48.69471" lon="2.1418">
        <ele>109.8</ele>
        <time>2026-05-24T09:22:30Z</time>
      </trkpt>
      <trkpt lat="48.6947" lon="2.1418">
        <ele>109.8</ele>
        <time>2026-05-24T09:22:31Z</time>
      </trkpt>
      <trkpt lat="48.69468" lon="2.1418">
        <ele>110.8</ele>
        <time>2026-05-24T09:22:32Z</time>
      </trkpt>
      <trkpt lat="48.69467" lon="2.14181">
        <ele>111</ele>
        <time>2026-05-24T09:22:33Z</time>
      </trkpt>
      <trkpt lat="48.69465" lon="2.1418">
        <ele>111</ele>
        <time>2026-05-24T09:22:34Z</time>
      </trkpt>
      <trkpt lat="48.69464" lon="2.1418">
        <ele>111</ele>
        <time>2026-05-24T09:22:35Z</time>
      </trkpt>
      <trkpt lat="48.69462" lon="2.1418">
        <ele>111.4</ele>
        <time>2026-05-24T09:22:36Z</time>
      </trkpt>
      <trkpt lat="48.6946" lon="2.1418">
        <ele>111.8</ele>
        <time>2026-05-24T09:22:37Z</time>
      </trkpt>
      <trkpt lat="48.69459" lon="2.1418">
        <ele>111.8</ele>
        <time>2026-05-24T09:22:38Z</time>
      </trkpt>
      <trkpt lat="48.69457" lon="2.1418">
        <ele>111.8</ele>
        <time>2026-05-24T09:22:39Z</time>
      </trkpt>
      <trkpt lat="48.69456" lon="2.1418">
        <ele>112.6</ele>
        <time>2026-05-24T09:22:40Z</time>
      </trkpt>
      <trkpt lat="48.69454" lon="2.1418">
        <ele>112.4</ele>
        <time>2026-05-24T09:22:41Z</time>
      </trkpt>
      <trkpt lat="48.69452" lon="2.1418">
        <ele>112.4</ele>
        <time>2026-05-24T09:22:42Z</time>
      </trkpt>
      <trkpt lat="48.6945" lon="2.1418">
        <ele>112.4</ele>
        <time>2026-05-24T09:22:43Z</time>
      </trkpt>
      <trkpt lat="48.69449" lon="2.1418">
        <ele>113.4</ele>
        <time>2026-05-24T09:22:44Z</time>
      </trkpt>
      <trkpt lat="48.69447" lon="2.14179">
        <ele>113.6</ele>
        <time>2026-05-24T09:22:45Z</time>
      </trkpt>
      <trkpt lat="48.69445" lon="2.14179">
        <ele>113.6</ele>
        <time>2026-05-24T09:22:46Z</time>
      </trkpt>
      <trkpt lat="48.69444" lon="2.14179">
        <ele>113.6</ele>
        <time>2026-05-24T09:22:47Z</time>
      </trkpt>
      <trkpt lat="48.69442" lon="2.14179">
        <ele>114</ele>
        <time>2026-05-24T09:22:48Z</time>
      </trkpt>
      <trkpt lat="48.6944" lon="2.14179">
        <ele>114.4</ele>
        <time>2026-05-24T09:22:49Z</time>
      </trkpt>
      <trkpt lat="48.69439" lon="2.14179">
        <ele>114.4</ele>
        <time>2026-05-24T09:22:50Z</time>
      </trkpt>
      <trkpt lat="48.69437" lon="2.14179">
        <ele>114.4</ele>
        <time>2026-05-24T09:22:51Z</time>
      </trkpt>
      <trkpt lat="48.69436" lon="2.14179">
        <ele>114.4</ele>
        <time>2026-05-24T09:22:52Z</time>
      </trkpt>
      <trkpt lat="48.69434" lon="2.14179">
        <ele>115</ele>
        <time>2026-05-24T09:22:53Z</time>
      </trkpt>
      <trkpt lat="48.69432" lon="2.14179">
        <ele>115</ele>
        <time>2026-05-24T09:22:54Z</time>
      </trkpt>
      <trkpt lat="48.6943" lon="2.14178">
        <ele>115</ele>
        <time>2026-05-24T09:22:55Z</time>
      </trkpt>
      <trkpt lat="48.69428" lon="2.14179">
        <ele>115</ele>
        <time>2026-05-24T09:22:56Z</time>
      </trkpt>
      <trkpt lat="48.69426" lon="2.14179">
        <ele>115.6</ele>
        <time>2026-05-24T09:22:57Z</time>
      </trkpt>
      <trkpt lat="48.69425" lon="2.1418">
        <ele>115.6</ele>
        <time>2026-05-24T09:22:58Z</time>
      </trkpt>
      <trkpt lat="48.69424" lon="2.1418">
        <ele>115.6</ele>
        <time>2026-05-24T09:22:59Z</time>
      </trkpt>
      <trkpt lat="48.69423" lon="2.14179">
        <ele>115.8</ele>
        <time>2026-05-24T09:23:00Z</time>
      </trkpt>
      <trkpt lat="48.69421" lon="2.14179">
        <ele>116.4</ele>
        <time>2026-05-24T09:23:01Z</time>
      </trkpt>
      <trkpt lat="48.69419" lon="2.14179">
        <ele>116.4</ele>
        <time>2026-05-24T09:23:02Z</time>
      </trkpt>
      <trkpt lat="48.69417" lon="2.14178">
        <ele>116.4</ele>
        <time>2026-05-24T09:23:03Z</time>
      </trkpt>
      <trkpt lat="48.69415" lon="2.14177">
        <ele>116.4</ele>
        <time>2026-05-24T09:23:04Z</time>
      </trkpt>
      <trkpt lat="48.69413" lon="2.14177">
        <ele>116.6</ele>
        <time>2026-05-24T09:23:05Z</time>
      </trkpt>
      <trkpt lat="48.6941" lon="2.14177">
        <ele>116.6</ele>
        <time>2026-05-24T09:23:06Z</time>
      </trkpt>
      <trkpt lat="48.69409" lon="2.14177">
        <ele>116.6</ele>
        <time>2026-05-24T09:23:07Z</time>
      </trkpt>
      <trkpt lat="48.69407" lon="2.14177">
        <ele>117</ele>
        <time>2026-05-24T09:23:08Z</time>
      </trkpt>
      <trkpt lat="48.69406" lon="2.14177">
        <ele>117.4</ele>
        <time>2026-05-24T09:23:09Z</time>
      </trkpt>
      <trkpt lat="48.69404" lon="2.14175">
        <ele>117.4</ele>
        <time>2026-05-24T09:23:10Z</time>
      </trkpt>
      <trkpt lat="48.69403" lon="2.14175">
        <ele>117.4</ele>
        <time>2026-05-24T09:23:11Z</time>
      </trkpt>
      <trkpt lat="48.69401" lon="2.14174">
        <ele>117.4</ele>
        <time>2026-05-24T09:23:12Z</time>
      </trkpt>
      <trkpt lat="48.694" lon="2.14174">
        <ele>118.2</ele>
        <time>2026-05-24T09:23:13Z</time>
      </trkpt>
      <trkpt lat="48.69398" lon="2.14173">
        <ele>118.2</ele>
        <time>2026-05-24T09:23:14Z</time>
      </trkpt>
      <trkpt lat="48.69397" lon="2.14172">
        <ele>118.2</ele>
        <time>2026-05-24T09:23:15Z</time>
      </trkpt>
      <trkpt lat="48.69395" lon="2.14172">
        <ele>118.2</ele>
        <time>2026-05-24T09:23:16Z</time>
      </trkpt>
      <trkpt lat="48.69393" lon="2.14172">
        <ele>119</ele>
        <time>2026-05-24T09:23:17Z</time>
      </trkpt>
      <trkpt lat="48.69392" lon="2.14171">
        <ele>119</ele>
        <time>2026-05-24T09:23:18Z</time>
      </trkpt>
      <trkpt lat="48.69392" lon="2.1417">
        <ele>119</ele>
        <time>2026-05-24T09:23:19Z</time>
      </trkpt>
      <trkpt lat="48.69391" lon="2.14168">
        <ele>119.6</ele>
        <time>2026-05-24T09:23:20Z</time>
      </trkpt>
      <trkpt lat="48.69391" lon="2.14166">
        <ele>120.6</ele>
        <time>2026-05-24T09:23:21Z</time>
      </trkpt>
      <trkpt lat="48.69391" lon="2.14163">
        <ele>120.6</ele>
        <time>2026-05-24T09:23:22Z</time>
      </trkpt>
      <trkpt lat="48.6939" lon="2.1416">
        <ele>120.6</ele>
        <time>2026-05-24T09:23:23Z</time>
      </trkpt>
      <trkpt lat="48.6939" lon="2.14158">
        <ele>119.8</ele>
        <time>2026-05-24T09:23:24Z</time>
      </trkpt>
      <trkpt lat="48.6939" lon="2.14155">
        <ele>119.8</ele>
        <time>2026-05-24T09:23:25Z</time>
      </trkpt>
      <trkpt lat="48.69389" lon="2.14151">
        <ele>119.8</ele>
        <time>2026-05-24T09:23:26Z</time>
      </trkpt>
      <trkpt lat="48.6939" lon="2.14147">
        <ele>119.8</ele>
        <time>2026-05-24T09:23:27Z</time>
      </trkpt>
      <trkpt lat="48.69391" lon="2.14144">
        <ele>119.8</ele>
        <time>2026-05-24T09:23:28Z</time>
      </trkpt>
      <trkpt lat="48.69391" lon="2.14138">
        <ele>119.6</ele>
        <time>2026-05-24T09:23:29Z</time>
      </trkpt>
      <trkpt lat="48.69391" lon="2.14134">
        <ele>119.6</ele>
        <time>2026-05-24T09:23:30Z</time>
      </trkpt>
      <trkpt lat="48.6939" lon="2.14129">
        <ele>119.6</ele>
        <time>2026-05-24T09:23:31Z</time>
      </trkpt>
      <trkpt lat="48.69391" lon="2.14124">
        <ele>118.6</ele>
        <time>2026-05-24T09:23:32Z</time>
      </trkpt>
      <trkpt lat="48.6939" lon="2.14119">
        <ele>118.2</ele>
        <time>2026-05-24T09:23:33Z</time>
      </trkpt>
      <trkpt lat="48.69389" lon="2.14116">
        <ele>118.2</ele>
        <time>2026-05-24T09:23:34Z</time>
      </trkpt>
      <trkpt lat="48.69388" lon="2.14113">
        <ele>118.2</ele>
        <time>2026-05-24T09:23:35Z</time>
      </trkpt>
      <trkpt lat="48.69388" lon="2.14109">
        <ele>118.8</ele>
        <time>2026-05-24T09:23:36Z</time>
      </trkpt>
      <trkpt lat="48.69388" lon="2.14104">
        <ele>118.4</ele>
        <time>2026-05-24T09:23:37Z</time>
      </trkpt>
      <trkpt lat="48.69388" lon="2.141">
        <ele>118.4</ele>
        <time>2026-05-24T09:23:38Z</time>
      </trkpt>
      <trkpt lat="48.69389" lon="2.14096">
        <ele>118.4</ele>
        <time>2026-05-24T09:23:39Z</time>
      </trkpt>
      <trkpt lat="48.69389" lon="2.14094">
        <ele>118.4</ele>
        <time>2026-05-24T09:23:40Z</time>
      </trkpt>
      <trkpt lat="48.69389" lon="2.14092">
        <ele>117.8</ele>
        <time>2026-05-24T09:23:41Z</time>
      </trkpt>
      <trkpt lat="48.69389" lon="2.14089">
        <ele>117.8</ele>
        <time>2026-05-24T09:23:42Z</time>
      </trkpt>
      <trkpt lat="48.69388" lon="2.14085">
        <ele>117.8</ele>
        <time>2026-05-24T09:23:43Z</time>
      </trkpt>
      <trkpt lat="48.69388" lon="2.14081">
        <ele>118.4</ele>
        <time>2026-05-24T09:23:44Z</time>
      </trkpt>
      <trkpt lat="48.69389" lon="2.14077">
        <ele>117.8</ele>
        <time>2026-05-24T09:23:45Z</time>
      </trkpt>
      <trkpt lat="48.69389" lon="2.14074">
        <ele>117.8</ele>
        <time>2026-05-24T09:23:46Z</time>
      </trkpt>
      <trkpt lat="48.69389" lon="2.14073">
        <ele>117.8</ele>
        <time>2026-05-24T09:23:47Z</time>
      </trkpt>
      <trkpt lat="48.69389" lon="2.14071">
        <ele>117.8</ele>
        <time>2026-05-24T09:23:48Z</time>
      </trkpt>
      <trkpt lat="48.69388" lon="2.1407">
        <ele>118</ele>
        <time>2026-05-24T09:23:49Z</time>
      </trkpt>
      <trkpt lat="48.69387" lon="2.1407">
        <ele>118</ele>
        <time>2026-05-24T09:23:50Z</time>
      </trkpt>
      <trkpt lat="48.69386" lon="2.14069">
        <ele>118</ele>
        <time>2026-05-24T09:23:51Z</time>
      </trkpt>
      <trkpt lat="48.69384" lon="2.14069">
        <ele>118</ele>
        <time>2026-05-24T09:23:52Z</time>
      </trkpt>
      <trkpt lat="48.69383" lon="2.14068">
        <ele>118.6</ele>
        <time>2026-05-24T09:23:53Z</time>
      </trkpt>
      <trkpt lat="48.69382" lon="2.14067">
        <ele>118.6</ele>
        <time>2026-05-24T09:23:54Z</time>
      </trkpt>
      <trkpt lat="48.69381" lon="2.14066">
        <ele>118.6</ele>
        <time>2026-05-24T09:23:55Z</time>
      </trkpt>
      <trkpt lat="48.69381" lon="2.14067">
        <ele>118.6</ele>
        <time>2026-05-24T09:23:56Z</time>
      </trkpt>
      <trkpt lat="48.69381" lon="2.14067">
        <ele>118.6</ele>
        <time>2026-05-24T09:23:57Z</time>
      </trkpt>
      <trkpt lat="48.69385" lon="2.14063">
        <ele>116.8</ele>
        <time>2026-05-24T09:24:07Z</time>
      </trkpt>
      <trkpt lat="48.69386" lon="2.14061">
        <ele>116.8</ele>
        <time>2026-05-24T09:24:08Z</time>
      </trkpt>
      <trkpt lat="48.69389" lon="2.1406">
        <ele>115.8</ele>
        <time>2026-05-24T09:24:09Z</time>
      </trkpt>
      <trkpt lat="48.6939" lon="2.14058">
        <ele>115.8</ele>
        <time>2026-05-24T09:24:10Z</time>
      </trkpt>
      <trkpt lat="48.6939" lon="2.14057">
        <ele>115.8</ele>
        <time>2026-05-24T09:24:11Z</time>
      </trkpt>
      <trkpt lat="48.69391" lon="2.14055">
        <ele>115.8</ele>
        <time>2026-05-24T09:24:12Z</time>
      </trkpt>
      <trkpt lat="48.69392" lon="2.14053">
        <ele>116</ele>
        <time>2026-05-24T09:24:13Z</time>
      </trkpt>
      <trkpt lat="48.69393" lon="2.14052">
        <ele>116</ele>
        <time>2026-05-24T09:24:14Z</time>
      </trkpt>
      <trkpt lat="48.69394" lon="2.14048">
        <ele>116</ele>
        <time>2026-05-24T09:24:15Z</time>
      </trkpt>
      <trkpt lat="48.69395" lon="2.14046">
        <ele>115</ele>
        <time>2026-05-24T09:24:16Z</time>
      </trkpt>
      <trkpt lat="48.69397" lon="2.14044">
        <ele>115.6</ele>
        <time>2026-05-24T09:24:17Z</time>
      </trkpt>
      <trkpt lat="48.69399" lon="2.14042">
        <ele>115.6</ele>
        <time>2026-05-24T09:24:18Z</time>
      </trkpt>
      <trkpt lat="48.694" lon="2.14041">
        <ele>115.6</ele>
        <time>2026-05-24T09:24:19Z</time>
      </trkpt>
      <trkpt lat="48.69403" lon="2.14039">
        <ele>114.6</ele>
        <time>2026-05-24T09:24:20Z</time>
      </trkpt>
      <trkpt lat="48.69405" lon="2.14036">
        <ele>114.2</ele>
        <time>2026-05-24T09:24:21Z</time>
      </trkpt>
      <trkpt lat="48.69408" lon="2.14032">
        <ele>114.2</ele>
        <time>2026-05-24T09:24:22Z</time>
      </trkpt>
      <trkpt lat="48.69411" lon="2.14028">
        <ele>114.2</ele>
        <time>2026-05-24T09:24:23Z</time>
      </trkpt>
      <trkpt lat="48.69413" lon="2.14025">
        <ele>113.4</ele>
        <time>2026-05-24T09:24:24Z</time>
      </trkpt>
      <trkpt lat="48.69414" lon="2.1402">
        <ele>113.4</ele>
        <time>2026-05-24T09:24:25Z</time>
      </trkpt>
      <trkpt lat="48.69413" lon="2.14017">
        <ele>113.4</ele>
        <time>2026-05-24T09:24:26Z</time>
      </trkpt>
      <trkpt lat="48.69412" lon="2.14014">
        <ele>113.4</ele>
        <time>2026-05-24T09:24:27Z</time>
      </trkpt>
      <trkpt lat="48.69412" lon="2.14011">
        <ele>113.6</ele>
        <time>2026-05-24T09:24:28Z</time>
      </trkpt>
      <trkpt lat="48.69411" lon="2.14007">
        <ele>113.4</ele>
        <time>2026-05-24T09:24:29Z</time>
      </trkpt>
      <trkpt lat="48.69409" lon="2.14004">
        <ele>113.4</ele>
        <time>2026-05-24T09:24:30Z</time>
      </trkpt>
      <trkpt lat="48.69408" lon="2.14001">
        <ele>113.4</ele>
        <time>2026-05-24T09:24:31Z</time>
      </trkpt>
      <trkpt lat="48.69407" lon="2.13997">
        <ele>114.2</ele>
        <time>2026-05-24T09:24:32Z</time>
      </trkpt>
      <trkpt lat="48.69406" lon="2.13994">
        <ele>114.6</ele>
        <time>2026-05-24T09:24:33Z</time>
      </trkpt>
      <trkpt lat="48.69405" lon="2.13991">
        <ele>114.6</ele>
        <time>2026-05-24T09:24:34Z</time>
      </trkpt>
      <trkpt lat="48.69405" lon="2.13989">
        <ele>114.6</ele>
        <time>2026-05-24T09:24:35Z</time>
      </trkpt>
      <trkpt lat="48.69404" lon="2.13985">
        <ele>114.6</ele>
        <time>2026-05-24T09:24:36Z</time>
      </trkpt>
      <trkpt lat="48.69403" lon="2.13982">
        <ele>115</ele>
        <time>2026-05-24T09:24:37Z</time>
      </trkpt>
      <trkpt lat="48.69401" lon="2.13982">
        <ele>115</ele>
        <time>2026-05-24T09:24:38Z</time>
      </trkpt>
      <trkpt lat="48.69401" lon="2.13981">
        <ele>115</ele>
        <time>2026-05-24T09:24:39Z</time>
      </trkpt>
      <trkpt lat="48.694" lon="2.13978">
        <ele>115</ele>
        <time>2026-05-24T09:24:40Z</time>
      </trkpt>
      <trkpt lat="48.694" lon="2.13975">
        <ele>115.8</ele>
        <time>2026-05-24T09:24:41Z</time>
      </trkpt>
      <trkpt lat="48.69399" lon="2.13973">
        <ele>115.8</ele>
        <time>2026-05-24T09:24:42Z</time>
      </trkpt>
      <trkpt lat="48.69399" lon="2.1397">
        <ele>115.8</ele>
        <time>2026-05-24T09:24:43Z</time>
      </trkpt>
      <trkpt lat="48.69399" lon="2.13967">
        <ele>115.8</ele>
        <time>2026-05-24T09:24:44Z</time>
      </trkpt>
      <trkpt lat="48.69399" lon="2.13965">
        <ele>116.6</ele>
        <time>2026-05-24T09:24:45Z</time>
      </trkpt>
      <trkpt lat="48.69398" lon="2.13962">
        <ele>116.6</ele>
        <time>2026-05-24T09:24:46Z</time>
      </trkpt>
      <trkpt lat="48.69398" lon="2.13961">
        <ele>116.6</ele>
        <time>2026-05-24T09:24:47Z</time>
      </trkpt>
      <trkpt lat="48.69397" lon="2.13958">
        <ele>117.6</ele>
        <time>2026-05-24T09:24:48Z</time>
      </trkpt>
      <trkpt lat="48.69396" lon="2.13956">
        <ele>117</ele>
        <time>2026-05-24T09:24:49Z</time>
      </trkpt>
      <trkpt lat="48.69395" lon="2.13954">
        <ele>117</ele>
        <time>2026-05-24T09:24:50Z</time>
      </trkpt>
      <trkpt lat="48.69395" lon="2.13952">
        <ele>117</ele>
        <time>2026-05-24T09:24:51Z</time>
      </trkpt>
      <trkpt lat="48.69394" lon="2.13949">
        <ele>118</ele>
        <time>2026-05-24T09:24:52Z</time>
      </trkpt>
      <trkpt lat="48.69393" lon="2.13946">
        <ele>118.2</ele>
        <time>2026-05-24T09:24:53Z</time>
      </trkpt>
      <trkpt lat="48.69393" lon="2.13942">
        <ele>118.2</ele>
        <time>2026-05-24T09:24:54Z</time>
      </trkpt>
      <trkpt lat="48.69392" lon="2.13939">
        <ele>118.2</ele>
        <time>2026-05-24T09:24:55Z</time>
      </trkpt>
      <trkpt lat="48.69392" lon="2.13936">
        <ele>118.2</ele>
        <time>2026-05-24T09:24:56Z</time>
      </trkpt>
      <trkpt lat="48.69392" lon="2.13933">
        <ele>118.2</ele>
        <time>2026-05-24T09:24:57Z</time>
      </trkpt>
      <trkpt lat="48.69392" lon="2.13929">
        <ele>118.2</ele>
        <time>2026-05-24T09:24:58Z</time>
      </trkpt>
      <trkpt lat="48.69392" lon="2.13927">
        <ele>118.2</ele>
        <time>2026-05-24T09:24:59Z</time>
      </trkpt>
      <trkpt lat="48.69393" lon="2.13924">
        <ele>118.6</ele>
        <time>2026-05-24T09:25:00Z</time>
      </trkpt>
      <trkpt lat="48.69393" lon="2.13921">
        <ele>119</ele>
        <time>2026-05-24T09:25:01Z</time>
      </trkpt>
      <trkpt lat="48.69394" lon="2.13918">
        <ele>119</ele>
        <time>2026-05-24T09:25:02Z</time>
      </trkpt>
      <trkpt lat="48.69394" lon="2.13914">
        <ele>119</ele>
        <time>2026-05-24T09:25:03Z</time>
      </trkpt>
      <trkpt lat="48.69394" lon="2.13911">
        <ele>119</ele>
        <time>2026-05-24T09:25:04Z</time>
      </trkpt>
      <trkpt lat="48.69395" lon="2.13906">
        <ele>120.6</ele>
        <time>2026-05-24T09:25:05Z</time>
      </trkpt>
      <trkpt lat="48.69394" lon="2.13903">
        <ele>120.6</ele>
        <time>2026-05-24T09:25:06Z</time>
      </trkpt>
      <trkpt lat="48.69394" lon="2.13901">
        <ele>120.6</ele>
        <time>2026-05-24T09:25:07Z</time>
      </trkpt>
      <trkpt lat="48.69395" lon="2.13898">
        <ele>119.6</ele>
        <time>2026-05-24T09:25:08Z</time>
      </trkpt>
      <trkpt lat="48.69395" lon="2.13893">
        <ele>119.8</ele>
        <time>2026-05-24T09:25:09Z</time>
      </trkpt>
      <trkpt lat="48.69394" lon="2.1389">
        <ele>119.8</ele>
        <time>2026-05-24T09:25:10Z</time>
      </trkpt>
      <trkpt lat="48.69394" lon="2.13886">
        <ele>119.8</ele>
        <time>2026-05-24T09:25:11Z</time>
      </trkpt>
      <trkpt lat="48.69394" lon="2.13883">
        <ele>120</ele>
        <time>2026-05-24T09:25:12Z</time>
      </trkpt>
      <trkpt lat="48.69393" lon="2.13878">
        <ele>120</ele>
        <time>2026-05-24T09:25:13Z</time>
      </trkpt>
      <trkpt lat="48.69392" lon="2.13875">
        <ele>120</ele>
        <time>2026-05-24T09:25:14Z</time>
      </trkpt>
      <trkpt lat="48.69391" lon="2.13871">
        <ele>120</ele>
        <time>2026-05-24T09:25:15Z</time>
      </trkpt>
      <trkpt lat="48.69392" lon="2.13866">
        <ele>120</ele>
        <time>2026-05-24T09:25:16Z</time>
      </trkpt>
      <trkpt lat="48.69391" lon="2.13863">
        <ele>119.4</ele>
        <time>2026-05-24T09:25:17Z</time>
      </trkpt>
      <trkpt lat="48.69391" lon="2.13859">
        <ele>119.4</ele>
        <time>2026-05-24T09:25:18Z</time>
      </trkpt>
      <trkpt lat="48.69392" lon="2.13853">
        <ele>119.4</ele>
        <time>2026-05-24T09:25:19Z</time>
      </trkpt>
      <trkpt lat="48.69391" lon="2.13848">
        <ele>119.4</ele>
        <time>2026-05-24T09:25:20Z</time>
      </trkpt>
      <trkpt lat="48.69391" lon="2.13845">
        <ele>120.4</ele>
        <time>2026-05-24T09:25:21Z</time>
      </trkpt>
      <trkpt lat="48.69391" lon="2.1384">
        <ele>120.4</ele>
        <time>2026-05-24T09:25:22Z</time>
      </trkpt>
      <trkpt lat="48.69391" lon="2.13835">
        <ele>120.4</ele>
        <time>2026-05-24T09:25:23Z</time>
      </trkpt>
      <trkpt lat="48.69391" lon="2.13832">
        <ele>120.4</ele>
        <time>2026-05-24T09:25:24Z</time>
      </trkpt>
      <trkpt lat="48.6939" lon="2.13828">
        <ele>121.8</ele>
        <time>2026-05-24T09:25:25Z</time>
      </trkpt>
      <trkpt lat="48.69389" lon="2.13825">
        <ele>121.8</ele>
        <time>2026-05-24T09:25:26Z</time>
      </trkpt>
      <trkpt lat="48.69389" lon="2.13821">
        <ele>121.8</ele>
        <time>2026-05-24T09:25:27Z</time>
      </trkpt>
      <trkpt lat="48.69389" lon="2.13814">
        <ele>120.8</ele>
        <time>2026-05-24T09:25:28Z</time>
      </trkpt>
      <trkpt lat="48.69388" lon="2.13812">
        <ele>119.4</ele>
        <time>2026-05-24T09:25:29Z</time>
      </trkpt>
      <trkpt lat="48.69388" lon="2.13807">
        <ele>119.4</ele>
        <time>2026-05-24T09:25:30Z</time>
      </trkpt>
      <trkpt lat="48.69388" lon="2.13803">
        <ele>119.4</ele>
        <time>2026-05-24T09:25:31Z</time>
      </trkpt>
      <trkpt lat="48.69389" lon="2.13799">
        <ele>120.4</ele>
        <time>2026-05-24T09:25:32Z</time>
      </trkpt>
      <trkpt lat="48.69389" lon="2.13794">
        <ele>120</ele>
        <time>2026-05-24T09:25:33Z</time>
      </trkpt>
      <trkpt lat="48.69392" lon="2.13787">
        <ele>120</ele>
        <time>2026-05-24T09:25:34Z</time>
      </trkpt>
      <trkpt lat="48.69393" lon="2.13782">
        <ele>120</ele>
        <time>2026-05-24T09:25:35Z</time>
      </trkpt>
      <trkpt lat="48.69394" lon="2.13778">
        <ele>120</ele>
        <time>2026-05-24T09:25:36Z</time>
      </trkpt>
      <trkpt lat="48.69396" lon="2.13774">
        <ele>121.2</ele>
        <time>2026-05-24T09:25:37Z</time>
      </trkpt>
      <trkpt lat="48.69397" lon="2.1377">
        <ele>121.2</ele>
        <time>2026-05-24T09:25:38Z</time>
      </trkpt>
      <trkpt lat="48.694" lon="2.13763">
        <ele>121.2</ele>
        <time>2026-05-24T09:25:39Z</time>
      </trkpt>
      <trkpt lat="48.69402" lon="2.13758">
        <ele>122</ele>
        <time>2026-05-24T09:25:40Z</time>
      </trkpt>
      <trkpt lat="48.69402" lon="2.13754">
        <ele>122</ele>
        <time>2026-05-24T09:25:41Z</time>
      </trkpt>
      <trkpt lat="48.69403" lon="2.1375">
        <ele>122</ele>
        <time>2026-05-24T09:25:42Z</time>
      </trkpt>
      <trkpt lat="48.69403" lon="2.13746">
        <ele>122</ele>
        <time>2026-05-24T09:25:43Z</time>
      </trkpt>
      <trkpt lat="48.69404" lon="2.13742">
        <ele>122.2</ele>
        <time>2026-05-24T09:25:44Z</time>
      </trkpt>
      <trkpt lat="48.69404" lon="2.13737">
        <ele>122</ele>
        <time>2026-05-24T09:25:45Z</time>
      </trkpt>
      <trkpt lat="48.69405" lon="2.13732">
        <ele>122</ele>
        <time>2026-05-24T09:25:46Z</time>
      </trkpt>
      <trkpt lat="48.69406" lon="2.13726">
        <ele>122</ele>
        <time>2026-05-24T09:25:47Z</time>
      </trkpt>
      <trkpt lat="48.69407" lon="2.1372">
        <ele>122</ele>
        <time>2026-05-24T09:25:48Z</time>
      </trkpt>
      <trkpt lat="48.69409" lon="2.13715">
        <ele>122.6</ele>
        <time>2026-05-24T09:25:49Z</time>
      </trkpt>
      <trkpt lat="48.69411" lon="2.13711">
        <ele>122.6</ele>
        <time>2026-05-24T09:25:50Z</time>
      </trkpt>
      <trkpt lat="48.69411" lon="2.13706">
        <ele>122.6</ele>
        <time>2026-05-24T09:25:51Z</time>
      </trkpt>
      <trkpt lat="48.69413" lon="2.13699">
        <ele>122.4</ele>
        <time>2026-05-24T09:25:52Z</time>
      </trkpt>
      <trkpt lat="48.69414" lon="2.13693">
        <ele>122</ele>
        <time>2026-05-24T09:25:53Z</time>
      </trkpt>
      <trkpt lat="48.69414" lon="2.13687">
        <ele>122</ele>
        <time>2026-05-24T09:25:54Z</time>
      </trkpt>
      <trkpt lat="48.69413" lon="2.13683">
        <ele>122</ele>
        <time>2026-05-24T09:25:55Z</time>
      </trkpt>
      <trkpt lat="48.69412" lon="2.13678">
        <ele>121.8</ele>
        <time>2026-05-24T09:25:56Z</time>
      </trkpt>
      <trkpt lat="48.69413" lon="2.13674">
        <ele>121.6</ele>
        <time>2026-05-24T09:25:57Z</time>
      </trkpt>
      <trkpt lat="48.69414" lon="2.13667">
        <ele>121.6</ele>
        <time>2026-05-24T09:25:58Z</time>
      </trkpt>
      <trkpt lat="48.69414" lon="2.13659">
        <ele>121.6</ele>
        <time>2026-05-24T09:25:59Z</time>
      </trkpt>
      <trkpt lat="48.69415" lon="2.13651">
        <ele>121.6</ele>
        <time>2026-05-24T09:26:00Z</time>
      </trkpt>
      <trkpt lat="48.69417" lon="2.13643">
        <ele>121</ele>
        <time>2026-05-24T09:26:01Z</time>
      </trkpt>
      <trkpt lat="48.69418" lon="2.13635">
        <ele>121</ele>
        <time>2026-05-24T09:26:02Z</time>
      </trkpt>
      <trkpt lat="48.6942" lon="2.13627">
        <ele>121</ele>
        <time>2026-05-24T09:26:03Z</time>
      </trkpt>
      <trkpt lat="48.69421" lon="2.13616">
        <ele>121</ele>
        <time>2026-05-24T09:26:04Z</time>
      </trkpt>
      <trkpt lat="48.69422" lon="2.13607">
        <ele>121.4</ele>
        <time>2026-05-24T09:26:05Z</time>
      </trkpt>
      <trkpt lat="48.69422" lon="2.13599">
        <ele>121.4</ele>
        <time>2026-05-24T09:26:06Z</time>
      </trkpt>
      <trkpt lat="48.69424" lon="2.13592">
        <ele>121.4</ele>
        <time>2026-05-24T09:26:07Z</time>
      </trkpt>
      <trkpt lat="48.69426" lon="2.13583">
        <ele>120.4</ele>
        <time>2026-05-24T09:26:08Z</time>
      </trkpt>
      <trkpt lat="48.69428" lon="2.13574">
        <ele>119.8</ele>
        <time>2026-05-24T09:26:09Z</time>
      </trkpt>
      <trkpt lat="48.69431" lon="2.13568">
        <ele>119.8</ele>
        <time>2026-05-24T09:26:10Z</time>
      </trkpt>
      <trkpt lat="48.69431" lon="2.13563">
        <ele>119.8</ele>
        <time>2026-05-24T09:26:11Z</time>
      </trkpt>
      <trkpt lat="48.69431" lon="2.13558">
        <ele>118.8</ele>
        <time>2026-05-24T09:26:12Z</time>
      </trkpt>
      <trkpt lat="48.69433" lon="2.13551">
        <ele>118.4</ele>
        <time>2026-05-24T09:26:13Z</time>
      </trkpt>
      <trkpt lat="48.69433" lon="2.13546">
        <ele>118.4</ele>
        <time>2026-05-24T09:26:14Z</time>
      </trkpt>
      <trkpt lat="48.69433" lon="2.13543">
        <ele>118.4</ele>
        <time>2026-05-24T09:26:15Z</time>
      </trkpt>
      <trkpt lat="48.69433" lon="2.1354">
        <ele>118.4</ele>
        <time>2026-05-24T09:26:16Z</time>
      </trkpt>
      <trkpt lat="48.69433" lon="2.13536">
        <ele>118.4</ele>
        <time>2026-05-24T09:26:17Z</time>
      </trkpt>
      <trkpt lat="48.69434" lon="2.13533">
        <ele>118.4</ele>
        <time>2026-05-24T09:26:18Z</time>
      </trkpt>
      <trkpt lat="48.69434" lon="2.13529">
        <ele>118.4</ele>
        <time>2026-05-24T09:26:19Z</time>
      </trkpt>
      <trkpt lat="48.69435" lon="2.13525">
        <ele>118.4</ele>
        <time>2026-05-24T09:26:20Z</time>
      </trkpt>
      <trkpt lat="48.69437" lon="2.13518">
        <ele>119</ele>
        <time>2026-05-24T09:26:21Z</time>
      </trkpt>
      <trkpt lat="48.69437" lon="2.13512">
        <ele>119</ele>
        <time>2026-05-24T09:26:22Z</time>
      </trkpt>
      <trkpt lat="48.69437" lon="2.13507">
        <ele>119</ele>
        <time>2026-05-24T09:26:23Z</time>
      </trkpt>
      <trkpt lat="48.69438" lon="2.13501">
        <ele>119</ele>
        <time>2026-05-24T09:26:24Z</time>
      </trkpt>
      <trkpt lat="48.69439" lon="2.13495">
        <ele>118.2</ele>
        <time>2026-05-24T09:26:25Z</time>
      </trkpt>
      <trkpt lat="48.69439" lon="2.13488">
        <ele>118.2</ele>
        <time>2026-05-24T09:26:26Z</time>
      </trkpt>
      <trkpt lat="48.69439" lon="2.13481">
        <ele>118.2</ele>
        <time>2026-05-24T09:26:27Z</time>
      </trkpt>
      <trkpt lat="48.69439" lon="2.13472">
        <ele>118.2</ele>
        <time>2026-05-24T09:26:28Z</time>
      </trkpt>
      <trkpt lat="48.6944" lon="2.13464">
        <ele>116.8</ele>
        <time>2026-05-24T09:26:29Z</time>
      </trkpt>
      <trkpt lat="48.6944" lon="2.13456">
        <ele>116.8</ele>
        <time>2026-05-24T09:26:30Z</time>
      </trkpt>
      <trkpt lat="48.69439" lon="2.13448">
        <ele>116.8</ele>
        <time>2026-05-24T09:26:31Z</time>
      </trkpt>
      <trkpt lat="48.6944" lon="2.13442">
        <ele>116.4</ele>
        <time>2026-05-24T09:26:32Z</time>
      </trkpt>
      <trkpt lat="48.69442" lon="2.13435">
        <ele>116.6</ele>
        <time>2026-05-24T09:26:33Z</time>
      </trkpt>
      <trkpt lat="48.69443" lon="2.13428">
        <ele>116.6</ele>
        <time>2026-05-24T09:26:34Z</time>
      </trkpt>
      <trkpt lat="48.69444" lon="2.13422">
        <ele>116.6</ele>
        <time>2026-05-24T09:26:35Z</time>
      </trkpt>
      <trkpt lat="48.69445" lon="2.13417">
        <ele>116.6</ele>
        <time>2026-05-24T09:26:36Z</time>
      </trkpt>
      <trkpt lat="48.69446" lon="2.13412">
        <ele>117.8</ele>
        <time>2026-05-24T09:26:37Z</time>
      </trkpt>
      <trkpt lat="48.69448" lon="2.13407">
        <ele>117.8</ele>
        <time>2026-05-24T09:26:38Z</time>
      </trkpt>
      <trkpt lat="48.6945" lon="2.13399">
        <ele>117.8</ele>
        <time>2026-05-24T09:26:39Z</time>
      </trkpt>
      <trkpt lat="48.69453" lon="2.13391">
        <ele>116.8</ele>
        <time>2026-05-24T09:26:40Z</time>
      </trkpt>
      <trkpt lat="48.69455" lon="2.13382">
        <ele>115.4</ele>
        <time>2026-05-24T09:26:41Z</time>
      </trkpt>
      <trkpt lat="48.69457" lon="2.13372">
        <ele>115.4</ele>
        <time>2026-05-24T09:26:42Z</time>
      </trkpt>
      <trkpt lat="48.69458" lon="2.13364">
        <ele>115.4</ele>
        <time>2026-05-24T09:26:43Z</time>
      </trkpt>
      <trkpt lat="48.69458" lon="2.13353">
        <ele>115.4</ele>
        <time>2026-05-24T09:26:44Z</time>
      </trkpt>
      <trkpt lat="48.6946" lon="2.13342">
        <ele>113.2</ele>
        <time>2026-05-24T09:26:45Z</time>
      </trkpt>
      <trkpt lat="48.69459" lon="2.13333">
        <ele>113.2</ele>
        <time>2026-05-24T09:26:46Z</time>
      </trkpt>
      <trkpt lat="48.69459" lon="2.13324">
        <ele>113.2</ele>
        <time>2026-05-24T09:26:47Z</time>
      </trkpt>
      <trkpt lat="48.69458" lon="2.13315">
        <ele>113.4</ele>
        <time>2026-05-24T09:26:48Z</time>
      </trkpt>
      <trkpt lat="48.69459" lon="2.13305">
        <ele>112.6</ele>
        <time>2026-05-24T09:26:49Z</time>
      </trkpt>
      <trkpt lat="48.6946" lon="2.13293">
        <ele>112.6</ele>
        <time>2026-05-24T09:26:50Z</time>
      </trkpt>
      <trkpt lat="48.69462" lon="2.13281">
        <ele>112.6</ele>
        <time>2026-05-24T09:26:51Z</time>
      </trkpt>
      <trkpt lat="48.69462" lon="2.13271">
        <ele>111.6</ele>
        <time>2026-05-24T09:26:52Z</time>
      </trkpt>
      <trkpt lat="48.69462" lon="2.13261">
        <ele>112</ele>
        <time>2026-05-24T09:26:53Z</time>
      </trkpt>
      <trkpt lat="48.69462" lon="2.13251">
        <ele>112</ele>
        <time>2026-05-24T09:26:54Z</time>
      </trkpt>
      <trkpt lat="48.69462" lon="2.13243">
        <ele>112</ele>
        <time>2026-05-24T09:26:55Z</time>
      </trkpt>
      <trkpt lat="48.69462" lon="2.13234">
        <ele>112</ele>
        <time>2026-05-24T09:26:56Z</time>
      </trkpt>
      <trkpt lat="48.69462" lon="2.13228">
        <ele>112.8</ele>
        <time>2026-05-24T09:26:57Z</time>
      </trkpt>
      <trkpt lat="48.69461" lon="2.1322">
        <ele>112.8</ele>
        <time>2026-05-24T09:26:58Z</time>
      </trkpt>
      <trkpt lat="48.69459" lon="2.13215">
        <ele>112.8</ele>
        <time>2026-05-24T09:26:59Z</time>
      </trkpt>
      <trkpt lat="48.69458" lon="2.1321">
        <ele>112.8</ele>
        <time>2026-05-24T09:27:00Z</time>
      </trkpt>
      <trkpt lat="48.69457" lon="2.13206">
        <ele>113.6</ele>
        <time>2026-05-24T09:27:01Z</time>
      </trkpt>
      <trkpt lat="48.69456" lon="2.13202">
        <ele>113.6</ele>
        <time>2026-05-24T09:27:02Z</time>
      </trkpt>
      <trkpt lat="48.69454" lon="2.13197">
        <ele>113.6</ele>
        <time>2026-05-24T09:27:03Z</time>
      </trkpt>
      <trkpt lat="48.69454" lon="2.13195">
        <ele>114.6</ele>
        <time>2026-05-24T09:27:04Z</time>
      </trkpt>
      <trkpt lat="48.69453" lon="2.13193">
        <ele>115.6</ele>
        <time>2026-05-24T09:27:05Z</time>
      </trkpt>
      <trkpt lat="48.69453" lon="2.1319">
        <ele>115.6</ele>
        <time>2026-05-24T09:27:06Z</time>
      </trkpt>
      <trkpt lat="48.69453" lon="2.13187">
        <ele>115.6</ele>
        <time>2026-05-24T09:27:07Z</time>
      </trkpt>
      <trkpt lat="48.69452" lon="2.13184">
        <ele>115.6</ele>
        <time>2026-05-24T09:27:08Z</time>
      </trkpt>
      <trkpt lat="48.69452" lon="2.13183">
        <ele>116.4</ele>
        <time>2026-05-24T09:27:09Z</time>
      </trkpt>
      <trkpt lat="48.69451" lon="2.1318">
        <ele>116.4</ele>
        <time>2026-05-24T09:27:10Z</time>
      </trkpt>
      <trkpt lat="48.69451" lon="2.13178">
        <ele>116.4</ele>
        <time>2026-05-24T09:27:11Z</time>
      </trkpt>
      <trkpt lat="48.6945" lon="2.13176">
        <ele>117</ele>
        <time>2026-05-24T09:27:12Z</time>
      </trkpt>
      <trkpt lat="48.69449" lon="2.13173">
        <ele>117</ele>
        <time>2026-05-24T09:27:13Z</time>
      </trkpt>
      <trkpt lat="48.69448" lon="2.13171">
        <ele>117</ele>
        <time>2026-05-24T09:27:14Z</time>
      </trkpt>
      <trkpt lat="48.69446" lon="2.13168">
        <ele>117</ele>
        <time>2026-05-24T09:27:15Z</time>
      </trkpt>
      <trkpt lat="48.69445" lon="2.13164">
        <ele>118</ele>
        <time>2026-05-24T09:27:16Z</time>
      </trkpt>
      <trkpt lat="48.69444" lon="2.13163">
        <ele>118.8</ele>
        <time>2026-05-24T09:27:17Z</time>
      </trkpt>
      <trkpt lat="48.69442" lon="2.1316">
        <ele>118.8</ele>
        <time>2026-05-24T09:27:18Z</time>
      </trkpt>
      <trkpt lat="48.69442" lon="2.13158">
        <ele>118.8</ele>
        <time>2026-05-24T09:27:19Z</time>
      </trkpt>
      <trkpt lat="48.69441" lon="2.13156">
        <ele>118.6</ele>
        <time>2026-05-24T09:27:20Z</time>
      </trkpt>
      <trkpt lat="48.6944" lon="2.13154">
        <ele>119.2</ele>
        <time>2026-05-24T09:27:21Z</time>
      </trkpt>
      <trkpt lat="48.69439" lon="2.13151">
        <ele>119.2</ele>
        <time>2026-05-24T09:27:22Z</time>
      </trkpt>
      <trkpt lat="48.69439" lon="2.1315">
        <ele>119.2</ele>
        <time>2026-05-24T09:27:23Z</time>
      </trkpt>
      <trkpt lat="48.69437" lon="2.13147">
        <ele>119.2</ele>
        <time>2026-05-24T09:27:24Z</time>
      </trkpt>
      <trkpt lat="48.69436" lon="2.13146">
        <ele>119.8</ele>
        <time>2026-05-24T09:27:25Z</time>
      </trkpt>
      <trkpt lat="48.69435" lon="2.13144">
        <ele>119.8</ele>
        <time>2026-05-24T09:27:26Z</time>
      </trkpt>
      <trkpt lat="48.69433" lon="2.13139">
        <ele>119.8</ele>
        <time>2026-05-24T09:27:27Z</time>
      </trkpt>
      <trkpt lat="48.69432" lon="2.13137">
        <ele>120.2</ele>
        <time>2026-05-24T09:27:28Z</time>
      </trkpt>
      <trkpt lat="48.6943" lon="2.13134">
        <ele>120.4</ele>
        <time>2026-05-24T09:27:29Z</time>
      </trkpt>
      <trkpt lat="48.69429" lon="2.13132">
        <ele>120.4</ele>
        <time>2026-05-24T09:27:30Z</time>
      </trkpt>
      <trkpt lat="48.69428" lon="2.1313">
        <ele>120.4</ele>
        <time>2026-05-24T09:27:31Z</time>
      </trkpt>
      <trkpt lat="48.69427" lon="2.13127">
        <ele>121.4</ele>
        <time>2026-05-24T09:27:32Z</time>
      </trkpt>
      <trkpt lat="48.69425" lon="2.13125">
        <ele>121.8</ele>
        <time>2026-05-24T09:27:33Z</time>
      </trkpt>
      <trkpt lat="48.69424" lon="2.13122">
        <ele>121.8</ele>
        <time>2026-05-24T09:27:34Z</time>
      </trkpt>
      <trkpt lat="48.69423" lon="2.1312">
        <ele>121.8</ele>
        <time>2026-05-24T09:27:35Z</time>
      </trkpt>
      <trkpt lat="48.69422" lon="2.13118">
        <ele>122.2</ele>
        <time>2026-05-24T09:27:36Z</time>
      </trkpt>
      <trkpt lat="48.69421" lon="2.13115">
        <ele>123.2</ele>
        <time>2026-05-24T09:27:42Z</time>
      </trkpt>
      <trkpt lat="48.69419" lon="2.13113">
        <ele>123.2</ele>
        <time>2026-05-24T09:27:43Z</time>
      </trkpt>
      <trkpt lat="48.69416" lon="2.1311">
        <ele>123.2</ele>
        <time>2026-05-24T09:27:44Z</time>
      </trkpt>
      <trkpt lat="48.69415" lon="2.13107">
        <ele>123</ele>
        <time>2026-05-24T09:27:45Z</time>
      </trkpt>
      <trkpt lat="48.69413" lon="2.13104">
        <ele>123</ele>
        <time>2026-05-24T09:27:46Z</time>
      </trkpt>
      <trkpt lat="48.69412" lon="2.13101">
        <ele>123</ele>
        <time>2026-05-24T09:27:47Z</time>
      </trkpt>
      <trkpt lat="48.69411" lon="2.13097">
        <ele>123</ele>
        <time>2026-05-24T09:27:48Z</time>
      </trkpt>
      <trkpt lat="48.6941" lon="2.13092">
        <ele>122.6</ele>
        <time>2026-05-24T09:27:49Z</time>
      </trkpt>
      <trkpt lat="48.69409" lon="2.13086">
        <ele>122.6</ele>
        <time>2026-05-24T09:27:50Z</time>
      </trkpt>
      <trkpt lat="48.69407" lon="2.1308">
        <ele>122.6</ele>
        <time>2026-05-24T09:27:51Z</time>
      </trkpt>
      <trkpt lat="48.69406" lon="2.13073">
        <ele>121.6</ele>
        <time>2026-05-24T09:27:52Z</time>
      </trkpt>
      <trkpt lat="48.69407" lon="2.13064">
        <ele>118.6</ele>
        <time>2026-05-24T09:27:53Z</time>
      </trkpt>
      <trkpt lat="48.69408" lon="2.13057">
        <ele>118.6</ele>
        <time>2026-05-24T09:27:54Z</time>
      </trkpt>
      <trkpt lat="48.69409" lon="2.13052">
        <ele>118.6</ele>
        <time>2026-05-24T09:27:55Z</time>
      </trkpt>
      <trkpt lat="48.69412" lon="2.13045">
        <ele>118.6</ele>
        <time>2026-05-24T09:27:56Z</time>
      </trkpt>
      <trkpt lat="48.69416" lon="2.13037">
        <ele>115.6</ele>
        <time>2026-05-24T09:27:57Z</time>
      </trkpt>
      <trkpt lat="48.69418" lon="2.1303">
        <ele>115.6</ele>
        <time>2026-05-24T09:27:58Z</time>
      </trkpt>
      <trkpt lat="48.6942" lon="2.13022">
        <ele>115.6</ele>
        <time>2026-05-24T09:27:59Z</time>
      </trkpt>
      <trkpt lat="48.69421" lon="2.13013">
        <ele>115.6</ele>
        <time>2026-05-24T09:28:00Z</time>
      </trkpt>
      <trkpt lat="48.69422" lon="2.13004">
        <ele>113.8</ele>
        <time>2026-05-24T09:28:01Z</time>
      </trkpt>
      <trkpt lat="48.69425" lon="2.12995">
        <ele>113.8</ele>
        <time>2026-05-24T09:28:02Z</time>
      </trkpt>
      <trkpt lat="48.69428" lon="2.12987">
        <ele>113.8</ele>
        <time>2026-05-24T09:28:03Z</time>
      </trkpt>
      <trkpt lat="48.69431" lon="2.12975">
        <ele>112.8</ele>
        <time>2026-05-24T09:28:04Z</time>
      </trkpt>
      <trkpt lat="48.69435" lon="2.12966">
        <ele>110.4</ele>
        <time>2026-05-24T09:28:05Z</time>
      </trkpt>
      <trkpt lat="48.69438" lon="2.12958">
        <ele>110.4</ele>
        <time>2026-05-24T09:28:06Z</time>
      </trkpt>
      <trkpt lat="48.6944" lon="2.12951">
        <ele>110.4</ele>
        <time>2026-05-24T09:28:07Z</time>
      </trkpt>
      <trkpt lat="48.69442" lon="2.12941">
        <ele>110</ele>
        <time>2026-05-24T09:28:08Z</time>
      </trkpt>
      <trkpt lat="48.69443" lon="2.12931">
        <ele>108.4</ele>
        <time>2026-05-24T09:28:09Z</time>
      </trkpt>
      <trkpt lat="48.69444" lon="2.12923">
        <ele>108.4</ele>
        <time>2026-05-24T09:28:10Z</time>
      </trkpt>
      <trkpt lat="48.69444" lon="2.12914">
        <ele>108.4</ele>
        <time>2026-05-24T09:28:11Z</time>
      </trkpt>
      <trkpt lat="48.69446" lon="2.12908">
        <ele>108</ele>
        <time>2026-05-24T09:28:12Z</time>
      </trkpt>
      <trkpt lat="48.69446" lon="2.12902">
        <ele>108.4</ele>
        <time>2026-05-24T09:28:13Z</time>
      </trkpt>
      <trkpt lat="48.69445" lon="2.12897">
        <ele>108.4</ele>
        <time>2026-05-24T09:28:14Z</time>
      </trkpt>
      <trkpt lat="48.69445" lon="2.12894">
        <ele>108.4</ele>
        <time>2026-05-24T09:28:15Z</time>
      </trkpt>
      <trkpt lat="48.69445" lon="2.12889">
        <ele>108.4</ele>
        <time>2026-05-24T09:28:16Z</time>
      </trkpt>
      <trkpt lat="48.69444" lon="2.12887">
        <ele>109</ele>
        <time>2026-05-24T09:28:17Z</time>
      </trkpt>
      <trkpt lat="48.69444" lon="2.12885">
        <ele>109</ele>
        <time>2026-05-24T09:28:18Z</time>
      </trkpt>
      <trkpt lat="48.69444" lon="2.12882">
        <ele>109</ele>
        <time>2026-05-24T09:28:19Z</time>
      </trkpt>
      <trkpt lat="48.69444" lon="2.1288">
        <ele>109</ele>
        <time>2026-05-24T09:28:20Z</time>
      </trkpt>
      <trkpt lat="48.69443" lon="2.12877">
        <ele>108.6</ele>
        <time>2026-05-24T09:28:21Z</time>
      </trkpt>
      <trkpt lat="48.69443" lon="2.12873">
        <ele>108.6</ele>
        <time>2026-05-24T09:28:22Z</time>
      </trkpt>
      <trkpt lat="48.69443" lon="2.12868">
        <ele>108.6</ele>
        <time>2026-05-24T09:28:23Z</time>
      </trkpt>
      <trkpt lat="48.69442" lon="2.12864">
        <ele>108.6</ele>
        <time>2026-05-24T09:28:24Z</time>
      </trkpt>
      <trkpt lat="48.69442" lon="2.12858">
        <ele>108.4</ele>
        <time>2026-05-24T09:28:25Z</time>
      </trkpt>
      <trkpt lat="48.69442" lon="2.12853">
        <ele>108.4</ele>
        <time>2026-05-24T09:28:26Z</time>
      </trkpt>
      <trkpt lat="48.69441" lon="2.12848">
        <ele>108.4</ele>
        <time>2026-05-24T09:28:27Z</time>
      </trkpt>
      <trkpt lat="48.6944" lon="2.12843">
        <ele>107.6</ele>
        <time>2026-05-24T09:28:28Z</time>
      </trkpt>
      <trkpt lat="48.6944" lon="2.12838">
        <ele>107.6</ele>
        <time>2026-05-24T09:28:29Z</time>
      </trkpt>
      <trkpt lat="48.69438" lon="2.12833">
        <ele>107.6</ele>
        <time>2026-05-24T09:28:30Z</time>
      </trkpt>
      <trkpt lat="48.69438" lon="2.12828">
        <ele>107.6</ele>
        <time>2026-05-24T09:28:31Z</time>
      </trkpt>
      <trkpt lat="48.69437" lon="2.12822">
        <ele>107.6</ele>
        <time>2026-05-24T09:28:32Z</time>
      </trkpt>
      <trkpt lat="48.69435" lon="2.12818">
        <ele>107.8</ele>
        <time>2026-05-24T09:28:33Z</time>
      </trkpt>
      <trkpt lat="48.69435" lon="2.12813">
        <ele>107.8</ele>
        <time>2026-05-24T09:28:34Z</time>
      </trkpt>
      <trkpt lat="48.69434" lon="2.1281">
        <ele>107.8</ele>
        <time>2026-05-24T09:28:35Z</time>
      </trkpt>
      <trkpt lat="48.69434" lon="2.12806">
        <ele>107.8</ele>
        <time>2026-05-24T09:28:36Z</time>
      </trkpt>
      <trkpt lat="48.69432" lon="2.12802">
        <ele>108</ele>
        <time>2026-05-24T09:28:37Z</time>
      </trkpt>
      <trkpt lat="48.69432" lon="2.12798">
        <ele>108</ele>
        <time>2026-05-24T09:28:38Z</time>
      </trkpt>
      <trkpt lat="48.69432" lon="2.12795">
        <ele>108</ele>
        <time>2026-05-24T09:28:39Z</time>
      </trkpt>
      <trkpt lat="48.69431" lon="2.12792">
        <ele>109</ele>
        <time>2026-05-24T09:28:40Z</time>
      </trkpt>
      <trkpt lat="48.69431" lon="2.12789">
        <ele>109.2</ele>
        <time>2026-05-24T09:28:41Z</time>
      </trkpt>
      <trkpt lat="48.6943" lon="2.12787">
        <ele>109.2</ele>
        <time>2026-05-24T09:28:42Z</time>
      </trkpt>
      <trkpt lat="48.69429" lon="2.12784">
        <ele>109.2</ele>
        <time>2026-05-24T09:28:43Z</time>
      </trkpt>
      <trkpt lat="48.69428" lon="2.12781">
        <ele>110</ele>
        <time>2026-05-24T09:28:44Z</time>
      </trkpt>
      <trkpt lat="48.69428" lon="2.12778">
        <ele>109.8</ele>
        <time>2026-05-24T09:28:45Z</time>
      </trkpt>
      <trkpt lat="48.69427" lon="2.12776">
        <ele>109.8</ele>
        <time>2026-05-24T09:28:46Z</time>
      </trkpt>
      <trkpt lat="48.69426" lon="2.12773">
        <ele>109.8</ele>
        <time>2026-05-24T09:28:47Z</time>
      </trkpt>
      <trkpt lat="48.69425" lon="2.1277">
        <ele>109.8</ele>
        <time>2026-05-24T09:28:48Z</time>
      </trkpt>
      <trkpt lat="48.69424" lon="2.12767">
        <ele>111.4</ele>
        <time>2026-05-24T09:28:49Z</time>
      </trkpt>
      <trkpt lat="48.69423" lon="2.12766">
        <ele>111.4</ele>
        <time>2026-05-24T09:28:50Z</time>
      </trkpt>
      <trkpt lat="48.69422" lon="2.12765">
        <ele>111.4</ele>
        <time>2026-05-24T09:28:51Z</time>
      </trkpt>
      <trkpt lat="48.69421" lon="2.12763">
        <ele>111.4</ele>
        <time>2026-05-24T09:28:52Z</time>
      </trkpt>
      <trkpt lat="48.69421" lon="2.12761">
        <ele>112.8</ele>
        <time>2026-05-24T09:28:53Z</time>
      </trkpt>
      <trkpt lat="48.6942" lon="2.1276">
        <ele>112.8</ele>
        <time>2026-05-24T09:28:54Z</time>
      </trkpt>
      <trkpt lat="48.69419" lon="2.12757">
        <ele>112.8</ele>
        <time>2026-05-24T09:28:55Z</time>
      </trkpt>
      <trkpt lat="48.69418" lon="2.12756">
        <ele>113.4</ele>
        <time>2026-05-24T09:28:56Z</time>
      </trkpt>
      <trkpt lat="48.69417" lon="2.12755">
        <ele>113.6</ele>
        <time>2026-05-24T09:28:57Z</time>
      </trkpt>
      <trkpt lat="48.69416" lon="2.12754">
        <ele>113.6</ele>
        <time>2026-05-24T09:28:58Z</time>
      </trkpt>
      <trkpt lat="48.69415" lon="2.12754">
        <ele>113.6</ele>
        <time>2026-05-24T09:28:59Z</time>
      </trkpt>
      <trkpt lat="48.69414" lon="2.12754">
        <ele>114.2</ele>
        <time>2026-05-24T09:29:00Z</time>
      </trkpt>
      <trkpt lat="48.69413" lon="2.12754">
        <ele>114.6</ele>
        <time>2026-05-24T09:29:01Z</time>
      </trkpt>
      <trkpt lat="48.69412" lon="2.12755">
        <ele>114.6</ele>
        <time>2026-05-24T09:29:02Z</time>
      </trkpt>
      <trkpt lat="48.69411" lon="2.12756">
        <ele>114.6</ele>
        <time>2026-05-24T09:29:03Z</time>
      </trkpt>
      <trkpt lat="48.6941" lon="2.12756">
        <ele>114.6</ele>
        <time>2026-05-24T09:29:04Z</time>
      </trkpt>
      <trkpt lat="48.6941" lon="2.12757">
        <ele>115</ele>
        <time>2026-05-24T09:29:05Z</time>
      </trkpt>
      <trkpt lat="48.69409" lon="2.12758">
        <ele>115</ele>
        <time>2026-05-24T09:29:06Z</time>
      </trkpt>
      <trkpt lat="48.69409" lon="2.12758">
        <ele>115</ele>
        <time>2026-05-24T09:29:07Z</time>
      </trkpt>
      <trkpt lat="48.69409" lon="2.1276">
        <ele>115.8</ele>
        <time>2026-05-24T09:29:08Z</time>
      </trkpt>
      <trkpt lat="48.69408" lon="2.12761">
        <ele>116</ele>
        <time>2026-05-24T09:29:09Z</time>
      </trkpt>
      <trkpt lat="48.69406" lon="2.12762">
        <ele>116</ele>
        <time>2026-05-24T09:29:10Z</time>
      </trkpt>
      <trkpt lat="48.69406" lon="2.12763">
        <ele>116</ele>
        <time>2026-05-24T09:29:11Z</time>
      </trkpt>
      <trkpt lat="48.69405" lon="2.12764">
        <ele>116</ele>
        <time>2026-05-24T09:29:12Z</time>
      </trkpt>
      <trkpt lat="48.69405" lon="2.12765">
        <ele>117</ele>
        <time>2026-05-24T09:29:13Z</time>
      </trkpt>
      <trkpt lat="48.69404" lon="2.12765">
        <ele>117</ele>
        <time>2026-05-24T09:29:14Z</time>
      </trkpt>
      <trkpt lat="48.69403" lon="2.12766">
        <ele>117</ele>
        <time>2026-05-24T09:29:15Z</time>
      </trkpt>
      <trkpt lat="48.69402" lon="2.12766">
        <ele>118</ele>
        <time>2026-05-24T09:29:16Z</time>
      </trkpt>
      <trkpt lat="48.694" lon="2.12767">
        <ele>118</ele>
        <time>2026-05-24T09:29:17Z</time>
      </trkpt>
      <trkpt lat="48.69399" lon="2.12768">
        <ele>118</ele>
        <time>2026-05-24T09:29:18Z</time>
      </trkpt>
      <trkpt lat="48.69398" lon="2.12768">
        <ele>118</ele>
        <time>2026-05-24T09:29:19Z</time>
      </trkpt>
      <trkpt lat="48.69398" lon="2.12768">
        <ele>118.6</ele>
        <time>2026-05-24T09:29:20Z</time>
      </trkpt>
      <trkpt lat="48.69397" lon="2.12768">
        <ele>119</ele>
        <time>2026-05-24T09:29:21Z</time>
      </trkpt>
      <trkpt lat="48.69395" lon="2.12768">
        <ele>119</ele>
        <time>2026-05-24T09:29:22Z</time>
      </trkpt>
      <trkpt lat="48.69394" lon="2.12768">
        <ele>119</ele>
        <time>2026-05-24T09:29:23Z</time>
      </trkpt>
      <trkpt lat="48.69393" lon="2.12767">
        <ele>119.8</ele>
        <time>2026-05-24T09:29:24Z</time>
      </trkpt>
      <trkpt lat="48.69391" lon="2.12767">
        <ele>119.6</ele>
        <time>2026-05-24T09:29:25Z</time>
      </trkpt>
      <trkpt lat="48.6939" lon="2.12766">
        <ele>119.6</ele>
        <time>2026-05-24T09:29:26Z</time>
      </trkpt>
      <trkpt lat="48.69389" lon="2.12766">
        <ele>119.6</ele>
        <time>2026-05-24T09:29:27Z</time>
      </trkpt>
      <trkpt lat="48.69387" lon="2.12767">
        <ele>119.6</ele>
        <time>2026-05-24T09:29:28Z</time>
      </trkpt>
      <trkpt lat="48.69386" lon="2.12767">
        <ele>120</ele>
        <time>2026-05-24T09:29:29Z</time>
      </trkpt>
      <trkpt lat="48.69385" lon="2.12768">
        <ele>120</ele>
        <time>2026-05-24T09:29:30Z</time>
      </trkpt>
      <trkpt lat="48.69384" lon="2.12769">
        <ele>120</ele>
        <time>2026-05-24T09:29:31Z</time>
      </trkpt>
      <trkpt lat="48.69383" lon="2.12769">
        <ele>120</ele>
        <time>2026-05-24T09:29:32Z</time>
      </trkpt>
      <trkpt lat="48.69382" lon="2.1277">
        <ele>120.8</ele>
        <time>2026-05-24T09:29:33Z</time>
      </trkpt>
      <trkpt lat="48.69381" lon="2.12771">
        <ele>120.8</ele>
        <time>2026-05-24T09:29:34Z</time>
      </trkpt>
      <trkpt lat="48.6938" lon="2.12773">
        <ele>120.8</ele>
        <time>2026-05-24T09:29:35Z</time>
      </trkpt>
      <trkpt lat="48.69379" lon="2.12774">
        <ele>120.8</ele>
        <time>2026-05-24T09:29:36Z</time>
      </trkpt>
      <trkpt lat="48.69378" lon="2.12774">
        <ele>121.8</ele>
        <time>2026-05-24T09:29:37Z</time>
      </trkpt>
      <trkpt lat="48.69377" lon="2.12775">
        <ele>121.8</ele>
        <time>2026-05-24T09:29:38Z</time>
      </trkpt>
      <trkpt lat="48.69376" lon="2.12776">
        <ele>121.8</ele>
        <time>2026-05-24T09:29:39Z</time>
      </trkpt>
      <trkpt lat="48.69376" lon="2.12776">
        <ele>122.2</ele>
        <time>2026-05-24T09:29:40Z</time>
      </trkpt>
      <trkpt lat="48.69306" lon="2.12778">
        <ele>138.4</ele>
        <time>2026-05-24T09:31:04Z</time>
      </trkpt>
      <trkpt lat="48.69305" lon="2.12776">
        <ele>139.2</ele>
        <time>2026-05-24T09:31:05Z</time>
      </trkpt>
      <trkpt lat="48.69304" lon="2.12775">
        <ele>139.2</ele>
        <time>2026-05-24T09:31:06Z</time>
      </trkpt>
      <trkpt lat="48.69302" lon="2.12773">
        <ele>139.2</ele>
        <time>2026-05-24T09:31:07Z</time>
      </trkpt>
      <trkpt lat="48.69301" lon="2.12771">
        <ele>139.8</ele>
        <time>2026-05-24T09:31:08Z</time>
      </trkpt>
      <trkpt lat="48.693" lon="2.1277">
        <ele>139.8</ele>
        <time>2026-05-24T09:31:09Z</time>
      </trkpt>
      <trkpt lat="48.693" lon="2.12768">
        <ele>139.8</ele>
        <time>2026-05-24T09:31:10Z</time>
      </trkpt>
      <trkpt lat="48.69299" lon="2.12766">
        <ele>139.8</ele>
        <time>2026-05-24T09:31:11Z</time>
      </trkpt>
      <trkpt lat="48.69298" lon="2.12765">
        <ele>140.8</ele>
        <time>2026-05-24T09:31:12Z</time>
      </trkpt>
      <trkpt lat="48.69298" lon="2.12763">
        <ele>140.6</ele>
        <time>2026-05-24T09:31:13Z</time>
      </trkpt>
      <trkpt lat="48.69297" lon="2.12761">
        <ele>140.6</ele>
        <time>2026-05-24T09:31:14Z</time>
      </trkpt>
      <trkpt lat="48.69297" lon="2.12759">
        <ele>140.6</ele>
        <time>2026-05-24T09:31:15Z</time>
      </trkpt>
      <trkpt lat="48.69297" lon="2.12757">
        <ele>141.2</ele>
        <time>2026-05-24T09:31:16Z</time>
      </trkpt>
      <trkpt lat="48.69297" lon="2.12755">
        <ele>141.6</ele>
        <time>2026-05-24T09:31:17Z</time>
      </trkpt>
      <trkpt lat="48.69296" lon="2.12754">
        <ele>141.6</ele>
        <time>2026-05-24T09:31:18Z</time>
      </trkpt>
      <trkpt lat="48.69296" lon="2.12752">
        <ele>141.6</ele>
        <time>2026-05-24T09:31:19Z</time>
      </trkpt>
      <trkpt lat="48.69295" lon="2.1275">
        <ele>142</ele>
        <time>2026-05-24T09:31:20Z</time>
      </trkpt>
      <trkpt lat="48.69295" lon="2.12749">
        <ele>142.6</ele>
        <time>2026-05-24T09:31:21Z</time>
      </trkpt>
      <trkpt lat="48.69294" lon="2.12747">
        <ele>142.6</ele>
        <time>2026-05-24T09:31:22Z</time>
      </trkpt>
      <trkpt lat="48.69294" lon="2.12746">
        <ele>142.6</ele>
        <time>2026-05-24T09:31:23Z</time>
      </trkpt>
      <trkpt lat="48.69294" lon="2.12743">
        <ele>142.6</ele>
        <time>2026-05-24T09:31:24Z</time>
      </trkpt>
      <trkpt lat="48.69293" lon="2.12742">
        <ele>143.4</ele>
        <time>2026-05-24T09:31:25Z</time>
      </trkpt>
      <trkpt lat="48.69293" lon="2.1274">
        <ele>143.4</ele>
        <time>2026-05-24T09:31:26Z</time>
      </trkpt>
      <trkpt lat="48.69292" lon="2.12738">
        <ele>143.4</ele>
        <time>2026-05-24T09:31:27Z</time>
      </trkpt>
      <trkpt lat="48.69292" lon="2.12736">
        <ele>143.8</ele>
        <time>2026-05-24T09:31:28Z</time>
      </trkpt>
      <trkpt lat="48.69291" lon="2.12735">
        <ele>144</ele>
        <time>2026-05-24T09:31:29Z</time>
      </trkpt>
      <trkpt lat="48.6929" lon="2.12733">
        <ele>144</ele>
        <time>2026-05-24T09:31:30Z</time>
      </trkpt>
      <trkpt lat="48.6929" lon="2.12731">
        <ele>144</ele>
        <time>2026-05-24T09:31:31Z</time>
      </trkpt>
      <trkpt lat="48.69289" lon="2.12728">
        <ele>145</ele>
        <time>2026-05-24T09:31:32Z</time>
      </trkpt>
      <trkpt lat="48.69288" lon="2.12725">
        <ele>144.6</ele>
        <time>2026-05-24T09:31:33Z</time>
      </trkpt>
      <trkpt lat="48.69287" lon="2.12723">
        <ele>144.6</ele>
        <time>2026-05-24T09:31:34Z</time>
      </trkpt>
      <trkpt lat="48.69286" lon="2.1272">
        <ele>144.6</ele>
        <time>2026-05-24T09:31:35Z</time>
      </trkpt>
      <trkpt lat="48.69285" lon="2.12718">
        <ele>145</ele>
        <time>2026-05-24T09:31:36Z</time>
      </trkpt>
      <trkpt lat="48.69285" lon="2.12716">
        <ele>146</ele>
        <time>2026-05-24T09:31:37Z</time>
      </trkpt>
      <trkpt lat="48.69284" lon="2.12714">
        <ele>146</ele>
        <time>2026-05-24T09:31:38Z</time>
      </trkpt>
      <trkpt lat="48.69286" lon="2.12712">
        <ele>146</ele>
        <time>2026-05-24T09:31:39Z</time>
      </trkpt>
      <trkpt lat="48.69286" lon="2.1271">
        <ele>146</ele>
        <time>2026-05-24T09:31:40Z</time>
      </trkpt>
      <trkpt lat="48.69286" lon="2.12708">
        <ele>146.6</ele>
        <time>2026-05-24T09:31:41Z</time>
      </trkpt>
      <trkpt lat="48.69286" lon="2.12706">
        <ele>146.6</ele>
        <time>2026-05-24T09:31:42Z</time>
      </trkpt>
      <trkpt lat="48.69287" lon="2.12704">
        <ele>146.6</ele>
        <time>2026-05-24T09:31:43Z</time>
      </trkpt>
      <trkpt lat="48.69288" lon="2.12702">
        <ele>146.6</ele>
        <time>2026-05-24T09:31:44Z</time>
      </trkpt>
      <trkpt lat="48.69288" lon="2.127">
        <ele>147.4</ele>
        <time>2026-05-24T09:31:45Z</time>
      </trkpt>
      <trkpt lat="48.69289" lon="2.12699">
        <ele>147.4</ele>
        <time>2026-05-24T09:31:46Z</time>
      </trkpt>
      <trkpt lat="48.6929" lon="2.12697">
        <ele>147.4</ele>
        <time>2026-05-24T09:31:47Z</time>
      </trkpt>
      <trkpt lat="48.69291" lon="2.12696">
        <ele>147.8</ele>
        <time>2026-05-24T09:31:48Z</time>
      </trkpt>
      <trkpt lat="48.69291" lon="2.12694">
        <ele>149</ele>
        <time>2026-05-24T09:31:49Z</time>
      </trkpt>
      <trkpt lat="48.69292" lon="2.12692">
        <ele>149</ele>
        <time>2026-05-24T09:31:50Z</time>
      </trkpt>
      <trkpt lat="48.69293" lon="2.1269">
        <ele>149</ele>
        <time>2026-05-24T09:31:51Z</time>
      </trkpt>
      <trkpt lat="48.69294" lon="2.12688">
        <ele>149</ele>
        <time>2026-05-24T09:31:52Z</time>
      </trkpt>
      <trkpt lat="48.69295" lon="2.12686">
        <ele>149.2</ele>
        <time>2026-05-24T09:31:53Z</time>
      </trkpt>
      <trkpt lat="48.69296" lon="2.12685">
        <ele>149.2</ele>
        <time>2026-05-24T09:31:54Z</time>
      </trkpt>
      <trkpt lat="48.69296" lon="2.12683">
        <ele>149.2</ele>
        <time>2026-05-24T09:31:55Z</time>
      </trkpt>
      <trkpt lat="48.69297" lon="2.12681">
        <ele>149.8</ele>
        <time>2026-05-24T09:31:56Z</time>
      </trkpt>
      <trkpt lat="48.69298" lon="2.1268">
        <ele>150</ele>
        <time>2026-05-24T09:31:57Z</time>
      </trkpt>
      <trkpt lat="48.693" lon="2.12677">
        <ele>150</ele>
        <time>2026-05-24T09:31:58Z</time>
      </trkpt>
      <trkpt lat="48.693" lon="2.12675">
        <ele>150</ele>
        <time>2026-05-24T09:31:59Z</time>
      </trkpt>
      <trkpt lat="48.69301" lon="2.12673">
        <ele>150.6</ele>
        <time>2026-05-24T09:32:00Z</time>
      </trkpt>
      <trkpt lat="48.69301" lon="2.12672">
        <ele>150.4</ele>
        <time>2026-05-24T09:32:01Z</time>
      </trkpt>
      <trkpt lat="48.69301" lon="2.1267">
        <ele>150.4</ele>
        <time>2026-05-24T09:32:02Z</time>
      </trkpt>
      <trkpt lat="48.69301" lon="2.12668">
        <ele>150.4</ele>
        <time>2026-05-24T09:32:03Z</time>
      </trkpt>
      <trkpt lat="48.69301" lon="2.12666">
        <ele>151.4</ele>
        <time>2026-05-24T09:32:04Z</time>
      </trkpt>
      <trkpt lat="48.69301" lon="2.12664">
        <ele>151.4</ele>
        <time>2026-05-24T09:32:05Z</time>
      </trkpt>
      <trkpt lat="48.69301" lon="2.12662">
        <ele>151.4</ele>
        <time>2026-05-24T09:32:06Z</time>
      </trkpt>
      <trkpt lat="48.69301" lon="2.1266">
        <ele>151.4</ele>
        <time>2026-05-24T09:32:07Z</time>
      </trkpt>
      <trkpt lat="48.69301" lon="2.12658">
        <ele>152</ele>
        <time>2026-05-24T09:32:08Z</time>
      </trkpt>
      <trkpt lat="48.69301" lon="2.12655">
        <ele>151.8</ele>
        <time>2026-05-24T09:32:09Z</time>
      </trkpt>
      <trkpt lat="48.69301" lon="2.12652">
        <ele>151.8</ele>
        <time>2026-05-24T09:32:10Z</time>
      </trkpt>
      <trkpt lat="48.693" lon="2.12649">
        <ele>151.8</ele>
        <time>2026-05-24T09:32:11Z</time>
      </trkpt>
      <trkpt lat="48.69299" lon="2.12647">
        <ele>152.6</ele>
        <time>2026-05-24T09:32:12Z</time>
      </trkpt>
      <trkpt lat="48.69299" lon="2.12644">
        <ele>152.8</ele>
        <time>2026-05-24T09:32:13Z</time>
      </trkpt>
      <trkpt lat="48.69298" lon="2.12641">
        <ele>152.8</ele>
        <time>2026-05-24T09:32:14Z</time>
      </trkpt>
      <trkpt lat="48.69297" lon="2.12638">
        <ele>152.8</ele>
        <time>2026-05-24T09:32:15Z</time>
      </trkpt>
      <trkpt lat="48.69297" lon="2.12636">
        <ele>153</ele>
        <time>2026-05-24T09:32:16Z</time>
      </trkpt>
      <trkpt lat="48.69297" lon="2.12633">
        <ele>153.4</ele>
        <time>2026-05-24T09:32:17Z</time>
      </trkpt>
      <trkpt lat="48.69297" lon="2.12631">
        <ele>153.4</ele>
        <time>2026-05-24T09:32:18Z</time>
      </trkpt>
      <trkpt lat="48.69296" lon="2.12629">
        <ele>153.4</ele>
        <time>2026-05-24T09:32:19Z</time>
      </trkpt>
      <trkpt lat="48.69296" lon="2.12626">
        <ele>153.4</ele>
        <time>2026-05-24T09:32:20Z</time>
      </trkpt>
      <trkpt lat="48.69296" lon="2.12624">
        <ele>153.8</ele>
        <time>2026-05-24T09:32:21Z</time>
      </trkpt>
      <trkpt lat="48.69296" lon="2.12621">
        <ele>153.8</ele>
        <time>2026-05-24T09:32:22Z</time>
      </trkpt>
      <trkpt lat="48.69295" lon="2.1262">
        <ele>153.8</ele>
        <time>2026-05-24T09:32:23Z</time>
      </trkpt>
      <trkpt lat="48.69295" lon="2.12618">
        <ele>154.4</ele>
        <time>2026-05-24T09:32:24Z</time>
      </trkpt>
      <trkpt lat="48.69294" lon="2.12617">
        <ele>154.8</ele>
        <time>2026-05-24T09:32:25Z</time>
      </trkpt>
      <trkpt lat="48.69294" lon="2.12616">
        <ele>154.8</ele>
        <time>2026-05-24T09:32:26Z</time>
      </trkpt>
      <trkpt lat="48.69293" lon="2.12614">
        <ele>154.8</ele>
        <time>2026-05-24T09:32:27Z</time>
      </trkpt>
      <trkpt lat="48.69293" lon="2.12614">
        <ele>154.8</ele>
        <time>2026-05-24T09:32:28Z</time>
      </trkpt>
      <trkpt lat="48.69293" lon="2.12614">
        <ele>155.8</ele>
        <time>2026-05-24T09:32:29Z</time>
      </trkpt>
      <trkpt lat="48.69288" lon="2.12624">
        <ele>158.4</ele>
        <time>2026-05-24T09:32:44Z</time>
      </trkpt>
      <trkpt lat="48.69288" lon="2.12625">
        <ele>158.8</ele>
        <time>2026-05-24T09:32:45Z</time>
      </trkpt>
      <trkpt lat="48.69287" lon="2.12627">
        <ele>158.8</ele>
        <time>2026-05-24T09:32:46Z</time>
      </trkpt>
      <trkpt lat="48.69286" lon="2.1263">
        <ele>158.8</ele>
        <time>2026-05-24T09:32:47Z</time>
      </trkpt>
      <trkpt lat="48.69285" lon="2.12632">
        <ele>158.8</ele>
        <time>2026-05-24T09:32:48Z</time>
      </trkpt>
      <trkpt lat="48.69284" lon="2.12634">
        <ele>159.6</ele>
        <time>2026-05-24T09:32:49Z</time>
      </trkpt>
      <trkpt lat="48.69282" lon="2.12636">
        <ele>159.6</ele>
        <time>2026-05-24T09:32:50Z</time>
      </trkpt>
      <trkpt lat="48.69281" lon="2.12637">
        <ele>159.6</ele>
        <time>2026-05-24T09:32:51Z</time>
      </trkpt>
      <trkpt lat="48.69279" lon="2.12638">
        <ele>159.6</ele>
        <time>2026-05-24T09:32:52Z</time>
      </trkpt>
      <trkpt lat="48.69277" lon="2.1264">
        <ele>160</ele>
        <time>2026-05-24T09:32:53Z</time>
      </trkpt>
      <trkpt lat="48.69276" lon="2.12641">
        <ele>160</ele>
        <time>2026-05-24T09:32:54Z</time>
      </trkpt>
      <trkpt lat="48.69275" lon="2.12642">
        <ele>160</ele>
        <time>2026-05-24T09:32:55Z</time>
      </trkpt>
      <trkpt lat="48.69273" lon="2.12644">
        <ele>160</ele>
        <time>2026-05-24T09:32:56Z</time>
      </trkpt>
      <trkpt lat="48.69272" lon="2.12645">
        <ele>160.4</ele>
        <time>2026-05-24T09:32:57Z</time>
      </trkpt>
      <trkpt lat="48.6927" lon="2.12647">
        <ele>160.4</ele>
        <time>2026-05-24T09:32:58Z</time>
      </trkpt>
      <trkpt lat="48.69267" lon="2.12648">
        <ele>160.4</ele>
        <time>2026-05-24T09:32:59Z</time>
      </trkpt>
      <trkpt lat="48.69265" lon="2.1265">
        <ele>160.2</ele>
        <time>2026-05-24T09:33:00Z</time>
      </trkpt>
      <trkpt lat="48.69263" lon="2.12651">
        <ele>160</ele>
        <time>2026-05-24T09:33:01Z</time>
      </trkpt>
      <trkpt lat="48.69261" lon="2.12652">
        <ele>160</ele>
        <time>2026-05-24T09:33:02Z</time>
      </trkpt>
      <trkpt lat="48.69259" lon="2.12652">
        <ele>160</ele>
        <time>2026-05-24T09:33:03Z</time>
      </trkpt>
      <trkpt lat="48.69257" lon="2.12653">
        <ele>161</ele>
        <time>2026-05-24T09:33:04Z</time>
      </trkpt>
      <trkpt lat="48.69256" lon="2.12654">
        <ele>161.4</ele>
        <time>2026-05-24T09:33:05Z</time>
      </trkpt>
      <trkpt lat="48.69254" lon="2.12655">
        <ele>161.4</ele>
        <time>2026-05-24T09:33:06Z</time>
      </trkpt>
      <trkpt lat="48.69253" lon="2.12656">
        <ele>161.4</ele>
        <time>2026-05-24T09:33:07Z</time>
      </trkpt>
      <trkpt lat="48.69252" lon="2.12657">
        <ele>162.4</ele>
        <time>2026-05-24T09:33:08Z</time>
      </trkpt>
      <trkpt lat="48.69251" lon="2.12658">
        <ele>162.6</ele>
        <time>2026-05-24T09:33:09Z</time>
      </trkpt>
      <trkpt lat="48.69249" lon="2.12659">
        <ele>162.6</ele>
        <time>2026-05-24T09:33:10Z</time>
      </trkpt>
      <trkpt lat="48.69248" lon="2.1266">
        <ele>162.6</ele>
        <time>2026-05-24T09:33:11Z</time>
      </trkpt>
      <trkpt lat="48.69247" lon="2.12662">
        <ele>162.6</ele>
        <time>2026-05-24T09:33:12Z</time>
      </trkpt>
      <trkpt lat="48.69245" lon="2.12664">
        <ele>163.2</ele>
        <time>2026-05-24T09:33:13Z</time>
      </trkpt>
      <trkpt lat="48.69243" lon="2.12665">
        <ele>163.2</ele>
        <time>2026-05-24T09:33:14Z</time>
      </trkpt>
      <trkpt lat="48.69241" lon="2.12667">
        <ele>163.2</ele>
        <time>2026-05-24T09:33:15Z</time>
      </trkpt>
      <trkpt lat="48.6924" lon="2.12669">
        <ele>163.2</ele>
        <time>2026-05-24T09:33:16Z</time>
      </trkpt>
      <trkpt lat="48.69238" lon="2.1267">
        <ele>163.2</ele>
        <time>2026-05-24T09:33:17Z</time>
      </trkpt>
      <trkpt lat="48.69237" lon="2.12671">
        <ele>163.2</ele>
        <time>2026-05-24T09:33:18Z</time>
      </trkpt>
      <trkpt lat="48.69235" lon="2.12672">
        <ele>163.2</ele>
        <time>2026-05-24T09:33:19Z</time>
      </trkpt>
      <trkpt lat="48.69234" lon="2.12673">
        <ele>163.2</ele>
        <time>2026-05-24T09:33:20Z</time>
      </trkpt>
      <trkpt lat="48.69233" lon="2.12674">
        <ele>164</ele>
        <time>2026-05-24T09:33:21Z</time>
      </trkpt>
      <trkpt lat="48.69232" lon="2.12675">
        <ele>164</ele>
        <time>2026-05-24T09:33:22Z</time>
      </trkpt>
      <trkpt lat="48.69229" lon="2.12677">
        <ele>164</ele>
        <time>2026-05-24T09:33:23Z</time>
      </trkpt>
      <trkpt lat="48.69227" lon="2.12679">
        <ele>164</ele>
        <time>2026-05-24T09:33:24Z</time>
      </trkpt>
      <trkpt lat="48.69225" lon="2.1268">
        <ele>164</ele>
        <time>2026-05-24T09:33:25Z</time>
      </trkpt>
      <trkpt lat="48.69223" lon="2.12682">
        <ele>164</ele>
        <time>2026-05-24T09:33:26Z</time>
      </trkpt>
      <trkpt lat="48.69221" lon="2.12684">
        <ele>164</ele>
        <time>2026-05-24T09:33:27Z</time>
      </trkpt>
      <trkpt lat="48.69219" lon="2.12686">
        <ele>164.6</ele>
        <time>2026-05-24T09:33:28Z</time>
      </trkpt>
      <trkpt lat="48.69217" lon="2.12689">
        <ele>164.6</ele>
        <time>2026-05-24T09:33:29Z</time>
      </trkpt>
      <trkpt lat="48.69215" lon="2.1269">
        <ele>164.6</ele>
        <time>2026-05-24T09:33:30Z</time>
      </trkpt>
      <trkpt lat="48.69214" lon="2.12692">
        <ele>164.6</ele>
        <time>2026-05-24T09:33:31Z</time>
      </trkpt>
      <trkpt lat="48.69211" lon="2.12693">
        <ele>165.4</ele>
        <time>2026-05-24T09:33:32Z</time>
      </trkpt>
      <trkpt lat="48.69209" lon="2.12694">
        <ele>165.8</ele>
        <time>2026-05-24T09:33:33Z</time>
      </trkpt>
      <trkpt lat="48.69207" lon="2.12695">
        <ele>165.8</ele>
        <time>2026-05-24T09:33:34Z</time>
      </trkpt>
      <trkpt lat="48.69205" lon="2.12695">
        <ele>165.8</ele>
        <time>2026-05-24T09:33:35Z</time>
      </trkpt>
      <trkpt lat="48.69203" lon="2.12696">
        <ele>166</ele>
        <time>2026-05-24T09:33:36Z</time>
      </trkpt>
      <trkpt lat="48.69201" lon="2.12698">
        <ele>166.6</ele>
        <time>2026-05-24T09:33:37Z</time>
      </trkpt>
      <trkpt lat="48.69199" lon="2.12699">
        <ele>166.6</ele>
        <time>2026-05-24T09:33:38Z</time>
      </trkpt>
      <trkpt lat="48.69196" lon="2.12701">
        <ele>166.6</ele>
        <time>2026-05-24T09:33:39Z</time>
      </trkpt>
      <trkpt lat="48.69194" lon="2.12703">
        <ele>166.6</ele>
        <time>2026-05-24T09:33:40Z</time>
      </trkpt>
      <trkpt lat="48.69191" lon="2.12705">
        <ele>166.2</ele>
        <time>2026-05-24T09:33:41Z</time>
      </trkpt>
      <trkpt lat="48.6919" lon="2.12708">
        <ele>166.2</ele>
        <time>2026-05-24T09:33:42Z</time>
      </trkpt>
      <trkpt lat="48.69187" lon="2.12711">
        <ele>166.2</ele>
        <time>2026-05-24T09:33:43Z</time>
      </trkpt>
      <trkpt lat="48.69185" lon="2.12713">
        <ele>166.6</ele>
        <time>2026-05-24T09:33:44Z</time>
      </trkpt>
      <trkpt lat="48.69184" lon="2.12715">
        <ele>166.8</ele>
        <time>2026-05-24T09:33:45Z</time>
      </trkpt>
      <trkpt lat="48.69184" lon="2.12716">
        <ele>166.8</ele>
        <time>2026-05-24T09:33:46Z</time>
      </trkpt>
      <trkpt lat="48.69185" lon="2.12716">
        <ele>166.8</ele>
        <time>2026-05-24T09:33:47Z</time>
      </trkpt>
      <trkpt lat="48.69185" lon="2.12715">
        <ele>166.8</ele>
        <time>2026-05-24T09:33:48Z</time>
      </trkpt>
      <trkpt lat="48.69185" lon="2.12713">
        <ele>167</ele>
        <time>2026-05-24T09:33:49Z</time>
      </trkpt>
      <trkpt lat="48.69185" lon="2.12709">
        <ele>167</ele>
        <time>2026-05-24T09:33:50Z</time>
      </trkpt>
      <trkpt lat="48.69186" lon="2.12707">
        <ele>167</ele>
        <time>2026-05-24T09:33:51Z</time>
      </trkpt>
      <trkpt lat="48.69188" lon="2.12704">
        <ele>167</ele>
        <time>2026-05-24T09:33:52Z</time>
      </trkpt>
      <trkpt lat="48.6919" lon="2.12703">
        <ele>167</ele>
        <time>2026-05-24T09:33:53Z</time>
      </trkpt>
      <trkpt lat="48.69192" lon="2.12701">
        <ele>167</ele>
        <time>2026-05-24T09:33:54Z</time>
      </trkpt>
      <trkpt lat="48.69194" lon="2.127">
        <ele>167</ele>
        <time>2026-05-24T09:33:55Z</time>
      </trkpt>
      <trkpt lat="48.69197" lon="2.12699">
        <ele>166.2</ele>
        <time>2026-05-24T09:33:56Z</time>
      </trkpt>
      <trkpt lat="48.692" lon="2.12698">
        <ele>165.8</ele>
        <time>2026-05-24T09:33:57Z</time>
      </trkpt>
      <trkpt lat="48.69204" lon="2.12699">
        <ele>165.8</ele>
        <time>2026-05-24T09:33:58Z</time>
      </trkpt>
      <trkpt lat="48.69207" lon="2.12703">
        <ele>165.8</ele>
        <time>2026-05-24T09:33:59Z</time>
      </trkpt>
      <trkpt lat="48.6921" lon="2.12705">
        <ele>164.8</ele>
        <time>2026-05-24T09:34:00Z</time>
      </trkpt>
      <trkpt lat="48.69212" lon="2.1271">
        <ele>165.4</ele>
        <time>2026-05-24T09:34:01Z</time>
      </trkpt>
      <trkpt lat="48.69214" lon="2.12715">
        <ele>165.4</ele>
        <time>2026-05-24T09:34:02Z</time>
      </trkpt>
      <trkpt lat="48.69215" lon="2.12719">
        <ele>165.4</ele>
        <time>2026-05-24T09:34:03Z</time>
      </trkpt>
      <trkpt lat="48.69217" lon="2.12725">
        <ele>164.4</ele>
        <time>2026-05-24T09:34:04Z</time>
      </trkpt>
      <trkpt lat="48.69217" lon="2.12731">
        <ele>163.4</ele>
        <time>2026-05-24T09:34:05Z</time>
      </trkpt>
      <trkpt lat="48.69219" lon="2.12738">
        <ele>163.4</ele>
        <time>2026-05-24T09:34:06Z</time>
      </trkpt>
      <trkpt lat="48.6922" lon="2.12745">
        <ele>163.4</ele>
        <time>2026-05-24T09:34:07Z</time>
      </trkpt>
      <trkpt lat="48.6922" lon="2.12751">
        <ele>163.4</ele>
        <time>2026-05-24T09:34:08Z</time>
      </trkpt>
      <trkpt lat="48.69221" lon="2.12756">
        <ele>164.2</ele>
        <time>2026-05-24T09:34:09Z</time>
      </trkpt>
      <trkpt lat="48.69222" lon="2.12763">
        <ele>164.2</ele>
        <time>2026-05-24T09:34:10Z</time>
      </trkpt>
      <trkpt lat="48.69221" lon="2.12769">
        <ele>164.2</ele>
        <time>2026-05-24T09:34:11Z</time>
      </trkpt>
      <trkpt lat="48.6922" lon="2.12775">
        <ele>164.2</ele>
        <time>2026-05-24T09:34:12Z</time>
      </trkpt>
      <trkpt lat="48.69219" lon="2.12782">
        <ele>164.8</ele>
        <time>2026-05-24T09:34:13Z</time>
      </trkpt>
      <trkpt lat="48.69218" lon="2.12786">
        <ele>164.8</ele>
        <time>2026-05-24T09:34:14Z</time>
      </trkpt>
      <trkpt lat="48.69219" lon="2.1279">
        <ele>164.8</ele>
        <time>2026-05-24T09:34:15Z</time>
      </trkpt>
      <trkpt lat="48.69219" lon="2.12795">
        <ele>164.8</ele>
        <time>2026-05-24T09:34:16Z</time>
      </trkpt>
      <trkpt lat="48.69219" lon="2.128">
        <ele>164</ele>
        <time>2026-05-24T09:34:17Z</time>
      </trkpt>
      <trkpt lat="48.69219" lon="2.12806">
        <ele>164</ele>
        <time>2026-05-24T09:34:18Z</time>
      </trkpt>
      <trkpt lat="48.69219" lon="2.12812">
        <ele>164</ele>
        <time>2026-05-24T09:34:19Z</time>
      </trkpt>
      <trkpt lat="48.6922" lon="2.12818">
        <ele>164.4</ele>
        <time>2026-05-24T09:34:20Z</time>
      </trkpt>
      <trkpt lat="48.6922" lon="2.12826">
        <ele>163.8</ele>
        <time>2026-05-24T09:34:21Z</time>
      </trkpt>
      <trkpt lat="48.6922" lon="2.12833">
        <ele>163.8</ele>
        <time>2026-05-24T09:34:22Z</time>
      </trkpt>
      <trkpt lat="48.69219" lon="2.1284">
        <ele>163.8</ele>
        <time>2026-05-24T09:34:23Z</time>
      </trkpt>
      <trkpt lat="48.6922" lon="2.12848">
        <ele>164.2</ele>
        <time>2026-05-24T09:34:24Z</time>
      </trkpt>
      <trkpt lat="48.6922" lon="2.12856">
        <ele>164.8</ele>
        <time>2026-05-24T09:34:25Z</time>
      </trkpt>
      <trkpt lat="48.6922" lon="2.12862">
        <ele>164.8</ele>
        <time>2026-05-24T09:34:26Z</time>
      </trkpt>
      <trkpt lat="48.69219" lon="2.12869">
        <ele>164.8</ele>
        <time>2026-05-24T09:34:27Z</time>
      </trkpt>
      <trkpt lat="48.69219" lon="2.12876">
        <ele>164.8</ele>
        <time>2026-05-24T09:34:28Z</time>
      </trkpt>
      <trkpt lat="48.69219" lon="2.12885">
        <ele>164.2</ele>
        <time>2026-05-24T09:34:29Z</time>
      </trkpt>
      <trkpt lat="48.69218" lon="2.12892">
        <ele>164.2</ele>
        <time>2026-05-24T09:34:30Z</time>
      </trkpt>
      <trkpt lat="48.69218" lon="2.12901">
        <ele>164.2</ele>
        <time>2026-05-24T09:34:31Z</time>
      </trkpt>
      <trkpt lat="48.69219" lon="2.12909">
        <ele>164.8</ele>
        <time>2026-05-24T09:34:32Z</time>
      </trkpt>
      <trkpt lat="48.6922" lon="2.12918">
        <ele>164.8</ele>
        <time>2026-05-24T09:34:33Z</time>
      </trkpt>
      <trkpt lat="48.6922" lon="2.12925">
        <ele>164.8</ele>
        <time>2026-05-24T09:34:34Z</time>
      </trkpt>
      <trkpt lat="48.69221" lon="2.12932">
        <ele>164.8</ele>
        <time>2026-05-24T09:34:35Z</time>
      </trkpt>
      <trkpt lat="48.69222" lon="2.12941">
        <ele>164.8</ele>
        <time>2026-05-24T09:34:36Z</time>
      </trkpt>
      <trkpt lat="48.69221" lon="2.12949">
        <ele>164.8</ele>
        <time>2026-05-24T09:34:37Z</time>
      </trkpt>
      <trkpt lat="48.69223" lon="2.12957">
        <ele>164.8</ele>
        <time>2026-05-24T09:34:38Z</time>
      </trkpt>
      <trkpt lat="48.69225" lon="2.12966">
        <ele>164.8</ele>
        <time>2026-05-24T09:34:39Z</time>
      </trkpt>
      <trkpt lat="48.69226" lon="2.12974">
        <ele>164.8</ele>
        <time>2026-05-24T09:34:40Z</time>
      </trkpt>
      <trkpt lat="48.69226" lon="2.12982">
        <ele>165.4</ele>
        <time>2026-05-24T09:34:41Z</time>
      </trkpt>
      <trkpt lat="48.69227" lon="2.12991">
        <ele>165.4</ele>
        <time>2026-05-24T09:34:42Z</time>
      </trkpt>
      <trkpt lat="48.69227" lon="2.12999">
        <ele>165.4</ele>
        <time>2026-05-24T09:34:43Z</time>
      </trkpt>
      <trkpt lat="48.69228" lon="2.13005">
        <ele>165.4</ele>
        <time>2026-05-24T09:34:44Z</time>
      </trkpt>
      <trkpt lat="48.69228" lon="2.13011">
        <ele>165.2</ele>
        <time>2026-05-24T09:34:45Z</time>
      </trkpt>
      <trkpt lat="48.69227" lon="2.13018">
        <ele>165.2</ele>
        <time>2026-05-24T09:34:46Z</time>
      </trkpt>
      <trkpt lat="48.69227" lon="2.13025">
        <ele>165.2</ele>
        <time>2026-05-24T09:34:47Z</time>
      </trkpt>
      <trkpt lat="48.69226" lon="2.13033">
        <ele>165.8</ele>
        <time>2026-05-24T09:34:48Z</time>
      </trkpt>
      <trkpt lat="48.69225" lon="2.1304">
        <ele>165.2</ele>
        <time>2026-05-24T09:34:49Z</time>
      </trkpt>
      <trkpt lat="48.69224" lon="2.13047">
        <ele>165.2</ele>
        <time>2026-05-24T09:34:50Z</time>
      </trkpt>
      <trkpt lat="48.69224" lon="2.13053">
        <ele>165.2</ele>
        <time>2026-05-24T09:34:51Z</time>
      </trkpt>
      <trkpt lat="48.69225" lon="2.1306">
        <ele>165.2</ele>
        <time>2026-05-24T09:34:52Z</time>
      </trkpt>
      <trkpt lat="48.69225" lon="2.13068">
        <ele>165.4</ele>
        <time>2026-05-24T09:34:53Z</time>
      </trkpt>
      <trkpt lat="48.69226" lon="2.13075">
        <ele>165.4</ele>
        <time>2026-05-24T09:34:54Z</time>
      </trkpt>
      <trkpt lat="48.69227" lon="2.13082">
        <ele>165.4</ele>
        <time>2026-05-24T09:34:55Z</time>
      </trkpt>
      <trkpt lat="48.69227" lon="2.13091">
        <ele>165.4</ele>
        <time>2026-05-24T09:34:56Z</time>
      </trkpt>
      <trkpt lat="48.69229" lon="2.13098">
        <ele>165.2</ele>
        <time>2026-05-24T09:34:57Z</time>
      </trkpt>
      <trkpt lat="48.6923" lon="2.13105">
        <ele>165.2</ele>
        <time>2026-05-24T09:34:58Z</time>
      </trkpt>
      <trkpt lat="48.69231" lon="2.13113">
        <ele>165.2</ele>
        <time>2026-05-24T09:34:59Z</time>
      </trkpt>
      <trkpt lat="48.69231" lon="2.13122">
        <ele>165.4</ele>
        <time>2026-05-24T09:35:00Z</time>
      </trkpt>
      <trkpt lat="48.69231" lon="2.13131">
        <ele>165.6</ele>
        <time>2026-05-24T09:35:01Z</time>
      </trkpt>
      <trkpt lat="48.6923" lon="2.13139">
        <ele>165.6</ele>
        <time>2026-05-24T09:35:02Z</time>
      </trkpt>
      <trkpt lat="48.6923" lon="2.13146">
        <ele>165.6</ele>
        <time>2026-05-24T09:35:03Z</time>
      </trkpt>
      <trkpt lat="48.6923" lon="2.13154">
        <ele>165.8</ele>
        <time>2026-05-24T09:35:04Z</time>
      </trkpt>
      <trkpt lat="48.6923" lon="2.13162">
        <ele>166.2</ele>
        <time>2026-05-24T09:35:05Z</time>
      </trkpt>
      <trkpt lat="48.69229" lon="2.13171">
        <ele>166.2</ele>
        <time>2026-05-24T09:35:06Z</time>
      </trkpt>
      <trkpt lat="48.69228" lon="2.13178">
        <ele>166.2</ele>
        <time>2026-05-24T09:35:07Z</time>
      </trkpt>
      <trkpt lat="48.69227" lon="2.13186">
        <ele>166.2</ele>
        <time>2026-05-24T09:35:08Z</time>
      </trkpt>
      <trkpt lat="48.69226" lon="2.13191">
        <ele>167</ele>
        <time>2026-05-24T09:35:09Z</time>
      </trkpt>
      <trkpt lat="48.69223" lon="2.132">
        <ele>167</ele>
        <time>2026-05-24T09:35:10Z</time>
      </trkpt>
      <trkpt lat="48.69222" lon="2.13205">
        <ele>167</ele>
        <time>2026-05-24T09:35:11Z</time>
      </trkpt>
      <trkpt lat="48.69221" lon="2.1321">
        <ele>167</ele>
        <time>2026-05-24T09:35:12Z</time>
      </trkpt>
      <trkpt lat="48.69219" lon="2.13215">
        <ele>166.6</ele>
        <time>2026-05-24T09:35:13Z</time>
      </trkpt>
      <trkpt lat="48.69216" lon="2.13222">
        <ele>166.6</ele>
        <time>2026-05-24T09:35:14Z</time>
      </trkpt>
      <trkpt lat="48.69213" lon="2.13228">
        <ele>166.6</ele>
        <time>2026-05-24T09:35:15Z</time>
      </trkpt>
      <trkpt lat="48.69211" lon="2.13233">
        <ele>166.6</ele>
        <time>2026-05-24T09:35:16Z</time>
      </trkpt>
      <trkpt lat="48.69208" lon="2.13238">
        <ele>167.4</ele>
        <time>2026-05-24T09:35:17Z</time>
      </trkpt>
      <trkpt lat="48.69205" lon="2.13244">
        <ele>167.4</ele>
        <time>2026-05-24T09:35:18Z</time>
      </trkpt>
      <trkpt lat="48.69201" lon="2.13252">
        <ele>167.4</ele>
        <time>2026-05-24T09:35:19Z</time>
      </trkpt>
      <trkpt lat="48.69199" lon="2.13256">
        <ele>167.6</ele>
        <time>2026-05-24T09:35:20Z</time>
      </trkpt>
      <trkpt lat="48.69197" lon="2.13263">
        <ele>167.6</ele>
        <time>2026-05-24T09:35:21Z</time>
      </trkpt>
      <trkpt lat="48.69194" lon="2.13269">
        <ele>167.6</ele>
        <time>2026-05-24T09:35:22Z</time>
      </trkpt>
      <trkpt lat="48.69193" lon="2.13277">
        <ele>167.6</ele>
        <time>2026-05-24T09:35:23Z</time>
      </trkpt>
      <trkpt lat="48.6919" lon="2.13282">
        <ele>167.4</ele>
        <time>2026-05-24T09:35:24Z</time>
      </trkpt>
      <trkpt lat="48.69187" lon="2.13286">
        <ele>167.2</ele>
        <time>2026-05-24T09:35:25Z</time>
      </trkpt>
      <trkpt lat="48.69185" lon="2.13294">
        <ele>167.2</ele>
        <time>2026-05-24T09:35:26Z</time>
      </trkpt>
      <trkpt lat="48.69183" lon="2.13302">
        <ele>167.2</ele>
        <time>2026-05-24T09:35:27Z</time>
      </trkpt>
      <trkpt lat="48.69179" lon="2.1331">
        <ele>167.6</ele>
        <time>2026-05-24T09:35:28Z</time>
      </trkpt>
      <trkpt lat="48.69177" lon="2.13317">
        <ele>168</ele>
        <time>2026-05-24T09:35:29Z</time>
      </trkpt>
      <trkpt lat="48.69174" lon="2.13323">
        <ele>168</ele>
        <time>2026-05-24T09:35:30Z</time>
      </trkpt>
      <trkpt lat="48.69172" lon="2.13329">
        <ele>168</ele>
        <time>2026-05-24T09:35:31Z</time>
      </trkpt>
      <trkpt lat="48.69169" lon="2.13336">
        <ele>167.8</ele>
        <time>2026-05-24T09:35:32Z</time>
      </trkpt>
      <trkpt lat="48.69166" lon="2.13341">
        <ele>168.6</ele>
        <time>2026-05-24T09:35:33Z</time>
      </trkpt>
      <trkpt lat="48.69164" lon="2.13348">
        <ele>168.6</ele>
        <time>2026-05-24T09:35:34Z</time>
      </trkpt>
      <trkpt lat="48.69162" lon="2.13353">
        <ele>168.6</ele>
        <time>2026-05-24T09:35:35Z</time>
      </trkpt>
      <trkpt lat="48.69159" lon="2.13358">
        <ele>168</ele>
        <time>2026-05-24T09:35:36Z</time>
      </trkpt>
      <trkpt lat="48.69156" lon="2.13365">
        <ele>168.4</ele>
        <time>2026-05-24T09:35:37Z</time>
      </trkpt>
      <trkpt lat="48.69154" lon="2.13371">
        <ele>168.4</ele>
        <time>2026-05-24T09:35:38Z</time>
      </trkpt>
      <trkpt lat="48.69152" lon="2.13375">
        <ele>168.4</ele>
        <time>2026-05-24T09:35:39Z</time>
      </trkpt>
      <trkpt lat="48.69149" lon="2.13382">
        <ele>168.6</ele>
        <time>2026-05-24T09:35:40Z</time>
      </trkpt>
      <trkpt lat="48.69146" lon="2.1339">
        <ele>167.6</ele>
        <time>2026-05-24T09:35:41Z</time>
      </trkpt>
      <trkpt lat="48.69142" lon="2.13397">
        <ele>167.6</ele>
        <time>2026-05-24T09:35:42Z</time>
      </trkpt>
      <trkpt lat="48.69139" lon="2.13403">
        <ele>167.6</ele>
        <time>2026-05-24T09:35:43Z</time>
      </trkpt>
      <trkpt lat="48.69137" lon="2.13408">
        <ele>168.6</ele>
        <time>2026-05-24T09:35:44Z</time>
      </trkpt>
      <trkpt lat="48.69134" lon="2.13416">
        <ele>168.8</ele>
        <time>2026-05-24T09:35:45Z</time>
      </trkpt>
      <trkpt lat="48.69131" lon="2.13423">
        <ele>168.8</ele>
        <time>2026-05-24T09:35:46Z</time>
      </trkpt>
      <trkpt lat="48.69127" lon="2.13431">
        <ele>168.8</ele>
        <time>2026-05-24T09:35:47Z</time>
      </trkpt>
      <trkpt lat="48.69124" lon="2.13438">
        <ele>168.8</ele>
        <time>2026-05-24T09:35:48Z</time>
      </trkpt>
      <trkpt lat="48.69121" lon="2.13444">
        <ele>169.2</ele>
        <time>2026-05-24T09:35:49Z</time>
      </trkpt>
      <trkpt lat="48.69118" lon="2.13449">
        <ele>169.2</ele>
        <time>2026-05-24T09:35:50Z</time>
      </trkpt>
      <trkpt lat="48.69115" lon="2.13456">
        <ele>169.2</ele>
        <time>2026-05-24T09:35:51Z</time>
      </trkpt>
      <trkpt lat="48.69111" lon="2.13463">
        <ele>169.2</ele>
        <time>2026-05-24T09:35:52Z</time>
      </trkpt>
      <trkpt lat="48.69109" lon="2.1347">
        <ele>169.6</ele>
        <time>2026-05-24T09:35:53Z</time>
      </trkpt>
      <trkpt lat="48.69106" lon="2.13477">
        <ele>169.6</ele>
        <time>2026-05-24T09:35:54Z</time>
      </trkpt>
      <trkpt lat="48.69102" lon="2.13484">
        <ele>169.6</ele>
        <time>2026-05-24T09:35:55Z</time>
      </trkpt>
      <trkpt lat="48.69098" lon="2.13491">
        <ele>169</ele>
        <time>2026-05-24T09:35:56Z</time>
      </trkpt>
      <trkpt lat="48.69096" lon="2.13495">
        <ele>169.4</ele>
        <time>2026-05-24T09:35:57Z</time>
      </trkpt>
      <trkpt lat="48.69092" lon="2.13498">
        <ele>169.4</ele>
        <time>2026-05-24T09:35:58Z</time>
      </trkpt>
      <trkpt lat="48.69088" lon="2.13499">
        <ele>169.4</ele>
        <time>2026-05-24T09:35:59Z</time>
      </trkpt>
      <trkpt lat="48.69083" lon="2.135">
        <ele>169.4</ele>
        <time>2026-05-24T09:36:00Z</time>
      </trkpt>
      <trkpt lat="48.69078" lon="2.13499">
        <ele>169.4</ele>
        <time>2026-05-24T09:36:01Z</time>
      </trkpt>
      <trkpt lat="48.69072" lon="2.13498">
        <ele>169.4</ele>
        <time>2026-05-24T09:36:02Z</time>
      </trkpt>
      <trkpt lat="48.69066" lon="2.13498">
        <ele>169.4</ele>
        <time>2026-05-24T09:36:03Z</time>
      </trkpt>
      <trkpt lat="48.69061" lon="2.13497">
        <ele>169.4</ele>
        <time>2026-05-24T09:36:04Z</time>
      </trkpt>
      <trkpt lat="48.69056" lon="2.13496">
        <ele>169.2</ele>
        <time>2026-05-24T09:36:05Z</time>
      </trkpt>
      <trkpt lat="48.69052" lon="2.13494">
        <ele>169.2</ele>
        <time>2026-05-24T09:36:06Z</time>
      </trkpt>
      <trkpt lat="48.69046" lon="2.13494">
        <ele>169.2</ele>
        <time>2026-05-24T09:36:07Z</time>
      </trkpt>
      <trkpt lat="48.6904" lon="2.13494">
        <ele>170</ele>
        <time>2026-05-24T09:36:08Z</time>
      </trkpt>
      <trkpt lat="48.69035" lon="2.13493">
        <ele>169.2</ele>
        <time>2026-05-24T09:36:09Z</time>
      </trkpt>
      <trkpt lat="48.6903" lon="2.13492">
        <ele>169.2</ele>
        <time>2026-05-24T09:36:10Z</time>
      </trkpt>
      <trkpt lat="48.69025" lon="2.13491">
        <ele>169.2</ele>
        <time>2026-05-24T09:36:11Z</time>
      </trkpt>
      <trkpt lat="48.6902" lon="2.13491">
        <ele>170</ele>
        <time>2026-05-24T09:36:12Z</time>
      </trkpt>
      <trkpt lat="48.69015" lon="2.1349">
        <ele>170</ele>
        <time>2026-05-24T09:36:13Z</time>
      </trkpt>
      <trkpt lat="48.69011" lon="2.13489">
        <ele>170</ele>
        <time>2026-05-24T09:36:14Z</time>
      </trkpt>
      <trkpt lat="48.69006" lon="2.13488">
        <ele>170</ele>
        <time>2026-05-24T09:36:15Z</time>
      </trkpt>
      <trkpt lat="48.69001" lon="2.13487">
        <ele>170.2</ele>
        <time>2026-05-24T09:36:16Z</time>
      </trkpt>
      <trkpt lat="48.68995" lon="2.13486">
        <ele>170</ele>
        <time>2026-05-24T09:36:17Z</time>
      </trkpt>
      <trkpt lat="48.68989" lon="2.13485">
        <ele>170</ele>
        <time>2026-05-24T09:36:18Z</time>
      </trkpt>
      <trkpt lat="48.68984" lon="2.13484">
        <ele>170</ele>
        <time>2026-05-24T09:36:19Z</time>
      </trkpt>
      <trkpt lat="48.68979" lon="2.13483">
        <ele>170.6</ele>
        <time>2026-05-24T09:36:20Z</time>
      </trkpt>
      <trkpt lat="48.68974" lon="2.13482">
        <ele>170.2</ele>
        <time>2026-05-24T09:36:21Z</time>
      </trkpt>
      <trkpt lat="48.68969" lon="2.13481">
        <ele>170.2</ele>
        <time>2026-05-24T09:36:22Z</time>
      </trkpt>
      <trkpt lat="48.68963" lon="2.1348">
        <ele>170.2</ele>
        <time>2026-05-24T09:36:23Z</time>
      </trkpt>
      <trkpt lat="48.68958" lon="2.13479">
        <ele>170.2</ele>
        <time>2026-05-24T09:36:24Z</time>
      </trkpt>
      <trkpt lat="48.68953" lon="2.13477">
        <ele>171</ele>
        <time>2026-05-24T09:36:25Z</time>
      </trkpt>
      <trkpt lat="48.68948" lon="2.13476">
        <ele>171</ele>
        <time>2026-05-24T09:36:26Z</time>
      </trkpt>
      <trkpt lat="48.68943" lon="2.13474">
        <ele>171</ele>
        <time>2026-05-24T09:36:27Z</time>
      </trkpt>
      <trkpt lat="48.68938" lon="2.13473">
        <ele>171</ele>
        <time>2026-05-24T09:36:28Z</time>
      </trkpt>
      <trkpt lat="48.68933" lon="2.13471">
        <ele>171</ele>
        <time>2026-05-24T09:36:29Z</time>
      </trkpt>
      <trkpt lat="48.68928" lon="2.13469">
        <ele>171</ele>
        <time>2026-05-24T09:36:30Z</time>
      </trkpt>
      <trkpt lat="48.68923" lon="2.13467">
        <ele>171</ele>
        <time>2026-05-24T09:36:31Z</time>
      </trkpt>
      <trkpt lat="48.68917" lon="2.13466">
        <ele>171</ele>
        <time>2026-05-24T09:36:32Z</time>
      </trkpt>
      <trkpt lat="48.68911" lon="2.13465">
        <ele>170.8</ele>
        <time>2026-05-24T09:36:33Z</time>
      </trkpt>
      <trkpt lat="48.68906" lon="2.13463">
        <ele>170.8</ele>
        <time>2026-05-24T09:36:34Z</time>
      </trkpt>
      <trkpt lat="48.68901" lon="2.13462">
        <ele>170.8</ele>
        <time>2026-05-24T09:36:35Z</time>
      </trkpt>
      <trkpt lat="48.68896" lon="2.1346">
        <ele>170.8</ele>
        <time>2026-05-24T09:36:36Z</time>
      </trkpt>
      <trkpt lat="48.6889" lon="2.13459">
        <ele>170.6</ele>
        <time>2026-05-24T09:36:37Z</time>
      </trkpt>
      <trkpt lat="48.68884" lon="2.13459">
        <ele>170.6</ele>
        <time>2026-05-24T09:36:38Z</time>
      </trkpt>
      <trkpt lat="48.68878" lon="2.13457">
        <ele>170.6</ele>
        <time>2026-05-24T09:36:39Z</time>
      </trkpt>
      <trkpt lat="48.68873" lon="2.13456">
        <ele>170.6</ele>
        <time>2026-05-24T09:36:40Z</time>
      </trkpt>
      <trkpt lat="48.68868" lon="2.13454">
        <ele>170.8</ele>
        <time>2026-05-24T09:36:41Z</time>
      </trkpt>
      <trkpt lat="48.68863" lon="2.13452">
        <ele>170.8</ele>
        <time>2026-05-24T09:36:42Z</time>
      </trkpt>
      <trkpt lat="48.68858" lon="2.13451">
        <ele>170.8</ele>
        <time>2026-05-24T09:36:43Z</time>
      </trkpt>
      <trkpt lat="48.68853" lon="2.1345">
        <ele>170.8</ele>
        <time>2026-05-24T09:36:44Z</time>
      </trkpt>
      <trkpt lat="48.6885" lon="2.13451">
        <ele>170.6</ele>
        <time>2026-05-24T09:36:45Z</time>
      </trkpt>
      <trkpt lat="48.68847" lon="2.13454">
        <ele>170.6</ele>
        <time>2026-05-24T09:36:46Z</time>
      </trkpt>
      <trkpt lat="48.68846" lon="2.13457">
        <ele>170.6</ele>
        <time>2026-05-24T09:36:47Z</time>
      </trkpt>
      <trkpt lat="48.68846" lon="2.13461">
        <ele>170.6</ele>
        <time>2026-05-24T09:36:48Z</time>
      </trkpt>
      <trkpt lat="48.68845" lon="2.13464">
        <ele>171</ele>
        <time>2026-05-24T09:36:49Z</time>
      </trkpt>
      <trkpt lat="48.68845" lon="2.13467">
        <ele>171</ele>
        <time>2026-05-24T09:36:50Z</time>
      </trkpt>
      <trkpt lat="48.68844" lon="2.1347">
        <ele>171</ele>
        <time>2026-05-24T09:36:51Z</time>
      </trkpt>
      <trkpt lat="48.68845" lon="2.13474">
        <ele>171</ele>
        <time>2026-05-24T09:36:52Z</time>
      </trkpt>
      <trkpt lat="48.68844" lon="2.13479">
        <ele>170.8</ele>
        <time>2026-05-24T09:36:53Z</time>
      </trkpt>
      <trkpt lat="48.68841" lon="2.13482">
        <ele>170.8</ele>
        <time>2026-05-24T09:36:54Z</time>
      </trkpt>
      <trkpt lat="48.68839" lon="2.13485">
        <ele>170.8</ele>
        <time>2026-05-24T09:36:55Z</time>
      </trkpt>
      <trkpt lat="48.68835" lon="2.13486">
        <ele>170.8</ele>
        <time>2026-05-24T09:36:56Z</time>
      </trkpt>
      <trkpt lat="48.68832" lon="2.13487">
        <ele>171.6</ele>
        <time>2026-05-24T09:36:57Z</time>
      </trkpt>
      <trkpt lat="48.68827" lon="2.13488">
        <ele>171.6</ele>
        <time>2026-05-24T09:36:58Z</time>
      </trkpt>
      <trkpt lat="48.68822" lon="2.1349">
        <ele>171.6</ele>
        <time>2026-05-24T09:36:59Z</time>
      </trkpt>
      <trkpt lat="48.68818" lon="2.13491">
        <ele>170.6</ele>
        <time>2026-05-24T09:37:00Z</time>
      </trkpt>
      <trkpt lat="48.68812" lon="2.13493">
        <ele>170.4</ele>
        <time>2026-05-24T09:37:01Z</time>
      </trkpt>
      <trkpt lat="48.68807" lon="2.13493">
        <ele>170.4</ele>
        <time>2026-05-24T09:37:02Z</time>
      </trkpt>
      <trkpt lat="48.68802" lon="2.13495">
        <ele>170.4</ele>
        <time>2026-05-24T09:37:03Z</time>
      </trkpt>
      <trkpt lat="48.68796" lon="2.13496">
        <ele>170.4</ele>
        <time>2026-05-24T09:37:04Z</time>
      </trkpt>
      <trkpt lat="48.68792" lon="2.13497">
        <ele>170</ele>
        <time>2026-05-24T09:37:05Z</time>
      </trkpt>
      <trkpt lat="48.68787" lon="2.13499">
        <ele>170</ele>
        <time>2026-05-24T09:37:06Z</time>
      </trkpt>
      <trkpt lat="48.68782" lon="2.13501">
        <ele>170</ele>
        <time>2026-05-24T09:37:07Z</time>
      </trkpt>
      <trkpt lat="48.68776" lon="2.13501">
        <ele>169.8</ele>
        <time>2026-05-24T09:37:08Z</time>
      </trkpt>
      <trkpt lat="48.68771" lon="2.135">
        <ele>169</ele>
        <time>2026-05-24T09:37:09Z</time>
      </trkpt>
      <trkpt lat="48.68768" lon="2.13497">
        <ele>169</ele>
        <time>2026-05-24T09:37:10Z</time>
      </trkpt>
      <trkpt lat="48.68766" lon="2.13492">
        <ele>169</ele>
        <time>2026-05-24T09:37:11Z</time>
      </trkpt>
      <trkpt lat="48.68765" lon="2.13486">
        <ele>170</ele>
        <time>2026-05-24T09:37:12Z</time>
      </trkpt>
      <trkpt lat="48.68764" lon="2.13479">
        <ele>169.6</ele>
        <time>2026-05-24T09:37:13Z</time>
      </trkpt>
      <trkpt lat="48.68763" lon="2.13472">
        <ele>169.6</ele>
        <time>2026-05-24T09:37:14Z</time>
      </trkpt>
      <trkpt lat="48.68761" lon="2.13465">
        <ele>169.6</ele>
        <time>2026-05-24T09:37:15Z</time>
      </trkpt>
      <trkpt lat="48.6876" lon="2.13458">
        <ele>169.2</ele>
        <time>2026-05-24T09:37:16Z</time>
      </trkpt>
      <trkpt lat="48.68759" lon="2.13451">
        <ele>169.2</ele>
        <time>2026-05-24T09:37:17Z</time>
      </trkpt>
      <trkpt lat="48.68758" lon="2.13444">
        <ele>169.2</ele>
        <time>2026-05-24T09:37:18Z</time>
      </trkpt>
      <trkpt lat="48.68757" lon="2.13436">
        <ele>169.2</ele>
        <time>2026-05-24T09:37:19Z</time>
      </trkpt>
      <trkpt lat="48.68755" lon="2.13428">
        <ele>169.2</ele>
        <time>2026-05-24T09:37:20Z</time>
      </trkpt>
      <trkpt lat="48.68754" lon="2.1342">
        <ele>169</ele>
        <time>2026-05-24T09:37:21Z</time>
      </trkpt>
      <trkpt lat="48.68754" lon="2.13411">
        <ele>169</ele>
        <time>2026-05-24T09:37:22Z</time>
      </trkpt>
      <trkpt lat="48.68752" lon="2.13404">
        <ele>169</ele>
        <time>2026-05-24T09:37:23Z</time>
      </trkpt>
      <trkpt lat="48.6875" lon="2.13396">
        <ele>169</ele>
        <time>2026-05-24T09:37:24Z</time>
      </trkpt>
      <trkpt lat="48.6875" lon="2.13388">
        <ele>169</ele>
        <time>2026-05-24T09:37:25Z</time>
      </trkpt>
      <trkpt lat="48.68748" lon="2.1338">
        <ele>169</ele>
        <time>2026-05-24T09:37:26Z</time>
      </trkpt>
      <trkpt lat="48.68747" lon="2.13373">
        <ele>169</ele>
        <time>2026-05-24T09:37:27Z</time>
      </trkpt>
      <trkpt lat="48.68746" lon="2.13365">
        <ele>169</ele>
        <time>2026-05-24T09:37:28Z</time>
      </trkpt>
      <trkpt lat="48.68745" lon="2.13358">
        <ele>169.6</ele>
        <time>2026-05-24T09:37:29Z</time>
      </trkpt>
      <trkpt lat="48.68744" lon="2.13349">
        <ele>169.6</ele>
        <time>2026-05-24T09:37:30Z</time>
      </trkpt>
      <trkpt lat="48.68743" lon="2.13341">
        <ele>169.6</ele>
        <time>2026-05-24T09:37:31Z</time>
      </trkpt>
      <trkpt lat="48.68743" lon="2.13331">
        <ele>168.6</ele>
        <time>2026-05-24T09:37:32Z</time>
      </trkpt>
      <trkpt lat="48.68742" lon="2.13321">
        <ele>167</ele>
        <time>2026-05-24T09:37:33Z</time>
      </trkpt>
      <trkpt lat="48.68741" lon="2.13312">
        <ele>167</ele>
        <time>2026-05-24T09:37:34Z</time>
      </trkpt>
      <trkpt lat="48.68739" lon="2.13302">
        <ele>167</ele>
        <time>2026-05-24T09:37:35Z</time>
      </trkpt>
      <trkpt lat="48.68738" lon="2.13292">
        <ele>167</ele>
        <time>2026-05-24T09:37:36Z</time>
      </trkpt>
      <trkpt lat="48.68737" lon="2.13284">
        <ele>166.6</ele>
        <time>2026-05-24T09:37:37Z</time>
      </trkpt>
      <trkpt lat="48.68736" lon="2.13275">
        <ele>166.6</ele>
        <time>2026-05-24T09:37:38Z</time>
      </trkpt>
      <trkpt lat="48.68734" lon="2.13266">
        <ele>166.6</ele>
        <time>2026-05-24T09:37:39Z</time>
      </trkpt>
      <trkpt lat="48.68733" lon="2.13257">
        <ele>166.4</ele>
        <time>2026-05-24T09:37:40Z</time>
      </trkpt>
      <trkpt lat="48.68731" lon="2.13249">
        <ele>166.6</ele>
        <time>2026-05-24T09:37:41Z</time>
      </trkpt>
      <trkpt lat="48.6873" lon="2.13242">
        <ele>166.6</ele>
        <time>2026-05-24T09:37:42Z</time>
      </trkpt>
      <trkpt lat="48.68728" lon="2.13235">
        <ele>166.6</ele>
        <time>2026-05-24T09:37:43Z</time>
      </trkpt>
      <trkpt lat="48.68726" lon="2.13227">
        <ele>166.6</ele>
        <time>2026-05-24T09:37:44Z</time>
      </trkpt>
      <trkpt lat="48.68724" lon="2.13219">
        <ele>166.6</ele>
        <time>2026-05-24T09:37:45Z</time>
      </trkpt>
      <trkpt lat="48.68723" lon="2.1321">
        <ele>166.6</ele>
        <time>2026-05-24T09:37:46Z</time>
      </trkpt>
      <trkpt lat="48.68723" lon="2.13199">
        <ele>166.6</ele>
        <time>2026-05-24T09:37:47Z</time>
      </trkpt>
      <trkpt lat="48.68723" lon="2.1319">
        <ele>166</ele>
        <time>2026-05-24T09:37:48Z</time>
      </trkpt>
      <trkpt lat="48.68722" lon="2.13181">
        <ele>165.2</ele>
        <time>2026-05-24T09:37:49Z</time>
      </trkpt>
      <trkpt lat="48.68722" lon="2.13172">
        <ele>165.2</ele>
        <time>2026-05-24T09:37:50Z</time>
      </trkpt>
      <trkpt lat="48.68722" lon="2.13163">
        <ele>165.2</ele>
        <time>2026-05-24T09:37:51Z</time>
      </trkpt>
      <trkpt lat="48.68721" lon="2.13153">
        <ele>165.6</ele>
        <time>2026-05-24T09:37:52Z</time>
      </trkpt>
      <trkpt lat="48.6872" lon="2.13143">
        <ele>165</ele>
        <time>2026-05-24T09:37:53Z</time>
      </trkpt>
      <trkpt lat="48.6872" lon="2.13133">
        <ele>165</ele>
        <time>2026-05-24T09:37:54Z</time>
      </trkpt>
      <trkpt lat="48.68719" lon="2.13124">
        <ele>165</ele>
        <time>2026-05-24T09:37:55Z</time>
      </trkpt>
      <trkpt lat="48.68718" lon="2.13114">
        <ele>165</ele>
        <time>2026-05-24T09:37:56Z</time>
      </trkpt>
      <trkpt lat="48.68717" lon="2.13106">
        <ele>164.8</ele>
        <time>2026-05-24T09:37:57Z</time>
      </trkpt>
      <trkpt lat="48.68717" lon="2.13098">
        <ele>164.8</ele>
        <time>2026-05-24T09:37:58Z</time>
      </trkpt>
      <trkpt lat="48.68716" lon="2.13087">
        <ele>164.8</ele>
        <time>2026-05-24T09:37:59Z</time>
      </trkpt>
      <trkpt lat="48.68715" lon="2.13079">
        <ele>164.8</ele>
        <time>2026-05-24T09:38:00Z</time>
      </trkpt>
      <trkpt lat="48.68713" lon="2.13068">
        <ele>164.6</ele>
        <time>2026-05-24T09:38:01Z</time>
      </trkpt>
      <trkpt lat="48.68711" lon="2.13061">
        <ele>164.6</ele>
        <time>2026-05-24T09:38:02Z</time>
      </trkpt>
      <trkpt lat="48.68709" lon="2.13052">
        <ele>164.6</ele>
        <time>2026-05-24T09:38:03Z</time>
      </trkpt>
      <trkpt lat="48.68709" lon="2.13043">
        <ele>164.6</ele>
        <time>2026-05-24T09:38:04Z</time>
      </trkpt>
      <trkpt lat="48.68707" lon="2.13032">
        <ele>166.2</ele>
        <time>2026-05-24T09:38:05Z</time>
      </trkpt>
      <trkpt lat="48.68705" lon="2.13022">
        <ele>166.2</ele>
        <time>2026-05-24T09:38:06Z</time>
      </trkpt>
      <trkpt lat="48.68703" lon="2.13009">
        <ele>166.2</ele>
        <time>2026-05-24T09:38:07Z</time>
      </trkpt>
      <trkpt lat="48.68702" lon="2.12999">
        <ele>165.2</ele>
        <time>2026-05-24T09:38:08Z</time>
      </trkpt>
      <trkpt lat="48.68701" lon="2.1299">
        <ele>165.8</ele>
        <time>2026-05-24T09:38:09Z</time>
      </trkpt>
      <trkpt lat="48.68699" lon="2.12983">
        <ele>165.8</ele>
        <time>2026-05-24T09:38:10Z</time>
      </trkpt>
      <trkpt lat="48.68695" lon="2.12977">
        <ele>165.8</ele>
        <time>2026-05-24T09:38:11Z</time>
      </trkpt>
      <trkpt lat="48.68691" lon="2.1297">
        <ele>164.8</ele>
        <time>2026-05-24T09:38:12Z</time>
      </trkpt>
      <trkpt lat="48.68686" lon="2.12961">
        <ele>164.2</ele>
        <time>2026-05-24T09:38:13Z</time>
      </trkpt>
      <trkpt lat="48.68682" lon="2.12951">
        <ele>164.2</ele>
        <time>2026-05-24T09:38:14Z</time>
      </trkpt>
      <trkpt lat="48.68679" lon="2.12941">
        <ele>164.2</ele>
        <time>2026-05-24T09:38:15Z</time>
      </trkpt>
      <trkpt lat="48.68676" lon="2.12932">
        <ele>164.2</ele>
        <time>2026-05-24T09:38:16Z</time>
      </trkpt>
      <trkpt lat="48.68673" lon="2.12922">
        <ele>163.8</ele>
        <time>2026-05-24T09:38:17Z</time>
      </trkpt>
      <trkpt lat="48.68669" lon="2.12914">
        <ele>163.8</ele>
        <time>2026-05-24T09:38:18Z</time>
      </trkpt>
      <trkpt lat="48.68665" lon="2.12905">
        <ele>163.8</ele>
        <time>2026-05-24T09:38:19Z</time>
      </trkpt>
      <trkpt lat="48.68662" lon="2.12896">
        <ele>163.8</ele>
        <time>2026-05-24T09:38:20Z</time>
      </trkpt>
      <trkpt lat="48.68659" lon="2.12887">
        <ele>163.2</ele>
        <time>2026-05-24T09:38:21Z</time>
      </trkpt>
      <trkpt lat="48.68656" lon="2.12877">
        <ele>163.2</ele>
        <time>2026-05-24T09:38:22Z</time>
      </trkpt>
      <trkpt lat="48.68653" lon="2.12867">
        <ele>163.2</ele>
        <time>2026-05-24T09:38:23Z</time>
      </trkpt>
      <trkpt lat="48.6865" lon="2.12857">
        <ele>163.2</ele>
        <time>2026-05-24T09:38:24Z</time>
      </trkpt>
      <trkpt lat="48.68647" lon="2.12847">
        <ele>163</ele>
        <time>2026-05-24T09:38:25Z</time>
      </trkpt>
      <trkpt lat="48.68643" lon="2.12837">
        <ele>163</ele>
        <time>2026-05-24T09:38:26Z</time>
      </trkpt>
      <trkpt lat="48.6864" lon="2.12828">
        <ele>163</ele>
        <time>2026-05-24T09:38:27Z</time>
      </trkpt>
      <trkpt lat="48.68638" lon="2.12817">
        <ele>162.8</ele>
        <time>2026-05-24T09:38:28Z</time>
      </trkpt>
      <trkpt lat="48.68638" lon="2.12808">
        <ele>163</ele>
        <time>2026-05-24T09:38:29Z</time>
      </trkpt>
      <trkpt lat="48.68638" lon="2.12802">
        <ele>163</ele>
        <time>2026-05-24T09:38:30Z</time>
      </trkpt>
      <trkpt lat="48.68634" lon="2.12799">
        <ele>163</ele>
        <time>2026-05-24T09:38:31Z</time>
      </trkpt>
      <trkpt lat="48.68628" lon="2.12799">
        <ele>162</ele>
        <time>2026-05-24T09:38:32Z</time>
      </trkpt>
      <trkpt lat="48.68621" lon="2.12798">
        <ele>160.8</ele>
        <time>2026-05-24T09:38:33Z</time>
      </trkpt>
      <trkpt lat="48.68614" lon="2.12796">
        <ele>160.8</ele>
        <time>2026-05-24T09:38:34Z</time>
      </trkpt>
      <trkpt lat="48.68606" lon="2.12793">
        <ele>160.8</ele>
        <time>2026-05-24T09:38:35Z</time>
      </trkpt>
      <trkpt lat="48.68598" lon="2.12791">
        <ele>159.8</ele>
        <time>2026-05-24T09:38:36Z</time>
      </trkpt>
      <trkpt lat="48.68589" lon="2.12789">
        <ele>158.6</ele>
        <time>2026-05-24T09:38:37Z</time>
      </trkpt>
      <trkpt lat="48.6858" lon="2.12788">
        <ele>158.6</ele>
        <time>2026-05-24T09:38:38Z</time>
      </trkpt>
      <trkpt lat="48.68572" lon="2.12785">
        <ele>158.6</ele>
        <time>2026-05-24T09:38:39Z</time>
      </trkpt>
      <trkpt lat="48.68563" lon="2.12783">
        <ele>158.6</ele>
        <time>2026-05-24T09:38:40Z</time>
      </trkpt>
      <trkpt lat="48.68555" lon="2.12779">
        <ele>159</ele>
        <time>2026-05-24T09:38:41Z</time>
      </trkpt>
      <trkpt lat="48.68548" lon="2.12775">
        <ele>159</ele>
        <time>2026-05-24T09:38:42Z</time>
      </trkpt>
      <trkpt lat="48.68541" lon="2.12772">
        <ele>159</ele>
        <time>2026-05-24T09:38:43Z</time>
      </trkpt>
      <trkpt lat="48.68534" lon="2.1277">
        <ele>159</ele>
        <time>2026-05-24T09:38:44Z</time>
      </trkpt>
      <trkpt lat="48.68528" lon="2.12768">
        <ele>161.2</ele>
        <time>2026-05-24T09:38:45Z</time>
      </trkpt>
      <trkpt lat="48.68522" lon="2.12766">
        <ele>161.2</ele>
        <time>2026-05-24T09:38:46Z</time>
      </trkpt>
      <trkpt lat="48.68517" lon="2.12764">
        <ele>161.2</ele>
        <time>2026-05-24T09:38:47Z</time>
      </trkpt>
      <trkpt lat="48.68512" lon="2.12762">
        <ele>161.2</ele>
        <time>2026-05-24T09:38:48Z</time>
      </trkpt>
      <trkpt lat="48.68508" lon="2.1276">
        <ele>161.6</ele>
        <time>2026-05-24T09:38:49Z</time>
      </trkpt>
      <trkpt lat="48.68504" lon="2.12759">
        <ele>161.6</ele>
        <time>2026-05-24T09:38:50Z</time>
      </trkpt>
      <trkpt lat="48.685" lon="2.12758">
        <ele>161.6</ele>
        <time>2026-05-24T09:38:51Z</time>
      </trkpt>
      <trkpt lat="48.68496" lon="2.12756">
        <ele>161.6</ele>
        <time>2026-05-24T09:38:52Z</time>
      </trkpt>
      <trkpt lat="48.68492" lon="2.12755">
        <ele>162.4</ele>
        <time>2026-05-24T09:38:53Z</time>
      </trkpt>
      <trkpt lat="48.68488" lon="2.12754">
        <ele>162.4</ele>
        <time>2026-05-24T09:38:54Z</time>
      </trkpt>
      <trkpt lat="48.68483" lon="2.12753">
        <ele>162.4</ele>
        <time>2026-05-24T09:38:55Z</time>
      </trkpt>
      <trkpt lat="48.68479" lon="2.12752">
        <ele>163</ele>
        <time>2026-05-24T09:38:56Z</time>
      </trkpt>
      <trkpt lat="48.68475" lon="2.12751">
        <ele>164</ele>
        <time>2026-05-24T09:38:57Z</time>
      </trkpt>
      <trkpt lat="48.68471" lon="2.1275">
        <ele>164</ele>
        <time>2026-05-24T09:38:58Z</time>
      </trkpt>
      <trkpt lat="48.68467" lon="2.12749">
        <ele>164</ele>
        <time>2026-05-24T09:38:59Z</time>
      </trkpt>
      <trkpt lat="48.68463" lon="2.12748">
        <ele>163</ele>
        <time>2026-05-24T09:39:00Z</time>
      </trkpt>
      <trkpt lat="48.68459" lon="2.12747">
        <ele>162.8</ele>
        <time>2026-05-24T09:39:01Z</time>
      </trkpt>
      <trkpt lat="48.68455" lon="2.12747">
        <ele>162.8</ele>
        <time>2026-05-24T09:39:02Z</time>
      </trkpt>
      <trkpt lat="48.68451" lon="2.12746">
        <ele>162.8</ele>
        <time>2026-05-24T09:39:03Z</time>
      </trkpt>
      <trkpt lat="48.68447" lon="2.12745">
        <ele>163.8</ele>
        <time>2026-05-24T09:39:04Z</time>
      </trkpt>
      <trkpt lat="48.68443" lon="2.12744">
        <ele>164.6</ele>
        <time>2026-05-24T09:39:05Z</time>
      </trkpt>
      <trkpt lat="48.6844" lon="2.12743">
        <ele>164.6</ele>
        <time>2026-05-24T09:39:06Z</time>
      </trkpt>
      <trkpt lat="48.68436" lon="2.12742">
        <ele>164.6</ele>
        <time>2026-05-24T09:39:07Z</time>
      </trkpt>
      <trkpt lat="48.68432" lon="2.12741">
        <ele>164.2</ele>
        <time>2026-05-24T09:39:08Z</time>
      </trkpt>
      <trkpt lat="48.68428" lon="2.12739">
        <ele>164.6</ele>
        <time>2026-05-24T09:39:09Z</time>
      </trkpt>
      <trkpt lat="48.68424" lon="2.12738">
        <ele>164.6</ele>
        <time>2026-05-24T09:39:10Z</time>
      </trkpt>
      <trkpt lat="48.6842" lon="2.12737">
        <ele>164.6</ele>
        <time>2026-05-24T09:39:11Z</time>
      </trkpt>
      <trkpt lat="48.68416" lon="2.12736">
        <ele>165.4</ele>
        <time>2026-05-24T09:39:12Z</time>
      </trkpt>
      <trkpt lat="48.68412" lon="2.12735">
        <ele>165.2</ele>
        <time>2026-05-24T09:39:13Z</time>
      </trkpt>
      <trkpt lat="48.68408" lon="2.12734">
        <ele>165.2</ele>
        <time>2026-05-24T09:39:14Z</time>
      </trkpt>
      <trkpt lat="48.68404" lon="2.12733">
        <ele>165.2</ele>
        <time>2026-05-24T09:39:15Z</time>
      </trkpt>
      <trkpt lat="48.684" lon="2.12731">
        <ele>166.2</ele>
        <time>2026-05-24T09:39:16Z</time>
      </trkpt>
      <trkpt lat="48.68396" lon="2.1273">
        <ele>165.8</ele>
        <time>2026-05-24T09:39:17Z</time>
      </trkpt>
      <trkpt lat="48.68392" lon="2.12729">
        <ele>165.8</ele>
        <time>2026-05-24T09:39:18Z</time>
      </trkpt>
      <trkpt lat="48.68388" lon="2.12727">
        <ele>165.8</ele>
        <time>2026-05-24T09:39:19Z</time>
      </trkpt>
      <trkpt lat="48.68384" lon="2.12726">
        <ele>165.8</ele>
        <time>2026-05-24T09:39:20Z</time>
      </trkpt>
      <trkpt lat="48.6838" lon="2.12724">
        <ele>165.8</ele>
        <time>2026-05-24T09:39:21Z</time>
      </trkpt>
      <trkpt lat="48.68376" lon="2.12722">
        <ele>165.8</ele>
        <time>2026-05-24T09:39:22Z</time>
      </trkpt>
      <trkpt lat="48.68372" lon="2.12719">
        <ele>165.8</ele>
        <time>2026-05-24T09:39:23Z</time>
      </trkpt>
      <trkpt lat="48.68369" lon="2.12717">
        <ele>165.8</ele>
        <time>2026-05-24T09:39:24Z</time>
      </trkpt>
      <trkpt lat="48.68365" lon="2.12714">
        <ele>167.4</ele>
        <time>2026-05-24T09:39:25Z</time>
      </trkpt>
      <trkpt lat="48.68361" lon="2.12712">
        <ele>167.4</ele>
        <time>2026-05-24T09:39:26Z</time>
      </trkpt>
      <trkpt lat="48.68357" lon="2.12709">
        <ele>167.4</ele>
        <time>2026-05-24T09:39:27Z</time>
      </trkpt>
      <trkpt lat="48.68354" lon="2.12706">
        <ele>166.6</ele>
        <time>2026-05-24T09:39:28Z</time>
      </trkpt>
      <trkpt lat="48.6835" lon="2.12702">
        <ele>166.8</ele>
        <time>2026-05-24T09:39:29Z</time>
      </trkpt>
      <trkpt lat="48.68347" lon="2.12699">
        <ele>166.8</ele>
        <time>2026-05-24T09:39:30Z</time>
      </trkpt>
      <trkpt lat="48.68343" lon="2.12695">
        <ele>166.8</ele>
        <time>2026-05-24T09:39:31Z</time>
      </trkpt>
      <trkpt lat="48.6834" lon="2.12691">
        <ele>167</ele>
        <time>2026-05-24T09:39:32Z</time>
      </trkpt>
      <trkpt lat="48.68336" lon="2.12688">
        <ele>167.2</ele>
        <time>2026-05-24T09:39:33Z</time>
      </trkpt>
      <trkpt lat="48.68333" lon="2.12683">
        <ele>167.2</ele>
        <time>2026-05-24T09:39:34Z</time>
      </trkpt>
      <trkpt lat="48.6833" lon="2.12679">
        <ele>167.2</ele>
        <time>2026-05-24T09:39:35Z</time>
      </trkpt>
      <trkpt lat="48.68328" lon="2.12674">
        <ele>167.2</ele>
        <time>2026-05-24T09:39:36Z</time>
      </trkpt>
      <trkpt lat="48.68325" lon="2.12669">
        <ele>167.2</ele>
        <time>2026-05-24T09:39:37Z</time>
      </trkpt>
      <trkpt lat="48.68322" lon="2.12664">
        <ele>167.2</ele>
        <time>2026-05-24T09:39:38Z</time>
      </trkpt>
      <trkpt lat="48.68319" lon="2.1266">
        <ele>167.2</ele>
        <time>2026-05-24T09:39:39Z</time>
      </trkpt>
      <trkpt lat="48.68315" lon="2.12656">
        <ele>167.4</ele>
        <time>2026-05-24T09:39:40Z</time>
      </trkpt>
      <trkpt lat="48.68311" lon="2.12653">
        <ele>167.2</ele>
        <time>2026-05-24T09:39:41Z</time>
      </trkpt>
      <trkpt lat="48.68307" lon="2.1265">
        <ele>167.2</ele>
        <time>2026-05-24T09:39:42Z</time>
      </trkpt>
      <trkpt lat="48.68304" lon="2.12646">
        <ele>167.2</ele>
        <time>2026-05-24T09:39:43Z</time>
      </trkpt>
      <trkpt lat="48.683" lon="2.12642">
        <ele>168.2</ele>
        <time>2026-05-24T09:39:44Z</time>
      </trkpt>
      <trkpt lat="48.68297" lon="2.12637">
        <ele>169.2</ele>
        <time>2026-05-24T09:39:45Z</time>
      </trkpt>
      <trkpt lat="48.68294" lon="2.12632">
        <ele>169.2</ele>
        <time>2026-05-24T09:39:46Z</time>
      </trkpt>
      <trkpt lat="48.6829" lon="2.12628">
        <ele>169.2</ele>
        <time>2026-05-24T09:39:47Z</time>
      </trkpt>
      <trkpt lat="48.68286" lon="2.12626">
        <ele>168.4</ele>
        <time>2026-05-24T09:39:48Z</time>
      </trkpt>
      <trkpt lat="48.68282" lon="2.12624">
        <ele>168.2</ele>
        <time>2026-05-24T09:39:49Z</time>
      </trkpt>
      <trkpt lat="48.68278" lon="2.12623">
        <ele>168.2</ele>
        <time>2026-05-24T09:39:50Z</time>
      </trkpt>
      <trkpt lat="48.68274" lon="2.12622">
        <ele>168.2</ele>
        <time>2026-05-24T09:39:51Z</time>
      </trkpt>
      <trkpt lat="48.68269" lon="2.12621">
        <ele>168.2</ele>
        <time>2026-05-24T09:39:52Z</time>
      </trkpt>
      <trkpt lat="48.68265" lon="2.12619">
        <ele>168.8</ele>
        <time>2026-05-24T09:39:53Z</time>
      </trkpt>
      <trkpt lat="48.68261" lon="2.12616">
        <ele>168.8</ele>
        <time>2026-05-24T09:39:54Z</time>
      </trkpt>
      <trkpt lat="48.68256" lon="2.12614">
        <ele>168.8</ele>
        <time>2026-05-24T09:39:55Z</time>
      </trkpt>
      <trkpt lat="48.68252" lon="2.12612">
        <ele>169.2</ele>
        <time>2026-05-24T09:39:56Z</time>
      </trkpt>
      <trkpt lat="48.68248" lon="2.1261">
        <ele>170.4</ele>
        <time>2026-05-24T09:39:57Z</time>
      </trkpt>
      <trkpt lat="48.68244" lon="2.12608">
        <ele>170.4</ele>
        <time>2026-05-24T09:39:58Z</time>
      </trkpt>
      <trkpt lat="48.6824" lon="2.12606">
        <ele>170.4</ele>
        <time>2026-05-24T09:39:59Z</time>
      </trkpt>
      <trkpt lat="48.68235" lon="2.12604">
        <ele>170.4</ele>
        <time>2026-05-24T09:40:00Z</time>
      </trkpt>
      <trkpt lat="48.68231" lon="2.12602">
        <ele>169.6</ele>
        <time>2026-05-24T09:40:01Z</time>
      </trkpt>
      <trkpt lat="48.68226" lon="2.126">
        <ele>169.6</ele>
        <time>2026-05-24T09:40:02Z</time>
      </trkpt>
      <trkpt lat="48.68222" lon="2.12598">
        <ele>169.6</ele>
        <time>2026-05-24T09:40:03Z</time>
      </trkpt>
      <trkpt lat="48.68218" lon="2.12596">
        <ele>169.6</ele>
        <time>2026-05-24T09:40:04Z</time>
      </trkpt>
      <trkpt lat="48.68213" lon="2.12594">
        <ele>171.4</ele>
        <time>2026-05-24T09:40:05Z</time>
      </trkpt>
      <trkpt lat="48.68209" lon="2.12592">
        <ele>171.4</ele>
        <time>2026-05-24T09:40:06Z</time>
      </trkpt>
      <trkpt lat="48.68204" lon="2.1259">
        <ele>171.4</ele>
        <time>2026-05-24T09:40:07Z</time>
      </trkpt>
      <trkpt lat="48.682" lon="2.12588">
        <ele>170.4</ele>
        <time>2026-05-24T09:40:08Z</time>
      </trkpt>
      <trkpt lat="48.68196" lon="2.12585">
        <ele>170</ele>
        <time>2026-05-24T09:40:09Z</time>
      </trkpt>
      <trkpt lat="48.68191" lon="2.12583">
        <ele>170</ele>
        <time>2026-05-24T09:40:10Z</time>
      </trkpt>
      <trkpt lat="48.68187" lon="2.12581">
        <ele>170</ele>
        <time>2026-05-24T09:40:11Z</time>
      </trkpt>
      <trkpt lat="48.68182" lon="2.12578">
        <ele>170</ele>
        <time>2026-05-24T09:40:12Z</time>
      </trkpt>
      <trkpt lat="48.68178" lon="2.12576">
        <ele>170.4</ele>
        <time>2026-05-24T09:40:13Z</time>
      </trkpt>
      <trkpt lat="48.68173" lon="2.12574">
        <ele>170.4</ele>
        <time>2026-05-24T09:40:14Z</time>
      </trkpt>
      <trkpt lat="48.68169" lon="2.12572">
        <ele>170.4</ele>
        <time>2026-05-24T09:40:15Z</time>
      </trkpt>
      <trkpt lat="48.68164" lon="2.12569">
        <ele>170.4</ele>
        <time>2026-05-24T09:40:16Z</time>
      </trkpt>
      <trkpt lat="48.68159" lon="2.12567">
        <ele>170.2</ele>
        <time>2026-05-24T09:40:17Z</time>
      </trkpt>
      <trkpt lat="48.68154" lon="2.12564">
        <ele>170.2</ele>
        <time>2026-05-24T09:40:18Z</time>
      </trkpt>
      <trkpt lat="48.68149" lon="2.12562">
        <ele>170.2</ele>
        <time>2026-05-24T09:40:19Z</time>
      </trkpt>
      <trkpt lat="48.68144" lon="2.1256">
        <ele>170.2</ele>
        <time>2026-05-24T09:40:20Z</time>
      </trkpt>
      <trkpt lat="48.68139" lon="2.12558">
        <ele>170.6</ele>
        <time>2026-05-24T09:40:21Z</time>
      </trkpt>
      <trkpt lat="48.68134" lon="2.12555">
        <ele>170.6</ele>
        <time>2026-05-24T09:40:22Z</time>
      </trkpt>
      <trkpt lat="48.68129" lon="2.12553">
        <ele>170.6</ele>
        <time>2026-05-24T09:40:23Z</time>
      </trkpt>
      <trkpt lat="48.68124" lon="2.1255">
        <ele>170.6</ele>
        <time>2026-05-24T09:40:24Z</time>
      </trkpt>
      <trkpt lat="48.68118" lon="2.12548">
        <ele>170.8</ele>
        <time>2026-05-24T09:40:25Z</time>
      </trkpt>
      <trkpt lat="48.68113" lon="2.12546">
        <ele>170.8</ele>
        <time>2026-05-24T09:40:26Z</time>
      </trkpt>
      <trkpt lat="48.68108" lon="2.12543">
        <ele>170.8</ele>
        <time>2026-05-24T09:40:27Z</time>
      </trkpt>
      <trkpt lat="48.68103" lon="2.12541">
        <ele>170.8</ele>
        <time>2026-05-24T09:40:28Z</time>
      </trkpt>
      <trkpt lat="48.68098" lon="2.12538">
        <ele>171.6</ele>
        <time>2026-05-24T09:40:29Z</time>
      </trkpt>
      <trkpt lat="48.68093" lon="2.12535">
        <ele>171.6</ele>
        <time>2026-05-24T09:40:30Z</time>
      </trkpt>
      <trkpt lat="48.68087" lon="2.12533">
        <ele>171.6</ele>
        <time>2026-05-24T09:40:31Z</time>
      </trkpt>
      <trkpt lat="48.68082" lon="2.1253">
        <ele>171</ele>
        <time>2026-05-24T09:40:32Z</time>
      </trkpt>
      <trkpt lat="48.68077" lon="2.12528">
        <ele>170</ele>
        <time>2026-05-24T09:40:33Z</time>
      </trkpt>
      <trkpt lat="48.68072" lon="2.12525">
        <ele>170</ele>
        <time>2026-05-24T09:40:34Z</time>
      </trkpt>
      <trkpt lat="48.68067" lon="2.12523">
        <ele>170</ele>
        <time>2026-05-24T09:40:35Z</time>
      </trkpt>
      <trkpt lat="48.68062" lon="2.12521">
        <ele>170.8</ele>
        <time>2026-05-24T09:40:36Z</time>
      </trkpt>
      <trkpt lat="48.68057" lon="2.12518">
        <ele>171.6</ele>
        <time>2026-05-24T09:40:37Z</time>
      </trkpt>
      <trkpt lat="48.68052" lon="2.12516">
        <ele>171.6</ele>
        <time>2026-05-24T09:40:38Z</time>
      </trkpt>
      <trkpt lat="48.68047" lon="2.12513">
        <ele>171.6</ele>
        <time>2026-05-24T09:40:39Z</time>
      </trkpt>
      <trkpt lat="48.68042" lon="2.12511">
        <ele>171.6</ele>
        <time>2026-05-24T09:40:40Z</time>
      </trkpt>
      <trkpt lat="48.68036" lon="2.12509">
        <ele>171.6</ele>
        <time>2026-05-24T09:40:41Z</time>
      </trkpt>
      <trkpt lat="48.68031" lon="2.12506">
        <ele>171.6</ele>
        <time>2026-05-24T09:40:42Z</time>
      </trkpt>
      <trkpt lat="48.68026" lon="2.12504">
        <ele>171.6</ele>
        <time>2026-05-24T09:40:43Z</time>
      </trkpt>
      <trkpt lat="48.68021" lon="2.12501">
        <ele>171.6</ele>
        <time>2026-05-24T09:40:44Z</time>
      </trkpt>
      <trkpt lat="48.68016" lon="2.12499">
        <ele>172</ele>
        <time>2026-05-24T09:40:45Z</time>
      </trkpt>
      <trkpt lat="48.68011" lon="2.12496">
        <ele>172</ele>
        <time>2026-05-24T09:40:46Z</time>
      </trkpt>
      <trkpt lat="48.68006" lon="2.12494">
        <ele>172</ele>
        <time>2026-05-24T09:40:47Z</time>
      </trkpt>
      <trkpt lat="48.68" lon="2.12491">
        <ele>172</ele>
        <time>2026-05-24T09:40:48Z</time>
      </trkpt>
      <trkpt lat="48.67995" lon="2.12489">
        <ele>172</ele>
        <time>2026-05-24T09:40:49Z</time>
      </trkpt>
      <trkpt lat="48.6799" lon="2.12486">
        <ele>172</ele>
        <time>2026-05-24T09:40:50Z</time>
      </trkpt>
      <trkpt lat="48.67985" lon="2.12483">
        <ele>172</ele>
        <time>2026-05-24T09:40:51Z</time>
      </trkpt>
      <trkpt lat="48.6798" lon="2.1248">
        <ele>171.6</ele>
        <time>2026-05-24T09:40:52Z</time>
      </trkpt>
      <trkpt lat="48.67975" lon="2.12477">
        <ele>171</ele>
        <time>2026-05-24T09:40:53Z</time>
      </trkpt>
      <trkpt lat="48.67969" lon="2.12476">
        <ele>171</ele>
        <time>2026-05-24T09:40:54Z</time>
      </trkpt>
      <trkpt lat="48.67964" lon="2.12478">
        <ele>171</ele>
        <time>2026-05-24T09:40:55Z</time>
      </trkpt>
      <trkpt lat="48.6796" lon="2.12483">
        <ele>171</ele>
        <time>2026-05-24T09:40:56Z</time>
      </trkpt>
      <trkpt lat="48.67956" lon="2.1249">
        <ele>171.8</ele>
        <time>2026-05-24T09:40:57Z</time>
      </trkpt>
      <trkpt lat="48.67953" lon="2.12497">
        <ele>171.8</ele>
        <time>2026-05-24T09:40:58Z</time>
      </trkpt>
      <trkpt lat="48.67949" lon="2.12503">
        <ele>171.8</ele>
        <time>2026-05-24T09:40:59Z</time>
      </trkpt>
      <trkpt lat="48.67944" lon="2.12506">
        <ele>171.8</ele>
        <time>2026-05-24T09:41:00Z</time>
      </trkpt>
      <trkpt lat="48.67938" lon="2.12507">
        <ele>171.6</ele>
        <time>2026-05-24T09:41:01Z</time>
      </trkpt>
      <trkpt lat="48.67932" lon="2.12506">
        <ele>171.6</ele>
        <time>2026-05-24T09:41:02Z</time>
      </trkpt>
      <trkpt lat="48.67926" lon="2.12505">
        <ele>171.6</ele>
        <time>2026-05-24T09:41:03Z</time>
      </trkpt>
      <trkpt lat="48.6792" lon="2.12505">
        <ele>171.2</ele>
        <time>2026-05-24T09:41:04Z</time>
      </trkpt>
      <trkpt lat="48.67914" lon="2.12505">
        <ele>171</ele>
        <time>2026-05-24T09:41:05Z</time>
      </trkpt>
      <trkpt lat="48.67907" lon="2.12505">
        <ele>171</ele>
        <time>2026-05-24T09:41:06Z</time>
      </trkpt>
      <trkpt lat="48.67901" lon="2.12504">
        <ele>171</ele>
        <time>2026-05-24T09:41:07Z</time>
      </trkpt>
      <trkpt lat="48.67895" lon="2.12503">
        <ele>172</ele>
        <time>2026-05-24T09:41:08Z</time>
      </trkpt>
      <trkpt lat="48.67888" lon="2.12502">
        <ele>171.8</ele>
        <time>2026-05-24T09:41:09Z</time>
      </trkpt>
      <trkpt lat="48.67882" lon="2.12502">
        <ele>171.8</ele>
        <time>2026-05-24T09:41:10Z</time>
      </trkpt>
      <trkpt lat="48.67875" lon="2.12501">
        <ele>171.8</ele>
        <time>2026-05-24T09:41:11Z</time>
      </trkpt>
      <trkpt lat="48.67869" lon="2.125">
        <ele>171.2</ele>
        <time>2026-05-24T09:41:12Z</time>
      </trkpt>
      <trkpt lat="48.67862" lon="2.12499">
        <ele>171</ele>
        <time>2026-05-24T09:41:13Z</time>
      </trkpt>
      <trkpt lat="48.67855" lon="2.12498">
        <ele>171</ele>
        <time>2026-05-24T09:41:14Z</time>
      </trkpt>
      <trkpt lat="48.67849" lon="2.12496">
        <ele>171</ele>
        <time>2026-05-24T09:41:15Z</time>
      </trkpt>
      <trkpt lat="48.67842" lon="2.12495">
        <ele>171</ele>
        <time>2026-05-24T09:41:16Z</time>
      </trkpt>
      <trkpt lat="48.67835" lon="2.12493">
        <ele>170.6</ele>
        <time>2026-05-24T09:41:17Z</time>
      </trkpt>
      <trkpt lat="48.67828" lon="2.12492">
        <ele>170.6</ele>
        <time>2026-05-24T09:41:18Z</time>
      </trkpt>
      <trkpt lat="48.67822" lon="2.1249">
        <ele>170.6</ele>
        <time>2026-05-24T09:41:19Z</time>
      </trkpt>
      <trkpt lat="48.67815" lon="2.12489">
        <ele>170.6</ele>
        <time>2026-05-24T09:41:20Z</time>
      </trkpt>
      <trkpt lat="48.67809" lon="2.12488">
        <ele>171.2</ele>
        <time>2026-05-24T09:41:21Z</time>
      </trkpt>
      <trkpt lat="48.67802" lon="2.12486">
        <ele>171.2</ele>
        <time>2026-05-24T09:41:22Z</time>
      </trkpt>
      <trkpt lat="48.67796" lon="2.12485">
        <ele>171.2</ele>
        <time>2026-05-24T09:41:23Z</time>
      </trkpt>
      <trkpt lat="48.67789" lon="2.12484">
        <ele>171.2</ele>
        <time>2026-05-24T09:41:24Z</time>
      </trkpt>
      <trkpt lat="48.67783" lon="2.12483">
        <ele>170.8</ele>
        <time>2026-05-24T09:41:25Z</time>
      </trkpt>
      <trkpt lat="48.67776" lon="2.12482">
        <ele>170.8</ele>
        <time>2026-05-24T09:41:26Z</time>
      </trkpt>
      <trkpt lat="48.6777" lon="2.12482">
        <ele>170.8</ele>
        <time>2026-05-24T09:41:27Z</time>
      </trkpt>
      <trkpt lat="48.67763" lon="2.12481">
        <ele>171.8</ele>
        <time>2026-05-24T09:41:28Z</time>
      </trkpt>
      <trkpt lat="48.67757" lon="2.12481">
        <ele>171.8</ele>
        <time>2026-05-24T09:41:29Z</time>
      </trkpt>
      <trkpt lat="48.67751" lon="2.12481">
        <ele>171.8</ele>
        <time>2026-05-24T09:41:30Z</time>
      </trkpt>
      <trkpt lat="48.67744" lon="2.12481">
        <ele>171.8</ele>
        <time>2026-05-24T09:41:31Z</time>
      </trkpt>
      <trkpt lat="48.67738" lon="2.12481">
        <ele>171.8</ele>
        <time>2026-05-24T09:41:32Z</time>
      </trkpt>
      <trkpt lat="48.67731" lon="2.12481">
        <ele>171</ele>
        <time>2026-05-24T09:41:33Z</time>
      </trkpt>
      <trkpt lat="48.67725" lon="2.12481">
        <ele>171</ele>
        <time>2026-05-24T09:41:34Z</time>
      </trkpt>
      <trkpt lat="48.67719" lon="2.12481">
        <ele>171</ele>
        <time>2026-05-24T09:41:35Z</time>
      </trkpt>
      <trkpt lat="48.67712" lon="2.12481">
        <ele>171.6</ele>
        <time>2026-05-24T09:41:36Z</time>
      </trkpt>
      <trkpt lat="48.67706" lon="2.12481">
        <ele>171.6</ele>
        <time>2026-05-24T09:41:37Z</time>
      </trkpt>
      <trkpt lat="48.677" lon="2.12481">
        <ele>171.6</ele>
        <time>2026-05-24T09:41:38Z</time>
      </trkpt>
      <trkpt lat="48.67693" lon="2.12482">
        <ele>171.6</ele>
        <time>2026-05-24T09:41:39Z</time>
      </trkpt>
      <trkpt lat="48.67687" lon="2.12482">
        <ele>172.2</ele>
        <time>2026-05-24T09:41:40Z</time>
      </trkpt>
      <trkpt lat="48.67681" lon="2.12483">
        <ele>172.2</ele>
        <time>2026-05-24T09:41:41Z</time>
      </trkpt>
      <trkpt lat="48.67675" lon="2.12483">
        <ele>172.2</ele>
        <time>2026-05-24T09:41:42Z</time>
      </trkpt>
      <trkpt lat="48.67669" lon="2.12484">
        <ele>172.2</ele>
        <time>2026-05-24T09:41:43Z</time>
      </trkpt>
      <trkpt lat="48.67663" lon="2.12485">
        <ele>172.2</ele>
        <time>2026-05-24T09:41:44Z</time>
      </trkpt>
      <trkpt lat="48.67657" lon="2.12486">
        <ele>172.8</ele>
        <time>2026-05-24T09:41:45Z</time>
      </trkpt>
      <trkpt lat="48.67651" lon="2.12487">
        <ele>172.8</ele>
        <time>2026-05-24T09:41:46Z</time>
      </trkpt>
      <trkpt lat="48.67645" lon="2.12487">
        <ele>172.8</ele>
        <time>2026-05-24T09:41:47Z</time>
      </trkpt>
      <trkpt lat="48.67639" lon="2.12488">
        <ele>172.8</ele>
        <time>2026-05-24T09:41:48Z</time>
      </trkpt>
      <trkpt lat="48.67633" lon="2.12489">
        <ele>173.2</ele>
        <time>2026-05-24T09:41:49Z</time>
      </trkpt>
      <trkpt lat="48.67628" lon="2.1249">
        <ele>173.2</ele>
        <time>2026-05-24T09:41:50Z</time>
      </trkpt>
      <trkpt lat="48.67622" lon="2.1249">
        <ele>173.2</ele>
        <time>2026-05-24T09:41:51Z</time>
      </trkpt>
      <trkpt lat="48.67616" lon="2.12491">
        <ele>173.4</ele>
        <time>2026-05-24T09:41:52Z</time>
      </trkpt>
      <trkpt lat="48.6761" lon="2.12492">
        <ele>174</ele>
        <time>2026-05-24T09:41:53Z</time>
      </trkpt>
      <trkpt lat="48.67604" lon="2.12493">
        <ele>174</ele>
        <time>2026-05-24T09:41:54Z</time>
      </trkpt>
      <trkpt lat="48.67598" lon="2.12493">
        <ele>174</ele>
        <time>2026-05-24T09:41:55Z</time>
      </trkpt>
      <trkpt lat="48.67593" lon="2.12494">
        <ele>174</ele>
        <time>2026-05-24T09:41:56Z</time>
      </trkpt>
      <trkpt lat="48.67587" lon="2.12495">
        <ele>173.8</ele>
        <time>2026-05-24T09:41:57Z</time>
      </trkpt>
      <trkpt lat="48.67582" lon="2.12496">
        <ele>173.8</ele>
        <time>2026-05-24T09:41:58Z</time>
      </trkpt>
      <trkpt lat="48.67576" lon="2.12496">
        <ele>173.8</ele>
        <time>2026-05-24T09:41:59Z</time>
      </trkpt>
      <trkpt lat="48.67571" lon="2.12497">
        <ele>173.8</ele>
        <time>2026-05-24T09:42:00Z</time>
      </trkpt>
      <trkpt lat="48.67566" lon="2.12497">
        <ele>174.4</ele>
        <time>2026-05-24T09:42:01Z</time>
      </trkpt>
      <trkpt lat="48.6756" lon="2.12498">
        <ele>174.4</ele>
        <time>2026-05-24T09:42:02Z</time>
      </trkpt>
      <trkpt lat="48.67555" lon="2.12499">
        <ele>174.4</ele>
        <time>2026-05-24T09:42:03Z</time>
      </trkpt>
      <trkpt lat="48.6755" lon="2.12499">
        <ele>174.4</ele>
        <time>2026-05-24T09:42:04Z</time>
      </trkpt>
      <trkpt lat="48.67544" lon="2.125">
        <ele>175</ele>
        <time>2026-05-24T09:42:05Z</time>
      </trkpt>
      <trkpt lat="48.67539" lon="2.12501">
        <ele>175</ele>
        <time>2026-05-24T09:42:06Z</time>
      </trkpt>
      <trkpt lat="48.67534" lon="2.12501">
        <ele>175</ele>
        <time>2026-05-24T09:42:07Z</time>
      </trkpt>
      <trkpt lat="48.67528" lon="2.12502">
        <ele>174</ele>
        <time>2026-05-24T09:42:08Z</time>
      </trkpt>
      <trkpt lat="48.67523" lon="2.12502">
        <ele>174</ele>
        <time>2026-05-24T09:42:09Z</time>
      </trkpt>
      <trkpt lat="48.67517" lon="2.12502">
        <ele>174</ele>
        <time>2026-05-24T09:42:10Z</time>
      </trkpt>
      <trkpt lat="48.67512" lon="2.12503">
        <ele>174</ele>
        <time>2026-05-24T09:42:11Z</time>
      </trkpt>
      <trkpt lat="48.67506" lon="2.12503">
        <ele>175</ele>
        <time>2026-05-24T09:42:12Z</time>
      </trkpt>
      <trkpt lat="48.675" lon="2.12503">
        <ele>175.2</ele>
        <time>2026-05-24T09:42:13Z</time>
      </trkpt>
      <trkpt lat="48.67495" lon="2.12503">
        <ele>175.2</ele>
        <time>2026-05-24T09:42:14Z</time>
      </trkpt>
      <trkpt lat="48.67489" lon="2.12504">
        <ele>175.2</ele>
        <time>2026-05-24T09:42:15Z</time>
      </trkpt>
      <trkpt lat="48.67484" lon="2.12504">
        <ele>175.2</ele>
        <time>2026-05-24T09:42:16Z</time>
      </trkpt>
      <trkpt lat="48.67479" lon="2.12504">
        <ele>175.2</ele>
        <time>2026-05-24T09:42:17Z</time>
      </trkpt>
      <trkpt lat="48.67473" lon="2.12504">
        <ele>175.2</ele>
        <time>2026-05-24T09:42:18Z</time>
      </trkpt>
      <trkpt lat="48.67468" lon="2.12505">
        <ele>175.2</ele>
        <time>2026-05-24T09:42:19Z</time>
      </trkpt>
      <trkpt lat="48.67463" lon="2.12505">
        <ele>175.8</ele>
        <time>2026-05-24T09:42:20Z</time>
      </trkpt>
      <trkpt lat="48.67457" lon="2.12505">
        <ele>175.2</ele>
        <time>2026-05-24T09:42:21Z</time>
      </trkpt>
      <trkpt lat="48.67452" lon="2.12506">
        <ele>175.2</ele>
        <time>2026-05-24T09:42:22Z</time>
      </trkpt>
      <trkpt lat="48.67447" lon="2.12507">
        <ele>175.2</ele>
        <time>2026-05-24T09:42:23Z</time>
      </trkpt>
      <trkpt lat="48.67442" lon="2.12508">
        <ele>175.8</ele>
        <time>2026-05-24T09:42:24Z</time>
      </trkpt>
      <trkpt lat="48.67437" lon="2.12512">
        <ele>176</ele>
        <time>2026-05-24T09:42:25Z</time>
      </trkpt>
      <trkpt lat="48.67433" lon="2.12517">
        <ele>176</ele>
        <time>2026-05-24T09:42:26Z</time>
      </trkpt>
      <trkpt lat="48.67431" lon="2.12524">
        <ele>176</ele>
        <time>2026-05-24T09:42:27Z</time>
      </trkpt>
      <trkpt lat="48.67429" lon="2.12531">
        <ele>175.4</ele>
        <time>2026-05-24T09:42:28Z</time>
      </trkpt>
      <trkpt lat="48.67427" lon="2.12538">
        <ele>176</ele>
        <time>2026-05-24T09:42:29Z</time>
      </trkpt>
      <trkpt lat="48.67426" lon="2.12546">
        <ele>176</ele>
        <time>2026-05-24T09:42:30Z</time>
      </trkpt>
      <trkpt lat="48.67424" lon="2.12553">
        <ele>176</ele>
        <time>2026-05-24T09:42:31Z</time>
      </trkpt>
      <trkpt lat="48.67422" lon="2.12561">
        <ele>176</ele>
        <time>2026-05-24T09:42:32Z</time>
      </trkpt>
      <trkpt lat="48.67421" lon="2.12569">
        <ele>175.4</ele>
        <time>2026-05-24T09:42:33Z</time>
      </trkpt>
      <trkpt lat="48.6742" lon="2.12577">
        <ele>175.4</ele>
        <time>2026-05-24T09:42:34Z</time>
      </trkpt>
      <trkpt lat="48.67418" lon="2.12585">
        <ele>175.4</ele>
        <time>2026-05-24T09:42:35Z</time>
      </trkpt>
      <trkpt lat="48.67417" lon="2.12593">
        <ele>175.4</ele>
        <time>2026-05-24T09:42:36Z</time>
      </trkpt>
      <trkpt lat="48.67416" lon="2.12601">
        <ele>176</ele>
        <time>2026-05-24T09:42:37Z</time>
      </trkpt>
      <trkpt lat="48.67415" lon="2.12609">
        <ele>176</ele>
        <time>2026-05-24T09:42:38Z</time>
      </trkpt>
      <trkpt lat="48.67414" lon="2.12617">
        <ele>176</ele>
        <time>2026-05-24T09:42:39Z</time>
      </trkpt>
      <trkpt lat="48.67412" lon="2.12625">
        <ele>176</ele>
        <time>2026-05-24T09:42:40Z</time>
      </trkpt>
      <trkpt lat="48.6741" lon="2.12632">
        <ele>176</ele>
        <time>2026-05-24T09:42:41Z</time>
      </trkpt>
      <trkpt lat="48.67408" lon="2.1264">
        <ele>176</ele>
        <time>2026-05-24T09:42:42Z</time>
      </trkpt>
      <trkpt lat="48.67407" lon="2.12648">
        <ele>176</ele>
        <time>2026-05-24T09:42:43Z</time>
      </trkpt>
      <trkpt lat="48.67405" lon="2.12656">
        <ele>176</ele>
        <time>2026-05-24T09:42:44Z</time>
      </trkpt>
      <trkpt lat="48.67404" lon="2.12663">
        <ele>176.2</ele>
        <time>2026-05-24T09:42:45Z</time>
      </trkpt>
      <trkpt lat="48.67402" lon="2.12671">
        <ele>176.2</ele>
        <time>2026-05-24T09:42:46Z</time>
      </trkpt>
      <trkpt lat="48.674" lon="2.12679">
        <ele>176.2</ele>
        <time>2026-05-24T09:42:47Z</time>
      </trkpt>
      <trkpt lat="48.67399" lon="2.12686">
        <ele>176.2</ele>
        <time>2026-05-24T09:42:48Z</time>
      </trkpt>
      <trkpt lat="48.67397" lon="2.12694">
        <ele>175.8</ele>
        <time>2026-05-24T09:42:49Z</time>
      </trkpt>
      <trkpt lat="48.67395" lon="2.12701">
        <ele>175.8</ele>
        <time>2026-05-24T09:42:50Z</time>
      </trkpt>
      <trkpt lat="48.67392" lon="2.12707">
        <ele>175.8</ele>
        <time>2026-05-24T09:42:51Z</time>
      </trkpt>
      <trkpt lat="48.67387" lon="2.12709">
        <ele>175.8</ele>
        <time>2026-05-24T09:42:52Z</time>
      </trkpt>
      <trkpt lat="48.67383" lon="2.12706">
        <ele>176</ele>
        <time>2026-05-24T09:42:53Z</time>
      </trkpt>
      <trkpt lat="48.67378" lon="2.12702">
        <ele>176</ele>
        <time>2026-05-24T09:42:54Z</time>
      </trkpt>
      <trkpt lat="48.67374" lon="2.12699">
        <ele>176</ele>
        <time>2026-05-24T09:42:55Z</time>
      </trkpt>
      <trkpt lat="48.67368" lon="2.12695">
        <ele>176</ele>
        <time>2026-05-24T09:42:56Z</time>
      </trkpt>
      <trkpt lat="48.67363" lon="2.12692">
        <ele>176</ele>
        <time>2026-05-24T09:42:57Z</time>
      </trkpt>
      <trkpt lat="48.67358" lon="2.12689">
        <ele>176</ele>
        <time>2026-05-24T09:42:58Z</time>
      </trkpt>
      <trkpt lat="48.67352" lon="2.12686">
        <ele>176</ele>
        <time>2026-05-24T09:42:59Z</time>
      </trkpt>
      <trkpt lat="48.67347" lon="2.12682">
        <ele>176.8</ele>
        <time>2026-05-24T09:43:00Z</time>
      </trkpt>
      <trkpt lat="48.67342" lon="2.12678">
        <ele>176.6</ele>
        <time>2026-05-24T09:43:01Z</time>
      </trkpt>
      <trkpt lat="48.67336" lon="2.12675">
        <ele>176.6</ele>
        <time>2026-05-24T09:43:02Z</time>
      </trkpt>
      <trkpt lat="48.67331" lon="2.12671">
        <ele>176.6</ele>
        <time>2026-05-24T09:43:03Z</time>
      </trkpt>
      <trkpt lat="48.67326" lon="2.12667">
        <ele>177</ele>
        <time>2026-05-24T09:43:04Z</time>
      </trkpt>
      <trkpt lat="48.67321" lon="2.12662">
        <ele>176.8</ele>
        <time>2026-05-24T09:43:05Z</time>
      </trkpt>
      <trkpt lat="48.67316" lon="2.12657">
        <ele>176.8</ele>
        <time>2026-05-24T09:43:06Z</time>
      </trkpt>
      <trkpt lat="48.67311" lon="2.12652">
        <ele>176.8</ele>
        <time>2026-05-24T09:43:07Z</time>
      </trkpt>
      <trkpt lat="48.67306" lon="2.12647">
        <ele>176.8</ele>
        <time>2026-05-24T09:43:08Z</time>
      </trkpt>
      <trkpt lat="48.67302" lon="2.12641">
        <ele>177.2</ele>
        <time>2026-05-24T09:43:09Z</time>
      </trkpt>
      <trkpt lat="48.67297" lon="2.12635">
        <ele>177.2</ele>
        <time>2026-05-24T09:43:10Z</time>
      </trkpt>
      <trkpt lat="48.67293" lon="2.12629">
        <ele>177.2</ele>
        <time>2026-05-24T09:43:11Z</time>
      </trkpt>
      <trkpt lat="48.67289" lon="2.12622">
        <ele>177.2</ele>
        <time>2026-05-24T09:43:12Z</time>
      </trkpt>
      <trkpt lat="48.67285" lon="2.12615">
        <ele>177</ele>
        <time>2026-05-24T09:43:13Z</time>
      </trkpt>
      <trkpt lat="48.67281" lon="2.12608">
        <ele>177</ele>
        <time>2026-05-24T09:43:14Z</time>
      </trkpt>
      <trkpt lat="48.67277" lon="2.12601">
        <ele>177</ele>
        <time>2026-05-24T09:43:15Z</time>
      </trkpt>
      <trkpt lat="48.67273" lon="2.12594">
        <ele>177.4</ele>
        <time>2026-05-24T09:43:16Z</time>
      </trkpt>
      <trkpt lat="48.67269" lon="2.12587">
        <ele>177.6</ele>
        <time>2026-05-24T09:43:17Z</time>
      </trkpt>
      <trkpt lat="48.67264" lon="2.12581">
        <ele>177.6</ele>
        <time>2026-05-24T09:43:18Z</time>
      </trkpt>
      <trkpt lat="48.67259" lon="2.12575">
        <ele>177.6</ele>
        <time>2026-05-24T09:43:19Z</time>
      </trkpt>
      <trkpt lat="48.67254" lon="2.1257">
        <ele>177.2</ele>
        <time>2026-05-24T09:43:20Z</time>
      </trkpt>
      <trkpt lat="48.67249" lon="2.12564">
        <ele>176.8</ele>
        <time>2026-05-24T09:43:21Z</time>
      </trkpt>
      <trkpt lat="48.67244" lon="2.12559">
        <ele>176.8</ele>
        <time>2026-05-24T09:43:22Z</time>
      </trkpt>
      <trkpt lat="48.67239" lon="2.12553">
        <ele>176.8</ele>
        <time>2026-05-24T09:43:23Z</time>
      </trkpt>
      <trkpt lat="48.67234" lon="2.12547">
        <ele>176.8</ele>
        <time>2026-05-24T09:43:24Z</time>
      </trkpt>
      <trkpt lat="48.67229" lon="2.12541">
        <ele>177.4</ele>
        <time>2026-05-24T09:43:25Z</time>
      </trkpt>
      <trkpt lat="48.67224" lon="2.12535">
        <ele>177.4</ele>
        <time>2026-05-24T09:43:26Z</time>
      </trkpt>
      <trkpt lat="48.67219" lon="2.12529">
        <ele>177.4</ele>
        <time>2026-05-24T09:43:27Z</time>
      </trkpt>
      <trkpt lat="48.67213" lon="2.12523">
        <ele>177.4</ele>
        <time>2026-05-24T09:43:28Z</time>
      </trkpt>
      <trkpt lat="48.67208" lon="2.12518">
        <ele>177</ele>
        <time>2026-05-24T09:43:29Z</time>
      </trkpt>
      <trkpt lat="48.67203" lon="2.12512">
        <ele>177</ele>
        <time>2026-05-24T09:43:30Z</time>
      </trkpt>
      <trkpt lat="48.67197" lon="2.12507">
        <ele>177</ele>
        <time>2026-05-24T09:43:31Z</time>
      </trkpt>
      <trkpt lat="48.67192" lon="2.12501">
        <ele>177</ele>
        <time>2026-05-24T09:43:32Z</time>
      </trkpt>
      <trkpt lat="48.67187" lon="2.12495">
        <ele>177.4</ele>
        <time>2026-05-24T09:43:33Z</time>
      </trkpt>
      <trkpt lat="48.67182" lon="2.12488">
        <ele>177.4</ele>
        <time>2026-05-24T09:43:34Z</time>
      </trkpt>
      <trkpt lat="48.67178" lon="2.12481">
        <ele>177.4</ele>
        <time>2026-05-24T09:43:35Z</time>
      </trkpt>
      <trkpt lat="48.67174" lon="2.12473">
        <ele>176.4</ele>
        <time>2026-05-24T09:43:36Z</time>
      </trkpt>
      <trkpt lat="48.6717" lon="2.12464">
        <ele>175.8</ele>
        <time>2026-05-24T09:43:37Z</time>
      </trkpt>
      <trkpt lat="48.67166" lon="2.12455">
        <ele>175.8</ele>
        <time>2026-05-24T09:43:38Z</time>
      </trkpt>
      <trkpt lat="48.67163" lon="2.12446">
        <ele>175.8</ele>
        <time>2026-05-24T09:43:39Z</time>
      </trkpt>
      <trkpt lat="48.6716" lon="2.12436">
        <ele>175.8</ele>
        <time>2026-05-24T09:43:40Z</time>
      </trkpt>
      <trkpt lat="48.67157" lon="2.12425">
        <ele>175.8</ele>
        <time>2026-05-24T09:43:41Z</time>
      </trkpt>
      <trkpt lat="48.67154" lon="2.12415">
        <ele>175.8</ele>
        <time>2026-05-24T09:43:42Z</time>
      </trkpt>
      <trkpt lat="48.6715" lon="2.12405">
        <ele>175.8</ele>
        <time>2026-05-24T09:43:43Z</time>
      </trkpt>
      <trkpt lat="48.67147" lon="2.12394">
        <ele>175.8</ele>
        <time>2026-05-24T09:43:44Z</time>
      </trkpt>
      <trkpt lat="48.67144" lon="2.12383">
        <ele>175.2</ele>
        <time>2026-05-24T09:43:45Z</time>
      </trkpt>
      <trkpt lat="48.67142" lon="2.12372">
        <ele>175.2</ele>
        <time>2026-05-24T09:43:46Z</time>
      </trkpt>
      <trkpt lat="48.6714" lon="2.12361">
        <ele>175.2</ele>
        <time>2026-05-24T09:43:47Z</time>
      </trkpt>
      <trkpt lat="48.67139" lon="2.1235">
        <ele>175.2</ele>
        <time>2026-05-24T09:43:48Z</time>
      </trkpt>
      <trkpt lat="48.6714" lon="2.12339">
        <ele>175</ele>
        <time>2026-05-24T09:43:49Z</time>
      </trkpt>
      <trkpt lat="48.67139" lon="2.12329">
        <ele>175</ele>
        <time>2026-05-24T09:43:50Z</time>
      </trkpt>
      <trkpt lat="48.67136" lon="2.12321">
        <ele>175</ele>
        <time>2026-05-24T09:43:51Z</time>
      </trkpt>
      <trkpt lat="48.6713" lon="2.12315">
        <ele>175</ele>
        <time>2026-05-24T09:43:52Z</time>
      </trkpt>
      <trkpt lat="48.67124" lon="2.12309">
        <ele>175.2</ele>
        <time>2026-05-24T09:43:53Z</time>
      </trkpt>
      <trkpt lat="48.67119" lon="2.12301">
        <ele>175.2</ele>
        <time>2026-05-24T09:43:54Z</time>
      </trkpt>
      <trkpt lat="48.67114" lon="2.12293">
        <ele>175.2</ele>
        <time>2026-05-24T09:43:55Z</time>
      </trkpt>
      <trkpt lat="48.67109" lon="2.12285">
        <ele>174.2</ele>
        <time>2026-05-24T09:43:56Z</time>
      </trkpt>
      <trkpt lat="48.67104" lon="2.12275">
        <ele>173.4</ele>
        <time>2026-05-24T09:43:57Z</time>
      </trkpt>
      <trkpt lat="48.671" lon="2.12265">
        <ele>173.4</ele>
        <time>2026-05-24T09:43:58Z</time>
      </trkpt>
      <trkpt lat="48.67095" lon="2.12254">
        <ele>173.4</ele>
        <time>2026-05-24T09:43:59Z</time>
      </trkpt>
      <trkpt lat="48.67091" lon="2.12243">
        <ele>172.4</ele>
        <time>2026-05-24T09:44:00Z</time>
      </trkpt>
      <trkpt lat="48.67086" lon="2.12233">
        <ele>171.8</ele>
        <time>2026-05-24T09:44:01Z</time>
      </trkpt>
      <trkpt lat="48.67081" lon="2.12221">
        <ele>171.8</ele>
        <time>2026-05-24T09:44:02Z</time>
      </trkpt>
      <trkpt lat="48.67076" lon="2.1221">
        <ele>171.8</ele>
        <time>2026-05-24T09:44:03Z</time>
      </trkpt>
      <trkpt lat="48.67072" lon="2.12198">
        <ele>171.8</ele>
        <time>2026-05-24T09:44:04Z</time>
      </trkpt>
      <trkpt lat="48.67067" lon="2.12186">
        <ele>171.8</ele>
        <time>2026-05-24T09:44:05Z</time>
      </trkpt>
      <trkpt lat="48.67061" lon="2.12174">
        <ele>171.8</ele>
        <time>2026-05-24T09:44:06Z</time>
      </trkpt>
      <trkpt lat="48.67056" lon="2.12162">
        <ele>171.8</ele>
        <time>2026-05-24T09:44:07Z</time>
      </trkpt>
      <trkpt lat="48.67051" lon="2.1215">
        <ele>170.8</ele>
        <time>2026-05-24T09:44:08Z</time>
      </trkpt>
      <trkpt lat="48.67045" lon="2.12138">
        <ele>170.2</ele>
        <time>2026-05-24T09:44:09Z</time>
      </trkpt>
      <trkpt lat="48.6704" lon="2.12126">
        <ele>170.2</ele>
        <time>2026-05-24T09:44:10Z</time>
      </trkpt>
      <trkpt lat="48.67034" lon="2.12114">
        <ele>170.2</ele>
        <time>2026-05-24T09:44:11Z</time>
      </trkpt>
      <trkpt lat="48.67029" lon="2.12102">
        <ele>170.2</ele>
        <time>2026-05-24T09:44:12Z</time>
      </trkpt>
      <trkpt lat="48.67023" lon="2.1209">
        <ele>169.8</ele>
        <time>2026-05-24T09:44:13Z</time>
      </trkpt>
      <trkpt lat="48.67018" lon="2.12079">
        <ele>169.8</ele>
        <time>2026-05-24T09:44:14Z</time>
      </trkpt>
      <trkpt lat="48.67012" lon="2.12068">
        <ele>169.8</ele>
        <time>2026-05-24T09:44:15Z</time>
      </trkpt>
      <trkpt lat="48.67006" lon="2.12057">
        <ele>169.8</ele>
        <time>2026-05-24T09:44:16Z</time>
      </trkpt>
      <trkpt lat="48.67001" lon="2.12046">
        <ele>169.6</ele>
        <time>2026-05-24T09:44:17Z</time>
      </trkpt>
      <trkpt lat="48.66996" lon="2.12034">
        <ele>169.6</ele>
        <time>2026-05-24T09:44:18Z</time>
      </trkpt>
      <trkpt lat="48.66991" lon="2.12023">
        <ele>169.6</ele>
        <time>2026-05-24T09:44:19Z</time>
      </trkpt>
      <trkpt lat="48.66986" lon="2.12012">
        <ele>169.6</ele>
        <time>2026-05-24T09:44:20Z</time>
      </trkpt>
      <trkpt lat="48.66982" lon="2.12">
        <ele>168.8</ele>
        <time>2026-05-24T09:44:21Z</time>
      </trkpt>
      <trkpt lat="48.66978" lon="2.11988">
        <ele>168.8</ele>
        <time>2026-05-24T09:44:22Z</time>
      </trkpt>
      <trkpt lat="48.66974" lon="2.11977">
        <ele>168.8</ele>
        <time>2026-05-24T09:44:23Z</time>
      </trkpt>
      <trkpt lat="48.66969" lon="2.11966">
        <ele>168.8</ele>
        <time>2026-05-24T09:44:24Z</time>
      </trkpt>
      <trkpt lat="48.66965" lon="2.11955">
        <ele>168.6</ele>
        <time>2026-05-24T09:44:25Z</time>
      </trkpt>
      <trkpt lat="48.6696" lon="2.11944">
        <ele>168.6</ele>
        <time>2026-05-24T09:44:26Z</time>
      </trkpt>
      <trkpt lat="48.66956" lon="2.11933">
        <ele>168.6</ele>
        <time>2026-05-24T09:44:27Z</time>
      </trkpt>
      <trkpt lat="48.66951" lon="2.11923">
        <ele>168.4</ele>
        <time>2026-05-24T09:44:28Z</time>
      </trkpt>
      <trkpt lat="48.66945" lon="2.11913">
        <ele>168.6</ele>
        <time>2026-05-24T09:44:29Z</time>
      </trkpt>
      <trkpt lat="48.6694" lon="2.11905">
        <ele>168.6</ele>
        <time>2026-05-24T09:44:30Z</time>
      </trkpt>
      <trkpt lat="48.66934" lon="2.11897">
        <ele>168.6</ele>
        <time>2026-05-24T09:44:31Z</time>
      </trkpt>
      <trkpt lat="48.66928" lon="2.11889">
        <ele>169.2</ele>
        <time>2026-05-24T09:44:32Z</time>
      </trkpt>
      <trkpt lat="48.66922" lon="2.11882">
        <ele>169.2</ele>
        <time>2026-05-24T09:44:33Z</time>
      </trkpt>
      <trkpt lat="48.66916" lon="2.11875">
        <ele>169.2</ele>
        <time>2026-05-24T09:44:34Z</time>
      </trkpt>
      <trkpt lat="48.66911" lon="2.11869">
        <ele>169.2</ele>
        <time>2026-05-24T09:44:35Z</time>
      </trkpt>
      <trkpt lat="48.66906" lon="2.11862">
        <ele>169.2</ele>
        <time>2026-05-24T09:44:36Z</time>
      </trkpt>
      <trkpt lat="48.669" lon="2.11855">
        <ele>169.6</ele>
        <time>2026-05-24T09:44:37Z</time>
      </trkpt>
      <trkpt lat="48.66896" lon="2.11847">
        <ele>169.6</ele>
        <time>2026-05-24T09:44:38Z</time>
      </trkpt>
      <trkpt lat="48.66894" lon="2.11837">
        <ele>169.6</ele>
        <time>2026-05-24T09:44:39Z</time>
      </trkpt>
      <trkpt lat="48.66893" lon="2.11826">
        <ele>169.8</ele>
        <time>2026-05-24T09:44:40Z</time>
      </trkpt>
      <trkpt lat="48.66891" lon="2.11816">
        <ele>169.6</ele>
        <time>2026-05-24T09:44:41Z</time>
      </trkpt>
      <trkpt lat="48.66889" lon="2.11805">
        <ele>169.6</ele>
        <time>2026-05-24T09:44:42Z</time>
      </trkpt>
      <trkpt lat="48.66885" lon="2.11796">
        <ele>169.6</ele>
        <time>2026-05-24T09:44:43Z</time>
      </trkpt>
      <trkpt lat="48.66881" lon="2.11787">
        <ele>169.6</ele>
        <time>2026-05-24T09:44:44Z</time>
      </trkpt>
      <trkpt lat="48.66875" lon="2.11779">
        <ele>169</ele>
        <time>2026-05-24T09:44:45Z</time>
      </trkpt>
      <trkpt lat="48.66868" lon="2.11774">
        <ele>169</ele>
        <time>2026-05-24T09:44:46Z</time>
      </trkpt>
      <trkpt lat="48.66861" lon="2.11771">
        <ele>169</ele>
        <time>2026-05-24T09:44:47Z</time>
      </trkpt>
      <trkpt lat="48.66854" lon="2.11771">
        <ele>169.6</ele>
        <time>2026-05-24T09:44:48Z</time>
      </trkpt>
      <trkpt lat="48.66846" lon="2.11773">
        <ele>170</ele>
        <time>2026-05-24T09:44:49Z</time>
      </trkpt>
      <trkpt lat="48.66839" lon="2.11776">
        <ele>170</ele>
        <time>2026-05-24T09:44:50Z</time>
      </trkpt>
      <trkpt lat="48.66833" lon="2.11781">
        <ele>170</ele>
        <time>2026-05-24T09:44:51Z</time>
      </trkpt>
      <trkpt lat="48.66826" lon="2.11785">
        <ele>170</ele>
        <time>2026-05-24T09:44:52Z</time>
      </trkpt>
      <trkpt lat="48.66819" lon="2.11787">
        <ele>170</ele>
        <time>2026-05-24T09:44:53Z</time>
      </trkpt>
      <trkpt lat="48.66811" lon="2.11787">
        <ele>170</ele>
        <time>2026-05-24T09:44:54Z</time>
      </trkpt>
      <trkpt lat="48.66804" lon="2.11785">
        <ele>170</ele>
        <time>2026-05-24T09:44:55Z</time>
      </trkpt>
      <trkpt lat="48.66797" lon="2.11783">
        <ele>169.4</ele>
        <time>2026-05-24T09:44:56Z</time>
      </trkpt>
      <trkpt lat="48.6679" lon="2.11781">
        <ele>170.4</ele>
        <time>2026-05-24T09:44:57Z</time>
      </trkpt>
      <trkpt lat="48.66782" lon="2.11778">
        <ele>170.4</ele>
        <time>2026-05-24T09:44:58Z</time>
      </trkpt>
      <trkpt lat="48.66775" lon="2.11777">
        <ele>170.4</ele>
        <time>2026-05-24T09:44:59Z</time>
      </trkpt>
      <trkpt lat="48.66768" lon="2.11776">
        <ele>170.2</ele>
        <time>2026-05-24T09:45:00Z</time>
      </trkpt>
      <trkpt lat="48.6676" lon="2.11775">
        <ele>170</ele>
        <time>2026-05-24T09:45:01Z</time>
      </trkpt>
      <trkpt lat="48.66753" lon="2.11775">
        <ele>170</ele>
        <time>2026-05-24T09:45:02Z</time>
      </trkpt>
      <trkpt lat="48.66745" lon="2.11774">
        <ele>170</ele>
        <time>2026-05-24T09:45:03Z</time>
      </trkpt>
      <trkpt lat="48.66738" lon="2.11774">
        <ele>169.4</ele>
        <time>2026-05-24T09:45:04Z</time>
      </trkpt>
      <trkpt lat="48.6673" lon="2.11773">
        <ele>169.6</ele>
        <time>2026-05-24T09:45:05Z</time>
      </trkpt>
      <trkpt lat="48.66723" lon="2.11772">
        <ele>169.6</ele>
        <time>2026-05-24T09:45:06Z</time>
      </trkpt>
      <trkpt lat="48.66716" lon="2.1177">
        <ele>169.6</ele>
        <time>2026-05-24T09:45:07Z</time>
      </trkpt>
      <trkpt lat="48.66708" lon="2.11768">
        <ele>169.6</ele>
        <time>2026-05-24T09:45:08Z</time>
      </trkpt>
      <trkpt lat="48.66702" lon="2.11764">
        <ele>170</ele>
        <time>2026-05-24T09:45:09Z</time>
      </trkpt>
      <trkpt lat="48.66696" lon="2.11759">
        <ele>170</ele>
        <time>2026-05-24T09:45:10Z</time>
      </trkpt>
      <trkpt lat="48.66692" lon="2.11754">
        <ele>170</ele>
        <time>2026-05-24T09:45:11Z</time>
      </trkpt>
      <trkpt lat="48.66688" lon="2.11749">
        <ele>171</ele>
        <time>2026-05-24T09:45:12Z</time>
      </trkpt>
      <trkpt lat="48.66684" lon="2.11745">
        <ele>171.6</ele>
        <time>2026-05-24T09:45:13Z</time>
      </trkpt>
      <trkpt lat="48.66682" lon="2.11739">
        <ele>171.6</ele>
        <time>2026-05-24T09:45:14Z</time>
      </trkpt>
      <trkpt lat="48.66679" lon="2.11734">
        <ele>171.6</ele>
        <time>2026-05-24T09:45:15Z</time>
      </trkpt>
      <trkpt lat="48.66678" lon="2.11728">
        <ele>172.6</ele>
        <time>2026-05-24T09:45:16Z</time>
      </trkpt>
      <trkpt lat="48.66676" lon="2.11723">
        <ele>173</ele>
        <time>2026-05-24T09:45:17Z</time>
      </trkpt>
      <trkpt lat="48.66675" lon="2.11717">
        <ele>173</ele>
        <time>2026-05-24T09:45:18Z</time>
      </trkpt>
      <trkpt lat="48.66674" lon="2.11711">
        <ele>173</ele>
        <time>2026-05-24T09:45:19Z</time>
      </trkpt>
      <trkpt lat="48.66672" lon="2.11705">
        <ele>172.6</ele>
        <time>2026-05-24T09:45:20Z</time>
      </trkpt>
      <trkpt lat="48.6667" lon="2.117">
        <ele>172.6</ele>
        <time>2026-05-24T09:45:21Z</time>
      </trkpt>
      <trkpt lat="48.66668" lon="2.11693">
        <ele>172.6</ele>
        <time>2026-05-24T09:45:22Z</time>
      </trkpt>
      <trkpt lat="48.66666" lon="2.11687">
        <ele>172.6</ele>
        <time>2026-05-24T09:45:23Z</time>
      </trkpt>
      <trkpt lat="48.66665" lon="2.11681">
        <ele>173</ele>
        <time>2026-05-24T09:45:24Z</time>
      </trkpt>
      <trkpt lat="48.66662" lon="2.11674">
        <ele>174</ele>
        <time>2026-05-24T09:45:25Z</time>
      </trkpt>
      <trkpt lat="48.6666" lon="2.11667">
        <ele>174</ele>
        <time>2026-05-24T09:45:26Z</time>
      </trkpt>
      <trkpt lat="48.66658" lon="2.1166">
        <ele>174</ele>
        <time>2026-05-24T09:45:27Z</time>
      </trkpt>
      <trkpt lat="48.66656" lon="2.11653">
        <ele>173</ele>
        <time>2026-05-24T09:45:28Z</time>
      </trkpt>
      <trkpt lat="48.66654" lon="2.11646">
        <ele>173</ele>
        <time>2026-05-24T09:45:29Z</time>
      </trkpt>
      <trkpt lat="48.66652" lon="2.11639">
        <ele>173</ele>
        <time>2026-05-24T09:45:30Z</time>
      </trkpt>
      <trkpt lat="48.6665" lon="2.11632">
        <ele>173</ele>
        <time>2026-05-24T09:45:31Z</time>
      </trkpt>
      <trkpt lat="48.66648" lon="2.11625">
        <ele>173</ele>
        <time>2026-05-24T09:45:32Z</time>
      </trkpt>
      <trkpt lat="48.66646" lon="2.11618">
        <ele>172.6</ele>
        <time>2026-05-24T09:45:33Z</time>
      </trkpt>
      <trkpt lat="48.66644" lon="2.11611">
        <ele>172.6</ele>
        <time>2026-05-24T09:45:34Z</time>
      </trkpt>
      <trkpt lat="48.66642" lon="2.11604">
        <ele>172.6</ele>
        <time>2026-05-24T09:45:35Z</time>
      </trkpt>
      <trkpt lat="48.66641" lon="2.11597">
        <ele>173.6</ele>
        <time>2026-05-24T09:45:36Z</time>
      </trkpt>
      <trkpt lat="48.66638" lon="2.1159">
        <ele>174</ele>
        <time>2026-05-24T09:45:37Z</time>
      </trkpt>
      <trkpt lat="48.66637" lon="2.11584">
        <ele>174</ele>
        <time>2026-05-24T09:45:38Z</time>
      </trkpt>
      <trkpt lat="48.66635" lon="2.11577">
        <ele>174</ele>
        <time>2026-05-24T09:45:39Z</time>
      </trkpt>
      <trkpt lat="48.66632" lon="2.11571">
        <ele>173.6</ele>
        <time>2026-05-24T09:45:40Z</time>
      </trkpt>
      <trkpt lat="48.66631" lon="2.11564">
        <ele>173.8</ele>
        <time>2026-05-24T09:45:41Z</time>
      </trkpt>
      <trkpt lat="48.66629" lon="2.11557">
        <ele>173.8</ele>
        <time>2026-05-24T09:45:42Z</time>
      </trkpt>
      <trkpt lat="48.66626" lon="2.1155">
        <ele>173.8</ele>
        <time>2026-05-24T09:45:43Z</time>
      </trkpt>
      <trkpt lat="48.66625" lon="2.11544">
        <ele>172.8</ele>
        <time>2026-05-24T09:45:44Z</time>
      </trkpt>
      <trkpt lat="48.66622" lon="2.11537">
        <ele>173.4</ele>
        <time>2026-05-24T09:45:45Z</time>
      </trkpt>
      <trkpt lat="48.6662" lon="2.1153">
        <ele>173.4</ele>
        <time>2026-05-24T09:45:46Z</time>
      </trkpt>
      <trkpt lat="48.66618" lon="2.11523">
        <ele>173.4</ele>
        <time>2026-05-24T09:45:47Z</time>
      </trkpt>
      <trkpt lat="48.66617" lon="2.11516">
        <ele>173.6</ele>
        <time>2026-05-24T09:45:48Z</time>
      </trkpt>
      <trkpt lat="48.66615" lon="2.11509">
        <ele>174.4</ele>
        <time>2026-05-24T09:45:49Z</time>
      </trkpt>
      <trkpt lat="48.66613" lon="2.11502">
        <ele>174.4</ele>
        <time>2026-05-24T09:45:50Z</time>
      </trkpt>
      <trkpt lat="48.66611" lon="2.11495">
        <ele>174.4</ele>
        <time>2026-05-24T09:45:51Z</time>
      </trkpt>
      <trkpt lat="48.66609" lon="2.11487">
        <ele>174.4</ele>
        <time>2026-05-24T09:45:52Z</time>
      </trkpt>
      <trkpt lat="48.66607" lon="2.1148">
        <ele>173.8</ele>
        <time>2026-05-24T09:45:53Z</time>
      </trkpt>
      <trkpt lat="48.66604" lon="2.11473">
        <ele>173.8</ele>
        <time>2026-05-24T09:45:54Z</time>
      </trkpt>
      <trkpt lat="48.66603" lon="2.11465">
        <ele>173.8</ele>
        <time>2026-05-24T09:45:55Z</time>
      </trkpt>
      <trkpt lat="48.66601" lon="2.11458">
        <ele>174.4</ele>
        <time>2026-05-24T09:45:56Z</time>
      </trkpt>
      <trkpt lat="48.66599" lon="2.11451">
        <ele>174.6</ele>
        <time>2026-05-24T09:45:57Z</time>
      </trkpt>
      <trkpt lat="48.66597" lon="2.11444">
        <ele>174.6</ele>
        <time>2026-05-24T09:45:58Z</time>
      </trkpt>
      <trkpt lat="48.66595" lon="2.11438">
        <ele>174.6</ele>
        <time>2026-05-24T09:45:59Z</time>
      </trkpt>
      <trkpt lat="48.66593" lon="2.11431">
        <ele>174</ele>
        <time>2026-05-24T09:46:00Z</time>
      </trkpt>
      <trkpt lat="48.66591" lon="2.11424">
        <ele>174</ele>
        <time>2026-05-24T09:46:01Z</time>
      </trkpt>
      <trkpt lat="48.66589" lon="2.11417">
        <ele>174</ele>
        <time>2026-05-24T09:46:02Z</time>
      </trkpt>
      <trkpt lat="48.66587" lon="2.11409">
        <ele>174</ele>
        <time>2026-05-24T09:46:03Z</time>
      </trkpt>
      <trkpt lat="48.66585" lon="2.11402">
        <ele>174.6</ele>
        <time>2026-05-24T09:46:04Z</time>
      </trkpt>
      <trkpt lat="48.66582" lon="2.11395">
        <ele>175</ele>
        <time>2026-05-24T09:46:05Z</time>
      </trkpt>
      <trkpt lat="48.6658" lon="2.11388">
        <ele>175</ele>
        <time>2026-05-24T09:46:06Z</time>
      </trkpt>
      <trkpt lat="48.66578" lon="2.11381">
        <ele>175</ele>
        <time>2026-05-24T09:46:07Z</time>
      </trkpt>
      <trkpt lat="48.66576" lon="2.11373">
        <ele>174.8</ele>
        <time>2026-05-24T09:46:08Z</time>
      </trkpt>
      <trkpt lat="48.66574" lon="2.11365">
        <ele>175</ele>
        <time>2026-05-24T09:46:09Z</time>
      </trkpt>
      <trkpt lat="48.66572" lon="2.11359">
        <ele>175</ele>
        <time>2026-05-24T09:46:10Z</time>
      </trkpt>
      <trkpt lat="48.6657" lon="2.11351">
        <ele>175</ele>
        <time>2026-05-24T09:46:11Z</time>
      </trkpt>
      <trkpt lat="48.66569" lon="2.11344">
        <ele>175</ele>
        <time>2026-05-24T09:46:12Z</time>
      </trkpt>
      <trkpt lat="48.66567" lon="2.11337">
        <ele>174.8</ele>
        <time>2026-05-24T09:46:13Z</time>
      </trkpt>
      <trkpt lat="48.66565" lon="2.11329">
        <ele>174.8</ele>
        <time>2026-05-24T09:46:14Z</time>
      </trkpt>
      <trkpt lat="48.66563" lon="2.11321">
        <ele>174.8</ele>
        <time>2026-05-24T09:46:15Z</time>
      </trkpt>
      <trkpt lat="48.66561" lon="2.11314">
        <ele>174.8</ele>
        <time>2026-05-24T09:46:16Z</time>
      </trkpt>
      <trkpt lat="48.66559" lon="2.11307">
        <ele>175</ele>
        <time>2026-05-24T09:46:17Z</time>
      </trkpt>
      <trkpt lat="48.66556" lon="2.113">
        <ele>175</ele>
        <time>2026-05-24T09:46:18Z</time>
      </trkpt>
      <trkpt lat="48.66554" lon="2.11292">
        <ele>175</ele>
        <time>2026-05-24T09:46:19Z</time>
      </trkpt>
      <trkpt lat="48.66552" lon="2.11285">
        <ele>175.6</ele>
        <time>2026-05-24T09:46:20Z</time>
      </trkpt>
      <trkpt lat="48.6655" lon="2.11278">
        <ele>174.4</ele>
        <time>2026-05-24T09:46:21Z</time>
      </trkpt>
      <trkpt lat="48.66548" lon="2.11271">
        <ele>174.4</ele>
        <time>2026-05-24T09:46:22Z</time>
      </trkpt>
      <trkpt lat="48.66545" lon="2.11264">
        <ele>174.4</ele>
        <time>2026-05-24T09:46:23Z</time>
      </trkpt>
      <trkpt lat="48.66542" lon="2.11257">
        <ele>174.8</ele>
        <time>2026-05-24T09:46:24Z</time>
      </trkpt>
      <trkpt lat="48.6654" lon="2.11249">
        <ele>175.4</ele>
        <time>2026-05-24T09:46:25Z</time>
      </trkpt>
      <trkpt lat="48.66537" lon="2.11241">
        <ele>175.4</ele>
        <time>2026-05-24T09:46:26Z</time>
      </trkpt>
      <trkpt lat="48.66535" lon="2.11233">
        <ele>175.4</ele>
        <time>2026-05-24T09:46:27Z</time>
      </trkpt>
      <trkpt lat="48.66533" lon="2.11225">
        <ele>175.4</ele>
        <time>2026-05-24T09:46:28Z</time>
      </trkpt>
      <trkpt lat="48.66531" lon="2.11217">
        <ele>175.6</ele>
        <time>2026-05-24T09:46:29Z</time>
      </trkpt>
      <trkpt lat="48.66529" lon="2.11209">
        <ele>175.6</ele>
        <time>2026-05-24T09:46:30Z</time>
      </trkpt>
      <trkpt lat="48.66526" lon="2.11202">
        <ele>175.6</ele>
        <time>2026-05-24T09:46:31Z</time>
      </trkpt>
      <trkpt lat="48.66524" lon="2.11194">
        <ele>175.6</ele>
        <time>2026-05-24T09:46:32Z</time>
      </trkpt>
      <trkpt lat="48.66522" lon="2.11186">
        <ele>175.4</ele>
        <time>2026-05-24T09:46:33Z</time>
      </trkpt>
      <trkpt lat="48.6652" lon="2.11179">
        <ele>175.4</ele>
        <time>2026-05-24T09:46:34Z</time>
      </trkpt>
      <trkpt lat="48.66518" lon="2.11171">
        <ele>175.4</ele>
        <time>2026-05-24T09:46:35Z</time>
      </trkpt>
      <trkpt lat="48.66516" lon="2.11163">
        <ele>176.4</ele>
        <time>2026-05-24T09:46:36Z</time>
      </trkpt>
      <trkpt lat="48.66514" lon="2.11156">
        <ele>175.6</ele>
        <time>2026-05-24T09:46:37Z</time>
      </trkpt>
      <trkpt lat="48.66511" lon="2.11148">
        <ele>175.6</ele>
        <time>2026-05-24T09:46:38Z</time>
      </trkpt>
      <trkpt lat="48.66509" lon="2.1114">
        <ele>175.6</ele>
        <time>2026-05-24T09:46:39Z</time>
      </trkpt>
      <trkpt lat="48.66507" lon="2.11131">
        <ele>175.6</ele>
        <time>2026-05-24T09:46:40Z</time>
      </trkpt>
      <trkpt lat="48.66505" lon="2.11123">
        <ele>176.6</ele>
        <time>2026-05-24T09:46:41Z</time>
      </trkpt>
      <trkpt lat="48.66503" lon="2.11115">
        <ele>176.6</ele>
        <time>2026-05-24T09:46:42Z</time>
      </trkpt>
      <trkpt lat="48.665" lon="2.11107">
        <ele>176.6</ele>
        <time>2026-05-24T09:46:43Z</time>
      </trkpt>
      <trkpt lat="48.66498" lon="2.11099">
        <ele>176.6</ele>
        <time>2026-05-24T09:46:44Z</time>
      </trkpt>
      <trkpt lat="48.66495" lon="2.11091">
        <ele>176.8</ele>
        <time>2026-05-24T09:46:45Z</time>
      </trkpt>
      <trkpt lat="48.66493" lon="2.11084">
        <ele>176.8</ele>
        <time>2026-05-24T09:46:46Z</time>
      </trkpt>
      <trkpt lat="48.6649" lon="2.11076">
        <ele>176.8</ele>
        <time>2026-05-24T09:46:47Z</time>
      </trkpt>
      <trkpt lat="48.66488" lon="2.11068">
        <ele>176.8</ele>
        <time>2026-05-24T09:46:48Z</time>
      </trkpt>
      <trkpt lat="48.66485" lon="2.1106">
        <ele>177.2</ele>
        <time>2026-05-24T09:46:49Z</time>
      </trkpt>
      <trkpt lat="48.66483" lon="2.11052">
        <ele>177.2</ele>
        <time>2026-05-24T09:46:50Z</time>
      </trkpt>
      <trkpt lat="48.6648" lon="2.11045">
        <ele>177.2</ele>
        <time>2026-05-24T09:46:51Z</time>
      </trkpt>
      <trkpt lat="48.66479" lon="2.11037">
        <ele>176.6</ele>
        <time>2026-05-24T09:46:52Z</time>
      </trkpt>
      <trkpt lat="48.66476" lon="2.11029">
        <ele>176.4</ele>
        <time>2026-05-24T09:46:53Z</time>
      </trkpt>
      <trkpt lat="48.66474" lon="2.11021">
        <ele>176.4</ele>
        <time>2026-05-24T09:46:54Z</time>
      </trkpt>
      <trkpt lat="48.66473" lon="2.11014">
        <ele>176.4</ele>
        <time>2026-05-24T09:46:55Z</time>
      </trkpt>
      <trkpt lat="48.66471" lon="2.11006">
        <ele>177.4</ele>
        <time>2026-05-24T09:46:56Z</time>
      </trkpt>
      <trkpt lat="48.66469" lon="2.10999">
        <ele>177.8</ele>
        <time>2026-05-24T09:46:57Z</time>
      </trkpt>
      <trkpt lat="48.66466" lon="2.10992">
        <ele>177.8</ele>
        <time>2026-05-24T09:46:58Z</time>
      </trkpt>
      <trkpt lat="48.66464" lon="2.10983">
        <ele>177.8</ele>
        <time>2026-05-24T09:46:59Z</time>
      </trkpt>
      <trkpt lat="48.66462" lon="2.10976">
        <ele>177.4</ele>
        <time>2026-05-24T09:47:00Z</time>
      </trkpt>
      <trkpt lat="48.6646" lon="2.10968">
        <ele>177.6</ele>
        <time>2026-05-24T09:47:01Z</time>
      </trkpt>
      <trkpt lat="48.66458" lon="2.1096">
        <ele>177.6</ele>
        <time>2026-05-24T09:47:02Z</time>
      </trkpt>
      <trkpt lat="48.66456" lon="2.10953">
        <ele>177.6</ele>
        <time>2026-05-24T09:47:03Z</time>
      </trkpt>
      <trkpt lat="48.66453" lon="2.10945">
        <ele>177.6</ele>
        <time>2026-05-24T09:47:04Z</time>
      </trkpt>
      <trkpt lat="48.66451" lon="2.10937">
        <ele>177.6</ele>
        <time>2026-05-24T09:47:05Z</time>
      </trkpt>
      <trkpt lat="48.66448" lon="2.10929">
        <ele>177.6</ele>
        <time>2026-05-24T09:47:06Z</time>
      </trkpt>
      <trkpt lat="48.66446" lon="2.10921">
        <ele>177.6</ele>
        <time>2026-05-24T09:47:07Z</time>
      </trkpt>
      <trkpt lat="48.66444" lon="2.10913">
        <ele>176.8</ele>
        <time>2026-05-24T09:47:08Z</time>
      </trkpt>
      <trkpt lat="48.66441" lon="2.10905">
        <ele>177.6</ele>
        <time>2026-05-24T09:47:09Z</time>
      </trkpt>
      <trkpt lat="48.66439" lon="2.10897">
        <ele>177.6</ele>
        <time>2026-05-24T09:47:10Z</time>
      </trkpt>
      <trkpt lat="48.66436" lon="2.10889">
        <ele>177.6</ele>
        <time>2026-05-24T09:47:11Z</time>
      </trkpt>
      <trkpt lat="48.66434" lon="2.10882">
        <ele>177.6</ele>
        <time>2026-05-24T09:47:12Z</time>
      </trkpt>
      <trkpt lat="48.6643" lon="2.10874">
        <ele>177.4</ele>
        <time>2026-05-24T09:47:13Z</time>
      </trkpt>
      <trkpt lat="48.66427" lon="2.10866">
        <ele>177.4</ele>
        <time>2026-05-24T09:47:14Z</time>
      </trkpt>
      <trkpt lat="48.66425" lon="2.10857">
        <ele>177.4</ele>
        <time>2026-05-24T09:47:15Z</time>
      </trkpt>
      <trkpt lat="48.66423" lon="2.10849">
        <ele>178</ele>
        <time>2026-05-24T09:47:16Z</time>
      </trkpt>
      <trkpt lat="48.6642" lon="2.10841">
        <ele>178.8</ele>
        <time>2026-05-24T09:47:17Z</time>
      </trkpt>
      <trkpt lat="48.66418" lon="2.10833">
        <ele>178.8</ele>
        <time>2026-05-24T09:47:18Z</time>
      </trkpt>
      <trkpt lat="48.66416" lon="2.10825">
        <ele>178.8</ele>
        <time>2026-05-24T09:47:19Z</time>
      </trkpt>
      <trkpt lat="48.66414" lon="2.10817">
        <ele>177.8</ele>
        <time>2026-05-24T09:47:20Z</time>
      </trkpt>
      <trkpt lat="48.66411" lon="2.10809">
        <ele>178</ele>
        <time>2026-05-24T09:47:21Z</time>
      </trkpt>
      <trkpt lat="48.66409" lon="2.10801">
        <ele>178</ele>
        <time>2026-05-24T09:47:22Z</time>
      </trkpt>
      <trkpt lat="48.66406" lon="2.10793">
        <ele>178</ele>
        <time>2026-05-24T09:47:23Z</time>
      </trkpt>
      <trkpt lat="48.66404" lon="2.10785">
        <ele>177.8</ele>
        <time>2026-05-24T09:47:24Z</time>
      </trkpt>
      <trkpt lat="48.66402" lon="2.10777">
        <ele>178</ele>
        <time>2026-05-24T09:47:25Z</time>
      </trkpt>
      <trkpt lat="48.664" lon="2.1077">
        <ele>178</ele>
        <time>2026-05-24T09:47:26Z</time>
      </trkpt>
      <trkpt lat="48.66398" lon="2.10762">
        <ele>178</ele>
        <time>2026-05-24T09:47:27Z</time>
      </trkpt>
      <trkpt lat="48.66395" lon="2.10754">
        <ele>178.6</ele>
        <time>2026-05-24T09:47:28Z</time>
      </trkpt>
      <trkpt lat="48.66393" lon="2.10746">
        <ele>178.4</ele>
        <time>2026-05-24T09:47:29Z</time>
      </trkpt>
      <trkpt lat="48.66391" lon="2.10738">
        <ele>178.4</ele>
        <time>2026-05-24T09:47:30Z</time>
      </trkpt>
      <trkpt lat="48.66389" lon="2.1073">
        <ele>178.4</ele>
        <time>2026-05-24T09:47:31Z</time>
      </trkpt>
      <trkpt lat="48.66387" lon="2.10722">
        <ele>178.4</ele>
        <time>2026-05-24T09:47:32Z</time>
      </trkpt>
      <trkpt lat="48.66385" lon="2.10715">
        <ele>178.6</ele>
        <time>2026-05-24T09:47:33Z</time>
      </trkpt>
      <trkpt lat="48.66382" lon="2.10707">
        <ele>178.6</ele>
        <time>2026-05-24T09:47:34Z</time>
      </trkpt>
      <trkpt lat="48.6638" lon="2.107">
        <ele>178.6</ele>
        <time>2026-05-24T09:47:35Z</time>
      </trkpt>
      <trkpt lat="48.66378" lon="2.10693">
        <ele>179.6</ele>
        <time>2026-05-24T09:47:36Z</time>
      </trkpt>
      <trkpt lat="48.66376" lon="2.10685">
        <ele>178.8</ele>
        <time>2026-05-24T09:47:37Z</time>
      </trkpt>
      <trkpt lat="48.66374" lon="2.10678">
        <ele>178.8</ele>
        <time>2026-05-24T09:47:38Z</time>
      </trkpt>
      <trkpt lat="48.66372" lon="2.1067">
        <ele>178.8</ele>
        <time>2026-05-24T09:47:39Z</time>
      </trkpt>
      <trkpt lat="48.6637" lon="2.10662">
        <ele>178.8</ele>
        <time>2026-05-24T09:47:40Z</time>
      </trkpt>
      <trkpt lat="48.66368" lon="2.10654">
        <ele>178.8</ele>
        <time>2026-05-24T09:47:41Z</time>
      </trkpt>
      <trkpt lat="48.66366" lon="2.10647">
        <ele>178.8</ele>
        <time>2026-05-24T09:47:42Z</time>
      </trkpt>
      <trkpt lat="48.66364" lon="2.10639">
        <ele>178.8</ele>
        <time>2026-05-24T09:47:43Z</time>
      </trkpt>
      <trkpt lat="48.66362" lon="2.10632">
        <ele>179.4</ele>
        <time>2026-05-24T09:47:44Z</time>
      </trkpt>
      <trkpt lat="48.66359" lon="2.10624">
        <ele>179.6</ele>
        <time>2026-05-24T09:47:45Z</time>
      </trkpt>
      <trkpt lat="48.66357" lon="2.10616">
        <ele>179.6</ele>
        <time>2026-05-24T09:47:46Z</time>
      </trkpt>
      <trkpt lat="48.66355" lon="2.10609">
        <ele>179.6</ele>
        <time>2026-05-24T09:47:47Z</time>
      </trkpt>
      <trkpt lat="48.66353" lon="2.10601">
        <ele>179.6</ele>
        <time>2026-05-24T09:47:48Z</time>
      </trkpt>
      <trkpt lat="48.66351" lon="2.10594">
        <ele>179.8</ele>
        <time>2026-05-24T09:47:49Z</time>
      </trkpt>
      <trkpt lat="48.66349" lon="2.10588">
        <ele>179.8</ele>
        <time>2026-05-24T09:47:50Z</time>
      </trkpt>
      <trkpt lat="48.66347" lon="2.1058">
        <ele>179.8</ele>
        <time>2026-05-24T09:47:51Z</time>
      </trkpt>
      <trkpt lat="48.66345" lon="2.10572">
        <ele>179.8</ele>
        <time>2026-05-24T09:47:52Z</time>
      </trkpt>
      <trkpt lat="48.66343" lon="2.10565">
        <ele>179.4</ele>
        <time>2026-05-24T09:47:53Z</time>
      </trkpt>
      <trkpt lat="48.66341" lon="2.10557">
        <ele>179.4</ele>
        <time>2026-05-24T09:47:54Z</time>
      </trkpt>
      <trkpt lat="48.66338" lon="2.10548">
        <ele>179.4</ele>
        <time>2026-05-24T09:47:55Z</time>
      </trkpt>
      <trkpt lat="48.66336" lon="2.10541">
        <ele>179.4</ele>
        <time>2026-05-24T09:47:56Z</time>
      </trkpt>
      <trkpt lat="48.66333" lon="2.10533">
        <ele>179.8</ele>
        <time>2026-05-24T09:47:57Z</time>
      </trkpt>
      <trkpt lat="48.6633" lon="2.10525">
        <ele>179.8</ele>
        <time>2026-05-24T09:47:58Z</time>
      </trkpt>
      <trkpt lat="48.66328" lon="2.10517">
        <ele>179.8</ele>
        <time>2026-05-24T09:47:59Z</time>
      </trkpt>
      <trkpt lat="48.66325" lon="2.1051">
        <ele>179.8</ele>
        <time>2026-05-24T09:48:00Z</time>
      </trkpt>
      <trkpt lat="48.66322" lon="2.10503">
        <ele>179.8</ele>
        <time>2026-05-24T09:48:01Z</time>
      </trkpt>
      <trkpt lat="48.6632" lon="2.10495">
        <ele>179.8</ele>
        <time>2026-05-24T09:48:02Z</time>
      </trkpt>
      <trkpt lat="48.66318" lon="2.10487">
        <ele>179.8</ele>
        <time>2026-05-24T09:48:03Z</time>
      </trkpt>
      <trkpt lat="48.66315" lon="2.10479">
        <ele>179.8</ele>
        <time>2026-05-24T09:48:04Z</time>
      </trkpt>
      <trkpt lat="48.66314" lon="2.10471">
        <ele>180.8</ele>
        <time>2026-05-24T09:48:05Z</time>
      </trkpt>
      <trkpt lat="48.66311" lon="2.10463">
        <ele>180.8</ele>
        <time>2026-05-24T09:48:06Z</time>
      </trkpt>
      <trkpt lat="48.66308" lon="2.10455">
        <ele>180.8</ele>
        <time>2026-05-24T09:48:07Z</time>
      </trkpt>
      <trkpt lat="48.66305" lon="2.10448">
        <ele>180</ele>
        <time>2026-05-24T09:48:08Z</time>
      </trkpt>
      <trkpt lat="48.66302" lon="2.1044">
        <ele>180.2</ele>
        <time>2026-05-24T09:48:09Z</time>
      </trkpt>
      <trkpt lat="48.663" lon="2.10433">
        <ele>180.2</ele>
        <time>2026-05-24T09:48:10Z</time>
      </trkpt>
      <trkpt lat="48.66298" lon="2.10425">
        <ele>180.2</ele>
        <time>2026-05-24T09:48:11Z</time>
      </trkpt>
      <trkpt lat="48.66297" lon="2.10418">
        <ele>180.2</ele>
        <time>2026-05-24T09:48:12Z</time>
      </trkpt>
      <trkpt lat="48.66294" lon="2.1041">
        <ele>180</ele>
        <time>2026-05-24T09:48:13Z</time>
      </trkpt>
      <trkpt lat="48.66292" lon="2.10403">
        <ele>180</ele>
        <time>2026-05-24T09:48:14Z</time>
      </trkpt>
      <trkpt lat="48.6629" lon="2.10395">
        <ele>180</ele>
        <time>2026-05-24T09:48:15Z</time>
      </trkpt>
      <trkpt lat="48.66288" lon="2.10388">
        <ele>180</ele>
        <time>2026-05-24T09:48:16Z</time>
      </trkpt>
      <trkpt lat="48.66286" lon="2.1038">
        <ele>180.6</ele>
        <time>2026-05-24T09:48:17Z</time>
      </trkpt>
      <trkpt lat="48.66283" lon="2.10371">
        <ele>180.6</ele>
        <time>2026-05-24T09:48:18Z</time>
      </trkpt>
      <trkpt lat="48.6628" lon="2.10363">
        <ele>180.6</ele>
        <time>2026-05-24T09:48:19Z</time>
      </trkpt>
      <trkpt lat="48.66278" lon="2.10355">
        <ele>180.6</ele>
        <time>2026-05-24T09:48:20Z</time>
      </trkpt>
      <trkpt lat="48.66276" lon="2.10346">
        <ele>180.4</ele>
        <time>2026-05-24T09:48:21Z</time>
      </trkpt>
      <trkpt lat="48.66274" lon="2.10337">
        <ele>180.4</ele>
        <time>2026-05-24T09:48:22Z</time>
      </trkpt>
      <trkpt lat="48.66272" lon="2.10328">
        <ele>180.4</ele>
        <time>2026-05-24T09:48:23Z</time>
      </trkpt>
      <trkpt lat="48.6627" lon="2.1032">
        <ele>180.8</ele>
        <time>2026-05-24T09:48:24Z</time>
      </trkpt>
      <trkpt lat="48.66268" lon="2.10312">
        <ele>181.4</ele>
        <time>2026-05-24T09:48:25Z</time>
      </trkpt>
      <trkpt lat="48.66265" lon="2.10303">
        <ele>181.4</ele>
        <time>2026-05-24T09:48:26Z</time>
      </trkpt>
      <trkpt lat="48.66263" lon="2.10295">
        <ele>181.4</ele>
        <time>2026-05-24T09:48:27Z</time>
      </trkpt>
      <trkpt lat="48.66261" lon="2.10286">
        <ele>180.8</ele>
        <time>2026-05-24T09:48:28Z</time>
      </trkpt>
      <trkpt lat="48.66258" lon="2.10278">
        <ele>181</ele>
        <time>2026-05-24T09:48:29Z</time>
      </trkpt>
      <trkpt lat="48.66256" lon="2.10269">
        <ele>181</ele>
        <time>2026-05-24T09:48:30Z</time>
      </trkpt>
      <trkpt lat="48.66254" lon="2.10261">
        <ele>181</ele>
        <time>2026-05-24T09:48:31Z</time>
      </trkpt>
      <trkpt lat="48.66251" lon="2.10252">
        <ele>181</ele>
        <time>2026-05-24T09:48:32Z</time>
      </trkpt>
      <trkpt lat="48.66249" lon="2.10244">
        <ele>181.8</ele>
        <time>2026-05-24T09:48:33Z</time>
      </trkpt>
      <trkpt lat="48.66247" lon="2.10235">
        <ele>181.8</ele>
        <time>2026-05-24T09:48:34Z</time>
      </trkpt>
      <trkpt lat="48.66244" lon="2.10227">
        <ele>181.8</ele>
        <time>2026-05-24T09:48:35Z</time>
      </trkpt>
      <trkpt lat="48.66242" lon="2.10219">
        <ele>181.8</ele>
        <time>2026-05-24T09:48:36Z</time>
      </trkpt>
      <trkpt lat="48.66239" lon="2.1021">
        <ele>180.4</ele>
        <time>2026-05-24T09:48:37Z</time>
      </trkpt>
      <trkpt lat="48.66237" lon="2.10202">
        <ele>180.4</ele>
        <time>2026-05-24T09:48:38Z</time>
      </trkpt>
      <trkpt lat="48.66235" lon="2.10195">
        <ele>180.4</ele>
        <time>2026-05-24T09:48:39Z</time>
      </trkpt>
      <trkpt lat="48.66232" lon="2.10187">
        <ele>181.2</ele>
        <time>2026-05-24T09:48:40Z</time>
      </trkpt>
      <trkpt lat="48.66229" lon="2.10178">
        <ele>182</ele>
        <time>2026-05-24T09:48:41Z</time>
      </trkpt>
      <trkpt lat="48.66227" lon="2.1017">
        <ele>182</ele>
        <time>2026-05-24T09:48:42Z</time>
      </trkpt>
      <trkpt lat="48.66225" lon="2.10162">
        <ele>182</ele>
        <time>2026-05-24T09:48:43Z</time>
      </trkpt>
      <trkpt lat="48.66222" lon="2.10154">
        <ele>182</ele>
        <time>2026-05-24T09:48:44Z</time>
      </trkpt>
      <trkpt lat="48.6622" lon="2.10146">
        <ele>181.8</ele>
        <time>2026-05-24T09:48:45Z</time>
      </trkpt>
      <trkpt lat="48.66217" lon="2.10137">
        <ele>181.8</ele>
        <time>2026-05-24T09:48:46Z</time>
      </trkpt>
      <trkpt lat="48.66215" lon="2.10129">
        <ele>181.8</ele>
        <time>2026-05-24T09:48:47Z</time>
      </trkpt>
      <trkpt lat="48.66212" lon="2.10121">
        <ele>181.8</ele>
        <time>2026-05-24T09:48:48Z</time>
      </trkpt>
      <trkpt lat="48.6621" lon="2.10114">
        <ele>182.6</ele>
        <time>2026-05-24T09:48:49Z</time>
      </trkpt>
      <trkpt lat="48.66207" lon="2.10106">
        <ele>182.6</ele>
        <time>2026-05-24T09:48:50Z</time>
      </trkpt>
      <trkpt lat="48.66205" lon="2.10098">
        <ele>182.6</ele>
        <time>2026-05-24T09:48:51Z</time>
      </trkpt>
      <trkpt lat="48.66203" lon="2.1009">
        <ele>182</ele>
        <time>2026-05-24T09:48:52Z</time>
      </trkpt>
      <trkpt lat="48.66201" lon="2.10081">
        <ele>182.4</ele>
        <time>2026-05-24T09:48:53Z</time>
      </trkpt>
      <trkpt lat="48.66198" lon="2.10073">
        <ele>182.4</ele>
        <time>2026-05-24T09:48:54Z</time>
      </trkpt>
      <trkpt lat="48.66196" lon="2.10065">
        <ele>182.4</ele>
        <time>2026-05-24T09:48:55Z</time>
      </trkpt>
      <trkpt lat="48.66193" lon="2.10058">
        <ele>182.4</ele>
        <time>2026-05-24T09:48:56Z</time>
      </trkpt>
      <trkpt lat="48.6619" lon="2.1005">
        <ele>181.8</ele>
        <time>2026-05-24T09:48:57Z</time>
      </trkpt>
      <trkpt lat="48.66188" lon="2.10042">
        <ele>181.8</ele>
        <time>2026-05-24T09:48:58Z</time>
      </trkpt>
      <trkpt lat="48.66186" lon="2.10034">
        <ele>181.8</ele>
        <time>2026-05-24T09:48:59Z</time>
      </trkpt>
      <trkpt lat="48.66183" lon="2.10026">
        <ele>182.2</ele>
        <time>2026-05-24T09:49:00Z</time>
      </trkpt>
      <trkpt lat="48.6618" lon="2.10018">
        <ele>182.8</ele>
        <time>2026-05-24T09:49:01Z</time>
      </trkpt>
      <trkpt lat="48.66178" lon="2.1001">
        <ele>182.8</ele>
        <time>2026-05-24T09:49:02Z</time>
      </trkpt>
      <trkpt lat="48.66175" lon="2.10002">
        <ele>182.8</ele>
        <time>2026-05-24T09:49:03Z</time>
      </trkpt>
      <trkpt lat="48.66173" lon="2.09993">
        <ele>182.8</ele>
        <time>2026-05-24T09:49:04Z</time>
      </trkpt>
      <trkpt lat="48.6617" lon="2.09985">
        <ele>183.2</ele>
        <time>2026-05-24T09:49:05Z</time>
      </trkpt>
      <trkpt lat="48.66168" lon="2.09978">
        <ele>183.2</ele>
        <time>2026-05-24T09:49:06Z</time>
      </trkpt>
      <trkpt lat="48.66166" lon="2.0997">
        <ele>183.2</ele>
        <time>2026-05-24T09:49:07Z</time>
      </trkpt>
      <trkpt lat="48.66165" lon="2.09963">
        <ele>183.2</ele>
        <time>2026-05-24T09:49:08Z</time>
      </trkpt>
      <trkpt lat="48.66163" lon="2.09956">
        <ele>183.2</ele>
        <time>2026-05-24T09:49:09Z</time>
      </trkpt>
      <trkpt lat="48.6616" lon="2.09948">
        <ele>183.2</ele>
        <time>2026-05-24T09:49:10Z</time>
      </trkpt>
      <trkpt lat="48.66158" lon="2.0994">
        <ele>183.2</ele>
        <time>2026-05-24T09:49:11Z</time>
      </trkpt>
      <trkpt lat="48.66155" lon="2.09932">
        <ele>182.8</ele>
        <time>2026-05-24T09:49:12Z</time>
      </trkpt>
      <trkpt lat="48.66151" lon="2.09924">
        <ele>182</ele>
        <time>2026-05-24T09:49:13Z</time>
      </trkpt>
      <trkpt lat="48.66149" lon="2.09916">
        <ele>182</ele>
        <time>2026-05-24T09:49:14Z</time>
      </trkpt>
      <trkpt lat="48.66146" lon="2.09908">
        <ele>182</ele>
        <time>2026-05-24T09:49:15Z</time>
      </trkpt>
      <trkpt lat="48.66144" lon="2.09899">
        <ele>183</ele>
        <time>2026-05-24T09:49:16Z</time>
      </trkpt>
      <trkpt lat="48.66141" lon="2.09891">
        <ele>182.8</ele>
        <time>2026-05-24T09:49:17Z</time>
      </trkpt>
      <trkpt lat="48.66138" lon="2.09883">
        <ele>182.8</ele>
        <time>2026-05-24T09:49:18Z</time>
      </trkpt>
      <trkpt lat="48.66136" lon="2.09874">
        <ele>182.8</ele>
        <time>2026-05-24T09:49:19Z</time>
      </trkpt>
      <trkpt lat="48.66133" lon="2.09865">
        <ele>183</ele>
        <time>2026-05-24T09:49:20Z</time>
      </trkpt>
      <trkpt lat="48.66132" lon="2.09857">
        <ele>183.2</ele>
        <time>2026-05-24T09:49:21Z</time>
      </trkpt>
      <trkpt lat="48.6613" lon="2.09849">
        <ele>183.2</ele>
        <time>2026-05-24T09:49:22Z</time>
      </trkpt>
      <trkpt lat="48.66127" lon="2.0984">
        <ele>183.2</ele>
        <time>2026-05-24T09:49:23Z</time>
      </trkpt>
      <trkpt lat="48.66125" lon="2.09831">
        <ele>183.2</ele>
        <time>2026-05-24T09:49:24Z</time>
      </trkpt>
      <trkpt lat="48.66123" lon="2.09822">
        <ele>182.4</ele>
        <time>2026-05-24T09:49:25Z</time>
      </trkpt>
      <trkpt lat="48.66121" lon="2.09812">
        <ele>182.4</ele>
        <time>2026-05-24T09:49:26Z</time>
      </trkpt>
      <trkpt lat="48.66118" lon="2.09804">
        <ele>182.4</ele>
        <time>2026-05-24T09:49:27Z</time>
      </trkpt>
      <trkpt lat="48.66116" lon="2.09796">
        <ele>182.4</ele>
        <time>2026-05-24T09:49:28Z</time>
      </trkpt>
      <trkpt lat="48.66113" lon="2.09787">
        <ele>183.6</ele>
        <time>2026-05-24T09:49:29Z</time>
      </trkpt>
      <trkpt lat="48.6611" lon="2.09779">
        <ele>183.6</ele>
        <time>2026-05-24T09:49:30Z</time>
      </trkpt>
      <trkpt lat="48.66109" lon="2.0977">
        <ele>183.6</ele>
        <time>2026-05-24T09:49:31Z</time>
      </trkpt>
      <trkpt lat="48.66105" lon="2.09762">
        <ele>182.8</ele>
        <time>2026-05-24T09:49:32Z</time>
      </trkpt>
      <trkpt lat="48.66103" lon="2.09753">
        <ele>182.6</ele>
        <time>2026-05-24T09:49:33Z</time>
      </trkpt>
      <trkpt lat="48.661" lon="2.09744">
        <ele>182.6</ele>
        <time>2026-05-24T09:49:34Z</time>
      </trkpt>
      <trkpt lat="48.66098" lon="2.09736">
        <ele>182.6</ele>
        <time>2026-05-24T09:49:35Z</time>
      </trkpt>
      <trkpt lat="48.66096" lon="2.09727">
        <ele>182.6</ele>
        <time>2026-05-24T09:49:36Z</time>
      </trkpt>
      <trkpt lat="48.66094" lon="2.09718">
        <ele>182.4</ele>
        <time>2026-05-24T09:49:37Z</time>
      </trkpt>
      <trkpt lat="48.66091" lon="2.0971">
        <ele>182.4</ele>
        <time>2026-05-24T09:49:38Z</time>
      </trkpt>
      <trkpt lat="48.66089" lon="2.09701">
        <ele>182.4</ele>
        <time>2026-05-24T09:49:39Z</time>
      </trkpt>
      <trkpt lat="48.66087" lon="2.09692">
        <ele>183</ele>
        <time>2026-05-24T09:49:40Z</time>
      </trkpt>
      <trkpt lat="48.66085" lon="2.09684">
        <ele>183</ele>
        <time>2026-05-24T09:49:41Z</time>
      </trkpt>
      <trkpt lat="48.66082" lon="2.09676">
        <ele>183</ele>
        <time>2026-05-24T09:49:42Z</time>
      </trkpt>
      <trkpt lat="48.6608" lon="2.09668">
        <ele>183</ele>
        <time>2026-05-24T09:49:43Z</time>
      </trkpt>
      <trkpt lat="48.66077" lon="2.0966">
        <ele>183</ele>
        <time>2026-05-24T09:49:44Z</time>
      </trkpt>
      <trkpt lat="48.66075" lon="2.09652">
        <ele>182.4</ele>
        <time>2026-05-24T09:49:45Z</time>
      </trkpt>
      <trkpt lat="48.66073" lon="2.09644">
        <ele>182.4</ele>
        <time>2026-05-24T09:49:46Z</time>
      </trkpt>
      <trkpt lat="48.6607" lon="2.09636">
        <ele>182.4</ele>
        <time>2026-05-24T09:49:47Z</time>
      </trkpt>
      <trkpt lat="48.66068" lon="2.09628">
        <ele>182.4</ele>
        <time>2026-05-24T09:49:48Z</time>
      </trkpt>
      <trkpt lat="48.66066" lon="2.0962">
        <ele>183.2</ele>
        <time>2026-05-24T09:49:49Z</time>
      </trkpt>
      <trkpt lat="48.66064" lon="2.09612">
        <ele>183.2</ele>
        <time>2026-05-24T09:49:50Z</time>
      </trkpt>
      <trkpt lat="48.66061" lon="2.09604">
        <ele>183.2</ele>
        <time>2026-05-24T09:49:51Z</time>
      </trkpt>
      <trkpt lat="48.66058" lon="2.09596">
        <ele>183</ele>
        <time>2026-05-24T09:49:52Z</time>
      </trkpt>
      <trkpt lat="48.66056" lon="2.09587">
        <ele>182.8</ele>
        <time>2026-05-24T09:49:53Z</time>
      </trkpt>
      <trkpt lat="48.66053" lon="2.09578">
        <ele>182.8</ele>
        <time>2026-05-24T09:49:54Z</time>
      </trkpt>
      <trkpt lat="48.66051" lon="2.0957">
        <ele>182.8</ele>
        <time>2026-05-24T09:49:55Z</time>
      </trkpt>
      <trkpt lat="48.66049" lon="2.09562">
        <ele>182.8</ele>
        <time>2026-05-24T09:49:56Z</time>
      </trkpt>
      <trkpt lat="48.66046" lon="2.09554">
        <ele>183</ele>
        <time>2026-05-24T09:49:57Z</time>
      </trkpt>
      <trkpt lat="48.66044" lon="2.09546">
        <ele>183</ele>
        <time>2026-05-24T09:49:58Z</time>
      </trkpt>
      <trkpt lat="48.66042" lon="2.09537">
        <ele>183</ele>
        <time>2026-05-24T09:49:59Z</time>
      </trkpt>
      <trkpt lat="48.66039" lon="2.0953">
        <ele>183</ele>
        <time>2026-05-24T09:50:00Z</time>
      </trkpt>
      <trkpt lat="48.66036" lon="2.09522">
        <ele>181.4</ele>
        <time>2026-05-24T09:50:01Z</time>
      </trkpt>
      <trkpt lat="48.66033" lon="2.09513">
        <ele>181.4</ele>
        <time>2026-05-24T09:50:02Z</time>
      </trkpt>
      <trkpt lat="48.66031" lon="2.09505">
        <ele>181.4</ele>
        <time>2026-05-24T09:50:03Z</time>
      </trkpt>
      <trkpt lat="48.66028" lon="2.09496">
        <ele>182.4</ele>
        <time>2026-05-24T09:50:04Z</time>
      </trkpt>
      <trkpt lat="48.66026" lon="2.09488">
        <ele>182.4</ele>
        <time>2026-05-24T09:50:05Z</time>
      </trkpt>
      <trkpt lat="48.66024" lon="2.09481">
        <ele>182.4</ele>
        <time>2026-05-24T09:50:06Z</time>
      </trkpt>
      <trkpt lat="48.66022" lon="2.09473">
        <ele>182.4</ele>
        <time>2026-05-24T09:50:07Z</time>
      </trkpt>
      <trkpt lat="48.6602" lon="2.09465">
        <ele>182.6</ele>
        <time>2026-05-24T09:50:08Z</time>
      </trkpt>
      <trkpt lat="48.66017" lon="2.09457">
        <ele>182.6</ele>
        <time>2026-05-24T09:50:09Z</time>
      </trkpt>
      <trkpt lat="48.66015" lon="2.09449">
        <ele>182.6</ele>
        <time>2026-05-24T09:50:10Z</time>
      </trkpt>
      <trkpt lat="48.66012" lon="2.0944">
        <ele>182.6</ele>
        <time>2026-05-24T09:50:11Z</time>
      </trkpt>
      <trkpt lat="48.66009" lon="2.09432">
        <ele>182.6</ele>
        <time>2026-05-24T09:50:12Z</time>
      </trkpt>
      <trkpt lat="48.66007" lon="2.09424">
        <ele>182.6</ele>
        <time>2026-05-24T09:50:13Z</time>
      </trkpt>
      <trkpt lat="48.66004" lon="2.09416">
        <ele>182.6</ele>
        <time>2026-05-24T09:50:14Z</time>
      </trkpt>
      <trkpt lat="48.66001" lon="2.09407">
        <ele>182.6</ele>
        <time>2026-05-24T09:50:15Z</time>
      </trkpt>
      <trkpt lat="48.65999" lon="2.09398">
        <ele>182.6</ele>
        <time>2026-05-24T09:50:16Z</time>
      </trkpt>
      <trkpt lat="48.65997" lon="2.0939">
        <ele>182.8</ele>
        <time>2026-05-24T09:50:17Z</time>
      </trkpt>
      <trkpt lat="48.65994" lon="2.09382">
        <ele>182.8</ele>
        <time>2026-05-24T09:50:18Z</time>
      </trkpt>
      <trkpt lat="48.65991" lon="2.09374">
        <ele>182.8</ele>
        <time>2026-05-24T09:50:19Z</time>
      </trkpt>
      <trkpt lat="48.6599" lon="2.09367">
        <ele>182.8</ele>
        <time>2026-05-24T09:50:20Z</time>
      </trkpt>
      <trkpt lat="48.65987" lon="2.09359">
        <ele>184.2</ele>
        <time>2026-05-24T09:50:21Z</time>
      </trkpt>
      <trkpt lat="48.65985" lon="2.09352">
        <ele>184.2</ele>
        <time>2026-05-24T09:50:22Z</time>
      </trkpt>
      <trkpt lat="48.65983" lon="2.09344">
        <ele>184.2</ele>
        <time>2026-05-24T09:50:23Z</time>
      </trkpt>
      <trkpt lat="48.65981" lon="2.09338">
        <ele>183.2</ele>
        <time>2026-05-24T09:50:24Z</time>
      </trkpt>
      <trkpt lat="48.65979" lon="2.09336">
        <ele>182.8</ele>
        <time>2026-05-24T09:50:25Z</time>
      </trkpt>
      <trkpt lat="48.65977" lon="2.09336">
        <ele>182.8</ele>
        <time>2026-05-24T09:50:26Z</time>
      </trkpt>
      <trkpt lat="48.65975" lon="2.09338">
        <ele>182.8</ele>
        <time>2026-05-24T09:50:27Z</time>
      </trkpt>
      <trkpt lat="48.65974" lon="2.09339">
        <ele>182.8</ele>
        <time>2026-05-24T09:50:28Z</time>
      </trkpt>
      <trkpt lat="48.65973" lon="2.0934">
        <ele>183.8</ele>
        <time>2026-05-24T09:50:29Z</time>
      </trkpt>
      <trkpt lat="48.65973" lon="2.09343">
        <ele>183.8</ele>
        <time>2026-05-24T09:50:30Z</time>
      </trkpt>
      <trkpt lat="48.65971" lon="2.09345">
        <ele>183.8</ele>
        <time>2026-05-24T09:50:31Z</time>
      </trkpt>
      <trkpt lat="48.65968" lon="2.09346">
        <ele>183.8</ele>
        <time>2026-05-24T09:50:32Z</time>
      </trkpt>
      <trkpt lat="48.65964" lon="2.09346">
        <ele>184</ele>
        <time>2026-05-24T09:50:33Z</time>
      </trkpt>
      <trkpt lat="48.65959" lon="2.09346">
        <ele>184</ele>
        <time>2026-05-24T09:50:34Z</time>
      </trkpt>
      <trkpt lat="48.65955" lon="2.09345">
        <ele>184</ele>
        <time>2026-05-24T09:50:35Z</time>
      </trkpt>
      <trkpt lat="48.6595" lon="2.09344">
        <ele>183.2</ele>
        <time>2026-05-24T09:50:36Z</time>
      </trkpt>
      <trkpt lat="48.65946" lon="2.09343">
        <ele>183.6</ele>
        <time>2026-05-24T09:50:37Z</time>
      </trkpt>
      <trkpt lat="48.65941" lon="2.09342">
        <ele>183.6</ele>
        <time>2026-05-24T09:50:38Z</time>
      </trkpt>
      <trkpt lat="48.65936" lon="2.09341">
        <ele>183.6</ele>
        <time>2026-05-24T09:50:39Z</time>
      </trkpt>
      <trkpt lat="48.65931" lon="2.0934">
        <ele>184.2</ele>
        <time>2026-05-24T09:50:40Z</time>
      </trkpt>
      <trkpt lat="48.65926" lon="2.09339">
        <ele>183</ele>
        <time>2026-05-24T09:50:41Z</time>
      </trkpt>
      <trkpt lat="48.65921" lon="2.09338">
        <ele>183</ele>
        <time>2026-05-24T09:50:42Z</time>
      </trkpt>
      <trkpt lat="48.65917" lon="2.09338">
        <ele>183</ele>
        <time>2026-05-24T09:50:43Z</time>
      </trkpt>
      <trkpt lat="48.65912" lon="2.09337">
        <ele>183.4</ele>
        <time>2026-05-24T09:50:44Z</time>
      </trkpt>
      <trkpt lat="48.65907" lon="2.09337">
        <ele>183.2</ele>
        <time>2026-05-24T09:50:45Z</time>
      </trkpt>
      <trkpt lat="48.65901" lon="2.09336">
        <ele>183.2</ele>
        <time>2026-05-24T09:50:46Z</time>
      </trkpt>
      <trkpt lat="48.65896" lon="2.09336">
        <ele>183.2</ele>
        <time>2026-05-24T09:50:47Z</time>
      </trkpt>
      <trkpt lat="48.65891" lon="2.09335">
        <ele>184</ele>
        <time>2026-05-24T09:50:48Z</time>
      </trkpt>
      <trkpt lat="48.65886" lon="2.09334">
        <ele>183.6</ele>
        <time>2026-05-24T09:50:49Z</time>
      </trkpt>
      <trkpt lat="48.65881" lon="2.09333">
        <ele>183.6</ele>
        <time>2026-05-24T09:50:50Z</time>
      </trkpt>
      <trkpt lat="48.65876" lon="2.09331">
        <ele>183.6</ele>
        <time>2026-05-24T09:50:51Z</time>
      </trkpt>
      <trkpt lat="48.65872" lon="2.09329">
        <ele>183.6</ele>
        <time>2026-05-24T09:50:52Z</time>
      </trkpt>
      <trkpt lat="48.65867" lon="2.09326">
        <ele>182.8</ele>
        <time>2026-05-24T09:50:53Z</time>
      </trkpt>
      <trkpt lat="48.65862" lon="2.09324">
        <ele>182.8</ele>
        <time>2026-05-24T09:50:54Z</time>
      </trkpt>
      <trkpt lat="48.65857" lon="2.09322">
        <ele>182.8</ele>
        <time>2026-05-24T09:50:55Z</time>
      </trkpt>
      <trkpt lat="48.65852" lon="2.0932">
        <ele>183.8</ele>
        <time>2026-05-24T09:50:56Z</time>
      </trkpt>
      <trkpt lat="48.65846" lon="2.09319">
        <ele>183.6</ele>
        <time>2026-05-24T09:50:57Z</time>
      </trkpt>
      <trkpt lat="48.6584" lon="2.09319">
        <ele>183.6</ele>
        <time>2026-05-24T09:50:58Z</time>
      </trkpt>
      <trkpt lat="48.65834" lon="2.0932">
        <ele>183.6</ele>
        <time>2026-05-24T09:50:59Z</time>
      </trkpt>
      <trkpt lat="48.65828" lon="2.09321">
        <ele>183.8</ele>
        <time>2026-05-24T09:51:00Z</time>
      </trkpt>
      <trkpt lat="48.65822" lon="2.09322">
        <ele>183.6</ele>
        <time>2026-05-24T09:51:01Z</time>
      </trkpt>
      <trkpt lat="48.65816" lon="2.09323">
        <ele>183.6</ele>
        <time>2026-05-24T09:51:02Z</time>
      </trkpt>
      <trkpt lat="48.6581" lon="2.09325">
        <ele>183.6</ele>
        <time>2026-05-24T09:51:03Z</time>
      </trkpt>
      <trkpt lat="48.65803" lon="2.09327">
        <ele>183.6</ele>
        <time>2026-05-24T09:51:04Z</time>
      </trkpt>
      <trkpt lat="48.65797" lon="2.09329">
        <ele>183.8</ele>
        <time>2026-05-24T09:51:05Z</time>
      </trkpt>
      <trkpt lat="48.65791" lon="2.09331">
        <ele>183.8</ele>
        <time>2026-05-24T09:51:06Z</time>
      </trkpt>
      <trkpt lat="48.65785" lon="2.09333">
        <ele>183.8</ele>
        <time>2026-05-24T09:51:07Z</time>
      </trkpt>
      <trkpt lat="48.65779" lon="2.09336">
        <ele>183.8</ele>
        <time>2026-05-24T09:51:08Z</time>
      </trkpt>
      <trkpt lat="48.65773" lon="2.09338">
        <ele>183.2</ele>
        <time>2026-05-24T09:51:09Z</time>
      </trkpt>
      <trkpt lat="48.65767" lon="2.09342">
        <ele>183.2</ele>
        <time>2026-05-24T09:51:10Z</time>
      </trkpt>
      <trkpt lat="48.65761" lon="2.09345">
        <ele>183.2</ele>
        <time>2026-05-24T09:51:11Z</time>
      </trkpt>
      <trkpt lat="48.65755" lon="2.09348">
        <ele>183.6</ele>
        <time>2026-05-24T09:51:12Z</time>
      </trkpt>
      <trkpt lat="48.65749" lon="2.09352">
        <ele>183.4</ele>
        <time>2026-05-24T09:51:13Z</time>
      </trkpt>
      <trkpt lat="48.65743" lon="2.09355">
        <ele>183.4</ele>
        <time>2026-05-24T09:51:14Z</time>
      </trkpt>
      <trkpt lat="48.65737" lon="2.09359">
        <ele>183.4</ele>
        <time>2026-05-24T09:51:15Z</time>
      </trkpt>
      <trkpt lat="48.65731" lon="2.09363">
        <ele>183.4</ele>
        <time>2026-05-24T09:51:16Z</time>
      </trkpt>
      <trkpt lat="48.65725" lon="2.09367">
        <ele>184.2</ele>
        <time>2026-05-24T09:51:17Z</time>
      </trkpt>
      <trkpt lat="48.65719" lon="2.09371">
        <ele>184.2</ele>
        <time>2026-05-24T09:51:18Z</time>
      </trkpt>
      <trkpt lat="48.65713" lon="2.09376">
        <ele>184.2</ele>
        <time>2026-05-24T09:51:19Z</time>
      </trkpt>
      <trkpt lat="48.65707" lon="2.09381">
        <ele>184.2</ele>
        <time>2026-05-24T09:51:20Z</time>
      </trkpt>
      <trkpt lat="48.65701" lon="2.09386">
        <ele>184.2</ele>
        <time>2026-05-24T09:51:21Z</time>
      </trkpt>
      <trkpt lat="48.65696" lon="2.09391">
        <ele>184.2</ele>
        <time>2026-05-24T09:51:22Z</time>
      </trkpt>
      <trkpt lat="48.6569" lon="2.09396">
        <ele>184.2</ele>
        <time>2026-05-24T09:51:23Z</time>
      </trkpt>
      <trkpt lat="48.65685" lon="2.09402">
        <ele>183.8</ele>
        <time>2026-05-24T09:51:24Z</time>
      </trkpt>
      <trkpt lat="48.6568" lon="2.09407">
        <ele>183.8</ele>
        <time>2026-05-24T09:51:25Z</time>
      </trkpt>
      <trkpt lat="48.65674" lon="2.09413">
        <ele>183.8</ele>
        <time>2026-05-24T09:51:26Z</time>
      </trkpt>
      <trkpt lat="48.65669" lon="2.09419">
        <ele>183.8</ele>
        <time>2026-05-24T09:51:27Z</time>
      </trkpt>
      <trkpt lat="48.65663" lon="2.09425">
        <ele>183.8</ele>
        <time>2026-05-24T09:51:28Z</time>
      </trkpt>
      <trkpt lat="48.65658" lon="2.09432">
        <ele>183.6</ele>
        <time>2026-05-24T09:51:29Z</time>
      </trkpt>
      <trkpt lat="48.65652" lon="2.09438">
        <ele>183.6</ele>
        <time>2026-05-24T09:51:30Z</time>
      </trkpt>
      <trkpt lat="48.65647" lon="2.09445">
        <ele>183.6</ele>
        <time>2026-05-24T09:51:31Z</time>
      </trkpt>
      <trkpt lat="48.65642" lon="2.09452">
        <ele>183.2</ele>
        <time>2026-05-24T09:51:32Z</time>
      </trkpt>
      <trkpt lat="48.65638" lon="2.09459">
        <ele>182.8</ele>
        <time>2026-05-24T09:51:33Z</time>
      </trkpt>
      <trkpt lat="48.65634" lon="2.09467">
        <ele>182.8</ele>
        <time>2026-05-24T09:51:34Z</time>
      </trkpt>
      <trkpt lat="48.65629" lon="2.09474">
        <ele>182.8</ele>
        <time>2026-05-24T09:51:35Z</time>
      </trkpt>
      <trkpt lat="48.65625" lon="2.09481">
        <ele>182.8</ele>
        <time>2026-05-24T09:51:36Z</time>
      </trkpt>
      <trkpt lat="48.6562" lon="2.09487">
        <ele>183.2</ele>
        <time>2026-05-24T09:51:37Z</time>
      </trkpt>
      <trkpt lat="48.65615" lon="2.09493">
        <ele>183.2</ele>
        <time>2026-05-24T09:51:38Z</time>
      </trkpt>
      <trkpt lat="48.6561" lon="2.09499">
        <ele>183.2</ele>
        <time>2026-05-24T09:51:39Z</time>
      </trkpt>
      <trkpt lat="48.65604" lon="2.09503">
        <ele>183.2</ele>
        <time>2026-05-24T09:51:40Z</time>
      </trkpt>
      <trkpt lat="48.65598" lon="2.09508">
        <ele>183.4</ele>
        <time>2026-05-24T09:51:41Z</time>
      </trkpt>
      <trkpt lat="48.65593" lon="2.09513">
        <ele>183.4</ele>
        <time>2026-05-24T09:51:42Z</time>
      </trkpt>
      <trkpt lat="48.65587" lon="2.09518">
        <ele>183.4</ele>
        <time>2026-05-24T09:51:43Z</time>
      </trkpt>
      <trkpt lat="48.65581" lon="2.09523">
        <ele>183.4</ele>
        <time>2026-05-24T09:51:44Z</time>
      </trkpt>
      <trkpt lat="48.65576" lon="2.09527">
        <ele>183.2</ele>
        <time>2026-05-24T09:51:45Z</time>
      </trkpt>
      <trkpt lat="48.6557" lon="2.09532">
        <ele>183.2</ele>
        <time>2026-05-24T09:51:46Z</time>
      </trkpt>
      <trkpt lat="48.65564" lon="2.09536">
        <ele>183.2</ele>
        <time>2026-05-24T09:51:47Z</time>
      </trkpt>
      <trkpt lat="48.65558" lon="2.09541">
        <ele>183.2</ele>
        <time>2026-05-24T09:51:48Z</time>
      </trkpt>
      <trkpt lat="48.65552" lon="2.09546">
        <ele>183.6</ele>
        <time>2026-05-24T09:51:49Z</time>
      </trkpt>
      <trkpt lat="48.65546" lon="2.09552">
        <ele>183.6</ele>
        <time>2026-05-24T09:51:50Z</time>
      </trkpt>
      <trkpt lat="48.6554" lon="2.09557">
        <ele>183.6</ele>
        <time>2026-05-24T09:51:51Z</time>
      </trkpt>
      <trkpt lat="48.65534" lon="2.09562">
        <ele>183.6</ele>
        <time>2026-05-24T09:51:52Z</time>
      </trkpt>
      <trkpt lat="48.65528" lon="2.09568">
        <ele>183.2</ele>
        <time>2026-05-24T09:51:53Z</time>
      </trkpt>
      <trkpt lat="48.65522" lon="2.09573">
        <ele>183.2</ele>
        <time>2026-05-24T09:51:54Z</time>
      </trkpt>
      <trkpt lat="48.65517" lon="2.0958">
        <ele>183.2</ele>
        <time>2026-05-24T09:51:55Z</time>
      </trkpt>
      <trkpt lat="48.65511" lon="2.09586">
        <ele>183.2</ele>
        <time>2026-05-24T09:51:56Z</time>
      </trkpt>
      <trkpt lat="48.65506" lon="2.09593">
        <ele>183</ele>
        <time>2026-05-24T09:51:57Z</time>
      </trkpt>
      <trkpt lat="48.65501" lon="2.09599">
        <ele>183</ele>
        <time>2026-05-24T09:51:58Z</time>
      </trkpt>
      <trkpt lat="48.65496" lon="2.09606">
        <ele>183</ele>
        <time>2026-05-24T09:51:59Z</time>
      </trkpt>
      <trkpt lat="48.65491" lon="2.09612">
        <ele>183.2</ele>
        <time>2026-05-24T09:52:00Z</time>
      </trkpt>
      <trkpt lat="48.65486" lon="2.09619">
        <ele>183.2</ele>
        <time>2026-05-24T09:52:01Z</time>
      </trkpt>
      <trkpt lat="48.6548" lon="2.09626">
        <ele>183.2</ele>
        <time>2026-05-24T09:52:02Z</time>
      </trkpt>
      <trkpt lat="48.65476" lon="2.09633">
        <ele>183.2</ele>
        <time>2026-05-24T09:52:03Z</time>
      </trkpt>
      <trkpt lat="48.65471" lon="2.09641">
        <ele>183.2</ele>
        <time>2026-05-24T09:52:04Z</time>
      </trkpt>
      <trkpt lat="48.65466" lon="2.09648">
        <ele>182.8</ele>
        <time>2026-05-24T09:52:05Z</time>
      </trkpt>
      <trkpt lat="48.65461" lon="2.09655">
        <ele>182.8</ele>
        <time>2026-05-24T09:52:06Z</time>
      </trkpt>
      <trkpt lat="48.65456" lon="2.09662">
        <ele>182.8</ele>
        <time>2026-05-24T09:52:07Z</time>
      </trkpt>
      <trkpt lat="48.65451" lon="2.0967">
        <ele>182.8</ele>
        <time>2026-05-24T09:52:08Z</time>
      </trkpt>
      <trkpt lat="48.65445" lon="2.09677">
        <ele>182.6</ele>
        <time>2026-05-24T09:52:09Z</time>
      </trkpt>
      <trkpt lat="48.6544" lon="2.09684">
        <ele>182.6</ele>
        <time>2026-05-24T09:52:10Z</time>
      </trkpt>
      <trkpt lat="48.65435" lon="2.09692">
        <ele>182.6</ele>
        <time>2026-05-24T09:52:11Z</time>
      </trkpt>
      <trkpt lat="48.6543" lon="2.09699">
        <ele>183.2</ele>
        <time>2026-05-24T09:52:12Z</time>
      </trkpt>
      <trkpt lat="48.65425" lon="2.09707">
        <ele>182.4</ele>
        <time>2026-05-24T09:52:13Z</time>
      </trkpt>
      <trkpt lat="48.65419" lon="2.09714">
        <ele>182.4</ele>
        <time>2026-05-24T09:52:14Z</time>
      </trkpt>
      <trkpt lat="48.65414" lon="2.09721">
        <ele>182.4</ele>
        <time>2026-05-24T09:52:15Z</time>
      </trkpt>
      <trkpt lat="48.65408" lon="2.09729">
        <ele>182.4</ele>
        <time>2026-05-24T09:52:16Z</time>
      </trkpt>
      <trkpt lat="48.65403" lon="2.09737">
        <ele>182.2</ele>
        <time>2026-05-24T09:52:17Z</time>
      </trkpt>
      <trkpt lat="48.65398" lon="2.09745">
        <ele>182.2</ele>
        <time>2026-05-24T09:52:18Z</time>
      </trkpt>
      <trkpt lat="48.65393" lon="2.09753">
        <ele>182.2</ele>
        <time>2026-05-24T09:52:19Z</time>
      </trkpt>
      <trkpt lat="48.65387" lon="2.09761">
        <ele>182.2</ele>
        <time>2026-05-24T09:52:20Z</time>
      </trkpt>
      <trkpt lat="48.65382" lon="2.09769">
        <ele>181.8</ele>
        <time>2026-05-24T09:52:21Z</time>
      </trkpt>
      <trkpt lat="48.65377" lon="2.09777">
        <ele>181.8</ele>
        <time>2026-05-24T09:52:22Z</time>
      </trkpt>
      <trkpt lat="48.65371" lon="2.09785">
        <ele>181.8</ele>
        <time>2026-05-24T09:52:23Z</time>
      </trkpt>
      <trkpt lat="48.65366" lon="2.09793">
        <ele>181.8</ele>
        <time>2026-05-24T09:52:24Z</time>
      </trkpt>
      <trkpt lat="48.6536" lon="2.09801">
        <ele>182.6</ele>
        <time>2026-05-24T09:52:25Z</time>
      </trkpt>
      <trkpt lat="48.65355" lon="2.09809">
        <ele>182.6</ele>
        <time>2026-05-24T09:52:26Z</time>
      </trkpt>
      <trkpt lat="48.6535" lon="2.09817">
        <ele>182.6</ele>
        <time>2026-05-24T09:52:27Z</time>
      </trkpt>
      <trkpt lat="48.65344" lon="2.09825">
        <ele>182.6</ele>
        <time>2026-05-24T09:52:28Z</time>
      </trkpt>
      <trkpt lat="48.65339" lon="2.09833">
        <ele>181.2</ele>
        <time>2026-05-24T09:52:29Z</time>
      </trkpt>
      <trkpt lat="48.65333" lon="2.09841">
        <ele>181.2</ele>
        <time>2026-05-24T09:52:30Z</time>
      </trkpt>
      <trkpt lat="48.65328" lon="2.09849">
        <ele>181.2</ele>
        <time>2026-05-24T09:52:31Z</time>
      </trkpt>
      <trkpt lat="48.65323" lon="2.09857">
        <ele>182.2</ele>
        <time>2026-05-24T09:52:32Z</time>
      </trkpt>
      <trkpt lat="48.65318" lon="2.09865">
        <ele>182.2</ele>
        <time>2026-05-24T09:52:33Z</time>
      </trkpt>
      <trkpt lat="48.65312" lon="2.09872">
        <ele>182.2</ele>
        <time>2026-05-24T09:52:34Z</time>
      </trkpt>
      <trkpt lat="48.65306" lon="2.09879">
        <ele>182.2</ele>
        <time>2026-05-24T09:52:35Z</time>
      </trkpt>
      <trkpt lat="48.65301" lon="2.09886">
        <ele>182.2</ele>
        <time>2026-05-24T09:52:36Z</time>
      </trkpt>
      <trkpt lat="48.65295" lon="2.09893">
        <ele>181</ele>
        <time>2026-05-24T09:52:37Z</time>
      </trkpt>
      <trkpt lat="48.65289" lon="2.099">
        <ele>181</ele>
        <time>2026-05-24T09:52:38Z</time>
      </trkpt>
      <trkpt lat="48.65284" lon="2.09908">
        <ele>181</ele>
        <time>2026-05-24T09:52:39Z</time>
      </trkpt>
      <trkpt lat="48.65279" lon="2.09915">
        <ele>181</ele>
        <time>2026-05-24T09:52:40Z</time>
      </trkpt>
      <trkpt lat="48.65274" lon="2.09922">
        <ele>181.2</ele>
        <time>2026-05-24T09:52:41Z</time>
      </trkpt>
      <trkpt lat="48.65268" lon="2.09929">
        <ele>181.2</ele>
        <time>2026-05-24T09:52:42Z</time>
      </trkpt>
      <trkpt lat="48.65263" lon="2.09936">
        <ele>181.2</ele>
        <time>2026-05-24T09:52:43Z</time>
      </trkpt>
      <trkpt lat="48.65258" lon="2.09943">
        <ele>181.2</ele>
        <time>2026-05-24T09:52:44Z</time>
      </trkpt>
      <trkpt lat="48.65253" lon="2.0995">
        <ele>181.2</ele>
        <time>2026-05-24T09:52:45Z</time>
      </trkpt>
      <trkpt lat="48.65248" lon="2.09957">
        <ele>181.2</ele>
        <time>2026-05-24T09:52:46Z</time>
      </trkpt>
      <trkpt lat="48.65243" lon="2.09964">
        <ele>181.2</ele>
        <time>2026-05-24T09:52:47Z</time>
      </trkpt>
      <trkpt lat="48.65238" lon="2.09971">
        <ele>181.2</ele>
        <time>2026-05-24T09:52:48Z</time>
      </trkpt>
      <trkpt lat="48.65233" lon="2.09978">
        <ele>180.8</ele>
        <time>2026-05-24T09:52:49Z</time>
      </trkpt>
      <trkpt lat="48.65228" lon="2.09985">
        <ele>180.8</ele>
        <time>2026-05-24T09:52:50Z</time>
      </trkpt>
      <trkpt lat="48.65223" lon="2.09991">
        <ele>180.8</ele>
        <time>2026-05-24T09:52:51Z</time>
      </trkpt>
      <trkpt lat="48.65217" lon="2.09998">
        <ele>180.8</ele>
        <time>2026-05-24T09:52:52Z</time>
      </trkpt>
      <trkpt lat="48.65212" lon="2.10005">
        <ele>181.2</ele>
        <time>2026-05-24T09:52:53Z</time>
      </trkpt>
      <trkpt lat="48.65207" lon="2.10011">
        <ele>181.2</ele>
        <time>2026-05-24T09:52:54Z</time>
      </trkpt>
      <trkpt lat="48.65202" lon="2.10018">
        <ele>181.2</ele>
        <time>2026-05-24T09:52:55Z</time>
      </trkpt>
      <trkpt lat="48.65197" lon="2.10025">
        <ele>181</ele>
        <time>2026-05-24T09:52:56Z</time>
      </trkpt>
      <trkpt lat="48.65192" lon="2.10032">
        <ele>180.8</ele>
        <time>2026-05-24T09:52:57Z</time>
      </trkpt>
      <trkpt lat="48.65187" lon="2.10039">
        <ele>180.8</ele>
        <time>2026-05-24T09:52:58Z</time>
      </trkpt>
      <trkpt lat="48.65182" lon="2.10047">
        <ele>180.8</ele>
        <time>2026-05-24T09:52:59Z</time>
      </trkpt>
      <trkpt lat="48.65177" lon="2.10054">
        <ele>180.8</ele>
        <time>2026-05-24T09:53:00Z</time>
      </trkpt>
      <trkpt lat="48.65173" lon="2.10062">
        <ele>180.2</ele>
        <time>2026-05-24T09:53:01Z</time>
      </trkpt>
      <trkpt lat="48.65168" lon="2.10069">
        <ele>180.2</ele>
        <time>2026-05-24T09:53:02Z</time>
      </trkpt>
      <trkpt lat="48.65163" lon="2.10076">
        <ele>180.2</ele>
        <time>2026-05-24T09:53:03Z</time>
      </trkpt>
      <trkpt lat="48.65158" lon="2.10084">
        <ele>180.2</ele>
        <time>2026-05-24T09:53:04Z</time>
      </trkpt>
      <trkpt lat="48.65153" lon="2.10091">
        <ele>180.6</ele>
        <time>2026-05-24T09:53:05Z</time>
      </trkpt>
      <trkpt lat="48.65148" lon="2.10099">
        <ele>180.6</ele>
        <time>2026-05-24T09:53:06Z</time>
      </trkpt>
      <trkpt lat="48.65144" lon="2.10107">
        <ele>180.6</ele>
        <time>2026-05-24T09:53:07Z</time>
      </trkpt>
      <trkpt lat="48.65139" lon="2.10114">
        <ele>180.6</ele>
        <time>2026-05-24T09:53:08Z</time>
      </trkpt>
      <trkpt lat="48.65134" lon="2.10121">
        <ele>180.6</ele>
        <time>2026-05-24T09:53:09Z</time>
      </trkpt>
      <trkpt lat="48.65129" lon="2.10129">
        <ele>180.6</ele>
        <time>2026-05-24T09:53:10Z</time>
      </trkpt>
      <trkpt lat="48.65125" lon="2.10136">
        <ele>180.6</ele>
        <time>2026-05-24T09:53:11Z</time>
      </trkpt>
      <trkpt lat="48.6512" lon="2.10143">
        <ele>180.4</ele>
        <time>2026-05-24T09:53:12Z</time>
      </trkpt>
      <trkpt lat="48.65115" lon="2.10151">
        <ele>180.4</ele>
        <time>2026-05-24T09:53:13Z</time>
      </trkpt>
      <trkpt lat="48.65111" lon="2.10158">
        <ele>180.4</ele>
        <time>2026-05-24T09:53:14Z</time>
      </trkpt>
      <trkpt lat="48.65105" lon="2.10164">
        <ele>180.4</ele>
        <time>2026-05-24T09:53:15Z</time>
      </trkpt>
      <trkpt lat="48.65099" lon="2.10168">
        <ele>180.4</ele>
        <time>2026-05-24T09:53:16Z</time>
      </trkpt>
      <trkpt lat="48.65093" lon="2.1017">
        <ele>180</ele>
        <time>2026-05-24T09:53:17Z</time>
      </trkpt>
      <trkpt lat="48.65087" lon="2.10175">
        <ele>180</ele>
        <time>2026-05-24T09:53:18Z</time>
      </trkpt>
      <trkpt lat="48.65083" lon="2.10182">
        <ele>180</ele>
        <time>2026-05-24T09:53:19Z</time>
      </trkpt>
      <trkpt lat="48.6508" lon="2.10191">
        <ele>180</ele>
        <time>2026-05-24T09:53:20Z</time>
      </trkpt>
      <trkpt lat="48.65077" lon="2.102">
        <ele>179.4</ele>
        <time>2026-05-24T09:53:21Z</time>
      </trkpt>
      <trkpt lat="48.65074" lon="2.10209">
        <ele>179.4</ele>
        <time>2026-05-24T09:53:22Z</time>
      </trkpt>
      <trkpt lat="48.6507" lon="2.10217">
        <ele>179.4</ele>
        <time>2026-05-24T09:53:23Z</time>
      </trkpt>
      <trkpt lat="48.65066" lon="2.10225">
        <ele>180</ele>
        <time>2026-05-24T09:53:24Z</time>
      </trkpt>
      <trkpt lat="48.65062" lon="2.10233">
        <ele>179.6</ele>
        <time>2026-05-24T09:53:25Z</time>
      </trkpt>
      <trkpt lat="48.65058" lon="2.1024">
        <ele>179.6</ele>
        <time>2026-05-24T09:53:26Z</time>
      </trkpt>
      <trkpt lat="48.65055" lon="2.10248">
        <ele>179.6</ele>
        <time>2026-05-24T09:53:27Z</time>
      </trkpt>
      <trkpt lat="48.65051" lon="2.10256">
        <ele>179.8</ele>
        <time>2026-05-24T09:53:28Z</time>
      </trkpt>
      <trkpt lat="48.65048" lon="2.10263">
        <ele>180</ele>
        <time>2026-05-24T09:53:29Z</time>
      </trkpt>
      <trkpt lat="48.65044" lon="2.10271">
        <ele>180</ele>
        <time>2026-05-24T09:53:30Z</time>
      </trkpt>
      <trkpt lat="48.6504" lon="2.10278">
        <ele>180</ele>
        <time>2026-05-24T09:53:31Z</time>
      </trkpt>
      <trkpt lat="48.65036" lon="2.10285">
        <ele>180</ele>
        <time>2026-05-24T09:53:32Z</time>
      </trkpt>
      <trkpt lat="48.65033" lon="2.10293">
        <ele>179.8</ele>
        <time>2026-05-24T09:53:33Z</time>
      </trkpt>
      <trkpt lat="48.65029" lon="2.103">
        <ele>179.8</ele>
        <time>2026-05-24T09:53:34Z</time>
      </trkpt>
      <trkpt lat="48.65026" lon="2.10307">
        <ele>179.8</ele>
        <time>2026-05-24T09:53:35Z</time>
      </trkpt>
      <trkpt lat="48.65022" lon="2.10314">
        <ele>179.8</ele>
        <time>2026-05-24T09:53:36Z</time>
      </trkpt>
      <trkpt lat="48.65019" lon="2.10321">
        <ele>179.6</ele>
        <time>2026-05-24T09:53:37Z</time>
      </trkpt>
      <trkpt lat="48.65015" lon="2.10328">
        <ele>179.6</ele>
        <time>2026-05-24T09:53:38Z</time>
      </trkpt>
      <trkpt lat="48.65011" lon="2.10335">
        <ele>179.6</ele>
        <time>2026-05-24T09:53:39Z</time>
      </trkpt>
      <trkpt lat="48.65008" lon="2.10342">
        <ele>179.8</ele>
        <time>2026-05-24T09:53:40Z</time>
      </trkpt>
      <trkpt lat="48.65004" lon="2.10349">
        <ele>179.2</ele>
        <time>2026-05-24T09:53:41Z</time>
      </trkpt>
      <trkpt lat="48.65" lon="2.10356">
        <ele>179.2</ele>
        <time>2026-05-24T09:53:42Z</time>
      </trkpt>
      <trkpt lat="48.64997" lon="2.10363">
        <ele>179.2</ele>
        <time>2026-05-24T09:53:43Z</time>
      </trkpt>
      <trkpt lat="48.64993" lon="2.1037">
        <ele>179.2</ele>
        <time>2026-05-24T09:53:44Z</time>
      </trkpt>
      <trkpt lat="48.64989" lon="2.10376">
        <ele>181</ele>
        <time>2026-05-24T09:53:45Z</time>
      </trkpt>
      <trkpt lat="48.64983" lon="2.10379">
        <ele>181</ele>
        <time>2026-05-24T09:53:46Z</time>
      </trkpt>
      <trkpt lat="48.64977" lon="2.10379">
        <ele>181</ele>
        <time>2026-05-24T09:53:47Z</time>
      </trkpt>
      <trkpt lat="48.64972" lon="2.10374">
        <ele>180</ele>
        <time>2026-05-24T09:53:48Z</time>
      </trkpt>
      <trkpt lat="48.64967" lon="2.10367">
        <ele>179</ele>
        <time>2026-05-24T09:53:49Z</time>
      </trkpt>
      <trkpt lat="48.64962" lon="2.1036">
        <ele>179</ele>
        <time>2026-05-24T09:53:50Z</time>
      </trkpt>
      <trkpt lat="48.64957" lon="2.10354">
        <ele>179</ele>
        <time>2026-05-24T09:53:51Z</time>
      </trkpt>
      <trkpt lat="48.64951" lon="2.10348">
        <ele>179.4</ele>
        <time>2026-05-24T09:53:52Z</time>
      </trkpt>
      <trkpt lat="48.64945" lon="2.10343">
        <ele>179</ele>
        <time>2026-05-24T09:53:53Z</time>
      </trkpt>
      <trkpt lat="48.64939" lon="2.10339">
        <ele>179</ele>
        <time>2026-05-24T09:53:54Z</time>
      </trkpt>
      <trkpt lat="48.64932" lon="2.10336">
        <ele>179</ele>
        <time>2026-05-24T09:53:55Z</time>
      </trkpt>
      <trkpt lat="48.64925" lon="2.10334">
        <ele>179</ele>
        <time>2026-05-24T09:53:56Z</time>
      </trkpt>
      <trkpt lat="48.64919" lon="2.10331">
        <ele>178.8</ele>
        <time>2026-05-24T09:53:57Z</time>
      </trkpt>
      <trkpt lat="48.64912" lon="2.10329">
        <ele>178.8</ele>
        <time>2026-05-24T09:53:58Z</time>
      </trkpt>
      <trkpt lat="48.64906" lon="2.10327">
        <ele>178.8</ele>
        <time>2026-05-24T09:53:59Z</time>
      </trkpt>
      <trkpt lat="48.64899" lon="2.10324">
        <ele>178.8</ele>
        <time>2026-05-24T09:54:00Z</time>
      </trkpt>
      <trkpt lat="48.64893" lon="2.10323">
        <ele>177.8</ele>
        <time>2026-05-24T09:54:01Z</time>
      </trkpt>
      <trkpt lat="48.64887" lon="2.10324">
        <ele>177.8</ele>
        <time>2026-05-24T09:54:02Z</time>
      </trkpt>
      <trkpt lat="48.64882" lon="2.10326">
        <ele>177.8</ele>
        <time>2026-05-24T09:54:03Z</time>
      </trkpt>
      <trkpt lat="48.64878" lon="2.10332">
        <ele>178.8</ele>
        <time>2026-05-24T09:54:04Z</time>
      </trkpt>
      <trkpt lat="48.64876" lon="2.10339">
        <ele>178.4</ele>
        <time>2026-05-24T09:54:05Z</time>
      </trkpt>
      <trkpt lat="48.64875" lon="2.10346">
        <ele>178.4</ele>
        <time>2026-05-24T09:54:06Z</time>
      </trkpt>
      <trkpt lat="48.64873" lon="2.10353">
        <ele>178.4</ele>
        <time>2026-05-24T09:54:07Z</time>
      </trkpt>
      <trkpt lat="48.6487" lon="2.10361">
        <ele>178.4</ele>
        <time>2026-05-24T09:54:08Z</time>
      </trkpt>
      <trkpt lat="48.64868" lon="2.10368">
        <ele>178.4</ele>
        <time>2026-05-24T09:54:09Z</time>
      </trkpt>
      <trkpt lat="48.64866" lon="2.10376">
        <ele>178.4</ele>
        <time>2026-05-24T09:54:10Z</time>
      </trkpt>
      <trkpt lat="48.64864" lon="2.10384">
        <ele>178.4</ele>
        <time>2026-05-24T09:54:11Z</time>
      </trkpt>
      <trkpt lat="48.64861" lon="2.10391">
        <ele>177.4</ele>
        <time>2026-05-24T09:54:12Z</time>
      </trkpt>
      <trkpt lat="48.64856" lon="2.10393">
        <ele>176.8</ele>
        <time>2026-05-24T09:54:13Z</time>
      </trkpt>
      <trkpt lat="48.6485" lon="2.10393">
        <ele>176.8</ele>
        <time>2026-05-24T09:54:14Z</time>
      </trkpt>
      <trkpt lat="48.64844" lon="2.10391">
        <ele>176.8</ele>
        <time>2026-05-24T09:54:15Z</time>
      </trkpt>
      <trkpt lat="48.64837" lon="2.1039">
        <ele>177.6</ele>
        <time>2026-05-24T09:54:16Z</time>
      </trkpt>
      <trkpt lat="48.6483" lon="2.1039">
        <ele>178.2</ele>
        <time>2026-05-24T09:54:17Z</time>
      </trkpt>
      <trkpt lat="48.64824" lon="2.10391">
        <ele>178.2</ele>
        <time>2026-05-24T09:54:18Z</time>
      </trkpt>
      <trkpt lat="48.64817" lon="2.10394">
        <ele>178.2</ele>
        <time>2026-05-24T09:54:19Z</time>
      </trkpt>
      <trkpt lat="48.64811" lon="2.10396">
        <ele>177.2</ele>
        <time>2026-05-24T09:54:20Z</time>
      </trkpt>
      <trkpt lat="48.64805" lon="2.10397">
        <ele>177.2</ele>
        <time>2026-05-24T09:54:21Z</time>
      </trkpt>
      <trkpt lat="48.64798" lon="2.10399">
        <ele>177.2</ele>
        <time>2026-05-24T09:54:22Z</time>
      </trkpt>
      <trkpt lat="48.64793" lon="2.10399">
        <ele>177.2</ele>
        <time>2026-05-24T09:54:23Z</time>
      </trkpt>
      <trkpt lat="48.64789" lon="2.10399">
        <ele>176.6</ele>
        <time>2026-05-24T09:54:24Z</time>
      </trkpt>
      <trkpt lat="48.64784" lon="2.10397">
        <ele>176.4</ele>
        <time>2026-05-24T09:54:25Z</time>
      </trkpt>
      <trkpt lat="48.64781" lon="2.10397">
        <ele>176.4</ele>
        <time>2026-05-24T09:54:26Z</time>
      </trkpt>
      <trkpt lat="48.64775" lon="2.10398">
        <ele>176.4</ele>
        <time>2026-05-24T09:54:27Z</time>
      </trkpt>
      <trkpt lat="48.64771" lon="2.10397">
        <ele>176.4</ele>
        <time>2026-05-24T09:54:28Z</time>
      </trkpt>
      <trkpt lat="48.64766" lon="2.10395">
        <ele>176.4</ele>
        <time>2026-05-24T09:54:29Z</time>
      </trkpt>
      <trkpt lat="48.6476" lon="2.10392">
        <ele>176.4</ele>
        <time>2026-05-24T09:54:30Z</time>
      </trkpt>
      <trkpt lat="48.64755" lon="2.1039">
        <ele>176.4</ele>
        <time>2026-05-24T09:54:31Z</time>
      </trkpt>
      <trkpt lat="48.64749" lon="2.10387">
        <ele>176.4</ele>
        <time>2026-05-24T09:54:32Z</time>
      </trkpt>
      <trkpt lat="48.64744" lon="2.10384">
        <ele>176</ele>
        <time>2026-05-24T09:54:33Z</time>
      </trkpt>
      <trkpt lat="48.64738" lon="2.10382">
        <ele>176</ele>
        <time>2026-05-24T09:54:34Z</time>
      </trkpt>
      <trkpt lat="48.64733" lon="2.10381">
        <ele>176</ele>
        <time>2026-05-24T09:54:35Z</time>
      </trkpt>
      <trkpt lat="48.64726" lon="2.10379">
        <ele>176</ele>
        <time>2026-05-24T09:54:36Z</time>
      </trkpt>
      <trkpt lat="48.6472" lon="2.10378">
        <ele>176.4</ele>
        <time>2026-05-24T09:54:37Z</time>
      </trkpt>
      <trkpt lat="48.64714" lon="2.10376">
        <ele>176.4</ele>
        <time>2026-05-24T09:54:38Z</time>
      </trkpt>
      <trkpt lat="48.64708" lon="2.10375">
        <ele>176.4</ele>
        <time>2026-05-24T09:54:39Z</time>
      </trkpt>
      <trkpt lat="48.64703" lon="2.10373">
        <ele>176.4</ele>
        <time>2026-05-24T09:54:40Z</time>
      </trkpt>
      <trkpt lat="48.64697" lon="2.10373">
        <ele>177</ele>
        <time>2026-05-24T09:54:41Z</time>
      </trkpt>
      <trkpt lat="48.64691" lon="2.10373">
        <ele>177</ele>
        <time>2026-05-24T09:54:42Z</time>
      </trkpt>
      <trkpt lat="48.64686" lon="2.10372">
        <ele>177</ele>
        <time>2026-05-24T09:54:43Z</time>
      </trkpt>
      <trkpt lat="48.6468" lon="2.10372">
        <ele>176</ele>
        <time>2026-05-24T09:54:44Z</time>
      </trkpt>
      <trkpt lat="48.64675" lon="2.10371">
        <ele>177.2</ele>
        <time>2026-05-24T09:54:45Z</time>
      </trkpt>
      <trkpt lat="48.6467" lon="2.1037">
        <ele>177.2</ele>
        <time>2026-05-24T09:54:46Z</time>
      </trkpt>
      <trkpt lat="48.64665" lon="2.10369">
        <ele>177.2</ele>
        <time>2026-05-24T09:54:47Z</time>
      </trkpt>
      <trkpt lat="48.6466" lon="2.10367">
        <ele>177.2</ele>
        <time>2026-05-24T09:54:48Z</time>
      </trkpt>
      <trkpt lat="48.64655" lon="2.10366">
        <ele>176.8</ele>
        <time>2026-05-24T09:54:49Z</time>
      </trkpt>
      <trkpt lat="48.6465" lon="2.10364">
        <ele>176.8</ele>
        <time>2026-05-24T09:54:50Z</time>
      </trkpt>
      <trkpt lat="48.64645" lon="2.10361">
        <ele>176.8</ele>
        <time>2026-05-24T09:54:51Z</time>
      </trkpt>
      <trkpt lat="48.64639" lon="2.10359">
        <ele>176.2</ele>
        <time>2026-05-24T09:54:52Z</time>
      </trkpt>
      <trkpt lat="48.64634" lon="2.10355">
        <ele>176.4</ele>
        <time>2026-05-24T09:54:53Z</time>
      </trkpt>
      <trkpt lat="48.64629" lon="2.10352">
        <ele>176.4</ele>
        <time>2026-05-24T09:54:54Z</time>
      </trkpt>
      <trkpt lat="48.64623" lon="2.10349">
        <ele>176.4</ele>
        <time>2026-05-24T09:54:55Z</time>
      </trkpt>
      <trkpt lat="48.64618" lon="2.10345">
        <ele>176.4</ele>
        <time>2026-05-24T09:54:56Z</time>
      </trkpt>
      <trkpt lat="48.64612" lon="2.10343">
        <ele>177.4</ele>
        <time>2026-05-24T09:54:57Z</time>
      </trkpt>
      <trkpt lat="48.64606" lon="2.10339">
        <ele>177.4</ele>
        <time>2026-05-24T09:54:58Z</time>
      </trkpt>
      <trkpt lat="48.646" lon="2.10336">
        <ele>177.4</ele>
        <time>2026-05-24T09:54:59Z</time>
      </trkpt>
      <trkpt lat="48.64594" lon="2.10334">
        <ele>176.4</ele>
        <time>2026-05-24T09:55:00Z</time>
      </trkpt>
      <trkpt lat="48.64588" lon="2.10331">
        <ele>177.4</ele>
        <time>2026-05-24T09:55:01Z</time>
      </trkpt>
      <trkpt lat="48.64583" lon="2.10328">
        <ele>177.4</ele>
        <time>2026-05-24T09:55:02Z</time>
      </trkpt>
      <trkpt lat="48.64577" lon="2.10324">
        <ele>177.4</ele>
        <time>2026-05-24T09:55:03Z</time>
      </trkpt>
      <trkpt lat="48.64572" lon="2.1032">
        <ele>176.4</ele>
        <time>2026-05-24T09:55:04Z</time>
      </trkpt>
      <trkpt lat="48.64566" lon="2.10317">
        <ele>176.4</ele>
        <time>2026-05-24T09:55:05Z</time>
      </trkpt>
      <trkpt lat="48.64561" lon="2.10314">
        <ele>176.4</ele>
        <time>2026-05-24T09:55:06Z</time>
      </trkpt>
      <trkpt lat="48.64556" lon="2.10311">
        <ele>176.4</ele>
        <time>2026-05-24T09:55:07Z</time>
      </trkpt>
      <trkpt lat="48.64551" lon="2.10308">
        <ele>176.4</ele>
        <time>2026-05-24T09:55:08Z</time>
      </trkpt>
      <trkpt lat="48.64545" lon="2.10304">
        <ele>177.2</ele>
        <time>2026-05-24T09:55:09Z</time>
      </trkpt>
      <trkpt lat="48.6454" lon="2.10301">
        <ele>177.2</ele>
        <time>2026-05-24T09:55:10Z</time>
      </trkpt>
      <trkpt lat="48.64535" lon="2.10299">
        <ele>177.2</ele>
        <time>2026-05-24T09:55:11Z</time>
      </trkpt>
      <trkpt lat="48.64531" lon="2.10296">
        <ele>176.2</ele>
        <time>2026-05-24T09:55:12Z</time>
      </trkpt>
      <trkpt lat="48.64526" lon="2.10293">
        <ele>175.6</ele>
        <time>2026-05-24T09:55:13Z</time>
      </trkpt>
      <trkpt lat="48.64521" lon="2.1029">
        <ele>175.6</ele>
        <time>2026-05-24T09:55:14Z</time>
      </trkpt>
      <trkpt lat="48.64516" lon="2.10288">
        <ele>175.6</ele>
        <time>2026-05-24T09:55:15Z</time>
      </trkpt>
      <trkpt lat="48.64512" lon="2.10285">
        <ele>175.6</ele>
        <time>2026-05-24T09:55:16Z</time>
      </trkpt>
      <trkpt lat="48.64507" lon="2.10282">
        <ele>175</ele>
        <time>2026-05-24T09:55:17Z</time>
      </trkpt>
      <trkpt lat="48.64501" lon="2.10279">
        <ele>175</ele>
        <time>2026-05-24T09:55:18Z</time>
      </trkpt>
      <trkpt lat="48.64497" lon="2.10276">
        <ele>175</ele>
        <time>2026-05-24T09:55:19Z</time>
      </trkpt>
      <trkpt lat="48.64492" lon="2.10273">
        <ele>175</ele>
        <time>2026-05-24T09:55:20Z</time>
      </trkpt>
      <trkpt lat="48.6449" lon="2.10269">
        <ele>173.8</ele>
        <time>2026-05-24T09:55:21Z</time>
      </trkpt>
      <trkpt lat="48.64488" lon="2.10266">
        <ele>173.8</ele>
        <time>2026-05-24T09:55:22Z</time>
      </trkpt>
      <trkpt lat="48.64487" lon="2.10266">
        <ele>173.8</ele>
        <time>2026-05-24T09:55:23Z</time>
      </trkpt>
      <trkpt lat="48.64484" lon="2.10266">
        <ele>173</ele>
        <time>2026-05-24T09:55:24Z</time>
      </trkpt>
      <trkpt lat="48.6448" lon="2.10266">
        <ele>171.8</ele>
        <time>2026-05-24T09:55:25Z</time>
      </trkpt>
      <trkpt lat="48.64476" lon="2.10264">
        <ele>171.8</ele>
        <time>2026-05-24T09:55:26Z</time>
      </trkpt>
      <trkpt lat="48.64473" lon="2.10262">
        <ele>171.8</ele>
        <time>2026-05-24T09:55:27Z</time>
      </trkpt>
      <trkpt lat="48.64469" lon="2.10259">
        <ele>170.8</ele>
        <time>2026-05-24T09:55:28Z</time>
      </trkpt>
      <trkpt lat="48.64466" lon="2.10257">
        <ele>168</ele>
        <time>2026-05-24T09:55:29Z</time>
      </trkpt>
      <trkpt lat="48.64463" lon="2.10256">
        <ele>168</ele>
        <time>2026-05-24T09:55:30Z</time>
      </trkpt>
      <trkpt lat="48.64459" lon="2.10254">
        <ele>168</ele>
        <time>2026-05-24T09:55:31Z</time>
      </trkpt>
      <trkpt lat="48.64455" lon="2.10252">
        <ele>167</ele>
        <time>2026-05-24T09:55:32Z</time>
      </trkpt>
      <trkpt lat="48.64452" lon="2.10249">
        <ele>165</ele>
        <time>2026-05-24T09:55:33Z</time>
      </trkpt>
      <trkpt lat="48.6445" lon="2.10248">
        <ele>165</ele>
        <time>2026-05-24T09:55:34Z</time>
      </trkpt>
      <trkpt lat="48.64447" lon="2.10247">
        <ele>165</ele>
        <time>2026-05-24T09:55:35Z</time>
      </trkpt>
      <trkpt lat="48.64444" lon="2.10245">
        <ele>164</ele>
        <time>2026-05-24T09:55:36Z</time>
      </trkpt>
      <trkpt lat="48.6444" lon="2.10243">
        <ele>161.8</ele>
        <time>2026-05-24T09:55:37Z</time>
      </trkpt>
      <trkpt lat="48.64436" lon="2.1024">
        <ele>161.8</ele>
        <time>2026-05-24T09:55:38Z</time>
      </trkpt>
      <trkpt lat="48.64432" lon="2.10238">
        <ele>161.8</ele>
        <time>2026-05-24T09:55:39Z</time>
      </trkpt>
      <trkpt lat="48.64428" lon="2.10235">
        <ele>160.8</ele>
        <time>2026-05-24T09:55:40Z</time>
      </trkpt>
      <trkpt lat="48.64423" lon="2.10233">
        <ele>157</ele>
        <time>2026-05-24T09:55:41Z</time>
      </trkpt>
      <trkpt lat="48.64418" lon="2.10231">
        <ele>157</ele>
        <time>2026-05-24T09:55:42Z</time>
      </trkpt>
      <trkpt lat="48.64414" lon="2.10228">
        <ele>157</ele>
        <time>2026-05-24T09:55:43Z</time>
      </trkpt>
      <trkpt lat="48.64409" lon="2.10225">
        <ele>157</ele>
        <time>2026-05-24T09:55:44Z</time>
      </trkpt>
      <trkpt lat="48.64405" lon="2.10223">
        <ele>154.2</ele>
        <time>2026-05-24T09:55:45Z</time>
      </trkpt>
      <trkpt lat="48.644" lon="2.10221">
        <ele>154.2</ele>
        <time>2026-05-24T09:55:46Z</time>
      </trkpt>
      <trkpt lat="48.64395" lon="2.10219">
        <ele>154.2</ele>
        <time>2026-05-24T09:55:47Z</time>
      </trkpt>
      <trkpt lat="48.6439" lon="2.10217">
        <ele>154.2</ele>
        <time>2026-05-24T09:55:48Z</time>
      </trkpt>
      <trkpt lat="48.64386" lon="2.10215">
        <ele>152.4</ele>
        <time>2026-05-24T09:55:49Z</time>
      </trkpt>
      <trkpt lat="48.64382" lon="2.10213">
        <ele>152.4</ele>
        <time>2026-05-24T09:55:50Z</time>
      </trkpt>
      <trkpt lat="48.64378" lon="2.1021">
        <ele>152.4</ele>
        <time>2026-05-24T09:55:51Z</time>
      </trkpt>
      <trkpt lat="48.64372" lon="2.10209">
        <ele>151.6</ele>
        <time>2026-05-24T09:55:52Z</time>
      </trkpt>
      <trkpt lat="48.64365" lon="2.10208">
        <ele>152</ele>
        <time>2026-05-24T09:55:53Z</time>
      </trkpt>
      <trkpt lat="48.64359" lon="2.10207">
        <ele>152</ele>
        <time>2026-05-24T09:55:54Z</time>
      </trkpt>
      <trkpt lat="48.64356" lon="2.10205">
        <ele>152</ele>
        <time>2026-05-24T09:55:55Z</time>
      </trkpt>
      <trkpt lat="48.64349" lon="2.10204">
        <ele>151</ele>
        <time>2026-05-24T09:55:56Z</time>
      </trkpt>
      <trkpt lat="48.64343" lon="2.10203">
        <ele>150.6</ele>
        <time>2026-05-24T09:55:57Z</time>
      </trkpt>
      <trkpt lat="48.64337" lon="2.10202">
        <ele>150.6</ele>
        <time>2026-05-24T09:55:58Z</time>
      </trkpt>
      <trkpt lat="48.64332" lon="2.102">
        <ele>150.6</ele>
        <time>2026-05-24T09:55:59Z</time>
      </trkpt>
      <trkpt lat="48.64327" lon="2.10198">
        <ele>149.6</ele>
        <time>2026-05-24T09:56:00Z</time>
      </trkpt>
      <trkpt lat="48.6432" lon="2.10197">
        <ele>147</ele>
        <time>2026-05-24T09:56:01Z</time>
      </trkpt>
      <trkpt lat="48.64314" lon="2.10196">
        <ele>147</ele>
        <time>2026-05-24T09:56:02Z</time>
      </trkpt>
      <trkpt lat="48.64309" lon="2.10194">
        <ele>147</ele>
        <time>2026-05-24T09:56:03Z</time>
      </trkpt>
      <trkpt lat="48.64303" lon="2.10192">
        <ele>146.2</ele>
        <time>2026-05-24T09:56:04Z</time>
      </trkpt>
      <trkpt lat="48.64297" lon="2.1019">
        <ele>144.8</ele>
        <time>2026-05-24T09:56:05Z</time>
      </trkpt>
      <trkpt lat="48.64292" lon="2.10188">
        <ele>144.8</ele>
        <time>2026-05-24T09:56:06Z</time>
      </trkpt>
      <trkpt lat="48.64286" lon="2.10185">
        <ele>144.8</ele>
        <time>2026-05-24T09:56:07Z</time>
      </trkpt>
      <trkpt lat="48.64282" lon="2.1018">
        <ele>144.8</ele>
        <time>2026-05-24T09:56:08Z</time>
      </trkpt>
      <trkpt lat="48.64278" lon="2.10176">
        <ele>145.6</ele>
        <time>2026-05-24T09:56:09Z</time>
      </trkpt>
      <trkpt lat="48.64274" lon="2.10172">
        <ele>145.6</ele>
        <time>2026-05-24T09:56:10Z</time>
      </trkpt>
      <trkpt lat="48.64271" lon="2.10169">
        <ele>145.6</ele>
        <time>2026-05-24T09:56:11Z</time>
      </trkpt>
      <trkpt lat="48.64267" lon="2.10164">
        <ele>144.6</ele>
        <time>2026-05-24T09:56:12Z</time>
      </trkpt>
      <trkpt lat="48.64263" lon="2.1016">
        <ele>142.2</ele>
        <time>2026-05-24T09:56:13Z</time>
      </trkpt>
      <trkpt lat="48.64257" lon="2.10156">
        <ele>142.2</ele>
        <time>2026-05-24T09:56:14Z</time>
      </trkpt>
      <trkpt lat="48.64254" lon="2.10153">
        <ele>142.2</ele>
        <time>2026-05-24T09:56:15Z</time>
      </trkpt>
      <trkpt lat="48.6425" lon="2.1015">
        <ele>141.2</ele>
        <time>2026-05-24T09:56:16Z</time>
      </trkpt>
      <trkpt lat="48.64247" lon="2.10146">
        <ele>136.6</ele>
        <time>2026-05-24T09:56:17Z</time>
      </trkpt>
      <trkpt lat="48.64242" lon="2.10144">
        <ele>136.6</ele>
        <time>2026-05-24T09:56:18Z</time>
      </trkpt>
      <trkpt lat="48.64239" lon="2.10141">
        <ele>136.6</ele>
        <time>2026-05-24T09:56:19Z</time>
      </trkpt>
      <trkpt lat="48.64236" lon="2.10139">
        <ele>135.6</ele>
        <time>2026-05-24T09:56:20Z</time>
      </trkpt>
      <trkpt lat="48.64233" lon="2.10136">
        <ele>135.4</ele>
        <time>2026-05-24T09:56:21Z</time>
      </trkpt>
      <trkpt lat="48.6423" lon="2.10132">
        <ele>135.4</ele>
        <time>2026-05-24T09:56:22Z</time>
      </trkpt>
      <trkpt lat="48.64227" lon="2.10129">
        <ele>135.4</ele>
        <time>2026-05-24T09:56:23Z</time>
      </trkpt>
      <trkpt lat="48.64224" lon="2.10125">
        <ele>134.4</ele>
        <time>2026-05-24T09:56:24Z</time>
      </trkpt>
      <trkpt lat="48.6422" lon="2.10122">
        <ele>133.4</ele>
        <time>2026-05-24T09:56:25Z</time>
      </trkpt>
      <trkpt lat="48.64215" lon="2.10119">
        <ele>133.4</ele>
        <time>2026-05-24T09:56:26Z</time>
      </trkpt>
      <trkpt lat="48.6421" lon="2.10116">
        <ele>133.4</ele>
        <time>2026-05-24T09:56:27Z</time>
      </trkpt>
      <trkpt lat="48.64205" lon="2.10113">
        <ele>132.4</ele>
        <time>2026-05-24T09:56:28Z</time>
      </trkpt>
      <trkpt lat="48.64202" lon="2.10109">
        <ele>131.6</ele>
        <time>2026-05-24T09:56:29Z</time>
      </trkpt>
      <trkpt lat="48.64199" lon="2.10103">
        <ele>131.6</ele>
        <time>2026-05-24T09:56:30Z</time>
      </trkpt>
      <trkpt lat="48.64195" lon="2.10098">
        <ele>131.6</ele>
        <time>2026-05-24T09:56:31Z</time>
      </trkpt>
      <trkpt lat="48.64189" lon="2.10094">
        <ele>130.8</ele>
        <time>2026-05-24T09:56:32Z</time>
      </trkpt>
      <trkpt lat="48.64184" lon="2.10091">
        <ele>129.8</ele>
        <time>2026-05-24T09:56:33Z</time>
      </trkpt>
      <trkpt lat="48.64179" lon="2.10087">
        <ele>129.8</ele>
        <time>2026-05-24T09:56:34Z</time>
      </trkpt>
      <trkpt lat="48.64173" lon="2.10081">
        <ele>129.8</ele>
        <time>2026-05-24T09:56:35Z</time>
      </trkpt>
      <trkpt lat="48.64167" lon="2.10076">
        <ele>129.8</ele>
        <time>2026-05-24T09:56:36Z</time>
      </trkpt>
      <trkpt lat="48.6416" lon="2.10072">
        <ele>129.8</ele>
        <time>2026-05-24T09:56:37Z</time>
      </trkpt>
      <trkpt lat="48.64153" lon="2.10068">
        <ele>129.8</ele>
        <time>2026-05-24T09:56:38Z</time>
      </trkpt>
      <trkpt lat="48.64147" lon="2.10062">
        <ele>129.8</ele>
        <time>2026-05-24T09:56:39Z</time>
      </trkpt>
      <trkpt lat="48.64142" lon="2.10055">
        <ele>128.8</ele>
        <time>2026-05-24T09:56:40Z</time>
      </trkpt>
      <trkpt lat="48.64136" lon="2.10047">
        <ele>127.8</ele>
        <time>2026-05-24T09:56:41Z</time>
      </trkpt>
      <trkpt lat="48.64131" lon="2.10039">
        <ele>127.8</ele>
        <time>2026-05-24T09:56:42Z</time>
      </trkpt>
      <trkpt lat="48.64126" lon="2.10033">
        <ele>127.8</ele>
        <time>2026-05-24T09:56:43Z</time>
      </trkpt>
      <trkpt lat="48.64122" lon="2.10027">
        <ele>127.8</ele>
        <time>2026-05-24T09:56:44Z</time>
      </trkpt>
      <trkpt lat="48.64119" lon="2.1002">
        <ele>128</ele>
        <time>2026-05-24T09:56:45Z</time>
      </trkpt>
      <trkpt lat="48.64114" lon="2.10014">
        <ele>128</ele>
        <time>2026-05-24T09:56:46Z</time>
      </trkpt>
      <trkpt lat="48.6411" lon="2.10008">
        <ele>128</ele>
        <time>2026-05-24T09:56:47Z</time>
      </trkpt>
      <trkpt lat="48.64106" lon="2.10002">
        <ele>127</ele>
        <time>2026-05-24T09:56:48Z</time>
      </trkpt>
      <trkpt lat="48.64102" lon="2.09998">
        <ele>127</ele>
        <time>2026-05-24T09:56:49Z</time>
      </trkpt>
      <trkpt lat="48.64096" lon="2.09994">
        <ele>127</ele>
        <time>2026-05-24T09:56:50Z</time>
      </trkpt>
      <trkpt lat="48.64089" lon="2.09992">
        <ele>127</ele>
        <time>2026-05-24T09:56:51Z</time>
      </trkpt>
      <trkpt lat="48.64083" lon="2.0999">
        <ele>127</ele>
        <time>2026-05-24T09:56:52Z</time>
      </trkpt>
      <trkpt lat="48.64076" lon="2.09987">
        <ele>127</ele>
        <time>2026-05-24T09:56:53Z</time>
      </trkpt>
      <trkpt lat="48.6407" lon="2.09983">
        <ele>127</ele>
        <time>2026-05-24T09:56:54Z</time>
      </trkpt>
      <trkpt lat="48.64065" lon="2.09981">
        <ele>127</ele>
        <time>2026-05-24T09:56:55Z</time>
      </trkpt>
      <trkpt lat="48.6406" lon="2.09981">
        <ele>127.8</ele>
        <time>2026-05-24T09:56:56Z</time>
      </trkpt>
      <trkpt lat="48.64055" lon="2.09982">
        <ele>127.8</ele>
        <time>2026-05-24T09:56:57Z</time>
      </trkpt>
      <trkpt lat="48.64051" lon="2.09985">
        <ele>127.8</ele>
        <time>2026-05-24T09:56:58Z</time>
      </trkpt>
      <trkpt lat="48.64046" lon="2.09987">
        <ele>127.8</ele>
        <time>2026-05-24T09:56:59Z</time>
      </trkpt>
      <trkpt lat="48.64041" lon="2.09989">
        <ele>127.8</ele>
        <time>2026-05-24T09:57:00Z</time>
      </trkpt>
      <trkpt lat="48.64036" lon="2.0999">
        <ele>128.6</ele>
        <time>2026-05-24T09:57:01Z</time>
      </trkpt>
      <trkpt lat="48.64031" lon="2.09989">
        <ele>128.6</ele>
        <time>2026-05-24T09:57:02Z</time>
      </trkpt>
      <trkpt lat="48.64025" lon="2.09989">
        <ele>128.6</ele>
        <time>2026-05-24T09:57:03Z</time>
      </trkpt>
      <trkpt lat="48.6402" lon="2.0999">
        <ele>128.4</ele>
        <time>2026-05-24T09:57:04Z</time>
      </trkpt>
      <trkpt lat="48.64015" lon="2.09991">
        <ele>127.8</ele>
        <time>2026-05-24T09:57:05Z</time>
      </trkpt>
      <trkpt lat="48.6401" lon="2.09991">
        <ele>127.8</ele>
        <time>2026-05-24T09:57:06Z</time>
      </trkpt>
      <trkpt lat="48.64005" lon="2.0999">
        <ele>127.8</ele>
        <time>2026-05-24T09:57:07Z</time>
      </trkpt>
      <trkpt lat="48.64" lon="2.09988">
        <ele>128.8</ele>
        <time>2026-05-24T09:57:08Z</time>
      </trkpt>
      <trkpt lat="48.63995" lon="2.09986">
        <ele>128.2</ele>
        <time>2026-05-24T09:57:09Z</time>
      </trkpt>
      <trkpt lat="48.63991" lon="2.09985">
        <ele>128.2</ele>
        <time>2026-05-24T09:57:10Z</time>
      </trkpt>
      <trkpt lat="48.63986" lon="2.09983">
        <ele>128.2</ele>
        <time>2026-05-24T09:57:11Z</time>
      </trkpt>
      <trkpt lat="48.63982" lon="2.09983">
        <ele>129.2</ele>
        <time>2026-05-24T09:57:12Z</time>
      </trkpt>
      <trkpt lat="48.63977" lon="2.09982">
        <ele>129.2</ele>
        <time>2026-05-24T09:57:13Z</time>
      </trkpt>
      <trkpt lat="48.63973" lon="2.09981">
        <ele>129.2</ele>
        <time>2026-05-24T09:57:14Z</time>
      </trkpt>
      <trkpt lat="48.63969" lon="2.0998">
        <ele>129.2</ele>
        <time>2026-05-24T09:57:15Z</time>
      </trkpt>
      <trkpt lat="48.63966" lon="2.09979">
        <ele>129.8</ele>
        <time>2026-05-24T09:57:16Z</time>
      </trkpt>
      <trkpt lat="48.63961" lon="2.09979">
        <ele>130</ele>
        <time>2026-05-24T09:57:17Z</time>
      </trkpt>
      <trkpt lat="48.63957" lon="2.09979">
        <ele>130</ele>
        <time>2026-05-24T09:57:18Z</time>
      </trkpt>
      <trkpt lat="48.63953" lon="2.09978">
        <ele>130</ele>
        <time>2026-05-24T09:57:19Z</time>
      </trkpt>
      <trkpt lat="48.63949" lon="2.09978">
        <ele>130.2</ele>
        <time>2026-05-24T09:57:20Z</time>
      </trkpt>
      <trkpt lat="48.63945" lon="2.09977">
        <ele>130.6</ele>
        <time>2026-05-24T09:57:21Z</time>
      </trkpt>
      <trkpt lat="48.63941" lon="2.09976">
        <ele>130.6</ele>
        <time>2026-05-24T09:57:22Z</time>
      </trkpt>
      <trkpt lat="48.63937" lon="2.09975">
        <ele>130.6</ele>
        <time>2026-05-24T09:57:23Z</time>
      </trkpt>
      <trkpt lat="48.63934" lon="2.09975">
        <ele>131.2</ele>
        <time>2026-05-24T09:57:24Z</time>
      </trkpt>
      <trkpt lat="48.6393" lon="2.09974">
        <ele>130.8</ele>
        <time>2026-05-24T09:57:25Z</time>
      </trkpt>
      <trkpt lat="48.63927" lon="2.09974">
        <ele>130.8</ele>
        <time>2026-05-24T09:57:26Z</time>
      </trkpt>
      <trkpt lat="48.63923" lon="2.09973">
        <ele>130.8</ele>
        <time>2026-05-24T09:57:27Z</time>
      </trkpt>
      <trkpt lat="48.63919" lon="2.09973">
        <ele>131.8</ele>
        <time>2026-05-24T09:57:28Z</time>
      </trkpt>
      <trkpt lat="48.63916" lon="2.09972">
        <ele>132</ele>
        <time>2026-05-24T09:57:29Z</time>
      </trkpt>
      <trkpt lat="48.63912" lon="2.09971">
        <ele>132</ele>
        <time>2026-05-24T09:57:30Z</time>
      </trkpt>
      <trkpt lat="48.63909" lon="2.09971">
        <ele>132</ele>
        <time>2026-05-24T09:57:31Z</time>
      </trkpt>
      <trkpt lat="48.63905" lon="2.09971">
        <ele>132.2</ele>
        <time>2026-05-24T09:57:32Z</time>
      </trkpt>
      <trkpt lat="48.63902" lon="2.0997">
        <ele>132.4</ele>
        <time>2026-05-24T09:57:33Z</time>
      </trkpt>
      <trkpt lat="48.63898" lon="2.0997">
        <ele>132.4</ele>
        <time>2026-05-24T09:57:34Z</time>
      </trkpt>
      <trkpt lat="48.63895" lon="2.09969">
        <ele>132.4</ele>
        <time>2026-05-24T09:57:35Z</time>
      </trkpt>
      <trkpt lat="48.63892" lon="2.09968">
        <ele>133</ele>
        <time>2026-05-24T09:57:36Z</time>
      </trkpt>
      <trkpt lat="48.63888" lon="2.09968">
        <ele>133</ele>
        <time>2026-05-24T09:57:37Z</time>
      </trkpt>
      <trkpt lat="48.63885" lon="2.09967">
        <ele>133</ele>
        <time>2026-05-24T09:57:38Z</time>
      </trkpt>
      <trkpt lat="48.63882" lon="2.09967">
        <ele>133</ele>
        <time>2026-05-24T09:57:39Z</time>
      </trkpt>
      <trkpt lat="48.63879" lon="2.09966">
        <ele>133.8</ele>
        <time>2026-05-24T09:57:40Z</time>
      </trkpt>
      <trkpt lat="48.63876" lon="2.09966">
        <ele>133.8</ele>
        <time>2026-05-24T09:57:41Z</time>
      </trkpt>
      <trkpt lat="48.63873" lon="2.09966">
        <ele>133.8</ele>
        <time>2026-05-24T09:57:42Z</time>
      </trkpt>
      <trkpt lat="48.63869" lon="2.09965">
        <ele>133.8</ele>
        <time>2026-05-24T09:57:43Z</time>
      </trkpt>
      <trkpt lat="48.63866" lon="2.09965">
        <ele>134.6</ele>
        <time>2026-05-24T09:57:44Z</time>
      </trkpt>
      <trkpt lat="48.63863" lon="2.09965">
        <ele>134.8</ele>
        <time>2026-05-24T09:57:45Z</time>
      </trkpt>
      <trkpt lat="48.6386" lon="2.09964">
        <ele>134.8</ele>
        <time>2026-05-24T09:57:46Z</time>
      </trkpt>
      <trkpt lat="48.63857" lon="2.09964">
        <ele>134.8</ele>
        <time>2026-05-24T09:57:47Z</time>
      </trkpt>
      <trkpt lat="48.63854" lon="2.09964">
        <ele>135.4</ele>
        <time>2026-05-24T09:57:48Z</time>
      </trkpt>
      <trkpt lat="48.6385" lon="2.09964">
        <ele>135.4</ele>
        <time>2026-05-24T09:57:49Z</time>
      </trkpt>
      <trkpt lat="48.63847" lon="2.09964">
        <ele>135.4</ele>
        <time>2026-05-24T09:57:50Z</time>
      </trkpt>
      <trkpt lat="48.63844" lon="2.09964">
        <ele>135.4</ele>
        <time>2026-05-24T09:57:51Z</time>
      </trkpt>
      <trkpt lat="48.63841" lon="2.09964">
        <ele>136</ele>
        <time>2026-05-24T09:57:52Z</time>
      </trkpt>
      <trkpt lat="48.63838" lon="2.09964">
        <ele>136.4</ele>
        <time>2026-05-24T09:57:53Z</time>
      </trkpt>
      <trkpt lat="48.63835" lon="2.09964">
        <ele>136.4</ele>
        <time>2026-05-24T09:57:54Z</time>
      </trkpt>
      <trkpt lat="48.63832" lon="2.09964">
        <ele>136.4</ele>
        <time>2026-05-24T09:57:55Z</time>
      </trkpt>
      <trkpt lat="48.63829" lon="2.09965">
        <ele>136.4</ele>
        <time>2026-05-24T09:57:56Z</time>
      </trkpt>
      <trkpt lat="48.63826" lon="2.09965">
        <ele>137.6</ele>
        <time>2026-05-24T09:57:57Z</time>
      </trkpt>
      <trkpt lat="48.63822" lon="2.09966">
        <ele>137.6</ele>
        <time>2026-05-24T09:57:58Z</time>
      </trkpt>
      <trkpt lat="48.63819" lon="2.09966">
        <ele>137.6</ele>
        <time>2026-05-24T09:57:59Z</time>
      </trkpt>
      <trkpt lat="48.63816" lon="2.09966">
        <ele>137.6</ele>
        <time>2026-05-24T09:58:00Z</time>
      </trkpt>
      <trkpt lat="48.63813" lon="2.09966">
        <ele>137.8</ele>
        <time>2026-05-24T09:58:01Z</time>
      </trkpt>
      <trkpt lat="48.6381" lon="2.09966">
        <ele>137.8</ele>
        <time>2026-05-24T09:58:02Z</time>
      </trkpt>
      <trkpt lat="48.63807" lon="2.09967">
        <ele>137.8</ele>
        <time>2026-05-24T09:58:03Z</time>
      </trkpt>
      <trkpt lat="48.63804" lon="2.09968">
        <ele>137.8</ele>
        <time>2026-05-24T09:58:04Z</time>
      </trkpt>
      <trkpt lat="48.63801" lon="2.09969">
        <ele>138.4</ele>
        <time>2026-05-24T09:58:05Z</time>
      </trkpt>
      <trkpt lat="48.63798" lon="2.09969">
        <ele>138.4</ele>
        <time>2026-05-24T09:58:06Z</time>
      </trkpt>
      <trkpt lat="48.63795" lon="2.0997">
        <ele>138.4</ele>
        <time>2026-05-24T09:58:07Z</time>
      </trkpt>
      <trkpt lat="48.63792" lon="2.0997">
        <ele>139.2</ele>
        <time>2026-05-24T09:58:08Z</time>
      </trkpt>
      <trkpt lat="48.63789" lon="2.09971">
        <ele>139.2</ele>
        <time>2026-05-24T09:58:09Z</time>
      </trkpt>
      <trkpt lat="48.63786" lon="2.09971">
        <ele>139.2</ele>
        <time>2026-05-24T09:58:10Z</time>
      </trkpt>
      <trkpt lat="48.63782" lon="2.09972">
        <ele>139.2</ele>
        <time>2026-05-24T09:58:11Z</time>
      </trkpt>
      <trkpt lat="48.63779" lon="2.09972">
        <ele>139.8</ele>
        <time>2026-05-24T09:58:12Z</time>
      </trkpt>
      <trkpt lat="48.63776" lon="2.09973">
        <ele>140.4</ele>
        <time>2026-05-24T09:58:13Z</time>
      </trkpt>
      <trkpt lat="48.63773" lon="2.09973">
        <ele>140.4</ele>
        <time>2026-05-24T09:58:14Z</time>
      </trkpt>
      <trkpt lat="48.6377" lon="2.09973">
        <ele>140.4</ele>
        <time>2026-05-24T09:58:15Z</time>
      </trkpt>
      <trkpt lat="48.63767" lon="2.09974">
        <ele>140.6</ele>
        <time>2026-05-24T09:58:16Z</time>
      </trkpt>
      <trkpt lat="48.63764" lon="2.09974">
        <ele>141.4</ele>
        <time>2026-05-24T09:58:17Z</time>
      </trkpt>
      <trkpt lat="48.63761" lon="2.09975">
        <ele>141.4</ele>
        <time>2026-05-24T09:58:18Z</time>
      </trkpt>
      <trkpt lat="48.63757" lon="2.09975">
        <ele>141.4</ele>
        <time>2026-05-24T09:58:19Z</time>
      </trkpt>
      <trkpt lat="48.63754" lon="2.09976">
        <ele>141.4</ele>
        <time>2026-05-24T09:58:20Z</time>
      </trkpt>
      <trkpt lat="48.63751" lon="2.09976">
        <ele>141.6</ele>
        <time>2026-05-24T09:58:21Z</time>
      </trkpt>
      <trkpt lat="48.63748" lon="2.09977">
        <ele>141.6</ele>
        <time>2026-05-24T09:58:22Z</time>
      </trkpt>
      <trkpt lat="48.63745" lon="2.09977">
        <ele>141.6</ele>
        <time>2026-05-24T09:58:23Z</time>
      </trkpt>
      <trkpt lat="48.63742" lon="2.09978">
        <ele>141.8</ele>
        <time>2026-05-24T09:58:24Z</time>
      </trkpt>
      <trkpt lat="48.63739" lon="2.09978">
        <ele>141.8</ele>
        <time>2026-05-24T09:58:25Z</time>
      </trkpt>
      <trkpt lat="48.63736" lon="2.09978">
        <ele>141.8</ele>
        <time>2026-05-24T09:58:26Z</time>
      </trkpt>
      <trkpt lat="48.63733" lon="2.09979">
        <ele>141.8</ele>
        <time>2026-05-24T09:58:27Z</time>
      </trkpt>
      <trkpt lat="48.63729" lon="2.0998">
        <ele>142.8</ele>
        <time>2026-05-24T09:58:28Z</time>
      </trkpt>
      <trkpt lat="48.63726" lon="2.0998">
        <ele>143.2</ele>
        <time>2026-05-24T09:58:29Z</time>
      </trkpt>
      <trkpt lat="48.63723" lon="2.09981">
        <ele>143.2</ele>
        <time>2026-05-24T09:58:30Z</time>
      </trkpt>
      <trkpt lat="48.6372" lon="2.09981">
        <ele>143.2</ele>
        <time>2026-05-24T09:58:31Z</time>
      </trkpt>
      <trkpt lat="48.63717" lon="2.09981">
        <ele>143.6</ele>
        <time>2026-05-24T09:58:32Z</time>
      </trkpt>
      <trkpt lat="48.63714" lon="2.09982">
        <ele>143.6</ele>
        <time>2026-05-24T09:58:33Z</time>
      </trkpt>
      <trkpt lat="48.63711" lon="2.09982">
        <ele>143.6</ele>
        <time>2026-05-24T09:58:34Z</time>
      </trkpt>
      <trkpt lat="48.63707" lon="2.09983">
        <ele>143.6</ele>
        <time>2026-05-24T09:58:35Z</time>
      </trkpt>
      <trkpt lat="48.63704" lon="2.09983">
        <ele>144.6</ele>
        <time>2026-05-24T09:58:36Z</time>
      </trkpt>
      <trkpt lat="48.63701" lon="2.09984">
        <ele>145</ele>
        <time>2026-05-24T09:58:37Z</time>
      </trkpt>
      <trkpt lat="48.63698" lon="2.09984">
        <ele>145</ele>
        <time>2026-05-24T09:58:38Z</time>
      </trkpt>
      <trkpt lat="48.63695" lon="2.09984">
        <ele>145</ele>
        <time>2026-05-24T09:58:39Z</time>
      </trkpt>
      <trkpt lat="48.63692" lon="2.09984">
        <ele>145.6</ele>
        <time>2026-05-24T09:58:40Z</time>
      </trkpt>
      <trkpt lat="48.63689" lon="2.09985">
        <ele>145.8</ele>
        <time>2026-05-24T09:58:41Z</time>
      </trkpt>
      <trkpt lat="48.63686" lon="2.09986">
        <ele>145.8</ele>
        <time>2026-05-24T09:58:42Z</time>
      </trkpt>
      <trkpt lat="48.63683" lon="2.09986">
        <ele>145.8</ele>
        <time>2026-05-24T09:58:43Z</time>
      </trkpt>
      <trkpt lat="48.6368" lon="2.09986">
        <ele>145.8</ele>
        <time>2026-05-24T09:58:44Z</time>
      </trkpt>
      <trkpt lat="48.63677" lon="2.09987">
        <ele>146.8</ele>
        <time>2026-05-24T09:58:45Z</time>
      </trkpt>
      <trkpt lat="48.63674" lon="2.09987">
        <ele>146.8</ele>
        <time>2026-05-24T09:58:46Z</time>
      </trkpt>
      <trkpt lat="48.63671" lon="2.09987">
        <ele>146.8</ele>
        <time>2026-05-24T09:58:47Z</time>
      </trkpt>
      <trkpt lat="48.63668" lon="2.09987">
        <ele>147.4</ele>
        <time>2026-05-24T09:58:48Z</time>
      </trkpt>
      <trkpt lat="48.63665" lon="2.09988">
        <ele>147.4</ele>
        <time>2026-05-24T09:58:49Z</time>
      </trkpt>
      <trkpt lat="48.63661" lon="2.09988">
        <ele>147.4</ele>
        <time>2026-05-24T09:58:50Z</time>
      </trkpt>
      <trkpt lat="48.63658" lon="2.09989">
        <ele>147.4</ele>
        <time>2026-05-24T09:58:51Z</time>
      </trkpt>
      <trkpt lat="48.63655" lon="2.09989">
        <ele>148.4</ele>
        <time>2026-05-24T09:58:52Z</time>
      </trkpt>
      <trkpt lat="48.63652" lon="2.0999">
        <ele>149</ele>
        <time>2026-05-24T09:58:53Z</time>
      </trkpt>
      <trkpt lat="48.63648" lon="2.0999">
        <ele>149</ele>
        <time>2026-05-24T09:58:54Z</time>
      </trkpt>
      <trkpt lat="48.63645" lon="2.09991">
        <ele>149</ele>
        <time>2026-05-24T09:58:55Z</time>
      </trkpt>
      <trkpt lat="48.63641" lon="2.09991">
        <ele>149.8</ele>
        <time>2026-05-24T09:58:56Z</time>
      </trkpt>
      <trkpt lat="48.63638" lon="2.09992">
        <ele>149.8</ele>
        <time>2026-05-24T09:58:57Z</time>
      </trkpt>
      <trkpt lat="48.63634" lon="2.09992">
        <ele>149.8</ele>
        <time>2026-05-24T09:58:58Z</time>
      </trkpt>
      <trkpt lat="48.6363" lon="2.09992">
        <ele>149.8</ele>
        <time>2026-05-24T09:58:59Z</time>
      </trkpt>
      <trkpt lat="48.63626" lon="2.09992">
        <ele>150.4</ele>
        <time>2026-05-24T09:59:00Z</time>
      </trkpt>
      <trkpt lat="48.63623" lon="2.09992">
        <ele>150.4</ele>
        <time>2026-05-24T09:59:01Z</time>
      </trkpt>
      <trkpt lat="48.63619" lon="2.09992">
        <ele>150.4</ele>
        <time>2026-05-24T09:59:02Z</time>
      </trkpt>
      <trkpt lat="48.63615" lon="2.09992">
        <ele>150.4</ele>
        <time>2026-05-24T09:59:03Z</time>
      </trkpt>
      <trkpt lat="48.63611" lon="2.09992">
        <ele>151</ele>
        <time>2026-05-24T09:59:04Z</time>
      </trkpt>
      <trkpt lat="48.63607" lon="2.09992">
        <ele>151.2</ele>
        <time>2026-05-24T09:59:05Z</time>
      </trkpt>
      <trkpt lat="48.63603" lon="2.09992">
        <ele>151.2</ele>
        <time>2026-05-24T09:59:06Z</time>
      </trkpt>
      <trkpt lat="48.636" lon="2.09992">
        <ele>151.2</ele>
        <time>2026-05-24T09:59:07Z</time>
      </trkpt>
      <trkpt lat="48.63596" lon="2.09992">
        <ele>152.2</ele>
        <time>2026-05-24T09:59:08Z</time>
      </trkpt>
      <trkpt lat="48.63592" lon="2.09992">
        <ele>152.2</ele>
        <time>2026-05-24T09:59:09Z</time>
      </trkpt>
      <trkpt lat="48.63589" lon="2.09992">
        <ele>152.2</ele>
        <time>2026-05-24T09:59:10Z</time>
      </trkpt>
      <trkpt lat="48.63585" lon="2.09992">
        <ele>152.2</ele>
        <time>2026-05-24T09:59:11Z</time>
      </trkpt>
      <trkpt lat="48.63581" lon="2.09992">
        <ele>152.2</ele>
        <time>2026-05-24T09:59:12Z</time>
      </trkpt>
      <trkpt lat="48.63577" lon="2.09992">
        <ele>152.6</ele>
        <time>2026-05-24T09:59:13Z</time>
      </trkpt>
      <trkpt lat="48.63573" lon="2.09992">
        <ele>152.6</ele>
        <time>2026-05-24T09:59:14Z</time>
      </trkpt>
      <trkpt lat="48.6357" lon="2.09992">
        <ele>152.6</ele>
        <time>2026-05-24T09:59:15Z</time>
      </trkpt>
      <trkpt lat="48.63566" lon="2.09992">
        <ele>152.6</ele>
        <time>2026-05-24T09:59:16Z</time>
      </trkpt>
      <trkpt lat="48.63562" lon="2.09992">
        <ele>153.2</ele>
        <time>2026-05-24T09:59:17Z</time>
      </trkpt>
      <trkpt lat="48.63558" lon="2.09992">
        <ele>153.2</ele>
        <time>2026-05-24T09:59:18Z</time>
      </trkpt>
      <trkpt lat="48.63555" lon="2.09992">
        <ele>153.2</ele>
        <time>2026-05-24T09:59:19Z</time>
      </trkpt>
      <trkpt lat="48.63551" lon="2.09992">
        <ele>153.8</ele>
        <time>2026-05-24T09:59:20Z</time>
      </trkpt>
      <trkpt lat="48.63548" lon="2.09992">
        <ele>153.6</ele>
        <time>2026-05-24T09:59:21Z</time>
      </trkpt>
      <trkpt lat="48.63544" lon="2.09992">
        <ele>153.6</ele>
        <time>2026-05-24T09:59:22Z</time>
      </trkpt>
      <trkpt lat="48.6354" lon="2.09992">
        <ele>153.6</ele>
        <time>2026-05-24T09:59:23Z</time>
      </trkpt>
      <trkpt lat="48.63537" lon="2.09992">
        <ele>154.2</ele>
        <time>2026-05-24T09:59:24Z</time>
      </trkpt>
      <trkpt lat="48.63533" lon="2.09992">
        <ele>154.4</ele>
        <time>2026-05-24T09:59:25Z</time>
      </trkpt>
      <trkpt lat="48.6353" lon="2.09992">
        <ele>154.4</ele>
        <time>2026-05-24T09:59:26Z</time>
      </trkpt>
      <trkpt lat="48.63526" lon="2.09992">
        <ele>154.4</ele>
        <time>2026-05-24T09:59:27Z</time>
      </trkpt>
      <trkpt lat="48.63522" lon="2.09992">
        <ele>154.4</ele>
        <time>2026-05-24T09:59:28Z</time>
      </trkpt>
      <trkpt lat="48.63519" lon="2.09992">
        <ele>155</ele>
        <time>2026-05-24T09:59:29Z</time>
      </trkpt>
      <trkpt lat="48.63515" lon="2.09992">
        <ele>155</ele>
        <time>2026-05-24T09:59:30Z</time>
      </trkpt>
      <trkpt lat="48.63512" lon="2.09993">
        <ele>155</ele>
        <time>2026-05-24T09:59:31Z</time>
      </trkpt>
      <trkpt lat="48.63509" lon="2.09993">
        <ele>155</ele>
        <time>2026-05-24T09:59:32Z</time>
      </trkpt>
      <trkpt lat="48.63506" lon="2.09993">
        <ele>155.2</ele>
        <time>2026-05-24T09:59:33Z</time>
      </trkpt>
      <trkpt lat="48.63503" lon="2.09992">
        <ele>155.2</ele>
        <time>2026-05-24T09:59:34Z</time>
      </trkpt>
      <trkpt lat="48.63501" lon="2.09992">
        <ele>155.2</ele>
        <time>2026-05-24T09:59:35Z</time>
      </trkpt>
      <trkpt lat="48.63498" lon="2.09991">
        <ele>155.6</ele>
        <time>2026-05-24T09:59:36Z</time>
      </trkpt>
      <trkpt lat="48.63497" lon="2.09988">
        <ele>155.8</ele>
        <time>2026-05-24T09:59:37Z</time>
      </trkpt>
      <trkpt lat="48.63496" lon="2.09985">
        <ele>155.8</ele>
        <time>2026-05-24T09:59:38Z</time>
      </trkpt>
      <trkpt lat="48.63495" lon="2.0998">
        <ele>155.8</ele>
        <time>2026-05-24T09:59:39Z</time>
      </trkpt>
      <trkpt lat="48.63494" lon="2.09975">
        <ele>155.8</ele>
        <time>2026-05-24T09:59:40Z</time>
      </trkpt>
      <trkpt lat="48.63493" lon="2.09969">
        <ele>156.4</ele>
        <time>2026-05-24T09:59:41Z</time>
      </trkpt>
      <trkpt lat="48.63493" lon="2.09964">
        <ele>156.4</ele>
        <time>2026-05-24T09:59:42Z</time>
      </trkpt>
      <trkpt lat="48.63494" lon="2.09959">
        <ele>156.4</ele>
        <time>2026-05-24T09:59:43Z</time>
      </trkpt>
      <trkpt lat="48.63496" lon="2.09954">
        <ele>157</ele>
        <time>2026-05-24T09:59:44Z</time>
      </trkpt>
      <trkpt lat="48.63498" lon="2.09949">
        <ele>157.4</ele>
        <time>2026-05-24T09:59:45Z</time>
      </trkpt>
      <trkpt lat="48.635" lon="2.09944">
        <ele>157.4</ele>
        <time>2026-05-24T09:59:46Z</time>
      </trkpt>
      <trkpt lat="48.63502" lon="2.09938">
        <ele>157.4</ele>
        <time>2026-05-24T09:59:47Z</time>
      </trkpt>
      <trkpt lat="48.63504" lon="2.09933">
        <ele>157.8</ele>
        <time>2026-05-24T09:59:48Z</time>
      </trkpt>
      <trkpt lat="48.63506" lon="2.09927">
        <ele>157.8</ele>
        <time>2026-05-24T09:59:49Z</time>
      </trkpt>
      <trkpt lat="48.63508" lon="2.09921">
        <ele>157.8</ele>
        <time>2026-05-24T09:59:50Z</time>
      </trkpt>
      <trkpt lat="48.63511" lon="2.09915">
        <ele>157.8</ele>
        <time>2026-05-24T09:59:51Z</time>
      </trkpt>
      <trkpt lat="48.63513" lon="2.09909">
        <ele>157.8</ele>
        <time>2026-05-24T09:59:52Z</time>
      </trkpt>
      <trkpt lat="48.63515" lon="2.09903">
        <ele>157.2</ele>
        <time>2026-05-24T09:59:53Z</time>
      </trkpt>
      <trkpt lat="48.63517" lon="2.09897">
        <ele>157.2</ele>
        <time>2026-05-24T09:59:54Z</time>
      </trkpt>
      <trkpt lat="48.63519" lon="2.0989">
        <ele>157.2</ele>
        <time>2026-05-24T09:59:55Z</time>
      </trkpt>
      <trkpt lat="48.63521" lon="2.09884">
        <ele>157.8</ele>
        <time>2026-05-24T09:59:56Z</time>
      </trkpt>
      <trkpt lat="48.63523" lon="2.09878">
        <ele>158.2</ele>
        <time>2026-05-24T09:59:57Z</time>
      </trkpt>
      <trkpt lat="48.63524" lon="2.09871">
        <ele>158.2</ele>
        <time>2026-05-24T09:59:58Z</time>
      </trkpt>
      <trkpt lat="48.63525" lon="2.09865">
        <ele>158.2</ele>
        <time>2026-05-24T09:59:59Z</time>
      </trkpt>
      <trkpt lat="48.63527" lon="2.09857">
        <ele>158.2</ele>
        <time>2026-05-24T10:00:00Z</time>
      </trkpt>
      <trkpt lat="48.63528" lon="2.09851">
        <ele>158.6</ele>
        <time>2026-05-24T10:00:01Z</time>
      </trkpt>
      <trkpt lat="48.63528" lon="2.09844">
        <ele>158.6</ele>
        <time>2026-05-24T10:00:02Z</time>
      </trkpt>
      <trkpt lat="48.63529" lon="2.09837">
        <ele>158.6</ele>
        <time>2026-05-24T10:00:03Z</time>
      </trkpt>
      <trkpt lat="48.63529" lon="2.0983">
        <ele>158.6</ele>
        <time>2026-05-24T10:00:04Z</time>
      </trkpt>
      <trkpt lat="48.6353" lon="2.09823">
        <ele>159.2</ele>
        <time>2026-05-24T10:00:05Z</time>
      </trkpt>
      <trkpt lat="48.6353" lon="2.09816">
        <ele>159.2</ele>
        <time>2026-05-24T10:00:06Z</time>
      </trkpt>
      <trkpt lat="48.6353" lon="2.09809">
        <ele>159.2</ele>
        <time>2026-05-24T10:00:07Z</time>
      </trkpt>
      <trkpt lat="48.63529" lon="2.09802">
        <ele>159.2</ele>
        <time>2026-05-24T10:00:08Z</time>
      </trkpt>
      <trkpt lat="48.63529" lon="2.09795">
        <ele>158.8</ele>
        <time>2026-05-24T10:00:09Z</time>
      </trkpt>
      <trkpt lat="48.63529" lon="2.09787">
        <ele>158.8</ele>
        <time>2026-05-24T10:00:10Z</time>
      </trkpt>
      <trkpt lat="48.63529" lon="2.0978">
        <ele>158.8</ele>
        <time>2026-05-24T10:00:11Z</time>
      </trkpt>
      <trkpt lat="48.63529" lon="2.09773">
        <ele>158.8</ele>
        <time>2026-05-24T10:00:12Z</time>
      </trkpt>
      <trkpt lat="48.63529" lon="2.09765">
        <ele>159.2</ele>
        <time>2026-05-24T10:00:13Z</time>
      </trkpt>
      <trkpt lat="48.63529" lon="2.09758">
        <ele>159.2</ele>
        <time>2026-05-24T10:00:14Z</time>
      </trkpt>
      <trkpt lat="48.63529" lon="2.0975">
        <ele>159.2</ele>
        <time>2026-05-24T10:00:15Z</time>
      </trkpt>
      <trkpt lat="48.63529" lon="2.09743">
        <ele>159.2</ele>
        <time>2026-05-24T10:00:16Z</time>
      </trkpt>
      <trkpt lat="48.63528" lon="2.09736">
        <ele>160.6</ele>
        <time>2026-05-24T10:00:17Z</time>
      </trkpt>
      <trkpt lat="48.63528" lon="2.09729">
        <ele>160.6</ele>
        <time>2026-05-24T10:00:18Z</time>
      </trkpt>
      <trkpt lat="48.63527" lon="2.09721">
        <ele>160.6</ele>
        <time>2026-05-24T10:00:19Z</time>
      </trkpt>
      <trkpt lat="48.63526" lon="2.09714">
        <ele>160</ele>
        <time>2026-05-24T10:00:20Z</time>
      </trkpt>
      <trkpt lat="48.63526" lon="2.09706">
        <ele>160.8</ele>
        <time>2026-05-24T10:00:21Z</time>
      </trkpt>
      <trkpt lat="48.63525" lon="2.09699">
        <ele>160.8</ele>
        <time>2026-05-24T10:00:22Z</time>
      </trkpt>
      <trkpt lat="48.63525" lon="2.09692">
        <ele>160.8</ele>
        <time>2026-05-24T10:00:23Z</time>
      </trkpt>
      <trkpt lat="48.63524" lon="2.09684">
        <ele>160.8</ele>
        <time>2026-05-24T10:00:24Z</time>
      </trkpt>
      <trkpt lat="48.63523" lon="2.09677">
        <ele>160.8</ele>
        <time>2026-05-24T10:00:25Z</time>
      </trkpt>
      <trkpt lat="48.63522" lon="2.0967">
        <ele>160.8</ele>
        <time>2026-05-24T10:00:26Z</time>
      </trkpt>
      <trkpt lat="48.63521" lon="2.09663">
        <ele>160.8</ele>
        <time>2026-05-24T10:00:27Z</time>
      </trkpt>
      <trkpt lat="48.6352" lon="2.09656">
        <ele>161.6</ele>
        <time>2026-05-24T10:00:28Z</time>
      </trkpt>
      <trkpt lat="48.63519" lon="2.0965">
        <ele>162.4</ele>
        <time>2026-05-24T10:00:29Z</time>
      </trkpt>
      <trkpt lat="48.63519" lon="2.09643">
        <ele>162.4</ele>
        <time>2026-05-24T10:00:30Z</time>
      </trkpt>
      <trkpt lat="48.63518" lon="2.09635">
        <ele>162.4</ele>
        <time>2026-05-24T10:00:31Z</time>
      </trkpt>
      <trkpt lat="48.63518" lon="2.09628">
        <ele>162.4</ele>
        <time>2026-05-24T10:00:32Z</time>
      </trkpt>
      <trkpt lat="48.63517" lon="2.09621">
        <ele>162.6</ele>
        <time>2026-05-24T10:00:33Z</time>
      </trkpt>
      <trkpt lat="48.63517" lon="2.09614">
        <ele>162.6</ele>
        <time>2026-05-24T10:00:34Z</time>
      </trkpt>
      <trkpt lat="48.63517" lon="2.09607">
        <ele>162.6</ele>
        <time>2026-05-24T10:00:35Z</time>
      </trkpt>
      <trkpt lat="48.63517" lon="2.09599">
        <ele>162.6</ele>
        <time>2026-05-24T10:00:36Z</time>
      </trkpt>
      <trkpt lat="48.63517" lon="2.09592">
        <ele>162.4</ele>
        <time>2026-05-24T10:00:37Z</time>
      </trkpt>
      <trkpt lat="48.63516" lon="2.09584">
        <ele>162.4</ele>
        <time>2026-05-24T10:00:38Z</time>
      </trkpt>
      <trkpt lat="48.63516" lon="2.09577">
        <ele>162.4</ele>
        <time>2026-05-24T10:00:39Z</time>
      </trkpt>
      <trkpt lat="48.63517" lon="2.0957">
        <ele>163.4</ele>
        <time>2026-05-24T10:00:40Z</time>
      </trkpt>
      <trkpt lat="48.63517" lon="2.09563">
        <ele>163.4</ele>
        <time>2026-05-24T10:00:41Z</time>
      </trkpt>
      <trkpt lat="48.63517" lon="2.09556">
        <ele>163.4</ele>
        <time>2026-05-24T10:00:42Z</time>
      </trkpt>
      <trkpt lat="48.63517" lon="2.09549">
        <ele>163.4</ele>
        <time>2026-05-24T10:00:43Z</time>
      </trkpt>
      <trkpt lat="48.63518" lon="2.09541">
        <ele>163.4</ele>
        <time>2026-05-24T10:00:44Z</time>
      </trkpt>
      <trkpt lat="48.63518" lon="2.09534">
        <ele>162.6</ele>
        <time>2026-05-24T10:00:45Z</time>
      </trkpt>
      <trkpt lat="48.63518" lon="2.09527">
        <ele>162.6</ele>
        <time>2026-05-24T10:00:46Z</time>
      </trkpt>
      <trkpt lat="48.63518" lon="2.09519">
        <ele>162.6</ele>
        <time>2026-05-24T10:00:47Z</time>
      </trkpt>
      <trkpt lat="48.63518" lon="2.09512">
        <ele>163.6</ele>
        <time>2026-05-24T10:00:48Z</time>
      </trkpt>
      <trkpt lat="48.63517" lon="2.09505">
        <ele>165.6</ele>
        <time>2026-05-24T10:00:49Z</time>
      </trkpt>
      <trkpt lat="48.63517" lon="2.09498">
        <ele>165.6</ele>
        <time>2026-05-24T10:00:50Z</time>
      </trkpt>
      <trkpt lat="48.63517" lon="2.09491">
        <ele>165.6</ele>
        <time>2026-05-24T10:00:51Z</time>
      </trkpt>
      <trkpt lat="48.63516" lon="2.09485">
        <ele>165</ele>
        <time>2026-05-24T10:00:52Z</time>
      </trkpt>
      <trkpt lat="48.63516" lon="2.09478">
        <ele>164.8</ele>
        <time>2026-05-24T10:00:53Z</time>
      </trkpt>
      <trkpt lat="48.63515" lon="2.09471">
        <ele>164.8</ele>
        <time>2026-05-24T10:00:54Z</time>
      </trkpt>
      <trkpt lat="48.63514" lon="2.09464">
        <ele>164.8</ele>
        <time>2026-05-24T10:00:55Z</time>
      </trkpt>
      <trkpt lat="48.63514" lon="2.09457">
        <ele>164.8</ele>
        <time>2026-05-24T10:00:56Z</time>
      </trkpt>
      <trkpt lat="48.63513" lon="2.09451">
        <ele>164.6</ele>
        <time>2026-05-24T10:00:57Z</time>
      </trkpt>
      <trkpt lat="48.63512" lon="2.09444">
        <ele>164.6</ele>
        <time>2026-05-24T10:00:58Z</time>
      </trkpt>
      <trkpt lat="48.63511" lon="2.09436">
        <ele>164.6</ele>
        <time>2026-05-24T10:00:59Z</time>
      </trkpt>
      <trkpt lat="48.6351" lon="2.09428">
        <ele>165.6</ele>
        <time>2026-05-24T10:01:00Z</time>
      </trkpt>
      <trkpt lat="48.6351" lon="2.09421">
        <ele>166.2</ele>
        <time>2026-05-24T10:01:01Z</time>
      </trkpt>
      <trkpt lat="48.63509" lon="2.09414">
        <ele>166.2</ele>
        <time>2026-05-24T10:01:02Z</time>
      </trkpt>
      <trkpt lat="48.63508" lon="2.09407">
        <ele>166.2</ele>
        <time>2026-05-24T10:01:03Z</time>
      </trkpt>
      <trkpt lat="48.63509" lon="2.09399">
        <ele>166.2</ele>
        <time>2026-05-24T10:01:04Z</time>
      </trkpt>
      <trkpt lat="48.6351" lon="2.09392">
        <ele>165.6</ele>
        <time>2026-05-24T10:01:05Z</time>
      </trkpt>
      <trkpt lat="48.63511" lon="2.09385">
        <ele>165.6</ele>
        <time>2026-05-24T10:01:06Z</time>
      </trkpt>
      <trkpt lat="48.63511" lon="2.09376">
        <ele>165.6</ele>
        <time>2026-05-24T10:01:07Z</time>
      </trkpt>
      <trkpt lat="48.63512" lon="2.09369">
        <ele>166</ele>
        <time>2026-05-24T10:01:08Z</time>
      </trkpt>
      <trkpt lat="48.63513" lon="2.09362">
        <ele>166.8</ele>
        <time>2026-05-24T10:01:09Z</time>
      </trkpt>
      <trkpt lat="48.63515" lon="2.09356">
        <ele>166.8</ele>
        <time>2026-05-24T10:01:10Z</time>
      </trkpt>
      <trkpt lat="48.63517" lon="2.09349">
        <ele>166.8</ele>
        <time>2026-05-24T10:01:11Z</time>
      </trkpt>
      <trkpt lat="48.6352" lon="2.09343">
        <ele>165.8</ele>
        <time>2026-05-24T10:01:12Z</time>
      </trkpt>
      <trkpt lat="48.63522" lon="2.09336">
        <ele>165.4</ele>
        <time>2026-05-24T10:01:13Z</time>
      </trkpt>
      <trkpt lat="48.6352" lon="2.09329">
        <ele>165.4</ele>
        <time>2026-05-24T10:01:14Z</time>
      </trkpt>
      <trkpt lat="48.63518" lon="2.09325">
        <ele>165.4</ele>
        <time>2026-05-24T10:01:15Z</time>
      </trkpt>
      <trkpt lat="48.63514" lon="2.09321">
        <ele>165.8</ele>
        <time>2026-05-24T10:01:16Z</time>
      </trkpt>
      <trkpt lat="48.6351" lon="2.09319">
        <ele>166.4</ele>
        <time>2026-05-24T10:01:17Z</time>
      </trkpt>
      <trkpt lat="48.63506" lon="2.09318">
        <ele>166.4</ele>
        <time>2026-05-24T10:01:18Z</time>
      </trkpt>
      <trkpt lat="48.63503" lon="2.09318">
        <ele>166.4</ele>
        <time>2026-05-24T10:01:19Z</time>
      </trkpt>
      <trkpt lat="48.63498" lon="2.09316">
        <ele>166.4</ele>
        <time>2026-05-24T10:01:20Z</time>
      </trkpt>
      <trkpt lat="48.63494" lon="2.09313">
        <ele>166</ele>
        <time>2026-05-24T10:01:21Z</time>
      </trkpt>
      <trkpt lat="48.63492" lon="2.09307">
        <ele>166</ele>
        <time>2026-05-24T10:01:22Z</time>
      </trkpt>
      <trkpt lat="48.63491" lon="2.093">
        <ele>166</ele>
        <time>2026-05-24T10:01:23Z</time>
      </trkpt>
      <trkpt lat="48.6349" lon="2.09295">
        <ele>165</ele>
        <time>2026-05-24T10:01:24Z</time>
      </trkpt>
      <trkpt lat="48.63491" lon="2.09287">
        <ele>166.4</ele>
        <time>2026-05-24T10:01:25Z</time>
      </trkpt>
      <trkpt lat="48.63492" lon="2.09281">
        <ele>166.4</ele>
        <time>2026-05-24T10:01:26Z</time>
      </trkpt>
      <trkpt lat="48.63495" lon="2.09277">
        <ele>166.4</ele>
        <time>2026-05-24T10:01:27Z</time>
      </trkpt>
      <trkpt lat="48.63496" lon="2.09272">
        <ele>166.4</ele>
        <time>2026-05-24T10:01:28Z</time>
      </trkpt>
      <trkpt lat="48.63498" lon="2.09267">
        <ele>166.8</ele>
        <time>2026-05-24T10:01:29Z</time>
      </trkpt>
      <trkpt lat="48.635" lon="2.09263">
        <ele>166.8</ele>
        <time>2026-05-24T10:01:30Z</time>
      </trkpt>
      <trkpt lat="48.63501" lon="2.09258">
        <ele>166.8</ele>
        <time>2026-05-24T10:01:31Z</time>
      </trkpt>
      <trkpt lat="48.63502" lon="2.09253">
        <ele>167.8</ele>
        <time>2026-05-24T10:01:32Z</time>
      </trkpt>
      <trkpt lat="48.63502" lon="2.09248">
        <ele>167.6</ele>
        <time>2026-05-24T10:01:33Z</time>
      </trkpt>
      <trkpt lat="48.63501" lon="2.09241">
        <ele>167.6</ele>
        <time>2026-05-24T10:01:34Z</time>
      </trkpt>
      <trkpt lat="48.635" lon="2.09235">
        <ele>167.6</ele>
        <time>2026-05-24T10:01:35Z</time>
      </trkpt>
      <trkpt lat="48.63498" lon="2.09229">
        <ele>167.6</ele>
        <time>2026-05-24T10:01:36Z</time>
      </trkpt>
      <trkpt lat="48.63498" lon="2.09223">
        <ele>168</ele>
        <time>2026-05-24T10:01:37Z</time>
      </trkpt>
      <trkpt lat="48.63495" lon="2.09219">
        <ele>168</ele>
        <time>2026-05-24T10:01:38Z</time>
      </trkpt>
      <trkpt lat="48.63492" lon="2.09214">
        <ele>168</ele>
        <time>2026-05-24T10:01:39Z</time>
      </trkpt>
      <trkpt lat="48.63488" lon="2.09208">
        <ele>168</ele>
        <time>2026-05-24T10:01:40Z</time>
      </trkpt>
      <trkpt lat="48.63487" lon="2.09202">
        <ele>168.2</ele>
        <time>2026-05-24T10:01:41Z</time>
      </trkpt>
      <trkpt lat="48.63485" lon="2.09197">
        <ele>168.2</ele>
        <time>2026-05-24T10:01:42Z</time>
      </trkpt>
      <trkpt lat="48.63484" lon="2.09193">
        <ele>168.2</ele>
        <time>2026-05-24T10:01:43Z</time>
      </trkpt>
      <trkpt lat="48.63482" lon="2.0919">
        <ele>169</ele>
        <time>2026-05-24T10:01:44Z</time>
      </trkpt>
      <trkpt lat="48.6348" lon="2.09185">
        <ele>168.6</ele>
        <time>2026-05-24T10:01:45Z</time>
      </trkpt>
      <trkpt lat="48.63477" lon="2.09181">
        <ele>168.6</ele>
        <time>2026-05-24T10:01:46Z</time>
      </trkpt>
      <trkpt lat="48.63474" lon="2.09176">
        <ele>168.6</ele>
        <time>2026-05-24T10:01:47Z</time>
      </trkpt>
      <trkpt lat="48.63471" lon="2.09171">
        <ele>169.6</ele>
        <time>2026-05-24T10:01:48Z</time>
      </trkpt>
      <trkpt lat="48.63468" lon="2.09167">
        <ele>169.8</ele>
        <time>2026-05-24T10:01:49Z</time>
      </trkpt>
      <trkpt lat="48.63466" lon="2.09162">
        <ele>169.8</ele>
        <time>2026-05-24T10:01:50Z</time>
      </trkpt>
      <trkpt lat="48.63463" lon="2.09158">
        <ele>169.8</ele>
        <time>2026-05-24T10:01:51Z</time>
      </trkpt>
      <trkpt lat="48.63461" lon="2.09155">
        <ele>169.8</ele>
        <time>2026-05-24T10:01:52Z</time>
      </trkpt>
      <trkpt lat="48.63458" lon="2.09152">
        <ele>170.8</ele>
        <time>2026-05-24T10:01:53Z</time>
      </trkpt>
      <trkpt lat="48.63454" lon="2.09149">
        <ele>170.8</ele>
        <time>2026-05-24T10:01:54Z</time>
      </trkpt>
      <trkpt lat="48.6345" lon="2.09147">
        <ele>170.8</ele>
        <time>2026-05-24T10:01:55Z</time>
      </trkpt>
      <trkpt lat="48.63447" lon="2.09145">
        <ele>170.6</ele>
        <time>2026-05-24T10:01:56Z</time>
      </trkpt>
      <trkpt lat="48.63444" lon="2.09144">
        <ele>170.4</ele>
        <time>2026-05-24T10:01:57Z</time>
      </trkpt>
      <trkpt lat="48.63441" lon="2.09142">
        <ele>170.4</ele>
        <time>2026-05-24T10:01:58Z</time>
      </trkpt>
      <trkpt lat="48.63437" lon="2.09141">
        <ele>170.4</ele>
        <time>2026-05-24T10:01:59Z</time>
      </trkpt>
      <trkpt lat="48.63433" lon="2.0914">
        <ele>170.4</ele>
        <time>2026-05-24T10:02:00Z</time>
      </trkpt>
      <trkpt lat="48.63429" lon="2.09139">
        <ele>171</ele>
        <time>2026-05-24T10:02:01Z</time>
      </trkpt>
      <trkpt lat="48.63426" lon="2.09139">
        <ele>171</ele>
        <time>2026-05-24T10:02:02Z</time>
      </trkpt>
      <trkpt lat="48.63423" lon="2.09138">
        <ele>171</ele>
        <time>2026-05-24T10:02:03Z</time>
      </trkpt>
      <trkpt lat="48.63418" lon="2.09136">
        <ele>171</ele>
        <time>2026-05-24T10:02:04Z</time>
      </trkpt>
      <trkpt lat="48.63414" lon="2.09135">
        <ele>172</ele>
        <time>2026-05-24T10:02:05Z</time>
      </trkpt>
      <trkpt lat="48.63411" lon="2.09132">
        <ele>172</ele>
        <time>2026-05-24T10:02:06Z</time>
      </trkpt>
      <trkpt lat="48.63408" lon="2.09131">
        <ele>172</ele>
        <time>2026-05-24T10:02:07Z</time>
      </trkpt>
      <trkpt lat="48.63405" lon="2.0913">
        <ele>172</ele>
        <time>2026-05-24T10:02:08Z</time>
      </trkpt>
      <trkpt lat="48.63401" lon="2.09128">
        <ele>171.6</ele>
        <time>2026-05-24T10:02:09Z</time>
      </trkpt>
      <trkpt lat="48.63397" lon="2.09126">
        <ele>171.6</ele>
        <time>2026-05-24T10:02:10Z</time>
      </trkpt>
      <trkpt lat="48.63396" lon="2.09122">
        <ele>171.6</ele>
        <time>2026-05-24T10:02:11Z</time>
      </trkpt>
      <trkpt lat="48.63394" lon="2.09116">
        <ele>171.8</ele>
        <time>2026-05-24T10:02:12Z</time>
      </trkpt>
      <trkpt lat="48.63393" lon="2.09112">
        <ele>172.4</ele>
        <time>2026-05-24T10:02:13Z</time>
      </trkpt>
      <trkpt lat="48.63393" lon="2.09108">
        <ele>172.4</ele>
        <time>2026-05-24T10:02:14Z</time>
      </trkpt>
      <trkpt lat="48.63393" lon="2.09104">
        <ele>172.4</ele>
        <time>2026-05-24T10:02:15Z</time>
      </trkpt>
      <trkpt lat="48.63392" lon="2.09099">
        <ele>172.4</ele>
        <time>2026-05-24T10:02:16Z</time>
      </trkpt>
      <trkpt lat="48.63392" lon="2.09095">
        <ele>173.6</ele>
        <time>2026-05-24T10:02:17Z</time>
      </trkpt>
      <trkpt lat="48.63392" lon="2.09089">
        <ele>173.6</ele>
        <time>2026-05-24T10:02:18Z</time>
      </trkpt>
      <trkpt lat="48.63392" lon="2.09084">
        <ele>173.6</ele>
        <time>2026-05-24T10:02:19Z</time>
      </trkpt>
      <trkpt lat="48.63393" lon="2.09079">
        <ele>173.2</ele>
        <time>2026-05-24T10:02:20Z</time>
      </trkpt>
      <trkpt lat="48.63393" lon="2.09073">
        <ele>172.6</ele>
        <time>2026-05-24T10:02:21Z</time>
      </trkpt>
      <trkpt lat="48.63394" lon="2.09067">
        <ele>172.6</ele>
        <time>2026-05-24T10:02:22Z</time>
      </trkpt>
      <trkpt lat="48.63395" lon="2.09062">
        <ele>172.6</ele>
        <time>2026-05-24T10:02:23Z</time>
      </trkpt>
      <trkpt lat="48.63395" lon="2.09054">
        <ele>172.6</ele>
        <time>2026-05-24T10:02:24Z</time>
      </trkpt>
      <trkpt lat="48.63396" lon="2.09048">
        <ele>172.8</ele>
        <time>2026-05-24T10:02:25Z</time>
      </trkpt>
      <trkpt lat="48.63397" lon="2.09043">
        <ele>172.8</ele>
        <time>2026-05-24T10:02:26Z</time>
      </trkpt>
      <trkpt lat="48.63397" lon="2.09038">
        <ele>172.8</ele>
        <time>2026-05-24T10:02:27Z</time>
      </trkpt>
      <trkpt lat="48.63397" lon="2.09032">
        <ele>172.8</ele>
        <time>2026-05-24T10:02:28Z</time>
      </trkpt>
      <trkpt lat="48.63398" lon="2.09026">
        <ele>173.2</ele>
        <time>2026-05-24T10:02:29Z</time>
      </trkpt>
      <trkpt lat="48.63398" lon="2.0902">
        <ele>173.2</ele>
        <time>2026-05-24T10:02:30Z</time>
      </trkpt>
      <trkpt lat="48.634" lon="2.09016">
        <ele>173.2</ele>
        <time>2026-05-24T10:02:31Z</time>
      </trkpt>
      <trkpt lat="48.63401" lon="2.0901">
        <ele>173.2</ele>
        <time>2026-05-24T10:02:32Z</time>
      </trkpt>
      <trkpt lat="48.63402" lon="2.09004">
        <ele>173.2</ele>
        <time>2026-05-24T10:02:33Z</time>
      </trkpt>
      <trkpt lat="48.63402" lon="2.08996">
        <ele>173.2</ele>
        <time>2026-05-24T10:02:34Z</time>
      </trkpt>
      <trkpt lat="48.63403" lon="2.08991">
        <ele>173.2</ele>
        <time>2026-05-24T10:02:35Z</time>
      </trkpt>
      <trkpt lat="48.63403" lon="2.08984">
        <ele>173.2</ele>
        <time>2026-05-24T10:02:36Z</time>
      </trkpt>
      <trkpt lat="48.63403" lon="2.08979">
        <ele>174.8</ele>
        <time>2026-05-24T10:02:37Z</time>
      </trkpt>
      <trkpt lat="48.63404" lon="2.08973">
        <ele>174.8</ele>
        <time>2026-05-24T10:02:38Z</time>
      </trkpt>
      <trkpt lat="48.63405" lon="2.08967">
        <ele>174.8</ele>
        <time>2026-05-24T10:02:39Z</time>
      </trkpt>
      <trkpt lat="48.63405" lon="2.08962">
        <ele>174</ele>
        <time>2026-05-24T10:02:40Z</time>
      </trkpt>
      <trkpt lat="48.63404" lon="2.08956">
        <ele>174</ele>
        <time>2026-05-24T10:02:41Z</time>
      </trkpt>
      <trkpt lat="48.63402" lon="2.08954">
        <ele>174</ele>
        <time>2026-05-24T10:02:42Z</time>
      </trkpt>
      <trkpt lat="48.63399" lon="2.08951">
        <ele>174</ele>
        <time>2026-05-24T10:02:43Z</time>
      </trkpt>
      <trkpt lat="48.63396" lon="2.0895">
        <ele>174</ele>
        <time>2026-05-24T10:02:44Z</time>
      </trkpt>
      <trkpt lat="48.63393" lon="2.08948">
        <ele>174.4</ele>
        <time>2026-05-24T10:02:45Z</time>
      </trkpt>
      <trkpt lat="48.63389" lon="2.08948">
        <ele>174.4</ele>
        <time>2026-05-24T10:02:46Z</time>
      </trkpt>
      <trkpt lat="48.63385" lon="2.08945">
        <ele>174.4</ele>
        <time>2026-05-24T10:02:47Z</time>
      </trkpt>
      <trkpt lat="48.63383" lon="2.08945">
        <ele>173.4</ele>
        <time>2026-05-24T10:02:48Z</time>
      </trkpt>
      <trkpt lat="48.63379" lon="2.08944">
        <ele>174.6</ele>
        <time>2026-05-24T10:02:49Z</time>
      </trkpt>
      <trkpt lat="48.63375" lon="2.08942">
        <ele>174.6</ele>
        <time>2026-05-24T10:02:50Z</time>
      </trkpt>
      <trkpt lat="48.63371" lon="2.08941">
        <ele>174.6</ele>
        <time>2026-05-24T10:02:51Z</time>
      </trkpt>
      <trkpt lat="48.63368" lon="2.0894">
        <ele>174.4</ele>
        <time>2026-05-24T10:02:52Z</time>
      </trkpt>
      <trkpt lat="48.63364" lon="2.08939">
        <ele>173.6</ele>
        <time>2026-05-24T10:02:53Z</time>
      </trkpt>
      <trkpt lat="48.63361" lon="2.08937">
        <ele>173.6</ele>
        <time>2026-05-24T10:02:54Z</time>
      </trkpt>
      <trkpt lat="48.63356" lon="2.08937">
        <ele>173.6</ele>
        <time>2026-05-24T10:02:55Z</time>
      </trkpt>
      <trkpt lat="48.63352" lon="2.08935">
        <ele>173.6</ele>
        <time>2026-05-24T10:02:56Z</time>
      </trkpt>
      <trkpt lat="48.63347" lon="2.08934">
        <ele>173.4</ele>
        <time>2026-05-24T10:02:57Z</time>
      </trkpt>
      <trkpt lat="48.63342" lon="2.08932">
        <ele>173.4</ele>
        <time>2026-05-24T10:02:58Z</time>
      </trkpt>
      <trkpt lat="48.63338" lon="2.08931">
        <ele>173.4</ele>
        <time>2026-05-24T10:02:59Z</time>
      </trkpt>
      <trkpt lat="48.63332" lon="2.0893">
        <ele>172.4</ele>
        <time>2026-05-24T10:03:00Z</time>
      </trkpt>
      <trkpt lat="48.63327" lon="2.0893">
        <ele>171.6</ele>
        <time>2026-05-24T10:03:01Z</time>
      </trkpt>
      <trkpt lat="48.63322" lon="2.0893">
        <ele>171.6</ele>
        <time>2026-05-24T10:03:02Z</time>
      </trkpt>
      <trkpt lat="48.63316" lon="2.08929">
        <ele>171.6</ele>
        <time>2026-05-24T10:03:03Z</time>
      </trkpt>
      <trkpt lat="48.6331" lon="2.08927">
        <ele>171.6</ele>
        <time>2026-05-24T10:03:04Z</time>
      </trkpt>
      <trkpt lat="48.63303" lon="2.08927">
        <ele>170</ele>
        <time>2026-05-24T10:03:05Z</time>
      </trkpt>
      <trkpt lat="48.63295" lon="2.08926">
        <ele>170</ele>
        <time>2026-05-24T10:03:06Z</time>
      </trkpt>
      <trkpt lat="48.63288" lon="2.08925">
        <ele>170</ele>
        <time>2026-05-24T10:03:07Z</time>
      </trkpt>
      <trkpt lat="48.6328" lon="2.08921">
        <ele>169</ele>
        <time>2026-05-24T10:03:08Z</time>
      </trkpt>
      <trkpt lat="48.6327" lon="2.08921">
        <ele>167.6</ele>
        <time>2026-05-24T10:03:09Z</time>
      </trkpt>
      <trkpt lat="48.6326" lon="2.0892">
        <ele>167.6</ele>
        <time>2026-05-24T10:03:10Z</time>
      </trkpt>
      <trkpt lat="48.63252" lon="2.08919">
        <ele>167.6</ele>
        <time>2026-05-24T10:03:11Z</time>
      </trkpt>
      <trkpt lat="48.63246" lon="2.08919">
        <ele>166.6</ele>
        <time>2026-05-24T10:03:12Z</time>
      </trkpt>
      <trkpt lat="48.63239" lon="2.08919">
        <ele>163.2</ele>
        <time>2026-05-24T10:03:13Z</time>
      </trkpt>
      <trkpt lat="48.63233" lon="2.08918">
        <ele>163.2</ele>
        <time>2026-05-24T10:03:14Z</time>
      </trkpt>
      <trkpt lat="48.63227" lon="2.08917">
        <ele>163.2</ele>
        <time>2026-05-24T10:03:15Z</time>
      </trkpt>
      <trkpt lat="48.6322" lon="2.08915">
        <ele>162.2</ele>
        <time>2026-05-24T10:03:16Z</time>
      </trkpt>
      <trkpt lat="48.63211" lon="2.08916">
        <ele>158</ele>
        <time>2026-05-24T10:03:17Z</time>
      </trkpt>
      <trkpt lat="48.63204" lon="2.08916">
        <ele>158</ele>
        <time>2026-05-24T10:03:18Z</time>
      </trkpt>
      <trkpt lat="48.63197" lon="2.08914">
        <ele>158</ele>
        <time>2026-05-24T10:03:19Z</time>
      </trkpt>
      <trkpt lat="48.63188" lon="2.08912">
        <ele>158</ele>
        <time>2026-05-24T10:03:20Z</time>
      </trkpt>
      <trkpt lat="48.63181" lon="2.08911">
        <ele>156.8</ele>
        <time>2026-05-24T10:03:21Z</time>
      </trkpt>
      <trkpt lat="48.63176" lon="2.0891">
        <ele>156.8</ele>
        <time>2026-05-24T10:03:22Z</time>
      </trkpt>
      <trkpt lat="48.6317" lon="2.08909">
        <ele>156.8</ele>
        <time>2026-05-24T10:03:23Z</time>
      </trkpt>
      <trkpt lat="48.63164" lon="2.08909">
        <ele>155.8</ele>
        <time>2026-05-24T10:03:24Z</time>
      </trkpt>
      <trkpt lat="48.6316" lon="2.08912">
        <ele>153.4</ele>
        <time>2026-05-24T10:03:25Z</time>
      </trkpt>
      <trkpt lat="48.63157" lon="2.08915">
        <ele>153.4</ele>
        <time>2026-05-24T10:03:26Z</time>
      </trkpt>
      <trkpt lat="48.63153" lon="2.08914">
        <ele>153.4</ele>
        <time>2026-05-24T10:03:27Z</time>
      </trkpt>
      <trkpt lat="48.63149" lon="2.08912">
        <ele>153.4</ele>
        <time>2026-05-24T10:03:28Z</time>
      </trkpt>
      <trkpt lat="48.63148" lon="2.0891">
        <ele>153.2</ele>
        <time>2026-05-24T10:03:29Z</time>
      </trkpt>
      <trkpt lat="48.63148" lon="2.08907">
        <ele>153.2</ele>
        <time>2026-05-24T10:03:30Z</time>
      </trkpt>
      <trkpt lat="48.63148" lon="2.08904">
        <ele>153.2</ele>
        <time>2026-05-24T10:03:31Z</time>
      </trkpt>
      <trkpt lat="48.63147" lon="2.089">
        <ele>154.2</ele>
        <time>2026-05-24T10:03:32Z</time>
      </trkpt>
      <trkpt lat="48.63146" lon="2.08897">
        <ele>154.6</ele>
        <time>2026-05-24T10:03:33Z</time>
      </trkpt>
      <trkpt lat="48.63146" lon="2.08892">
        <ele>154.6</ele>
        <time>2026-05-24T10:03:34Z</time>
      </trkpt>
      <trkpt lat="48.63145" lon="2.08887">
        <ele>154.6</ele>
        <time>2026-05-24T10:03:35Z</time>
      </trkpt>
      <trkpt lat="48.63145" lon="2.08881">
        <ele>154.6</ele>
        <time>2026-05-24T10:03:36Z</time>
      </trkpt>
      <trkpt lat="48.63144" lon="2.08875">
        <ele>154.2</ele>
        <time>2026-05-24T10:03:37Z</time>
      </trkpt>
      <trkpt lat="48.63143" lon="2.08868">
        <ele>154.2</ele>
        <time>2026-05-24T10:03:38Z</time>
      </trkpt>
      <trkpt lat="48.63143" lon="2.08861">
        <ele>154.2</ele>
        <time>2026-05-24T10:03:39Z</time>
      </trkpt>
      <trkpt lat="48.63144" lon="2.08856">
        <ele>154.2</ele>
        <time>2026-05-24T10:03:40Z</time>
      </trkpt>
      <trkpt lat="48.63143" lon="2.0885">
        <ele>151.4</ele>
        <time>2026-05-24T10:03:41Z</time>
      </trkpt>
      <trkpt lat="48.63144" lon="2.08842">
        <ele>151.4</ele>
        <time>2026-05-24T10:03:42Z</time>
      </trkpt>
      <trkpt lat="48.63145" lon="2.08836">
        <ele>151.4</ele>
        <time>2026-05-24T10:03:43Z</time>
      </trkpt>
      <trkpt lat="48.63148" lon="2.08832">
        <ele>151.4</ele>
        <time>2026-05-24T10:03:44Z</time>
      </trkpt>
      <trkpt lat="48.63148" lon="2.08825">
        <ele>150.4</ele>
        <time>2026-05-24T10:03:45Z</time>
      </trkpt>
      <trkpt lat="48.63147" lon="2.08818">
        <ele>150.4</ele>
        <time>2026-05-24T10:03:46Z</time>
      </trkpt>
      <trkpt lat="48.63148" lon="2.08811">
        <ele>150.4</ele>
        <time>2026-05-24T10:03:47Z</time>
      </trkpt>
      <trkpt lat="48.63148" lon="2.08805">
        <ele>150.4</ele>
        <time>2026-05-24T10:03:48Z</time>
      </trkpt>
      <trkpt lat="48.63148" lon="2.088">
        <ele>150.2</ele>
        <time>2026-05-24T10:03:49Z</time>
      </trkpt>
      <trkpt lat="48.63148" lon="2.08798">
        <ele>150.2</ele>
        <time>2026-05-24T10:03:50Z</time>
      </trkpt>
      <trkpt lat="48.63146" lon="2.08797">
        <ele>150.2</ele>
        <time>2026-05-24T10:03:51Z</time>
      </trkpt>
      <trkpt lat="48.63143" lon="2.08796">
        <ele>150.2</ele>
        <time>2026-05-24T10:03:52Z</time>
      </trkpt>
      <trkpt lat="48.63139" lon="2.08794">
        <ele>148.6</ele>
        <time>2026-05-24T10:03:53Z</time>
      </trkpt>
      <trkpt lat="48.63135" lon="2.08794">
        <ele>148.6</ele>
        <time>2026-05-24T10:03:54Z</time>
      </trkpt>
      <trkpt lat="48.6313" lon="2.08792">
        <ele>148.6</ele>
        <time>2026-05-24T10:03:55Z</time>
      </trkpt>
      <trkpt lat="48.63123" lon="2.08792">
        <ele>147.6</ele>
        <time>2026-05-24T10:03:56Z</time>
      </trkpt>
      <trkpt lat="48.63117" lon="2.0879">
        <ele>146</ele>
        <time>2026-05-24T10:03:57Z</time>
      </trkpt>
      <trkpt lat="48.63112" lon="2.08784">
        <ele>146</ele>
        <time>2026-05-24T10:03:58Z</time>
      </trkpt>
      <trkpt lat="48.63107" lon="2.08777">
        <ele>146</ele>
        <time>2026-05-24T10:03:59Z</time>
      </trkpt>
      <trkpt lat="48.63105" lon="2.08767">
        <ele>145</ele>
        <time>2026-05-24T10:04:00Z</time>
      </trkpt>
      <trkpt lat="48.63105" lon="2.08756">
        <ele>144.6</ele>
        <time>2026-05-24T10:04:01Z</time>
      </trkpt>
      <trkpt lat="48.63105" lon="2.08746">
        <ele>144.6</ele>
        <time>2026-05-24T10:04:02Z</time>
      </trkpt>
      <trkpt lat="48.63104" lon="2.08736">
        <ele>144.6</ele>
        <time>2026-05-24T10:04:03Z</time>
      </trkpt>
      <trkpt lat="48.63101" lon="2.08726">
        <ele>143.6</ele>
        <time>2026-05-24T10:04:04Z</time>
      </trkpt>
      <trkpt lat="48.63099" lon="2.08716">
        <ele>142.4</ele>
        <time>2026-05-24T10:04:05Z</time>
      </trkpt>
      <trkpt lat="48.63101" lon="2.08705">
        <ele>142.4</ele>
        <time>2026-05-24T10:04:06Z</time>
      </trkpt>
      <trkpt lat="48.63103" lon="2.08695">
        <ele>142.4</ele>
        <time>2026-05-24T10:04:07Z</time>
      </trkpt>
      <trkpt lat="48.63105" lon="2.08685">
        <ele>142.2</ele>
        <time>2026-05-24T10:04:08Z</time>
      </trkpt>
      <trkpt lat="48.63108" lon="2.08675">
        <ele>142.4</ele>
        <time>2026-05-24T10:04:09Z</time>
      </trkpt>
      <trkpt lat="48.63111" lon="2.08666">
        <ele>142.4</ele>
        <time>2026-05-24T10:04:10Z</time>
      </trkpt>
      <trkpt lat="48.63114" lon="2.08656">
        <ele>142.4</ele>
        <time>2026-05-24T10:04:11Z</time>
      </trkpt>
      <trkpt lat="48.63114" lon="2.08646">
        <ele>142.4</ele>
        <time>2026-05-24T10:04:12Z</time>
      </trkpt>
      <trkpt lat="48.63113" lon="2.08635">
        <ele>142.6</ele>
        <time>2026-05-24T10:04:13Z</time>
      </trkpt>
      <trkpt lat="48.6311" lon="2.08625">
        <ele>142.6</ele>
        <time>2026-05-24T10:04:14Z</time>
      </trkpt>
      <trkpt lat="48.63108" lon="2.08616">
        <ele>142.6</ele>
        <time>2026-05-24T10:04:15Z</time>
      </trkpt>
      <trkpt lat="48.63106" lon="2.08606">
        <ele>143.6</ele>
        <time>2026-05-24T10:04:16Z</time>
      </trkpt>
      <trkpt lat="48.63105" lon="2.08597">
        <ele>144</ele>
        <time>2026-05-24T10:04:17Z</time>
      </trkpt>
      <trkpt lat="48.63106" lon="2.08588">
        <ele>144</ele>
        <time>2026-05-24T10:04:18Z</time>
      </trkpt>
      <trkpt lat="48.63106" lon="2.0858">
        <ele>144</ele>
        <time>2026-05-24T10:04:19Z</time>
      </trkpt>
      <trkpt lat="48.63105" lon="2.08573">
        <ele>144.8</ele>
        <time>2026-05-24T10:04:20Z</time>
      </trkpt>
      <trkpt lat="48.63105" lon="2.08565">
        <ele>145</ele>
        <time>2026-05-24T10:04:21Z</time>
      </trkpt>
      <trkpt lat="48.63105" lon="2.08559">
        <ele>145</ele>
        <time>2026-05-24T10:04:22Z</time>
      </trkpt>
      <trkpt lat="48.63105" lon="2.08553">
        <ele>145</ele>
        <time>2026-05-24T10:04:23Z</time>
      </trkpt>
      <trkpt lat="48.63105" lon="2.08547">
        <ele>145</ele>
        <time>2026-05-24T10:04:24Z</time>
      </trkpt>
      <trkpt lat="48.63105" lon="2.08541">
        <ele>146</ele>
        <time>2026-05-24T10:04:25Z</time>
      </trkpt>
      <trkpt lat="48.63105" lon="2.08536">
        <ele>146</ele>
        <time>2026-05-24T10:04:26Z</time>
      </trkpt>
      <trkpt lat="48.63104" lon="2.0853">
        <ele>146</ele>
        <time>2026-05-24T10:04:27Z</time>
      </trkpt>
      <trkpt lat="48.63104" lon="2.08525">
        <ele>147</ele>
        <time>2026-05-24T10:04:28Z</time>
      </trkpt>
      <trkpt lat="48.63105" lon="2.08519">
        <ele>147.4</ele>
        <time>2026-05-24T10:04:29Z</time>
      </trkpt>
      <trkpt lat="48.63105" lon="2.08514">
        <ele>147.4</ele>
        <time>2026-05-24T10:04:30Z</time>
      </trkpt>
      <trkpt lat="48.63105" lon="2.08509">
        <ele>147.4</ele>
        <time>2026-05-24T10:04:31Z</time>
      </trkpt>
      <trkpt lat="48.63105" lon="2.08504">
        <ele>147.4</ele>
        <time>2026-05-24T10:04:32Z</time>
      </trkpt>
      <trkpt lat="48.63106" lon="2.08498">
        <ele>147.6</ele>
        <time>2026-05-24T10:04:33Z</time>
      </trkpt>
      <trkpt lat="48.63108" lon="2.08494">
        <ele>147.6</ele>
        <time>2026-05-24T10:04:34Z</time>
      </trkpt>
      <trkpt lat="48.63109" lon="2.08488">
        <ele>147.6</ele>
        <time>2026-05-24T10:04:35Z</time>
      </trkpt>
      <trkpt lat="48.6311" lon="2.08483">
        <ele>148.6</ele>
        <time>2026-05-24T10:04:36Z</time>
      </trkpt>
      <trkpt lat="48.63111" lon="2.08478">
        <ele>149.8</ele>
        <time>2026-05-24T10:04:37Z</time>
      </trkpt>
      <trkpt lat="48.63111" lon="2.08472">
        <ele>149.8</ele>
        <time>2026-05-24T10:04:38Z</time>
      </trkpt>
      <trkpt lat="48.63111" lon="2.08467">
        <ele>149.8</ele>
        <time>2026-05-24T10:04:39Z</time>
      </trkpt>
      <trkpt lat="48.63111" lon="2.08461">
        <ele>149.4</ele>
        <time>2026-05-24T10:04:40Z</time>
      </trkpt>
      <trkpt lat="48.6311" lon="2.08456">
        <ele>149.4</ele>
        <time>2026-05-24T10:04:41Z</time>
      </trkpt>
      <trkpt lat="48.63109" lon="2.0845">
        <ele>149.4</ele>
        <time>2026-05-24T10:04:42Z</time>
      </trkpt>
      <trkpt lat="48.63109" lon="2.08444">
        <ele>149.4</ele>
        <time>2026-05-24T10:04:43Z</time>
      </trkpt>
      <trkpt lat="48.63109" lon="2.08438">
        <ele>150.2</ele>
        <time>2026-05-24T10:04:44Z</time>
      </trkpt>
      <trkpt lat="48.63109" lon="2.08432">
        <ele>150.2</ele>
        <time>2026-05-24T10:04:45Z</time>
      </trkpt>
      <trkpt lat="48.6311" lon="2.08425">
        <ele>150.2</ele>
        <time>2026-05-24T10:04:46Z</time>
      </trkpt>
      <trkpt lat="48.63111" lon="2.08419">
        <ele>150.2</ele>
        <time>2026-05-24T10:04:47Z</time>
      </trkpt>
      <trkpt lat="48.63112" lon="2.08412">
        <ele>150.2</ele>
        <time>2026-05-24T10:04:48Z</time>
      </trkpt>
      <trkpt lat="48.63113" lon="2.08405">
        <ele>150.2</ele>
        <time>2026-05-24T10:04:49Z</time>
      </trkpt>
      <trkpt lat="48.63115" lon="2.08398">
        <ele>150.2</ele>
        <time>2026-05-24T10:04:50Z</time>
      </trkpt>
      <trkpt lat="48.63116" lon="2.0839">
        <ele>150.2</ele>
        <time>2026-05-24T10:04:51Z</time>
      </trkpt>
      <trkpt lat="48.63118" lon="2.08381">
        <ele>150.2</ele>
        <time>2026-05-24T10:04:52Z</time>
      </trkpt>
      <trkpt lat="48.6312" lon="2.08372">
        <ele>147.8</ele>
        <time>2026-05-24T10:04:53Z</time>
      </trkpt>
      <trkpt lat="48.63123" lon="2.0836">
        <ele>147.8</ele>
        <time>2026-05-24T10:04:54Z</time>
      </trkpt>
      <trkpt lat="48.63125" lon="2.08348">
        <ele>147.8</ele>
        <time>2026-05-24T10:04:55Z</time>
      </trkpt>
      <trkpt lat="48.63127" lon="2.08335">
        <ele>146.8</ele>
        <time>2026-05-24T10:04:56Z</time>
      </trkpt>
      <trkpt lat="48.63129" lon="2.08321">
        <ele>145.6</ele>
        <time>2026-05-24T10:04:57Z</time>
      </trkpt>
      <trkpt lat="48.6313" lon="2.08307">
        <ele>145.6</ele>
        <time>2026-05-24T10:04:58Z</time>
      </trkpt>
      <trkpt lat="48.63129" lon="2.08293">
        <ele>145.6</ele>
        <time>2026-05-24T10:04:59Z</time>
      </trkpt>
      <trkpt lat="48.63127" lon="2.0828">
        <ele>145</ele>
        <time>2026-05-24T10:05:00Z</time>
      </trkpt>
      <trkpt lat="48.63125" lon="2.08268">
        <ele>145.2</ele>
        <time>2026-05-24T10:05:01Z</time>
      </trkpt>
      <trkpt lat="48.63123" lon="2.08256">
        <ele>145.2</ele>
        <time>2026-05-24T10:05:02Z</time>
      </trkpt>
      <trkpt lat="48.6312" lon="2.08245">
        <ele>145.2</ele>
        <time>2026-05-24T10:05:03Z</time>
      </trkpt>
      <trkpt lat="48.63116" lon="2.08234">
        <ele>145.4</ele>
        <time>2026-05-24T10:05:04Z</time>
      </trkpt>
      <trkpt lat="48.63113" lon="2.08224">
        <ele>145.4</ele>
        <time>2026-05-24T10:05:05Z</time>
      </trkpt>
      <trkpt lat="48.63109" lon="2.08213">
        <ele>145.4</ele>
        <time>2026-05-24T10:05:06Z</time>
      </trkpt>
      <trkpt lat="48.63106" lon="2.08203">
        <ele>145.4</ele>
        <time>2026-05-24T10:05:07Z</time>
      </trkpt>
      <trkpt lat="48.63104" lon="2.08192">
        <ele>145.4</ele>
        <time>2026-05-24T10:05:08Z</time>
      </trkpt>
      <trkpt lat="48.63102" lon="2.08181">
        <ele>145.4</ele>
        <time>2026-05-24T10:05:09Z</time>
      </trkpt>
      <trkpt lat="48.631" lon="2.0817">
        <ele>145.4</ele>
        <time>2026-05-24T10:05:10Z</time>
      </trkpt>
      <trkpt lat="48.63099" lon="2.08159">
        <ele>145.4</ele>
        <time>2026-05-24T10:05:11Z</time>
      </trkpt>
      <trkpt lat="48.63096" lon="2.08149">
        <ele>144.4</ele>
        <time>2026-05-24T10:05:12Z</time>
      </trkpt>
      <trkpt lat="48.63093" lon="2.0814">
        <ele>143</ele>
        <time>2026-05-24T10:05:13Z</time>
      </trkpt>
      <trkpt lat="48.63089" lon="2.08132">
        <ele>143</ele>
        <time>2026-05-24T10:05:14Z</time>
      </trkpt>
      <trkpt lat="48.63085" lon="2.08128">
        <ele>143</ele>
        <time>2026-05-24T10:05:15Z</time>
      </trkpt>
      <trkpt lat="48.6308" lon="2.08124">
        <ele>143</ele>
        <time>2026-05-24T10:05:16Z</time>
      </trkpt>
      <trkpt lat="48.63075" lon="2.08121">
        <ele>141.8</ele>
        <time>2026-05-24T10:05:17Z</time>
      </trkpt>
      <trkpt lat="48.63069" lon="2.08117">
        <ele>141.8</ele>
        <time>2026-05-24T10:05:18Z</time>
      </trkpt>
      <trkpt lat="48.63063" lon="2.08115">
        <ele>141.8</ele>
        <time>2026-05-24T10:05:19Z</time>
      </trkpt>
      <trkpt lat="48.63057" lon="2.08114">
        <ele>141.8</ele>
        <time>2026-05-24T10:05:20Z</time>
      </trkpt>
      <trkpt lat="48.63052" lon="2.08115">
        <ele>141.6</ele>
        <time>2026-05-24T10:05:21Z</time>
      </trkpt>
      <trkpt lat="48.63047" lon="2.08118">
        <ele>141.6</ele>
        <time>2026-05-24T10:05:22Z</time>
      </trkpt>
      <trkpt lat="48.63043" lon="2.08122">
        <ele>141.6</ele>
        <time>2026-05-24T10:05:23Z</time>
      </trkpt>
      <trkpt lat="48.6304" lon="2.08126">
        <ele>141.6</ele>
        <time>2026-05-24T10:05:24Z</time>
      </trkpt>
      <trkpt lat="48.63037" lon="2.0813">
        <ele>141.6</ele>
        <time>2026-05-24T10:05:25Z</time>
      </trkpt>
      <trkpt lat="48.63033" lon="2.08134">
        <ele>141.6</ele>
        <time>2026-05-24T10:05:26Z</time>
      </trkpt>
      <trkpt lat="48.6303" lon="2.08136">
        <ele>141.6</ele>
        <time>2026-05-24T10:05:27Z</time>
      </trkpt>
      <trkpt lat="48.63027" lon="2.08138">
        <ele>141.6</ele>
        <time>2026-05-24T10:05:28Z</time>
      </trkpt>
      <trkpt lat="48.63023" lon="2.08138">
        <ele>141.4</ele>
        <time>2026-05-24T10:05:29Z</time>
      </trkpt>
      <trkpt lat="48.6302" lon="2.08137">
        <ele>141.4</ele>
        <time>2026-05-24T10:05:30Z</time>
      </trkpt>
      <trkpt lat="48.63017" lon="2.08135">
        <ele>141.4</ele>
        <time>2026-05-24T10:05:31Z</time>
      </trkpt>
      <trkpt lat="48.63014" lon="2.08132">
        <ele>140.6</ele>
        <time>2026-05-24T10:05:32Z</time>
      </trkpt>
      <trkpt lat="48.63012" lon="2.08131">
        <ele>140.8</ele>
        <time>2026-05-24T10:05:33Z</time>
      </trkpt>
      <trkpt lat="48.6301" lon="2.08133">
        <ele>140.8</ele>
        <time>2026-05-24T10:05:34Z</time>
      </trkpt>
      <trkpt lat="48.63009" lon="2.08134">
        <ele>140.8</ele>
        <time>2026-05-24T10:05:35Z</time>
      </trkpt>
      <trkpt lat="48.63009" lon="2.08137">
        <ele>140.8</ele>
        <time>2026-05-24T10:05:36Z</time>
      </trkpt>
      <trkpt lat="48.6301" lon="2.08139">
        <ele>140.6</ele>
        <time>2026-05-24T10:05:37Z</time>
      </trkpt>
      <trkpt lat="48.6301" lon="2.08142">
        <ele>140.6</ele>
        <time>2026-05-24T10:05:38Z</time>
      </trkpt>
      <trkpt lat="48.6301" lon="2.08145">
        <ele>140.6</ele>
        <time>2026-05-24T10:05:39Z</time>
      </trkpt>
      <trkpt lat="48.6301" lon="2.08149">
        <ele>140.6</ele>
        <time>2026-05-24T10:05:40Z</time>
      </trkpt>
      <trkpt lat="48.63011" lon="2.08152">
        <ele>140.2</ele>
        <time>2026-05-24T10:05:41Z</time>
      </trkpt>
      <trkpt lat="48.63012" lon="2.08155">
        <ele>140.2</ele>
        <time>2026-05-24T10:05:42Z</time>
      </trkpt>
      <trkpt lat="48.63015" lon="2.08156">
        <ele>140.2</ele>
        <time>2026-05-24T10:05:43Z</time>
      </trkpt>
      <trkpt lat="48.63016" lon="2.08157">
        <ele>140.2</ele>
        <time>2026-05-24T10:05:44Z</time>
      </trkpt>
      <trkpt lat="48.63017" lon="2.08156">
        <ele>141.4</ele>
        <time>2026-05-24T10:05:45Z</time>
      </trkpt>
      <trkpt lat="48.63018" lon="2.08155">
        <ele>141.4</ele>
        <time>2026-05-24T10:05:46Z</time>
      </trkpt>
      <trkpt lat="48.63019" lon="2.08153">
        <ele>141.4</ele>
        <time>2026-05-24T10:05:47Z</time>
      </trkpt>
      <trkpt lat="48.63019" lon="2.08151">
        <ele>141.4</ele>
        <time>2026-05-24T10:05:48Z</time>
      </trkpt>
      <trkpt lat="48.63019" lon="2.08149">
        <ele>141.2</ele>
        <time>2026-05-24T10:05:49Z</time>
      </trkpt>
      <trkpt lat="48.63021" lon="2.08148">
        <ele>141.2</ele>
        <time>2026-05-24T10:05:50Z</time>
      </trkpt>
      <trkpt lat="48.63022" lon="2.08148">
        <ele>141.2</ele>
        <time>2026-05-24T10:05:51Z</time>
      </trkpt>
      <trkpt lat="48.63023" lon="2.08149">
        <ele>141.2</ele>
        <time>2026-05-24T10:05:52Z</time>
      </trkpt>
      <trkpt lat="48.63025" lon="2.08149">
        <ele>141.4</ele>
        <time>2026-05-24T10:05:53Z</time>
      </trkpt>
      <trkpt lat="48.63027" lon="2.0815">
        <ele>141.4</ele>
        <time>2026-05-24T10:05:54Z</time>
      </trkpt>
      <trkpt lat="48.63029" lon="2.08152">
        <ele>141.4</ele>
        <time>2026-05-24T10:05:55Z</time>
      </trkpt>
      <trkpt lat="48.63032" lon="2.08153">
        <ele>141.6</ele>
        <time>2026-05-24T10:05:56Z</time>
      </trkpt>
      <trkpt lat="48.63034" lon="2.08154">
        <ele>141.6</ele>
        <time>2026-05-24T10:05:57Z</time>
      </trkpt>
      <trkpt lat="48.63037" lon="2.08153">
        <ele>141.6</ele>
        <time>2026-05-24T10:05:58Z</time>
      </trkpt>
      <trkpt lat="48.6304" lon="2.08152">
        <ele>141.6</ele>
        <time>2026-05-24T10:05:59Z</time>
      </trkpt>
      <trkpt lat="48.63043" lon="2.0815">
        <ele>141.6</ele>
        <time>2026-05-24T10:06:00Z</time>
      </trkpt>
      <trkpt lat="48.63046" lon="2.08148">
        <ele>142.4</ele>
        <time>2026-05-24T10:06:01Z</time>
      </trkpt>
      <trkpt lat="48.63049" lon="2.08146">
        <ele>142.4</ele>
        <time>2026-05-24T10:06:02Z</time>
      </trkpt>
      <trkpt lat="48.63052" lon="2.08145">
        <ele>142.4</ele>
        <time>2026-05-24T10:06:03Z</time>
      </trkpt>
      <trkpt lat="48.63056" lon="2.08144">
        <ele>141.4</ele>
        <time>2026-05-24T10:06:04Z</time>
      </trkpt>
      <trkpt lat="48.63059" lon="2.08145">
        <ele>142.4</ele>
        <time>2026-05-24T10:06:05Z</time>
      </trkpt>
      <trkpt lat="48.63061" lon="2.08147">
        <ele>142.4</ele>
        <time>2026-05-24T10:06:06Z</time>
      </trkpt>
      <trkpt lat="48.63064" lon="2.08146">
        <ele>142.4</ele>
        <time>2026-05-24T10:06:07Z</time>
      </trkpt>
      <trkpt lat="48.63067" lon="2.08145">
        <ele>141.4</ele>
        <time>2026-05-24T10:06:08Z</time>
      </trkpt>
      <trkpt lat="48.6307" lon="2.08146">
        <ele>142.2</ele>
        <time>2026-05-24T10:06:09Z</time>
      </trkpt>
      <trkpt lat="48.63072" lon="2.08147">
        <ele>142.2</ele>
        <time>2026-05-24T10:06:10Z</time>
      </trkpt>
      <trkpt lat="48.63073" lon="2.0815">
        <ele>142.2</ele>
        <time>2026-05-24T10:06:11Z</time>
      </trkpt>
      <trkpt lat="48.63074" lon="2.08154">
        <ele>142.2</ele>
        <time>2026-05-24T10:06:12Z</time>
      </trkpt>
      <trkpt lat="48.63075" lon="2.08158">
        <ele>141.6</ele>
        <time>2026-05-24T10:06:13Z</time>
      </trkpt>
      <trkpt lat="48.63076" lon="2.08162">
        <ele>141.6</ele>
        <time>2026-05-24T10:06:14Z</time>
      </trkpt>
      <trkpt lat="48.63076" lon="2.08166">
        <ele>141.6</ele>
        <time>2026-05-24T10:06:15Z</time>
      </trkpt>
      <trkpt lat="48.63076" lon="2.08171">
        <ele>141.6</ele>
        <time>2026-05-24T10:06:16Z</time>
      </trkpt>
      <trkpt lat="48.63076" lon="2.08175">
        <ele>141.6</ele>
        <time>2026-05-24T10:06:17Z</time>
      </trkpt>
      <trkpt lat="48.63077" lon="2.0818">
        <ele>141.6</ele>
        <time>2026-05-24T10:06:18Z</time>
      </trkpt>
      <trkpt lat="48.63077" lon="2.08184">
        <ele>141.6</ele>
        <time>2026-05-24T10:06:19Z</time>
      </trkpt>
      <trkpt lat="48.63077" lon="2.08187">
        <ele>142.4</ele>
        <time>2026-05-24T10:06:20Z</time>
      </trkpt>
      <trkpt lat="48.63077" lon="2.08191">
        <ele>142.2</ele>
        <time>2026-05-24T10:06:21Z</time>
      </trkpt>
      <trkpt lat="48.63076" lon="2.08193">
        <ele>142.2</ele>
        <time>2026-05-24T10:06:22Z</time>
      </trkpt>
      <trkpt lat="48.63075" lon="2.08197">
        <ele>142.2</ele>
        <time>2026-05-24T10:06:23Z</time>
      </trkpt>
      <trkpt lat="48.63075" lon="2.08201">
        <ele>141.4</ele>
        <time>2026-05-24T10:06:24Z</time>
      </trkpt>
      <trkpt lat="48.63075" lon="2.08205">
        <ele>141.8</ele>
        <time>2026-05-24T10:06:25Z</time>
      </trkpt>
      <trkpt lat="48.63075" lon="2.08209">
        <ele>141.8</ele>
        <time>2026-05-24T10:06:26Z</time>
      </trkpt>
      <trkpt lat="48.63076" lon="2.08212">
        <ele>141.8</ele>
        <time>2026-05-24T10:06:27Z</time>
      </trkpt>
      <trkpt lat="48.63076" lon="2.08216">
        <ele>141.8</ele>
        <time>2026-05-24T10:06:28Z</time>
      </trkpt>
      <trkpt lat="48.63075" lon="2.08218">
        <ele>140.8</ele>
        <time>2026-05-24T10:06:29Z</time>
      </trkpt>
      <trkpt lat="48.63076" lon="2.08222">
        <ele>140.8</ele>
        <time>2026-05-24T10:06:30Z</time>
      </trkpt>
      <trkpt lat="48.63076" lon="2.08226">
        <ele>140.8</ele>
        <time>2026-05-24T10:06:31Z</time>
      </trkpt>
      <trkpt lat="48.63077" lon="2.08228">
        <ele>141.8</ele>
        <time>2026-05-24T10:06:32Z</time>
      </trkpt>
      <trkpt lat="48.63077" lon="2.0823">
        <ele>142.2</ele>
        <time>2026-05-24T10:06:33Z</time>
      </trkpt>
      <trkpt lat="48.63077" lon="2.0823">
        <ele>142.2</ele>
        <time>2026-05-24T10:06:34Z</time>
      </trkpt>
      <trkpt lat="48.63077" lon="2.0823">
        <ele>142.2</ele>
        <time>2026-05-24T10:06:35Z</time>
      </trkpt>
      <trkpt lat="48.63062" lon="2.08147">
        <ele>143</ele>
        <time>2026-05-24T11:00:25Z</time>
      </trkpt>
      <trkpt lat="48.63061" lon="2.08147">
        <ele>143.2</ele>
        <time>2026-05-24T11:00:26Z</time>
      </trkpt>
      <trkpt lat="48.63059" lon="2.08146">
        <ele>143.2</ele>
        <time>2026-05-24T11:00:27Z</time>
      </trkpt>
      <trkpt lat="48.63057" lon="2.08146">
        <ele>143.2</ele>
        <time>2026-05-24T11:00:28Z</time>
      </trkpt>
      <trkpt lat="48.63055" lon="2.08147">
        <ele>143.2</ele>
        <time>2026-05-24T11:00:29Z</time>
      </trkpt>
      <trkpt lat="48.63052" lon="2.08148">
        <ele>142.8</ele>
        <time>2026-05-24T11:00:30Z</time>
      </trkpt>
      <trkpt lat="48.6305" lon="2.08149">
        <ele>142.8</ele>
        <time>2026-05-24T11:00:31Z</time>
      </trkpt>
      <trkpt lat="48.63048" lon="2.0815">
        <ele>142.8</ele>
        <time>2026-05-24T11:00:32Z</time>
      </trkpt>
      <trkpt lat="48.63046" lon="2.08151">
        <ele>143</ele>
        <time>2026-05-24T11:00:33Z</time>
      </trkpt>
      <trkpt lat="48.63044" lon="2.08152">
        <ele>143.2</ele>
        <time>2026-05-24T11:00:34Z</time>
      </trkpt>
      <trkpt lat="48.63042" lon="2.08153">
        <ele>143.2</ele>
        <time>2026-05-24T11:00:35Z</time>
      </trkpt>
      <trkpt lat="48.6304" lon="2.08154">
        <ele>143.2</ele>
        <time>2026-05-24T11:00:36Z</time>
      </trkpt>
      <trkpt lat="48.63037" lon="2.08154">
        <ele>143.2</ele>
        <time>2026-05-24T11:00:37Z</time>
      </trkpt>
      <trkpt lat="48.63035" lon="2.08154">
        <ele>143</ele>
        <time>2026-05-24T11:00:38Z</time>
      </trkpt>
      <trkpt lat="48.63032" lon="2.08155">
        <ele>143</ele>
        <time>2026-05-24T11:00:39Z</time>
      </trkpt>
      <trkpt lat="48.6303" lon="2.08155">
        <ele>143</ele>
        <time>2026-05-24T11:00:40Z</time>
      </trkpt>
      <trkpt lat="48.63028" lon="2.08154">
        <ele>143.4</ele>
        <time>2026-05-24T11:00:41Z</time>
      </trkpt>
      <trkpt lat="48.63025" lon="2.08153">
        <ele>143.4</ele>
        <time>2026-05-24T11:00:42Z</time>
      </trkpt>
      <trkpt lat="48.63023" lon="2.08152">
        <ele>143.4</ele>
        <time>2026-05-24T11:00:43Z</time>
      </trkpt>
      <trkpt lat="48.63021" lon="2.08152">
        <ele>143.4</ele>
        <time>2026-05-24T11:00:44Z</time>
      </trkpt>
      <trkpt lat="48.6302" lon="2.08154">
        <ele>143</ele>
        <time>2026-05-24T11:00:45Z</time>
      </trkpt>
      <trkpt lat="48.63018" lon="2.08156">
        <ele>143</ele>
        <time>2026-05-24T11:00:46Z</time>
      </trkpt>
      <trkpt lat="48.63017" lon="2.08157">
        <ele>143</ele>
        <time>2026-05-24T11:00:47Z</time>
      </trkpt>
      <trkpt lat="48.63015" lon="2.08156">
        <ele>143</ele>
        <time>2026-05-24T11:00:48Z</time>
      </trkpt>
      <trkpt lat="48.63013" lon="2.08155">
        <ele>142</ele>
        <time>2026-05-24T11:00:49Z</time>
      </trkpt>
      <trkpt lat="48.63011" lon="2.08153">
        <ele>141.8</ele>
        <time>2026-05-24T11:00:50Z</time>
      </trkpt>
      <trkpt lat="48.6301" lon="2.0815">
        <ele>141.8</ele>
        <time>2026-05-24T11:00:51Z</time>
      </trkpt>
      <trkpt lat="48.6301" lon="2.08147">
        <ele>141.8</ele>
        <time>2026-05-24T11:00:52Z</time>
      </trkpt>
      <trkpt lat="48.63009" lon="2.08145">
        <ele>142.2</ele>
        <time>2026-05-24T11:00:53Z</time>
      </trkpt>
      <trkpt lat="48.63008" lon="2.08143">
        <ele>142.6</ele>
        <time>2026-05-24T11:00:54Z</time>
      </trkpt>
      <trkpt lat="48.63006" lon="2.0814">
        <ele>142.6</ele>
        <time>2026-05-24T11:00:55Z</time>
      </trkpt>
      <trkpt lat="48.63004" lon="2.08138">
        <ele>142.6</ele>
        <time>2026-05-24T11:00:56Z</time>
      </trkpt>
      <trkpt lat="48.63003" lon="2.08135">
        <ele>142.6</ele>
        <time>2026-05-24T11:00:57Z</time>
      </trkpt>
      <trkpt lat="48.63001" lon="2.08133">
        <ele>143</ele>
        <time>2026-05-24T11:00:58Z</time>
      </trkpt>
      <trkpt lat="48.62999" lon="2.08133">
        <ele>143</ele>
        <time>2026-05-24T11:00:59Z</time>
      </trkpt>
      <trkpt lat="48.62997" lon="2.08133">
        <ele>143</ele>
        <time>2026-05-24T11:01:00Z</time>
      </trkpt>
      <trkpt lat="48.62996" lon="2.08134">
        <ele>143</ele>
        <time>2026-05-24T11:01:01Z</time>
      </trkpt>
      <trkpt lat="48.62996" lon="2.08134">
        <ele>142.4</ele>
        <time>2026-05-24T11:01:02Z</time>
      </trkpt>
      <trkpt lat="48.62996" lon="2.08134">
        <ele>142.4</ele>
        <time>2026-05-24T11:01:03Z</time>
      </trkpt>
      <trkpt lat="48.62994" lon="2.08134">
        <ele>142.6</ele>
        <time>2026-05-24T11:01:27Z</time>
      </trkpt>
      <trkpt lat="48.62991" lon="2.08134">
        <ele>142.6</ele>
        <time>2026-05-24T11:01:28Z</time>
      </trkpt>
      <trkpt lat="48.62988" lon="2.08134">
        <ele>142.6</ele>
        <time>2026-05-24T11:01:29Z</time>
      </trkpt>
      <trkpt lat="48.62986" lon="2.08134">
        <ele>142</ele>
        <time>2026-05-24T11:01:30Z</time>
      </trkpt>
      <trkpt lat="48.62983" lon="2.08134">
        <ele>142</ele>
        <time>2026-05-24T11:01:31Z</time>
      </trkpt>
      <trkpt lat="48.6298" lon="2.08134">
        <ele>142</ele>
        <time>2026-05-24T11:01:32Z</time>
      </trkpt>
      <trkpt lat="48.62978" lon="2.08136">
        <ele>142.6</ele>
        <time>2026-05-24T11:01:33Z</time>
      </trkpt>
      <trkpt lat="48.62975" lon="2.08137">
        <ele>142.2</ele>
        <time>2026-05-24T11:01:34Z</time>
      </trkpt>
      <trkpt lat="48.62974" lon="2.08139">
        <ele>142.2</ele>
        <time>2026-05-24T11:01:35Z</time>
      </trkpt>
      <trkpt lat="48.62973" lon="2.0814">
        <ele>142.2</ele>
        <time>2026-05-24T11:01:36Z</time>
      </trkpt>
      <trkpt lat="48.62973" lon="2.08142">
        <ele>142.2</ele>
        <time>2026-05-24T11:01:37Z</time>
      </trkpt>
      <trkpt lat="48.62973" lon="2.08145">
        <ele>142.2</ele>
        <time>2026-05-24T11:01:38Z</time>
      </trkpt>
      <trkpt lat="48.62972" lon="2.08148">
        <ele>142.2</ele>
        <time>2026-05-24T11:01:39Z</time>
      </trkpt>
      <trkpt lat="48.6297" lon="2.08149">
        <ele>142.2</ele>
        <time>2026-05-24T11:01:40Z</time>
      </trkpt>
      <trkpt lat="48.62967" lon="2.08151">
        <ele>142.2</ele>
        <time>2026-05-24T11:01:41Z</time>
      </trkpt>
      <trkpt lat="48.62966" lon="2.08154">
        <ele>141.8</ele>
        <time>2026-05-24T11:01:42Z</time>
      </trkpt>
      <trkpt lat="48.62966" lon="2.08158">
        <ele>141.8</ele>
        <time>2026-05-24T11:01:43Z</time>
      </trkpt>
      <trkpt lat="48.62966" lon="2.08162">
        <ele>141.8</ele>
        <time>2026-05-24T11:01:44Z</time>
      </trkpt>
      <trkpt lat="48.62966" lon="2.08166">
        <ele>141.2</ele>
        <time>2026-05-24T11:01:45Z</time>
      </trkpt>
      <trkpt lat="48.62965" lon="2.08171">
        <ele>141.2</ele>
        <time>2026-05-24T11:01:46Z</time>
      </trkpt>
      <trkpt lat="48.62964" lon="2.08174">
        <ele>141.2</ele>
        <time>2026-05-24T11:01:47Z</time>
      </trkpt>
      <trkpt lat="48.62964" lon="2.08178">
        <ele>141.2</ele>
        <time>2026-05-24T11:01:48Z</time>
      </trkpt>
      <trkpt lat="48.62964" lon="2.08182">
        <ele>141.2</ele>
        <time>2026-05-24T11:01:49Z</time>
      </trkpt>
      <trkpt lat="48.62963" lon="2.08186">
        <ele>141.2</ele>
        <time>2026-05-24T11:01:50Z</time>
      </trkpt>
      <trkpt lat="48.62962" lon="2.0819">
        <ele>141.2</ele>
        <time>2026-05-24T11:01:51Z</time>
      </trkpt>
      <trkpt lat="48.6296" lon="2.08191">
        <ele>141.2</ele>
        <time>2026-05-24T11:01:52Z</time>
      </trkpt>
      <trkpt lat="48.62957" lon="2.08192">
        <ele>140.8</ele>
        <time>2026-05-24T11:01:53Z</time>
      </trkpt>
      <trkpt lat="48.62955" lon="2.08195">
        <ele>140.8</ele>
        <time>2026-05-24T11:01:54Z</time>
      </trkpt>
      <trkpt lat="48.62955" lon="2.08199">
        <ele>140.8</ele>
        <time>2026-05-24T11:01:55Z</time>
      </trkpt>
      <trkpt lat="48.62955" lon="2.08204">
        <ele>140.8</ele>
        <time>2026-05-24T11:01:56Z</time>
      </trkpt>
      <trkpt lat="48.62954" lon="2.08209">
        <ele>140.8</ele>
        <time>2026-05-24T11:01:57Z</time>
      </trkpt>
      <trkpt lat="48.62952" lon="2.08213">
        <ele>140.8</ele>
        <time>2026-05-24T11:01:58Z</time>
      </trkpt>
      <trkpt lat="48.6295" lon="2.08218">
        <ele>140.8</ele>
        <time>2026-05-24T11:01:59Z</time>
      </trkpt>
      <trkpt lat="48.62949" lon="2.08225">
        <ele>140.8</ele>
        <time>2026-05-24T11:02:00Z</time>
      </trkpt>
      <trkpt lat="48.62949" lon="2.08231">
        <ele>140.2</ele>
        <time>2026-05-24T11:02:01Z</time>
      </trkpt>
      <trkpt lat="48.62949" lon="2.08238">
        <ele>140.8</ele>
        <time>2026-05-24T11:02:02Z</time>
      </trkpt>
      <trkpt lat="48.62948" lon="2.08244">
        <ele>140.8</ele>
        <time>2026-05-24T11:02:03Z</time>
      </trkpt>
      <trkpt lat="48.62947" lon="2.0825">
        <ele>140.8</ele>
        <time>2026-05-24T11:02:04Z</time>
      </trkpt>
      <trkpt lat="48.62947" lon="2.08257">
        <ele>140.8</ele>
        <time>2026-05-24T11:02:05Z</time>
      </trkpt>
      <trkpt lat="48.62947" lon="2.08263">
        <ele>140.6</ele>
        <time>2026-05-24T11:02:06Z</time>
      </trkpt>
      <trkpt lat="48.62948" lon="2.0827">
        <ele>140.6</ele>
        <time>2026-05-24T11:02:07Z</time>
      </trkpt>
      <trkpt lat="48.62948" lon="2.08277">
        <ele>140.6</ele>
        <time>2026-05-24T11:02:08Z</time>
      </trkpt>
      <trkpt lat="48.62949" lon="2.08284">
        <ele>139.8</ele>
        <time>2026-05-24T11:02:09Z</time>
      </trkpt>
      <trkpt lat="48.62951" lon="2.08291">
        <ele>139.8</ele>
        <time>2026-05-24T11:02:10Z</time>
      </trkpt>
      <trkpt lat="48.62953" lon="2.08296">
        <ele>139.8</ele>
        <time>2026-05-24T11:02:11Z</time>
      </trkpt>
      <trkpt lat="48.62954" lon="2.08303">
        <ele>139.8</ele>
        <time>2026-05-24T11:02:12Z</time>
      </trkpt>
      <trkpt lat="48.62955" lon="2.08309">
        <ele>139.8</ele>
        <time>2026-05-24T11:02:13Z</time>
      </trkpt>
      <trkpt lat="48.62954" lon="2.08316">
        <ele>139.6</ele>
        <time>2026-05-24T11:02:14Z</time>
      </trkpt>
      <trkpt lat="48.62954" lon="2.08323">
        <ele>139.6</ele>
        <time>2026-05-24T11:02:15Z</time>
      </trkpt>
      <trkpt lat="48.62954" lon="2.0833">
        <ele>139.6</ele>
        <time>2026-05-24T11:02:16Z</time>
      </trkpt>
      <trkpt lat="48.62954" lon="2.08337">
        <ele>139.6</ele>
        <time>2026-05-24T11:02:17Z</time>
      </trkpt>
      <trkpt lat="48.62955" lon="2.08344">
        <ele>139</ele>
        <time>2026-05-24T11:02:18Z</time>
      </trkpt>
      <trkpt lat="48.62955" lon="2.08352">
        <ele>139</ele>
        <time>2026-05-24T11:02:19Z</time>
      </trkpt>
      <trkpt lat="48.62955" lon="2.08359">
        <ele>139</ele>
        <time>2026-05-24T11:02:20Z</time>
      </trkpt>
      <trkpt lat="48.62955" lon="2.08365">
        <ele>139</ele>
        <time>2026-05-24T11:02:21Z</time>
      </trkpt>
      <trkpt lat="48.62955" lon="2.08372">
        <ele>139.4</ele>
        <time>2026-05-24T11:02:22Z</time>
      </trkpt>
      <trkpt lat="48.62955" lon="2.0838">
        <ele>139.4</ele>
        <time>2026-05-24T11:02:23Z</time>
      </trkpt>
      <trkpt lat="48.62955" lon="2.08387">
        <ele>139.4</ele>
        <time>2026-05-24T11:02:24Z</time>
      </trkpt>
      <trkpt lat="48.62955" lon="2.08394">
        <ele>139</ele>
        <time>2026-05-24T11:02:25Z</time>
      </trkpt>
      <trkpt lat="48.62955" lon="2.08401">
        <ele>138.4</ele>
        <time>2026-05-24T11:02:26Z</time>
      </trkpt>
      <trkpt lat="48.62955" lon="2.08409">
        <ele>138.4</ele>
        <time>2026-05-24T11:02:27Z</time>
      </trkpt>
      <trkpt lat="48.62956" lon="2.08416">
        <ele>138.4</ele>
        <time>2026-05-24T11:02:28Z</time>
      </trkpt>
      <trkpt lat="48.62956" lon="2.08423">
        <ele>138.8</ele>
        <time>2026-05-24T11:02:29Z</time>
      </trkpt>
      <trkpt lat="48.62956" lon="2.08431">
        <ele>138.4</ele>
        <time>2026-05-24T11:02:30Z</time>
      </trkpt>
      <trkpt lat="48.62956" lon="2.08438">
        <ele>138.4</ele>
        <time>2026-05-24T11:02:31Z</time>
      </trkpt>
      <trkpt lat="48.62956" lon="2.08445">
        <ele>138.4</ele>
        <time>2026-05-24T11:02:32Z</time>
      </trkpt>
      <trkpt lat="48.62956" lon="2.08453">
        <ele>138.4</ele>
        <time>2026-05-24T11:02:33Z</time>
      </trkpt>
      <trkpt lat="48.62956" lon="2.08459">
        <ele>138.4</ele>
        <time>2026-05-24T11:02:34Z</time>
      </trkpt>
      <trkpt lat="48.62956" lon="2.08467">
        <ele>138.4</ele>
        <time>2026-05-24T11:02:35Z</time>
      </trkpt>
      <trkpt lat="48.62956" lon="2.08474">
        <ele>138.4</ele>
        <time>2026-05-24T11:02:36Z</time>
      </trkpt>
      <trkpt lat="48.62955" lon="2.08481">
        <ele>138.4</ele>
        <time>2026-05-24T11:02:37Z</time>
      </trkpt>
      <trkpt lat="48.62955" lon="2.08488">
        <ele>138.4</ele>
        <time>2026-05-24T11:02:38Z</time>
      </trkpt>
      <trkpt lat="48.62955" lon="2.08494">
        <ele>138.4</ele>
        <time>2026-05-24T11:02:39Z</time>
      </trkpt>
      <trkpt lat="48.62956" lon="2.08501">
        <ele>138.4</ele>
        <time>2026-05-24T11:02:40Z</time>
      </trkpt>
      <trkpt lat="48.62956" lon="2.08508">
        <ele>138</ele>
        <time>2026-05-24T11:02:41Z</time>
      </trkpt>
      <trkpt lat="48.62956" lon="2.08515">
        <ele>137.8</ele>
        <time>2026-05-24T11:02:42Z</time>
      </trkpt>
      <trkpt lat="48.62956" lon="2.08522">
        <ele>137.8</ele>
        <time>2026-05-24T11:02:43Z</time>
      </trkpt>
      <trkpt lat="48.62956" lon="2.08529">
        <ele>137.8</ele>
        <time>2026-05-24T11:02:44Z</time>
      </trkpt>
      <trkpt lat="48.62956" lon="2.08536">
        <ele>137.8</ele>
        <time>2026-05-24T11:02:45Z</time>
      </trkpt>
      <trkpt lat="48.62956" lon="2.08543">
        <ele>137.4</ele>
        <time>2026-05-24T11:02:46Z</time>
      </trkpt>
      <trkpt lat="48.62956" lon="2.0855">
        <ele>137.4</ele>
        <time>2026-05-24T11:02:47Z</time>
      </trkpt>
      <trkpt lat="48.62956" lon="2.08558">
        <ele>137.4</ele>
        <time>2026-05-24T11:02:48Z</time>
      </trkpt>
      <trkpt lat="48.62956" lon="2.08565">
        <ele>137.4</ele>
        <time>2026-05-24T11:02:49Z</time>
      </trkpt>
      <trkpt lat="48.62956" lon="2.08572">
        <ele>137.4</ele>
        <time>2026-05-24T11:02:50Z</time>
      </trkpt>
      <trkpt lat="48.62956" lon="2.08579">
        <ele>137.4</ele>
        <time>2026-05-24T11:02:51Z</time>
      </trkpt>
      <trkpt lat="48.62956" lon="2.08586">
        <ele>137.4</ele>
        <time>2026-05-24T11:02:52Z</time>
      </trkpt>
      <trkpt lat="48.62957" lon="2.08593">
        <ele>137.4</ele>
        <time>2026-05-24T11:02:53Z</time>
      </trkpt>
      <trkpt lat="48.62957" lon="2.086">
        <ele>137</ele>
        <time>2026-05-24T11:02:54Z</time>
      </trkpt>
      <trkpt lat="48.62957" lon="2.08607">
        <ele>137</ele>
        <time>2026-05-24T11:02:55Z</time>
      </trkpt>
      <trkpt lat="48.62957" lon="2.08614">
        <ele>137</ele>
        <time>2026-05-24T11:02:56Z</time>
      </trkpt>
      <trkpt lat="48.62957" lon="2.0862">
        <ele>137</ele>
        <time>2026-05-24T11:02:57Z</time>
      </trkpt>
      <trkpt lat="48.62958" lon="2.08627">
        <ele>136.4</ele>
        <time>2026-05-24T11:02:58Z</time>
      </trkpt>
      <trkpt lat="48.62958" lon="2.08633">
        <ele>136.4</ele>
        <time>2026-05-24T11:02:59Z</time>
      </trkpt>
      <trkpt lat="48.62957" lon="2.0864">
        <ele>136.4</ele>
        <time>2026-05-24T11:03:00Z</time>
      </trkpt>
      <trkpt lat="48.62958" lon="2.08646">
        <ele>136.4</ele>
        <time>2026-05-24T11:03:01Z</time>
      </trkpt>
      <trkpt lat="48.62957" lon="2.08653">
        <ele>136.6</ele>
        <time>2026-05-24T11:03:02Z</time>
      </trkpt>
      <trkpt lat="48.62957" lon="2.0866">
        <ele>136.6</ele>
        <time>2026-05-24T11:03:03Z</time>
      </trkpt>
      <trkpt lat="48.62957" lon="2.08667">
        <ele>136.6</ele>
        <time>2026-05-24T11:03:04Z</time>
      </trkpt>
      <trkpt lat="48.62958" lon="2.08675">
        <ele>136.6</ele>
        <time>2026-05-24T11:03:05Z</time>
      </trkpt>
      <trkpt lat="48.62958" lon="2.08682">
        <ele>136.4</ele>
        <time>2026-05-24T11:03:06Z</time>
      </trkpt>
      <trkpt lat="48.62958" lon="2.08689">
        <ele>136.4</ele>
        <time>2026-05-24T11:03:07Z</time>
      </trkpt>
      <trkpt lat="48.62958" lon="2.08695">
        <ele>136.4</ele>
        <time>2026-05-24T11:03:08Z</time>
      </trkpt>
      <trkpt lat="48.62958" lon="2.08702">
        <ele>136.4</ele>
        <time>2026-05-24T11:03:09Z</time>
      </trkpt>
      <trkpt lat="48.62958" lon="2.08709">
        <ele>136.2</ele>
        <time>2026-05-24T11:03:10Z</time>
      </trkpt>
      <trkpt lat="48.62958" lon="2.08715">
        <ele>136.2</ele>
        <time>2026-05-24T11:03:11Z</time>
      </trkpt>
      <trkpt lat="48.62958" lon="2.08721">
        <ele>136.2</ele>
        <time>2026-05-24T11:03:12Z</time>
      </trkpt>
      <trkpt lat="48.62958" lon="2.08726">
        <ele>136.2</ele>
        <time>2026-05-24T11:03:13Z</time>
      </trkpt>
      <trkpt lat="48.62958" lon="2.08732">
        <ele>135.6</ele>
        <time>2026-05-24T11:03:14Z</time>
      </trkpt>
      <trkpt lat="48.62958" lon="2.08738">
        <ele>135.6</ele>
        <time>2026-05-24T11:03:15Z</time>
      </trkpt>
      <trkpt lat="48.62958" lon="2.08744">
        <ele>135.6</ele>
        <time>2026-05-24T11:03:16Z</time>
      </trkpt>
      <trkpt lat="48.62958" lon="2.0875">
        <ele>135.6</ele>
        <time>2026-05-24T11:03:17Z</time>
      </trkpt>
      <trkpt lat="48.62957" lon="2.08756">
        <ele>134.6</ele>
        <time>2026-05-24T11:03:18Z</time>
      </trkpt>
      <trkpt lat="48.62958" lon="2.08762">
        <ele>134.6</ele>
        <time>2026-05-24T11:03:19Z</time>
      </trkpt>
      <trkpt lat="48.62958" lon="2.08768">
        <ele>134.6</ele>
        <time>2026-05-24T11:03:20Z</time>
      </trkpt>
      <trkpt lat="48.62958" lon="2.08775">
        <ele>135.6</ele>
        <time>2026-05-24T11:03:21Z</time>
      </trkpt>
      <trkpt lat="48.62958" lon="2.0878">
        <ele>135.4</ele>
        <time>2026-05-24T11:03:22Z</time>
      </trkpt>
      <trkpt lat="48.62958" lon="2.08786">
        <ele>135.4</ele>
        <time>2026-05-24T11:03:23Z</time>
      </trkpt>
      <trkpt lat="48.62958" lon="2.08792">
        <ele>135.4</ele>
        <time>2026-05-24T11:03:24Z</time>
      </trkpt>
      <trkpt lat="48.62958" lon="2.08797">
        <ele>135.4</ele>
        <time>2026-05-24T11:03:25Z</time>
      </trkpt>
      <trkpt lat="48.62959" lon="2.08804">
        <ele>135.2</ele>
        <time>2026-05-24T11:03:26Z</time>
      </trkpt>
      <trkpt lat="48.62959" lon="2.0881">
        <ele>135.2</ele>
        <time>2026-05-24T11:03:27Z</time>
      </trkpt>
      <trkpt lat="48.62959" lon="2.08816">
        <ele>135.2</ele>
        <time>2026-05-24T11:03:28Z</time>
      </trkpt>
      <trkpt lat="48.6296" lon="2.08822">
        <ele>135.2</ele>
        <time>2026-05-24T11:03:29Z</time>
      </trkpt>
      <trkpt lat="48.6296" lon="2.08829">
        <ele>135</ele>
        <time>2026-05-24T11:03:30Z</time>
      </trkpt>
      <trkpt lat="48.6296" lon="2.08836">
        <ele>135</ele>
        <time>2026-05-24T11:03:31Z</time>
      </trkpt>
      <trkpt lat="48.62961" lon="2.08843">
        <ele>135</ele>
        <time>2026-05-24T11:03:32Z</time>
      </trkpt>
      <trkpt lat="48.62961" lon="2.0885">
        <ele>135</ele>
        <time>2026-05-24T11:03:33Z</time>
      </trkpt>
      <trkpt lat="48.6296" lon="2.08857">
        <ele>135</ele>
        <time>2026-05-24T11:03:34Z</time>
      </trkpt>
      <trkpt lat="48.62961" lon="2.08864">
        <ele>135</ele>
        <time>2026-05-24T11:03:35Z</time>
      </trkpt>
      <trkpt lat="48.6296" lon="2.08871">
        <ele>135</ele>
        <time>2026-05-24T11:03:36Z</time>
      </trkpt>
      <trkpt lat="48.6296" lon="2.08878">
        <ele>135</ele>
        <time>2026-05-24T11:03:37Z</time>
      </trkpt>
      <trkpt lat="48.6296" lon="2.08885">
        <ele>133.2</ele>
        <time>2026-05-24T11:03:38Z</time>
      </trkpt>
      <trkpt lat="48.62961" lon="2.08892">
        <ele>133.2</ele>
        <time>2026-05-24T11:03:39Z</time>
      </trkpt>
      <trkpt lat="48.6296" lon="2.08899">
        <ele>133.2</ele>
        <time>2026-05-24T11:03:40Z</time>
      </trkpt>
      <trkpt lat="48.62961" lon="2.08906">
        <ele>133.2</ele>
        <time>2026-05-24T11:03:41Z</time>
      </trkpt>
      <trkpt lat="48.62961" lon="2.08913">
        <ele>133.4</ele>
        <time>2026-05-24T11:03:42Z</time>
      </trkpt>
      <trkpt lat="48.62961" lon="2.08919">
        <ele>133.4</ele>
        <time>2026-05-24T11:03:43Z</time>
      </trkpt>
      <trkpt lat="48.62962" lon="2.08925">
        <ele>133.4</ele>
        <time>2026-05-24T11:03:44Z</time>
      </trkpt>
      <trkpt lat="48.62963" lon="2.08932">
        <ele>133.4</ele>
        <time>2026-05-24T11:03:45Z</time>
      </trkpt>
      <trkpt lat="48.62963" lon="2.08939">
        <ele>133.2</ele>
        <time>2026-05-24T11:03:46Z</time>
      </trkpt>
      <trkpt lat="48.62963" lon="2.08946">
        <ele>133.2</ele>
        <time>2026-05-24T11:03:47Z</time>
      </trkpt>
      <trkpt lat="48.62963" lon="2.08953">
        <ele>133.2</ele>
        <time>2026-05-24T11:03:48Z</time>
      </trkpt>
      <trkpt lat="48.62962" lon="2.08959">
        <ele>133.2</ele>
        <time>2026-05-24T11:03:49Z</time>
      </trkpt>
      <trkpt lat="48.62962" lon="2.08966">
        <ele>133.2</ele>
        <time>2026-05-24T11:03:50Z</time>
      </trkpt>
      <trkpt lat="48.62962" lon="2.08972">
        <ele>133.2</ele>
        <time>2026-05-24T11:03:51Z</time>
      </trkpt>
      <trkpt lat="48.62962" lon="2.08978">
        <ele>133.2</ele>
        <time>2026-05-24T11:03:52Z</time>
      </trkpt>
      <trkpt lat="48.62962" lon="2.08984">
        <ele>133.2</ele>
        <time>2026-05-24T11:03:53Z</time>
      </trkpt>
      <trkpt lat="48.62962" lon="2.08991">
        <ele>133.6</ele>
        <time>2026-05-24T11:03:54Z</time>
      </trkpt>
      <trkpt lat="48.62962" lon="2.08997">
        <ele>133.6</ele>
        <time>2026-05-24T11:03:55Z</time>
      </trkpt>
      <trkpt lat="48.62962" lon="2.09003">
        <ele>133.6</ele>
        <time>2026-05-24T11:03:56Z</time>
      </trkpt>
      <trkpt lat="48.62962" lon="2.09009">
        <ele>133.6</ele>
        <time>2026-05-24T11:03:57Z</time>
      </trkpt>
      <trkpt lat="48.6296" lon="2.09014">
        <ele>133.2</ele>
        <time>2026-05-24T11:03:58Z</time>
      </trkpt>
      <trkpt lat="48.62957" lon="2.09017">
        <ele>133.2</ele>
        <time>2026-05-24T11:03:59Z</time>
      </trkpt>
      <trkpt lat="48.62953" lon="2.09018">
        <ele>133.2</ele>
        <time>2026-05-24T11:04:00Z</time>
      </trkpt>
      <trkpt lat="48.62949" lon="2.09016">
        <ele>132.4</ele>
        <time>2026-05-24T11:04:01Z</time>
      </trkpt>
      <trkpt lat="48.62944" lon="2.09014">
        <ele>132.4</ele>
        <time>2026-05-24T11:04:02Z</time>
      </trkpt>
      <trkpt lat="48.62939" lon="2.09013">
        <ele>132.4</ele>
        <time>2026-05-24T11:04:03Z</time>
      </trkpt>
      <trkpt lat="48.62935" lon="2.09013">
        <ele>132.4</ele>
        <time>2026-05-24T11:04:04Z</time>
      </trkpt>
      <trkpt lat="48.6293" lon="2.09017">
        <ele>131.4</ele>
        <time>2026-05-24T11:04:05Z</time>
      </trkpt>
      <trkpt lat="48.62927" lon="2.09023">
        <ele>132.2</ele>
        <time>2026-05-24T11:04:06Z</time>
      </trkpt>
      <trkpt lat="48.62925" lon="2.0903">
        <ele>132.2</ele>
        <time>2026-05-24T11:04:07Z</time>
      </trkpt>
      <trkpt lat="48.62923" lon="2.09037">
        <ele>132.2</ele>
        <time>2026-05-24T11:04:08Z</time>
      </trkpt>
      <trkpt lat="48.62922" lon="2.09045">
        <ele>131.4</ele>
        <time>2026-05-24T11:04:09Z</time>
      </trkpt>
      <trkpt lat="48.62921" lon="2.09053">
        <ele>131.2</ele>
        <time>2026-05-24T11:04:10Z</time>
      </trkpt>
      <trkpt lat="48.6292" lon="2.0906">
        <ele>131.2</ele>
        <time>2026-05-24T11:04:11Z</time>
      </trkpt>
      <trkpt lat="48.62918" lon="2.09068">
        <ele>131.2</ele>
        <time>2026-05-24T11:04:12Z</time>
      </trkpt>
      <trkpt lat="48.62916" lon="2.09076">
        <ele>131.2</ele>
        <time>2026-05-24T11:04:13Z</time>
      </trkpt>
      <trkpt lat="48.62915" lon="2.09083">
        <ele>131</ele>
        <time>2026-05-24T11:04:14Z</time>
      </trkpt>
      <trkpt lat="48.62913" lon="2.09091">
        <ele>131</ele>
        <time>2026-05-24T11:04:15Z</time>
      </trkpt>
      <trkpt lat="48.62912" lon="2.09098">
        <ele>131</ele>
        <time>2026-05-24T11:04:16Z</time>
      </trkpt>
      <trkpt lat="48.62911" lon="2.09106">
        <ele>131</ele>
        <time>2026-05-24T11:04:17Z</time>
      </trkpt>
      <trkpt lat="48.6291" lon="2.09113">
        <ele>130.6</ele>
        <time>2026-05-24T11:04:18Z</time>
      </trkpt>
      <trkpt lat="48.62908" lon="2.0912">
        <ele>130.6</ele>
        <time>2026-05-24T11:04:19Z</time>
      </trkpt>
      <trkpt lat="48.62907" lon="2.09128">
        <ele>130.6</ele>
        <time>2026-05-24T11:04:20Z</time>
      </trkpt>
      <trkpt lat="48.62906" lon="2.09136">
        <ele>130.6</ele>
        <time>2026-05-24T11:04:21Z</time>
      </trkpt>
      <trkpt lat="48.62904" lon="2.09143">
        <ele>129</ele>
        <time>2026-05-24T11:04:22Z</time>
      </trkpt>
      <trkpt lat="48.62902" lon="2.09149">
        <ele>129</ele>
        <time>2026-05-24T11:04:23Z</time>
      </trkpt>
      <trkpt lat="48.629" lon="2.09155">
        <ele>129</ele>
        <time>2026-05-24T11:04:24Z</time>
      </trkpt>
      <trkpt lat="48.62898" lon="2.09161">
        <ele>130</ele>
        <time>2026-05-24T11:04:25Z</time>
      </trkpt>
      <trkpt lat="48.62897" lon="2.09167">
        <ele>129.4</ele>
        <time>2026-05-24T11:04:26Z</time>
      </trkpt>
      <trkpt lat="48.62895" lon="2.09172">
        <ele>129.4</ele>
        <time>2026-05-24T11:04:27Z</time>
      </trkpt>
      <trkpt lat="48.62894" lon="2.09177">
        <ele>129.4</ele>
        <time>2026-05-24T11:04:28Z</time>
      </trkpt>
      <trkpt lat="48.62893" lon="2.09183">
        <ele>129.4</ele>
        <time>2026-05-24T11:04:29Z</time>
      </trkpt>
      <trkpt lat="48.62893" lon="2.09189">
        <ele>129.8</ele>
        <time>2026-05-24T11:04:30Z</time>
      </trkpt>
      <trkpt lat="48.62891" lon="2.09194">
        <ele>129.8</ele>
        <time>2026-05-24T11:04:31Z</time>
      </trkpt>
      <trkpt lat="48.6289" lon="2.092">
        <ele>129.8</ele>
        <time>2026-05-24T11:04:32Z</time>
      </trkpt>
      <trkpt lat="48.62888" lon="2.09205">
        <ele>129.6</ele>
        <time>2026-05-24T11:04:33Z</time>
      </trkpt>
      <trkpt lat="48.62887" lon="2.09209">
        <ele>130.6</ele>
        <time>2026-05-24T11:04:34Z</time>
      </trkpt>
      <trkpt lat="48.62886" lon="2.09214">
        <ele>130.6</ele>
        <time>2026-05-24T11:04:35Z</time>
      </trkpt>
      <trkpt lat="48.62883" lon="2.09219">
        <ele>130.6</ele>
        <time>2026-05-24T11:04:36Z</time>
      </trkpt>
      <trkpt lat="48.62882" lon="2.09225">
        <ele>129.6</ele>
        <time>2026-05-24T11:04:37Z</time>
      </trkpt>
      <trkpt lat="48.62881" lon="2.0923">
        <ele>129</ele>
        <time>2026-05-24T11:04:38Z</time>
      </trkpt>
      <trkpt lat="48.6288" lon="2.09235">
        <ele>129</ele>
        <time>2026-05-24T11:04:39Z</time>
      </trkpt>
      <trkpt lat="48.62878" lon="2.0924">
        <ele>129</ele>
        <time>2026-05-24T11:04:40Z</time>
      </trkpt>
      <trkpt lat="48.62876" lon="2.09245">
        <ele>129.6</ele>
        <time>2026-05-24T11:04:41Z</time>
      </trkpt>
      <trkpt lat="48.62874" lon="2.09251">
        <ele>129.8</ele>
        <time>2026-05-24T11:04:42Z</time>
      </trkpt>
      <trkpt lat="48.62873" lon="2.09257">
        <ele>129.8</ele>
        <time>2026-05-24T11:04:43Z</time>
      </trkpt>
      <trkpt lat="48.62871" lon="2.09263">
        <ele>129.8</ele>
        <time>2026-05-24T11:04:44Z</time>
      </trkpt>
      <trkpt lat="48.62871" lon="2.09269">
        <ele>129.2</ele>
        <time>2026-05-24T11:04:45Z</time>
      </trkpt>
      <trkpt lat="48.62871" lon="2.09275">
        <ele>129.2</ele>
        <time>2026-05-24T11:04:46Z</time>
      </trkpt>
      <trkpt lat="48.62871" lon="2.09282">
        <ele>129.2</ele>
        <time>2026-05-24T11:04:47Z</time>
      </trkpt>
      <trkpt lat="48.6287" lon="2.09288">
        <ele>129.2</ele>
        <time>2026-05-24T11:04:48Z</time>
      </trkpt>
      <trkpt lat="48.62869" lon="2.09293">
        <ele>128.8</ele>
        <time>2026-05-24T11:04:49Z</time>
      </trkpt>
      <trkpt lat="48.62869" lon="2.09298">
        <ele>129.2</ele>
        <time>2026-05-24T11:04:50Z</time>
      </trkpt>
      <trkpt lat="48.6287" lon="2.09303">
        <ele>129.2</ele>
        <time>2026-05-24T11:04:51Z</time>
      </trkpt>
      <trkpt lat="48.62871" lon="2.09308">
        <ele>129.2</ele>
        <time>2026-05-24T11:04:52Z</time>
      </trkpt>
      <trkpt lat="48.62874" lon="2.09311">
        <ele>128.8</ele>
        <time>2026-05-24T11:04:53Z</time>
      </trkpt>
      <trkpt lat="48.62876" lon="2.09314">
        <ele>128.8</ele>
        <time>2026-05-24T11:04:54Z</time>
      </trkpt>
      <trkpt lat="48.62879" lon="2.09312">
        <ele>128.8</ele>
        <time>2026-05-24T11:04:55Z</time>
      </trkpt>
      <trkpt lat="48.6288" lon="2.0931">
        <ele>128.8</ele>
        <time>2026-05-24T11:04:56Z</time>
      </trkpt>
      <trkpt lat="48.62883" lon="2.09309">
        <ele>128.8</ele>
        <time>2026-05-24T11:04:57Z</time>
      </trkpt>
      <trkpt lat="48.62884" lon="2.09313">
        <ele>128.4</ele>
        <time>2026-05-24T11:04:58Z</time>
      </trkpt>
      <trkpt lat="48.62883" lon="2.09317">
        <ele>128.4</ele>
        <time>2026-05-24T11:04:59Z</time>
      </trkpt>
      <trkpt lat="48.62882" lon="2.09321">
        <ele>128.4</ele>
        <time>2026-05-24T11:05:00Z</time>
      </trkpt>
      <trkpt lat="48.62881" lon="2.09326">
        <ele>128.4</ele>
        <time>2026-05-24T11:05:01Z</time>
      </trkpt>
      <trkpt lat="48.62879" lon="2.0933">
        <ele>128.4</ele>
        <time>2026-05-24T11:05:02Z</time>
      </trkpt>
      <trkpt lat="48.62876" lon="2.09335">
        <ele>128.4</ele>
        <time>2026-05-24T11:05:03Z</time>
      </trkpt>
      <trkpt lat="48.62874" lon="2.0934">
        <ele>128.4</ele>
        <time>2026-05-24T11:05:04Z</time>
      </trkpt>
      <trkpt lat="48.62872" lon="2.09346">
        <ele>128.4</ele>
        <time>2026-05-24T11:05:05Z</time>
      </trkpt>
      <trkpt lat="48.6287" lon="2.09353">
        <ele>128.2</ele>
        <time>2026-05-24T11:05:06Z</time>
      </trkpt>
      <trkpt lat="48.62868" lon="2.09359">
        <ele>128.2</ele>
        <time>2026-05-24T11:05:07Z</time>
      </trkpt>
      <trkpt lat="48.62865" lon="2.09365">
        <ele>128.2</ele>
        <time>2026-05-24T11:05:08Z</time>
      </trkpt>
      <trkpt lat="48.62863" lon="2.09371">
        <ele>128.4</ele>
        <time>2026-05-24T11:05:09Z</time>
      </trkpt>
      <trkpt lat="48.6286" lon="2.09377">
        <ele>128.2</ele>
        <time>2026-05-24T11:05:10Z</time>
      </trkpt>
      <trkpt lat="48.62858" lon="2.09383">
        <ele>128.2</ele>
        <time>2026-05-24T11:05:11Z</time>
      </trkpt>
      <trkpt lat="48.62855" lon="2.09388">
        <ele>128.2</ele>
        <time>2026-05-24T11:05:12Z</time>
      </trkpt>
      <trkpt lat="48.62851" lon="2.09393">
        <ele>128.2</ele>
        <time>2026-05-24T11:05:13Z</time>
      </trkpt>
      <trkpt lat="48.62847" lon="2.09395">
        <ele>127.8</ele>
        <time>2026-05-24T11:05:14Z</time>
      </trkpt>
      <trkpt lat="48.62843" lon="2.09397">
        <ele>127.8</ele>
        <time>2026-05-24T11:05:15Z</time>
      </trkpt>
      <trkpt lat="48.62838" lon="2.09397">
        <ele>127.8</ele>
        <time>2026-05-24T11:05:16Z</time>
      </trkpt>
      <trkpt lat="48.62834" lon="2.09396">
        <ele>128.8</ele>
        <time>2026-05-24T11:05:17Z</time>
      </trkpt>
      <trkpt lat="48.62829" lon="2.09395">
        <ele>128.4</ele>
        <time>2026-05-24T11:05:18Z</time>
      </trkpt>
      <trkpt lat="48.62825" lon="2.09395">
        <ele>128.4</ele>
        <time>2026-05-24T11:05:19Z</time>
      </trkpt>
      <trkpt lat="48.62821" lon="2.09394">
        <ele>128.4</ele>
        <time>2026-05-24T11:05:20Z</time>
      </trkpt>
      <trkpt lat="48.62817" lon="2.09394">
        <ele>128.6</ele>
        <time>2026-05-24T11:05:21Z</time>
      </trkpt>
      <trkpt lat="48.62813" lon="2.09393">
        <ele>129</ele>
        <time>2026-05-24T11:05:22Z</time>
      </trkpt>
      <trkpt lat="48.62809" lon="2.09393">
        <ele>129</ele>
        <time>2026-05-24T11:05:23Z</time>
      </trkpt>
      <trkpt lat="48.62805" lon="2.09394">
        <ele>129</ele>
        <time>2026-05-24T11:05:24Z</time>
      </trkpt>
      <trkpt lat="48.62802" lon="2.09397">
        <ele>129</ele>
        <time>2026-05-24T11:05:25Z</time>
      </trkpt>
      <trkpt lat="48.62801" lon="2.09402">
        <ele>129.6</ele>
        <time>2026-05-24T11:05:26Z</time>
      </trkpt>
      <trkpt lat="48.62801" lon="2.09407">
        <ele>129.6</ele>
        <time>2026-05-24T11:05:27Z</time>
      </trkpt>
      <trkpt lat="48.62801" lon="2.09412">
        <ele>129.6</ele>
        <time>2026-05-24T11:05:28Z</time>
      </trkpt>
      <trkpt lat="48.628" lon="2.09418">
        <ele>129.6</ele>
        <time>2026-05-24T11:05:29Z</time>
      </trkpt>
      <trkpt lat="48.628" lon="2.09424">
        <ele>128.4</ele>
        <time>2026-05-24T11:05:30Z</time>
      </trkpt>
      <trkpt lat="48.628" lon="2.0943">
        <ele>128.4</ele>
        <time>2026-05-24T11:05:31Z</time>
      </trkpt>
      <trkpt lat="48.628" lon="2.09436">
        <ele>128.4</ele>
        <time>2026-05-24T11:05:32Z</time>
      </trkpt>
      <trkpt lat="48.628" lon="2.09443">
        <ele>128.8</ele>
        <time>2026-05-24T11:05:33Z</time>
      </trkpt>
      <trkpt lat="48.628" lon="2.0945">
        <ele>127.8</ele>
        <time>2026-05-24T11:05:34Z</time>
      </trkpt>
      <trkpt lat="48.62799" lon="2.09455">
        <ele>127.8</ele>
        <time>2026-05-24T11:05:35Z</time>
      </trkpt>
      <trkpt lat="48.62799" lon="2.09461">
        <ele>127.8</ele>
        <time>2026-05-24T11:05:36Z</time>
      </trkpt>
      <trkpt lat="48.62799" lon="2.09469">
        <ele>127.8</ele>
        <time>2026-05-24T11:05:37Z</time>
      </trkpt>
      <trkpt lat="48.62797" lon="2.09476">
        <ele>128.2</ele>
        <time>2026-05-24T11:05:38Z</time>
      </trkpt>
      <trkpt lat="48.62794" lon="2.09481">
        <ele>128.2</ele>
        <time>2026-05-24T11:05:39Z</time>
      </trkpt>
      <trkpt lat="48.6279" lon="2.09484">
        <ele>128.2</ele>
        <time>2026-05-24T11:05:40Z</time>
      </trkpt>
      <trkpt lat="48.62786" lon="2.09486">
        <ele>128.2</ele>
        <time>2026-05-24T11:05:41Z</time>
      </trkpt>
      <trkpt lat="48.62782" lon="2.09486">
        <ele>128.4</ele>
        <time>2026-05-24T11:05:42Z</time>
      </trkpt>
      <trkpt lat="48.62778" lon="2.09486">
        <ele>128.4</ele>
        <time>2026-05-24T11:05:43Z</time>
      </trkpt>
      <trkpt lat="48.62774" lon="2.09486">
        <ele>128.4</ele>
        <time>2026-05-24T11:05:44Z</time>
      </trkpt>
      <trkpt lat="48.62771" lon="2.09486">
        <ele>128.4</ele>
        <time>2026-05-24T11:05:45Z</time>
      </trkpt>
      <trkpt lat="48.62767" lon="2.09486">
        <ele>128.4</ele>
        <time>2026-05-24T11:05:46Z</time>
      </trkpt>
      <trkpt lat="48.62763" lon="2.09486">
        <ele>128.4</ele>
        <time>2026-05-24T11:05:47Z</time>
      </trkpt>
      <trkpt lat="48.6276" lon="2.09486">
        <ele>128.4</ele>
        <time>2026-05-24T11:05:48Z</time>
      </trkpt>
      <trkpt lat="48.62757" lon="2.09487">
        <ele>128.4</ele>
        <time>2026-05-24T11:05:49Z</time>
      </trkpt>
      <trkpt lat="48.62753" lon="2.09488">
        <ele>129</ele>
        <time>2026-05-24T11:05:50Z</time>
      </trkpt>
      <trkpt lat="48.6275" lon="2.0949">
        <ele>129</ele>
        <time>2026-05-24T11:05:51Z</time>
      </trkpt>
      <trkpt lat="48.62747" lon="2.09493">
        <ele>129</ele>
        <time>2026-05-24T11:05:52Z</time>
      </trkpt>
      <trkpt lat="48.62744" lon="2.09498">
        <ele>128.4</ele>
        <time>2026-05-24T11:05:53Z</time>
      </trkpt>
      <trkpt lat="48.62742" lon="2.09502">
        <ele>129</ele>
        <time>2026-05-24T11:05:54Z</time>
      </trkpt>
      <trkpt lat="48.62741" lon="2.09508">
        <ele>129</ele>
        <time>2026-05-24T11:05:55Z</time>
      </trkpt>
      <trkpt lat="48.6274" lon="2.09513">
        <ele>129</ele>
        <time>2026-05-24T11:05:56Z</time>
      </trkpt>
      <trkpt lat="48.62739" lon="2.09519">
        <ele>128.4</ele>
        <time>2026-05-24T11:05:57Z</time>
      </trkpt>
      <trkpt lat="48.62739" lon="2.09526">
        <ele>128.6</ele>
        <time>2026-05-24T11:05:58Z</time>
      </trkpt>
      <trkpt lat="48.62739" lon="2.09533">
        <ele>128.6</ele>
        <time>2026-05-24T11:05:59Z</time>
      </trkpt>
      <trkpt lat="48.6274" lon="2.09539">
        <ele>128.6</ele>
        <time>2026-05-24T11:06:00Z</time>
      </trkpt>
      <trkpt lat="48.6274" lon="2.09545">
        <ele>128.6</ele>
        <time>2026-05-24T11:06:01Z</time>
      </trkpt>
      <trkpt lat="48.62741" lon="2.09552">
        <ele>128.2</ele>
        <time>2026-05-24T11:06:02Z</time>
      </trkpt>
      <trkpt lat="48.62741" lon="2.09558">
        <ele>128.2</ele>
        <time>2026-05-24T11:06:03Z</time>
      </trkpt>
      <trkpt lat="48.62741" lon="2.09565">
        <ele>128.2</ele>
        <time>2026-05-24T11:06:04Z</time>
      </trkpt>
      <trkpt lat="48.62741" lon="2.09572">
        <ele>128.2</ele>
        <time>2026-05-24T11:06:05Z</time>
      </trkpt>
      <trkpt lat="48.62742" lon="2.09578">
        <ele>127.8</ele>
        <time>2026-05-24T11:06:06Z</time>
      </trkpt>
      <trkpt lat="48.62742" lon="2.09585">
        <ele>127.8</ele>
        <time>2026-05-24T11:06:07Z</time>
      </trkpt>
      <trkpt lat="48.62741" lon="2.09592">
        <ele>127.8</ele>
        <time>2026-05-24T11:06:08Z</time>
      </trkpt>
      <trkpt lat="48.62741" lon="2.09598">
        <ele>127.8</ele>
        <time>2026-05-24T11:06:09Z</time>
      </trkpt>
      <trkpt lat="48.6274" lon="2.09605">
        <ele>127.8</ele>
        <time>2026-05-24T11:06:10Z</time>
      </trkpt>
      <trkpt lat="48.62739" lon="2.09612">
        <ele>127.8</ele>
        <time>2026-05-24T11:06:11Z</time>
      </trkpt>
      <trkpt lat="48.62737" lon="2.09619">
        <ele>127.8</ele>
        <time>2026-05-24T11:06:12Z</time>
      </trkpt>
      <trkpt lat="48.62736" lon="2.09626">
        <ele>127.6</ele>
        <time>2026-05-24T11:06:13Z</time>
      </trkpt>
      <trkpt lat="48.62734" lon="2.09632">
        <ele>127.4</ele>
        <time>2026-05-24T11:06:14Z</time>
      </trkpt>
      <trkpt lat="48.62731" lon="2.09639">
        <ele>127.4</ele>
        <time>2026-05-24T11:06:15Z</time>
      </trkpt>
      <trkpt lat="48.62729" lon="2.09645">
        <ele>127.4</ele>
        <time>2026-05-24T11:06:16Z</time>
      </trkpt>
      <trkpt lat="48.62726" lon="2.09651">
        <ele>127</ele>
        <time>2026-05-24T11:06:17Z</time>
      </trkpt>
      <trkpt lat="48.62723" lon="2.09657">
        <ele>127.4</ele>
        <time>2026-05-24T11:06:18Z</time>
      </trkpt>
      <trkpt lat="48.62721" lon="2.09663">
        <ele>127.4</ele>
        <time>2026-05-24T11:06:19Z</time>
      </trkpt>
      <trkpt lat="48.62718" lon="2.09669">
        <ele>127.4</ele>
        <time>2026-05-24T11:06:20Z</time>
      </trkpt>
      <trkpt lat="48.62715" lon="2.09675">
        <ele>127.4</ele>
        <time>2026-05-24T11:06:21Z</time>
      </trkpt>
      <trkpt lat="48.62712" lon="2.09681">
        <ele>127.6</ele>
        <time>2026-05-24T11:06:22Z</time>
      </trkpt>
      <trkpt lat="48.62709" lon="2.09687">
        <ele>127.6</ele>
        <time>2026-05-24T11:06:23Z</time>
      </trkpt>
      <trkpt lat="48.62706" lon="2.09693">
        <ele>127.6</ele>
        <time>2026-05-24T11:06:24Z</time>
      </trkpt>
      <trkpt lat="48.62704" lon="2.09699">
        <ele>127.2</ele>
        <time>2026-05-24T11:06:25Z</time>
      </trkpt>
      <trkpt lat="48.62701" lon="2.09705">
        <ele>127.2</ele>
        <time>2026-05-24T11:06:26Z</time>
      </trkpt>
      <trkpt lat="48.62699" lon="2.09711">
        <ele>127.2</ele>
        <time>2026-05-24T11:06:27Z</time>
      </trkpt>
      <trkpt lat="48.62697" lon="2.09717">
        <ele>127.2</ele>
        <time>2026-05-24T11:06:28Z</time>
      </trkpt>
      <trkpt lat="48.62694" lon="2.09724">
        <ele>127</ele>
        <time>2026-05-24T11:06:29Z</time>
      </trkpt>
      <trkpt lat="48.62692" lon="2.0973">
        <ele>127.2</ele>
        <time>2026-05-24T11:06:30Z</time>
      </trkpt>
      <trkpt lat="48.6269" lon="2.09737">
        <ele>127.2</ele>
        <time>2026-05-24T11:06:31Z</time>
      </trkpt>
      <trkpt lat="48.62687" lon="2.09743">
        <ele>127.2</ele>
        <time>2026-05-24T11:06:32Z</time>
      </trkpt>
      <trkpt lat="48.62683" lon="2.09747">
        <ele>127</ele>
        <time>2026-05-24T11:06:33Z</time>
      </trkpt>
      <trkpt lat="48.62678" lon="2.09748">
        <ele>126.2</ele>
        <time>2026-05-24T11:06:34Z</time>
      </trkpt>
      <trkpt lat="48.62674" lon="2.09745">
        <ele>126.2</ele>
        <time>2026-05-24T11:06:35Z</time>
      </trkpt>
      <trkpt lat="48.6267" lon="2.09741">
        <ele>126.2</ele>
        <time>2026-05-24T11:06:36Z</time>
      </trkpt>
      <trkpt lat="48.62667" lon="2.09738">
        <ele>126.2</ele>
        <time>2026-05-24T11:06:37Z</time>
      </trkpt>
      <trkpt lat="48.62663" lon="2.09734">
        <ele>127.2</ele>
        <time>2026-05-24T11:06:38Z</time>
      </trkpt>
      <trkpt lat="48.6266" lon="2.09731">
        <ele>127.2</ele>
        <time>2026-05-24T11:06:39Z</time>
      </trkpt>
      <trkpt lat="48.62657" lon="2.09729">
        <ele>127.2</ele>
        <time>2026-05-24T11:06:40Z</time>
      </trkpt>
      <trkpt lat="48.62654" lon="2.09726">
        <ele>127.2</ele>
        <time>2026-05-24T11:06:41Z</time>
      </trkpt>
      <trkpt lat="48.62652" lon="2.09722">
        <ele>127.4</ele>
        <time>2026-05-24T11:06:42Z</time>
      </trkpt>
      <trkpt lat="48.6265" lon="2.09719">
        <ele>127.4</ele>
        <time>2026-05-24T11:06:43Z</time>
      </trkpt>
      <trkpt lat="48.62648" lon="2.09716">
        <ele>127.4</ele>
        <time>2026-05-24T11:06:44Z</time>
      </trkpt>
      <trkpt lat="48.62646" lon="2.09713">
        <ele>127.4</ele>
        <time>2026-05-24T11:06:45Z</time>
      </trkpt>
      <trkpt lat="48.62643" lon="2.09711">
        <ele>128</ele>
        <time>2026-05-24T11:06:46Z</time>
      </trkpt>
      <trkpt lat="48.62641" lon="2.09708">
        <ele>128</ele>
        <time>2026-05-24T11:06:47Z</time>
      </trkpt>
      <trkpt lat="48.62639" lon="2.09706">
        <ele>128</ele>
        <time>2026-05-24T11:06:48Z</time>
      </trkpt>
      <trkpt lat="48.62637" lon="2.09704">
        <ele>128.6</ele>
        <time>2026-05-24T11:06:49Z</time>
      </trkpt>
      <trkpt lat="48.62636" lon="2.09702">
        <ele>129</ele>
        <time>2026-05-24T11:06:50Z</time>
      </trkpt>
      <trkpt lat="48.62634" lon="2.097">
        <ele>129</ele>
        <time>2026-05-24T11:06:51Z</time>
      </trkpt>
      <trkpt lat="48.62632" lon="2.09698">
        <ele>129</ele>
        <time>2026-05-24T11:06:52Z</time>
      </trkpt>
      <trkpt lat="48.6263" lon="2.09696">
        <ele>129</ele>
        <time>2026-05-24T11:06:53Z</time>
      </trkpt>
      <trkpt lat="48.62629" lon="2.09693">
        <ele>129.2</ele>
        <time>2026-05-24T11:06:54Z</time>
      </trkpt>
      <trkpt lat="48.62626" lon="2.09691">
        <ele>129.2</ele>
        <time>2026-05-24T11:06:55Z</time>
      </trkpt>
      <trkpt lat="48.62624" lon="2.09689">
        <ele>129.2</ele>
        <time>2026-05-24T11:06:56Z</time>
      </trkpt>
      <trkpt lat="48.62622" lon="2.09687">
        <ele>129.2</ele>
        <time>2026-05-24T11:06:57Z</time>
      </trkpt>
      <trkpt lat="48.6262" lon="2.09684">
        <ele>129.6</ele>
        <time>2026-05-24T11:06:58Z</time>
      </trkpt>
      <trkpt lat="48.62618" lon="2.09682">
        <ele>129.6</ele>
        <time>2026-05-24T11:06:59Z</time>
      </trkpt>
      <trkpt lat="48.62616" lon="2.09679">
        <ele>129.6</ele>
        <time>2026-05-24T11:07:00Z</time>
      </trkpt>
      <trkpt lat="48.62613" lon="2.09676">
        <ele>129.6</ele>
        <time>2026-05-24T11:07:01Z</time>
      </trkpt>
      <trkpt lat="48.62611" lon="2.09674">
        <ele>130</ele>
        <time>2026-05-24T11:07:02Z</time>
      </trkpt>
      <trkpt lat="48.62609" lon="2.0967">
        <ele>130</ele>
        <time>2026-05-24T11:07:03Z</time>
      </trkpt>
      <trkpt lat="48.62607" lon="2.09668">
        <ele>130</ele>
        <time>2026-05-24T11:07:04Z</time>
      </trkpt>
      <trkpt lat="48.62605" lon="2.09665">
        <ele>130</ele>
        <time>2026-05-24T11:07:05Z</time>
      </trkpt>
      <trkpt lat="48.62602" lon="2.09663">
        <ele>130.2</ele>
        <time>2026-05-24T11:07:06Z</time>
      </trkpt>
      <trkpt lat="48.626" lon="2.0966">
        <ele>130.2</ele>
        <time>2026-05-24T11:07:07Z</time>
      </trkpt>
      <trkpt lat="48.62598" lon="2.09658">
        <ele>130.2</ele>
        <time>2026-05-24T11:07:08Z</time>
      </trkpt>
      <trkpt lat="48.62596" lon="2.09655">
        <ele>130.4</ele>
        <time>2026-05-24T11:07:09Z</time>
      </trkpt>
      <trkpt lat="48.62594" lon="2.09653">
        <ele>130.8</ele>
        <time>2026-05-24T11:07:10Z</time>
      </trkpt>
      <trkpt lat="48.62592" lon="2.0965">
        <ele>130.8</ele>
        <time>2026-05-24T11:07:11Z</time>
      </trkpt>
      <trkpt lat="48.6259" lon="2.09647">
        <ele>130.8</ele>
        <time>2026-05-24T11:07:12Z</time>
      </trkpt>
      <trkpt lat="48.62587" lon="2.09645">
        <ele>130.8</ele>
        <time>2026-05-24T11:07:13Z</time>
      </trkpt>
      <trkpt lat="48.62585" lon="2.09642">
        <ele>131.2</ele>
        <time>2026-05-24T11:07:14Z</time>
      </trkpt>
      <trkpt lat="48.62583" lon="2.0964">
        <ele>131.2</ele>
        <time>2026-05-24T11:07:15Z</time>
      </trkpt>
      <trkpt lat="48.62581" lon="2.09637">
        <ele>131.2</ele>
        <time>2026-05-24T11:07:16Z</time>
      </trkpt>
      <trkpt lat="48.62579" lon="2.09634">
        <ele>131.2</ele>
        <time>2026-05-24T11:07:17Z</time>
      </trkpt>
      <trkpt lat="48.62577" lon="2.09632">
        <ele>131.6</ele>
        <time>2026-05-24T11:07:18Z</time>
      </trkpt>
      <trkpt lat="48.62575" lon="2.09629">
        <ele>131.6</ele>
        <time>2026-05-24T11:07:19Z</time>
      </trkpt>
      <trkpt lat="48.62573" lon="2.09626">
        <ele>131.6</ele>
        <time>2026-05-24T11:07:20Z</time>
      </trkpt>
      <trkpt lat="48.62571" lon="2.09623">
        <ele>131.6</ele>
        <time>2026-05-24T11:07:21Z</time>
      </trkpt>
      <trkpt lat="48.62568" lon="2.09621">
        <ele>131.4</ele>
        <time>2026-05-24T11:07:22Z</time>
      </trkpt>
      <trkpt lat="48.62566" lon="2.09618">
        <ele>131.4</ele>
        <time>2026-05-24T11:07:23Z</time>
      </trkpt>
      <trkpt lat="48.62564" lon="2.09615">
        <ele>131.4</ele>
        <time>2026-05-24T11:07:24Z</time>
      </trkpt>
      <trkpt lat="48.62562" lon="2.09613">
        <ele>131.4</ele>
        <time>2026-05-24T11:07:25Z</time>
      </trkpt>
      <trkpt lat="48.6256" lon="2.0961">
        <ele>131.6</ele>
        <time>2026-05-24T11:07:26Z</time>
      </trkpt>
      <trkpt lat="48.62558" lon="2.09607">
        <ele>131.6</ele>
        <time>2026-05-24T11:07:27Z</time>
      </trkpt>
      <trkpt lat="48.62556" lon="2.09604">
        <ele>131.6</ele>
        <time>2026-05-24T11:07:28Z</time>
      </trkpt>
      <trkpt lat="48.62553" lon="2.09601">
        <ele>132</ele>
        <time>2026-05-24T11:07:29Z</time>
      </trkpt>
      <trkpt lat="48.62551" lon="2.09599">
        <ele>132.2</ele>
        <time>2026-05-24T11:07:30Z</time>
      </trkpt>
      <trkpt lat="48.62549" lon="2.09596">
        <ele>132.2</ele>
        <time>2026-05-24T11:07:31Z</time>
      </trkpt>
      <trkpt lat="48.62547" lon="2.09594">
        <ele>132.2</ele>
        <time>2026-05-24T11:07:32Z</time>
      </trkpt>
      <trkpt lat="48.62544" lon="2.09592">
        <ele>132.8</ele>
        <time>2026-05-24T11:07:33Z</time>
      </trkpt>
      <trkpt lat="48.62542" lon="2.0959">
        <ele>132.8</ele>
        <time>2026-05-24T11:07:34Z</time>
      </trkpt>
      <trkpt lat="48.62541" lon="2.09587">
        <ele>132.8</ele>
        <time>2026-05-24T11:07:35Z</time>
      </trkpt>
      <trkpt lat="48.62539" lon="2.09585">
        <ele>132.8</ele>
        <time>2026-05-24T11:07:36Z</time>
      </trkpt>
      <trkpt lat="48.62537" lon="2.09583">
        <ele>132.8</ele>
        <time>2026-05-24T11:07:37Z</time>
      </trkpt>
      <trkpt lat="48.62536" lon="2.09581">
        <ele>133.2</ele>
        <time>2026-05-24T11:07:38Z</time>
      </trkpt>
      <trkpt lat="48.62534" lon="2.0958">
        <ele>133.2</ele>
        <time>2026-05-24T11:07:39Z</time>
      </trkpt>
      <trkpt lat="48.62533" lon="2.09578">
        <ele>133.2</ele>
        <time>2026-05-24T11:07:40Z</time>
      </trkpt>
      <trkpt lat="48.62532" lon="2.09576">
        <ele>133.2</ele>
        <time>2026-05-24T11:07:41Z</time>
      </trkpt>
      <trkpt lat="48.6253" lon="2.09574">
        <ele>133.6</ele>
        <time>2026-05-24T11:07:42Z</time>
      </trkpt>
      <trkpt lat="48.62528" lon="2.09573">
        <ele>133.6</ele>
        <time>2026-05-24T11:07:43Z</time>
      </trkpt>
      <trkpt lat="48.62526" lon="2.09571">
        <ele>133.6</ele>
        <time>2026-05-24T11:07:44Z</time>
      </trkpt>
      <trkpt lat="48.62524" lon="2.09569">
        <ele>133.6</ele>
        <time>2026-05-24T11:07:45Z</time>
      </trkpt>
      <trkpt lat="48.62522" lon="2.09566">
        <ele>134</ele>
        <time>2026-05-24T11:07:46Z</time>
      </trkpt>
      <trkpt lat="48.62519" lon="2.09565">
        <ele>134</ele>
        <time>2026-05-24T11:07:47Z</time>
      </trkpt>
      <trkpt lat="48.62518" lon="2.09563">
        <ele>134</ele>
        <time>2026-05-24T11:07:48Z</time>
      </trkpt>
      <trkpt lat="48.62515" lon="2.09561">
        <ele>134.4</ele>
        <time>2026-05-24T11:07:49Z</time>
      </trkpt>
      <trkpt lat="48.62514" lon="2.0956">
        <ele>134.6</ele>
        <time>2026-05-24T11:07:50Z</time>
      </trkpt>
      <trkpt lat="48.62512" lon="2.09558">
        <ele>134.6</ele>
        <time>2026-05-24T11:07:51Z</time>
      </trkpt>
      <trkpt lat="48.6251" lon="2.09556">
        <ele>134.6</ele>
        <time>2026-05-24T11:07:52Z</time>
      </trkpt>
      <trkpt lat="48.62507" lon="2.09553">
        <ele>134.6</ele>
        <time>2026-05-24T11:07:53Z</time>
      </trkpt>
      <trkpt lat="48.62505" lon="2.09551">
        <ele>135</ele>
        <time>2026-05-24T11:07:54Z</time>
      </trkpt>
      <trkpt lat="48.62503" lon="2.09548">
        <ele>135</ele>
        <time>2026-05-24T11:07:55Z</time>
      </trkpt>
      <trkpt lat="48.62501" lon="2.09546">
        <ele>135</ele>
        <time>2026-05-24T11:07:56Z</time>
      </trkpt>
      <trkpt lat="48.62499" lon="2.09544">
        <ele>135</ele>
        <time>2026-05-24T11:07:57Z</time>
      </trkpt>
      <trkpt lat="48.62496" lon="2.09541">
        <ele>135.6</ele>
        <time>2026-05-24T11:07:58Z</time>
      </trkpt>
      <trkpt lat="48.62493" lon="2.09539">
        <ele>135.6</ele>
        <time>2026-05-24T11:07:59Z</time>
      </trkpt>
      <trkpt lat="48.62491" lon="2.09536">
        <ele>135.6</ele>
        <time>2026-05-24T11:08:00Z</time>
      </trkpt>
      <trkpt lat="48.62489" lon="2.09533">
        <ele>135.6</ele>
        <time>2026-05-24T11:08:01Z</time>
      </trkpt>
      <trkpt lat="48.62487" lon="2.0953">
        <ele>136</ele>
        <time>2026-05-24T11:08:02Z</time>
      </trkpt>
      <trkpt lat="48.62484" lon="2.09526">
        <ele>136</ele>
        <time>2026-05-24T11:08:03Z</time>
      </trkpt>
      <trkpt lat="48.62482" lon="2.09524">
        <ele>136</ele>
        <time>2026-05-24T11:08:04Z</time>
      </trkpt>
      <trkpt lat="48.6248" lon="2.09521">
        <ele>136</ele>
        <time>2026-05-24T11:08:05Z</time>
      </trkpt>
      <trkpt lat="48.62477" lon="2.09519">
        <ele>136.4</ele>
        <time>2026-05-24T11:08:06Z</time>
      </trkpt>
      <trkpt lat="48.62475" lon="2.09517">
        <ele>136.4</ele>
        <time>2026-05-24T11:08:07Z</time>
      </trkpt>
      <trkpt lat="48.62472" lon="2.09514">
        <ele>136.4</ele>
        <time>2026-05-24T11:08:08Z</time>
      </trkpt>
      <trkpt lat="48.6247" lon="2.09511">
        <ele>136.6</ele>
        <time>2026-05-24T11:08:09Z</time>
      </trkpt>
      <trkpt lat="48.62468" lon="2.09509">
        <ele>136.6</ele>
        <time>2026-05-24T11:08:10Z</time>
      </trkpt>
      <trkpt lat="48.62466" lon="2.09507">
        <ele>136.6</ele>
        <time>2026-05-24T11:08:11Z</time>
      </trkpt>
      <trkpt lat="48.62464" lon="2.09505">
        <ele>136.6</ele>
        <time>2026-05-24T11:08:12Z</time>
      </trkpt>
      <trkpt lat="48.62461" lon="2.09502">
        <ele>136.8</ele>
        <time>2026-05-24T11:08:13Z</time>
      </trkpt>
      <trkpt lat="48.62458" lon="2.095">
        <ele>136.8</ele>
        <time>2026-05-24T11:08:14Z</time>
      </trkpt>
      <trkpt lat="48.62456" lon="2.09498">
        <ele>136.8</ele>
        <time>2026-05-24T11:08:15Z</time>
      </trkpt>
      <trkpt lat="48.62454" lon="2.09496">
        <ele>136.8</ele>
        <time>2026-05-24T11:08:16Z</time>
      </trkpt>
      <trkpt lat="48.62452" lon="2.09493">
        <ele>137.4</ele>
        <time>2026-05-24T11:08:17Z</time>
      </trkpt>
      <trkpt lat="48.6245" lon="2.09491">
        <ele>137.4</ele>
        <time>2026-05-24T11:08:18Z</time>
      </trkpt>
      <trkpt lat="48.62448" lon="2.09489">
        <ele>137.4</ele>
        <time>2026-05-24T11:08:19Z</time>
      </trkpt>
      <trkpt lat="48.62445" lon="2.09486">
        <ele>137.4</ele>
        <time>2026-05-24T11:08:20Z</time>
      </trkpt>
      <trkpt lat="48.62444" lon="2.09484">
        <ele>137.8</ele>
        <time>2026-05-24T11:08:21Z</time>
      </trkpt>
      <trkpt lat="48.62441" lon="2.09482">
        <ele>138</ele>
        <time>2026-05-24T11:08:22Z</time>
      </trkpt>
      <trkpt lat="48.62439" lon="2.09479">
        <ele>138</ele>
        <time>2026-05-24T11:08:23Z</time>
      </trkpt>
      <trkpt lat="48.62437" lon="2.09477">
        <ele>138</ele>
        <time>2026-05-24T11:08:24Z</time>
      </trkpt>
      <trkpt lat="48.62434" lon="2.09475">
        <ele>138</ele>
        <time>2026-05-24T11:08:25Z</time>
      </trkpt>
      <trkpt lat="48.62432" lon="2.09473">
        <ele>138.4</ele>
        <time>2026-05-24T11:08:26Z</time>
      </trkpt>
      <trkpt lat="48.62429" lon="2.09471">
        <ele>138.4</ele>
        <time>2026-05-24T11:08:27Z</time>
      </trkpt>
      <trkpt lat="48.62427" lon="2.09469">
        <ele>138.4</ele>
        <time>2026-05-24T11:08:28Z</time>
      </trkpt>
      <trkpt lat="48.62424" lon="2.09467">
        <ele>138.4</ele>
        <time>2026-05-24T11:08:29Z</time>
      </trkpt>
      <trkpt lat="48.62422" lon="2.09464">
        <ele>138.6</ele>
        <time>2026-05-24T11:08:30Z</time>
      </trkpt>
      <trkpt lat="48.62419" lon="2.09462">
        <ele>138.6</ele>
        <time>2026-05-24T11:08:31Z</time>
      </trkpt>
      <trkpt lat="48.62417" lon="2.0946">
        <ele>138.6</ele>
        <time>2026-05-24T11:08:32Z</time>
      </trkpt>
      <trkpt lat="48.62415" lon="2.09458">
        <ele>138.6</ele>
        <time>2026-05-24T11:08:33Z</time>
      </trkpt>
      <trkpt lat="48.62413" lon="2.09455">
        <ele>138.8</ele>
        <time>2026-05-24T11:08:34Z</time>
      </trkpt>
      <trkpt lat="48.62411" lon="2.09453">
        <ele>138.8</ele>
        <time>2026-05-24T11:08:35Z</time>
      </trkpt>
      <trkpt lat="48.62409" lon="2.09451">
        <ele>138.8</ele>
        <time>2026-05-24T11:08:36Z</time>
      </trkpt>
      <trkpt lat="48.62407" lon="2.09449">
        <ele>138.8</ele>
        <time>2026-05-24T11:08:37Z</time>
      </trkpt>
      <trkpt lat="48.62404" lon="2.09447">
        <ele>139.4</ele>
        <time>2026-05-24T11:08:38Z</time>
      </trkpt>
      <trkpt lat="48.62403" lon="2.09445">
        <ele>139.4</ele>
        <time>2026-05-24T11:08:39Z</time>
      </trkpt>
      <trkpt lat="48.624" lon="2.09443">
        <ele>139.4</ele>
        <time>2026-05-24T11:08:40Z</time>
      </trkpt>
      <trkpt lat="48.62398" lon="2.0944">
        <ele>139.4</ele>
        <time>2026-05-24T11:08:41Z</time>
      </trkpt>
      <trkpt lat="48.62395" lon="2.09439">
        <ele>139.8</ele>
        <time>2026-05-24T11:08:42Z</time>
      </trkpt>
      <trkpt lat="48.62393" lon="2.09436">
        <ele>139.8</ele>
        <time>2026-05-24T11:08:43Z</time>
      </trkpt>
      <trkpt lat="48.62391" lon="2.09434">
        <ele>139.8</ele>
        <time>2026-05-24T11:08:44Z</time>
      </trkpt>
      <trkpt lat="48.62389" lon="2.09433">
        <ele>139.6</ele>
        <time>2026-05-24T11:08:45Z</time>
      </trkpt>
      <trkpt lat="48.62388" lon="2.09431">
        <ele>140</ele>
        <time>2026-05-24T11:08:46Z</time>
      </trkpt>
      <trkpt lat="48.62386" lon="2.09429">
        <ele>140</ele>
        <time>2026-05-24T11:08:47Z</time>
      </trkpt>
      <trkpt lat="48.62385" lon="2.09427">
        <ele>140</ele>
        <time>2026-05-24T11:08:48Z</time>
      </trkpt>
      <trkpt lat="48.62383" lon="2.09425">
        <ele>140</ele>
        <time>2026-05-24T11:08:49Z</time>
      </trkpt>
      <trkpt lat="48.62381" lon="2.09423">
        <ele>139.8</ele>
        <time>2026-05-24T11:08:50Z</time>
      </trkpt>
      <trkpt lat="48.62379" lon="2.09421">
        <ele>139.8</ele>
        <time>2026-05-24T11:08:51Z</time>
      </trkpt>
      <trkpt lat="48.62377" lon="2.09419">
        <ele>139.8</ele>
        <time>2026-05-24T11:08:52Z</time>
      </trkpt>
      <trkpt lat="48.62374" lon="2.09417">
        <ele>140.2</ele>
        <time>2026-05-24T11:08:53Z</time>
      </trkpt>
      <trkpt lat="48.62372" lon="2.09414">
        <ele>141</ele>
        <time>2026-05-24T11:08:54Z</time>
      </trkpt>
      <trkpt lat="48.6237" lon="2.09412">
        <ele>141</ele>
        <time>2026-05-24T11:08:55Z</time>
      </trkpt>
      <trkpt lat="48.62367" lon="2.09409">
        <ele>141</ele>
        <time>2026-05-24T11:08:56Z</time>
      </trkpt>
      <trkpt lat="48.62366" lon="2.09406">
        <ele>141</ele>
        <time>2026-05-24T11:08:57Z</time>
      </trkpt>
      <trkpt lat="48.62363" lon="2.09404">
        <ele>140.6</ele>
        <time>2026-05-24T11:08:58Z</time>
      </trkpt>
      <trkpt lat="48.62362" lon="2.09402">
        <ele>140.6</ele>
        <time>2026-05-24T11:08:59Z</time>
      </trkpt>
      <trkpt lat="48.6236" lon="2.094">
        <ele>140.6</ele>
        <time>2026-05-24T11:09:00Z</time>
      </trkpt>
      <trkpt lat="48.62358" lon="2.09398">
        <ele>141</ele>
        <time>2026-05-24T11:09:01Z</time>
      </trkpt>
      <trkpt lat="48.62355" lon="2.09395">
        <ele>141.4</ele>
        <time>2026-05-24T11:09:02Z</time>
      </trkpt>
      <trkpt lat="48.62353" lon="2.09393">
        <ele>141.4</ele>
        <time>2026-05-24T11:09:03Z</time>
      </trkpt>
      <trkpt lat="48.62351" lon="2.0939">
        <ele>141.4</ele>
        <time>2026-05-24T11:09:04Z</time>
      </trkpt>
      <trkpt lat="48.62349" lon="2.09388">
        <ele>141.4</ele>
        <time>2026-05-24T11:09:05Z</time>
      </trkpt>
      <trkpt lat="48.62347" lon="2.09386">
        <ele>141.2</ele>
        <time>2026-05-24T11:09:06Z</time>
      </trkpt>
      <trkpt lat="48.62345" lon="2.09384">
        <ele>141.2</ele>
        <time>2026-05-24T11:09:07Z</time>
      </trkpt>
      <trkpt lat="48.62343" lon="2.09382">
        <ele>141.2</ele>
        <time>2026-05-24T11:09:08Z</time>
      </trkpt>
      <trkpt lat="48.62341" lon="2.0938">
        <ele>141.6</ele>
        <time>2026-05-24T11:09:09Z</time>
      </trkpt>
      <trkpt lat="48.62339" lon="2.09378">
        <ele>141.6</ele>
        <time>2026-05-24T11:09:10Z</time>
      </trkpt>
      <trkpt lat="48.62338" lon="2.09376">
        <ele>141.6</ele>
        <time>2026-05-24T11:09:11Z</time>
      </trkpt>
      <trkpt lat="48.62335" lon="2.09373">
        <ele>141.6</ele>
        <time>2026-05-24T11:09:12Z</time>
      </trkpt>
      <trkpt lat="48.62332" lon="2.0937">
        <ele>141.6</ele>
        <time>2026-05-24T11:09:13Z</time>
      </trkpt>
      <trkpt lat="48.6233" lon="2.09368">
        <ele>142.2</ele>
        <time>2026-05-24T11:09:14Z</time>
      </trkpt>
      <trkpt lat="48.62328" lon="2.09365">
        <ele>142.2</ele>
        <time>2026-05-24T11:09:15Z</time>
      </trkpt>
      <trkpt lat="48.62325" lon="2.09362">
        <ele>142.2</ele>
        <time>2026-05-24T11:09:16Z</time>
      </trkpt>
      <trkpt lat="48.62323" lon="2.0936">
        <ele>142.2</ele>
        <time>2026-05-24T11:09:17Z</time>
      </trkpt>
      <trkpt lat="48.6232" lon="2.09357">
        <ele>142.4</ele>
        <time>2026-05-24T11:09:18Z</time>
      </trkpt>
      <trkpt lat="48.62317" lon="2.09354">
        <ele>142.4</ele>
        <time>2026-05-24T11:09:19Z</time>
      </trkpt>
      <trkpt lat="48.62315" lon="2.09352">
        <ele>142.4</ele>
        <time>2026-05-24T11:09:20Z</time>
      </trkpt>
      <trkpt lat="48.62312" lon="2.09349">
        <ele>142.4</ele>
        <time>2026-05-24T11:09:21Z</time>
      </trkpt>
      <trkpt lat="48.62309" lon="2.09346">
        <ele>143</ele>
        <time>2026-05-24T11:09:22Z</time>
      </trkpt>
      <trkpt lat="48.62307" lon="2.09342">
        <ele>143</ele>
        <time>2026-05-24T11:09:23Z</time>
      </trkpt>
      <trkpt lat="48.62304" lon="2.0934">
        <ele>143</ele>
        <time>2026-05-24T11:09:24Z</time>
      </trkpt>
      <trkpt lat="48.62302" lon="2.09337">
        <ele>143</ele>
        <time>2026-05-24T11:09:25Z</time>
      </trkpt>
      <trkpt lat="48.623" lon="2.09335">
        <ele>142.8</ele>
        <time>2026-05-24T11:09:26Z</time>
      </trkpt>
      <trkpt lat="48.62298" lon="2.09332">
        <ele>142.8</ele>
        <time>2026-05-24T11:09:27Z</time>
      </trkpt>
      <trkpt lat="48.62295" lon="2.09329">
        <ele>142.8</ele>
        <time>2026-05-24T11:09:28Z</time>
      </trkpt>
      <trkpt lat="48.62293" lon="2.09326">
        <ele>143.4</ele>
        <time>2026-05-24T11:09:29Z</time>
      </trkpt>
      <trkpt lat="48.6229" lon="2.09324">
        <ele>143.6</ele>
        <time>2026-05-24T11:09:30Z</time>
      </trkpt>
      <trkpt lat="48.62287" lon="2.09321">
        <ele>143.6</ele>
        <time>2026-05-24T11:09:31Z</time>
      </trkpt>
      <trkpt lat="48.62284" lon="2.09318">
        <ele>143.6</ele>
        <time>2026-05-24T11:09:32Z</time>
      </trkpt>
      <trkpt lat="48.62282" lon="2.09315">
        <ele>144</ele>
        <time>2026-05-24T11:09:33Z</time>
      </trkpt>
      <trkpt lat="48.62281" lon="2.09313">
        <ele>144</ele>
        <time>2026-05-24T11:09:34Z</time>
      </trkpt>
      <trkpt lat="48.62279" lon="2.09311">
        <ele>144</ele>
        <time>2026-05-24T11:09:35Z</time>
      </trkpt>
      <trkpt lat="48.62276" lon="2.09309">
        <ele>144</ele>
        <time>2026-05-24T11:09:36Z</time>
      </trkpt>
      <trkpt lat="48.62274" lon="2.09306">
        <ele>144</ele>
        <time>2026-05-24T11:09:37Z</time>
      </trkpt>
      <trkpt lat="48.62272" lon="2.09304">
        <ele>144.8</ele>
        <time>2026-05-24T11:09:38Z</time>
      </trkpt>
      <trkpt lat="48.6227" lon="2.09301">
        <ele>144.8</ele>
        <time>2026-05-24T11:09:39Z</time>
      </trkpt>
      <trkpt lat="48.62268" lon="2.09299">
        <ele>144.8</ele>
        <time>2026-05-24T11:09:40Z</time>
      </trkpt>
      <trkpt lat="48.62266" lon="2.09297">
        <ele>144.8</ele>
        <time>2026-05-24T11:09:41Z</time>
      </trkpt>
      <trkpt lat="48.62264" lon="2.09295">
        <ele>144.6</ele>
        <time>2026-05-24T11:09:42Z</time>
      </trkpt>
      <trkpt lat="48.62262" lon="2.09292">
        <ele>144.6</ele>
        <time>2026-05-24T11:09:43Z</time>
      </trkpt>
      <trkpt lat="48.62259" lon="2.0929">
        <ele>144.6</ele>
        <time>2026-05-24T11:09:44Z</time>
      </trkpt>
      <trkpt lat="48.62258" lon="2.09287">
        <ele>145.4</ele>
        <time>2026-05-24T11:09:45Z</time>
      </trkpt>
      <trkpt lat="48.62255" lon="2.09285">
        <ele>145.2</ele>
        <time>2026-05-24T11:09:46Z</time>
      </trkpt>
      <trkpt lat="48.62253" lon="2.09283">
        <ele>145.2</ele>
        <time>2026-05-24T11:09:47Z</time>
      </trkpt>
      <trkpt lat="48.62252" lon="2.09282">
        <ele>145.2</ele>
        <time>2026-05-24T11:09:48Z</time>
      </trkpt>
      <trkpt lat="48.62249" lon="2.09279">
        <ele>145.6</ele>
        <time>2026-05-24T11:09:49Z</time>
      </trkpt>
      <trkpt lat="48.62248" lon="2.09278">
        <ele>145.6</ele>
        <time>2026-05-24T11:09:50Z</time>
      </trkpt>
      <trkpt lat="48.62247" lon="2.09276">
        <ele>145.6</ele>
        <time>2026-05-24T11:09:51Z</time>
      </trkpt>
      <trkpt lat="48.62245" lon="2.09274">
        <ele>145.6</ele>
        <time>2026-05-24T11:09:52Z</time>
      </trkpt>
      <trkpt lat="48.62243" lon="2.09272">
        <ele>146.4</ele>
        <time>2026-05-24T11:09:53Z</time>
      </trkpt>
      <trkpt lat="48.62241" lon="2.0927">
        <ele>146.6</ele>
        <time>2026-05-24T11:09:54Z</time>
      </trkpt>
      <trkpt lat="48.62239" lon="2.09269">
        <ele>146.6</ele>
        <time>2026-05-24T11:09:55Z</time>
      </trkpt>
      <trkpt lat="48.62236" lon="2.09267">
        <ele>146.6</ele>
        <time>2026-05-24T11:09:56Z</time>
      </trkpt>
      <trkpt lat="48.62234" lon="2.09265">
        <ele>146.6</ele>
        <time>2026-05-24T11:09:57Z</time>
      </trkpt>
      <trkpt lat="48.62232" lon="2.09264">
        <ele>146.8</ele>
        <time>2026-05-24T11:09:58Z</time>
      </trkpt>
      <trkpt lat="48.62229" lon="2.09263">
        <ele>146.8</ele>
        <time>2026-05-24T11:09:59Z</time>
      </trkpt>
      <trkpt lat="48.62227" lon="2.09261">
        <ele>146.8</ele>
        <time>2026-05-24T11:10:00Z</time>
      </trkpt>
      <trkpt lat="48.62225" lon="2.09259">
        <ele>147.6</ele>
        <time>2026-05-24T11:10:01Z</time>
      </trkpt>
      <trkpt lat="48.62222" lon="2.09257">
        <ele>147.4</ele>
        <time>2026-05-24T11:10:02Z</time>
      </trkpt>
      <trkpt lat="48.62221" lon="2.09255">
        <ele>147.4</ele>
        <time>2026-05-24T11:10:03Z</time>
      </trkpt>
      <trkpt lat="48.62218" lon="2.09252">
        <ele>147.4</ele>
        <time>2026-05-24T11:10:04Z</time>
      </trkpt>
      <trkpt lat="48.62216" lon="2.0925">
        <ele>147.4</ele>
        <time>2026-05-24T11:10:05Z</time>
      </trkpt>
      <trkpt lat="48.62214" lon="2.09248">
        <ele>147.8</ele>
        <time>2026-05-24T11:10:06Z</time>
      </trkpt>
      <trkpt lat="48.62212" lon="2.09246">
        <ele>147.8</ele>
        <time>2026-05-24T11:10:07Z</time>
      </trkpt>
      <trkpt lat="48.6221" lon="2.09244">
        <ele>147.8</ele>
        <time>2026-05-24T11:10:08Z</time>
      </trkpt>
      <trkpt lat="48.62209" lon="2.09241">
        <ele>148.4</ele>
        <time>2026-05-24T11:10:09Z</time>
      </trkpt>
      <trkpt lat="48.62207" lon="2.09238">
        <ele>149</ele>
        <time>2026-05-24T11:10:10Z</time>
      </trkpt>
      <trkpt lat="48.62205" lon="2.09235">
        <ele>149</ele>
        <time>2026-05-24T11:10:11Z</time>
      </trkpt>
      <trkpt lat="48.62202" lon="2.09233">
        <ele>149</ele>
        <time>2026-05-24T11:10:12Z</time>
      </trkpt>
      <trkpt lat="48.622" lon="2.0923">
        <ele>148.8</ele>
        <time>2026-05-24T11:10:13Z</time>
      </trkpt>
      <trkpt lat="48.62198" lon="2.09227">
        <ele>149.2</ele>
        <time>2026-05-24T11:10:14Z</time>
      </trkpt>
      <trkpt lat="48.62196" lon="2.09225">
        <ele>149.2</ele>
        <time>2026-05-24T11:10:15Z</time>
      </trkpt>
      <trkpt lat="48.62195" lon="2.09222">
        <ele>149.2</ele>
        <time>2026-05-24T11:10:16Z</time>
      </trkpt>
      <trkpt lat="48.62192" lon="2.09219">
        <ele>148.6</ele>
        <time>2026-05-24T11:10:17Z</time>
      </trkpt>
      <trkpt lat="48.6219" lon="2.09217">
        <ele>148.6</ele>
        <time>2026-05-24T11:10:18Z</time>
      </trkpt>
      <trkpt lat="48.62187" lon="2.09216">
        <ele>148.6</ele>
        <time>2026-05-24T11:10:19Z</time>
      </trkpt>
      <trkpt lat="48.62184" lon="2.09216">
        <ele>148.6</ele>
        <time>2026-05-24T11:10:20Z</time>
      </trkpt>
      <trkpt lat="48.62182" lon="2.09218">
        <ele>148.6</ele>
        <time>2026-05-24T11:10:21Z</time>
      </trkpt>
      <trkpt lat="48.62181" lon="2.0922">
        <ele>148.4</ele>
        <time>2026-05-24T11:10:22Z</time>
      </trkpt>
      <trkpt lat="48.62181" lon="2.09221">
        <ele>148.4</ele>
        <time>2026-05-24T11:10:23Z</time>
      </trkpt>
      <trkpt lat="48.6218" lon="2.09224">
        <ele>148.4</ele>
        <time>2026-05-24T11:10:24Z</time>
      </trkpt>
      <trkpt lat="48.62178" lon="2.09226">
        <ele>149</ele>
        <time>2026-05-24T11:10:25Z</time>
      </trkpt>
      <trkpt lat="48.62176" lon="2.09229">
        <ele>148.6</ele>
        <time>2026-05-24T11:10:26Z</time>
      </trkpt>
      <trkpt lat="48.62175" lon="2.09232">
        <ele>148.6</ele>
        <time>2026-05-24T11:10:27Z</time>
      </trkpt>
      <trkpt lat="48.62172" lon="2.09235">
        <ele>148.6</ele>
        <time>2026-05-24T11:10:28Z</time>
      </trkpt>
      <trkpt lat="48.62171" lon="2.09238">
        <ele>149.2</ele>
        <time>2026-05-24T11:10:29Z</time>
      </trkpt>
      <trkpt lat="48.62171" lon="2.09241">
        <ele>149.4</ele>
        <time>2026-05-24T11:10:30Z</time>
      </trkpt>
      <trkpt lat="48.62169" lon="2.09244">
        <ele>149.4</ele>
        <time>2026-05-24T11:10:31Z</time>
      </trkpt>
      <trkpt lat="48.62167" lon="2.09247">
        <ele>149.4</ele>
        <time>2026-05-24T11:10:32Z</time>
      </trkpt>
      <trkpt lat="48.62165" lon="2.0925">
        <ele>149.4</ele>
        <time>2026-05-24T11:10:33Z</time>
      </trkpt>
      <trkpt lat="48.62164" lon="2.09252">
        <ele>149.8</ele>
        <time>2026-05-24T11:10:34Z</time>
      </trkpt>
      <trkpt lat="48.62162" lon="2.09255">
        <ele>149.8</ele>
        <time>2026-05-24T11:10:35Z</time>
      </trkpt>
      <trkpt lat="48.62159" lon="2.09258">
        <ele>149.8</ele>
        <time>2026-05-24T11:10:36Z</time>
      </trkpt>
      <trkpt lat="48.62157" lon="2.09261">
        <ele>149.8</ele>
        <time>2026-05-24T11:10:37Z</time>
      </trkpt>
      <trkpt lat="48.62157" lon="2.09263">
        <ele>149.4</ele>
        <time>2026-05-24T11:10:38Z</time>
      </trkpt>
      <trkpt lat="48.62155" lon="2.09266">
        <ele>149.4</ele>
        <time>2026-05-24T11:10:39Z</time>
      </trkpt>
      <trkpt lat="48.62153" lon="2.09269">
        <ele>149.4</ele>
        <time>2026-05-24T11:10:40Z</time>
      </trkpt>
      <trkpt lat="48.62151" lon="2.09274">
        <ele>149.4</ele>
        <time>2026-05-24T11:10:41Z</time>
      </trkpt>
      <trkpt lat="48.6215" lon="2.09277">
        <ele>151</ele>
        <time>2026-05-24T11:10:42Z</time>
      </trkpt>
      <trkpt lat="48.62148" lon="2.09281">
        <ele>151</ele>
        <time>2026-05-24T11:10:43Z</time>
      </trkpt>
      <trkpt lat="48.62146" lon="2.09284">
        <ele>151</ele>
        <time>2026-05-24T11:10:44Z</time>
      </trkpt>
      <trkpt lat="48.62145" lon="2.09288">
        <ele>150</ele>
        <time>2026-05-24T11:10:45Z</time>
      </trkpt>
      <trkpt lat="48.62144" lon="2.09291">
        <ele>149.8</ele>
        <time>2026-05-24T11:10:46Z</time>
      </trkpt>
      <trkpt lat="48.62142" lon="2.09295">
        <ele>149.8</ele>
        <time>2026-05-24T11:10:47Z</time>
      </trkpt>
      <trkpt lat="48.62141" lon="2.09297">
        <ele>149.8</ele>
        <time>2026-05-24T11:10:48Z</time>
      </trkpt>
      <trkpt lat="48.62138" lon="2.09301">
        <ele>150.8</ele>
        <time>2026-05-24T11:10:49Z</time>
      </trkpt>
      <trkpt lat="48.62136" lon="2.09304">
        <ele>150.4</ele>
        <time>2026-05-24T11:10:50Z</time>
      </trkpt>
      <trkpt lat="48.62134" lon="2.09308">
        <ele>150.4</ele>
        <time>2026-05-24T11:10:51Z</time>
      </trkpt>
      <trkpt lat="48.62132" lon="2.09312">
        <ele>150.4</ele>
        <time>2026-05-24T11:10:52Z</time>
      </trkpt>
      <trkpt lat="48.6213" lon="2.09315">
        <ele>149.8</ele>
        <time>2026-05-24T11:10:53Z</time>
      </trkpt>
      <trkpt lat="48.62128" lon="2.09318">
        <ele>150.4</ele>
        <time>2026-05-24T11:10:54Z</time>
      </trkpt>
      <trkpt lat="48.62126" lon="2.09322">
        <ele>150.4</ele>
        <time>2026-05-24T11:10:55Z</time>
      </trkpt>
      <trkpt lat="48.62123" lon="2.09327">
        <ele>150.4</ele>
        <time>2026-05-24T11:10:56Z</time>
      </trkpt>
      <trkpt lat="48.62121" lon="2.0933">
        <ele>150.4</ele>
        <time>2026-05-24T11:10:57Z</time>
      </trkpt>
      <trkpt lat="48.62119" lon="2.09335">
        <ele>148.8</ele>
        <time>2026-05-24T11:10:58Z</time>
      </trkpt>
      <trkpt lat="48.62118" lon="2.0934">
        <ele>148.8</ele>
        <time>2026-05-24T11:10:59Z</time>
      </trkpt>
      <trkpt lat="48.62116" lon="2.09344">
        <ele>148.8</ele>
        <time>2026-05-24T11:11:00Z</time>
      </trkpt>
      <trkpt lat="48.62114" lon="2.0935">
        <ele>148.8</ele>
        <time>2026-05-24T11:11:01Z</time>
      </trkpt>
      <trkpt lat="48.62112" lon="2.09354">
        <ele>148</ele>
        <time>2026-05-24T11:11:02Z</time>
      </trkpt>
      <trkpt lat="48.62109" lon="2.0936">
        <ele>148</ele>
        <time>2026-05-24T11:11:03Z</time>
      </trkpt>
      <trkpt lat="48.62105" lon="2.09366">
        <ele>148</ele>
        <time>2026-05-24T11:11:04Z</time>
      </trkpt>
      <trkpt lat="48.62102" lon="2.09371">
        <ele>148</ele>
        <time>2026-05-24T11:11:05Z</time>
      </trkpt>
      <trkpt lat="48.621" lon="2.09376">
        <ele>148</ele>
        <time>2026-05-24T11:11:06Z</time>
      </trkpt>
      <trkpt lat="48.62097" lon="2.09381">
        <ele>148</ele>
        <time>2026-05-24T11:11:07Z</time>
      </trkpt>
      <trkpt lat="48.62095" lon="2.09384">
        <ele>148</ele>
        <time>2026-05-24T11:11:08Z</time>
      </trkpt>
      <trkpt lat="48.62092" lon="2.0939">
        <ele>148</ele>
        <time>2026-05-24T11:11:09Z</time>
      </trkpt>
      <trkpt lat="48.62089" lon="2.09396">
        <ele>147.2</ele>
        <time>2026-05-24T11:11:10Z</time>
      </trkpt>
      <trkpt lat="48.62087" lon="2.09402">
        <ele>147.2</ele>
        <time>2026-05-24T11:11:11Z</time>
      </trkpt>
      <trkpt lat="48.62084" lon="2.09407">
        <ele>147.2</ele>
        <time>2026-05-24T11:11:12Z</time>
      </trkpt>
      <trkpt lat="48.62081" lon="2.09414">
        <ele>147.2</ele>
        <time>2026-05-24T11:11:13Z</time>
      </trkpt>
      <trkpt lat="48.62078" lon="2.0942">
        <ele>146.8</ele>
        <time>2026-05-24T11:11:14Z</time>
      </trkpt>
      <trkpt lat="48.62075" lon="2.09426">
        <ele>146.8</ele>
        <time>2026-05-24T11:11:15Z</time>
      </trkpt>
      <trkpt lat="48.62072" lon="2.09431">
        <ele>146.8</ele>
        <time>2026-05-24T11:11:16Z</time>
      </trkpt>
      <trkpt lat="48.62069" lon="2.09438">
        <ele>146.6</ele>
        <time>2026-05-24T11:11:17Z</time>
      </trkpt>
      <trkpt lat="48.62066" lon="2.09443">
        <ele>146.2</ele>
        <time>2026-05-24T11:11:18Z</time>
      </trkpt>
      <trkpt lat="48.62064" lon="2.09448">
        <ele>146.2</ele>
        <time>2026-05-24T11:11:19Z</time>
      </trkpt>
      <trkpt lat="48.62061" lon="2.09455">
        <ele>146.2</ele>
        <time>2026-05-24T11:11:20Z</time>
      </trkpt>
      <trkpt lat="48.62058" lon="2.09463">
        <ele>146</ele>
        <time>2026-05-24T11:11:21Z</time>
      </trkpt>
      <trkpt lat="48.62055" lon="2.09469">
        <ele>146.4</ele>
        <time>2026-05-24T11:11:22Z</time>
      </trkpt>
      <trkpt lat="48.62051" lon="2.09476">
        <ele>146.4</ele>
        <time>2026-05-24T11:11:23Z</time>
      </trkpt>
      <trkpt lat="48.62047" lon="2.09484">
        <ele>146.4</ele>
        <time>2026-05-24T11:11:24Z</time>
      </trkpt>
      <trkpt lat="48.62044" lon="2.0949">
        <ele>145.6</ele>
        <time>2026-05-24T11:11:25Z</time>
      </trkpt>
      <trkpt lat="48.62039" lon="2.09497">
        <ele>144</ele>
        <time>2026-05-24T11:11:26Z</time>
      </trkpt>
      <trkpt lat="48.62032" lon="2.09505">
        <ele>144</ele>
        <time>2026-05-24T11:11:27Z</time>
      </trkpt>
      <trkpt lat="48.62028" lon="2.09514">
        <ele>144</ele>
        <time>2026-05-24T11:11:28Z</time>
      </trkpt>
      <trkpt lat="48.62028" lon="2.09521">
        <ele>144</ele>
        <time>2026-05-24T11:11:29Z</time>
      </trkpt>
      <trkpt lat="48.62029" lon="2.09527">
        <ele>144.6</ele>
        <time>2026-05-24T11:11:30Z</time>
      </trkpt>
      <trkpt lat="48.62032" lon="2.09533">
        <ele>144.6</ele>
        <time>2026-05-24T11:11:31Z</time>
      </trkpt>
      <trkpt lat="48.62034" lon="2.09538">
        <ele>144.6</ele>
        <time>2026-05-24T11:11:32Z</time>
      </trkpt>
      <trkpt lat="48.62036" lon="2.09543">
        <ele>144.6</ele>
        <time>2026-05-24T11:11:33Z</time>
      </trkpt>
      <trkpt lat="48.62037" lon="2.09548">
        <ele>145.6</ele>
        <time>2026-05-24T11:11:34Z</time>
      </trkpt>
      <trkpt lat="48.62037" lon="2.09553">
        <ele>145.6</ele>
        <time>2026-05-24T11:11:35Z</time>
      </trkpt>
      <trkpt lat="48.62039" lon="2.09558">
        <ele>145.6</ele>
        <time>2026-05-24T11:11:36Z</time>
      </trkpt>
      <trkpt lat="48.6204" lon="2.09563">
        <ele>145.6</ele>
        <time>2026-05-24T11:11:37Z</time>
      </trkpt>
      <trkpt lat="48.62041" lon="2.09569">
        <ele>146.4</ele>
        <time>2026-05-24T11:11:38Z</time>
      </trkpt>
      <trkpt lat="48.62042" lon="2.09575">
        <ele>146.4</ele>
        <time>2026-05-24T11:11:39Z</time>
      </trkpt>
      <trkpt lat="48.62043" lon="2.0958">
        <ele>146.4</ele>
        <time>2026-05-24T11:11:40Z</time>
      </trkpt>
      <trkpt lat="48.62044" lon="2.09586">
        <ele>146.4</ele>
        <time>2026-05-24T11:11:41Z</time>
      </trkpt>
      <trkpt lat="48.62046" lon="2.09592">
        <ele>146.2</ele>
        <time>2026-05-24T11:11:42Z</time>
      </trkpt>
      <trkpt lat="48.62047" lon="2.09597">
        <ele>146.2</ele>
        <time>2026-05-24T11:11:43Z</time>
      </trkpt>
      <trkpt lat="48.62049" lon="2.09603">
        <ele>146.2</ele>
        <time>2026-05-24T11:11:44Z</time>
      </trkpt>
      <trkpt lat="48.62051" lon="2.09608">
        <ele>147</ele>
        <time>2026-05-24T11:11:45Z</time>
      </trkpt>
      <trkpt lat="48.62053" lon="2.09614">
        <ele>146</ele>
        <time>2026-05-24T11:11:46Z</time>
      </trkpt>
      <trkpt lat="48.62055" lon="2.09619">
        <ele>146</ele>
        <time>2026-05-24T11:11:47Z</time>
      </trkpt>
      <trkpt lat="48.62057" lon="2.09625">
        <ele>146</ele>
        <time>2026-05-24T11:11:48Z</time>
      </trkpt>
      <trkpt lat="48.6206" lon="2.0963">
        <ele>146</ele>
        <time>2026-05-24T11:11:49Z</time>
      </trkpt>
      <trkpt lat="48.62062" lon="2.09637">
        <ele>145.8</ele>
        <time>2026-05-24T11:11:50Z</time>
      </trkpt>
      <trkpt lat="48.62064" lon="2.09643">
        <ele>145.8</ele>
        <time>2026-05-24T11:11:51Z</time>
      </trkpt>
      <trkpt lat="48.62067" lon="2.0965">
        <ele>145.8</ele>
        <time>2026-05-24T11:11:52Z</time>
      </trkpt>
      <trkpt lat="48.62071" lon="2.09656">
        <ele>145.8</ele>
        <time>2026-05-24T11:11:53Z</time>
      </trkpt>
      <trkpt lat="48.62074" lon="2.09664">
        <ele>144.8</ele>
        <time>2026-05-24T11:11:54Z</time>
      </trkpt>
      <trkpt lat="48.62077" lon="2.09673">
        <ele>144.8</ele>
        <time>2026-05-24T11:11:55Z</time>
      </trkpt>
      <trkpt lat="48.6208" lon="2.09682">
        <ele>144.8</ele>
        <time>2026-05-24T11:11:56Z</time>
      </trkpt>
      <trkpt lat="48.62083" lon="2.09692">
        <ele>143.8</ele>
        <time>2026-05-24T11:11:57Z</time>
      </trkpt>
      <trkpt lat="48.62087" lon="2.09701">
        <ele>143.4</ele>
        <time>2026-05-24T11:11:58Z</time>
      </trkpt>
      <trkpt lat="48.6209" lon="2.0971">
        <ele>143.4</ele>
        <time>2026-05-24T11:11:59Z</time>
      </trkpt>
      <trkpt lat="48.62094" lon="2.09719">
        <ele>143.4</ele>
        <time>2026-05-24T11:12:00Z</time>
      </trkpt>
      <trkpt lat="48.62098" lon="2.09727">
        <ele>142.6</ele>
        <time>2026-05-24T11:12:01Z</time>
      </trkpt>
      <trkpt lat="48.62101" lon="2.09736">
        <ele>142.6</ele>
        <time>2026-05-24T11:12:02Z</time>
      </trkpt>
      <trkpt lat="48.62105" lon="2.09745">
        <ele>142.6</ele>
        <time>2026-05-24T11:12:03Z</time>
      </trkpt>
      <trkpt lat="48.62109" lon="2.09753">
        <ele>142.6</ele>
        <time>2026-05-24T11:12:04Z</time>
      </trkpt>
      <trkpt lat="48.62112" lon="2.09761">
        <ele>143.6</ele>
        <time>2026-05-24T11:12:05Z</time>
      </trkpt>
      <trkpt lat="48.62116" lon="2.09769">
        <ele>141.8</ele>
        <time>2026-05-24T11:12:06Z</time>
      </trkpt>
      <trkpt lat="48.6212" lon="2.09777">
        <ele>141.8</ele>
        <time>2026-05-24T11:12:07Z</time>
      </trkpt>
      <trkpt lat="48.62124" lon="2.09785">
        <ele>141.8</ele>
        <time>2026-05-24T11:12:08Z</time>
      </trkpt>
      <trkpt lat="48.62127" lon="2.09793">
        <ele>141.2</ele>
        <time>2026-05-24T11:12:09Z</time>
      </trkpt>
      <trkpt lat="48.62131" lon="2.09801">
        <ele>141.4</ele>
        <time>2026-05-24T11:12:10Z</time>
      </trkpt>
      <trkpt lat="48.62134" lon="2.0981">
        <ele>141.4</ele>
        <time>2026-05-24T11:12:11Z</time>
      </trkpt>
      <trkpt lat="48.62137" lon="2.09819">
        <ele>141.4</ele>
        <time>2026-05-24T11:12:12Z</time>
      </trkpt>
      <trkpt lat="48.6214" lon="2.09827">
        <ele>140.6</ele>
        <time>2026-05-24T11:12:13Z</time>
      </trkpt>
      <trkpt lat="48.62143" lon="2.09836">
        <ele>140.6</ele>
        <time>2026-05-24T11:12:14Z</time>
      </trkpt>
      <trkpt lat="48.62146" lon="2.09846">
        <ele>140.6</ele>
        <time>2026-05-24T11:12:15Z</time>
      </trkpt>
      <trkpt lat="48.6215" lon="2.09855">
        <ele>140.6</ele>
        <time>2026-05-24T11:12:16Z</time>
      </trkpt>
      <trkpt lat="48.62153" lon="2.09865">
        <ele>139.6</ele>
        <time>2026-05-24T11:12:17Z</time>
      </trkpt>
      <trkpt lat="48.62156" lon="2.09875">
        <ele>138</ele>
        <time>2026-05-24T11:12:18Z</time>
      </trkpt>
      <trkpt lat="48.62159" lon="2.09884">
        <ele>138</ele>
        <time>2026-05-24T11:12:19Z</time>
      </trkpt>
      <trkpt lat="48.62162" lon="2.09894">
        <ele>138</ele>
        <time>2026-05-24T11:12:20Z</time>
      </trkpt>
      <trkpt lat="48.62165" lon="2.09904">
        <ele>138.6</ele>
        <time>2026-05-24T11:12:21Z</time>
      </trkpt>
      <trkpt lat="48.62169" lon="2.09914">
        <ele>137.8</ele>
        <time>2026-05-24T11:12:22Z</time>
      </trkpt>
      <trkpt lat="48.62171" lon="2.09922">
        <ele>137.8</ele>
        <time>2026-05-24T11:12:23Z</time>
      </trkpt>
      <trkpt lat="48.62173" lon="2.09928">
        <ele>137.8</ele>
        <time>2026-05-24T11:12:24Z</time>
      </trkpt>
      <trkpt lat="48.62173" lon="2.09933">
        <ele>137.4</ele>
        <time>2026-05-24T11:12:25Z</time>
      </trkpt>
      <trkpt lat="48.62171" lon="2.09937">
        <ele>136.4</ele>
        <time>2026-05-24T11:12:26Z</time>
      </trkpt>
      <trkpt lat="48.62169" lon="2.09939">
        <ele>136.4</ele>
        <time>2026-05-24T11:12:27Z</time>
      </trkpt>
      <trkpt lat="48.62167" lon="2.09941">
        <ele>136.4</ele>
        <time>2026-05-24T11:12:28Z</time>
      </trkpt>
      <trkpt lat="48.62165" lon="2.09944">
        <ele>136.4</ele>
        <time>2026-05-24T11:12:29Z</time>
      </trkpt>
      <trkpt lat="48.62162" lon="2.09947">
        <ele>137.4</ele>
        <time>2026-05-24T11:12:30Z</time>
      </trkpt>
      <trkpt lat="48.62159" lon="2.0995">
        <ele>137.4</ele>
        <time>2026-05-24T11:12:31Z</time>
      </trkpt>
      <trkpt lat="48.62156" lon="2.09953">
        <ele>137.4</ele>
        <time>2026-05-24T11:12:32Z</time>
      </trkpt>
      <trkpt lat="48.62153" lon="2.09957">
        <ele>136.4</ele>
        <time>2026-05-24T11:12:33Z</time>
      </trkpt>
      <trkpt lat="48.62149" lon="2.0996">
        <ele>133.6</ele>
        <time>2026-05-24T11:12:34Z</time>
      </trkpt>
      <trkpt lat="48.62146" lon="2.09963">
        <ele>133.6</ele>
        <time>2026-05-24T11:12:35Z</time>
      </trkpt>
      <trkpt lat="48.62142" lon="2.09967">
        <ele>133.6</ele>
        <time>2026-05-24T11:12:36Z</time>
      </trkpt>
      <trkpt lat="48.62138" lon="2.0997">
        <ele>134.4</ele>
        <time>2026-05-24T11:12:37Z</time>
      </trkpt>
      <trkpt lat="48.62134" lon="2.09974">
        <ele>134.6</ele>
        <time>2026-05-24T11:12:38Z</time>
      </trkpt>
      <trkpt lat="48.62131" lon="2.09978">
        <ele>134.6</ele>
        <time>2026-05-24T11:12:39Z</time>
      </trkpt>
      <trkpt lat="48.62127" lon="2.09982">
        <ele>134.6</ele>
        <time>2026-05-24T11:12:40Z</time>
      </trkpt>
      <trkpt lat="48.62123" lon="2.09985">
        <ele>134.6</ele>
        <time>2026-05-24T11:12:41Z</time>
      </trkpt>
      <trkpt lat="48.62119" lon="2.09989">
        <ele>133</ele>
        <time>2026-05-24T11:12:42Z</time>
      </trkpt>
      <trkpt lat="48.62115" lon="2.09993">
        <ele>133</ele>
        <time>2026-05-24T11:12:43Z</time>
      </trkpt>
      <trkpt lat="48.62111" lon="2.09997">
        <ele>133</ele>
        <time>2026-05-24T11:12:44Z</time>
      </trkpt>
      <trkpt lat="48.62107" lon="2.10001">
        <ele>134</ele>
        <time>2026-05-24T11:12:45Z</time>
      </trkpt>
      <trkpt lat="48.62103" lon="2.10005">
        <ele>133.8</ele>
        <time>2026-05-24T11:12:46Z</time>
      </trkpt>
      <trkpt lat="48.62099" lon="2.10009">
        <ele>133.8</ele>
        <time>2026-05-24T11:12:47Z</time>
      </trkpt>
      <trkpt lat="48.62095" lon="2.10013">
        <ele>133.8</ele>
        <time>2026-05-24T11:12:48Z</time>
      </trkpt>
      <trkpt lat="48.62091" lon="2.10017">
        <ele>133.8</ele>
        <time>2026-05-24T11:12:49Z</time>
      </trkpt>
      <trkpt lat="48.62086" lon="2.1002">
        <ele>133.4</ele>
        <time>2026-05-24T11:12:50Z</time>
      </trkpt>
      <trkpt lat="48.62082" lon="2.10024">
        <ele>133.4</ele>
        <time>2026-05-24T11:12:51Z</time>
      </trkpt>
      <trkpt lat="48.62078" lon="2.10028">
        <ele>133.4</ele>
        <time>2026-05-24T11:12:52Z</time>
      </trkpt>
      <trkpt lat="48.62074" lon="2.10033">
        <ele>132.6</ele>
        <time>2026-05-24T11:12:53Z</time>
      </trkpt>
      <trkpt lat="48.62069" lon="2.10037">
        <ele>131.2</ele>
        <time>2026-05-24T11:12:54Z</time>
      </trkpt>
      <trkpt lat="48.62065" lon="2.10041">
        <ele>131.2</ele>
        <time>2026-05-24T11:12:55Z</time>
      </trkpt>
      <trkpt lat="48.62061" lon="2.10045">
        <ele>131.2</ele>
        <time>2026-05-24T11:12:56Z</time>
      </trkpt>
      <trkpt lat="48.62057" lon="2.10048">
        <ele>132.2</ele>
        <time>2026-05-24T11:12:57Z</time>
      </trkpt>
      <trkpt lat="48.62053" lon="2.10052">
        <ele>131.8</ele>
        <time>2026-05-24T11:12:58Z</time>
      </trkpt>
      <trkpt lat="48.6205" lon="2.10056">
        <ele>131.8</ele>
        <time>2026-05-24T11:12:59Z</time>
      </trkpt>
      <trkpt lat="48.62046" lon="2.10059">
        <ele>131.8</ele>
        <time>2026-05-24T11:13:00Z</time>
      </trkpt>
      <trkpt lat="48.62043" lon="2.10062">
        <ele>132.2</ele>
        <time>2026-05-24T11:13:01Z</time>
      </trkpt>
      <trkpt lat="48.6204" lon="2.10066">
        <ele>132.6</ele>
        <time>2026-05-24T11:13:02Z</time>
      </trkpt>
      <trkpt lat="48.62036" lon="2.10069">
        <ele>132.6</ele>
        <time>2026-05-24T11:13:03Z</time>
      </trkpt>
      <trkpt lat="48.62033" lon="2.10072">
        <ele>132.6</ele>
        <time>2026-05-24T11:13:04Z</time>
      </trkpt>
      <trkpt lat="48.6203" lon="2.10075">
        <ele>132.6</ele>
        <time>2026-05-24T11:13:05Z</time>
      </trkpt>
      <trkpt lat="48.62026" lon="2.10079">
        <ele>132.2</ele>
        <time>2026-05-24T11:13:06Z</time>
      </trkpt>
      <trkpt lat="48.62023" lon="2.10081">
        <ele>132.2</ele>
        <time>2026-05-24T11:13:07Z</time>
      </trkpt>
      <trkpt lat="48.6202" lon="2.10084">
        <ele>132.2</ele>
        <time>2026-05-24T11:13:08Z</time>
      </trkpt>
      <trkpt lat="48.62017" lon="2.10087">
        <ele>131.8</ele>
        <time>2026-05-24T11:13:09Z</time>
      </trkpt>
      <trkpt lat="48.62015" lon="2.1009">
        <ele>131.6</ele>
        <time>2026-05-24T11:13:10Z</time>
      </trkpt>
      <trkpt lat="48.62012" lon="2.10092">
        <ele>131.6</ele>
        <time>2026-05-24T11:13:11Z</time>
      </trkpt>
      <trkpt lat="48.62009" lon="2.10094">
        <ele>131.6</ele>
        <time>2026-05-24T11:13:12Z</time>
      </trkpt>
      <trkpt lat="48.62007" lon="2.10097">
        <ele>132.2</ele>
        <time>2026-05-24T11:13:13Z</time>
      </trkpt>
      <trkpt lat="48.62004" lon="2.10099">
        <ele>133</ele>
        <time>2026-05-24T11:13:14Z</time>
      </trkpt>
      <trkpt lat="48.62002" lon="2.10102">
        <ele>133</ele>
        <time>2026-05-24T11:13:15Z</time>
      </trkpt>
      <trkpt lat="48.61999" lon="2.10105">
        <ele>133</ele>
        <time>2026-05-24T11:13:16Z</time>
      </trkpt>
      <trkpt lat="48.61996" lon="2.10107">
        <ele>133</ele>
        <time>2026-05-24T11:13:17Z</time>
      </trkpt>
      <trkpt lat="48.61994" lon="2.1011">
        <ele>132</ele>
        <time>2026-05-24T11:13:18Z</time>
      </trkpt>
      <trkpt lat="48.61991" lon="2.10112">
        <ele>132</ele>
        <time>2026-05-24T11:13:19Z</time>
      </trkpt>
      <trkpt lat="48.61989" lon="2.10115">
        <ele>132</ele>
        <time>2026-05-24T11:13:20Z</time>
      </trkpt>
      <trkpt lat="48.61986" lon="2.10117">
        <ele>132</ele>
        <time>2026-05-24T11:13:21Z</time>
      </trkpt>
      <trkpt lat="48.61984" lon="2.1012">
        <ele>131.4</ele>
        <time>2026-05-24T11:13:22Z</time>
      </trkpt>
      <trkpt lat="48.61981" lon="2.10122">
        <ele>131.4</ele>
        <time>2026-05-24T11:13:23Z</time>
      </trkpt>
      <trkpt lat="48.61978" lon="2.10125">
        <ele>131.4</ele>
        <time>2026-05-24T11:13:24Z</time>
      </trkpt>
      <trkpt lat="48.61975" lon="2.10128">
        <ele>131.8</ele>
        <time>2026-05-24T11:13:25Z</time>
      </trkpt>
      <trkpt lat="48.61973" lon="2.1013">
        <ele>131.6</ele>
        <time>2026-05-24T11:13:26Z</time>
      </trkpt>
      <trkpt lat="48.61971" lon="2.10132">
        <ele>131.6</ele>
        <time>2026-05-24T11:13:27Z</time>
      </trkpt>
      <trkpt lat="48.61968" lon="2.10135">
        <ele>131.6</ele>
        <time>2026-05-24T11:13:28Z</time>
      </trkpt>
      <trkpt lat="48.61965" lon="2.10137">
        <ele>132.6</ele>
        <time>2026-05-24T11:13:29Z</time>
      </trkpt>
      <trkpt lat="48.61963" lon="2.1014">
        <ele>132.6</ele>
        <time>2026-05-24T11:13:30Z</time>
      </trkpt>
      <trkpt lat="48.6196" lon="2.10143">
        <ele>132.6</ele>
        <time>2026-05-24T11:13:31Z</time>
      </trkpt>
      <trkpt lat="48.61958" lon="2.10145">
        <ele>132.6</ele>
        <time>2026-05-24T11:13:32Z</time>
      </trkpt>
      <trkpt lat="48.61955" lon="2.10147">
        <ele>132.6</ele>
        <time>2026-05-24T11:13:33Z</time>
      </trkpt>
      <trkpt lat="48.61953" lon="2.1015">
        <ele>133.8</ele>
        <time>2026-05-24T11:13:34Z</time>
      </trkpt>
      <trkpt lat="48.6195" lon="2.10152">
        <ele>133.8</ele>
        <time>2026-05-24T11:13:35Z</time>
      </trkpt>
      <trkpt lat="48.61948" lon="2.10155">
        <ele>133.8</ele>
        <time>2026-05-24T11:13:36Z</time>
      </trkpt>
      <trkpt lat="48.61945" lon="2.10157">
        <ele>133.8</ele>
        <time>2026-05-24T11:13:37Z</time>
      </trkpt>
      <trkpt lat="48.61943" lon="2.10159">
        <ele>134.6</ele>
        <time>2026-05-24T11:13:38Z</time>
      </trkpt>
      <trkpt lat="48.61941" lon="2.10162">
        <ele>134.6</ele>
        <time>2026-05-24T11:13:39Z</time>
      </trkpt>
      <trkpt lat="48.61938" lon="2.10164">
        <ele>134.6</ele>
        <time>2026-05-24T11:13:40Z</time>
      </trkpt>
      <trkpt lat="48.61936" lon="2.10167">
        <ele>134.6</ele>
        <time>2026-05-24T11:13:41Z</time>
      </trkpt>
      <trkpt lat="48.61933" lon="2.1017">
        <ele>134.6</ele>
        <time>2026-05-24T11:13:42Z</time>
      </trkpt>
      <trkpt lat="48.61931" lon="2.10172">
        <ele>134.6</ele>
        <time>2026-05-24T11:13:43Z</time>
      </trkpt>
      <trkpt lat="48.61928" lon="2.10175">
        <ele>134.6</ele>
        <time>2026-05-24T11:13:44Z</time>
      </trkpt>
      <trkpt lat="48.61926" lon="2.10177">
        <ele>134.4</ele>
        <time>2026-05-24T11:13:45Z</time>
      </trkpt>
      <trkpt lat="48.61923" lon="2.1018">
        <ele>134.4</ele>
        <time>2026-05-24T11:13:46Z</time>
      </trkpt>
      <trkpt lat="48.6192" lon="2.10182">
        <ele>134.4</ele>
        <time>2026-05-24T11:13:47Z</time>
      </trkpt>
      <trkpt lat="48.61918" lon="2.10184">
        <ele>134.4</ele>
        <time>2026-05-24T11:13:48Z</time>
      </trkpt>
      <trkpt lat="48.61915" lon="2.10186">
        <ele>135.4</ele>
        <time>2026-05-24T11:13:49Z</time>
      </trkpt>
      <trkpt lat="48.61912" lon="2.10188">
        <ele>135.2</ele>
        <time>2026-05-24T11:13:50Z</time>
      </trkpt>
      <trkpt lat="48.6191" lon="2.10189">
        <ele>135.2</ele>
        <time>2026-05-24T11:13:51Z</time>
      </trkpt>
      <trkpt lat="48.61907" lon="2.1019">
        <ele>135.2</ele>
        <time>2026-05-24T11:13:52Z</time>
      </trkpt>
      <trkpt lat="48.61904" lon="2.10192">
        <ele>135.2</ele>
        <time>2026-05-24T11:13:53Z</time>
      </trkpt>
      <trkpt lat="48.61901" lon="2.10193">
        <ele>134.6</ele>
        <time>2026-05-24T11:13:54Z</time>
      </trkpt>
      <trkpt lat="48.61898" lon="2.10195">
        <ele>134.6</ele>
        <time>2026-05-24T11:13:55Z</time>
      </trkpt>
      <trkpt lat="48.61895" lon="2.10197">
        <ele>134.6</ele>
        <time>2026-05-24T11:13:56Z</time>
      </trkpt>
      <trkpt lat="48.61892" lon="2.10199">
        <ele>135.6</ele>
        <time>2026-05-24T11:13:57Z</time>
      </trkpt>
      <trkpt lat="48.61889" lon="2.10202">
        <ele>135.2</ele>
        <time>2026-05-24T11:13:58Z</time>
      </trkpt>
      <trkpt lat="48.61886" lon="2.10205">
        <ele>135.2</ele>
        <time>2026-05-24T11:13:59Z</time>
      </trkpt>
      <trkpt lat="48.61882" lon="2.10207">
        <ele>135.2</ele>
        <time>2026-05-24T11:14:00Z</time>
      </trkpt>
      <trkpt lat="48.61879" lon="2.1021">
        <ele>134.8</ele>
        <time>2026-05-24T11:14:01Z</time>
      </trkpt>
      <trkpt lat="48.61875" lon="2.10213">
        <ele>134.8</ele>
        <time>2026-05-24T11:14:02Z</time>
      </trkpt>
      <trkpt lat="48.61872" lon="2.10216">
        <ele>134.8</ele>
        <time>2026-05-24T11:14:03Z</time>
      </trkpt>
      <trkpt lat="48.61868" lon="2.10218">
        <ele>134.8</ele>
        <time>2026-05-24T11:14:04Z</time>
      </trkpt>
      <trkpt lat="48.61865" lon="2.10221">
        <ele>134.8</ele>
        <time>2026-05-24T11:14:05Z</time>
      </trkpt>
      <trkpt lat="48.61861" lon="2.10224">
        <ele>135</ele>
        <time>2026-05-24T11:14:06Z</time>
      </trkpt>
      <trkpt lat="48.61858" lon="2.10227">
        <ele>135</ele>
        <time>2026-05-24T11:14:07Z</time>
      </trkpt>
      <trkpt lat="48.61854" lon="2.10229">
        <ele>135</ele>
        <time>2026-05-24T11:14:08Z</time>
      </trkpt>
      <trkpt lat="48.61851" lon="2.10232">
        <ele>134.4</ele>
        <time>2026-05-24T11:14:09Z</time>
      </trkpt>
      <trkpt lat="48.61847" lon="2.10235">
        <ele>134.4</ele>
        <time>2026-05-24T11:14:10Z</time>
      </trkpt>
      <trkpt lat="48.61843" lon="2.10238">
        <ele>134.4</ele>
        <time>2026-05-24T11:14:11Z</time>
      </trkpt>
      <trkpt lat="48.61839" lon="2.10241">
        <ele>134.4</ele>
        <time>2026-05-24T11:14:12Z</time>
      </trkpt>
      <trkpt lat="48.61834" lon="2.10244">
        <ele>133.4</ele>
        <time>2026-05-24T11:14:13Z</time>
      </trkpt>
      <trkpt lat="48.61829" lon="2.10247">
        <ele>133</ele>
        <time>2026-05-24T11:14:14Z</time>
      </trkpt>
      <trkpt lat="48.61824" lon="2.1025">
        <ele>133</ele>
        <time>2026-05-24T11:14:15Z</time>
      </trkpt>
      <trkpt lat="48.61819" lon="2.10253">
        <ele>133</ele>
        <time>2026-05-24T11:14:16Z</time>
      </trkpt>
      <trkpt lat="48.61814" lon="2.10256">
        <ele>133</ele>
        <time>2026-05-24T11:14:17Z</time>
      </trkpt>
      <trkpt lat="48.61809" lon="2.10258">
        <ele>133</ele>
        <time>2026-05-24T11:14:18Z</time>
      </trkpt>
      <trkpt lat="48.61804" lon="2.1026">
        <ele>133</ele>
        <time>2026-05-24T11:14:19Z</time>
      </trkpt>
      <trkpt lat="48.61799" lon="2.10262">
        <ele>133</ele>
        <time>2026-05-24T11:14:20Z</time>
      </trkpt>
      <trkpt lat="48.61794" lon="2.10264">
        <ele>133</ele>
        <time>2026-05-24T11:14:21Z</time>
      </trkpt>
      <trkpt lat="48.61788" lon="2.10266">
        <ele>132.4</ele>
        <time>2026-05-24T11:14:22Z</time>
      </trkpt>
      <trkpt lat="48.61783" lon="2.10268">
        <ele>132.4</ele>
        <time>2026-05-24T11:14:23Z</time>
      </trkpt>
      <trkpt lat="48.61778" lon="2.1027">
        <ele>132.4</ele>
        <time>2026-05-24T11:14:24Z</time>
      </trkpt>
      <trkpt lat="48.61772" lon="2.10272">
        <ele>131.8</ele>
        <time>2026-05-24T11:14:25Z</time>
      </trkpt>
      <trkpt lat="48.61767" lon="2.10275">
        <ele>132</ele>
        <time>2026-05-24T11:14:26Z</time>
      </trkpt>
      <trkpt lat="48.61761" lon="2.10277">
        <ele>132</ele>
        <time>2026-05-24T11:14:27Z</time>
      </trkpt>
      <trkpt lat="48.61756" lon="2.1028">
        <ele>132</ele>
        <time>2026-05-24T11:14:28Z</time>
      </trkpt>
      <trkpt lat="48.61751" lon="2.10283">
        <ele>132</ele>
        <time>2026-05-24T11:14:29Z</time>
      </trkpt>
      <trkpt lat="48.61745" lon="2.10286">
        <ele>131.6</ele>
        <time>2026-05-24T11:14:30Z</time>
      </trkpt>
      <trkpt lat="48.61739" lon="2.10289">
        <ele>131.6</ele>
        <time>2026-05-24T11:14:31Z</time>
      </trkpt>
      <trkpt lat="48.61734" lon="2.10292">
        <ele>131.6</ele>
        <time>2026-05-24T11:14:32Z</time>
      </trkpt>
      <trkpt lat="48.61728" lon="2.10295">
        <ele>131.4</ele>
        <time>2026-05-24T11:14:33Z</time>
      </trkpt>
      <trkpt lat="48.61723" lon="2.10298">
        <ele>131.6</ele>
        <time>2026-05-24T11:14:34Z</time>
      </trkpt>
      <trkpt lat="48.61717" lon="2.10301">
        <ele>131.6</ele>
        <time>2026-05-24T11:14:35Z</time>
      </trkpt>
      <trkpt lat="48.61712" lon="2.10304">
        <ele>131.6</ele>
        <time>2026-05-24T11:14:36Z</time>
      </trkpt>
      <trkpt lat="48.61706" lon="2.10306">
        <ele>130.8</ele>
        <time>2026-05-24T11:14:37Z</time>
      </trkpt>
      <trkpt lat="48.61701" lon="2.10309">
        <ele>128.8</ele>
        <time>2026-05-24T11:14:38Z</time>
      </trkpt>
      <trkpt lat="48.61695" lon="2.10312">
        <ele>128.8</ele>
        <time>2026-05-24T11:14:39Z</time>
      </trkpt>
      <trkpt lat="48.6169" lon="2.10314">
        <ele>128.8</ele>
        <time>2026-05-24T11:14:40Z</time>
      </trkpt>
      <trkpt lat="48.61684" lon="2.10317">
        <ele>129.8</ele>
        <time>2026-05-24T11:14:41Z</time>
      </trkpt>
      <trkpt lat="48.61679" lon="2.10319">
        <ele>129.8</ele>
        <time>2026-05-24T11:14:42Z</time>
      </trkpt>
      <trkpt lat="48.61673" lon="2.10322">
        <ele>129.8</ele>
        <time>2026-05-24T11:14:43Z</time>
      </trkpt>
      <trkpt lat="48.61668" lon="2.10325">
        <ele>129.8</ele>
        <time>2026-05-24T11:14:44Z</time>
      </trkpt>
      <trkpt lat="48.61662" lon="2.10328">
        <ele>129.2</ele>
        <time>2026-05-24T11:14:45Z</time>
      </trkpt>
      <trkpt lat="48.61657" lon="2.10331">
        <ele>128.8</ele>
        <time>2026-05-24T11:14:46Z</time>
      </trkpt>
      <trkpt lat="48.61652" lon="2.10333">
        <ele>128.8</ele>
        <time>2026-05-24T11:14:47Z</time>
      </trkpt>
      <trkpt lat="48.61647" lon="2.10333">
        <ele>128.8</ele>
        <time>2026-05-24T11:14:48Z</time>
      </trkpt>
      <trkpt lat="48.61642" lon="2.10331">
        <ele>128.8</ele>
        <time>2026-05-24T11:14:49Z</time>
      </trkpt>
      <trkpt lat="48.61638" lon="2.10327">
        <ele>128.4</ele>
        <time>2026-05-24T11:14:50Z</time>
      </trkpt>
      <trkpt lat="48.61635" lon="2.10322">
        <ele>128.4</ele>
        <time>2026-05-24T11:14:51Z</time>
      </trkpt>
      <trkpt lat="48.61632" lon="2.10317">
        <ele>128.4</ele>
        <time>2026-05-24T11:14:52Z</time>
      </trkpt>
      <trkpt lat="48.6163" lon="2.10312">
        <ele>128.4</ele>
        <time>2026-05-24T11:14:53Z</time>
      </trkpt>
      <trkpt lat="48.61627" lon="2.10307">
        <ele>129.4</ele>
        <time>2026-05-24T11:14:54Z</time>
      </trkpt>
      <trkpt lat="48.61625" lon="2.10302">
        <ele>129.4</ele>
        <time>2026-05-24T11:14:55Z</time>
      </trkpt>
      <trkpt lat="48.61622" lon="2.10297">
        <ele>129.4</ele>
        <time>2026-05-24T11:14:56Z</time>
      </trkpt>
      <trkpt lat="48.6162" lon="2.10293">
        <ele>129.4</ele>
        <time>2026-05-24T11:14:57Z</time>
      </trkpt>
      <trkpt lat="48.61617" lon="2.10289">
        <ele>129.6</ele>
        <time>2026-05-24T11:14:58Z</time>
      </trkpt>
      <trkpt lat="48.61614" lon="2.10285">
        <ele>129.6</ele>
        <time>2026-05-24T11:14:59Z</time>
      </trkpt>
      <trkpt lat="48.61611" lon="2.1028">
        <ele>129.6</ele>
        <time>2026-05-24T11:15:00Z</time>
      </trkpt>
      <trkpt lat="48.61608" lon="2.10276">
        <ele>129.6</ele>
        <time>2026-05-24T11:15:01Z</time>
      </trkpt>
      <trkpt lat="48.61605" lon="2.10272">
        <ele>131.4</ele>
        <time>2026-05-24T11:15:02Z</time>
      </trkpt>
      <trkpt lat="48.61602" lon="2.10267">
        <ele>131.4</ele>
        <time>2026-05-24T11:15:03Z</time>
      </trkpt>
      <trkpt lat="48.61599" lon="2.10263">
        <ele>131.4</ele>
        <time>2026-05-24T11:15:04Z</time>
      </trkpt>
      <trkpt lat="48.61596" lon="2.10258">
        <ele>130.4</ele>
        <time>2026-05-24T11:15:05Z</time>
      </trkpt>
      <trkpt lat="48.61593" lon="2.10254">
        <ele>129.8</ele>
        <time>2026-05-24T11:15:06Z</time>
      </trkpt>
      <trkpt lat="48.6159" lon="2.1025">
        <ele>129.8</ele>
        <time>2026-05-24T11:15:07Z</time>
      </trkpt>
      <trkpt lat="48.61587" lon="2.10246">
        <ele>129.8</ele>
        <time>2026-05-24T11:15:08Z</time>
      </trkpt>
      <trkpt lat="48.61584" lon="2.10241">
        <ele>129.2</ele>
        <time>2026-05-24T11:15:09Z</time>
      </trkpt>
      <trkpt lat="48.61581" lon="2.10237">
        <ele>130</ele>
        <time>2026-05-24T11:15:10Z</time>
      </trkpt>
      <trkpt lat="48.61578" lon="2.10233">
        <ele>130</ele>
        <time>2026-05-24T11:15:11Z</time>
      </trkpt>
      <trkpt lat="48.61575" lon="2.10229">
        <ele>130</ele>
        <time>2026-05-24T11:15:12Z</time>
      </trkpt>
      <trkpt lat="48.61572" lon="2.10225">
        <ele>130</ele>
        <time>2026-05-24T11:15:13Z</time>
      </trkpt>
      <trkpt lat="48.6157" lon="2.10221">
        <ele>130.2</ele>
        <time>2026-05-24T11:15:14Z</time>
      </trkpt>
      <trkpt lat="48.61567" lon="2.10217">
        <ele>130.2</ele>
        <time>2026-05-24T11:15:15Z</time>
      </trkpt>
      <trkpt lat="48.61564" lon="2.10213">
        <ele>130.2</ele>
        <time>2026-05-24T11:15:16Z</time>
      </trkpt>
      <trkpt lat="48.61562" lon="2.10209">
        <ele>130.2</ele>
        <time>2026-05-24T11:15:17Z</time>
      </trkpt>
      <trkpt lat="48.61559" lon="2.10205">
        <ele>130</ele>
        <time>2026-05-24T11:15:18Z</time>
      </trkpt>
      <trkpt lat="48.61557" lon="2.102">
        <ele>130</ele>
        <time>2026-05-24T11:15:19Z</time>
      </trkpt>
      <trkpt lat="48.61557" lon="2.10194">
        <ele>130</ele>
        <time>2026-05-24T11:15:20Z</time>
      </trkpt>
      <trkpt lat="48.61557" lon="2.10189">
        <ele>130.6</ele>
        <time>2026-05-24T11:15:21Z</time>
      </trkpt>
      <trkpt lat="48.61558" lon="2.10183">
        <ele>130.2</ele>
        <time>2026-05-24T11:15:22Z</time>
      </trkpt>
      <trkpt lat="48.61559" lon="2.10178">
        <ele>130.2</ele>
        <time>2026-05-24T11:15:23Z</time>
      </trkpt>
      <trkpt lat="48.6156" lon="2.10172">
        <ele>130.2</ele>
        <time>2026-05-24T11:15:24Z</time>
      </trkpt>
      <trkpt lat="48.61561" lon="2.10167">
        <ele>130.2</ele>
        <time>2026-05-24T11:15:25Z</time>
      </trkpt>
      <trkpt lat="48.61562" lon="2.10161">
        <ele>130.4</ele>
        <time>2026-05-24T11:15:26Z</time>
      </trkpt>
      <trkpt lat="48.61562" lon="2.10155">
        <ele>130.4</ele>
        <time>2026-05-24T11:15:27Z</time>
      </trkpt>
      <trkpt lat="48.61563" lon="2.10149">
        <ele>130.4</ele>
        <time>2026-05-24T11:15:28Z</time>
      </trkpt>
      <trkpt lat="48.61564" lon="2.10144">
        <ele>130.4</ele>
        <time>2026-05-24T11:15:29Z</time>
      </trkpt>
      <trkpt lat="48.61565" lon="2.10138">
        <ele>130.4</ele>
        <time>2026-05-24T11:15:30Z</time>
      </trkpt>
      <trkpt lat="48.61566" lon="2.10132">
        <ele>130.4</ele>
        <time>2026-05-24T11:15:31Z</time>
      </trkpt>
      <trkpt lat="48.61566" lon="2.10126">
        <ele>130.4</ele>
        <time>2026-05-24T11:15:32Z</time>
      </trkpt>
      <trkpt lat="48.61567" lon="2.1012">
        <ele>131</ele>
        <time>2026-05-24T11:15:33Z</time>
      </trkpt>
      <trkpt lat="48.61568" lon="2.10115">
        <ele>131</ele>
        <time>2026-05-24T11:15:34Z</time>
      </trkpt>
      <trkpt lat="48.61568" lon="2.10109">
        <ele>131</ele>
        <time>2026-05-24T11:15:35Z</time>
      </trkpt>
      <trkpt lat="48.61569" lon="2.10103">
        <ele>131</ele>
        <time>2026-05-24T11:15:36Z</time>
      </trkpt>
      <trkpt lat="48.6157" lon="2.10098">
        <ele>131.8</ele>
        <time>2026-05-24T11:15:37Z</time>
      </trkpt>
      <trkpt lat="48.61571" lon="2.10092">
        <ele>131.6</ele>
        <time>2026-05-24T11:15:38Z</time>
      </trkpt>
      <trkpt lat="48.61571" lon="2.10087">
        <ele>131.6</ele>
        <time>2026-05-24T11:15:39Z</time>
      </trkpt>
      <trkpt lat="48.61572" lon="2.10082">
        <ele>131.6</ele>
        <time>2026-05-24T11:15:40Z</time>
      </trkpt>
      <trkpt lat="48.61572" lon="2.10077">
        <ele>131.6</ele>
        <time>2026-05-24T11:15:41Z</time>
      </trkpt>
      <trkpt lat="48.61573" lon="2.10072">
        <ele>132.2</ele>
        <time>2026-05-24T11:15:42Z</time>
      </trkpt>
      <trkpt lat="48.61573" lon="2.10066">
        <ele>132.2</ele>
        <time>2026-05-24T11:15:43Z</time>
      </trkpt>
      <trkpt lat="48.61574" lon="2.10061">
        <ele>132.2</ele>
        <time>2026-05-24T11:15:44Z</time>
      </trkpt>
      <trkpt lat="48.61574" lon="2.10056">
        <ele>131.8</ele>
        <time>2026-05-24T11:15:45Z</time>
      </trkpt>
      <trkpt lat="48.61575" lon="2.10051">
        <ele>132.2</ele>
        <time>2026-05-24T11:15:46Z</time>
      </trkpt>
      <trkpt lat="48.61575" lon="2.10046">
        <ele>132.2</ele>
        <time>2026-05-24T11:15:47Z</time>
      </trkpt>
      <trkpt lat="48.61576" lon="2.1004">
        <ele>132.2</ele>
        <time>2026-05-24T11:15:48Z</time>
      </trkpt>
      <trkpt lat="48.61576" lon="2.10035">
        <ele>132.2</ele>
        <time>2026-05-24T11:15:49Z</time>
      </trkpt>
      <trkpt lat="48.61576" lon="2.1003">
        <ele>132</ele>
        <time>2026-05-24T11:15:50Z</time>
      </trkpt>
      <trkpt lat="48.61577" lon="2.10025">
        <ele>132</ele>
        <time>2026-05-24T11:15:51Z</time>
      </trkpt>
      <trkpt lat="48.61577" lon="2.1002">
        <ele>132</ele>
        <time>2026-05-24T11:15:52Z</time>
      </trkpt>
      <trkpt lat="48.61578" lon="2.10015">
        <ele>133</ele>
        <time>2026-05-24T11:15:53Z</time>
      </trkpt>
      <trkpt lat="48.61578" lon="2.1001">
        <ele>132.8</ele>
        <time>2026-05-24T11:15:54Z</time>
      </trkpt>
      <trkpt lat="48.61578" lon="2.10004">
        <ele>132.8</ele>
        <time>2026-05-24T11:15:55Z</time>
      </trkpt>
      <trkpt lat="48.61579" lon="2.09999">
        <ele>132.8</ele>
        <time>2026-05-24T11:15:56Z</time>
      </trkpt>
      <trkpt lat="48.61579" lon="2.09994">
        <ele>133.2</ele>
        <time>2026-05-24T11:15:57Z</time>
      </trkpt>
      <trkpt lat="48.61579" lon="2.09989">
        <ele>134</ele>
        <time>2026-05-24T11:15:58Z</time>
      </trkpt>
      <trkpt lat="48.61579" lon="2.09984">
        <ele>134</ele>
        <time>2026-05-24T11:15:59Z</time>
      </trkpt>
      <trkpt lat="48.61579" lon="2.09979">
        <ele>134</ele>
        <time>2026-05-24T11:16:00Z</time>
      </trkpt>
      <trkpt lat="48.61579" lon="2.09974">
        <ele>133.6</ele>
        <time>2026-05-24T11:16:01Z</time>
      </trkpt>
      <trkpt lat="48.61579" lon="2.09969">
        <ele>134.2</ele>
        <time>2026-05-24T11:16:02Z</time>
      </trkpt>
      <trkpt lat="48.6158" lon="2.09964">
        <ele>134.2</ele>
        <time>2026-05-24T11:16:03Z</time>
      </trkpt>
      <trkpt lat="48.6158" lon="2.09959">
        <ele>134.2</ele>
        <time>2026-05-24T11:16:04Z</time>
      </trkpt>
      <trkpt lat="48.6158" lon="2.09954">
        <ele>134</ele>
        <time>2026-05-24T11:16:05Z</time>
      </trkpt>
      <trkpt lat="48.6158" lon="2.09949">
        <ele>133.8</ele>
        <time>2026-05-24T11:16:06Z</time>
      </trkpt>
      <trkpt lat="48.61581" lon="2.09944">
        <ele>133.8</ele>
        <time>2026-05-24T11:16:07Z</time>
      </trkpt>
      <trkpt lat="48.61581" lon="2.09939">
        <ele>133.8</ele>
        <time>2026-05-24T11:16:08Z</time>
      </trkpt>
      <trkpt lat="48.61581" lon="2.09934">
        <ele>134.8</ele>
        <time>2026-05-24T11:16:09Z</time>
      </trkpt>
      <trkpt lat="48.61581" lon="2.09929">
        <ele>136</ele>
        <time>2026-05-24T11:16:10Z</time>
      </trkpt>
      <trkpt lat="48.61581" lon="2.09924">
        <ele>136</ele>
        <time>2026-05-24T11:16:11Z</time>
      </trkpt>
      <trkpt lat="48.61581" lon="2.09919">
        <ele>136</ele>
        <time>2026-05-24T11:16:12Z</time>
      </trkpt>
      <trkpt lat="48.61581" lon="2.09914">
        <ele>135</ele>
        <time>2026-05-24T11:16:13Z</time>
      </trkpt>
      <trkpt lat="48.61581" lon="2.09909">
        <ele>135.2</ele>
        <time>2026-05-24T11:16:14Z</time>
      </trkpt>
      <trkpt lat="48.6158" lon="2.09904">
        <ele>135.2</ele>
        <time>2026-05-24T11:16:15Z</time>
      </trkpt>
      <trkpt lat="48.6158" lon="2.09898">
        <ele>135.2</ele>
        <time>2026-05-24T11:16:16Z</time>
      </trkpt>
      <trkpt lat="48.6158" lon="2.09893">
        <ele>135.2</ele>
        <time>2026-05-24T11:16:17Z</time>
      </trkpt>
      <trkpt lat="48.6158" lon="2.09888">
        <ele>135</ele>
        <time>2026-05-24T11:16:18Z</time>
      </trkpt>
      <trkpt lat="48.6158" lon="2.09883">
        <ele>135</ele>
        <time>2026-05-24T11:16:19Z</time>
      </trkpt>
      <trkpt lat="48.6158" lon="2.09878">
        <ele>135</ele>
        <time>2026-05-24T11:16:20Z</time>
      </trkpt>
      <trkpt lat="48.6158" lon="2.09873">
        <ele>136</ele>
        <time>2026-05-24T11:16:21Z</time>
      </trkpt>
      <trkpt lat="48.6158" lon="2.09868">
        <ele>135.8</ele>
        <time>2026-05-24T11:16:22Z</time>
      </trkpt>
      <trkpt lat="48.6158" lon="2.09863">
        <ele>135.8</ele>
        <time>2026-05-24T11:16:23Z</time>
      </trkpt>
      <trkpt lat="48.61579" lon="2.09858">
        <ele>135.8</ele>
        <time>2026-05-24T11:16:24Z</time>
      </trkpt>
      <trkpt lat="48.61579" lon="2.09853">
        <ele>135.8</ele>
        <time>2026-05-24T11:16:25Z</time>
      </trkpt>
      <trkpt lat="48.61579" lon="2.09849">
        <ele>137</ele>
        <time>2026-05-24T11:16:26Z</time>
      </trkpt>
      <trkpt lat="48.61579" lon="2.09844">
        <ele>137</ele>
        <time>2026-05-24T11:16:27Z</time>
      </trkpt>
      <trkpt lat="48.61579" lon="2.09839">
        <ele>137</ele>
        <time>2026-05-24T11:16:28Z</time>
      </trkpt>
      <trkpt lat="48.61579" lon="2.09834">
        <ele>136.8</ele>
        <time>2026-05-24T11:16:29Z</time>
      </trkpt>
      <trkpt lat="48.61579" lon="2.09829">
        <ele>136.6</ele>
        <time>2026-05-24T11:16:30Z</time>
      </trkpt>
      <trkpt lat="48.61578" lon="2.09824">
        <ele>136.6</ele>
        <time>2026-05-24T11:16:31Z</time>
      </trkpt>
      <trkpt lat="48.61578" lon="2.09819">
        <ele>136.6</ele>
        <time>2026-05-24T11:16:32Z</time>
      </trkpt>
      <trkpt lat="48.61578" lon="2.09814">
        <ele>136.8</ele>
        <time>2026-05-24T11:16:33Z</time>
      </trkpt>
      <trkpt lat="48.61578" lon="2.09809">
        <ele>137</ele>
        <time>2026-05-24T11:16:34Z</time>
      </trkpt>
      <trkpt lat="48.61578" lon="2.09804">
        <ele>137</ele>
        <time>2026-05-24T11:16:35Z</time>
      </trkpt>
      <trkpt lat="48.61577" lon="2.09799">
        <ele>137</ele>
        <time>2026-05-24T11:16:36Z</time>
      </trkpt>
      <trkpt lat="48.61577" lon="2.09794">
        <ele>138</ele>
        <time>2026-05-24T11:16:37Z</time>
      </trkpt>
      <trkpt lat="48.61577" lon="2.09789">
        <ele>138.4</ele>
        <time>2026-05-24T11:16:38Z</time>
      </trkpt>
      <trkpt lat="48.61576" lon="2.09784">
        <ele>138.4</ele>
        <time>2026-05-24T11:16:39Z</time>
      </trkpt>
      <trkpt lat="48.61576" lon="2.0978">
        <ele>138.4</ele>
        <time>2026-05-24T11:16:40Z</time>
      </trkpt>
      <trkpt lat="48.61575" lon="2.09775">
        <ele>137.4</ele>
        <time>2026-05-24T11:16:41Z</time>
      </trkpt>
      <trkpt lat="48.61575" lon="2.0977">
        <ele>138.6</ele>
        <time>2026-05-24T11:16:42Z</time>
      </trkpt>
      <trkpt lat="48.61575" lon="2.09765">
        <ele>138.6</ele>
        <time>2026-05-24T11:16:43Z</time>
      </trkpt>
      <trkpt lat="48.61574" lon="2.0976">
        <ele>138.6</ele>
        <time>2026-05-24T11:16:44Z</time>
      </trkpt>
      <trkpt lat="48.61574" lon="2.09755">
        <ele>138.6</ele>
        <time>2026-05-24T11:16:45Z</time>
      </trkpt>
      <trkpt lat="48.61573" lon="2.0975">
        <ele>138.4</ele>
        <time>2026-05-24T11:16:46Z</time>
      </trkpt>
      <trkpt lat="48.61572" lon="2.09745">
        <ele>138.4</ele>
        <time>2026-05-24T11:16:47Z</time>
      </trkpt>
      <trkpt lat="48.61572" lon="2.0974">
        <ele>138.4</ele>
        <time>2026-05-24T11:16:48Z</time>
      </trkpt>
      <trkpt lat="48.61571" lon="2.09735">
        <ele>139.4</ele>
        <time>2026-05-24T11:16:49Z</time>
      </trkpt>
      <trkpt lat="48.61571" lon="2.0973">
        <ele>139.2</ele>
        <time>2026-05-24T11:16:50Z</time>
      </trkpt>
      <trkpt lat="48.6157" lon="2.09725">
        <ele>139.2</ele>
        <time>2026-05-24T11:16:51Z</time>
      </trkpt>
      <trkpt lat="48.61569" lon="2.0972">
        <ele>139.2</ele>
        <time>2026-05-24T11:16:52Z</time>
      </trkpt>
      <trkpt lat="48.61568" lon="2.09715">
        <ele>139.2</ele>
        <time>2026-05-24T11:16:53Z</time>
      </trkpt>
      <trkpt lat="48.61568" lon="2.0971">
        <ele>140.2</ele>
        <time>2026-05-24T11:16:54Z</time>
      </trkpt>
      <trkpt lat="48.61567" lon="2.09705">
        <ele>140.2</ele>
        <time>2026-05-24T11:16:55Z</time>
      </trkpt>
      <trkpt lat="48.61566" lon="2.097">
        <ele>140.2</ele>
        <time>2026-05-24T11:16:56Z</time>
      </trkpt>
      <trkpt lat="48.61565" lon="2.09695">
        <ele>139.6</ele>
        <time>2026-05-24T11:16:57Z</time>
      </trkpt>
      <trkpt lat="48.61564" lon="2.0969">
        <ele>139.6</ele>
        <time>2026-05-24T11:16:58Z</time>
      </trkpt>
      <trkpt lat="48.61563" lon="2.09685">
        <ele>139.6</ele>
        <time>2026-05-24T11:16:59Z</time>
      </trkpt>
      <trkpt lat="48.61562" lon="2.0968">
        <ele>139.6</ele>
        <time>2026-05-24T11:17:00Z</time>
      </trkpt>
      <trkpt lat="48.61561" lon="2.09675">
        <ele>139.6</ele>
        <time>2026-05-24T11:17:01Z</time>
      </trkpt>
      <trkpt lat="48.6156" lon="2.0967">
        <ele>139.6</ele>
        <time>2026-05-24T11:17:02Z</time>
      </trkpt>
      <trkpt lat="48.6156" lon="2.09665">
        <ele>139.6</ele>
        <time>2026-05-24T11:17:03Z</time>
      </trkpt>
      <trkpt lat="48.61559" lon="2.0966">
        <ele>139.6</ele>
        <time>2026-05-24T11:17:04Z</time>
      </trkpt>
      <trkpt lat="48.61558" lon="2.09655">
        <ele>139.6</ele>
        <time>2026-05-24T11:17:05Z</time>
      </trkpt>
      <trkpt lat="48.61557" lon="2.0965">
        <ele>139.8</ele>
        <time>2026-05-24T11:17:06Z</time>
      </trkpt>
      <trkpt lat="48.61556" lon="2.09644">
        <ele>139.8</ele>
        <time>2026-05-24T11:17:07Z</time>
      </trkpt>
      <trkpt lat="48.61555" lon="2.09639">
        <ele>139.8</ele>
        <time>2026-05-24T11:17:08Z</time>
      </trkpt>
      <trkpt lat="48.61553" lon="2.09635">
        <ele>139.8</ele>
        <time>2026-05-24T11:17:09Z</time>
      </trkpt>
      <trkpt lat="48.61552" lon="2.0963">
        <ele>141.2</ele>
        <time>2026-05-24T11:17:10Z</time>
      </trkpt>
      <trkpt lat="48.61551" lon="2.09625">
        <ele>141.2</ele>
        <time>2026-05-24T11:17:11Z</time>
      </trkpt>
      <trkpt lat="48.6155" lon="2.0962">
        <ele>141.2</ele>
        <time>2026-05-24T11:17:12Z</time>
      </trkpt>
      <trkpt lat="48.61549" lon="2.09615">
        <ele>140.6</ele>
        <time>2026-05-24T11:17:13Z</time>
      </trkpt>
      <trkpt lat="48.61548" lon="2.0961">
        <ele>140.4</ele>
        <time>2026-05-24T11:17:14Z</time>
      </trkpt>
      <trkpt lat="48.61547" lon="2.09605">
        <ele>140.4</ele>
        <time>2026-05-24T11:17:15Z</time>
      </trkpt>
      <trkpt lat="48.61546" lon="2.096">
        <ele>140.4</ele>
        <time>2026-05-24T11:17:16Z</time>
      </trkpt>
      <trkpt lat="48.61545" lon="2.09595">
        <ele>141</ele>
        <time>2026-05-24T11:17:17Z</time>
      </trkpt>
      <trkpt lat="48.61543" lon="2.0959">
        <ele>141.4</ele>
        <time>2026-05-24T11:17:18Z</time>
      </trkpt>
      <trkpt lat="48.61542" lon="2.09585">
        <ele>141.4</ele>
        <time>2026-05-24T11:17:19Z</time>
      </trkpt>
      <trkpt lat="48.61541" lon="2.0958">
        <ele>141.4</ele>
        <time>2026-05-24T11:17:20Z</time>
      </trkpt>
      <trkpt lat="48.6154" lon="2.09575">
        <ele>141.4</ele>
        <time>2026-05-24T11:17:21Z</time>
      </trkpt>
      <trkpt lat="48.61539" lon="2.0957">
        <ele>141.4</ele>
        <time>2026-05-24T11:17:22Z</time>
      </trkpt>
      <trkpt lat="48.61538" lon="2.09565">
        <ele>141.4</ele>
        <time>2026-05-24T11:17:23Z</time>
      </trkpt>
      <trkpt lat="48.61536" lon="2.0956">
        <ele>141.4</ele>
        <time>2026-05-24T11:17:24Z</time>
      </trkpt>
      <trkpt lat="48.61535" lon="2.09555">
        <ele>141.4</ele>
        <time>2026-05-24T11:17:25Z</time>
      </trkpt>
      <trkpt lat="48.61534" lon="2.0955">
        <ele>141.6</ele>
        <time>2026-05-24T11:17:26Z</time>
      </trkpt>
      <trkpt lat="48.61533" lon="2.09545">
        <ele>141.6</ele>
        <time>2026-05-24T11:17:27Z</time>
      </trkpt>
      <trkpt lat="48.61532" lon="2.0954">
        <ele>141.6</ele>
        <time>2026-05-24T11:17:28Z</time>
      </trkpt>
      <trkpt lat="48.61531" lon="2.09535">
        <ele>141.6</ele>
        <time>2026-05-24T11:17:29Z</time>
      </trkpt>
      <trkpt lat="48.6153" lon="2.0953">
        <ele>141.6</ele>
        <time>2026-05-24T11:17:30Z</time>
      </trkpt>
      <trkpt lat="48.61528" lon="2.09525">
        <ele>141.6</ele>
        <time>2026-05-24T11:17:31Z</time>
      </trkpt>
      <trkpt lat="48.61527" lon="2.0952">
        <ele>141.6</ele>
        <time>2026-05-24T11:17:32Z</time>
      </trkpt>
      <trkpt lat="48.61526" lon="2.09515">
        <ele>141.6</ele>
        <time>2026-05-24T11:17:33Z</time>
      </trkpt>
      <trkpt lat="48.61525" lon="2.0951">
        <ele>142.6</ele>
        <time>2026-05-24T11:17:34Z</time>
      </trkpt>
      <trkpt lat="48.61523" lon="2.09505">
        <ele>142.6</ele>
        <time>2026-05-24T11:17:35Z</time>
      </trkpt>
      <trkpt lat="48.61522" lon="2.095">
        <ele>142.6</ele>
        <time>2026-05-24T11:17:36Z</time>
      </trkpt>
      <trkpt lat="48.61521" lon="2.09495">
        <ele>142.6</ele>
        <time>2026-05-24T11:17:37Z</time>
      </trkpt>
      <trkpt lat="48.6152" lon="2.0949">
        <ele>142.2</ele>
        <time>2026-05-24T11:17:38Z</time>
      </trkpt>
      <trkpt lat="48.61519" lon="2.09485">
        <ele>142.2</ele>
        <time>2026-05-24T11:17:39Z</time>
      </trkpt>
      <trkpt lat="48.61517" lon="2.0948">
        <ele>142.2</ele>
        <time>2026-05-24T11:17:40Z</time>
      </trkpt>
      <trkpt lat="48.61516" lon="2.09475">
        <ele>143.2</ele>
        <time>2026-05-24T11:17:41Z</time>
      </trkpt>
      <trkpt lat="48.61515" lon="2.0947">
        <ele>141.8</ele>
        <time>2026-05-24T11:17:42Z</time>
      </trkpt>
      <trkpt lat="48.61514" lon="2.09465">
        <ele>141.8</ele>
        <time>2026-05-24T11:17:43Z</time>
      </trkpt>
      <trkpt lat="48.61513" lon="2.0946">
        <ele>141.8</ele>
        <time>2026-05-24T11:17:44Z</time>
      </trkpt>
      <trkpt lat="48.61512" lon="2.09455">
        <ele>142.8</ele>
        <time>2026-05-24T11:17:45Z</time>
      </trkpt>
      <trkpt lat="48.61511" lon="2.0945">
        <ele>143</ele>
        <time>2026-05-24T11:17:46Z</time>
      </trkpt>
      <trkpt lat="48.6151" lon="2.09445">
        <ele>143</ele>
        <time>2026-05-24T11:17:47Z</time>
      </trkpt>
      <trkpt lat="48.61509" lon="2.0944">
        <ele>143</ele>
        <time>2026-05-24T11:17:48Z</time>
      </trkpt>
      <trkpt lat="48.61508" lon="2.09436">
        <ele>143.2</ele>
        <time>2026-05-24T11:17:49Z</time>
      </trkpt>
      <trkpt lat="48.61507" lon="2.09431">
        <ele>144.6</ele>
        <time>2026-05-24T11:17:50Z</time>
      </trkpt>
      <trkpt lat="48.61506" lon="2.09426">
        <ele>144.6</ele>
        <time>2026-05-24T11:17:51Z</time>
      </trkpt>
      <trkpt lat="48.61504" lon="2.09422">
        <ele>144.6</ele>
        <time>2026-05-24T11:17:52Z</time>
      </trkpt>
      <trkpt lat="48.61503" lon="2.09417">
        <ele>143.8</ele>
        <time>2026-05-24T11:17:53Z</time>
      </trkpt>
      <trkpt lat="48.61502" lon="2.09412">
        <ele>144</ele>
        <time>2026-05-24T11:17:54Z</time>
      </trkpt>
      <trkpt lat="48.61501" lon="2.09407">
        <ele>144</ele>
        <time>2026-05-24T11:17:55Z</time>
      </trkpt>
      <trkpt lat="48.615" lon="2.09402">
        <ele>144</ele>
        <time>2026-05-24T11:17:56Z</time>
      </trkpt>
      <trkpt lat="48.61499" lon="2.09397">
        <ele>144</ele>
        <time>2026-05-24T11:17:57Z</time>
      </trkpt>
      <trkpt lat="48.61497" lon="2.09392">
        <ele>145</ele>
        <time>2026-05-24T11:17:58Z</time>
      </trkpt>
      <trkpt lat="48.61496" lon="2.09387">
        <ele>145</ele>
        <time>2026-05-24T11:17:59Z</time>
      </trkpt>
      <trkpt lat="48.61495" lon="2.09383">
        <ele>145</ele>
        <time>2026-05-24T11:18:00Z</time>
      </trkpt>
      <trkpt lat="48.61494" lon="2.09378">
        <ele>145</ele>
        <time>2026-05-24T11:18:01Z</time>
      </trkpt>
      <trkpt lat="48.61493" lon="2.09373">
        <ele>144.2</ele>
        <time>2026-05-24T11:18:02Z</time>
      </trkpt>
      <trkpt lat="48.61492" lon="2.09368">
        <ele>144.2</ele>
        <time>2026-05-24T11:18:03Z</time>
      </trkpt>
      <trkpt lat="48.61491" lon="2.09363">
        <ele>144.2</ele>
        <time>2026-05-24T11:18:04Z</time>
      </trkpt>
      <trkpt lat="48.6149" lon="2.09358">
        <ele>144.8</ele>
        <time>2026-05-24T11:18:05Z</time>
      </trkpt>
      <trkpt lat="48.61489" lon="2.09353">
        <ele>144.6</ele>
        <time>2026-05-24T11:18:06Z</time>
      </trkpt>
      <trkpt lat="48.61488" lon="2.09348">
        <ele>144.6</ele>
        <time>2026-05-24T11:18:07Z</time>
      </trkpt>
      <trkpt lat="48.61487" lon="2.09343">
        <ele>144.6</ele>
        <time>2026-05-24T11:18:08Z</time>
      </trkpt>
      <trkpt lat="48.61486" lon="2.09338">
        <ele>144.6</ele>
        <time>2026-05-24T11:18:09Z</time>
      </trkpt>
      <trkpt lat="48.61485" lon="2.09333">
        <ele>145</ele>
        <time>2026-05-24T11:18:10Z</time>
      </trkpt>
      <trkpt lat="48.61484" lon="2.09328">
        <ele>145</ele>
        <time>2026-05-24T11:18:11Z</time>
      </trkpt>
      <trkpt lat="48.61483" lon="2.09323">
        <ele>145</ele>
        <time>2026-05-24T11:18:12Z</time>
      </trkpt>
      <trkpt lat="48.61482" lon="2.09318">
        <ele>145</ele>
        <time>2026-05-24T11:18:13Z</time>
      </trkpt>
      <trkpt lat="48.61481" lon="2.09313">
        <ele>145.8</ele>
        <time>2026-05-24T11:18:14Z</time>
      </trkpt>
      <trkpt lat="48.6148" lon="2.09308">
        <ele>145.8</ele>
        <time>2026-05-24T11:18:15Z</time>
      </trkpt>
      <trkpt lat="48.61479" lon="2.09303">
        <ele>145.8</ele>
        <time>2026-05-24T11:18:16Z</time>
      </trkpt>
      <trkpt lat="48.61478" lon="2.09298">
        <ele>145.8</ele>
        <time>2026-05-24T11:18:17Z</time>
      </trkpt>
      <trkpt lat="48.61477" lon="2.09293">
        <ele>145.6</ele>
        <time>2026-05-24T11:18:18Z</time>
      </trkpt>
      <trkpt lat="48.61476" lon="2.09287">
        <ele>145.6</ele>
        <time>2026-05-24T11:18:19Z</time>
      </trkpt>
      <trkpt lat="48.61475" lon="2.09282">
        <ele>145.6</ele>
        <time>2026-05-24T11:18:20Z</time>
      </trkpt>
      <trkpt lat="48.61474" lon="2.09277">
        <ele>145.6</ele>
        <time>2026-05-24T11:18:21Z</time>
      </trkpt>
      <trkpt lat="48.61473" lon="2.09272">
        <ele>146</ele>
        <time>2026-05-24T11:18:22Z</time>
      </trkpt>
      <trkpt lat="48.61472" lon="2.09267">
        <ele>146</ele>
        <time>2026-05-24T11:18:23Z</time>
      </trkpt>
      <trkpt lat="48.61471" lon="2.09262">
        <ele>146</ele>
        <time>2026-05-24T11:18:24Z</time>
      </trkpt>
      <trkpt lat="48.6147" lon="2.09257">
        <ele>146</ele>
        <time>2026-05-24T11:18:25Z</time>
      </trkpt>
      <trkpt lat="48.6147" lon="2.09252">
        <ele>146</ele>
        <time>2026-05-24T11:18:26Z</time>
      </trkpt>
      <trkpt lat="48.61469" lon="2.09247">
        <ele>146</ele>
        <time>2026-05-24T11:18:27Z</time>
      </trkpt>
      <trkpt lat="48.61468" lon="2.09242">
        <ele>146</ele>
        <time>2026-05-24T11:18:28Z</time>
      </trkpt>
      <trkpt lat="48.61467" lon="2.09237">
        <ele>146</ele>
        <time>2026-05-24T11:18:29Z</time>
      </trkpt>
      <trkpt lat="48.61466" lon="2.09232">
        <ele>146.4</ele>
        <time>2026-05-24T11:18:30Z</time>
      </trkpt>
      <trkpt lat="48.61465" lon="2.09227">
        <ele>146.4</ele>
        <time>2026-05-24T11:18:31Z</time>
      </trkpt>
      <trkpt lat="48.61464" lon="2.09222">
        <ele>146.4</ele>
        <time>2026-05-24T11:18:32Z</time>
      </trkpt>
      <trkpt lat="48.61464" lon="2.09217">
        <ele>146.4</ele>
        <time>2026-05-24T11:18:33Z</time>
      </trkpt>
      <trkpt lat="48.61463" lon="2.09212">
        <ele>147</ele>
        <time>2026-05-24T11:18:34Z</time>
      </trkpt>
      <trkpt lat="48.61462" lon="2.09208">
        <ele>147</ele>
        <time>2026-05-24T11:18:35Z</time>
      </trkpt>
      <trkpt lat="48.61461" lon="2.09203">
        <ele>147</ele>
        <time>2026-05-24T11:18:36Z</time>
      </trkpt>
      <trkpt lat="48.61459" lon="2.092">
        <ele>147</ele>
        <time>2026-05-24T11:18:37Z</time>
      </trkpt>
      <trkpt lat="48.61457" lon="2.09196">
        <ele>147</ele>
        <time>2026-05-24T11:18:38Z</time>
      </trkpt>
      <trkpt lat="48.61455" lon="2.09194">
        <ele>147</ele>
        <time>2026-05-24T11:18:39Z</time>
      </trkpt>
      <trkpt lat="48.61452" lon="2.09193">
        <ele>147</ele>
        <time>2026-05-24T11:18:40Z</time>
      </trkpt>
      <trkpt lat="48.61449" lon="2.09193">
        <ele>148</ele>
        <time>2026-05-24T11:18:41Z</time>
      </trkpt>
      <trkpt lat="48.61445" lon="2.09192">
        <ele>147.8</ele>
        <time>2026-05-24T11:18:42Z</time>
      </trkpt>
      <trkpt lat="48.61442" lon="2.09192">
        <ele>147.8</ele>
        <time>2026-05-24T11:18:43Z</time>
      </trkpt>
      <trkpt lat="48.61438" lon="2.09192">
        <ele>147.8</ele>
        <time>2026-05-24T11:18:44Z</time>
      </trkpt>
      <trkpt lat="48.61434" lon="2.09193">
        <ele>147.8</ele>
        <time>2026-05-24T11:18:45Z</time>
      </trkpt>
      <trkpt lat="48.61431" lon="2.09193">
        <ele>147.4</ele>
        <time>2026-05-24T11:18:46Z</time>
      </trkpt>
      <trkpt lat="48.61427" lon="2.09194">
        <ele>147.4</ele>
        <time>2026-05-24T11:18:47Z</time>
      </trkpt>
      <trkpt lat="48.61423" lon="2.09195">
        <ele>147.4</ele>
        <time>2026-05-24T11:18:48Z</time>
      </trkpt>
      <trkpt lat="48.61419" lon="2.09196">
        <ele>147.4</ele>
        <time>2026-05-24T11:18:49Z</time>
      </trkpt>
      <trkpt lat="48.61415" lon="2.09197">
        <ele>146.6</ele>
        <time>2026-05-24T11:18:50Z</time>
      </trkpt>
      <trkpt lat="48.61411" lon="2.09199">
        <ele>146.6</ele>
        <time>2026-05-24T11:18:51Z</time>
      </trkpt>
      <trkpt lat="48.61407" lon="2.092">
        <ele>146.6</ele>
        <time>2026-05-24T11:18:52Z</time>
      </trkpt>
      <trkpt lat="48.61402" lon="2.09202">
        <ele>146.6</ele>
        <time>2026-05-24T11:18:53Z</time>
      </trkpt>
      <trkpt lat="48.61398" lon="2.09204">
        <ele>146.8</ele>
        <time>2026-05-24T11:18:54Z</time>
      </trkpt>
      <trkpt lat="48.61394" lon="2.09207">
        <ele>146.8</ele>
        <time>2026-05-24T11:18:55Z</time>
      </trkpt>
      <trkpt lat="48.61389" lon="2.09209">
        <ele>146.8</ele>
        <time>2026-05-24T11:18:56Z</time>
      </trkpt>
      <trkpt lat="48.61384" lon="2.09211">
        <ele>146</ele>
        <time>2026-05-24T11:18:57Z</time>
      </trkpt>
      <trkpt lat="48.61379" lon="2.0921">
        <ele>146.6</ele>
        <time>2026-05-24T11:18:58Z</time>
      </trkpt>
      <trkpt lat="48.61375" lon="2.09207">
        <ele>146.6</ele>
        <time>2026-05-24T11:18:59Z</time>
      </trkpt>
      <trkpt lat="48.61371" lon="2.09203">
        <ele>146.6</ele>
        <time>2026-05-24T11:19:00Z</time>
      </trkpt>
      <trkpt lat="48.61369" lon="2.09198">
        <ele>146.2</ele>
        <time>2026-05-24T11:19:01Z</time>
      </trkpt>
      <trkpt lat="48.61367" lon="2.09194">
        <ele>147.4</ele>
        <time>2026-05-24T11:19:02Z</time>
      </trkpt>
      <trkpt lat="48.61367" lon="2.09189">
        <ele>147.4</ele>
        <time>2026-05-24T11:19:03Z</time>
      </trkpt>
      <trkpt lat="48.61366" lon="2.09185">
        <ele>147.4</ele>
        <time>2026-05-24T11:19:04Z</time>
      </trkpt>
      <trkpt lat="48.61366" lon="2.09181">
        <ele>147</ele>
        <time>2026-05-24T11:19:05Z</time>
      </trkpt>
      <trkpt lat="48.61366" lon="2.09176">
        <ele>147</ele>
        <time>2026-05-24T11:19:06Z</time>
      </trkpt>
      <trkpt lat="48.61365" lon="2.0917">
        <ele>147</ele>
        <time>2026-05-24T11:19:07Z</time>
      </trkpt>
      <trkpt lat="48.61365" lon="2.09165">
        <ele>147</ele>
        <time>2026-05-24T11:19:08Z</time>
      </trkpt>
      <trkpt lat="48.61364" lon="2.0916">
        <ele>147</ele>
        <time>2026-05-24T11:19:09Z</time>
      </trkpt>
      <trkpt lat="48.61364" lon="2.09155">
        <ele>146.4</ele>
        <time>2026-05-24T11:19:10Z</time>
      </trkpt>
      <trkpt lat="48.61363" lon="2.0915">
        <ele>146.4</ele>
        <time>2026-05-24T11:19:11Z</time>
      </trkpt>
      <trkpt lat="48.61362" lon="2.09145">
        <ele>146.4</ele>
        <time>2026-05-24T11:19:12Z</time>
      </trkpt>
      <trkpt lat="48.61361" lon="2.0914">
        <ele>147.4</ele>
        <time>2026-05-24T11:19:13Z</time>
      </trkpt>
      <trkpt lat="48.6136" lon="2.09135">
        <ele>148</ele>
        <time>2026-05-24T11:19:14Z</time>
      </trkpt>
      <trkpt lat="48.6136" lon="2.0913">
        <ele>148</ele>
        <time>2026-05-24T11:19:15Z</time>
      </trkpt>
      <trkpt lat="48.61359" lon="2.09125">
        <ele>148</ele>
        <time>2026-05-24T11:19:16Z</time>
      </trkpt>
      <trkpt lat="48.61358" lon="2.0912">
        <ele>148</ele>
        <time>2026-05-24T11:19:17Z</time>
      </trkpt>
      <trkpt lat="48.61358" lon="2.09116">
        <ele>148</ele>
        <time>2026-05-24T11:19:18Z</time>
      </trkpt>
      <trkpt lat="48.61357" lon="2.09113">
        <ele>148</ele>
        <time>2026-05-24T11:19:19Z</time>
      </trkpt>
      <trkpt lat="48.61357" lon="2.0911">
        <ele>148</ele>
        <time>2026-05-24T11:19:20Z</time>
      </trkpt>
      <trkpt lat="48.61356" lon="2.09108">
        <ele>148</ele>
        <time>2026-05-24T11:19:21Z</time>
      </trkpt>
      <trkpt lat="48.61356" lon="2.09108">
        <ele>147.8</ele>
        <time>2026-05-24T11:19:22Z</time>
      </trkpt>
      <trkpt lat="48.61356" lon="2.09108">
        <ele>147.8</ele>
        <time>2026-05-24T11:19:23Z</time>
      </trkpt>
      <trkpt lat="48.61356" lon="2.09104">
        <ele>147.8</ele>
        <time>2026-05-24T11:20:00Z</time>
      </trkpt>
      <trkpt lat="48.61355" lon="2.091">
        <ele>147.8</ele>
        <time>2026-05-24T11:20:01Z</time>
      </trkpt>
      <trkpt lat="48.61355" lon="2.09097">
        <ele>147.6</ele>
        <time>2026-05-24T11:20:02Z</time>
      </trkpt>
      <trkpt lat="48.61355" lon="2.09093">
        <ele>147.6</ele>
        <time>2026-05-24T11:20:03Z</time>
      </trkpt>
      <trkpt lat="48.61354" lon="2.09088">
        <ele>147.6</ele>
        <time>2026-05-24T11:20:04Z</time>
      </trkpt>
      <trkpt lat="48.61353" lon="2.09084">
        <ele>148.4</ele>
        <time>2026-05-24T11:20:05Z</time>
      </trkpt>
      <trkpt lat="48.61353" lon="2.0908">
        <ele>148.8</ele>
        <time>2026-05-24T11:20:06Z</time>
      </trkpt>
      <trkpt lat="48.61352" lon="2.09075">
        <ele>148.8</ele>
        <time>2026-05-24T11:20:07Z</time>
      </trkpt>
      <trkpt lat="48.61352" lon="2.09071">
        <ele>148.8</ele>
        <time>2026-05-24T11:20:08Z</time>
      </trkpt>
      <trkpt lat="48.61351" lon="2.09066">
        <ele>148.8</ele>
        <time>2026-05-24T11:20:09Z</time>
      </trkpt>
      <trkpt lat="48.61351" lon="2.09061">
        <ele>148.6</ele>
        <time>2026-05-24T11:20:10Z</time>
      </trkpt>
      <trkpt lat="48.61351" lon="2.09057">
        <ele>148.6</ele>
        <time>2026-05-24T11:20:11Z</time>
      </trkpt>
      <trkpt lat="48.6135" lon="2.09053">
        <ele>148.6</ele>
        <time>2026-05-24T11:20:12Z</time>
      </trkpt>
      <trkpt lat="48.61349" lon="2.09048">
        <ele>148.6</ele>
        <time>2026-05-24T11:20:13Z</time>
      </trkpt>
      <trkpt lat="48.61348" lon="2.09043">
        <ele>149.4</ele>
        <time>2026-05-24T11:20:14Z</time>
      </trkpt>
      <trkpt lat="48.61348" lon="2.09038">
        <ele>149.4</ele>
        <time>2026-05-24T11:20:15Z</time>
      </trkpt>
      <trkpt lat="48.61348" lon="2.09034">
        <ele>149.4</ele>
        <time>2026-05-24T11:20:16Z</time>
      </trkpt>
      <trkpt lat="48.61348" lon="2.09029">
        <ele>149</ele>
        <time>2026-05-24T11:20:17Z</time>
      </trkpt>
      <trkpt lat="48.61348" lon="2.09024">
        <ele>149.6</ele>
        <time>2026-05-24T11:20:18Z</time>
      </trkpt>
      <trkpt lat="48.61348" lon="2.0902">
        <ele>149.6</ele>
        <time>2026-05-24T11:20:19Z</time>
      </trkpt>
      <trkpt lat="48.61349" lon="2.09015">
        <ele>149.6</ele>
        <time>2026-05-24T11:20:20Z</time>
      </trkpt>
      <trkpt lat="48.6135" lon="2.09011">
        <ele>148.8</ele>
        <time>2026-05-24T11:20:21Z</time>
      </trkpt>
      <trkpt lat="48.61351" lon="2.09006">
        <ele>149.6</ele>
        <time>2026-05-24T11:20:22Z</time>
      </trkpt>
      <trkpt lat="48.61351" lon="2.09002">
        <ele>149.6</ele>
        <time>2026-05-24T11:20:23Z</time>
      </trkpt>
      <trkpt lat="48.61352" lon="2.08997">
        <ele>149.6</ele>
        <time>2026-05-24T11:20:24Z</time>
      </trkpt>
      <trkpt lat="48.61354" lon="2.08993">
        <ele>149.6</ele>
        <time>2026-05-24T11:20:25Z</time>
      </trkpt>
      <trkpt lat="48.61355" lon="2.08989">
        <ele>150.2</ele>
        <time>2026-05-24T11:20:26Z</time>
      </trkpt>
      <trkpt lat="48.61357" lon="2.08985">
        <ele>150.2</ele>
        <time>2026-05-24T11:20:27Z</time>
      </trkpt>
      <trkpt lat="48.61359" lon="2.0898">
        <ele>150.2</ele>
        <time>2026-05-24T11:20:28Z</time>
      </trkpt>
      <trkpt lat="48.61361" lon="2.08976">
        <ele>150.2</ele>
        <time>2026-05-24T11:20:29Z</time>
      </trkpt>
      <trkpt lat="48.61362" lon="2.08972">
        <ele>150.2</ele>
        <time>2026-05-24T11:20:30Z</time>
      </trkpt>
      <trkpt lat="48.61364" lon="2.08968">
        <ele>150.2</ele>
        <time>2026-05-24T11:20:31Z</time>
      </trkpt>
      <trkpt lat="48.61366" lon="2.08964">
        <ele>150.2</ele>
        <time>2026-05-24T11:20:32Z</time>
      </trkpt>
      <trkpt lat="48.61367" lon="2.08959">
        <ele>150.2</ele>
        <time>2026-05-24T11:20:33Z</time>
      </trkpt>
      <trkpt lat="48.61368" lon="2.08954">
        <ele>150.4</ele>
        <time>2026-05-24T11:20:34Z</time>
      </trkpt>
      <trkpt lat="48.61369" lon="2.08949">
        <ele>150.4</ele>
        <time>2026-05-24T11:20:35Z</time>
      </trkpt>
      <trkpt lat="48.6137" lon="2.08945">
        <ele>150.4</ele>
        <time>2026-05-24T11:20:36Z</time>
      </trkpt>
      <trkpt lat="48.6137" lon="2.0894">
        <ele>150.4</ele>
        <time>2026-05-24T11:20:37Z</time>
      </trkpt>
      <trkpt lat="48.6137" lon="2.08934">
        <ele>150.2</ele>
        <time>2026-05-24T11:20:38Z</time>
      </trkpt>
      <trkpt lat="48.61369" lon="2.0893">
        <ele>150.2</ele>
        <time>2026-05-24T11:20:39Z</time>
      </trkpt>
      <trkpt lat="48.61369" lon="2.08925">
        <ele>150.2</ele>
        <time>2026-05-24T11:20:40Z</time>
      </trkpt>
      <trkpt lat="48.61368" lon="2.0892">
        <ele>150.6</ele>
        <time>2026-05-24T11:20:41Z</time>
      </trkpt>
      <trkpt lat="48.61368" lon="2.08916">
        <ele>150.6</ele>
        <time>2026-05-24T11:20:42Z</time>
      </trkpt>
      <trkpt lat="48.61367" lon="2.08911">
        <ele>150.6</ele>
        <time>2026-05-24T11:20:43Z</time>
      </trkpt>
      <trkpt lat="48.61367" lon="2.08907">
        <ele>150.6</ele>
        <time>2026-05-24T11:20:44Z</time>
      </trkpt>
      <trkpt lat="48.61366" lon="2.08903">
        <ele>151.6</ele>
        <time>2026-05-24T11:20:45Z</time>
      </trkpt>
      <trkpt lat="48.61365" lon="2.08898">
        <ele>151.8</ele>
        <time>2026-05-24T11:20:46Z</time>
      </trkpt>
      <trkpt lat="48.61365" lon="2.08894">
        <ele>151.8</ele>
        <time>2026-05-24T11:20:47Z</time>
      </trkpt>
      <trkpt lat="48.61364" lon="2.08889">
        <ele>151.8</ele>
        <time>2026-05-24T11:20:48Z</time>
      </trkpt>
      <trkpt lat="48.61364" lon="2.08885">
        <ele>151.8</ele>
        <time>2026-05-24T11:20:49Z</time>
      </trkpt>
      <trkpt lat="48.61363" lon="2.0888">
        <ele>152.4</ele>
        <time>2026-05-24T11:20:50Z</time>
      </trkpt>
      <trkpt lat="48.61362" lon="2.08876">
        <ele>152.4</ele>
        <time>2026-05-24T11:20:51Z</time>
      </trkpt>
      <trkpt lat="48.61362" lon="2.08872">
        <ele>152.4</ele>
        <time>2026-05-24T11:20:52Z</time>
      </trkpt>
      <trkpt lat="48.61361" lon="2.08867">
        <ele>152.4</ele>
        <time>2026-05-24T11:20:53Z</time>
      </trkpt>
      <trkpt lat="48.61361" lon="2.08863">
        <ele>153.2</ele>
        <time>2026-05-24T11:20:54Z</time>
      </trkpt>
      <trkpt lat="48.6136" lon="2.08859">
        <ele>153.2</ele>
        <time>2026-05-24T11:20:55Z</time>
      </trkpt>
      <trkpt lat="48.6136" lon="2.08854">
        <ele>153.2</ele>
        <time>2026-05-24T11:20:56Z</time>
      </trkpt>
      <trkpt lat="48.61359" lon="2.0885">
        <ele>153.2</ele>
        <time>2026-05-24T11:20:57Z</time>
      </trkpt>
      <trkpt lat="48.61359" lon="2.08846">
        <ele>153</ele>
        <time>2026-05-24T11:20:58Z</time>
      </trkpt>
      <trkpt lat="48.61358" lon="2.08841">
        <ele>153</ele>
        <time>2026-05-24T11:20:59Z</time>
      </trkpt>
      <trkpt lat="48.61358" lon="2.08837">
        <ele>153</ele>
        <time>2026-05-24T11:21:00Z</time>
      </trkpt>
      <trkpt lat="48.61357" lon="2.08833">
        <ele>153</ele>
        <time>2026-05-24T11:21:01Z</time>
      </trkpt>
      <trkpt lat="48.61357" lon="2.08829">
        <ele>152.2</ele>
        <time>2026-05-24T11:21:02Z</time>
      </trkpt>
      <trkpt lat="48.61357" lon="2.08824">
        <ele>152.2</ele>
        <time>2026-05-24T11:21:03Z</time>
      </trkpt>
      <trkpt lat="48.61357" lon="2.0882">
        <ele>152.2</ele>
        <time>2026-05-24T11:21:04Z</time>
      </trkpt>
      <trkpt lat="48.61357" lon="2.08815">
        <ele>153.2</ele>
        <time>2026-05-24T11:21:05Z</time>
      </trkpt>
      <trkpt lat="48.61357" lon="2.08811">
        <ele>154.2</ele>
        <time>2026-05-24T11:21:06Z</time>
      </trkpt>
      <trkpt lat="48.61357" lon="2.08806">
        <ele>154.2</ele>
        <time>2026-05-24T11:21:07Z</time>
      </trkpt>
      <trkpt lat="48.61357" lon="2.08802">
        <ele>154.2</ele>
        <time>2026-05-24T11:21:08Z</time>
      </trkpt>
      <trkpt lat="48.61358" lon="2.08798">
        <ele>153.8</ele>
        <time>2026-05-24T11:21:09Z</time>
      </trkpt>
      <trkpt lat="48.61358" lon="2.08794">
        <ele>153.8</ele>
        <time>2026-05-24T11:21:10Z</time>
      </trkpt>
      <trkpt lat="48.61359" lon="2.08791">
        <ele>153.8</ele>
        <time>2026-05-24T11:21:11Z</time>
      </trkpt>
      <trkpt lat="48.61359" lon="2.08788">
        <ele>153.8</ele>
        <time>2026-05-24T11:21:12Z</time>
      </trkpt>
      <trkpt lat="48.6136" lon="2.08784">
        <ele>154.4</ele>
        <time>2026-05-24T11:21:13Z</time>
      </trkpt>
      <trkpt lat="48.61361" lon="2.08781">
        <ele>154.2</ele>
        <time>2026-05-24T11:21:14Z</time>
      </trkpt>
      <trkpt lat="48.61361" lon="2.08777">
        <ele>154.2</ele>
        <time>2026-05-24T11:21:15Z</time>
      </trkpt>
      <trkpt lat="48.61362" lon="2.08773">
        <ele>154.2</ele>
        <time>2026-05-24T11:21:16Z</time>
      </trkpt>
      <trkpt lat="48.61363" lon="2.0877">
        <ele>155.2</ele>
        <time>2026-05-24T11:21:17Z</time>
      </trkpt>
      <trkpt lat="48.61363" lon="2.08766">
        <ele>155.4</ele>
        <time>2026-05-24T11:21:18Z</time>
      </trkpt>
      <trkpt lat="48.61364" lon="2.08763">
        <ele>155.4</ele>
        <time>2026-05-24T11:21:19Z</time>
      </trkpt>
      <trkpt lat="48.61365" lon="2.08759">
        <ele>155.4</ele>
        <time>2026-05-24T11:21:20Z</time>
      </trkpt>
      <trkpt lat="48.61366" lon="2.08756">
        <ele>156.2</ele>
        <time>2026-05-24T11:21:21Z</time>
      </trkpt>
      <trkpt lat="48.61367" lon="2.08752">
        <ele>156.6</ele>
        <time>2026-05-24T11:21:22Z</time>
      </trkpt>
      <trkpt lat="48.61367" lon="2.08749">
        <ele>156.6</ele>
        <time>2026-05-24T11:21:23Z</time>
      </trkpt>
      <trkpt lat="48.61368" lon="2.08746">
        <ele>156.6</ele>
        <time>2026-05-24T11:21:24Z</time>
      </trkpt>
      <trkpt lat="48.61369" lon="2.08742">
        <ele>156.6</ele>
        <time>2026-05-24T11:21:25Z</time>
      </trkpt>
      <trkpt lat="48.6137" lon="2.08739">
        <ele>157.4</ele>
        <time>2026-05-24T11:21:26Z</time>
      </trkpt>
      <trkpt lat="48.61371" lon="2.08735">
        <ele>157.4</ele>
        <time>2026-05-24T11:21:27Z</time>
      </trkpt>
      <trkpt lat="48.61372" lon="2.08731">
        <ele>157.4</ele>
        <time>2026-05-24T11:21:28Z</time>
      </trkpt>
      <trkpt lat="48.61373" lon="2.08728">
        <ele>157.4</ele>
        <time>2026-05-24T11:21:29Z</time>
      </trkpt>
      <trkpt lat="48.61374" lon="2.08724">
        <ele>158</ele>
        <time>2026-05-24T11:21:30Z</time>
      </trkpt>
      <trkpt lat="48.61375" lon="2.0872">
        <ele>158</ele>
        <time>2026-05-24T11:21:31Z</time>
      </trkpt>
      <trkpt lat="48.61376" lon="2.08716">
        <ele>158</ele>
        <time>2026-05-24T11:21:32Z</time>
      </trkpt>
      <trkpt lat="48.61378" lon="2.08712">
        <ele>158</ele>
        <time>2026-05-24T11:21:33Z</time>
      </trkpt>
      <trkpt lat="48.61379" lon="2.08708">
        <ele>157.8</ele>
        <time>2026-05-24T11:21:34Z</time>
      </trkpt>
      <trkpt lat="48.61381" lon="2.08704">
        <ele>157.8</ele>
        <time>2026-05-24T11:21:35Z</time>
      </trkpt>
      <trkpt lat="48.61383" lon="2.08699">
        <ele>157.8</ele>
        <time>2026-05-24T11:21:36Z</time>
      </trkpt>
      <trkpt lat="48.61385" lon="2.08695">
        <ele>157.8</ele>
        <time>2026-05-24T11:21:37Z</time>
      </trkpt>
      <trkpt lat="48.61387" lon="2.0869">
        <ele>158</ele>
        <time>2026-05-24T11:21:38Z</time>
      </trkpt>
      <trkpt lat="48.61389" lon="2.08685">
        <ele>158</ele>
        <time>2026-05-24T11:21:39Z</time>
      </trkpt>
      <trkpt lat="48.61391" lon="2.0868">
        <ele>158</ele>
        <time>2026-05-24T11:21:40Z</time>
      </trkpt>
      <trkpt lat="48.61393" lon="2.08674">
        <ele>157.4</ele>
        <time>2026-05-24T11:21:41Z</time>
      </trkpt>
      <trkpt lat="48.61395" lon="2.08669">
        <ele>157.6</ele>
        <time>2026-05-24T11:21:42Z</time>
      </trkpt>
      <trkpt lat="48.61398" lon="2.08664">
        <ele>157.6</ele>
        <time>2026-05-24T11:21:43Z</time>
      </trkpt>
      <trkpt lat="48.614" lon="2.08659">
        <ele>157.6</ele>
        <time>2026-05-24T11:21:44Z</time>
      </trkpt>
      <trkpt lat="48.61403" lon="2.08654">
        <ele>157.4</ele>
        <time>2026-05-24T11:21:45Z</time>
      </trkpt>
      <trkpt lat="48.61405" lon="2.0865">
        <ele>157.2</ele>
        <time>2026-05-24T11:21:46Z</time>
      </trkpt>
      <trkpt lat="48.61407" lon="2.08644">
        <ele>157.2</ele>
        <time>2026-05-24T11:21:47Z</time>
      </trkpt>
      <trkpt lat="48.61409" lon="2.08639">
        <ele>157.2</ele>
        <time>2026-05-24T11:21:48Z</time>
      </trkpt>
      <trkpt lat="48.61411" lon="2.08635">
        <ele>157.2</ele>
        <time>2026-05-24T11:21:49Z</time>
      </trkpt>
      <trkpt lat="48.61413" lon="2.08631">
        <ele>158.2</ele>
        <time>2026-05-24T11:21:50Z</time>
      </trkpt>
      <trkpt lat="48.61415" lon="2.08627">
        <ele>158.2</ele>
        <time>2026-05-24T11:21:51Z</time>
      </trkpt>
      <trkpt lat="48.61418" lon="2.08624">
        <ele>158.2</ele>
        <time>2026-05-24T11:21:52Z</time>
      </trkpt>
      <trkpt lat="48.6142" lon="2.08621">
        <ele>157.4</ele>
        <time>2026-05-24T11:21:53Z</time>
      </trkpt>
      <trkpt lat="48.61423" lon="2.08618">
        <ele>156.8</ele>
        <time>2026-05-24T11:21:54Z</time>
      </trkpt>
      <trkpt lat="48.61425" lon="2.08615">
        <ele>156.8</ele>
        <time>2026-05-24T11:21:55Z</time>
      </trkpt>
      <trkpt lat="48.61428" lon="2.08612">
        <ele>156.8</ele>
        <time>2026-05-24T11:21:56Z</time>
      </trkpt>
      <trkpt lat="48.61431" lon="2.08609">
        <ele>156.8</ele>
        <time>2026-05-24T11:21:57Z</time>
      </trkpt>
      <trkpt lat="48.61435" lon="2.08605">
        <ele>158.4</ele>
        <time>2026-05-24T11:21:58Z</time>
      </trkpt>
      <trkpt lat="48.61438" lon="2.08603">
        <ele>158.4</ele>
        <time>2026-05-24T11:21:59Z</time>
      </trkpt>
      <trkpt lat="48.61441" lon="2.086">
        <ele>158.4</ele>
        <time>2026-05-24T11:22:00Z</time>
      </trkpt>
      <trkpt lat="48.61444" lon="2.08596">
        <ele>157.4</ele>
        <time>2026-05-24T11:22:01Z</time>
      </trkpt>
      <trkpt lat="48.61448" lon="2.08592">
        <ele>156.8</ele>
        <time>2026-05-24T11:22:02Z</time>
      </trkpt>
      <trkpt lat="48.61451" lon="2.08589">
        <ele>156.8</ele>
        <time>2026-05-24T11:22:03Z</time>
      </trkpt>
      <trkpt lat="48.61453" lon="2.08586">
        <ele>156.8</ele>
        <time>2026-05-24T11:22:04Z</time>
      </trkpt>
      <trkpt lat="48.61456" lon="2.08584">
        <ele>157.8</ele>
        <time>2026-05-24T11:22:05Z</time>
      </trkpt>
      <trkpt lat="48.6146" lon="2.08582">
        <ele>157.4</ele>
        <time>2026-05-24T11:22:06Z</time>
      </trkpt>
      <trkpt lat="48.61464" lon="2.0858">
        <ele>157.4</ele>
        <time>2026-05-24T11:22:07Z</time>
      </trkpt>
      <trkpt lat="48.61468" lon="2.08578">
        <ele>157.4</ele>
        <time>2026-05-24T11:22:08Z</time>
      </trkpt>
      <trkpt lat="48.61471" lon="2.08576">
        <ele>158</ele>
        <time>2026-05-24T11:22:09Z</time>
      </trkpt>
      <trkpt lat="48.61474" lon="2.08572">
        <ele>157.4</ele>
        <time>2026-05-24T11:22:10Z</time>
      </trkpt>
      <trkpt lat="48.61477" lon="2.08568">
        <ele>157.4</ele>
        <time>2026-05-24T11:22:11Z</time>
      </trkpt>
      <trkpt lat="48.6148" lon="2.08565">
        <ele>157.4</ele>
        <time>2026-05-24T11:22:12Z</time>
      </trkpt>
      <trkpt lat="48.61483" lon="2.08561">
        <ele>157.4</ele>
        <time>2026-05-24T11:22:13Z</time>
      </trkpt>
      <trkpt lat="48.61486" lon="2.08558">
        <ele>158.8</ele>
        <time>2026-05-24T11:22:14Z</time>
      </trkpt>
      <trkpt lat="48.61489" lon="2.08555">
        <ele>158.8</ele>
        <time>2026-05-24T11:22:15Z</time>
      </trkpt>
      <trkpt lat="48.61491" lon="2.08551">
        <ele>158.8</ele>
        <time>2026-05-24T11:22:16Z</time>
      </trkpt>
      <trkpt lat="48.61493" lon="2.08548">
        <ele>157.8</ele>
        <time>2026-05-24T11:22:17Z</time>
      </trkpt>
      <trkpt lat="48.61496" lon="2.08544">
        <ele>158.2</ele>
        <time>2026-05-24T11:22:18Z</time>
      </trkpt>
      <trkpt lat="48.61499" lon="2.08541">
        <ele>158.2</ele>
        <time>2026-05-24T11:22:19Z</time>
      </trkpt>
      <trkpt lat="48.61501" lon="2.08537">
        <ele>158.2</ele>
        <time>2026-05-24T11:22:20Z</time>
      </trkpt>
      <trkpt lat="48.61503" lon="2.08534">
        <ele>158.2</ele>
        <time>2026-05-24T11:22:21Z</time>
      </trkpt>
      <trkpt lat="48.61505" lon="2.0853">
        <ele>158.4</ele>
        <time>2026-05-24T11:22:22Z</time>
      </trkpt>
      <trkpt lat="48.61507" lon="2.08527">
        <ele>158.4</ele>
        <time>2026-05-24T11:22:23Z</time>
      </trkpt>
      <trkpt lat="48.61509" lon="2.08523">
        <ele>158.4</ele>
        <time>2026-05-24T11:22:24Z</time>
      </trkpt>
      <trkpt lat="48.61511" lon="2.0852">
        <ele>158</ele>
        <time>2026-05-24T11:22:25Z</time>
      </trkpt>
      <trkpt lat="48.61513" lon="2.08517">
        <ele>159.2</ele>
        <time>2026-05-24T11:22:26Z</time>
      </trkpt>
      <trkpt lat="48.61514" lon="2.08515">
        <ele>159.2</ele>
        <time>2026-05-24T11:22:27Z</time>
      </trkpt>
      <trkpt lat="48.61515" lon="2.08512">
        <ele>159.2</ele>
        <time>2026-05-24T11:22:28Z</time>
      </trkpt>
      <trkpt lat="48.61516" lon="2.0851">
        <ele>159.2</ele>
        <time>2026-05-24T11:22:29Z</time>
      </trkpt>
      <trkpt lat="48.61517" lon="2.08507">
        <ele>159.6</ele>
        <time>2026-05-24T11:22:30Z</time>
      </trkpt>
      <trkpt lat="48.61518" lon="2.08506">
        <ele>159.6</ele>
        <time>2026-05-24T11:22:31Z</time>
      </trkpt>
      <trkpt lat="48.61519" lon="2.08503">
        <ele>159.6</ele>
        <time>2026-05-24T11:22:32Z</time>
      </trkpt>
      <trkpt lat="48.6152" lon="2.08501">
        <ele>159</ele>
        <time>2026-05-24T11:22:33Z</time>
      </trkpt>
      <trkpt lat="48.61521" lon="2.08499">
        <ele>159.8</ele>
        <time>2026-05-24T11:22:34Z</time>
      </trkpt>
      <trkpt lat="48.61521" lon="2.08496">
        <ele>159.8</ele>
        <time>2026-05-24T11:22:35Z</time>
      </trkpt>
      <trkpt lat="48.61523" lon="2.08494">
        <ele>159.8</ele>
        <time>2026-05-24T11:22:36Z</time>
      </trkpt>
      <trkpt lat="48.61524" lon="2.08491">
        <ele>160.4</ele>
        <time>2026-05-24T11:22:37Z</time>
      </trkpt>
      <trkpt lat="48.61525" lon="2.08489">
        <ele>159.8</ele>
        <time>2026-05-24T11:22:38Z</time>
      </trkpt>
      <trkpt lat="48.61526" lon="2.08487">
        <ele>159.8</ele>
        <time>2026-05-24T11:22:39Z</time>
      </trkpt>
      <trkpt lat="48.61527" lon="2.08484">
        <ele>159.8</ele>
        <time>2026-05-24T11:22:40Z</time>
      </trkpt>
      <trkpt lat="48.61528" lon="2.08481">
        <ele>160.2</ele>
        <time>2026-05-24T11:22:41Z</time>
      </trkpt>
      <trkpt lat="48.6153" lon="2.08479">
        <ele>160.4</ele>
        <time>2026-05-24T11:22:42Z</time>
      </trkpt>
      <trkpt lat="48.61531" lon="2.08476">
        <ele>160.4</ele>
        <time>2026-05-24T11:22:43Z</time>
      </trkpt>
      <trkpt lat="48.61532" lon="2.08474">
        <ele>160.4</ele>
        <time>2026-05-24T11:22:44Z</time>
      </trkpt>
      <trkpt lat="48.61534" lon="2.08472">
        <ele>160.4</ele>
        <time>2026-05-24T11:22:45Z</time>
      </trkpt>
      <trkpt lat="48.61534" lon="2.0847">
        <ele>160.2</ele>
        <time>2026-05-24T11:22:46Z</time>
      </trkpt>
      <trkpt lat="48.61535" lon="2.08468">
        <ele>160.2</ele>
        <time>2026-05-24T11:22:47Z</time>
      </trkpt>
      <trkpt lat="48.61536" lon="2.08466">
        <ele>160.2</ele>
        <time>2026-05-24T11:22:48Z</time>
      </trkpt>
      <trkpt lat="48.61537" lon="2.08463">
        <ele>161</ele>
        <time>2026-05-24T11:22:49Z</time>
      </trkpt>
      <trkpt lat="48.61538" lon="2.08461">
        <ele>160.8</ele>
        <time>2026-05-24T11:22:50Z</time>
      </trkpt>
      <trkpt lat="48.61539" lon="2.08458">
        <ele>160.8</ele>
        <time>2026-05-24T11:22:51Z</time>
      </trkpt>
      <trkpt lat="48.61541" lon="2.08456">
        <ele>160.8</ele>
        <time>2026-05-24T11:22:52Z</time>
      </trkpt>
      <trkpt lat="48.61542" lon="2.08453">
        <ele>160.8</ele>
        <time>2026-05-24T11:22:53Z</time>
      </trkpt>
      <trkpt lat="48.61542" lon="2.0845">
        <ele>161.2</ele>
        <time>2026-05-24T11:22:54Z</time>
      </trkpt>
      <trkpt lat="48.61543" lon="2.08449">
        <ele>161.2</ele>
        <time>2026-05-24T11:22:55Z</time>
      </trkpt>
      <trkpt lat="48.61544" lon="2.08446">
        <ele>161.2</ele>
        <time>2026-05-24T11:22:56Z</time>
      </trkpt>
      <trkpt lat="48.61545" lon="2.08443">
        <ele>161.2</ele>
        <time>2026-05-24T11:22:57Z</time>
      </trkpt>
      <trkpt lat="48.61546" lon="2.0844">
        <ele>161</ele>
        <time>2026-05-24T11:22:58Z</time>
      </trkpt>
      <trkpt lat="48.61548" lon="2.08436">
        <ele>161</ele>
        <time>2026-05-24T11:22:59Z</time>
      </trkpt>
      <trkpt lat="48.61548" lon="2.08434">
        <ele>161</ele>
        <time>2026-05-24T11:23:00Z</time>
      </trkpt>
      <trkpt lat="48.6155" lon="2.08431">
        <ele>161.4</ele>
        <time>2026-05-24T11:23:01Z</time>
      </trkpt>
      <trkpt lat="48.61551" lon="2.08427">
        <ele>161.2</ele>
        <time>2026-05-24T11:23:02Z</time>
      </trkpt>
      <trkpt lat="48.61551" lon="2.08424">
        <ele>161.2</ele>
        <time>2026-05-24T11:23:03Z</time>
      </trkpt>
      <trkpt lat="48.61552" lon="2.08421">
        <ele>161.2</ele>
        <time>2026-05-24T11:23:04Z</time>
      </trkpt>
      <trkpt lat="48.61554" lon="2.08418">
        <ele>162</ele>
        <time>2026-05-24T11:23:05Z</time>
      </trkpt>
      <trkpt lat="48.61555" lon="2.08415">
        <ele>162.4</ele>
        <time>2026-05-24T11:23:06Z</time>
      </trkpt>
      <trkpt lat="48.61557" lon="2.08411">
        <ele>162.4</ele>
        <time>2026-05-24T11:23:07Z</time>
      </trkpt>
      <trkpt lat="48.61558" lon="2.08409">
        <ele>162.4</ele>
        <time>2026-05-24T11:23:08Z</time>
      </trkpt>
      <trkpt lat="48.6156" lon="2.08406">
        <ele>162.4</ele>
        <time>2026-05-24T11:23:09Z</time>
      </trkpt>
      <trkpt lat="48.61561" lon="2.08403">
        <ele>162.8</ele>
        <time>2026-05-24T11:23:10Z</time>
      </trkpt>
      <trkpt lat="48.61562" lon="2.08401">
        <ele>162.8</ele>
        <time>2026-05-24T11:23:11Z</time>
      </trkpt>
      <trkpt lat="48.61564" lon="2.08398">
        <ele>162.8</ele>
        <time>2026-05-24T11:23:12Z</time>
      </trkpt>
      <trkpt lat="48.61565" lon="2.08396">
        <ele>162.8</ele>
        <time>2026-05-24T11:23:13Z</time>
      </trkpt>
      <trkpt lat="48.61566" lon="2.08393">
        <ele>163.6</ele>
        <time>2026-05-24T11:23:14Z</time>
      </trkpt>
      <trkpt lat="48.61568" lon="2.08391">
        <ele>163.6</ele>
        <time>2026-05-24T11:23:15Z</time>
      </trkpt>
      <trkpt lat="48.61569" lon="2.08388">
        <ele>163.6</ele>
        <time>2026-05-24T11:23:16Z</time>
      </trkpt>
      <trkpt lat="48.6157" lon="2.08386">
        <ele>163.6</ele>
        <time>2026-05-24T11:23:17Z</time>
      </trkpt>
      <trkpt lat="48.61571" lon="2.08383">
        <ele>164</ele>
        <time>2026-05-24T11:23:18Z</time>
      </trkpt>
      <trkpt lat="48.61572" lon="2.0838">
        <ele>164</ele>
        <time>2026-05-24T11:23:19Z</time>
      </trkpt>
      <trkpt lat="48.61573" lon="2.08377">
        <ele>164</ele>
        <time>2026-05-24T11:23:20Z</time>
      </trkpt>
      <trkpt lat="48.61574" lon="2.08374">
        <ele>164</ele>
        <time>2026-05-24T11:23:21Z</time>
      </trkpt>
      <trkpt lat="48.61575" lon="2.08372">
        <ele>164.6</ele>
        <time>2026-05-24T11:23:22Z</time>
      </trkpt>
      <trkpt lat="48.61576" lon="2.0837">
        <ele>164.6</ele>
        <time>2026-05-24T11:23:23Z</time>
      </trkpt>
      <trkpt lat="48.61577" lon="2.08368">
        <ele>164.6</ele>
        <time>2026-05-24T11:23:24Z</time>
      </trkpt>
      <trkpt lat="48.61579" lon="2.08366">
        <ele>164.6</ele>
        <time>2026-05-24T11:23:25Z</time>
      </trkpt>
      <trkpt lat="48.6158" lon="2.08363">
        <ele>164.8</ele>
        <time>2026-05-24T11:23:26Z</time>
      </trkpt>
      <trkpt lat="48.61581" lon="2.08361">
        <ele>164.8</ele>
        <time>2026-05-24T11:23:27Z</time>
      </trkpt>
      <trkpt lat="48.61582" lon="2.08359">
        <ele>164.8</ele>
        <time>2026-05-24T11:23:28Z</time>
      </trkpt>
      <trkpt lat="48.61584" lon="2.08356">
        <ele>164.8</ele>
        <time>2026-05-24T11:23:29Z</time>
      </trkpt>
      <trkpt lat="48.61585" lon="2.08353">
        <ele>164.6</ele>
        <time>2026-05-24T11:23:30Z</time>
      </trkpt>
      <trkpt lat="48.61586" lon="2.0835">
        <ele>164.6</ele>
        <time>2026-05-24T11:23:31Z</time>
      </trkpt>
      <trkpt lat="48.61587" lon="2.08348">
        <ele>164.6</ele>
        <time>2026-05-24T11:23:32Z</time>
      </trkpt>
      <trkpt lat="48.61587" lon="2.08345">
        <ele>165.4</ele>
        <time>2026-05-24T11:23:33Z</time>
      </trkpt>
      <trkpt lat="48.61587" lon="2.08343">
        <ele>165.8</ele>
        <time>2026-05-24T11:23:34Z</time>
      </trkpt>
      <trkpt lat="48.61587" lon="2.08341">
        <ele>165.8</ele>
        <time>2026-05-24T11:23:35Z</time>
      </trkpt>
      <trkpt lat="48.61586" lon="2.08338">
        <ele>165.8</ele>
        <time>2026-05-24T11:23:36Z</time>
      </trkpt>
      <trkpt lat="48.61585" lon="2.08336">
        <ele>165.8</ele>
        <time>2026-05-24T11:23:37Z</time>
      </trkpt>
      <trkpt lat="48.61583" lon="2.08334">
        <ele>166.2</ele>
        <time>2026-05-24T11:23:38Z</time>
      </trkpt>
      <trkpt lat="48.61582" lon="2.0833">
        <ele>166.2</ele>
        <time>2026-05-24T11:23:39Z</time>
      </trkpt>
      <trkpt lat="48.61581" lon="2.08325">
        <ele>166.2</ele>
        <time>2026-05-24T11:23:40Z</time>
      </trkpt>
      <trkpt lat="48.6158" lon="2.0832">
        <ele>166.2</ele>
        <time>2026-05-24T11:23:41Z</time>
      </trkpt>
      <trkpt lat="48.61578" lon="2.08316">
        <ele>165</ele>
        <time>2026-05-24T11:23:42Z</time>
      </trkpt>
      <trkpt lat="48.61577" lon="2.08312">
        <ele>165</ele>
        <time>2026-05-24T11:23:43Z</time>
      </trkpt>
      <trkpt lat="48.61576" lon="2.08308">
        <ele>165</ele>
        <time>2026-05-24T11:23:44Z</time>
      </trkpt>
      <trkpt lat="48.61574" lon="2.08304">
        <ele>164.8</ele>
        <time>2026-05-24T11:23:45Z</time>
      </trkpt>
      <trkpt lat="48.61573" lon="2.08301">
        <ele>163.8</ele>
        <time>2026-05-24T11:23:46Z</time>
      </trkpt>
      <trkpt lat="48.61572" lon="2.08298">
        <ele>163.8</ele>
        <time>2026-05-24T11:23:47Z</time>
      </trkpt>
      <trkpt lat="48.61572" lon="2.08295">
        <ele>163.8</ele>
        <time>2026-05-24T11:23:48Z</time>
      </trkpt>
      <trkpt lat="48.61571" lon="2.08293">
        <ele>163.8</ele>
        <time>2026-05-24T11:23:49Z</time>
      </trkpt>
      <trkpt lat="48.6157" lon="2.08289">
        <ele>163.4</ele>
        <time>2026-05-24T11:23:50Z</time>
      </trkpt>
      <trkpt lat="48.61568" lon="2.08285">
        <ele>163.4</ele>
        <time>2026-05-24T11:23:51Z</time>
      </trkpt>
      <trkpt lat="48.61566" lon="2.08282">
        <ele>163.4</ele>
        <time>2026-05-24T11:23:52Z</time>
      </trkpt>
      <trkpt lat="48.61564" lon="2.08277">
        <ele>163.4</ele>
        <time>2026-05-24T11:23:53Z</time>
      </trkpt>
      <trkpt lat="48.61562" lon="2.08272">
        <ele>162.6</ele>
        <time>2026-05-24T11:23:54Z</time>
      </trkpt>
      <trkpt lat="48.6156" lon="2.08266">
        <ele>162.6</ele>
        <time>2026-05-24T11:23:55Z</time>
      </trkpt>
      <trkpt lat="48.61557" lon="2.08261">
        <ele>162.6</ele>
        <time>2026-05-24T11:23:56Z</time>
      </trkpt>
      <trkpt lat="48.61553" lon="2.08256">
        <ele>161.6</ele>
        <time>2026-05-24T11:23:57Z</time>
      </trkpt>
      <trkpt lat="48.6155" lon="2.08251">
        <ele>162</ele>
        <time>2026-05-24T11:23:58Z</time>
      </trkpt>
      <trkpt lat="48.61547" lon="2.08246">
        <ele>162</ele>
        <time>2026-05-24T11:23:59Z</time>
      </trkpt>
      <trkpt lat="48.61544" lon="2.0824">
        <ele>162</ele>
        <time>2026-05-24T11:24:00Z</time>
      </trkpt>
      <trkpt lat="48.61542" lon="2.08232">
        <ele>161</ele>
        <time>2026-05-24T11:24:01Z</time>
      </trkpt>
      <trkpt lat="48.6154" lon="2.08227">
        <ele>159.2</ele>
        <time>2026-05-24T11:24:02Z</time>
      </trkpt>
      <trkpt lat="48.61537" lon="2.08222">
        <ele>159.2</ele>
        <time>2026-05-24T11:24:03Z</time>
      </trkpt>
      <trkpt lat="48.61533" lon="2.08216">
        <ele>159.2</ele>
        <time>2026-05-24T11:24:04Z</time>
      </trkpt>
      <trkpt lat="48.6153" lon="2.0821">
        <ele>159.2</ele>
        <time>2026-05-24T11:24:05Z</time>
      </trkpt>
      <trkpt lat="48.61527" lon="2.08203">
        <ele>158.4</ele>
        <time>2026-05-24T11:24:06Z</time>
      </trkpt>
      <trkpt lat="48.61524" lon="2.08196">
        <ele>158.4</ele>
        <time>2026-05-24T11:24:07Z</time>
      </trkpt>
      <trkpt lat="48.6152" lon="2.08189">
        <ele>158.4</ele>
        <time>2026-05-24T11:24:08Z</time>
      </trkpt>
      <trkpt lat="48.61517" lon="2.08183">
        <ele>157.4</ele>
        <time>2026-05-24T11:24:09Z</time>
      </trkpt>
      <trkpt lat="48.61514" lon="2.08176">
        <ele>157.6</ele>
        <time>2026-05-24T11:24:10Z</time>
      </trkpt>
      <trkpt lat="48.61511" lon="2.0817">
        <ele>157.6</ele>
        <time>2026-05-24T11:24:11Z</time>
      </trkpt>
      <trkpt lat="48.61507" lon="2.08165">
        <ele>157.6</ele>
        <time>2026-05-24T11:24:12Z</time>
      </trkpt>
      <trkpt lat="48.61503" lon="2.08161">
        <ele>156.6</ele>
        <time>2026-05-24T11:24:13Z</time>
      </trkpt>
      <trkpt lat="48.615" lon="2.08155">
        <ele>157.8</ele>
        <time>2026-05-24T11:24:14Z</time>
      </trkpt>
      <trkpt lat="48.61497" lon="2.0815">
        <ele>157.8</ele>
        <time>2026-05-24T11:24:15Z</time>
      </trkpt>
      <trkpt lat="48.61493" lon="2.08145">
        <ele>157.8</ele>
        <time>2026-05-24T11:24:16Z</time>
      </trkpt>
      <trkpt lat="48.6149" lon="2.08141">
        <ele>157</ele>
        <time>2026-05-24T11:24:17Z</time>
      </trkpt>
      <trkpt lat="48.61485" lon="2.08138">
        <ele>156.4</ele>
        <time>2026-05-24T11:24:18Z</time>
      </trkpt>
      <trkpt lat="48.61481" lon="2.08135">
        <ele>156.4</ele>
        <time>2026-05-24T11:24:19Z</time>
      </trkpt>
      <trkpt lat="48.61476" lon="2.08131">
        <ele>156.4</ele>
        <time>2026-05-24T11:24:20Z</time>
      </trkpt>
      <trkpt lat="48.61471" lon="2.08126">
        <ele>156.4</ele>
        <time>2026-05-24T11:24:21Z</time>
      </trkpt>
      <trkpt lat="48.61467" lon="2.08119">
        <ele>154.8</ele>
        <time>2026-05-24T11:24:22Z</time>
      </trkpt>
      <trkpt lat="48.61461" lon="2.08113">
        <ele>154.8</ele>
        <time>2026-05-24T11:24:23Z</time>
      </trkpt>
      <trkpt lat="48.61455" lon="2.08108">
        <ele>154.8</ele>
        <time>2026-05-24T11:24:24Z</time>
      </trkpt>
      <trkpt lat="48.61449" lon="2.08103">
        <ele>153.8</ele>
        <time>2026-05-24T11:24:25Z</time>
      </trkpt>
      <trkpt lat="48.61442" lon="2.08098">
        <ele>149.8</ele>
        <time>2026-05-24T11:24:26Z</time>
      </trkpt>
      <trkpt lat="48.61435" lon="2.08093">
        <ele>149.8</ele>
        <time>2026-05-24T11:24:27Z</time>
      </trkpt>
      <trkpt lat="48.61429" lon="2.08085">
        <ele>149.8</ele>
        <time>2026-05-24T11:24:28Z</time>
      </trkpt>
      <trkpt lat="48.61424" lon="2.08078">
        <ele>149.8</ele>
        <time>2026-05-24T11:24:29Z</time>
      </trkpt>
      <trkpt lat="48.61418" lon="2.08071">
        <ele>150.2</ele>
        <time>2026-05-24T11:24:30Z</time>
      </trkpt>
      <trkpt lat="48.61412" lon="2.08066">
        <ele>150.2</ele>
        <time>2026-05-24T11:24:31Z</time>
      </trkpt>
      <trkpt lat="48.61405" lon="2.0806">
        <ele>150.2</ele>
        <time>2026-05-24T11:24:32Z</time>
      </trkpt>
      <trkpt lat="48.614" lon="2.08055">
        <ele>149.2</ele>
        <time>2026-05-24T11:24:33Z</time>
      </trkpt>
      <trkpt lat="48.61393" lon="2.0805">
        <ele>147.6</ele>
        <time>2026-05-24T11:24:34Z</time>
      </trkpt>
      <trkpt lat="48.61385" lon="2.08045">
        <ele>147.6</ele>
        <time>2026-05-24T11:24:35Z</time>
      </trkpt>
      <trkpt lat="48.61377" lon="2.0804">
        <ele>147.6</ele>
        <time>2026-05-24T11:24:36Z</time>
      </trkpt>
      <trkpt lat="48.6137" lon="2.08036">
        <ele>147.6</ele>
        <time>2026-05-24T11:24:37Z</time>
      </trkpt>
      <trkpt lat="48.61363" lon="2.08032">
        <ele>146.2</ele>
        <time>2026-05-24T11:24:38Z</time>
      </trkpt>
      <trkpt lat="48.61357" lon="2.08028">
        <ele>146.2</ele>
        <time>2026-05-24T11:24:39Z</time>
      </trkpt>
      <trkpt lat="48.6135" lon="2.08025">
        <ele>146.2</ele>
        <time>2026-05-24T11:24:40Z</time>
      </trkpt>
      <trkpt lat="48.61343" lon="2.08024">
        <ele>146.2</ele>
        <time>2026-05-24T11:24:41Z</time>
      </trkpt>
      <trkpt lat="48.61336" lon="2.08023">
        <ele>146</ele>
        <time>2026-05-24T11:24:42Z</time>
      </trkpt>
      <trkpt lat="48.61329" lon="2.08021">
        <ele>146</ele>
        <time>2026-05-24T11:24:43Z</time>
      </trkpt>
      <trkpt lat="48.61323" lon="2.08019">
        <ele>146</ele>
        <time>2026-05-24T11:24:44Z</time>
      </trkpt>
      <trkpt lat="48.61315" lon="2.08017">
        <ele>145</ele>
        <time>2026-05-24T11:24:45Z</time>
      </trkpt>
      <trkpt lat="48.61308" lon="2.08012">
        <ele>143</ele>
        <time>2026-05-24T11:24:46Z</time>
      </trkpt>
      <trkpt lat="48.61302" lon="2.08008">
        <ele>143</ele>
        <time>2026-05-24T11:24:47Z</time>
      </trkpt>
      <trkpt lat="48.61295" lon="2.08004">
        <ele>143</ele>
        <time>2026-05-24T11:24:48Z</time>
      </trkpt>
      <trkpt lat="48.61287" lon="2.08002">
        <ele>143</ele>
        <time>2026-05-24T11:24:49Z</time>
      </trkpt>
      <trkpt lat="48.6128" lon="2.08">
        <ele>142.8</ele>
        <time>2026-05-24T11:24:50Z</time>
      </trkpt>
      <trkpt lat="48.61271" lon="2.07998">
        <ele>142.8</ele>
        <time>2026-05-24T11:24:51Z</time>
      </trkpt>
      <trkpt lat="48.61263" lon="2.07995">
        <ele>142.8</ele>
        <time>2026-05-24T11:24:52Z</time>
      </trkpt>
      <trkpt lat="48.61257" lon="2.07991">
        <ele>142.8</ele>
        <time>2026-05-24T11:24:53Z</time>
      </trkpt>
      <trkpt lat="48.61249" lon="2.07985">
        <ele>140.6</ele>
        <time>2026-05-24T11:24:54Z</time>
      </trkpt>
      <trkpt lat="48.61243" lon="2.07979">
        <ele>140.6</ele>
        <time>2026-05-24T11:24:55Z</time>
      </trkpt>
      <trkpt lat="48.61238" lon="2.07973">
        <ele>140.6</ele>
        <time>2026-05-24T11:24:56Z</time>
      </trkpt>
      <trkpt lat="48.61232" lon="2.07967">
        <ele>140</ele>
        <time>2026-05-24T11:24:57Z</time>
      </trkpt>
      <trkpt lat="48.61228" lon="2.07963">
        <ele>139.2</ele>
        <time>2026-05-24T11:24:58Z</time>
      </trkpt>
      <trkpt lat="48.61222" lon="2.07959">
        <ele>139.2</ele>
        <time>2026-05-24T11:24:59Z</time>
      </trkpt>
      <trkpt lat="48.61215" lon="2.07956">
        <ele>139.2</ele>
        <time>2026-05-24T11:25:00Z</time>
      </trkpt>
      <trkpt lat="48.61208" lon="2.07953">
        <ele>140.2</ele>
        <time>2026-05-24T11:25:01Z</time>
      </trkpt>
      <trkpt lat="48.612" lon="2.07948">
        <ele>139</ele>
        <time>2026-05-24T11:25:02Z</time>
      </trkpt>
      <trkpt lat="48.61196" lon="2.07941">
        <ele>139</ele>
        <time>2026-05-24T11:25:03Z</time>
      </trkpt>
      <trkpt lat="48.61192" lon="2.07933">
        <ele>139</ele>
        <time>2026-05-24T11:25:04Z</time>
      </trkpt>
      <trkpt lat="48.61189" lon="2.07925">
        <ele>139</ele>
        <time>2026-05-24T11:25:05Z</time>
      </trkpt>
      <trkpt lat="48.61186" lon="2.07917">
        <ele>139.2</ele>
        <time>2026-05-24T11:25:06Z</time>
      </trkpt>
      <trkpt lat="48.61182" lon="2.07907">
        <ele>139.2</ele>
        <time>2026-05-24T11:25:07Z</time>
      </trkpt>
      <trkpt lat="48.6118" lon="2.079">
        <ele>139.2</ele>
        <time>2026-05-24T11:25:08Z</time>
      </trkpt>
      <trkpt lat="48.61176" lon="2.07892">
        <ele>138.2</ele>
        <time>2026-05-24T11:25:09Z</time>
      </trkpt>
      <trkpt lat="48.61173" lon="2.07883">
        <ele>136.4</ele>
        <time>2026-05-24T11:25:10Z</time>
      </trkpt>
      <trkpt lat="48.6117" lon="2.07873">
        <ele>136.4</ele>
        <time>2026-05-24T11:25:11Z</time>
      </trkpt>
      <trkpt lat="48.61166" lon="2.07864">
        <ele>136.4</ele>
        <time>2026-05-24T11:25:12Z</time>
      </trkpt>
      <trkpt lat="48.61161" lon="2.07856">
        <ele>136.4</ele>
        <time>2026-05-24T11:25:13Z</time>
      </trkpt>
      <trkpt lat="48.61156" lon="2.07849">
        <ele>135.8</ele>
        <time>2026-05-24T11:25:14Z</time>
      </trkpt>
      <trkpt lat="48.61151" lon="2.07842">
        <ele>135.8</ele>
        <time>2026-05-24T11:25:15Z</time>
      </trkpt>
      <trkpt lat="48.61145" lon="2.07836">
        <ele>135.8</ele>
        <time>2026-05-24T11:25:16Z</time>
      </trkpt>
      <trkpt lat="48.6114" lon="2.07832">
        <ele>136.4</ele>
        <time>2026-05-24T11:25:17Z</time>
      </trkpt>
      <trkpt lat="48.61135" lon="2.07827">
        <ele>135.8</ele>
        <time>2026-05-24T11:25:18Z</time>
      </trkpt>
      <trkpt lat="48.61129" lon="2.07822">
        <ele>135.8</ele>
        <time>2026-05-24T11:25:19Z</time>
      </trkpt>
      <trkpt lat="48.61125" lon="2.07819">
        <ele>135.8</ele>
        <time>2026-05-24T11:25:20Z</time>
      </trkpt>
      <trkpt lat="48.6112" lon="2.07814">
        <ele>135.8</ele>
        <time>2026-05-24T11:25:21Z</time>
      </trkpt>
      <trkpt lat="48.61114" lon="2.07809">
        <ele>135.4</ele>
        <time>2026-05-24T11:25:22Z</time>
      </trkpt>
      <trkpt lat="48.61109" lon="2.07804">
        <ele>135.4</ele>
        <time>2026-05-24T11:25:23Z</time>
      </trkpt>
      <trkpt lat="48.61103" lon="2.07799">
        <ele>135.4</ele>
        <time>2026-05-24T11:25:24Z</time>
      </trkpt>
      <trkpt lat="48.61098" lon="2.07794">
        <ele>135.4</ele>
        <time>2026-05-24T11:25:25Z</time>
      </trkpt>
      <trkpt lat="48.61093" lon="2.07789">
        <ele>134.8</ele>
        <time>2026-05-24T11:25:26Z</time>
      </trkpt>
      <trkpt lat="48.61087" lon="2.07784">
        <ele>134.8</ele>
        <time>2026-05-24T11:25:27Z</time>
      </trkpt>
      <trkpt lat="48.61082" lon="2.07779">
        <ele>134.8</ele>
        <time>2026-05-24T11:25:28Z</time>
      </trkpt>
      <trkpt lat="48.61077" lon="2.07774">
        <ele>134.8</ele>
        <time>2026-05-24T11:25:29Z</time>
      </trkpt>
      <trkpt lat="48.61071" lon="2.07769">
        <ele>135.2</ele>
        <time>2026-05-24T11:25:30Z</time>
      </trkpt>
      <trkpt lat="48.61067" lon="2.07764">
        <ele>135.2</ele>
        <time>2026-05-24T11:25:31Z</time>
      </trkpt>
      <trkpt lat="48.61061" lon="2.07759">
        <ele>135.2</ele>
        <time>2026-05-24T11:25:32Z</time>
      </trkpt>
      <trkpt lat="48.61058" lon="2.07754">
        <ele>134.2</ele>
        <time>2026-05-24T11:25:33Z</time>
      </trkpt>
      <trkpt lat="48.61054" lon="2.0775">
        <ele>133.2</ele>
        <time>2026-05-24T11:25:34Z</time>
      </trkpt>
      <trkpt lat="48.61049" lon="2.07745">
        <ele>133.2</ele>
        <time>2026-05-24T11:25:35Z</time>
      </trkpt>
      <trkpt lat="48.61045" lon="2.0774">
        <ele>133.2</ele>
        <time>2026-05-24T11:25:36Z</time>
      </trkpt>
      <trkpt lat="48.6104" lon="2.07734">
        <ele>133.2</ele>
        <time>2026-05-24T11:25:37Z</time>
      </trkpt>
      <trkpt lat="48.61036" lon="2.0773">
        <ele>132.6</ele>
        <time>2026-05-24T11:25:38Z</time>
      </trkpt>
      <trkpt lat="48.61033" lon="2.07728">
        <ele>132.6</ele>
        <time>2026-05-24T11:25:39Z</time>
      </trkpt>
      <trkpt lat="48.61029" lon="2.07725">
        <ele>132.6</ele>
        <time>2026-05-24T11:25:40Z</time>
      </trkpt>
      <trkpt lat="48.61025" lon="2.07723">
        <ele>133</ele>
        <time>2026-05-24T11:25:41Z</time>
      </trkpt>
      <trkpt lat="48.61021" lon="2.07719">
        <ele>132.6</ele>
        <time>2026-05-24T11:25:42Z</time>
      </trkpt>
      <trkpt lat="48.61017" lon="2.07715">
        <ele>132.6</ele>
        <time>2026-05-24T11:25:43Z</time>
      </trkpt>
      <trkpt lat="48.61014" lon="2.07711">
        <ele>132.6</ele>
        <time>2026-05-24T11:25:44Z</time>
      </trkpt>
      <trkpt lat="48.6101" lon="2.07707">
        <ele>132.2</ele>
        <time>2026-05-24T11:25:45Z</time>
      </trkpt>
      <trkpt lat="48.61006" lon="2.07702">
        <ele>132.2</ele>
        <time>2026-05-24T11:25:46Z</time>
      </trkpt>
      <trkpt lat="48.61002" lon="2.07698">
        <ele>132.2</ele>
        <time>2026-05-24T11:25:47Z</time>
      </trkpt>
      <trkpt lat="48.60998" lon="2.07693">
        <ele>132.2</ele>
        <time>2026-05-24T11:25:48Z</time>
      </trkpt>
      <trkpt lat="48.60994" lon="2.07687">
        <ele>132.6</ele>
        <time>2026-05-24T11:25:49Z</time>
      </trkpt>
      <trkpt lat="48.6099" lon="2.07682">
        <ele>131.4</ele>
        <time>2026-05-24T11:25:50Z</time>
      </trkpt>
      <trkpt lat="48.60986" lon="2.07677">
        <ele>131.4</ele>
        <time>2026-05-24T11:25:51Z</time>
      </trkpt>
      <trkpt lat="48.60983" lon="2.07673">
        <ele>131.4</ele>
        <time>2026-05-24T11:25:52Z</time>
      </trkpt>
      <trkpt lat="48.60979" lon="2.07667">
        <ele>132.4</ele>
        <time>2026-05-24T11:25:53Z</time>
      </trkpt>
      <trkpt lat="48.60975" lon="2.07662">
        <ele>131.2</ele>
        <time>2026-05-24T11:25:54Z</time>
      </trkpt>
      <trkpt lat="48.60971" lon="2.07657">
        <ele>131.2</ele>
        <time>2026-05-24T11:25:55Z</time>
      </trkpt>
      <trkpt lat="48.60968" lon="2.07653">
        <ele>131.2</ele>
        <time>2026-05-24T11:25:56Z</time>
      </trkpt>
      <trkpt lat="48.60964" lon="2.07648">
        <ele>132.2</ele>
        <time>2026-05-24T11:25:57Z</time>
      </trkpt>
      <trkpt lat="48.6096" lon="2.07643">
        <ele>132.2</ele>
        <time>2026-05-24T11:25:58Z</time>
      </trkpt>
      <trkpt lat="48.60957" lon="2.07638">
        <ele>132.2</ele>
        <time>2026-05-24T11:25:59Z</time>
      </trkpt>
      <trkpt lat="48.60953" lon="2.07633">
        <ele>132.2</ele>
        <time>2026-05-24T11:26:00Z</time>
      </trkpt>
      <trkpt lat="48.6095" lon="2.07628">
        <ele>132.2</ele>
        <time>2026-05-24T11:26:01Z</time>
      </trkpt>
      <trkpt lat="48.60946" lon="2.07624">
        <ele>132</ele>
        <time>2026-05-24T11:26:02Z</time>
      </trkpt>
      <trkpt lat="48.60942" lon="2.0762">
        <ele>132</ele>
        <time>2026-05-24T11:26:03Z</time>
      </trkpt>
      <trkpt lat="48.60938" lon="2.07617">
        <ele>132</ele>
        <time>2026-05-24T11:26:04Z</time>
      </trkpt>
      <trkpt lat="48.60934" lon="2.07614">
        <ele>133</ele>
        <time>2026-05-24T11:26:05Z</time>
      </trkpt>
      <trkpt lat="48.6093" lon="2.07612">
        <ele>132.4</ele>
        <time>2026-05-24T11:26:06Z</time>
      </trkpt>
      <trkpt lat="48.60925" lon="2.0761">
        <ele>132.4</ele>
        <time>2026-05-24T11:26:07Z</time>
      </trkpt>
      <trkpt lat="48.60921" lon="2.07608">
        <ele>132.4</ele>
        <time>2026-05-24T11:26:08Z</time>
      </trkpt>
      <trkpt lat="48.60916" lon="2.07607">
        <ele>132.4</ele>
        <time>2026-05-24T11:26:09Z</time>
      </trkpt>
      <trkpt lat="48.60912" lon="2.07605">
        <ele>132.6</ele>
        <time>2026-05-24T11:26:10Z</time>
      </trkpt>
      <trkpt lat="48.60907" lon="2.07603">
        <ele>132.6</ele>
        <time>2026-05-24T11:26:11Z</time>
      </trkpt>
      <trkpt lat="48.60902" lon="2.07601">
        <ele>132.6</ele>
        <time>2026-05-24T11:26:12Z</time>
      </trkpt>
      <trkpt lat="48.60898" lon="2.07599">
        <ele>132.6</ele>
        <time>2026-05-24T11:26:13Z</time>
      </trkpt>
      <trkpt lat="48.60893" lon="2.07597">
        <ele>132.8</ele>
        <time>2026-05-24T11:26:14Z</time>
      </trkpt>
      <trkpt lat="48.60888" lon="2.07595">
        <ele>132.8</ele>
        <time>2026-05-24T11:26:15Z</time>
      </trkpt>
      <trkpt lat="48.60883" lon="2.07593">
        <ele>132.8</ele>
        <time>2026-05-24T11:26:16Z</time>
      </trkpt>
      <trkpt lat="48.60879" lon="2.07591">
        <ele>132.8</ele>
        <time>2026-05-24T11:26:17Z</time>
      </trkpt>
      <trkpt lat="48.60874" lon="2.0759">
        <ele>132.8</ele>
        <time>2026-05-24T11:26:18Z</time>
      </trkpt>
      <trkpt lat="48.60869" lon="2.07588">
        <ele>132.8</ele>
        <time>2026-05-24T11:26:19Z</time>
      </trkpt>
      <trkpt lat="48.60865" lon="2.07586">
        <ele>132.8</ele>
        <time>2026-05-24T11:26:20Z</time>
      </trkpt>
      <trkpt lat="48.6086" lon="2.07584">
        <ele>132.2</ele>
        <time>2026-05-24T11:26:21Z</time>
      </trkpt>
      <trkpt lat="48.60855" lon="2.07582">
        <ele>132.6</ele>
        <time>2026-05-24T11:26:22Z</time>
      </trkpt>
      <trkpt lat="48.60851" lon="2.0758">
        <ele>132.6</ele>
        <time>2026-05-24T11:26:23Z</time>
      </trkpt>
      <trkpt lat="48.60846" lon="2.07578">
        <ele>132.6</ele>
        <time>2026-05-24T11:26:24Z</time>
      </trkpt>
      <trkpt lat="48.60842" lon="2.07577">
        <ele>133.2</ele>
        <time>2026-05-24T11:26:25Z</time>
      </trkpt>
      <trkpt lat="48.60837" lon="2.07575">
        <ele>132.2</ele>
        <time>2026-05-24T11:26:26Z</time>
      </trkpt>
      <trkpt lat="48.60833" lon="2.07573">
        <ele>132.2</ele>
        <time>2026-05-24T11:26:27Z</time>
      </trkpt>
      <trkpt lat="48.60828" lon="2.07571">
        <ele>132.2</ele>
        <time>2026-05-24T11:26:28Z</time>
      </trkpt>
      <trkpt lat="48.60824" lon="2.07569">
        <ele>133.2</ele>
        <time>2026-05-24T11:26:29Z</time>
      </trkpt>
      <trkpt lat="48.60819" lon="2.07567">
        <ele>133</ele>
        <time>2026-05-24T11:26:30Z</time>
      </trkpt>
      <trkpt lat="48.60814" lon="2.07565">
        <ele>133</ele>
        <time>2026-05-24T11:26:31Z</time>
      </trkpt>
      <trkpt lat="48.6081" lon="2.07563">
        <ele>133</ele>
        <time>2026-05-24T11:26:32Z</time>
      </trkpt>
      <trkpt lat="48.60805" lon="2.07561">
        <ele>133</ele>
        <time>2026-05-24T11:26:33Z</time>
      </trkpt>
      <trkpt lat="48.60801" lon="2.07559">
        <ele>134</ele>
        <time>2026-05-24T11:26:34Z</time>
      </trkpt>
      <trkpt lat="48.60797" lon="2.07557">
        <ele>134</ele>
        <time>2026-05-24T11:26:35Z</time>
      </trkpt>
      <trkpt lat="48.60793" lon="2.07556">
        <ele>134</ele>
        <time>2026-05-24T11:26:36Z</time>
      </trkpt>
      <trkpt lat="48.60788" lon="2.07554">
        <ele>133.4</ele>
        <time>2026-05-24T11:26:37Z</time>
      </trkpt>
      <trkpt lat="48.60784" lon="2.07552">
        <ele>133.4</ele>
        <time>2026-05-24T11:26:38Z</time>
      </trkpt>
      <trkpt lat="48.6078" lon="2.0755">
        <ele>133.4</ele>
        <time>2026-05-24T11:26:39Z</time>
      </trkpt>
      <trkpt lat="48.60776" lon="2.07548">
        <ele>133.4</ele>
        <time>2026-05-24T11:26:40Z</time>
      </trkpt>
      <trkpt lat="48.60771" lon="2.07547">
        <ele>133.4</ele>
        <time>2026-05-24T11:26:41Z</time>
      </trkpt>
      <trkpt lat="48.60766" lon="2.07545">
        <ele>133.2</ele>
        <time>2026-05-24T11:26:42Z</time>
      </trkpt>
      <trkpt lat="48.60761" lon="2.07543">
        <ele>133.2</ele>
        <time>2026-05-24T11:26:43Z</time>
      </trkpt>
      <trkpt lat="48.60756" lon="2.07541">
        <ele>133.2</ele>
        <time>2026-05-24T11:26:44Z</time>
      </trkpt>
      <trkpt lat="48.60751" lon="2.07539">
        <ele>133.2</ele>
        <time>2026-05-24T11:26:45Z</time>
      </trkpt>
      <trkpt lat="48.60746" lon="2.07537">
        <ele>133</ele>
        <time>2026-05-24T11:26:46Z</time>
      </trkpt>
      <trkpt lat="48.60741" lon="2.07535">
        <ele>133</ele>
        <time>2026-05-24T11:26:47Z</time>
      </trkpt>
      <trkpt lat="48.60736" lon="2.07533">
        <ele>133</ele>
        <time>2026-05-24T11:26:48Z</time>
      </trkpt>
      <trkpt lat="48.60731" lon="2.07531">
        <ele>133</ele>
        <time>2026-05-24T11:26:49Z</time>
      </trkpt>
      <trkpt lat="48.60726" lon="2.07529">
        <ele>133</ele>
        <time>2026-05-24T11:26:50Z</time>
      </trkpt>
      <trkpt lat="48.60722" lon="2.07527">
        <ele>133</ele>
        <time>2026-05-24T11:26:51Z</time>
      </trkpt>
      <trkpt lat="48.60717" lon="2.07526">
        <ele>133</ele>
        <time>2026-05-24T11:26:52Z</time>
      </trkpt>
      <trkpt lat="48.60712" lon="2.07524">
        <ele>133</ele>
        <time>2026-05-24T11:26:53Z</time>
      </trkpt>
      <trkpt lat="48.60707" lon="2.07522">
        <ele>132.6</ele>
        <time>2026-05-24T11:26:54Z</time>
      </trkpt>
      <trkpt lat="48.60703" lon="2.07521">
        <ele>132.6</ele>
        <time>2026-05-24T11:26:55Z</time>
      </trkpt>
      <trkpt lat="48.60698" lon="2.07519">
        <ele>132.6</ele>
        <time>2026-05-24T11:26:56Z</time>
      </trkpt>
      <trkpt lat="48.60693" lon="2.07517">
        <ele>132.6</ele>
        <time>2026-05-24T11:26:57Z</time>
      </trkpt>
      <trkpt lat="48.60688" lon="2.07515">
        <ele>132.8</ele>
        <time>2026-05-24T11:26:58Z</time>
      </trkpt>
      <trkpt lat="48.60683" lon="2.07513">
        <ele>132.8</ele>
        <time>2026-05-24T11:26:59Z</time>
      </trkpt>
      <trkpt lat="48.60678" lon="2.07511">
        <ele>132.8</ele>
        <time>2026-05-24T11:27:00Z</time>
      </trkpt>
      <trkpt lat="48.60673" lon="2.07509">
        <ele>132.2</ele>
        <time>2026-05-24T11:27:01Z</time>
      </trkpt>
      <trkpt lat="48.60668" lon="2.07507">
        <ele>132.6</ele>
        <time>2026-05-24T11:27:02Z</time>
      </trkpt>
      <trkpt lat="48.60662" lon="2.07505">
        <ele>132.6</ele>
        <time>2026-05-24T11:27:03Z</time>
      </trkpt>
      <trkpt lat="48.60657" lon="2.07503">
        <ele>132.6</ele>
        <time>2026-05-24T11:27:04Z</time>
      </trkpt>
      <trkpt lat="48.60652" lon="2.07501">
        <ele>132.2</ele>
        <time>2026-05-24T11:27:05Z</time>
      </trkpt>
      <trkpt lat="48.60647" lon="2.075">
        <ele>132</ele>
        <time>2026-05-24T11:27:06Z</time>
      </trkpt>
      <trkpt lat="48.60642" lon="2.07498">
        <ele>132</ele>
        <time>2026-05-24T11:27:07Z</time>
      </trkpt>
      <trkpt lat="48.60637" lon="2.07496">
        <ele>132</ele>
        <time>2026-05-24T11:27:08Z</time>
      </trkpt>
      <trkpt lat="48.60632" lon="2.07495">
        <ele>133</ele>
        <time>2026-05-24T11:27:09Z</time>
      </trkpt>
      <trkpt lat="48.60627" lon="2.07493">
        <ele>133.6</ele>
        <time>2026-05-24T11:27:10Z</time>
      </trkpt>
      <trkpt lat="48.60622" lon="2.07491">
        <ele>133.6</ele>
        <time>2026-05-24T11:27:11Z</time>
      </trkpt>
      <trkpt lat="48.60617" lon="2.0749">
        <ele>133.6</ele>
        <time>2026-05-24T11:27:12Z</time>
      </trkpt>
      <trkpt lat="48.60612" lon="2.07488">
        <ele>132.6</ele>
        <time>2026-05-24T11:27:13Z</time>
      </trkpt>
      <trkpt lat="48.60607" lon="2.07487">
        <ele>133</ele>
        <time>2026-05-24T11:27:14Z</time>
      </trkpt>
      <trkpt lat="48.60602" lon="2.07485">
        <ele>133</ele>
        <time>2026-05-24T11:27:15Z</time>
      </trkpt>
      <trkpt lat="48.60598" lon="2.07484">
        <ele>133</ele>
        <time>2026-05-24T11:27:16Z</time>
      </trkpt>
      <trkpt lat="48.60593" lon="2.07482">
        <ele>132.8</ele>
        <time>2026-05-24T11:27:17Z</time>
      </trkpt>
      <trkpt lat="48.60588" lon="2.0748">
        <ele>132.8</ele>
        <time>2026-05-24T11:27:18Z</time>
      </trkpt>
      <trkpt lat="48.60583" lon="2.07479">
        <ele>132.8</ele>
        <time>2026-05-24T11:27:19Z</time>
      </trkpt>
      <trkpt lat="48.60578" lon="2.07477">
        <ele>132.8</ele>
        <time>2026-05-24T11:27:20Z</time>
      </trkpt>
      <trkpt lat="48.60573" lon="2.07476">
        <ele>133.8</ele>
        <time>2026-05-24T11:27:21Z</time>
      </trkpt>
      <trkpt lat="48.60569" lon="2.07474">
        <ele>133.4</ele>
        <time>2026-05-24T11:27:22Z</time>
      </trkpt>
      <trkpt lat="48.60564" lon="2.07472">
        <ele>133.4</ele>
        <time>2026-05-24T11:27:23Z</time>
      </trkpt>
      <trkpt lat="48.6056" lon="2.0747">
        <ele>133.4</ele>
        <time>2026-05-24T11:27:24Z</time>
      </trkpt>
      <trkpt lat="48.60555" lon="2.07469">
        <ele>133.4</ele>
        <time>2026-05-24T11:27:25Z</time>
      </trkpt>
      <trkpt lat="48.6055" lon="2.07467">
        <ele>132.8</ele>
        <time>2026-05-24T11:27:26Z</time>
      </trkpt>
      <trkpt lat="48.60546" lon="2.07465">
        <ele>132.8</ele>
        <time>2026-05-24T11:27:27Z</time>
      </trkpt>
      <trkpt lat="48.60541" lon="2.07464">
        <ele>132.8</ele>
        <time>2026-05-24T11:27:28Z</time>
      </trkpt>
      <trkpt lat="48.60537" lon="2.07461">
        <ele>132.6</ele>
        <time>2026-05-24T11:27:29Z</time>
      </trkpt>
      <trkpt lat="48.60533" lon="2.07459">
        <ele>132.4</ele>
        <time>2026-05-24T11:27:30Z</time>
      </trkpt>
      <trkpt lat="48.60528" lon="2.07457">
        <ele>132.4</ele>
        <time>2026-05-24T11:27:31Z</time>
      </trkpt>
      <trkpt lat="48.60524" lon="2.07455">
        <ele>132.4</ele>
        <time>2026-05-24T11:27:32Z</time>
      </trkpt>
      <trkpt lat="48.60519" lon="2.07454">
        <ele>132.4</ele>
        <time>2026-05-24T11:27:33Z</time>
      </trkpt>
      <trkpt lat="48.60514" lon="2.07452">
        <ele>132.2</ele>
        <time>2026-05-24T11:27:34Z</time>
      </trkpt>
      <trkpt lat="48.6051" lon="2.07451">
        <ele>132.2</ele>
        <time>2026-05-24T11:27:35Z</time>
      </trkpt>
      <trkpt lat="48.60505" lon="2.07449">
        <ele>132.2</ele>
        <time>2026-05-24T11:27:36Z</time>
      </trkpt>
      <trkpt lat="48.605" lon="2.07448">
        <ele>132.2</ele>
        <time>2026-05-24T11:27:37Z</time>
      </trkpt>
      <trkpt lat="48.60496" lon="2.07446">
        <ele>132.2</ele>
        <time>2026-05-24T11:27:38Z</time>
      </trkpt>
      <trkpt lat="48.60491" lon="2.07445">
        <ele>132.2</ele>
        <time>2026-05-24T11:27:39Z</time>
      </trkpt>
      <trkpt lat="48.60487" lon="2.07443">
        <ele>132.2</ele>
        <time>2026-05-24T11:27:40Z</time>
      </trkpt>
      <trkpt lat="48.60483" lon="2.07439">
        <ele>131.2</ele>
        <time>2026-05-24T11:27:41Z</time>
      </trkpt>
      <trkpt lat="48.60481" lon="2.07434">
        <ele>131</ele>
        <time>2026-05-24T11:27:42Z</time>
      </trkpt>
      <trkpt lat="48.60481" lon="2.07428">
        <ele>131</ele>
        <time>2026-05-24T11:27:43Z</time>
      </trkpt>
      <trkpt lat="48.60481" lon="2.07421">
        <ele>131</ele>
        <time>2026-05-24T11:27:44Z</time>
      </trkpt>
      <trkpt lat="48.60481" lon="2.07415">
        <ele>131</ele>
        <time>2026-05-24T11:27:45Z</time>
      </trkpt>
      <trkpt lat="48.6048" lon="2.07407">
        <ele>130.8</ele>
        <time>2026-05-24T11:27:46Z</time>
      </trkpt>
      <trkpt lat="48.60479" lon="2.07399">
        <ele>130.8</ele>
        <time>2026-05-24T11:27:47Z</time>
      </trkpt>
      <trkpt lat="48.60479" lon="2.0739">
        <ele>130.8</ele>
        <time>2026-05-24T11:27:48Z</time>
      </trkpt>
      <trkpt lat="48.60478" lon="2.07381">
        <ele>130.8</ele>
        <time>2026-05-24T11:27:49Z</time>
      </trkpt>
      <trkpt lat="48.60478" lon="2.07373">
        <ele>128.6</ele>
        <time>2026-05-24T11:27:50Z</time>
      </trkpt>
      <trkpt lat="48.60478" lon="2.07364">
        <ele>128.6</ele>
        <time>2026-05-24T11:27:51Z</time>
      </trkpt>
      <trkpt lat="48.60478" lon="2.07356">
        <ele>128.6</ele>
        <time>2026-05-24T11:27:52Z</time>
      </trkpt>
      <trkpt lat="48.60478" lon="2.0735">
        <ele>128.6</ele>
        <time>2026-05-24T11:27:53Z</time>
      </trkpt>
      <trkpt lat="48.60477" lon="2.07346">
        <ele>128.4</ele>
        <time>2026-05-24T11:27:54Z</time>
      </trkpt>
      <trkpt lat="48.60477" lon="2.07343">
        <ele>128.4</ele>
        <time>2026-05-24T11:27:55Z</time>
      </trkpt>
      <trkpt lat="48.60477" lon="2.07343">
        <ele>128.4</ele>
        <time>2026-05-24T11:27:56Z</time>
      </trkpt>
      <trkpt lat="48.60477" lon="2.07343">
        <ele>128.4</ele>
        <time>2026-05-24T11:27:57Z</time>
      </trkpt>
      <trkpt lat="48.60478" lon="2.07337">
        <ele>128.6</ele>
        <time>2026-05-24T11:28:02Z</time>
      </trkpt>
      <trkpt lat="48.60477" lon="2.07333">
        <ele>128.6</ele>
        <time>2026-05-24T11:28:03Z</time>
      </trkpt>
      <trkpt lat="48.60477" lon="2.07329">
        <ele>128.6</ele>
        <time>2026-05-24T11:28:04Z</time>
      </trkpt>
      <trkpt lat="48.60476" lon="2.07324">
        <ele>127.6</ele>
        <time>2026-05-24T11:28:05Z</time>
      </trkpt>
      <trkpt lat="48.60476" lon="2.07318">
        <ele>128</ele>
        <time>2026-05-24T11:28:06Z</time>
      </trkpt>
      <trkpt lat="48.60475" lon="2.07312">
        <ele>128</ele>
        <time>2026-05-24T11:28:07Z</time>
      </trkpt>
      <trkpt lat="48.60474" lon="2.07306">
        <ele>128</ele>
        <time>2026-05-24T11:28:08Z</time>
      </trkpt>
      <trkpt lat="48.60474" lon="2.073">
        <ele>127.6</ele>
        <time>2026-05-24T11:28:09Z</time>
      </trkpt>
      <trkpt lat="48.60474" lon="2.07293">
        <ele>127</ele>
        <time>2026-05-24T11:28:10Z</time>
      </trkpt>
      <trkpt lat="48.60474" lon="2.07287">
        <ele>127</ele>
        <time>2026-05-24T11:28:11Z</time>
      </trkpt>
      <trkpt lat="48.60474" lon="2.0728">
        <ele>127</ele>
        <time>2026-05-24T11:28:12Z</time>
      </trkpt>
      <trkpt lat="48.60473" lon="2.07274">
        <ele>127</ele>
        <time>2026-05-24T11:28:13Z</time>
      </trkpt>
      <trkpt lat="48.60473" lon="2.07267">
        <ele>126.8</ele>
        <time>2026-05-24T11:28:14Z</time>
      </trkpt>
      <trkpt lat="48.60473" lon="2.07261">
        <ele>126.8</ele>
        <time>2026-05-24T11:28:15Z</time>
      </trkpt>
      <trkpt lat="48.60472" lon="2.07255">
        <ele>126.8</ele>
        <time>2026-05-24T11:28:16Z</time>
      </trkpt>
      <trkpt lat="48.60472" lon="2.07249">
        <ele>126.8</ele>
        <time>2026-05-24T11:28:17Z</time>
      </trkpt>
      <trkpt lat="48.60472" lon="2.07244">
        <ele>126.4</ele>
        <time>2026-05-24T11:28:18Z</time>
      </trkpt>
      <trkpt lat="48.60472" lon="2.07238">
        <ele>126.4</ele>
        <time>2026-05-24T11:28:19Z</time>
      </trkpt>
      <trkpt lat="48.60471" lon="2.07232">
        <ele>126.4</ele>
        <time>2026-05-24T11:28:20Z</time>
      </trkpt>
      <trkpt lat="48.60471" lon="2.07226">
        <ele>126.4</ele>
        <time>2026-05-24T11:28:21Z</time>
      </trkpt>
      <trkpt lat="48.6047" lon="2.07219">
        <ele>126.8</ele>
        <time>2026-05-24T11:28:22Z</time>
      </trkpt>
      <trkpt lat="48.6047" lon="2.07212">
        <ele>126.8</ele>
        <time>2026-05-24T11:28:23Z</time>
      </trkpt>
      <trkpt lat="48.6047" lon="2.07204">
        <ele>126.8</ele>
        <time>2026-05-24T11:28:24Z</time>
      </trkpt>
      <trkpt lat="48.60469" lon="2.07197">
        <ele>126.4</ele>
        <time>2026-05-24T11:28:25Z</time>
      </trkpt>
      <trkpt lat="48.60469" lon="2.07189">
        <ele>126</ele>
        <time>2026-05-24T11:28:26Z</time>
      </trkpt>
      <trkpt lat="48.60469" lon="2.07182">
        <ele>126</ele>
        <time>2026-05-24T11:28:27Z</time>
      </trkpt>
      <trkpt lat="48.60469" lon="2.07174">
        <ele>126</ele>
        <time>2026-05-24T11:28:28Z</time>
      </trkpt>
      <trkpt lat="48.60468" lon="2.07166">
        <ele>126</ele>
        <time>2026-05-24T11:28:29Z</time>
      </trkpt>
      <trkpt lat="48.60468" lon="2.07158">
        <ele>125.8</ele>
        <time>2026-05-24T11:28:30Z</time>
      </trkpt>
      <trkpt lat="48.60468" lon="2.0715">
        <ele>125.8</ele>
        <time>2026-05-24T11:28:31Z</time>
      </trkpt>
      <trkpt lat="48.60467" lon="2.07142">
        <ele>125.8</ele>
        <time>2026-05-24T11:28:32Z</time>
      </trkpt>
      <trkpt lat="48.60467" lon="2.07134">
        <ele>125.2</ele>
        <time>2026-05-24T11:28:33Z</time>
      </trkpt>
      <trkpt lat="48.60467" lon="2.07126">
        <ele>125.2</ele>
        <time>2026-05-24T11:28:34Z</time>
      </trkpt>
      <trkpt lat="48.60466" lon="2.07118">
        <ele>125.2</ele>
        <time>2026-05-24T11:28:35Z</time>
      </trkpt>
      <trkpt lat="48.60466" lon="2.0711">
        <ele>125.2</ele>
        <time>2026-05-24T11:28:36Z</time>
      </trkpt>
      <trkpt lat="48.60465" lon="2.07103">
        <ele>125.2</ele>
        <time>2026-05-24T11:28:37Z</time>
      </trkpt>
      <trkpt lat="48.60465" lon="2.07095">
        <ele>124.6</ele>
        <time>2026-05-24T11:28:38Z</time>
      </trkpt>
      <trkpt lat="48.60464" lon="2.07087">
        <ele>124.6</ele>
        <time>2026-05-24T11:28:39Z</time>
      </trkpt>
      <trkpt lat="48.60464" lon="2.07079">
        <ele>124.6</ele>
        <time>2026-05-24T11:28:40Z</time>
      </trkpt>
      <trkpt lat="48.60464" lon="2.07072">
        <ele>124.6</ele>
        <time>2026-05-24T11:28:41Z</time>
      </trkpt>
      <trkpt lat="48.60464" lon="2.07064">
        <ele>124.2</ele>
        <time>2026-05-24T11:28:42Z</time>
      </trkpt>
      <trkpt lat="48.60465" lon="2.07056">
        <ele>124.2</ele>
        <time>2026-05-24T11:28:43Z</time>
      </trkpt>
      <trkpt lat="48.60468" lon="2.07049">
        <ele>124.2</ele>
        <time>2026-05-24T11:28:44Z</time>
      </trkpt>
      <trkpt lat="48.60471" lon="2.07043">
        <ele>124.2</ele>
        <time>2026-05-24T11:28:45Z</time>
      </trkpt>
      <trkpt lat="48.60474" lon="2.07037">
        <ele>125</ele>
        <time>2026-05-24T11:28:46Z</time>
      </trkpt>
      <trkpt lat="48.60477" lon="2.07031">
        <ele>125</ele>
        <time>2026-05-24T11:28:47Z</time>
      </trkpt>
      <trkpt lat="48.6048" lon="2.07025">
        <ele>125</ele>
        <time>2026-05-24T11:28:48Z</time>
      </trkpt>
      <trkpt lat="48.60483" lon="2.07019">
        <ele>125</ele>
        <time>2026-05-24T11:28:49Z</time>
      </trkpt>
      <trkpt lat="48.60485" lon="2.07013">
        <ele>124.4</ele>
        <time>2026-05-24T11:28:50Z</time>
      </trkpt>
      <trkpt lat="48.60488" lon="2.07007">
        <ele>124.4</ele>
        <time>2026-05-24T11:28:51Z</time>
      </trkpt>
      <trkpt lat="48.6049" lon="2.07002">
        <ele>124.4</ele>
        <time>2026-05-24T11:28:52Z</time>
      </trkpt>
      <trkpt lat="48.60491" lon="2.06999">
        <ele>124.4</ele>
        <time>2026-05-24T11:28:53Z</time>
      </trkpt>
      <trkpt lat="48.60493" lon="2.06997">
        <ele>124.6</ele>
        <time>2026-05-24T11:28:54Z</time>
      </trkpt>
      <trkpt lat="48.60494" lon="2.06995">
        <ele>124.6</ele>
        <time>2026-05-24T11:28:55Z</time>
      </trkpt>
      <trkpt lat="48.60495" lon="2.06993">
        <ele>124.6</ele>
        <time>2026-05-24T11:28:56Z</time>
      </trkpt>
      <trkpt lat="48.60496" lon="2.0699">
        <ele>124.6</ele>
        <time>2026-05-24T11:28:57Z</time>
      </trkpt>
      <trkpt lat="48.60496" lon="2.06985">
        <ele>124.6</ele>
        <time>2026-05-24T11:28:58Z</time>
      </trkpt>
      <trkpt lat="48.60496" lon="2.0698">
        <ele>124.6</ele>
        <time>2026-05-24T11:28:59Z</time>
      </trkpt>
      <trkpt lat="48.60497" lon="2.06974">
        <ele>124.6</ele>
        <time>2026-05-24T11:29:00Z</time>
      </trkpt>
      <trkpt lat="48.60498" lon="2.06968">
        <ele>124.6</ele>
        <time>2026-05-24T11:29:01Z</time>
      </trkpt>
      <trkpt lat="48.605" lon="2.06962">
        <ele>124.6</ele>
        <time>2026-05-24T11:29:02Z</time>
      </trkpt>
      <trkpt lat="48.60501" lon="2.06955">
        <ele>124.6</ele>
        <time>2026-05-24T11:29:03Z</time>
      </trkpt>
      <trkpt lat="48.60503" lon="2.06949">
        <ele>124.6</ele>
        <time>2026-05-24T11:29:04Z</time>
      </trkpt>
      <trkpt lat="48.60504" lon="2.06943">
        <ele>124.6</ele>
        <time>2026-05-24T11:29:05Z</time>
      </trkpt>
      <trkpt lat="48.60506" lon="2.06936">
        <ele>125</ele>
        <time>2026-05-24T11:29:06Z</time>
      </trkpt>
      <trkpt lat="48.60507" lon="2.0693">
        <ele>125</ele>
        <time>2026-05-24T11:29:07Z</time>
      </trkpt>
      <trkpt lat="48.60509" lon="2.06923">
        <ele>125</ele>
        <time>2026-05-24T11:29:08Z</time>
      </trkpt>
      <trkpt lat="48.6051" lon="2.06917">
        <ele>125</ele>
        <time>2026-05-24T11:29:09Z</time>
      </trkpt>
      <trkpt lat="48.60512" lon="2.0691">
        <ele>125</ele>
        <time>2026-05-24T11:29:10Z</time>
      </trkpt>
      <trkpt lat="48.60513" lon="2.06904">
        <ele>125</ele>
        <time>2026-05-24T11:29:11Z</time>
      </trkpt>
      <trkpt lat="48.60514" lon="2.06897">
        <ele>125</ele>
        <time>2026-05-24T11:29:12Z</time>
      </trkpt>
      <trkpt lat="48.60516" lon="2.06891">
        <ele>125</ele>
        <time>2026-05-24T11:29:13Z</time>
      </trkpt>
      <trkpt lat="48.60517" lon="2.06884">
        <ele>125.2</ele>
        <time>2026-05-24T11:29:14Z</time>
      </trkpt>
      <trkpt lat="48.60518" lon="2.06878">
        <ele>125.2</ele>
        <time>2026-05-24T11:29:15Z</time>
      </trkpt>
      <trkpt lat="48.6052" lon="2.06872">
        <ele>125.2</ele>
        <time>2026-05-24T11:29:16Z</time>
      </trkpt>
      <trkpt lat="48.60522" lon="2.06866">
        <ele>125.2</ele>
        <time>2026-05-24T11:29:17Z</time>
      </trkpt>
      <trkpt lat="48.60523" lon="2.0686">
        <ele>125</ele>
        <time>2026-05-24T11:29:18Z</time>
      </trkpt>
      <trkpt lat="48.60524" lon="2.06854">
        <ele>125</ele>
        <time>2026-05-24T11:29:19Z</time>
      </trkpt>
      <trkpt lat="48.60526" lon="2.06849">
        <ele>125</ele>
        <time>2026-05-24T11:29:20Z</time>
      </trkpt>
      <trkpt lat="48.60528" lon="2.06844">
        <ele>125.4</ele>
        <time>2026-05-24T11:29:21Z</time>
      </trkpt>
      <trkpt lat="48.6053" lon="2.06839">
        <ele>126</ele>
        <time>2026-05-24T11:29:22Z</time>
      </trkpt>
      <trkpt lat="48.60532" lon="2.06834">
        <ele>126</ele>
        <time>2026-05-24T11:29:23Z</time>
      </trkpt>
      <trkpt lat="48.60534" lon="2.0683">
        <ele>126</ele>
        <time>2026-05-24T11:29:24Z</time>
      </trkpt>
      <trkpt lat="48.60536" lon="2.06825">
        <ele>126.4</ele>
        <time>2026-05-24T11:29:25Z</time>
      </trkpt>
      <trkpt lat="48.60538" lon="2.06821">
        <ele>126.6</ele>
        <time>2026-05-24T11:29:26Z</time>
      </trkpt>
      <trkpt lat="48.6054" lon="2.06816">
        <ele>126.6</ele>
        <time>2026-05-24T11:29:27Z</time>
      </trkpt>
      <trkpt lat="48.60542" lon="2.06812">
        <ele>126.6</ele>
        <time>2026-05-24T11:29:28Z</time>
      </trkpt>
      <trkpt lat="48.60544" lon="2.06807">
        <ele>126.6</ele>
        <time>2026-05-24T11:29:29Z</time>
      </trkpt>
      <trkpt lat="48.60545" lon="2.06803">
        <ele>126.4</ele>
        <time>2026-05-24T11:29:30Z</time>
      </trkpt>
      <trkpt lat="48.60547" lon="2.06797">
        <ele>126.4</ele>
        <time>2026-05-24T11:29:31Z</time>
      </trkpt>
      <trkpt lat="48.60549" lon="2.06792">
        <ele>126.4</ele>
        <time>2026-05-24T11:29:32Z</time>
      </trkpt>
      <trkpt lat="48.60551" lon="2.06788">
        <ele>126.2</ele>
        <time>2026-05-24T11:29:33Z</time>
      </trkpt>
      <trkpt lat="48.60553" lon="2.06783">
        <ele>126</ele>
        <time>2026-05-24T11:29:34Z</time>
      </trkpt>
      <trkpt lat="48.60555" lon="2.06778">
        <ele>126</ele>
        <time>2026-05-24T11:29:35Z</time>
      </trkpt>
      <trkpt lat="48.60556" lon="2.06774">
        <ele>126</ele>
        <time>2026-05-24T11:29:36Z</time>
      </trkpt>
      <trkpt lat="48.60558" lon="2.06769">
        <ele>126.6</ele>
        <time>2026-05-24T11:29:37Z</time>
      </trkpt>
      <trkpt lat="48.6056" lon="2.06765">
        <ele>127</ele>
        <time>2026-05-24T11:29:38Z</time>
      </trkpt>
      <trkpt lat="48.6056" lon="2.0676">
        <ele>127</ele>
        <time>2026-05-24T11:29:39Z</time>
      </trkpt>
      <trkpt lat="48.60562" lon="2.06756">
        <ele>127</ele>
        <time>2026-05-24T11:29:40Z</time>
      </trkpt>
      <trkpt lat="48.60563" lon="2.06752">
        <ele>126.8</ele>
        <time>2026-05-24T11:29:41Z</time>
      </trkpt>
      <trkpt lat="48.60564" lon="2.06747">
        <ele>126.6</ele>
        <time>2026-05-24T11:29:42Z</time>
      </trkpt>
      <trkpt lat="48.60566" lon="2.06742">
        <ele>126.6</ele>
        <time>2026-05-24T11:29:43Z</time>
      </trkpt>
      <trkpt lat="48.60567" lon="2.06737">
        <ele>126.6</ele>
        <time>2026-05-24T11:29:44Z</time>
      </trkpt>
      <trkpt lat="48.60568" lon="2.06733">
        <ele>126.6</ele>
        <time>2026-05-24T11:29:45Z</time>
      </trkpt>
      <trkpt lat="48.6057" lon="2.0673">
        <ele>126.2</ele>
        <time>2026-05-24T11:29:46Z</time>
      </trkpt>
      <trkpt lat="48.60572" lon="2.06726">
        <ele>126.2</ele>
        <time>2026-05-24T11:29:47Z</time>
      </trkpt>
      <trkpt lat="48.60574" lon="2.06721">
        <ele>126.2</ele>
        <time>2026-05-24T11:29:48Z</time>
      </trkpt>
      <trkpt lat="48.60575" lon="2.06717">
        <ele>126.2</ele>
        <time>2026-05-24T11:29:49Z</time>
      </trkpt>
      <trkpt lat="48.60576" lon="2.06713">
        <ele>127.6</ele>
        <time>2026-05-24T11:29:50Z</time>
      </trkpt>
      <trkpt lat="48.60577" lon="2.06709">
        <ele>127.6</ele>
        <time>2026-05-24T11:29:51Z</time>
      </trkpt>
      <trkpt lat="48.60579" lon="2.06705">
        <ele>127.6</ele>
        <time>2026-05-24T11:29:52Z</time>
      </trkpt>
      <trkpt lat="48.60581" lon="2.06702">
        <ele>127.4</ele>
        <time>2026-05-24T11:29:53Z</time>
      </trkpt>
      <trkpt lat="48.60581" lon="2.06698">
        <ele>127.4</ele>
        <time>2026-05-24T11:29:54Z</time>
      </trkpt>
      <trkpt lat="48.60583" lon="2.06695">
        <ele>127.4</ele>
        <time>2026-05-24T11:29:55Z</time>
      </trkpt>
      <trkpt lat="48.60584" lon="2.06691">
        <ele>127.4</ele>
        <time>2026-05-24T11:29:56Z</time>
      </trkpt>
      <trkpt lat="48.60585" lon="2.06686">
        <ele>127.6</ele>
        <time>2026-05-24T11:29:57Z</time>
      </trkpt>
      <trkpt lat="48.60585" lon="2.06681">
        <ele>127</ele>
        <time>2026-05-24T11:29:58Z</time>
      </trkpt>
      <trkpt lat="48.60586" lon="2.06677">
        <ele>127</ele>
        <time>2026-05-24T11:29:59Z</time>
      </trkpt>
      <trkpt lat="48.60587" lon="2.06673">
        <ele>127</ele>
        <time>2026-05-24T11:30:00Z</time>
      </trkpt>
      <trkpt lat="48.60587" lon="2.06668">
        <ele>127.2</ele>
        <time>2026-05-24T11:30:01Z</time>
      </trkpt>
      <trkpt lat="48.60587" lon="2.06662">
        <ele>128.2</ele>
        <time>2026-05-24T11:30:02Z</time>
      </trkpt>
      <trkpt lat="48.60588" lon="2.06657">
        <ele>128.2</ele>
        <time>2026-05-24T11:30:03Z</time>
      </trkpt>
      <trkpt lat="48.60589" lon="2.0665">
        <ele>128.2</ele>
        <time>2026-05-24T11:30:04Z</time>
      </trkpt>
      <trkpt lat="48.6059" lon="2.06646">
        <ele>128</ele>
        <time>2026-05-24T11:30:05Z</time>
      </trkpt>
      <trkpt lat="48.60591" lon="2.06642">
        <ele>127.8</ele>
        <time>2026-05-24T11:30:06Z</time>
      </trkpt>
      <trkpt lat="48.60592" lon="2.06636">
        <ele>127.8</ele>
        <time>2026-05-24T11:30:07Z</time>
      </trkpt>
      <trkpt lat="48.60593" lon="2.0663">
        <ele>127.8</ele>
        <time>2026-05-24T11:30:08Z</time>
      </trkpt>
      <trkpt lat="48.60594" lon="2.06625">
        <ele>127.8</ele>
        <time>2026-05-24T11:30:09Z</time>
      </trkpt>
      <trkpt lat="48.60595" lon="2.06621">
        <ele>128.4</ele>
        <time>2026-05-24T11:30:10Z</time>
      </trkpt>
      <trkpt lat="48.60597" lon="2.06617">
        <ele>128.4</ele>
        <time>2026-05-24T11:30:11Z</time>
      </trkpt>
      <trkpt lat="48.60597" lon="2.06611">
        <ele>128.4</ele>
        <time>2026-05-24T11:30:12Z</time>
      </trkpt>
      <trkpt lat="48.60598" lon="2.06605">
        <ele>128.4</ele>
        <time>2026-05-24T11:30:13Z</time>
      </trkpt>
      <trkpt lat="48.606" lon="2.066">
        <ele>128.4</ele>
        <time>2026-05-24T11:30:14Z</time>
      </trkpt>
      <trkpt lat="48.606" lon="2.06595">
        <ele>128.4</ele>
        <time>2026-05-24T11:30:15Z</time>
      </trkpt>
      <trkpt lat="48.60601" lon="2.0659">
        <ele>128.4</ele>
        <time>2026-05-24T11:30:16Z</time>
      </trkpt>
      <trkpt lat="48.60602" lon="2.06585">
        <ele>128.2</ele>
        <time>2026-05-24T11:30:17Z</time>
      </trkpt>
      <trkpt lat="48.60603" lon="2.0658">
        <ele>128.4</ele>
        <time>2026-05-24T11:30:18Z</time>
      </trkpt>
      <trkpt lat="48.60605" lon="2.06576">
        <ele>128.4</ele>
        <time>2026-05-24T11:30:19Z</time>
      </trkpt>
      <trkpt lat="48.60606" lon="2.06572">
        <ele>128.4</ele>
        <time>2026-05-24T11:30:20Z</time>
      </trkpt>
      <trkpt lat="48.60606" lon="2.06568">
        <ele>128.4</ele>
        <time>2026-05-24T11:30:21Z</time>
      </trkpt>
      <trkpt lat="48.60608" lon="2.06563">
        <ele>128</ele>
        <time>2026-05-24T11:30:22Z</time>
      </trkpt>
      <trkpt lat="48.60609" lon="2.0656">
        <ele>128</ele>
        <time>2026-05-24T11:30:23Z</time>
      </trkpt>
      <trkpt lat="48.6061" lon="2.06556">
        <ele>128</ele>
        <time>2026-05-24T11:30:24Z</time>
      </trkpt>
      <trkpt lat="48.60612" lon="2.06552">
        <ele>128.6</ele>
        <time>2026-05-24T11:30:25Z</time>
      </trkpt>
      <trkpt lat="48.60613" lon="2.06547">
        <ele>128.4</ele>
        <time>2026-05-24T11:30:26Z</time>
      </trkpt>
      <trkpt lat="48.60614" lon="2.06543">
        <ele>128.4</ele>
        <time>2026-05-24T11:30:27Z</time>
      </trkpt>
      <trkpt lat="48.60615" lon="2.06538">
        <ele>128.4</ele>
        <time>2026-05-24T11:30:28Z</time>
      </trkpt>
      <trkpt lat="48.60618" lon="2.06534">
        <ele>127.4</ele>
        <time>2026-05-24T11:30:29Z</time>
      </trkpt>
      <trkpt lat="48.6062" lon="2.0653">
        <ele>128.4</ele>
        <time>2026-05-24T11:30:30Z</time>
      </trkpt>
      <trkpt lat="48.60621" lon="2.06526">
        <ele>128.4</ele>
        <time>2026-05-24T11:30:31Z</time>
      </trkpt>
      <trkpt lat="48.60622" lon="2.06521">
        <ele>128.4</ele>
        <time>2026-05-24T11:30:32Z</time>
      </trkpt>
      <trkpt lat="48.60624" lon="2.06517">
        <ele>128.4</ele>
        <time>2026-05-24T11:30:33Z</time>
      </trkpt>
      <trkpt lat="48.60626" lon="2.06511">
        <ele>128.4</ele>
        <time>2026-05-24T11:30:34Z</time>
      </trkpt>
      <trkpt lat="48.60627" lon="2.06508">
        <ele>128.4</ele>
        <time>2026-05-24T11:30:35Z</time>
      </trkpt>
      <trkpt lat="48.60629" lon="2.06504">
        <ele>128.4</ele>
        <time>2026-05-24T11:30:36Z</time>
      </trkpt>
      <trkpt lat="48.6063" lon="2.065">
        <ele>128.4</ele>
        <time>2026-05-24T11:30:37Z</time>
      </trkpt>
      <trkpt lat="48.60631" lon="2.06496">
        <ele>129.8</ele>
        <time>2026-05-24T11:30:38Z</time>
      </trkpt>
      <trkpt lat="48.60633" lon="2.0649">
        <ele>129.8</ele>
        <time>2026-05-24T11:30:39Z</time>
      </trkpt>
      <trkpt lat="48.60635" lon="2.06485">
        <ele>129.8</ele>
        <time>2026-05-24T11:30:40Z</time>
      </trkpt>
      <trkpt lat="48.60637" lon="2.0648">
        <ele>128.8</ele>
        <time>2026-05-24T11:30:41Z</time>
      </trkpt>
      <trkpt lat="48.60639" lon="2.06475">
        <ele>128.4</ele>
        <time>2026-05-24T11:30:42Z</time>
      </trkpt>
      <trkpt lat="48.60641" lon="2.0647">
        <ele>128.4</ele>
        <time>2026-05-24T11:30:43Z</time>
      </trkpt>
      <trkpt lat="48.60642" lon="2.06464">
        <ele>128.4</ele>
        <time>2026-05-24T11:30:44Z</time>
      </trkpt>
      <trkpt lat="48.60643" lon="2.0646">
        <ele>128.4</ele>
        <time>2026-05-24T11:30:45Z</time>
      </trkpt>
      <trkpt lat="48.60644" lon="2.06456">
        <ele>128.6</ele>
        <time>2026-05-24T11:30:46Z</time>
      </trkpt>
      <trkpt lat="48.60647" lon="2.06451">
        <ele>128.6</ele>
        <time>2026-05-24T11:30:47Z</time>
      </trkpt>
      <trkpt lat="48.60649" lon="2.06447">
        <ele>128.6</ele>
        <time>2026-05-24T11:30:48Z</time>
      </trkpt>
      <trkpt lat="48.60651" lon="2.06441">
        <ele>128.8</ele>
        <time>2026-05-24T11:30:49Z</time>
      </trkpt>
      <trkpt lat="48.60656" lon="2.06435">
        <ele>129.2</ele>
        <time>2026-05-24T11:30:50Z</time>
      </trkpt>
      <trkpt lat="48.60659" lon="2.06429">
        <ele>129.2</ele>
        <time>2026-05-24T11:30:51Z</time>
      </trkpt>
      <trkpt lat="48.60662" lon="2.06423">
        <ele>129.2</ele>
        <time>2026-05-24T11:30:52Z</time>
      </trkpt>
      <trkpt lat="48.60666" lon="2.06417">
        <ele>128.8</ele>
        <time>2026-05-24T11:30:53Z</time>
      </trkpt>
      <trkpt lat="48.60667" lon="2.06412">
        <ele>129</ele>
        <time>2026-05-24T11:30:54Z</time>
      </trkpt>
      <trkpt lat="48.6067" lon="2.06409">
        <ele>129</ele>
        <time>2026-05-24T11:30:55Z</time>
      </trkpt>
      <trkpt lat="48.60671" lon="2.06403">
        <ele>129</ele>
        <time>2026-05-24T11:30:56Z</time>
      </trkpt>
      <trkpt lat="48.60672" lon="2.06399">
        <ele>129</ele>
        <time>2026-05-24T11:30:57Z</time>
      </trkpt>
      <trkpt lat="48.60674" lon="2.06395">
        <ele>128.6</ele>
        <time>2026-05-24T11:30:58Z</time>
      </trkpt>
      <trkpt lat="48.60675" lon="2.0639">
        <ele>128.6</ele>
        <time>2026-05-24T11:30:59Z</time>
      </trkpt>
      <trkpt lat="48.60677" lon="2.06387">
        <ele>128.6</ele>
        <time>2026-05-24T11:31:00Z</time>
      </trkpt>
      <trkpt lat="48.60679" lon="2.06383">
        <ele>128.6</ele>
        <time>2026-05-24T11:31:01Z</time>
      </trkpt>
      <trkpt lat="48.60682" lon="2.06379">
        <ele>128.2</ele>
        <time>2026-05-24T11:31:02Z</time>
      </trkpt>
      <trkpt lat="48.60684" lon="2.06375">
        <ele>128.2</ele>
        <time>2026-05-24T11:31:03Z</time>
      </trkpt>
      <trkpt lat="48.60685" lon="2.06371">
        <ele>128.2</ele>
        <time>2026-05-24T11:31:04Z</time>
      </trkpt>
      <trkpt lat="48.60687" lon="2.06366">
        <ele>129.2</ele>
        <time>2026-05-24T11:31:05Z</time>
      </trkpt>
      <trkpt lat="48.6069" lon="2.06362">
        <ele>128.8</ele>
        <time>2026-05-24T11:31:06Z</time>
      </trkpt>
      <trkpt lat="48.60692" lon="2.06357">
        <ele>128.8</ele>
        <time>2026-05-24T11:31:07Z</time>
      </trkpt>
      <trkpt lat="48.60694" lon="2.06353">
        <ele>128.8</ele>
        <time>2026-05-24T11:31:08Z</time>
      </trkpt>
      <trkpt lat="48.60696" lon="2.06349">
        <ele>129</ele>
        <time>2026-05-24T11:31:09Z</time>
      </trkpt>
      <trkpt lat="48.60699" lon="2.06343">
        <ele>128.6</ele>
        <time>2026-05-24T11:31:10Z</time>
      </trkpt>
      <trkpt lat="48.60702" lon="2.06338">
        <ele>128.6</ele>
        <time>2026-05-24T11:31:11Z</time>
      </trkpt>
      <trkpt lat="48.60704" lon="2.06332">
        <ele>128.6</ele>
        <time>2026-05-24T11:31:12Z</time>
      </trkpt>
      <trkpt lat="48.60706" lon="2.06328">
        <ele>128.6</ele>
        <time>2026-05-24T11:31:13Z</time>
      </trkpt>
      <trkpt lat="48.60708" lon="2.06323">
        <ele>128.4</ele>
        <time>2026-05-24T11:31:14Z</time>
      </trkpt>
      <trkpt lat="48.6071" lon="2.06319">
        <ele>128.4</ele>
        <time>2026-05-24T11:31:15Z</time>
      </trkpt>
      <trkpt lat="48.60711" lon="2.06315">
        <ele>128.4</ele>
        <time>2026-05-24T11:31:16Z</time>
      </trkpt>
      <trkpt lat="48.60713" lon="2.06311">
        <ele>128.4</ele>
        <time>2026-05-24T11:31:17Z</time>
      </trkpt>
      <trkpt lat="48.60713" lon="2.06307">
        <ele>128.2</ele>
        <time>2026-05-24T11:31:18Z</time>
      </trkpt>
      <trkpt lat="48.60713" lon="2.06304">
        <ele>128.2</ele>
        <time>2026-05-24T11:31:19Z</time>
      </trkpt>
      <trkpt lat="48.60715" lon="2.063">
        <ele>128.2</ele>
        <time>2026-05-24T11:31:20Z</time>
      </trkpt>
      <trkpt lat="48.60716" lon="2.06296">
        <ele>128.2</ele>
        <time>2026-05-24T11:31:21Z</time>
      </trkpt>
      <trkpt lat="48.60717" lon="2.06293">
        <ele>128.6</ele>
        <time>2026-05-24T11:31:22Z</time>
      </trkpt>
      <trkpt lat="48.60717" lon="2.06291">
        <ele>128.6</ele>
        <time>2026-05-24T11:31:23Z</time>
      </trkpt>
      <trkpt lat="48.60718" lon="2.06288">
        <ele>128.6</ele>
        <time>2026-05-24T11:31:24Z</time>
      </trkpt>
      <trkpt lat="48.60719" lon="2.06286">
        <ele>127.6</ele>
        <time>2026-05-24T11:31:25Z</time>
      </trkpt>
      <trkpt lat="48.60719" lon="2.06284">
        <ele>127.8</ele>
        <time>2026-05-24T11:31:26Z</time>
      </trkpt>
      <trkpt lat="48.6072" lon="2.06281">
        <ele>127.8</ele>
        <time>2026-05-24T11:31:27Z</time>
      </trkpt>
      <trkpt lat="48.6072" lon="2.06278">
        <ele>127.8</ele>
        <time>2026-05-24T11:31:28Z</time>
      </trkpt>
      <trkpt lat="48.6072" lon="2.06275">
        <ele>127</ele>
        <time>2026-05-24T11:31:29Z</time>
      </trkpt>
      <trkpt lat="48.6072" lon="2.06272">
        <ele>128.2</ele>
        <time>2026-05-24T11:31:30Z</time>
      </trkpt>
      <trkpt lat="48.6072" lon="2.06269">
        <ele>128.2</ele>
        <time>2026-05-24T11:31:31Z</time>
      </trkpt>
      <trkpt lat="48.60719" lon="2.06267">
        <ele>128.2</ele>
        <time>2026-05-24T11:31:32Z</time>
      </trkpt>
      <trkpt lat="48.60718" lon="2.06265">
        <ele>127.4</ele>
        <time>2026-05-24T11:31:33Z</time>
      </trkpt>
      <trkpt lat="48.60717" lon="2.06264">
        <ele>127.8</ele>
        <time>2026-05-24T11:31:34Z</time>
      </trkpt>
      <trkpt lat="48.60716" lon="2.06263">
        <ele>127.8</ele>
        <time>2026-05-24T11:31:35Z</time>
      </trkpt>
      <trkpt lat="48.60714" lon="2.06261">
        <ele>127.8</ele>
        <time>2026-05-24T11:31:36Z</time>
      </trkpt>
      <trkpt lat="48.60711" lon="2.0626">
        <ele>127.6</ele>
        <time>2026-05-24T11:31:37Z</time>
      </trkpt>
      <trkpt lat="48.60708" lon="2.06259">
        <ele>127.8</ele>
        <time>2026-05-24T11:31:38Z</time>
      </trkpt>
      <trkpt lat="48.60705" lon="2.06258">
        <ele>127.8</ele>
        <time>2026-05-24T11:31:39Z</time>
      </trkpt>
      <trkpt lat="48.60702" lon="2.06257">
        <ele>127.8</ele>
        <time>2026-05-24T11:31:40Z</time>
      </trkpt>
      <trkpt lat="48.60699" lon="2.06255">
        <ele>127.4</ele>
        <time>2026-05-24T11:31:41Z</time>
      </trkpt>
      <trkpt lat="48.60695" lon="2.06253">
        <ele>127.4</ele>
        <time>2026-05-24T11:31:42Z</time>
      </trkpt>
      <trkpt lat="48.60692" lon="2.06251">
        <ele>127.4</ele>
        <time>2026-05-24T11:31:43Z</time>
      </trkpt>
      <trkpt lat="48.60688" lon="2.0625">
        <ele>127.4</ele>
        <time>2026-05-24T11:31:44Z</time>
      </trkpt>
      <trkpt lat="48.60684" lon="2.06249">
        <ele>127.4</ele>
        <time>2026-05-24T11:31:45Z</time>
      </trkpt>
      <trkpt lat="48.60681" lon="2.06247">
        <ele>127.4</ele>
        <time>2026-05-24T11:31:46Z</time>
      </trkpt>
      <trkpt lat="48.60678" lon="2.06246">
        <ele>127.4</ele>
        <time>2026-05-24T11:31:47Z</time>
      </trkpt>
      <trkpt lat="48.60674" lon="2.06244">
        <ele>127.4</ele>
        <time>2026-05-24T11:31:48Z</time>
      </trkpt>
      <trkpt lat="48.60671" lon="2.06243">
        <ele>127.4</ele>
        <time>2026-05-24T11:31:49Z</time>
      </trkpt>
      <trkpt lat="48.60667" lon="2.06241">
        <ele>127</ele>
        <time>2026-05-24T11:31:50Z</time>
      </trkpt>
      <trkpt lat="48.60664" lon="2.06239">
        <ele>127</ele>
        <time>2026-05-24T11:31:51Z</time>
      </trkpt>
      <trkpt lat="48.6066" lon="2.06238">
        <ele>127</ele>
        <time>2026-05-24T11:31:52Z</time>
      </trkpt>
      <trkpt lat="48.60657" lon="2.06236">
        <ele>127.2</ele>
        <time>2026-05-24T11:31:53Z</time>
      </trkpt>
      <trkpt lat="48.60655" lon="2.06235">
        <ele>127.4</ele>
        <time>2026-05-24T11:31:54Z</time>
      </trkpt>
      <trkpt lat="48.60651" lon="2.06234">
        <ele>127.4</ele>
        <time>2026-05-24T11:31:55Z</time>
      </trkpt>
      <trkpt lat="48.60649" lon="2.06233">
        <ele>127.4</ele>
        <time>2026-05-24T11:31:56Z</time>
      </trkpt>
      <trkpt lat="48.60645" lon="2.06232">
        <ele>126.6</ele>
        <time>2026-05-24T11:31:57Z</time>
      </trkpt>
      <trkpt lat="48.60642" lon="2.06231">
        <ele>127</ele>
        <time>2026-05-24T11:31:58Z</time>
      </trkpt>
      <trkpt lat="48.60638" lon="2.06229">
        <ele>127</ele>
        <time>2026-05-24T11:31:59Z</time>
      </trkpt>
      <trkpt lat="48.60634" lon="2.06228">
        <ele>127</ele>
        <time>2026-05-24T11:32:00Z</time>
      </trkpt>
      <trkpt lat="48.60632" lon="2.06227">
        <ele>127.2</ele>
        <time>2026-05-24T11:32:01Z</time>
      </trkpt>
      <trkpt lat="48.60628" lon="2.06224">
        <ele>128.2</ele>
        <time>2026-05-24T11:32:02Z</time>
      </trkpt>
      <trkpt lat="48.60624" lon="2.06223">
        <ele>128.2</ele>
        <time>2026-05-24T11:32:03Z</time>
      </trkpt>
      <trkpt lat="48.60619" lon="2.06221">
        <ele>128.2</ele>
        <time>2026-05-24T11:32:04Z</time>
      </trkpt>
      <trkpt lat="48.60616" lon="2.0622">
        <ele>127.2</ele>
        <time>2026-05-24T11:32:05Z</time>
      </trkpt>
      <trkpt lat="48.60612" lon="2.06218">
        <ele>127.2</ele>
        <time>2026-05-24T11:32:06Z</time>
      </trkpt>
      <trkpt lat="48.60608" lon="2.06216">
        <ele>127.2</ele>
        <time>2026-05-24T11:32:07Z</time>
      </trkpt>
      <trkpt lat="48.60603" lon="2.06215">
        <ele>127.2</ele>
        <time>2026-05-24T11:32:08Z</time>
      </trkpt>
      <trkpt lat="48.606" lon="2.06214">
        <ele>127.2</ele>
        <time>2026-05-24T11:32:09Z</time>
      </trkpt>
      <trkpt lat="48.60596" lon="2.06213">
        <ele>127.2</ele>
        <time>2026-05-24T11:32:10Z</time>
      </trkpt>
      <trkpt lat="48.60592" lon="2.06212">
        <ele>127.2</ele>
        <time>2026-05-24T11:32:11Z</time>
      </trkpt>
      <trkpt lat="48.60589" lon="2.06212">
        <ele>127.2</ele>
        <time>2026-05-24T11:32:12Z</time>
      </trkpt>
      <trkpt lat="48.60584" lon="2.0621">
        <ele>127.2</ele>
        <time>2026-05-24T11:32:13Z</time>
      </trkpt>
      <trkpt lat="48.6058" lon="2.06208">
        <ele>126</ele>
        <time>2026-05-24T11:32:14Z</time>
      </trkpt>
      <trkpt lat="48.60574" lon="2.06205">
        <ele>126</ele>
        <time>2026-05-24T11:32:15Z</time>
      </trkpt>
      <trkpt lat="48.6057" lon="2.06204">
        <ele>126</ele>
        <time>2026-05-24T11:32:16Z</time>
      </trkpt>
      <trkpt lat="48.60566" lon="2.06203">
        <ele>126.8</ele>
        <time>2026-05-24T11:32:17Z</time>
      </trkpt>
      <trkpt lat="48.60562" lon="2.06202">
        <ele>127</ele>
        <time>2026-05-24T11:32:18Z</time>
      </trkpt>
      <trkpt lat="48.60557" lon="2.062">
        <ele>127</ele>
        <time>2026-05-24T11:32:19Z</time>
      </trkpt>
      <trkpt lat="48.60554" lon="2.06199">
        <ele>127</ele>
        <time>2026-05-24T11:32:20Z</time>
      </trkpt>
      <trkpt lat="48.60552" lon="2.06198">
        <ele>127.8</ele>
        <time>2026-05-24T11:32:21Z</time>
      </trkpt>
      <trkpt lat="48.60549" lon="2.06197">
        <ele>126.6</ele>
        <time>2026-05-24T11:32:22Z</time>
      </trkpt>
      <trkpt lat="48.60545" lon="2.06195">
        <ele>126.6</ele>
        <time>2026-05-24T11:32:23Z</time>
      </trkpt>
      <trkpt lat="48.60542" lon="2.06193">
        <ele>126.6</ele>
        <time>2026-05-24T11:32:24Z</time>
      </trkpt>
      <trkpt lat="48.60538" lon="2.06192">
        <ele>127.6</ele>
        <time>2026-05-24T11:32:25Z</time>
      </trkpt>
      <trkpt lat="48.60535" lon="2.06191">
        <ele>127</ele>
        <time>2026-05-24T11:32:26Z</time>
      </trkpt>
      <trkpt lat="48.60531" lon="2.06189">
        <ele>127</ele>
        <time>2026-05-24T11:32:27Z</time>
      </trkpt>
      <trkpt lat="48.60528" lon="2.06189">
        <ele>127</ele>
        <time>2026-05-24T11:32:28Z</time>
      </trkpt>
      <trkpt lat="48.60525" lon="2.06187">
        <ele>127</ele>
        <time>2026-05-24T11:32:29Z</time>
      </trkpt>
      <trkpt lat="48.60521" lon="2.06187">
        <ele>127.4</ele>
        <time>2026-05-24T11:32:30Z</time>
      </trkpt>
      <trkpt lat="48.60517" lon="2.06186">
        <ele>127.4</ele>
        <time>2026-05-24T11:32:31Z</time>
      </trkpt>
      <trkpt lat="48.60514" lon="2.06184">
        <ele>127.4</ele>
        <time>2026-05-24T11:32:32Z</time>
      </trkpt>
      <trkpt lat="48.60511" lon="2.06183">
        <ele>127.4</ele>
        <time>2026-05-24T11:32:33Z</time>
      </trkpt>
      <trkpt lat="48.60507" lon="2.06182">
        <ele>127.6</ele>
        <time>2026-05-24T11:32:34Z</time>
      </trkpt>
      <trkpt lat="48.60504" lon="2.06181">
        <ele>127.6</ele>
        <time>2026-05-24T11:32:35Z</time>
      </trkpt>
      <trkpt lat="48.60499" lon="2.06179">
        <ele>127.6</ele>
        <time>2026-05-24T11:32:36Z</time>
      </trkpt>
      <trkpt lat="48.60495" lon="2.06179">
        <ele>126.6</ele>
        <time>2026-05-24T11:32:37Z</time>
      </trkpt>
      <trkpt lat="48.6049" lon="2.06179">
        <ele>125.4</ele>
        <time>2026-05-24T11:32:38Z</time>
      </trkpt>
      <trkpt lat="48.60486" lon="2.0618">
        <ele>125.4</ele>
        <time>2026-05-24T11:32:39Z</time>
      </trkpt>
      <trkpt lat="48.60482" lon="2.06181">
        <ele>125.4</ele>
        <time>2026-05-24T11:32:40Z</time>
      </trkpt>
      <trkpt lat="48.60478" lon="2.06182">
        <ele>126.4</ele>
        <time>2026-05-24T11:32:41Z</time>
      </trkpt>
      <trkpt lat="48.60475" lon="2.06183">
        <ele>127</ele>
        <time>2026-05-24T11:32:42Z</time>
      </trkpt>
      <trkpt lat="48.60472" lon="2.06184">
        <ele>127</ele>
        <time>2026-05-24T11:32:43Z</time>
      </trkpt>
      <trkpt lat="48.60468" lon="2.06184">
        <ele>127</ele>
        <time>2026-05-24T11:32:44Z</time>
      </trkpt>
      <trkpt lat="48.60464" lon="2.06186">
        <ele>127</ele>
        <time>2026-05-24T11:32:45Z</time>
      </trkpt>
      <trkpt lat="48.6046" lon="2.06187">
        <ele>125.8</ele>
        <time>2026-05-24T11:32:46Z</time>
      </trkpt>
      <trkpt lat="48.60456" lon="2.06188">
        <ele>125.8</ele>
        <time>2026-05-24T11:32:47Z</time>
      </trkpt>
      <trkpt lat="48.60452" lon="2.06191">
        <ele>125.8</ele>
        <time>2026-05-24T11:32:48Z</time>
      </trkpt>
      <trkpt lat="48.60448" lon="2.06191">
        <ele>125.8</ele>
        <time>2026-05-24T11:32:49Z</time>
      </trkpt>
      <trkpt lat="48.60444" lon="2.06193">
        <ele>125.6</ele>
        <time>2026-05-24T11:32:50Z</time>
      </trkpt>
      <trkpt lat="48.6044" lon="2.06193">
        <ele>125.6</ele>
        <time>2026-05-24T11:32:51Z</time>
      </trkpt>
      <trkpt lat="48.60436" lon="2.06194">
        <ele>125.6</ele>
        <time>2026-05-24T11:32:52Z</time>
      </trkpt>
      <trkpt lat="48.60432" lon="2.06195">
        <ele>125.8</ele>
        <time>2026-05-24T11:32:53Z</time>
      </trkpt>
      <trkpt lat="48.60428" lon="2.06197">
        <ele>126</ele>
        <time>2026-05-24T11:32:54Z</time>
      </trkpt>
      <trkpt lat="48.60424" lon="2.06198">
        <ele>126</ele>
        <time>2026-05-24T11:32:55Z</time>
      </trkpt>
      <trkpt lat="48.60418" lon="2.062">
        <ele>126</ele>
        <time>2026-05-24T11:32:56Z</time>
      </trkpt>
      <trkpt lat="48.60414" lon="2.062">
        <ele>126</ele>
        <time>2026-05-24T11:32:57Z</time>
      </trkpt>
      <trkpt lat="48.6041" lon="2.06198">
        <ele>126.2</ele>
        <time>2026-05-24T11:32:58Z</time>
      </trkpt>
      <trkpt lat="48.60408" lon="2.06195">
        <ele>126.2</ele>
        <time>2026-05-24T11:32:59Z</time>
      </trkpt>
      <trkpt lat="48.60406" lon="2.06192">
        <ele>126.2</ele>
        <time>2026-05-24T11:33:00Z</time>
      </trkpt>
      <trkpt lat="48.60403" lon="2.06189">
        <ele>125.8</ele>
        <time>2026-05-24T11:33:01Z</time>
      </trkpt>
      <trkpt lat="48.604" lon="2.06187">
        <ele>126</ele>
        <time>2026-05-24T11:33:02Z</time>
      </trkpt>
      <trkpt lat="48.60397" lon="2.06185">
        <ele>126</ele>
        <time>2026-05-24T11:33:03Z</time>
      </trkpt>
      <trkpt lat="48.60393" lon="2.06182">
        <ele>126</ele>
        <time>2026-05-24T11:33:04Z</time>
      </trkpt>
      <trkpt lat="48.60391" lon="2.06179">
        <ele>126</ele>
        <time>2026-05-24T11:33:05Z</time>
      </trkpt>
      <trkpt lat="48.60387" lon="2.06177">
        <ele>125.8</ele>
        <time>2026-05-24T11:33:06Z</time>
      </trkpt>
      <trkpt lat="48.60385" lon="2.06174">
        <ele>125.8</ele>
        <time>2026-05-24T11:33:07Z</time>
      </trkpt>
      <trkpt lat="48.60381" lon="2.06171">
        <ele>125.8</ele>
        <time>2026-05-24T11:33:08Z</time>
      </trkpt>
      <trkpt lat="48.60376" lon="2.06168">
        <ele>125.8</ele>
        <time>2026-05-24T11:33:09Z</time>
      </trkpt>
      <trkpt lat="48.60372" lon="2.06165">
        <ele>126</ele>
        <time>2026-05-24T11:33:10Z</time>
      </trkpt>
      <trkpt lat="48.60369" lon="2.06162">
        <ele>126</ele>
        <time>2026-05-24T11:33:11Z</time>
      </trkpt>
      <trkpt lat="48.60366" lon="2.06158">
        <ele>126</ele>
        <time>2026-05-24T11:33:12Z</time>
      </trkpt>
      <trkpt lat="48.60363" lon="2.06154">
        <ele>126</ele>
        <time>2026-05-24T11:33:13Z</time>
      </trkpt>
      <trkpt lat="48.60362" lon="2.06149">
        <ele>126.4</ele>
        <time>2026-05-24T11:33:14Z</time>
      </trkpt>
      <trkpt lat="48.6036" lon="2.06144">
        <ele>126.4</ele>
        <time>2026-05-24T11:33:15Z</time>
      </trkpt>
      <trkpt lat="48.60358" lon="2.06138">
        <ele>126.4</ele>
        <time>2026-05-24T11:33:16Z</time>
      </trkpt>
      <trkpt lat="48.60356" lon="2.06133">
        <ele>126.8</ele>
        <time>2026-05-24T11:33:17Z</time>
      </trkpt>
      <trkpt lat="48.60354" lon="2.06128">
        <ele>127</ele>
        <time>2026-05-24T11:33:18Z</time>
      </trkpt>
      <trkpt lat="48.60351" lon="2.06124">
        <ele>127</ele>
        <time>2026-05-24T11:33:19Z</time>
      </trkpt>
      <trkpt lat="48.60349" lon="2.0612">
        <ele>127</ele>
        <time>2026-05-24T11:33:20Z</time>
      </trkpt>
      <trkpt lat="48.60346" lon="2.06118">
        <ele>126.6</ele>
        <time>2026-05-24T11:33:21Z</time>
      </trkpt>
      <trkpt lat="48.60343" lon="2.06115">
        <ele>126.8</ele>
        <time>2026-05-24T11:33:22Z</time>
      </trkpt>
      <trkpt lat="48.6034" lon="2.06113">
        <ele>126.8</ele>
        <time>2026-05-24T11:33:23Z</time>
      </trkpt>
      <trkpt lat="48.60337" lon="2.06112">
        <ele>126.8</ele>
        <time>2026-05-24T11:33:24Z</time>
      </trkpt>
      <trkpt lat="48.60333" lon="2.0611">
        <ele>127</ele>
        <time>2026-05-24T11:33:25Z</time>
      </trkpt>
      <trkpt lat="48.60329" lon="2.0611">
        <ele>126.8</ele>
        <time>2026-05-24T11:33:26Z</time>
      </trkpt>
      <trkpt lat="48.60324" lon="2.0611">
        <ele>126.8</ele>
        <time>2026-05-24T11:33:27Z</time>
      </trkpt>
      <trkpt lat="48.6032" lon="2.0611">
        <ele>126.8</ele>
        <time>2026-05-24T11:33:28Z</time>
      </trkpt>
      <trkpt lat="48.60315" lon="2.06109">
        <ele>126.8</ele>
        <time>2026-05-24T11:33:29Z</time>
      </trkpt>
      <trkpt lat="48.60311" lon="2.0611">
        <ele>127.2</ele>
        <time>2026-05-24T11:33:30Z</time>
      </trkpt>
      <trkpt lat="48.60307" lon="2.06111">
        <ele>127.2</ele>
        <time>2026-05-24T11:33:31Z</time>
      </trkpt>
      <trkpt lat="48.60303" lon="2.06113">
        <ele>127.2</ele>
        <time>2026-05-24T11:33:32Z</time>
      </trkpt>
      <trkpt lat="48.603" lon="2.06114">
        <ele>126.8</ele>
        <time>2026-05-24T11:33:33Z</time>
      </trkpt>
      <trkpt lat="48.60297" lon="2.06117">
        <ele>126.4</ele>
        <time>2026-05-24T11:33:34Z</time>
      </trkpt>
      <trkpt lat="48.60292" lon="2.06118">
        <ele>126.4</ele>
        <time>2026-05-24T11:33:35Z</time>
      </trkpt>
      <trkpt lat="48.60289" lon="2.06119">
        <ele>126.4</ele>
        <time>2026-05-24T11:33:36Z</time>
      </trkpt>
      <trkpt lat="48.60285" lon="2.06119">
        <ele>126.4</ele>
        <time>2026-05-24T11:33:37Z</time>
      </trkpt>
      <trkpt lat="48.60282" lon="2.06119">
        <ele>126.2</ele>
        <time>2026-05-24T11:33:38Z</time>
      </trkpt>
      <trkpt lat="48.60278" lon="2.06118">
        <ele>126.2</ele>
        <time>2026-05-24T11:33:39Z</time>
      </trkpt>
      <trkpt lat="48.60275" lon="2.06117">
        <ele>126.2</ele>
        <time>2026-05-24T11:33:40Z</time>
      </trkpt>
      <trkpt lat="48.60271" lon="2.06117">
        <ele>126.2</ele>
        <time>2026-05-24T11:33:41Z</time>
      </trkpt>
      <trkpt lat="48.60268" lon="2.06118">
        <ele>127</ele>
        <time>2026-05-24T11:33:42Z</time>
      </trkpt>
      <trkpt lat="48.60264" lon="2.06118">
        <ele>127</ele>
        <time>2026-05-24T11:33:43Z</time>
      </trkpt>
      <trkpt lat="48.6026" lon="2.06119">
        <ele>127</ele>
        <time>2026-05-24T11:33:44Z</time>
      </trkpt>
      <trkpt lat="48.60256" lon="2.0612">
        <ele>127</ele>
        <time>2026-05-24T11:33:45Z</time>
      </trkpt>
      <trkpt lat="48.60252" lon="2.0612">
        <ele>126</ele>
        <time>2026-05-24T11:33:46Z</time>
      </trkpt>
      <trkpt lat="48.60248" lon="2.0612">
        <ele>126</ele>
        <time>2026-05-24T11:33:47Z</time>
      </trkpt>
      <trkpt lat="48.60245" lon="2.06119">
        <ele>126</ele>
        <time>2026-05-24T11:33:48Z</time>
      </trkpt>
      <trkpt lat="48.60241" lon="2.06119">
        <ele>126.8</ele>
        <time>2026-05-24T11:33:49Z</time>
      </trkpt>
      <trkpt lat="48.60237" lon="2.06121">
        <ele>126.6</ele>
        <time>2026-05-24T11:33:50Z</time>
      </trkpt>
      <trkpt lat="48.60233" lon="2.06122">
        <ele>126.6</ele>
        <time>2026-05-24T11:33:51Z</time>
      </trkpt>
      <trkpt lat="48.60228" lon="2.06122">
        <ele>126.6</ele>
        <time>2026-05-24T11:33:52Z</time>
      </trkpt>
      <trkpt lat="48.60225" lon="2.06123">
        <ele>126.6</ele>
        <time>2026-05-24T11:33:53Z</time>
      </trkpt>
      <trkpt lat="48.60221" lon="2.06125">
        <ele>126.6</ele>
        <time>2026-05-24T11:33:54Z</time>
      </trkpt>
      <trkpt lat="48.60218" lon="2.06127">
        <ele>126.6</ele>
        <time>2026-05-24T11:33:55Z</time>
      </trkpt>
      <trkpt lat="48.60214" lon="2.06128">
        <ele>126.6</ele>
        <time>2026-05-24T11:33:56Z</time>
      </trkpt>
      <trkpt lat="48.6021" lon="2.06129">
        <ele>126.6</ele>
        <time>2026-05-24T11:33:57Z</time>
      </trkpt>
      <trkpt lat="48.60207" lon="2.0613">
        <ele>126.6</ele>
        <time>2026-05-24T11:33:58Z</time>
      </trkpt>
      <trkpt lat="48.60203" lon="2.06131">
        <ele>126.6</ele>
        <time>2026-05-24T11:33:59Z</time>
      </trkpt>
      <trkpt lat="48.60199" lon="2.06133">
        <ele>126.6</ele>
        <time>2026-05-24T11:34:00Z</time>
      </trkpt>
      <trkpt lat="48.60196" lon="2.06133">
        <ele>126.6</ele>
        <time>2026-05-24T11:34:01Z</time>
      </trkpt>
      <trkpt lat="48.60192" lon="2.06134">
        <ele>125.6</ele>
        <time>2026-05-24T11:34:02Z</time>
      </trkpt>
      <trkpt lat="48.60188" lon="2.06136">
        <ele>125.6</ele>
        <time>2026-05-24T11:34:03Z</time>
      </trkpt>
      <trkpt lat="48.60185" lon="2.06137">
        <ele>125.6</ele>
        <time>2026-05-24T11:34:04Z</time>
      </trkpt>
      <trkpt lat="48.60182" lon="2.06138">
        <ele>126.6</ele>
        <time>2026-05-24T11:34:05Z</time>
      </trkpt>
      <trkpt lat="48.60179" lon="2.06139">
        <ele>126</ele>
        <time>2026-05-24T11:34:06Z</time>
      </trkpt>
      <trkpt lat="48.60176" lon="2.0614">
        <ele>126</ele>
        <time>2026-05-24T11:34:07Z</time>
      </trkpt>
      <trkpt lat="48.60174" lon="2.06141">
        <ele>126</ele>
        <time>2026-05-24T11:34:08Z</time>
      </trkpt>
      <trkpt lat="48.6017" lon="2.06141">
        <ele>126.4</ele>
        <time>2026-05-24T11:34:09Z</time>
      </trkpt>
      <trkpt lat="48.60167" lon="2.06142">
        <ele>127</ele>
        <time>2026-05-24T11:34:10Z</time>
      </trkpt>
      <trkpt lat="48.60164" lon="2.06143">
        <ele>127</ele>
        <time>2026-05-24T11:34:11Z</time>
      </trkpt>
      <trkpt lat="48.60161" lon="2.06144">
        <ele>127</ele>
        <time>2026-05-24T11:34:12Z</time>
      </trkpt>
      <trkpt lat="48.60159" lon="2.06145">
        <ele>127.4</ele>
        <time>2026-05-24T11:34:13Z</time>
      </trkpt>
      <trkpt lat="48.60155" lon="2.06147">
        <ele>127.4</ele>
        <time>2026-05-24T11:34:14Z</time>
      </trkpt>
      <trkpt lat="48.60151" lon="2.06147">
        <ele>127.4</ele>
        <time>2026-05-24T11:34:15Z</time>
      </trkpt>
      <trkpt lat="48.60148" lon="2.06148">
        <ele>127.4</ele>
        <time>2026-05-24T11:34:16Z</time>
      </trkpt>
      <trkpt lat="48.60145" lon="2.0615">
        <ele>127.4</ele>
        <time>2026-05-24T11:34:17Z</time>
      </trkpt>
      <trkpt lat="48.60142" lon="2.06151">
        <ele>127.8</ele>
        <time>2026-05-24T11:34:18Z</time>
      </trkpt>
      <trkpt lat="48.60139" lon="2.06152">
        <ele>127.8</ele>
        <time>2026-05-24T11:34:19Z</time>
      </trkpt>
      <trkpt lat="48.60135" lon="2.06153">
        <ele>127.8</ele>
        <time>2026-05-24T11:34:20Z</time>
      </trkpt>
      <trkpt lat="48.60132" lon="2.06155">
        <ele>128.2</ele>
        <time>2026-05-24T11:34:21Z</time>
      </trkpt>
      <trkpt lat="48.60129" lon="2.06156">
        <ele>128.2</ele>
        <time>2026-05-24T11:34:22Z</time>
      </trkpt>
      <trkpt lat="48.60126" lon="2.06156">
        <ele>128.2</ele>
        <time>2026-05-24T11:34:23Z</time>
      </trkpt>
      <trkpt lat="48.60123" lon="2.06157">
        <ele>128.2</ele>
        <time>2026-05-24T11:34:24Z</time>
      </trkpt>
      <trkpt lat="48.6012" lon="2.06158">
        <ele>128.2</ele>
        <time>2026-05-24T11:34:25Z</time>
      </trkpt>
      <trkpt lat="48.60118" lon="2.0616">
        <ele>128.8</ele>
        <time>2026-05-24T11:34:26Z</time>
      </trkpt>
      <trkpt lat="48.60115" lon="2.06161">
        <ele>128.8</ele>
        <time>2026-05-24T11:34:27Z</time>
      </trkpt>
      <trkpt lat="48.60112" lon="2.06162">
        <ele>128.8</ele>
        <time>2026-05-24T11:34:28Z</time>
      </trkpt>
      <trkpt lat="48.60109" lon="2.06164">
        <ele>129.6</ele>
        <time>2026-05-24T11:34:29Z</time>
      </trkpt>
      <trkpt lat="48.60106" lon="2.06165">
        <ele>129</ele>
        <time>2026-05-24T11:34:30Z</time>
      </trkpt>
      <trkpt lat="48.60104" lon="2.06166">
        <ele>129</ele>
        <time>2026-05-24T11:34:31Z</time>
      </trkpt>
      <trkpt lat="48.601" lon="2.06168">
        <ele>129</ele>
        <time>2026-05-24T11:34:32Z</time>
      </trkpt>
      <trkpt lat="48.60097" lon="2.06169">
        <ele>129</ele>
        <time>2026-05-24T11:34:33Z</time>
      </trkpt>
      <trkpt lat="48.60094" lon="2.0617">
        <ele>129.4</ele>
        <time>2026-05-24T11:34:34Z</time>
      </trkpt>
      <trkpt lat="48.60091" lon="2.06171">
        <ele>129.4</ele>
        <time>2026-05-24T11:34:35Z</time>
      </trkpt>
      <trkpt lat="48.60088" lon="2.0617">
        <ele>129.4</ele>
        <time>2026-05-24T11:34:36Z</time>
      </trkpt>
      <trkpt lat="48.60085" lon="2.06169">
        <ele>129.4</ele>
        <time>2026-05-24T11:34:37Z</time>
      </trkpt>
      <trkpt lat="48.60083" lon="2.06168">
        <ele>129.2</ele>
        <time>2026-05-24T11:34:38Z</time>
      </trkpt>
      <trkpt lat="48.60082" lon="2.06166">
        <ele>129.2</ele>
        <time>2026-05-24T11:34:39Z</time>
      </trkpt>
      <trkpt lat="48.6008" lon="2.06163">
        <ele>129.2</ele>
        <time>2026-05-24T11:34:40Z</time>
      </trkpt>
      <trkpt lat="48.60079" lon="2.06162">
        <ele>130</ele>
        <time>2026-05-24T11:34:41Z</time>
      </trkpt>
      <trkpt lat="48.60077" lon="2.06159">
        <ele>130.2</ele>
        <time>2026-05-24T11:34:42Z</time>
      </trkpt>
      <trkpt lat="48.60076" lon="2.06156">
        <ele>130.2</ele>
        <time>2026-05-24T11:34:43Z</time>
      </trkpt>
      <trkpt lat="48.60075" lon="2.06153">
        <ele>130.2</ele>
        <time>2026-05-24T11:34:44Z</time>
      </trkpt>
      <trkpt lat="48.60074" lon="2.06149">
        <ele>130.2</ele>
        <time>2026-05-24T11:34:45Z</time>
      </trkpt>
      <trkpt lat="48.60072" lon="2.06146">
        <ele>131</ele>
        <time>2026-05-24T11:34:46Z</time>
      </trkpt>
      <trkpt lat="48.60071" lon="2.06143">
        <ele>131</ele>
        <time>2026-05-24T11:34:47Z</time>
      </trkpt>
      <trkpt lat="48.60069" lon="2.0614">
        <ele>131</ele>
        <time>2026-05-24T11:34:48Z</time>
      </trkpt>
      <trkpt lat="48.60068" lon="2.06137">
        <ele>130</ele>
        <time>2026-05-24T11:34:49Z</time>
      </trkpt>
      <trkpt lat="48.60067" lon="2.06134">
        <ele>130.4</ele>
        <time>2026-05-24T11:34:50Z</time>
      </trkpt>
      <trkpt lat="48.60066" lon="2.0613">
        <ele>130.4</ele>
        <time>2026-05-24T11:34:51Z</time>
      </trkpt>
      <trkpt lat="48.60064" lon="2.06126">
        <ele>130.4</ele>
        <time>2026-05-24T11:34:52Z</time>
      </trkpt>
      <trkpt lat="48.60063" lon="2.06123">
        <ele>130.4</ele>
        <time>2026-05-24T11:34:53Z</time>
      </trkpt>
      <trkpt lat="48.60061" lon="2.06119">
        <ele>131</ele>
        <time>2026-05-24T11:34:54Z</time>
      </trkpt>
      <trkpt lat="48.60058" lon="2.06114">
        <ele>131</ele>
        <time>2026-05-24T11:34:55Z</time>
      </trkpt>
      <trkpt lat="48.60056" lon="2.06109">
        <ele>131</ele>
        <time>2026-05-24T11:34:56Z</time>
      </trkpt>
      <trkpt lat="48.60055" lon="2.06105">
        <ele>131</ele>
        <time>2026-05-24T11:34:57Z</time>
      </trkpt>
      <trkpt lat="48.60053" lon="2.061">
        <ele>130.8</ele>
        <time>2026-05-24T11:34:58Z</time>
      </trkpt>
      <trkpt lat="48.60051" lon="2.06096">
        <ele>130.8</ele>
        <time>2026-05-24T11:34:59Z</time>
      </trkpt>
      <trkpt lat="48.6005" lon="2.06092">
        <ele>130.8</ele>
        <time>2026-05-24T11:35:00Z</time>
      </trkpt>
      <trkpt lat="48.60048" lon="2.06088">
        <ele>130.8</ele>
        <time>2026-05-24T11:35:01Z</time>
      </trkpt>
      <trkpt lat="48.60047" lon="2.06084">
        <ele>131.2</ele>
        <time>2026-05-24T11:35:02Z</time>
      </trkpt>
      <trkpt lat="48.60045" lon="2.0608">
        <ele>131.2</ele>
        <time>2026-05-24T11:35:03Z</time>
      </trkpt>
      <trkpt lat="48.60043" lon="2.06075">
        <ele>131.2</ele>
        <time>2026-05-24T11:35:04Z</time>
      </trkpt>
      <trkpt lat="48.60042" lon="2.06072">
        <ele>131.6</ele>
        <time>2026-05-24T11:35:05Z</time>
      </trkpt>
      <trkpt lat="48.60041" lon="2.06068">
        <ele>131.2</ele>
        <time>2026-05-24T11:35:06Z</time>
      </trkpt>
      <trkpt lat="48.60039" lon="2.06064">
        <ele>131.2</ele>
        <time>2026-05-24T11:35:07Z</time>
      </trkpt>
      <trkpt lat="48.60037" lon="2.06059">
        <ele>131.2</ele>
        <time>2026-05-24T11:35:08Z</time>
      </trkpt>
      <trkpt lat="48.60036" lon="2.06056">
        <ele>131.8</ele>
        <time>2026-05-24T11:35:09Z</time>
      </trkpt>
      <trkpt lat="48.60035" lon="2.06052">
        <ele>132.4</ele>
        <time>2026-05-24T11:35:10Z</time>
      </trkpt>
      <trkpt lat="48.60033" lon="2.06049">
        <ele>132.4</ele>
        <time>2026-05-24T11:35:11Z</time>
      </trkpt>
      <trkpt lat="48.60032" lon="2.06045">
        <ele>132.4</ele>
        <time>2026-05-24T11:35:12Z</time>
      </trkpt>
      <trkpt lat="48.60031" lon="2.06041">
        <ele>132.4</ele>
        <time>2026-05-24T11:35:13Z</time>
      </trkpt>
      <trkpt lat="48.60029" lon="2.06037">
        <ele>132.8</ele>
        <time>2026-05-24T11:35:14Z</time>
      </trkpt>
      <trkpt lat="48.60028" lon="2.06032">
        <ele>132.8</ele>
        <time>2026-05-24T11:35:15Z</time>
      </trkpt>
      <trkpt lat="48.60027" lon="2.06028">
        <ele>132.8</ele>
        <time>2026-05-24T11:35:16Z</time>
      </trkpt>
      <trkpt lat="48.60025" lon="2.06024">
        <ele>132.6</ele>
        <time>2026-05-24T11:35:17Z</time>
      </trkpt>
      <trkpt lat="48.60024" lon="2.0602">
        <ele>132.8</ele>
        <time>2026-05-24T11:35:18Z</time>
      </trkpt>
      <trkpt lat="48.60022" lon="2.06015">
        <ele>132.8</ele>
        <time>2026-05-24T11:35:19Z</time>
      </trkpt>
      <trkpt lat="48.60021" lon="2.06011">
        <ele>132.8</ele>
        <time>2026-05-24T11:35:20Z</time>
      </trkpt>
      <trkpt lat="48.6002" lon="2.06007">
        <ele>132.6</ele>
        <time>2026-05-24T11:35:21Z</time>
      </trkpt>
      <trkpt lat="48.60017" lon="2.06002">
        <ele>133.4</ele>
        <time>2026-05-24T11:35:22Z</time>
      </trkpt>
      <trkpt lat="48.60016" lon="2.05999">
        <ele>133.4</ele>
        <time>2026-05-24T11:35:23Z</time>
      </trkpt>
      <trkpt lat="48.60015" lon="2.05995">
        <ele>133.4</ele>
        <time>2026-05-24T11:35:24Z</time>
      </trkpt>
      <trkpt lat="48.60013" lon="2.0599">
        <ele>133.4</ele>
        <time>2026-05-24T11:35:25Z</time>
      </trkpt>
      <trkpt lat="48.60011" lon="2.05987">
        <ele>133</ele>
        <time>2026-05-24T11:35:26Z</time>
      </trkpt>
      <trkpt lat="48.60009" lon="2.05982">
        <ele>133</ele>
        <time>2026-05-24T11:35:27Z</time>
      </trkpt>
      <trkpt lat="48.60007" lon="2.05978">
        <ele>133</ele>
        <time>2026-05-24T11:35:28Z</time>
      </trkpt>
      <trkpt lat="48.60005" lon="2.05973">
        <ele>134</ele>
        <time>2026-05-24T11:35:29Z</time>
      </trkpt>
      <trkpt lat="48.60004" lon="2.05969">
        <ele>133.6</ele>
        <time>2026-05-24T11:35:30Z</time>
      </trkpt>
      <trkpt lat="48.60003" lon="2.05965">
        <ele>133.6</ele>
        <time>2026-05-24T11:35:31Z</time>
      </trkpt>
      <trkpt lat="48.60002" lon="2.05961">
        <ele>133.6</ele>
        <time>2026-05-24T11:35:32Z</time>
      </trkpt>
      <trkpt lat="48.60003" lon="2.05958">
        <ele>134.2</ele>
        <time>2026-05-24T11:35:33Z</time>
      </trkpt>
      <trkpt lat="48.60001" lon="2.05953">
        <ele>134.4</ele>
        <time>2026-05-24T11:35:34Z</time>
      </trkpt>
      <trkpt lat="48.59999" lon="2.05949">
        <ele>134.4</ele>
        <time>2026-05-24T11:35:35Z</time>
      </trkpt>
      <trkpt lat="48.59997" lon="2.05944">
        <ele>134.4</ele>
        <time>2026-05-24T11:35:36Z</time>
      </trkpt>
      <trkpt lat="48.59996" lon="2.05938">
        <ele>134.4</ele>
        <time>2026-05-24T11:35:37Z</time>
      </trkpt>
      <trkpt lat="48.59994" lon="2.05932">
        <ele>134.6</ele>
        <time>2026-05-24T11:35:38Z</time>
      </trkpt>
      <trkpt lat="48.59992" lon="2.05927">
        <ele>134.6</ele>
        <time>2026-05-24T11:35:39Z</time>
      </trkpt>
      <trkpt lat="48.59989" lon="2.05921">
        <ele>134.6</ele>
        <time>2026-05-24T11:35:40Z</time>
      </trkpt>
      <trkpt lat="48.59987" lon="2.05917">
        <ele>134.6</ele>
        <time>2026-05-24T11:35:41Z</time>
      </trkpt>
      <trkpt lat="48.59986" lon="2.05912">
        <ele>134.8</ele>
        <time>2026-05-24T11:35:42Z</time>
      </trkpt>
      <trkpt lat="48.59984" lon="2.05908">
        <ele>134.8</ele>
        <time>2026-05-24T11:35:43Z</time>
      </trkpt>
      <trkpt lat="48.59983" lon="2.05903">
        <ele>134.8</ele>
        <time>2026-05-24T11:35:44Z</time>
      </trkpt>
      <trkpt lat="48.59981" lon="2.05898">
        <ele>134.8</ele>
        <time>2026-05-24T11:35:45Z</time>
      </trkpt>
      <trkpt lat="48.5998" lon="2.05893">
        <ele>135</ele>
        <time>2026-05-24T11:35:46Z</time>
      </trkpt>
      <trkpt lat="48.59978" lon="2.05889">
        <ele>135</ele>
        <time>2026-05-24T11:35:47Z</time>
      </trkpt>
      <trkpt lat="48.59977" lon="2.05886">
        <ele>135</ele>
        <time>2026-05-24T11:35:48Z</time>
      </trkpt>
      <trkpt lat="48.59976" lon="2.05881">
        <ele>135</ele>
        <time>2026-05-24T11:35:49Z</time>
      </trkpt>
      <trkpt lat="48.59974" lon="2.05876">
        <ele>135.4</ele>
        <time>2026-05-24T11:35:50Z</time>
      </trkpt>
      <trkpt lat="48.59973" lon="2.05871">
        <ele>135.4</ele>
        <time>2026-05-24T11:35:51Z</time>
      </trkpt>
      <trkpt lat="48.59972" lon="2.05867">
        <ele>135.4</ele>
        <time>2026-05-24T11:35:52Z</time>
      </trkpt>
      <trkpt lat="48.59971" lon="2.05862">
        <ele>134.8</ele>
        <time>2026-05-24T11:35:53Z</time>
      </trkpt>
      <trkpt lat="48.59971" lon="2.05857">
        <ele>135.6</ele>
        <time>2026-05-24T11:35:54Z</time>
      </trkpt>
      <trkpt lat="48.59971" lon="2.05852">
        <ele>135.6</ele>
        <time>2026-05-24T11:35:55Z</time>
      </trkpt>
      <trkpt lat="48.59972" lon="2.05847">
        <ele>135.6</ele>
        <time>2026-05-24T11:35:56Z</time>
      </trkpt>
      <trkpt lat="48.59972" lon="2.05842">
        <ele>135.6</ele>
        <time>2026-05-24T11:35:57Z</time>
      </trkpt>
      <trkpt lat="48.59974" lon="2.05837">
        <ele>136</ele>
        <time>2026-05-24T11:35:58Z</time>
      </trkpt>
      <trkpt lat="48.59975" lon="2.05833">
        <ele>136</ele>
        <time>2026-05-24T11:35:59Z</time>
      </trkpt>
      <trkpt lat="48.59978" lon="2.05828">
        <ele>136</ele>
        <time>2026-05-24T11:36:00Z</time>
      </trkpt>
      <trkpt lat="48.59979" lon="2.05823">
        <ele>136</ele>
        <time>2026-05-24T11:36:01Z</time>
      </trkpt>
      <trkpt lat="48.59981" lon="2.0582">
        <ele>135.6</ele>
        <time>2026-05-24T11:36:02Z</time>
      </trkpt>
      <trkpt lat="48.59983" lon="2.05816">
        <ele>135.6</ele>
        <time>2026-05-24T11:36:03Z</time>
      </trkpt>
      <trkpt lat="48.59985" lon="2.05813">
        <ele>135.6</ele>
        <time>2026-05-24T11:36:04Z</time>
      </trkpt>
      <trkpt lat="48.59987" lon="2.0581">
        <ele>136.2</ele>
        <time>2026-05-24T11:36:05Z</time>
      </trkpt>
      <trkpt lat="48.59989" lon="2.05805">
        <ele>136</ele>
        <time>2026-05-24T11:36:06Z</time>
      </trkpt>
      <trkpt lat="48.59991" lon="2.05803">
        <ele>136</ele>
        <time>2026-05-24T11:36:07Z</time>
      </trkpt>
      <trkpt lat="48.59993" lon="2.05799">
        <ele>136</ele>
        <time>2026-05-24T11:36:08Z</time>
      </trkpt>
      <trkpt lat="48.59995" lon="2.05795">
        <ele>136</ele>
        <time>2026-05-24T11:36:09Z</time>
      </trkpt>
      <trkpt lat="48.59997" lon="2.05791">
        <ele>136.6</ele>
        <time>2026-05-24T11:36:10Z</time>
      </trkpt>
      <trkpt lat="48.6" lon="2.05787">
        <ele>136.6</ele>
        <time>2026-05-24T11:36:11Z</time>
      </trkpt>
      <trkpt lat="48.60002" lon="2.05784">
        <ele>136.6</ele>
        <time>2026-05-24T11:36:12Z</time>
      </trkpt>
      <trkpt lat="48.60003" lon="2.05781">
        <ele>136.4</ele>
        <time>2026-05-24T11:36:13Z</time>
      </trkpt>
      <trkpt lat="48.60005" lon="2.05777">
        <ele>136.4</ele>
        <time>2026-05-24T11:36:14Z</time>
      </trkpt>
      <trkpt lat="48.60008" lon="2.05773">
        <ele>136.4</ele>
        <time>2026-05-24T11:36:15Z</time>
      </trkpt>
      <trkpt lat="48.60012" lon="2.0577">
        <ele>136.4</ele>
        <time>2026-05-24T11:36:16Z</time>
      </trkpt>
      <trkpt lat="48.60014" lon="2.05766">
        <ele>136.4</ele>
        <time>2026-05-24T11:36:17Z</time>
      </trkpt>
      <trkpt lat="48.60017" lon="2.05763">
        <ele>135.8</ele>
        <time>2026-05-24T11:36:18Z</time>
      </trkpt>
      <trkpt lat="48.60021" lon="2.05759">
        <ele>135.8</ele>
        <time>2026-05-24T11:36:19Z</time>
      </trkpt>
      <trkpt lat="48.60023" lon="2.05754">
        <ele>135.8</ele>
        <time>2026-05-24T11:36:20Z</time>
      </trkpt>
      <trkpt lat="48.60027" lon="2.05751">
        <ele>135.8</ele>
        <time>2026-05-24T11:36:21Z</time>
      </trkpt>
      <trkpt lat="48.6003" lon="2.05746">
        <ele>134.4</ele>
        <time>2026-05-24T11:36:22Z</time>
      </trkpt>
      <trkpt lat="48.60034" lon="2.05741">
        <ele>134.4</ele>
        <time>2026-05-24T11:36:23Z</time>
      </trkpt>
      <trkpt lat="48.60038" lon="2.05739">
        <ele>134.4</ele>
        <time>2026-05-24T11:36:24Z</time>
      </trkpt>
      <trkpt lat="48.60042" lon="2.05733">
        <ele>135</ele>
        <time>2026-05-24T11:36:25Z</time>
      </trkpt>
      <trkpt lat="48.60047" lon="2.05728">
        <ele>134.2</ele>
        <time>2026-05-24T11:36:26Z</time>
      </trkpt>
      <trkpt lat="48.60051" lon="2.05723">
        <ele>134.2</ele>
        <time>2026-05-24T11:36:27Z</time>
      </trkpt>
      <trkpt lat="48.60056" lon="2.05717">
        <ele>134.2</ele>
        <time>2026-05-24T11:36:28Z</time>
      </trkpt>
      <trkpt lat="48.6006" lon="2.05713">
        <ele>134.2</ele>
        <time>2026-05-24T11:36:29Z</time>
      </trkpt>
      <trkpt lat="48.60064" lon="2.05708">
        <ele>134.2</ele>
        <time>2026-05-24T11:36:30Z</time>
      </trkpt>
      <trkpt lat="48.60068" lon="2.05704">
        <ele>134.2</ele>
        <time>2026-05-24T11:36:31Z</time>
      </trkpt>
      <trkpt lat="48.60071" lon="2.05698">
        <ele>134.2</ele>
        <time>2026-05-24T11:36:32Z</time>
      </trkpt>
      <trkpt lat="48.60074" lon="2.05692">
        <ele>134.2</ele>
        <time>2026-05-24T11:36:33Z</time>
      </trkpt>
      <trkpt lat="48.60077" lon="2.05688">
        <ele>134.2</ele>
        <time>2026-05-24T11:36:34Z</time>
      </trkpt>
      <trkpt lat="48.6008" lon="2.05683">
        <ele>134.2</ele>
        <time>2026-05-24T11:36:35Z</time>
      </trkpt>
      <trkpt lat="48.60083" lon="2.05678">
        <ele>134.2</ele>
        <time>2026-05-24T11:36:36Z</time>
      </trkpt>
      <trkpt lat="48.60086" lon="2.05674">
        <ele>134.2</ele>
        <time>2026-05-24T11:36:37Z</time>
      </trkpt>
      <trkpt lat="48.60089" lon="2.0567">
        <ele>134.6</ele>
        <time>2026-05-24T11:36:38Z</time>
      </trkpt>
      <trkpt lat="48.60092" lon="2.05666">
        <ele>134.6</ele>
        <time>2026-05-24T11:36:39Z</time>
      </trkpt>
      <trkpt lat="48.60095" lon="2.05663">
        <ele>134.6</ele>
        <time>2026-05-24T11:36:40Z</time>
      </trkpt>
      <trkpt lat="48.60099" lon="2.0566">
        <ele>134.4</ele>
        <time>2026-05-24T11:36:41Z</time>
      </trkpt>
      <trkpt lat="48.60102" lon="2.05656">
        <ele>133.4</ele>
        <time>2026-05-24T11:36:42Z</time>
      </trkpt>
      <trkpt lat="48.60105" lon="2.05652">
        <ele>133.4</ele>
        <time>2026-05-24T11:36:43Z</time>
      </trkpt>
      <trkpt lat="48.60106" lon="2.05649">
        <ele>133.4</ele>
        <time>2026-05-24T11:36:44Z</time>
      </trkpt>
      <trkpt lat="48.60108" lon="2.05645">
        <ele>134.4</ele>
        <time>2026-05-24T11:36:45Z</time>
      </trkpt>
      <trkpt lat="48.60111" lon="2.05641">
        <ele>135</ele>
        <time>2026-05-24T11:36:46Z</time>
      </trkpt>
      <trkpt lat="48.60113" lon="2.05636">
        <ele>135</ele>
        <time>2026-05-24T11:36:47Z</time>
      </trkpt>
      <trkpt lat="48.60116" lon="2.05631">
        <ele>135</ele>
        <time>2026-05-24T11:36:48Z</time>
      </trkpt>
      <trkpt lat="48.60118" lon="2.05626">
        <ele>135</ele>
        <time>2026-05-24T11:36:49Z</time>
      </trkpt>
      <trkpt lat="48.60121" lon="2.05621">
        <ele>134.8</ele>
        <time>2026-05-24T11:36:50Z</time>
      </trkpt>
      <trkpt lat="48.60123" lon="2.05616">
        <ele>134.8</ele>
        <time>2026-05-24T11:36:51Z</time>
      </trkpt>
      <trkpt lat="48.60126" lon="2.05612">
        <ele>134.8</ele>
        <time>2026-05-24T11:36:52Z</time>
      </trkpt>
      <trkpt lat="48.60128" lon="2.05607">
        <ele>134.8</ele>
        <time>2026-05-24T11:36:53Z</time>
      </trkpt>
      <trkpt lat="48.60131" lon="2.05603">
        <ele>135</ele>
        <time>2026-05-24T11:36:54Z</time>
      </trkpt>
      <trkpt lat="48.60134" lon="2.05599">
        <ele>135</ele>
        <time>2026-05-24T11:36:55Z</time>
      </trkpt>
      <trkpt lat="48.60136" lon="2.05595">
        <ele>135</ele>
        <time>2026-05-24T11:36:56Z</time>
      </trkpt>
      <trkpt lat="48.60138" lon="2.05591">
        <ele>135</ele>
        <time>2026-05-24T11:36:57Z</time>
      </trkpt>
      <trkpt lat="48.60141" lon="2.05587">
        <ele>135.4</ele>
        <time>2026-05-24T11:36:58Z</time>
      </trkpt>
      <trkpt lat="48.60143" lon="2.05583">
        <ele>135.4</ele>
        <time>2026-05-24T11:36:59Z</time>
      </trkpt>
      <trkpt lat="48.60144" lon="2.05579">
        <ele>135.4</ele>
        <time>2026-05-24T11:37:00Z</time>
      </trkpt>
      <trkpt lat="48.60146" lon="2.05575">
        <ele>135.4</ele>
        <time>2026-05-24T11:37:01Z</time>
      </trkpt>
      <trkpt lat="48.60148" lon="2.0557">
        <ele>135.8</ele>
        <time>2026-05-24T11:37:02Z</time>
      </trkpt>
      <trkpt lat="48.60151" lon="2.05565">
        <ele>135.8</ele>
        <time>2026-05-24T11:37:03Z</time>
      </trkpt>
      <trkpt lat="48.60153" lon="2.05561">
        <ele>135.8</ele>
        <time>2026-05-24T11:37:04Z</time>
      </trkpt>
      <trkpt lat="48.60156" lon="2.05556">
        <ele>135.8</ele>
        <time>2026-05-24T11:37:05Z</time>
      </trkpt>
      <trkpt lat="48.60159" lon="2.05553">
        <ele>136.2</ele>
        <time>2026-05-24T11:37:06Z</time>
      </trkpt>
      <trkpt lat="48.60162" lon="2.05549">
        <ele>136.2</ele>
        <time>2026-05-24T11:37:07Z</time>
      </trkpt>
      <trkpt lat="48.60164" lon="2.05546">
        <ele>136.2</ele>
        <time>2026-05-24T11:37:08Z</time>
      </trkpt>
      <trkpt lat="48.60168" lon="2.05543">
        <ele>136.2</ele>
        <time>2026-05-24T11:37:09Z</time>
      </trkpt>
      <trkpt lat="48.60171" lon="2.05539">
        <ele>134.2</ele>
        <time>2026-05-24T11:37:10Z</time>
      </trkpt>
      <trkpt lat="48.60173" lon="2.05536">
        <ele>134.2</ele>
        <time>2026-05-24T11:37:11Z</time>
      </trkpt>
      <trkpt lat="48.60176" lon="2.05532">
        <ele>134.2</ele>
        <time>2026-05-24T11:37:12Z</time>
      </trkpt>
      <trkpt lat="48.60178" lon="2.05527">
        <ele>135.2</ele>
        <time>2026-05-24T11:37:13Z</time>
      </trkpt>
      <trkpt lat="48.6018" lon="2.05524">
        <ele>134.8</ele>
        <time>2026-05-24T11:37:14Z</time>
      </trkpt>
      <trkpt lat="48.60184" lon="2.0552">
        <ele>134.8</ele>
        <time>2026-05-24T11:37:15Z</time>
      </trkpt>
      <trkpt lat="48.60187" lon="2.05517">
        <ele>134.8</ele>
        <time>2026-05-24T11:37:16Z</time>
      </trkpt>
      <trkpt lat="48.6019" lon="2.05514">
        <ele>134.8</ele>
        <time>2026-05-24T11:37:17Z</time>
      </trkpt>
      <trkpt lat="48.60193" lon="2.05511">
        <ele>135</ele>
        <time>2026-05-24T11:37:18Z</time>
      </trkpt>
      <trkpt lat="48.60196" lon="2.05507">
        <ele>135</ele>
        <time>2026-05-24T11:37:19Z</time>
      </trkpt>
      <trkpt lat="48.60199" lon="2.05504">
        <ele>135</ele>
        <time>2026-05-24T11:37:20Z</time>
      </trkpt>
      <trkpt lat="48.60202" lon="2.055">
        <ele>135</ele>
        <time>2026-05-24T11:37:21Z</time>
      </trkpt>
      <trkpt lat="48.60204" lon="2.05497">
        <ele>135.4</ele>
        <time>2026-05-24T11:37:22Z</time>
      </trkpt>
      <trkpt lat="48.60207" lon="2.05494">
        <ele>135.4</ele>
        <time>2026-05-24T11:37:23Z</time>
      </trkpt>
      <trkpt lat="48.6021" lon="2.0549">
        <ele>135.4</ele>
        <time>2026-05-24T11:37:24Z</time>
      </trkpt>
      <trkpt lat="48.60213" lon="2.05487">
        <ele>135.4</ele>
        <time>2026-05-24T11:37:25Z</time>
      </trkpt>
      <trkpt lat="48.60215" lon="2.05485">
        <ele>136.4</ele>
        <time>2026-05-24T11:37:26Z</time>
      </trkpt>
      <trkpt lat="48.60218" lon="2.05482">
        <ele>136.4</ele>
        <time>2026-05-24T11:37:27Z</time>
      </trkpt>
      <trkpt lat="48.6022" lon="2.05479">
        <ele>136.4</ele>
        <time>2026-05-24T11:37:28Z</time>
      </trkpt>
      <trkpt lat="48.60223" lon="2.05476">
        <ele>135.4</ele>
        <time>2026-05-24T11:37:29Z</time>
      </trkpt>
      <trkpt lat="48.60226" lon="2.05472">
        <ele>135.4</ele>
        <time>2026-05-24T11:37:30Z</time>
      </trkpt>
      <trkpt lat="48.60229" lon="2.05468">
        <ele>135.4</ele>
        <time>2026-05-24T11:37:31Z</time>
      </trkpt>
      <trkpt lat="48.60231" lon="2.05465">
        <ele>135.4</ele>
        <time>2026-05-24T11:37:32Z</time>
      </trkpt>
      <trkpt lat="48.60234" lon="2.05461">
        <ele>135.4</ele>
        <time>2026-05-24T11:37:33Z</time>
      </trkpt>
      <trkpt lat="48.60237" lon="2.05458">
        <ele>135.2</ele>
        <time>2026-05-24T11:37:34Z</time>
      </trkpt>
      <trkpt lat="48.6024" lon="2.05454">
        <ele>135.2</ele>
        <time>2026-05-24T11:37:35Z</time>
      </trkpt>
      <trkpt lat="48.60243" lon="2.0545">
        <ele>135.2</ele>
        <time>2026-05-24T11:37:36Z</time>
      </trkpt>
      <trkpt lat="48.60246" lon="2.05446">
        <ele>136</ele>
        <time>2026-05-24T11:37:37Z</time>
      </trkpt>
      <trkpt lat="48.60249" lon="2.05443">
        <ele>136</ele>
        <time>2026-05-24T11:37:38Z</time>
      </trkpt>
      <trkpt lat="48.60253" lon="2.05439">
        <ele>136</ele>
        <time>2026-05-24T11:37:39Z</time>
      </trkpt>
      <trkpt lat="48.60257" lon="2.05436">
        <ele>136</ele>
        <time>2026-05-24T11:37:40Z</time>
      </trkpt>
      <trkpt lat="48.60259" lon="2.05431">
        <ele>136</ele>
        <time>2026-05-24T11:37:41Z</time>
      </trkpt>
      <trkpt lat="48.60262" lon="2.05427">
        <ele>136.8</ele>
        <time>2026-05-24T11:37:42Z</time>
      </trkpt>
      <trkpt lat="48.60264" lon="2.05424">
        <ele>136.8</ele>
        <time>2026-05-24T11:37:43Z</time>
      </trkpt>
      <trkpt lat="48.60267" lon="2.05421">
        <ele>136.8</ele>
        <time>2026-05-24T11:37:44Z</time>
      </trkpt>
      <trkpt lat="48.6027" lon="2.05417">
        <ele>135.8</ele>
        <time>2026-05-24T11:37:45Z</time>
      </trkpt>
      <trkpt lat="48.60273" lon="2.05415">
        <ele>136</ele>
        <time>2026-05-24T11:37:46Z</time>
      </trkpt>
      <trkpt lat="48.60276" lon="2.05413">
        <ele>136</ele>
        <time>2026-05-24T11:37:47Z</time>
      </trkpt>
      <trkpt lat="48.60278" lon="2.05409">
        <ele>136</ele>
        <time>2026-05-24T11:37:48Z</time>
      </trkpt>
      <trkpt lat="48.60281" lon="2.05406">
        <ele>136.2</ele>
        <time>2026-05-24T11:37:49Z</time>
      </trkpt>
      <trkpt lat="48.60284" lon="2.05403">
        <ele>136.6</ele>
        <time>2026-05-24T11:37:50Z</time>
      </trkpt>
      <trkpt lat="48.60287" lon="2.05401">
        <ele>136.6</ele>
        <time>2026-05-24T11:37:51Z</time>
      </trkpt>
      <trkpt lat="48.60289" lon="2.05398">
        <ele>136.6</ele>
        <time>2026-05-24T11:37:52Z</time>
      </trkpt>
      <trkpt lat="48.60292" lon="2.05394">
        <ele>136.6</ele>
        <time>2026-05-24T11:37:53Z</time>
      </trkpt>
      <trkpt lat="48.60295" lon="2.05391">
        <ele>137</ele>
        <time>2026-05-24T11:37:54Z</time>
      </trkpt>
      <trkpt lat="48.60298" lon="2.05388">
        <ele>137</ele>
        <time>2026-05-24T11:37:55Z</time>
      </trkpt>
      <trkpt lat="48.603" lon="2.05384">
        <ele>137</ele>
        <time>2026-05-24T11:37:56Z</time>
      </trkpt>
      <trkpt lat="48.60303" lon="2.05381">
        <ele>136.2</ele>
        <time>2026-05-24T11:37:57Z</time>
      </trkpt>
      <trkpt lat="48.60305" lon="2.05379">
        <ele>137.2</ele>
        <time>2026-05-24T11:37:58Z</time>
      </trkpt>
      <trkpt lat="48.60308" lon="2.05377">
        <ele>137.2</ele>
        <time>2026-05-24T11:37:59Z</time>
      </trkpt>
      <trkpt lat="48.60311" lon="2.05374">
        <ele>137.2</ele>
        <time>2026-05-24T11:38:00Z</time>
      </trkpt>
      <trkpt lat="48.60313" lon="2.05372">
        <ele>137.2</ele>
        <time>2026-05-24T11:38:01Z</time>
      </trkpt>
      <trkpt lat="48.60316" lon="2.0537">
        <ele>137.4</ele>
        <time>2026-05-24T11:38:02Z</time>
      </trkpt>
      <trkpt lat="48.60319" lon="2.05367">
        <ele>137.4</ele>
        <time>2026-05-24T11:38:03Z</time>
      </trkpt>
      <trkpt lat="48.60322" lon="2.05364">
        <ele>137.4</ele>
        <time>2026-05-24T11:38:04Z</time>
      </trkpt>
      <trkpt lat="48.60323" lon="2.05362">
        <ele>137.4</ele>
        <time>2026-05-24T11:38:05Z</time>
      </trkpt>
      <trkpt lat="48.60326" lon="2.0536">
        <ele>137.4</ele>
        <time>2026-05-24T11:38:06Z</time>
      </trkpt>
      <trkpt lat="48.60329" lon="2.05357">
        <ele>137.4</ele>
        <time>2026-05-24T11:38:07Z</time>
      </trkpt>
      <trkpt lat="48.60333" lon="2.05355">
        <ele>137.4</ele>
        <time>2026-05-24T11:38:08Z</time>
      </trkpt>
      <trkpt lat="48.60335" lon="2.05353">
        <ele>137.4</ele>
        <time>2026-05-24T11:38:09Z</time>
      </trkpt>
      <trkpt lat="48.60338" lon="2.05351">
        <ele>137.2</ele>
        <time>2026-05-24T11:38:10Z</time>
      </trkpt>
      <trkpt lat="48.60341" lon="2.05347">
        <ele>137.2</ele>
        <time>2026-05-24T11:38:11Z</time>
      </trkpt>
      <trkpt lat="48.60344" lon="2.05344">
        <ele>137.2</ele>
        <time>2026-05-24T11:38:12Z</time>
      </trkpt>
      <trkpt lat="48.60347" lon="2.05341">
        <ele>137.4</ele>
        <time>2026-05-24T11:38:13Z</time>
      </trkpt>
      <trkpt lat="48.60348" lon="2.05338">
        <ele>137.2</ele>
        <time>2026-05-24T11:38:14Z</time>
      </trkpt>
      <trkpt lat="48.6035" lon="2.05333">
        <ele>137.2</ele>
        <time>2026-05-24T11:38:15Z</time>
      </trkpt>
      <trkpt lat="48.60351" lon="2.0533">
        <ele>137.2</ele>
        <time>2026-05-24T11:38:16Z</time>
      </trkpt>
      <trkpt lat="48.6035" lon="2.05328">
        <ele>137.2</ele>
        <time>2026-05-24T11:38:17Z</time>
      </trkpt>
      <trkpt lat="48.60351" lon="2.05327">
        <ele>137.2</ele>
        <time>2026-05-24T11:38:18Z</time>
      </trkpt>
      <trkpt lat="48.60351" lon="2.05327">
        <ele>137.2</ele>
        <time>2026-05-24T11:38:19Z</time>
      </trkpt>
      <trkpt lat="48.60356" lon="2.05311">
        <ele>137.8</ele>
        <time>2026-05-24T11:38:26Z</time>
      </trkpt>
      <trkpt lat="48.60356" lon="2.05308">
        <ele>137.8</ele>
        <time>2026-05-24T11:38:27Z</time>
      </trkpt>
      <trkpt lat="48.60356" lon="2.05305">
        <ele>137.8</ele>
        <time>2026-05-24T11:38:28Z</time>
      </trkpt>
      <trkpt lat="48.60356" lon="2.05302">
        <ele>137.8</ele>
        <time>2026-05-24T11:38:29Z</time>
      </trkpt>
      <trkpt lat="48.60356" lon="2.05298">
        <ele>138.6</ele>
        <time>2026-05-24T11:38:30Z</time>
      </trkpt>
      <trkpt lat="48.60357" lon="2.05295">
        <ele>138.6</ele>
        <time>2026-05-24T11:38:31Z</time>
      </trkpt>
      <trkpt lat="48.60357" lon="2.05293">
        <ele>138.6</ele>
        <time>2026-05-24T11:38:32Z</time>
      </trkpt>
      <trkpt lat="48.60357" lon="2.05291">
        <ele>138.6</ele>
        <time>2026-05-24T11:38:33Z</time>
      </trkpt>
      <trkpt lat="48.60356" lon="2.05287">
        <ele>138.8</ele>
        <time>2026-05-24T11:38:34Z</time>
      </trkpt>
      <trkpt lat="48.60356" lon="2.05283">
        <ele>138.8</ele>
        <time>2026-05-24T11:38:35Z</time>
      </trkpt>
      <trkpt lat="48.60355" lon="2.05279">
        <ele>138.8</ele>
        <time>2026-05-24T11:38:36Z</time>
      </trkpt>
      <trkpt lat="48.60354" lon="2.05277">
        <ele>139.2</ele>
        <time>2026-05-24T11:38:37Z</time>
      </trkpt>
      <trkpt lat="48.60353" lon="2.05275">
        <ele>139.8</ele>
        <time>2026-05-24T11:38:38Z</time>
      </trkpt>
      <trkpt lat="48.60351" lon="2.05273">
        <ele>139.8</ele>
        <time>2026-05-24T11:38:39Z</time>
      </trkpt>
      <trkpt lat="48.60349" lon="2.05271">
        <ele>139.8</ele>
        <time>2026-05-24T11:38:40Z</time>
      </trkpt>
      <trkpt lat="48.60346" lon="2.0527">
        <ele>139.4</ele>
        <time>2026-05-24T11:38:41Z</time>
      </trkpt>
      <trkpt lat="48.60343" lon="2.05267">
        <ele>139</ele>
        <time>2026-05-24T11:38:42Z</time>
      </trkpt>
      <trkpt lat="48.6034" lon="2.05265">
        <ele>139</ele>
        <time>2026-05-24T11:38:43Z</time>
      </trkpt>
      <trkpt lat="48.60337" lon="2.05263">
        <ele>139</ele>
        <time>2026-05-24T11:38:44Z</time>
      </trkpt>
      <trkpt lat="48.60334" lon="2.0526">
        <ele>139</ele>
        <time>2026-05-24T11:38:45Z</time>
      </trkpt>
      <trkpt lat="48.6033" lon="2.05257">
        <ele>138.8</ele>
        <time>2026-05-24T11:38:46Z</time>
      </trkpt>
      <trkpt lat="48.60326" lon="2.05255">
        <ele>138.8</ele>
        <time>2026-05-24T11:38:47Z</time>
      </trkpt>
      <trkpt lat="48.60322" lon="2.05252">
        <ele>138.8</ele>
        <time>2026-05-24T11:38:48Z</time>
      </trkpt>
      <trkpt lat="48.60319" lon="2.0525">
        <ele>138.8</ele>
        <time>2026-05-24T11:38:49Z</time>
      </trkpt>
      <trkpt lat="48.60316" lon="2.05247">
        <ele>138.2</ele>
        <time>2026-05-24T11:38:50Z</time>
      </trkpt>
      <trkpt lat="48.60313" lon="2.05245">
        <ele>138.2</ele>
        <time>2026-05-24T11:38:51Z</time>
      </trkpt>
      <trkpt lat="48.6031" lon="2.05242">
        <ele>138.2</ele>
        <time>2026-05-24T11:38:52Z</time>
      </trkpt>
      <trkpt lat="48.60307" lon="2.0524">
        <ele>139.2</ele>
        <time>2026-05-24T11:38:53Z</time>
      </trkpt>
      <trkpt lat="48.60303" lon="2.05239">
        <ele>138.8</ele>
        <time>2026-05-24T11:38:54Z</time>
      </trkpt>
      <trkpt lat="48.603" lon="2.05237">
        <ele>138.8</ele>
        <time>2026-05-24T11:38:55Z</time>
      </trkpt>
      <trkpt lat="48.60297" lon="2.05235">
        <ele>138.8</ele>
        <time>2026-05-24T11:38:56Z</time>
      </trkpt>
      <trkpt lat="48.60295" lon="2.05233">
        <ele>139</ele>
        <time>2026-05-24T11:38:57Z</time>
      </trkpt>
      <trkpt lat="48.60292" lon="2.0523">
        <ele>139</ele>
        <time>2026-05-24T11:38:58Z</time>
      </trkpt>
      <trkpt lat="48.60288" lon="2.05228">
        <ele>139</ele>
        <time>2026-05-24T11:38:59Z</time>
      </trkpt>
      <trkpt lat="48.60285" lon="2.05226">
        <ele>139</ele>
        <time>2026-05-24T11:39:00Z</time>
      </trkpt>
      <trkpt lat="48.60283" lon="2.05224">
        <ele>139</ele>
        <time>2026-05-24T11:39:01Z</time>
      </trkpt>
      <trkpt lat="48.6028" lon="2.05221">
        <ele>139</ele>
        <time>2026-05-24T11:39:02Z</time>
      </trkpt>
      <trkpt lat="48.60277" lon="2.05219">
        <ele>139</ele>
        <time>2026-05-24T11:39:03Z</time>
      </trkpt>
      <trkpt lat="48.60274" lon="2.05217">
        <ele>139</ele>
        <time>2026-05-24T11:39:04Z</time>
      </trkpt>
      <trkpt lat="48.6027" lon="2.05214">
        <ele>139</ele>
        <time>2026-05-24T11:39:05Z</time>
      </trkpt>
      <trkpt lat="48.60266" lon="2.05212">
        <ele>139</ele>
        <time>2026-05-24T11:39:06Z</time>
      </trkpt>
      <trkpt lat="48.60263" lon="2.0521">
        <ele>139</ele>
        <time>2026-05-24T11:39:07Z</time>
      </trkpt>
      <trkpt lat="48.6026" lon="2.05208">
        <ele>139</ele>
        <time>2026-05-24T11:39:08Z</time>
      </trkpt>
      <trkpt lat="48.60257" lon="2.05206">
        <ele>140</ele>
        <time>2026-05-24T11:39:09Z</time>
      </trkpt>
      <trkpt lat="48.60253" lon="2.05205">
        <ele>140</ele>
        <time>2026-05-24T11:39:10Z</time>
      </trkpt>
      <trkpt lat="48.6025" lon="2.05203">
        <ele>140</ele>
        <time>2026-05-24T11:39:11Z</time>
      </trkpt>
      <trkpt lat="48.60246" lon="2.052">
        <ele>140</ele>
        <time>2026-05-24T11:39:12Z</time>
      </trkpt>
      <trkpt lat="48.60243" lon="2.05198">
        <ele>140</ele>
        <time>2026-05-24T11:39:13Z</time>
      </trkpt>
      <trkpt lat="48.60239" lon="2.05196">
        <ele>139.8</ele>
        <time>2026-05-24T11:39:14Z</time>
      </trkpt>
      <trkpt lat="48.60236" lon="2.05193">
        <ele>139.8</ele>
        <time>2026-05-24T11:39:15Z</time>
      </trkpt>
      <trkpt lat="48.60233" lon="2.05191">
        <ele>139.8</ele>
        <time>2026-05-24T11:39:16Z</time>
      </trkpt>
      <trkpt lat="48.6023" lon="2.0519">
        <ele>139.8</ele>
        <time>2026-05-24T11:39:17Z</time>
      </trkpt>
      <trkpt lat="48.60227" lon="2.05187">
        <ele>140.2</ele>
        <time>2026-05-24T11:39:18Z</time>
      </trkpt>
      <trkpt lat="48.60223" lon="2.05185">
        <ele>140.2</ele>
        <time>2026-05-24T11:39:19Z</time>
      </trkpt>
      <trkpt lat="48.6022" lon="2.05183">
        <ele>140.2</ele>
        <time>2026-05-24T11:39:20Z</time>
      </trkpt>
      <trkpt lat="48.60217" lon="2.05181">
        <ele>141.2</ele>
        <time>2026-05-24T11:39:21Z</time>
      </trkpt>
      <trkpt lat="48.60214" lon="2.05179">
        <ele>140.4</ele>
        <time>2026-05-24T11:39:22Z</time>
      </trkpt>
      <trkpt lat="48.60211" lon="2.05177">
        <ele>140.4</ele>
        <time>2026-05-24T11:39:23Z</time>
      </trkpt>
      <trkpt lat="48.60208" lon="2.05175">
        <ele>140.4</ele>
        <time>2026-05-24T11:39:24Z</time>
      </trkpt>
      <trkpt lat="48.60205" lon="2.05173">
        <ele>140.4</ele>
        <time>2026-05-24T11:39:25Z</time>
      </trkpt>
      <trkpt lat="48.60202" lon="2.05171">
        <ele>140.8</ele>
        <time>2026-05-24T11:39:26Z</time>
      </trkpt>
      <trkpt lat="48.60199" lon="2.05169">
        <ele>140.8</ele>
        <time>2026-05-24T11:39:27Z</time>
      </trkpt>
      <trkpt lat="48.60195" lon="2.05167">
        <ele>140.8</ele>
        <time>2026-05-24T11:39:28Z</time>
      </trkpt>
      <trkpt lat="48.60192" lon="2.05165">
        <ele>140.4</ele>
        <time>2026-05-24T11:39:29Z</time>
      </trkpt>
      <trkpt lat="48.60189" lon="2.05163">
        <ele>140.6</ele>
        <time>2026-05-24T11:39:30Z</time>
      </trkpt>
      <trkpt lat="48.60186" lon="2.05161">
        <ele>140.6</ele>
        <time>2026-05-24T11:39:31Z</time>
      </trkpt>
      <trkpt lat="48.60183" lon="2.05159">
        <ele>140.6</ele>
        <time>2026-05-24T11:39:32Z</time>
      </trkpt>
      <trkpt lat="48.6018" lon="2.05156">
        <ele>141.6</ele>
        <time>2026-05-24T11:39:33Z</time>
      </trkpt>
      <trkpt lat="48.60177" lon="2.05154">
        <ele>140.8</ele>
        <time>2026-05-24T11:39:34Z</time>
      </trkpt>
      <trkpt lat="48.60174" lon="2.05152">
        <ele>140.8</ele>
        <time>2026-05-24T11:39:35Z</time>
      </trkpt>
      <trkpt lat="48.60171" lon="2.0515">
        <ele>140.8</ele>
        <time>2026-05-24T11:39:36Z</time>
      </trkpt>
      <trkpt lat="48.60168" lon="2.05148">
        <ele>141.8</ele>
        <time>2026-05-24T11:39:37Z</time>
      </trkpt>
      <trkpt lat="48.60166" lon="2.05146">
        <ele>141.2</ele>
        <time>2026-05-24T11:39:38Z</time>
      </trkpt>
      <trkpt lat="48.60163" lon="2.05144">
        <ele>141.2</ele>
        <time>2026-05-24T11:39:39Z</time>
      </trkpt>
      <trkpt lat="48.6016" lon="2.05142">
        <ele>141.2</ele>
        <time>2026-05-24T11:39:40Z</time>
      </trkpt>
      <trkpt lat="48.60157" lon="2.0514">
        <ele>141.2</ele>
        <time>2026-05-24T11:39:41Z</time>
      </trkpt>
      <trkpt lat="48.60154" lon="2.05138">
        <ele>141.6</ele>
        <time>2026-05-24T11:39:42Z</time>
      </trkpt>
      <trkpt lat="48.60151" lon="2.05136">
        <ele>141.6</ele>
        <time>2026-05-24T11:39:43Z</time>
      </trkpt>
      <trkpt lat="48.60148" lon="2.05135">
        <ele>141.6</ele>
        <time>2026-05-24T11:39:44Z</time>
      </trkpt>
      <trkpt lat="48.60145" lon="2.05133">
        <ele>141.6</ele>
        <time>2026-05-24T11:39:45Z</time>
      </trkpt>
      <trkpt lat="48.60143" lon="2.05131">
        <ele>142.2</ele>
        <time>2026-05-24T11:39:46Z</time>
      </trkpt>
      <trkpt lat="48.6014" lon="2.05129">
        <ele>142.2</ele>
        <time>2026-05-24T11:39:47Z</time>
      </trkpt>
      <trkpt lat="48.60138" lon="2.05127">
        <ele>142.2</ele>
        <time>2026-05-24T11:39:48Z</time>
      </trkpt>
      <trkpt lat="48.60136" lon="2.05126">
        <ele>142.2</ele>
        <time>2026-05-24T11:39:49Z</time>
      </trkpt>
      <trkpt lat="48.60133" lon="2.05124">
        <ele>142.4</ele>
        <time>2026-05-24T11:39:50Z</time>
      </trkpt>
      <trkpt lat="48.60131" lon="2.05123">
        <ele>142.4</ele>
        <time>2026-05-24T11:39:51Z</time>
      </trkpt>
      <trkpt lat="48.60129" lon="2.05122">
        <ele>142.4</ele>
        <time>2026-05-24T11:39:52Z</time>
      </trkpt>
      <trkpt lat="48.60127" lon="2.0512">
        <ele>143.4</ele>
        <time>2026-05-24T11:39:53Z</time>
      </trkpt>
      <trkpt lat="48.60125" lon="2.05118">
        <ele>143.6</ele>
        <time>2026-05-24T11:39:54Z</time>
      </trkpt>
      <trkpt lat="48.60123" lon="2.05116">
        <ele>143.6</ele>
        <time>2026-05-24T11:39:55Z</time>
      </trkpt>
      <trkpt lat="48.60121" lon="2.05115">
        <ele>143.6</ele>
        <time>2026-05-24T11:39:56Z</time>
      </trkpt>
      <trkpt lat="48.60119" lon="2.05113">
        <ele>143.6</ele>
        <time>2026-05-24T11:39:57Z</time>
      </trkpt>
      <trkpt lat="48.60117" lon="2.05111">
        <ele>144</ele>
        <time>2026-05-24T11:39:58Z</time>
      </trkpt>
      <trkpt lat="48.60115" lon="2.0511">
        <ele>144</ele>
        <time>2026-05-24T11:39:59Z</time>
      </trkpt>
      <trkpt lat="48.60112" lon="2.05109">
        <ele>144</ele>
        <time>2026-05-24T11:40:00Z</time>
      </trkpt>
      <trkpt lat="48.6011" lon="2.05108">
        <ele>144</ele>
        <time>2026-05-24T11:40:01Z</time>
      </trkpt>
      <trkpt lat="48.60107" lon="2.05106">
        <ele>144.6</ele>
        <time>2026-05-24T11:40:02Z</time>
      </trkpt>
      <trkpt lat="48.60105" lon="2.05105">
        <ele>144.6</ele>
        <time>2026-05-24T11:40:03Z</time>
      </trkpt>
      <trkpt lat="48.60103" lon="2.05103">
        <ele>144.6</ele>
        <time>2026-05-24T11:40:04Z</time>
      </trkpt>
      <trkpt lat="48.60101" lon="2.05102">
        <ele>144.6</ele>
        <time>2026-05-24T11:40:05Z</time>
      </trkpt>
      <trkpt lat="48.60099" lon="2.051">
        <ele>145</ele>
        <time>2026-05-24T11:40:06Z</time>
      </trkpt>
      <trkpt lat="48.60097" lon="2.05099">
        <ele>145</ele>
        <time>2026-05-24T11:40:07Z</time>
      </trkpt>
      <trkpt lat="48.60095" lon="2.05097">
        <ele>145</ele>
        <time>2026-05-24T11:40:08Z</time>
      </trkpt>
      <trkpt lat="48.60092" lon="2.05095">
        <ele>145</ele>
        <time>2026-05-24T11:40:09Z</time>
      </trkpt>
      <trkpt lat="48.6009" lon="2.05093">
        <ele>145.6</ele>
        <time>2026-05-24T11:40:10Z</time>
      </trkpt>
      <trkpt lat="48.60088" lon="2.05091">
        <ele>145.6</ele>
        <time>2026-05-24T11:40:11Z</time>
      </trkpt>
      <trkpt lat="48.60085" lon="2.05089">
        <ele>145.6</ele>
        <time>2026-05-24T11:40:12Z</time>
      </trkpt>
      <trkpt lat="48.60083" lon="2.05087">
        <ele>145.6</ele>
        <time>2026-05-24T11:40:13Z</time>
      </trkpt>
      <trkpt lat="48.60081" lon="2.05086">
        <ele>145.6</ele>
        <time>2026-05-24T11:40:14Z</time>
      </trkpt>
      <trkpt lat="48.60078" lon="2.05084">
        <ele>145.6</ele>
        <time>2026-05-24T11:40:15Z</time>
      </trkpt>
      <trkpt lat="48.60076" lon="2.05083">
        <ele>145.6</ele>
        <time>2026-05-24T11:40:16Z</time>
      </trkpt>
      <trkpt lat="48.60074" lon="2.05081">
        <ele>145.6</ele>
        <time>2026-05-24T11:40:17Z</time>
      </trkpt>
      <trkpt lat="48.60071" lon="2.05079">
        <ele>146</ele>
        <time>2026-05-24T11:40:18Z</time>
      </trkpt>
      <trkpt lat="48.60068" lon="2.05077">
        <ele>146</ele>
        <time>2026-05-24T11:40:19Z</time>
      </trkpt>
      <trkpt lat="48.60065" lon="2.05075">
        <ele>146</ele>
        <time>2026-05-24T11:40:20Z</time>
      </trkpt>
      <trkpt lat="48.60063" lon="2.05072">
        <ele>147</ele>
        <time>2026-05-24T11:40:21Z</time>
      </trkpt>
      <trkpt lat="48.6006" lon="2.0507">
        <ele>146.4</ele>
        <time>2026-05-24T11:40:22Z</time>
      </trkpt>
      <trkpt lat="48.60057" lon="2.05067">
        <ele>146.4</ele>
        <time>2026-05-24T11:40:23Z</time>
      </trkpt>
      <trkpt lat="48.60054" lon="2.05066">
        <ele>146.4</ele>
        <time>2026-05-24T11:40:24Z</time>
      </trkpt>
      <trkpt lat="48.60052" lon="2.05064">
        <ele>147</ele>
        <time>2026-05-24T11:40:25Z</time>
      </trkpt>
      <trkpt lat="48.60049" lon="2.05063">
        <ele>146.6</ele>
        <time>2026-05-24T11:40:26Z</time>
      </trkpt>
      <trkpt lat="48.60047" lon="2.05061">
        <ele>146.6</ele>
        <time>2026-05-24T11:40:27Z</time>
      </trkpt>
      <trkpt lat="48.60044" lon="2.05059">
        <ele>146.6</ele>
        <time>2026-05-24T11:40:28Z</time>
      </trkpt>
      <trkpt lat="48.60041" lon="2.05058">
        <ele>147</ele>
        <time>2026-05-24T11:40:29Z</time>
      </trkpt>
      <trkpt lat="48.60039" lon="2.05057">
        <ele>147.4</ele>
        <time>2026-05-24T11:40:30Z</time>
      </trkpt>
      <trkpt lat="48.60036" lon="2.05056">
        <ele>147.4</ele>
        <time>2026-05-24T11:40:31Z</time>
      </trkpt>
      <trkpt lat="48.60033" lon="2.05054">
        <ele>147.4</ele>
        <time>2026-05-24T11:40:32Z</time>
      </trkpt>
      <trkpt lat="48.6003" lon="2.05052">
        <ele>146.8</ele>
        <time>2026-05-24T11:40:33Z</time>
      </trkpt>
      <trkpt lat="48.60028" lon="2.0505">
        <ele>147.2</ele>
        <time>2026-05-24T11:40:34Z</time>
      </trkpt>
      <trkpt lat="48.60025" lon="2.05048">
        <ele>147.2</ele>
        <time>2026-05-24T11:40:35Z</time>
      </trkpt>
      <trkpt lat="48.60023" lon="2.05047">
        <ele>147.2</ele>
        <time>2026-05-24T11:40:36Z</time>
      </trkpt>
      <trkpt lat="48.6002" lon="2.05045">
        <ele>147.2</ele>
        <time>2026-05-24T11:40:37Z</time>
      </trkpt>
      <trkpt lat="48.60018" lon="2.05042">
        <ele>147</ele>
        <time>2026-05-24T11:40:38Z</time>
      </trkpt>
      <trkpt lat="48.60015" lon="2.0504">
        <ele>147</ele>
        <time>2026-05-24T11:40:39Z</time>
      </trkpt>
      <trkpt lat="48.60012" lon="2.05038">
        <ele>147</ele>
        <time>2026-05-24T11:40:40Z</time>
      </trkpt>
      <trkpt lat="48.60009" lon="2.05036">
        <ele>147</ele>
        <time>2026-05-24T11:40:41Z</time>
      </trkpt>
      <trkpt lat="48.60006" lon="2.05034">
        <ele>147.4</ele>
        <time>2026-05-24T11:40:42Z</time>
      </trkpt>
      <trkpt lat="48.60004" lon="2.05032">
        <ele>147.4</ele>
        <time>2026-05-24T11:40:43Z</time>
      </trkpt>
      <trkpt lat="48.60001" lon="2.0503">
        <ele>147.4</ele>
        <time>2026-05-24T11:40:44Z</time>
      </trkpt>
      <trkpt lat="48.59999" lon="2.05029">
        <ele>147.8</ele>
        <time>2026-05-24T11:40:45Z</time>
      </trkpt>
      <trkpt lat="48.59996" lon="2.05027">
        <ele>148.2</ele>
        <time>2026-05-24T11:40:46Z</time>
      </trkpt>
      <trkpt lat="48.59994" lon="2.05025">
        <ele>148.2</ele>
        <time>2026-05-24T11:40:47Z</time>
      </trkpt>
      <trkpt lat="48.59992" lon="2.05024">
        <ele>148.2</ele>
        <time>2026-05-24T11:40:48Z</time>
      </trkpt>
      <trkpt lat="48.59989" lon="2.05022">
        <ele>148</ele>
        <time>2026-05-24T11:40:49Z</time>
      </trkpt>
      <trkpt lat="48.59987" lon="2.0502">
        <ele>148.2</ele>
        <time>2026-05-24T11:40:50Z</time>
      </trkpt>
      <trkpt lat="48.59985" lon="2.05019">
        <ele>148.2</ele>
        <time>2026-05-24T11:40:51Z</time>
      </trkpt>
      <trkpt lat="48.59983" lon="2.05018">
        <ele>148.2</ele>
        <time>2026-05-24T11:40:52Z</time>
      </trkpt>
      <trkpt lat="48.5998" lon="2.05017">
        <ele>148.4</ele>
        <time>2026-05-24T11:40:53Z</time>
      </trkpt>
      <trkpt lat="48.59978" lon="2.05016">
        <ele>149</ele>
        <time>2026-05-24T11:40:54Z</time>
      </trkpt>
      <trkpt lat="48.59976" lon="2.05015">
        <ele>149</ele>
        <time>2026-05-24T11:40:55Z</time>
      </trkpt>
      <trkpt lat="48.59973" lon="2.05014">
        <ele>149</ele>
        <time>2026-05-24T11:40:56Z</time>
      </trkpt>
      <trkpt lat="48.59971" lon="2.05012">
        <ele>149</ele>
        <time>2026-05-24T11:40:57Z</time>
      </trkpt>
      <trkpt lat="48.59969" lon="2.0501">
        <ele>149.6</ele>
        <time>2026-05-24T11:40:58Z</time>
      </trkpt>
      <trkpt lat="48.59966" lon="2.05008">
        <ele>149.6</ele>
        <time>2026-05-24T11:40:59Z</time>
      </trkpt>
      <trkpt lat="48.59964" lon="2.05005">
        <ele>149.6</ele>
        <time>2026-05-24T11:41:00Z</time>
      </trkpt>
      <trkpt lat="48.59962" lon="2.05004">
        <ele>149.4</ele>
        <time>2026-05-24T11:41:01Z</time>
      </trkpt>
      <trkpt lat="48.59959" lon="2.05002">
        <ele>149.8</ele>
        <time>2026-05-24T11:41:02Z</time>
      </trkpt>
      <trkpt lat="48.59957" lon="2.05001">
        <ele>149.8</ele>
        <time>2026-05-24T11:41:03Z</time>
      </trkpt>
      <trkpt lat="48.59955" lon="2.04999">
        <ele>149.8</ele>
        <time>2026-05-24T11:41:04Z</time>
      </trkpt>
      <trkpt lat="48.59953" lon="2.04998">
        <ele>149.8</ele>
        <time>2026-05-24T11:41:05Z</time>
      </trkpt>
      <trkpt lat="48.5995" lon="2.04996">
        <ele>149.8</ele>
        <time>2026-05-24T11:41:06Z</time>
      </trkpt>
      <trkpt lat="48.59948" lon="2.04995">
        <ele>149.8</ele>
        <time>2026-05-24T11:41:07Z</time>
      </trkpt>
      <trkpt lat="48.59946" lon="2.04993">
        <ele>149.8</ele>
        <time>2026-05-24T11:41:08Z</time>
      </trkpt>
      <trkpt lat="48.59944" lon="2.04991">
        <ele>150.2</ele>
        <time>2026-05-24T11:41:09Z</time>
      </trkpt>
      <trkpt lat="48.59941" lon="2.04989">
        <ele>150.2</ele>
        <time>2026-05-24T11:41:10Z</time>
      </trkpt>
      <trkpt lat="48.59939" lon="2.04988">
        <ele>150.2</ele>
        <time>2026-05-24T11:41:11Z</time>
      </trkpt>
      <trkpt lat="48.59937" lon="2.04987">
        <ele>150.2</ele>
        <time>2026-05-24T11:41:12Z</time>
      </trkpt>
      <trkpt lat="48.59936" lon="2.04986">
        <ele>151</ele>
        <time>2026-05-24T11:41:13Z</time>
      </trkpt>
      <trkpt lat="48.59934" lon="2.04985">
        <ele>151.4</ele>
        <time>2026-05-24T11:41:14Z</time>
      </trkpt>
      <trkpt lat="48.59933" lon="2.04983">
        <ele>151.4</ele>
        <time>2026-05-24T11:41:15Z</time>
      </trkpt>
      <trkpt lat="48.59931" lon="2.04982">
        <ele>151.4</ele>
        <time>2026-05-24T11:41:16Z</time>
      </trkpt>
      <trkpt lat="48.59929" lon="2.04981">
        <ele>151.4</ele>
        <time>2026-05-24T11:41:17Z</time>
      </trkpt>
      <trkpt lat="48.59926" lon="2.04979">
        <ele>152.8</ele>
        <time>2026-05-24T11:41:18Z</time>
      </trkpt>
      <trkpt lat="48.59924" lon="2.04978">
        <ele>152.8</ele>
        <time>2026-05-24T11:41:19Z</time>
      </trkpt>
      <trkpt lat="48.59922" lon="2.04977">
        <ele>152.8</ele>
        <time>2026-05-24T11:41:20Z</time>
      </trkpt>
      <trkpt lat="48.5992" lon="2.04975">
        <ele>152.8</ele>
        <time>2026-05-24T11:41:21Z</time>
      </trkpt>
      <trkpt lat="48.59918" lon="2.04973">
        <ele>152</ele>
        <time>2026-05-24T11:41:22Z</time>
      </trkpt>
      <trkpt lat="48.59916" lon="2.04971">
        <ele>152</ele>
        <time>2026-05-24T11:41:23Z</time>
      </trkpt>
      <trkpt lat="48.59913" lon="2.04969">
        <ele>152</ele>
        <time>2026-05-24T11:41:24Z</time>
      </trkpt>
      <trkpt lat="48.59912" lon="2.04966">
        <ele>153</ele>
        <time>2026-05-24T11:41:25Z</time>
      </trkpt>
      <trkpt lat="48.5991" lon="2.04964">
        <ele>152.6</ele>
        <time>2026-05-24T11:41:26Z</time>
      </trkpt>
      <trkpt lat="48.59909" lon="2.04961">
        <ele>152.6</ele>
        <time>2026-05-24T11:41:27Z</time>
      </trkpt>
      <trkpt lat="48.59907" lon="2.04957">
        <ele>152.6</ele>
        <time>2026-05-24T11:41:28Z</time>
      </trkpt>
      <trkpt lat="48.59906" lon="2.04954">
        <ele>152.6</ele>
        <time>2026-05-24T11:41:29Z</time>
      </trkpt>
      <trkpt lat="48.59905" lon="2.04951">
        <ele>152.6</ele>
        <time>2026-05-24T11:41:30Z</time>
      </trkpt>
      <trkpt lat="48.59904" lon="2.04947">
        <ele>152.8</ele>
        <time>2026-05-24T11:41:31Z</time>
      </trkpt>
      <trkpt lat="48.59902" lon="2.04944">
        <ele>152.8</ele>
        <time>2026-05-24T11:41:32Z</time>
      </trkpt>
      <trkpt lat="48.59901" lon="2.04941">
        <ele>152.8</ele>
        <time>2026-05-24T11:41:33Z</time>
      </trkpt>
      <trkpt lat="48.599" lon="2.04937">
        <ele>152.8</ele>
        <time>2026-05-24T11:41:34Z</time>
      </trkpt>
      <trkpt lat="48.59899" lon="2.04935">
        <ele>152.8</ele>
        <time>2026-05-24T11:41:35Z</time>
      </trkpt>
      <trkpt lat="48.59898" lon="2.04932">
        <ele>152.8</ele>
        <time>2026-05-24T11:41:36Z</time>
      </trkpt>
      <trkpt lat="48.59897" lon="2.04929">
        <ele>152.8</ele>
        <time>2026-05-24T11:41:37Z</time>
      </trkpt>
      <trkpt lat="48.59896" lon="2.04926">
        <ele>153</ele>
        <time>2026-05-24T11:41:38Z</time>
      </trkpt>
      <trkpt lat="48.59895" lon="2.04922">
        <ele>153</ele>
        <time>2026-05-24T11:41:39Z</time>
      </trkpt>
      <trkpt lat="48.59893" lon="2.04918">
        <ele>153</ele>
        <time>2026-05-24T11:41:40Z</time>
      </trkpt>
      <trkpt lat="48.59891" lon="2.04915">
        <ele>153</ele>
        <time>2026-05-24T11:41:41Z</time>
      </trkpt>
      <trkpt lat="48.5989" lon="2.04912">
        <ele>153.4</ele>
        <time>2026-05-24T11:41:42Z</time>
      </trkpt>
      <trkpt lat="48.59889" lon="2.04909">
        <ele>153.4</ele>
        <time>2026-05-24T11:41:43Z</time>
      </trkpt>
      <trkpt lat="48.59888" lon="2.04907">
        <ele>153.4</ele>
        <time>2026-05-24T11:41:44Z</time>
      </trkpt>
      <trkpt lat="48.59887" lon="2.04904">
        <ele>153.4</ele>
        <time>2026-05-24T11:41:45Z</time>
      </trkpt>
      <trkpt lat="48.59886" lon="2.04901">
        <ele>154.2</ele>
        <time>2026-05-24T11:41:46Z</time>
      </trkpt>
      <trkpt lat="48.59885" lon="2.04897">
        <ele>154.2</ele>
        <time>2026-05-24T11:41:47Z</time>
      </trkpt>
      <trkpt lat="48.59884" lon="2.04894">
        <ele>154.2</ele>
        <time>2026-05-24T11:41:48Z</time>
      </trkpt>
      <trkpt lat="48.59883" lon="2.04889">
        <ele>155.2</ele>
        <time>2026-05-24T11:41:49Z</time>
      </trkpt>
      <trkpt lat="48.59883" lon="2.04885">
        <ele>154.4</ele>
        <time>2026-05-24T11:41:50Z</time>
      </trkpt>
      <trkpt lat="48.59882" lon="2.04882">
        <ele>154.4</ele>
        <time>2026-05-24T11:41:51Z</time>
      </trkpt>
      <trkpt lat="48.59883" lon="2.04879">
        <ele>154.4</ele>
        <time>2026-05-24T11:41:52Z</time>
      </trkpt>
      <trkpt lat="48.59882" lon="2.04877">
        <ele>155</ele>
        <time>2026-05-24T11:41:53Z</time>
      </trkpt>
      <trkpt lat="48.59882" lon="2.04874">
        <ele>155</ele>
        <time>2026-05-24T11:41:54Z</time>
      </trkpt>
      <trkpt lat="48.59882" lon="2.04872">
        <ele>155</ele>
        <time>2026-05-24T11:41:55Z</time>
      </trkpt>
      <trkpt lat="48.59882" lon="2.04869">
        <ele>155</ele>
        <time>2026-05-24T11:41:56Z</time>
      </trkpt>
      <trkpt lat="48.59881" lon="2.04865">
        <ele>155.6</ele>
        <time>2026-05-24T11:41:57Z</time>
      </trkpt>
      <trkpt lat="48.59881" lon="2.04862">
        <ele>156.6</ele>
        <time>2026-05-24T11:41:58Z</time>
      </trkpt>
      <trkpt lat="48.59882" lon="2.04859">
        <ele>156.6</ele>
        <time>2026-05-24T11:41:59Z</time>
      </trkpt>
      <trkpt lat="48.59883" lon="2.04856">
        <ele>156.6</ele>
        <time>2026-05-24T11:42:00Z</time>
      </trkpt>
      <trkpt lat="48.59884" lon="2.04853">
        <ele>156.6</ele>
        <time>2026-05-24T11:42:01Z</time>
      </trkpt>
      <trkpt lat="48.59885" lon="2.04851">
        <ele>157.6</ele>
        <time>2026-05-24T11:42:02Z</time>
      </trkpt>
      <trkpt lat="48.59886" lon="2.04848">
        <ele>157.6</ele>
        <time>2026-05-24T11:42:03Z</time>
      </trkpt>
      <trkpt lat="48.59887" lon="2.04845">
        <ele>157.6</ele>
        <time>2026-05-24T11:42:04Z</time>
      </trkpt>
      <trkpt lat="48.59888" lon="2.04842">
        <ele>157.4</ele>
        <time>2026-05-24T11:42:05Z</time>
      </trkpt>
      <trkpt lat="48.59888" lon="2.04838">
        <ele>158.4</ele>
        <time>2026-05-24T11:42:06Z</time>
      </trkpt>
      <trkpt lat="48.59889" lon="2.04836">
        <ele>158.4</ele>
        <time>2026-05-24T11:42:07Z</time>
      </trkpt>
      <trkpt lat="48.59888" lon="2.04833">
        <ele>158.4</ele>
        <time>2026-05-24T11:42:08Z</time>
      </trkpt>
      <trkpt lat="48.59889" lon="2.0483">
        <ele>158.4</ele>
        <time>2026-05-24T11:42:09Z</time>
      </trkpt>
      <trkpt lat="48.59889" lon="2.04826">
        <ele>159.2</ele>
        <time>2026-05-24T11:42:10Z</time>
      </trkpt>
      <trkpt lat="48.5989" lon="2.04823">
        <ele>159.2</ele>
        <time>2026-05-24T11:42:11Z</time>
      </trkpt>
      <trkpt lat="48.59889" lon="2.04819">
        <ele>159.2</ele>
        <time>2026-05-24T11:42:12Z</time>
      </trkpt>
      <trkpt lat="48.5989" lon="2.04815">
        <ele>159.2</ele>
        <time>2026-05-24T11:42:13Z</time>
      </trkpt>
      <trkpt lat="48.59891" lon="2.04813">
        <ele>159</ele>
        <time>2026-05-24T11:42:14Z</time>
      </trkpt>
      <trkpt lat="48.59893" lon="2.04809">
        <ele>159</ele>
        <time>2026-05-24T11:42:15Z</time>
      </trkpt>
      <trkpt lat="48.59893" lon="2.04806">
        <ele>159</ele>
        <time>2026-05-24T11:42:16Z</time>
      </trkpt>
      <trkpt lat="48.59894" lon="2.04803">
        <ele>160</ele>
        <time>2026-05-24T11:42:17Z</time>
      </trkpt>
      <trkpt lat="48.59895" lon="2.04801">
        <ele>160.2</ele>
        <time>2026-05-24T11:42:18Z</time>
      </trkpt>
      <trkpt lat="48.59895" lon="2.04798">
        <ele>160.2</ele>
        <time>2026-05-24T11:42:19Z</time>
      </trkpt>
      <trkpt lat="48.59896" lon="2.04795">
        <ele>160.2</ele>
        <time>2026-05-24T11:42:20Z</time>
      </trkpt>
      <trkpt lat="48.59896" lon="2.04792">
        <ele>160.8</ele>
        <time>2026-05-24T11:42:21Z</time>
      </trkpt>
      <trkpt lat="48.59896" lon="2.0479">
        <ele>161.2</ele>
        <time>2026-05-24T11:42:22Z</time>
      </trkpt>
      <trkpt lat="48.59896" lon="2.04787">
        <ele>161.2</ele>
        <time>2026-05-24T11:42:23Z</time>
      </trkpt>
      <trkpt lat="48.59896" lon="2.04785">
        <ele>161.2</ele>
        <time>2026-05-24T11:42:24Z</time>
      </trkpt>
      <trkpt lat="48.59895" lon="2.04783">
        <ele>161.2</ele>
        <time>2026-05-24T11:42:25Z</time>
      </trkpt>
      <trkpt lat="48.59895" lon="2.0478">
        <ele>161.8</ele>
        <time>2026-05-24T11:42:26Z</time>
      </trkpt>
      <trkpt lat="48.59897" lon="2.04777">
        <ele>161.8</ele>
        <time>2026-05-24T11:42:27Z</time>
      </trkpt>
      <trkpt lat="48.59897" lon="2.04774">
        <ele>161.8</ele>
        <time>2026-05-24T11:42:28Z</time>
      </trkpt>
      <trkpt lat="48.59898" lon="2.0477">
        <ele>161.8</ele>
        <time>2026-05-24T11:42:29Z</time>
      </trkpt>
      <trkpt lat="48.59898" lon="2.04767">
        <ele>162.6</ele>
        <time>2026-05-24T11:42:30Z</time>
      </trkpt>
      <trkpt lat="48.59898" lon="2.04764">
        <ele>162.6</ele>
        <time>2026-05-24T11:42:31Z</time>
      </trkpt>
      <trkpt lat="48.59898" lon="2.04761">
        <ele>162.6</ele>
        <time>2026-05-24T11:42:32Z</time>
      </trkpt>
      <trkpt lat="48.59899" lon="2.04758">
        <ele>162.6</ele>
        <time>2026-05-24T11:42:33Z</time>
      </trkpt>
      <trkpt lat="48.59899" lon="2.04755">
        <ele>162.8</ele>
        <time>2026-05-24T11:42:34Z</time>
      </trkpt>
      <trkpt lat="48.599" lon="2.04751">
        <ele>162.8</ele>
        <time>2026-05-24T11:42:35Z</time>
      </trkpt>
      <trkpt lat="48.599" lon="2.04749">
        <ele>162.8</ele>
        <time>2026-05-24T11:42:36Z</time>
      </trkpt>
      <trkpt lat="48.59901" lon="2.04746">
        <ele>163.8</ele>
        <time>2026-05-24T11:42:37Z</time>
      </trkpt>
      <trkpt lat="48.59902" lon="2.04744">
        <ele>162.6</ele>
        <time>2026-05-24T11:42:38Z</time>
      </trkpt>
      <trkpt lat="48.59903" lon="2.04742">
        <ele>162.6</ele>
        <time>2026-05-24T11:42:39Z</time>
      </trkpt>
      <trkpt lat="48.59904" lon="2.04739">
        <ele>162.6</ele>
        <time>2026-05-24T11:42:40Z</time>
      </trkpt>
      <trkpt lat="48.59905" lon="2.04737">
        <ele>163.2</ele>
        <time>2026-05-24T11:42:41Z</time>
      </trkpt>
      <trkpt lat="48.59906" lon="2.04735">
        <ele>164</ele>
        <time>2026-05-24T11:42:42Z</time>
      </trkpt>
      <trkpt lat="48.59907" lon="2.04733">
        <ele>164</ele>
        <time>2026-05-24T11:42:43Z</time>
      </trkpt>
      <trkpt lat="48.59908" lon="2.04731">
        <ele>164</ele>
        <time>2026-05-24T11:42:44Z</time>
      </trkpt>
      <trkpt lat="48.59909" lon="2.04728">
        <ele>164</ele>
        <time>2026-05-24T11:42:45Z</time>
      </trkpt>
      <trkpt lat="48.5991" lon="2.04726">
        <ele>164.4</ele>
        <time>2026-05-24T11:42:46Z</time>
      </trkpt>
      <trkpt lat="48.59912" lon="2.04724">
        <ele>164.4</ele>
        <time>2026-05-24T11:42:47Z</time>
      </trkpt>
      <trkpt lat="48.59913" lon="2.04721">
        <ele>164.4</ele>
        <time>2026-05-24T11:42:48Z</time>
      </trkpt>
      <trkpt lat="48.59914" lon="2.04718">
        <ele>164.4</ele>
        <time>2026-05-24T11:42:49Z</time>
      </trkpt>
      <trkpt lat="48.59914" lon="2.04716">
        <ele>165.6</ele>
        <time>2026-05-24T11:42:50Z</time>
      </trkpt>
      <trkpt lat="48.59915" lon="2.04714">
        <ele>165.6</ele>
        <time>2026-05-24T11:42:51Z</time>
      </trkpt>
      <trkpt lat="48.59916" lon="2.04712">
        <ele>165.6</ele>
        <time>2026-05-24T11:42:52Z</time>
      </trkpt>
      <trkpt lat="48.59917" lon="2.0471">
        <ele>165.6</ele>
        <time>2026-05-24T11:42:53Z</time>
      </trkpt>
      <trkpt lat="48.59918" lon="2.04707">
        <ele>165.6</ele>
        <time>2026-05-24T11:42:54Z</time>
      </trkpt>
      <trkpt lat="48.5992" lon="2.04704">
        <ele>165.6</ele>
        <time>2026-05-24T11:42:55Z</time>
      </trkpt>
      <trkpt lat="48.59922" lon="2.04701">
        <ele>165.6</ele>
        <time>2026-05-24T11:42:56Z</time>
      </trkpt>
      <trkpt lat="48.59922" lon="2.04698">
        <ele>166.2</ele>
        <time>2026-05-24T11:42:57Z</time>
      </trkpt>
      <trkpt lat="48.59924" lon="2.04695">
        <ele>166.4</ele>
        <time>2026-05-24T11:42:58Z</time>
      </trkpt>
      <trkpt lat="48.59925" lon="2.04693">
        <ele>166.4</ele>
        <time>2026-05-24T11:42:59Z</time>
      </trkpt>
      <trkpt lat="48.59927" lon="2.0469">
        <ele>166.4</ele>
        <time>2026-05-24T11:43:00Z</time>
      </trkpt>
      <trkpt lat="48.59928" lon="2.04687">
        <ele>167</ele>
        <time>2026-05-24T11:43:01Z</time>
      </trkpt>
      <trkpt lat="48.5993" lon="2.04684">
        <ele>167.2</ele>
        <time>2026-05-24T11:43:02Z</time>
      </trkpt>
      <trkpt lat="48.59931" lon="2.04681">
        <ele>167.2</ele>
        <time>2026-05-24T11:43:03Z</time>
      </trkpt>
      <trkpt lat="48.59932" lon="2.04679">
        <ele>167.2</ele>
        <time>2026-05-24T11:43:04Z</time>
      </trkpt>
      <trkpt lat="48.59934" lon="2.04677">
        <ele>167.2</ele>
        <time>2026-05-24T11:43:05Z</time>
      </trkpt>
      <trkpt lat="48.59935" lon="2.04674">
        <ele>167.8</ele>
        <time>2026-05-24T11:43:06Z</time>
      </trkpt>
      <trkpt lat="48.59936" lon="2.04673">
        <ele>167.8</ele>
        <time>2026-05-24T11:43:07Z</time>
      </trkpt>
      <trkpt lat="48.59937" lon="2.04671">
        <ele>167.8</ele>
        <time>2026-05-24T11:43:08Z</time>
      </trkpt>
      <trkpt lat="48.59938" lon="2.04668">
        <ele>167.8</ele>
        <time>2026-05-24T11:43:09Z</time>
      </trkpt>
      <trkpt lat="48.5994" lon="2.04665">
        <ele>168.2</ele>
        <time>2026-05-24T11:43:10Z</time>
      </trkpt>
      <trkpt lat="48.5994" lon="2.04663">
        <ele>168.2</ele>
        <time>2026-05-24T11:43:11Z</time>
      </trkpt>
      <trkpt lat="48.59941" lon="2.0466">
        <ele>168.2</ele>
        <time>2026-05-24T11:43:12Z</time>
      </trkpt>
      <trkpt lat="48.59943" lon="2.04658">
        <ele>168.2</ele>
        <time>2026-05-24T11:43:13Z</time>
      </trkpt>
      <trkpt lat="48.59943" lon="2.04655">
        <ele>169</ele>
        <time>2026-05-24T11:43:14Z</time>
      </trkpt>
      <trkpt lat="48.59944" lon="2.04653">
        <ele>169</ele>
        <time>2026-05-24T11:43:15Z</time>
      </trkpt>
      <trkpt lat="48.59944" lon="2.0465">
        <ele>169</ele>
        <time>2026-05-24T11:43:16Z</time>
      </trkpt>
      <trkpt lat="48.59944" lon="2.04648">
        <ele>169</ele>
        <time>2026-05-24T11:43:17Z</time>
      </trkpt>
      <trkpt lat="48.59944" lon="2.04646">
        <ele>169.8</ele>
        <time>2026-05-24T11:43:18Z</time>
      </trkpt>
      <trkpt lat="48.59944" lon="2.04644">
        <ele>169.8</ele>
        <time>2026-05-24T11:43:19Z</time>
      </trkpt>
      <trkpt lat="48.59944" lon="2.04642">
        <ele>169.8</ele>
        <time>2026-05-24T11:43:20Z</time>
      </trkpt>
      <trkpt lat="48.59944" lon="2.04639">
        <ele>169.8</ele>
        <time>2026-05-24T11:43:21Z</time>
      </trkpt>
      <trkpt lat="48.59946" lon="2.04636">
        <ele>170.4</ele>
        <time>2026-05-24T11:43:22Z</time>
      </trkpt>
      <trkpt lat="48.59947" lon="2.04633">
        <ele>170.4</ele>
        <time>2026-05-24T11:43:23Z</time>
      </trkpt>
      <trkpt lat="48.59947" lon="2.04628">
        <ele>170.4</ele>
        <time>2026-05-24T11:43:24Z</time>
      </trkpt>
      <trkpt lat="48.59948" lon="2.04624">
        <ele>170.4</ele>
        <time>2026-05-24T11:43:25Z</time>
      </trkpt>
      <trkpt lat="48.59948" lon="2.0462">
        <ele>171</ele>
        <time>2026-05-24T11:43:26Z</time>
      </trkpt>
      <trkpt lat="48.59948" lon="2.04616">
        <ele>171</ele>
        <time>2026-05-24T11:43:27Z</time>
      </trkpt>
      <trkpt lat="48.59949" lon="2.0461">
        <ele>171</ele>
        <time>2026-05-24T11:43:28Z</time>
      </trkpt>
      <trkpt lat="48.59948" lon="2.04606">
        <ele>171</ele>
        <time>2026-05-24T11:43:29Z</time>
      </trkpt>
      <trkpt lat="48.59948" lon="2.046">
        <ele>170.2</ele>
        <time>2026-05-24T11:43:30Z</time>
      </trkpt>
      <trkpt lat="48.59947" lon="2.04594">
        <ele>170.2</ele>
        <time>2026-05-24T11:43:31Z</time>
      </trkpt>
      <trkpt lat="48.59946" lon="2.04589">
        <ele>170.2</ele>
        <time>2026-05-24T11:43:32Z</time>
      </trkpt>
      <trkpt lat="48.59946" lon="2.04584">
        <ele>170.2</ele>
        <time>2026-05-24T11:43:33Z</time>
      </trkpt>
      <trkpt lat="48.59945" lon="2.04579">
        <ele>170.8</ele>
        <time>2026-05-24T11:43:34Z</time>
      </trkpt>
      <trkpt lat="48.59944" lon="2.04574">
        <ele>170.8</ele>
        <time>2026-05-24T11:43:35Z</time>
      </trkpt>
      <trkpt lat="48.59943" lon="2.04569">
        <ele>170.8</ele>
        <time>2026-05-24T11:43:36Z</time>
      </trkpt>
      <trkpt lat="48.59942" lon="2.04564">
        <ele>171.6</ele>
        <time>2026-05-24T11:43:37Z</time>
      </trkpt>
      <trkpt lat="48.5994" lon="2.04559">
        <ele>171.8</ele>
        <time>2026-05-24T11:43:38Z</time>
      </trkpt>
      <trkpt lat="48.59939" lon="2.04554">
        <ele>171.8</ele>
        <time>2026-05-24T11:43:39Z</time>
      </trkpt>
      <trkpt lat="48.59938" lon="2.04548">
        <ele>171.8</ele>
        <time>2026-05-24T11:43:40Z</time>
      </trkpt>
      <trkpt lat="48.59936" lon="2.04542">
        <ele>170.8</ele>
        <time>2026-05-24T11:43:41Z</time>
      </trkpt>
      <trkpt lat="48.59936" lon="2.04536">
        <ele>170.6</ele>
        <time>2026-05-24T11:43:42Z</time>
      </trkpt>
      <trkpt lat="48.59935" lon="2.0453">
        <ele>170.6</ele>
        <time>2026-05-24T11:43:43Z</time>
      </trkpt>
      <trkpt lat="48.59934" lon="2.04524">
        <ele>170.6</ele>
        <time>2026-05-24T11:43:44Z</time>
      </trkpt>
      <trkpt lat="48.59933" lon="2.04517">
        <ele>170.4</ele>
        <time>2026-05-24T11:43:45Z</time>
      </trkpt>
      <trkpt lat="48.59932" lon="2.0451">
        <ele>170.2</ele>
        <time>2026-05-24T11:43:46Z</time>
      </trkpt>
      <trkpt lat="48.5993" lon="2.04503">
        <ele>170.2</ele>
        <time>2026-05-24T11:43:47Z</time>
      </trkpt>
      <trkpt lat="48.5993" lon="2.04496">
        <ele>170.2</ele>
        <time>2026-05-24T11:43:48Z</time>
      </trkpt>
      <trkpt lat="48.59928" lon="2.04489">
        <ele>170.2</ele>
        <time>2026-05-24T11:43:49Z</time>
      </trkpt>
      <trkpt lat="48.59927" lon="2.04481">
        <ele>170.6</ele>
        <time>2026-05-24T11:43:50Z</time>
      </trkpt>
      <trkpt lat="48.59926" lon="2.04475">
        <ele>170.6</ele>
        <time>2026-05-24T11:43:51Z</time>
      </trkpt>
      <trkpt lat="48.59924" lon="2.04468">
        <ele>170.6</ele>
        <time>2026-05-24T11:43:52Z</time>
      </trkpt>
      <trkpt lat="48.59923" lon="2.0446">
        <ele>169.6</ele>
        <time>2026-05-24T11:43:53Z</time>
      </trkpt>
      <trkpt lat="48.59922" lon="2.04453">
        <ele>169.8</ele>
        <time>2026-05-24T11:43:54Z</time>
      </trkpt>
      <trkpt lat="48.59921" lon="2.04446">
        <ele>169.8</ele>
        <time>2026-05-24T11:43:55Z</time>
      </trkpt>
      <trkpt lat="48.5992" lon="2.04439">
        <ele>169.8</ele>
        <time>2026-05-24T11:43:56Z</time>
      </trkpt>
      <trkpt lat="48.59918" lon="2.04432">
        <ele>169.8</ele>
        <time>2026-05-24T11:43:57Z</time>
      </trkpt>
      <trkpt lat="48.59917" lon="2.04427">
        <ele>169.2</ele>
        <time>2026-05-24T11:43:58Z</time>
      </trkpt>
      <trkpt lat="48.59915" lon="2.04421">
        <ele>169.2</ele>
        <time>2026-05-24T11:43:59Z</time>
      </trkpt>
      <trkpt lat="48.59914" lon="2.04414">
        <ele>169.2</ele>
        <time>2026-05-24T11:44:00Z</time>
      </trkpt>
      <trkpt lat="48.59912" lon="2.04407">
        <ele>169.6</ele>
        <time>2026-05-24T11:44:01Z</time>
      </trkpt>
      <trkpt lat="48.59911" lon="2.04401">
        <ele>169.4</ele>
        <time>2026-05-24T11:44:02Z</time>
      </trkpt>
      <trkpt lat="48.5991" lon="2.04394">
        <ele>169.4</ele>
        <time>2026-05-24T11:44:03Z</time>
      </trkpt>
      <trkpt lat="48.59908" lon="2.04387">
        <ele>169.4</ele>
        <time>2026-05-24T11:44:04Z</time>
      </trkpt>
      <trkpt lat="48.59906" lon="2.04381">
        <ele>169.4</ele>
        <time>2026-05-24T11:44:05Z</time>
      </trkpt>
      <trkpt lat="48.59904" lon="2.04373">
        <ele>169</ele>
        <time>2026-05-24T11:44:06Z</time>
      </trkpt>
      <trkpt lat="48.59902" lon="2.04367">
        <ele>169</ele>
        <time>2026-05-24T11:44:07Z</time>
      </trkpt>
      <trkpt lat="48.59901" lon="2.04358">
        <ele>169</ele>
        <time>2026-05-24T11:44:08Z</time>
      </trkpt>
      <trkpt lat="48.599" lon="2.04351">
        <ele>169</ele>
        <time>2026-05-24T11:44:09Z</time>
      </trkpt>
      <trkpt lat="48.59898" lon="2.04343">
        <ele>169</ele>
        <time>2026-05-24T11:44:10Z</time>
      </trkpt>
      <trkpt lat="48.59896" lon="2.04334">
        <ele>169</ele>
        <time>2026-05-24T11:44:11Z</time>
      </trkpt>
      <trkpt lat="48.59894" lon="2.04326">
        <ele>169</ele>
        <time>2026-05-24T11:44:12Z</time>
      </trkpt>
      <trkpt lat="48.59893" lon="2.04317">
        <ele>168</ele>
        <time>2026-05-24T11:44:13Z</time>
      </trkpt>
      <trkpt lat="48.59891" lon="2.04308">
        <ele>167.2</ele>
        <time>2026-05-24T11:44:14Z</time>
      </trkpt>
      <trkpt lat="48.5989" lon="2.04299">
        <ele>167.2</ele>
        <time>2026-05-24T11:44:15Z</time>
      </trkpt>
      <trkpt lat="48.59887" lon="2.04292">
        <ele>167.2</ele>
        <time>2026-05-24T11:44:16Z</time>
      </trkpt>
      <trkpt lat="48.59885" lon="2.04284">
        <ele>167.6</ele>
        <time>2026-05-24T11:44:17Z</time>
      </trkpt>
      <trkpt lat="48.59883" lon="2.04275">
        <ele>167.2</ele>
        <time>2026-05-24T11:44:18Z</time>
      </trkpt>
      <trkpt lat="48.59881" lon="2.04266">
        <ele>167.2</ele>
        <time>2026-05-24T11:44:19Z</time>
      </trkpt>
      <trkpt lat="48.5988" lon="2.04258">
        <ele>167.2</ele>
        <time>2026-05-24T11:44:20Z</time>
      </trkpt>
      <trkpt lat="48.59878" lon="2.0425">
        <ele>166.8</ele>
        <time>2026-05-24T11:44:21Z</time>
      </trkpt>
      <trkpt lat="48.59877" lon="2.04243">
        <ele>166.4</ele>
        <time>2026-05-24T11:44:22Z</time>
      </trkpt>
      <trkpt lat="48.59876" lon="2.04236">
        <ele>166.4</ele>
        <time>2026-05-24T11:44:23Z</time>
      </trkpt>
      <trkpt lat="48.59874" lon="2.04228">
        <ele>166.4</ele>
        <time>2026-05-24T11:44:24Z</time>
      </trkpt>
      <trkpt lat="48.59873" lon="2.04221">
        <ele>166.6</ele>
        <time>2026-05-24T11:44:25Z</time>
      </trkpt>
      <trkpt lat="48.5987" lon="2.04213">
        <ele>166.2</ele>
        <time>2026-05-24T11:44:26Z</time>
      </trkpt>
      <trkpt lat="48.59868" lon="2.04205">
        <ele>166.2</ele>
        <time>2026-05-24T11:44:27Z</time>
      </trkpt>
      <trkpt lat="48.59866" lon="2.04197">
        <ele>166.2</ele>
        <time>2026-05-24T11:44:28Z</time>
      </trkpt>
      <trkpt lat="48.59864" lon="2.0419">
        <ele>166.2</ele>
        <time>2026-05-24T11:44:29Z</time>
      </trkpt>
      <trkpt lat="48.59863" lon="2.04183">
        <ele>166.4</ele>
        <time>2026-05-24T11:44:30Z</time>
      </trkpt>
      <trkpt lat="48.59861" lon="2.04175">
        <ele>166.4</ele>
        <time>2026-05-24T11:44:31Z</time>
      </trkpt>
      <trkpt lat="48.5986" lon="2.04168">
        <ele>166.4</ele>
        <time>2026-05-24T11:44:32Z</time>
      </trkpt>
      <trkpt lat="48.59858" lon="2.04161">
        <ele>166.4</ele>
        <time>2026-05-24T11:44:33Z</time>
      </trkpt>
      <trkpt lat="48.59857" lon="2.04154">
        <ele>167.4</ele>
        <time>2026-05-24T11:44:34Z</time>
      </trkpt>
      <trkpt lat="48.59855" lon="2.04146">
        <ele>167.4</ele>
        <time>2026-05-24T11:44:35Z</time>
      </trkpt>
      <trkpt lat="48.59854" lon="2.0414">
        <ele>167.4</ele>
        <time>2026-05-24T11:44:36Z</time>
      </trkpt>
      <trkpt lat="48.59853" lon="2.04134">
        <ele>166.4</ele>
        <time>2026-05-24T11:44:37Z</time>
      </trkpt>
      <trkpt lat="48.59852" lon="2.04127">
        <ele>167.6</ele>
        <time>2026-05-24T11:44:38Z</time>
      </trkpt>
      <trkpt lat="48.59851" lon="2.0412">
        <ele>167.6</ele>
        <time>2026-05-24T11:44:39Z</time>
      </trkpt>
      <trkpt lat="48.59849" lon="2.04112">
        <ele>167.6</ele>
        <time>2026-05-24T11:44:40Z</time>
      </trkpt>
      <trkpt lat="48.59847" lon="2.04106">
        <ele>167</ele>
        <time>2026-05-24T11:44:41Z</time>
      </trkpt>
      <trkpt lat="48.59845" lon="2.04098">
        <ele>167</ele>
        <time>2026-05-24T11:44:42Z</time>
      </trkpt>
      <trkpt lat="48.59845" lon="2.0409">
        <ele>167</ele>
        <time>2026-05-24T11:44:43Z</time>
      </trkpt>
      <trkpt lat="48.59843" lon="2.04082">
        <ele>167</ele>
        <time>2026-05-24T11:44:44Z</time>
      </trkpt>
      <trkpt lat="48.5984" lon="2.04074">
        <ele>167</ele>
        <time>2026-05-24T11:44:45Z</time>
      </trkpt>
      <trkpt lat="48.59839" lon="2.04068">
        <ele>169.6</ele>
        <time>2026-05-24T11:44:46Z</time>
      </trkpt>
      <trkpt lat="48.59838" lon="2.0406">
        <ele>169.6</ele>
        <time>2026-05-24T11:44:47Z</time>
      </trkpt>
      <trkpt lat="48.59836" lon="2.04052">
        <ele>169.6</ele>
        <time>2026-05-24T11:44:48Z</time>
      </trkpt>
      <trkpt lat="48.59834" lon="2.04044">
        <ele>168.6</ele>
        <time>2026-05-24T11:44:49Z</time>
      </trkpt>
      <trkpt lat="48.59832" lon="2.04037">
        <ele>167.2</ele>
        <time>2026-05-24T11:44:50Z</time>
      </trkpt>
      <trkpt lat="48.59831" lon="2.04028">
        <ele>167.2</ele>
        <time>2026-05-24T11:44:51Z</time>
      </trkpt>
      <trkpt lat="48.5983" lon="2.04022">
        <ele>167.2</ele>
        <time>2026-05-24T11:44:52Z</time>
      </trkpt>
      <trkpt lat="48.59828" lon="2.04015">
        <ele>167</ele>
        <time>2026-05-24T11:44:53Z</time>
      </trkpt>
      <trkpt lat="48.59826" lon="2.04007">
        <ele>167</ele>
        <time>2026-05-24T11:44:54Z</time>
      </trkpt>
      <trkpt lat="48.59825" lon="2.04">
        <ele>167</ele>
        <time>2026-05-24T11:44:55Z</time>
      </trkpt>
      <trkpt lat="48.59823" lon="2.03992">
        <ele>167</ele>
        <time>2026-05-24T11:44:56Z</time>
      </trkpt>
      <trkpt lat="48.59822" lon="2.03986">
        <ele>167</ele>
        <time>2026-05-24T11:44:57Z</time>
      </trkpt>
      <trkpt lat="48.59821" lon="2.03977">
        <ele>166.8</ele>
        <time>2026-05-24T11:44:58Z</time>
      </trkpt>
      <trkpt lat="48.59819" lon="2.0397">
        <ele>166.8</ele>
        <time>2026-05-24T11:44:59Z</time>
      </trkpt>
      <trkpt lat="48.59818" lon="2.03962">
        <ele>166.8</ele>
        <time>2026-05-24T11:45:00Z</time>
      </trkpt>
      <trkpt lat="48.59816" lon="2.03954">
        <ele>166.8</ele>
        <time>2026-05-24T11:45:01Z</time>
      </trkpt>
      <trkpt lat="48.59814" lon="2.03947">
        <ele>166.6</ele>
        <time>2026-05-24T11:45:02Z</time>
      </trkpt>
      <trkpt lat="48.59813" lon="2.03939">
        <ele>166.6</ele>
        <time>2026-05-24T11:45:03Z</time>
      </trkpt>
      <trkpt lat="48.59811" lon="2.03933">
        <ele>166.6</ele>
        <time>2026-05-24T11:45:04Z</time>
      </trkpt>
      <trkpt lat="48.5981" lon="2.03926">
        <ele>166.6</ele>
        <time>2026-05-24T11:45:05Z</time>
      </trkpt>
      <trkpt lat="48.59808" lon="2.03918">
        <ele>166.6</ele>
        <time>2026-05-24T11:45:06Z</time>
      </trkpt>
      <trkpt lat="48.59807" lon="2.0391">
        <ele>166.6</ele>
        <time>2026-05-24T11:45:07Z</time>
      </trkpt>
      <trkpt lat="48.59805" lon="2.03903">
        <ele>166.6</ele>
        <time>2026-05-24T11:45:08Z</time>
      </trkpt>
      <trkpt lat="48.59804" lon="2.03896">
        <ele>166.6</ele>
        <time>2026-05-24T11:45:09Z</time>
      </trkpt>
      <trkpt lat="48.59802" lon="2.03888">
        <ele>166</ele>
        <time>2026-05-24T11:45:10Z</time>
      </trkpt>
      <trkpt lat="48.598" lon="2.03882">
        <ele>166</ele>
        <time>2026-05-24T11:45:11Z</time>
      </trkpt>
      <trkpt lat="48.59798" lon="2.03873">
        <ele>166</ele>
        <time>2026-05-24T11:45:12Z</time>
      </trkpt>
      <trkpt lat="48.59797" lon="2.03864">
        <ele>167</ele>
        <time>2026-05-24T11:45:13Z</time>
      </trkpt>
      <trkpt lat="48.59795" lon="2.03856">
        <ele>167.6</ele>
        <time>2026-05-24T11:45:14Z</time>
      </trkpt>
      <trkpt lat="48.59794" lon="2.03849">
        <ele>167.6</ele>
        <time>2026-05-24T11:45:15Z</time>
      </trkpt>
      <trkpt lat="48.59792" lon="2.0384">
        <ele>167.6</ele>
        <time>2026-05-24T11:45:16Z</time>
      </trkpt>
      <trkpt lat="48.5979" lon="2.03832">
        <ele>167.6</ele>
        <time>2026-05-24T11:45:17Z</time>
      </trkpt>
      <trkpt lat="48.59788" lon="2.03824">
        <ele>167.6</ele>
        <time>2026-05-24T11:45:18Z</time>
      </trkpt>
      <trkpt lat="48.59787" lon="2.03817">
        <ele>167.6</ele>
        <time>2026-05-24T11:45:19Z</time>
      </trkpt>
      <trkpt lat="48.59786" lon="2.03809">
        <ele>167.6</ele>
        <time>2026-05-24T11:45:20Z</time>
      </trkpt>
      <trkpt lat="48.59784" lon="2.03801">
        <ele>167.6</ele>
        <time>2026-05-24T11:45:21Z</time>
      </trkpt>
      <trkpt lat="48.59782" lon="2.03793">
        <ele>166.4</ele>
        <time>2026-05-24T11:45:22Z</time>
      </trkpt>
      <trkpt lat="48.59781" lon="2.03785">
        <ele>166.4</ele>
        <time>2026-05-24T11:45:23Z</time>
      </trkpt>
      <trkpt lat="48.5978" lon="2.03777">
        <ele>166.4</ele>
        <time>2026-05-24T11:45:24Z</time>
      </trkpt>
      <trkpt lat="48.59778" lon="2.03769">
        <ele>167.2</ele>
        <time>2026-05-24T11:45:25Z</time>
      </trkpt>
      <trkpt lat="48.59776" lon="2.03761">
        <ele>167.2</ele>
        <time>2026-05-24T11:45:26Z</time>
      </trkpt>
      <trkpt lat="48.59774" lon="2.03751">
        <ele>167.2</ele>
        <time>2026-05-24T11:45:27Z</time>
      </trkpt>
      <trkpt lat="48.59773" lon="2.03742">
        <ele>167.2</ele>
        <time>2026-05-24T11:45:28Z</time>
      </trkpt>
      <trkpt lat="48.59772" lon="2.03733">
        <ele>167.2</ele>
        <time>2026-05-24T11:45:29Z</time>
      </trkpt>
      <trkpt lat="48.59771" lon="2.03725">
        <ele>167.4</ele>
        <time>2026-05-24T11:45:30Z</time>
      </trkpt>
      <trkpt lat="48.59768" lon="2.03718">
        <ele>167.4</ele>
        <time>2026-05-24T11:45:31Z</time>
      </trkpt>
      <trkpt lat="48.59766" lon="2.0371">
        <ele>167.4</ele>
        <time>2026-05-24T11:45:32Z</time>
      </trkpt>
      <trkpt lat="48.59764" lon="2.03702">
        <ele>166.6</ele>
        <time>2026-05-24T11:45:33Z</time>
      </trkpt>
      <trkpt lat="48.59761" lon="2.03695">
        <ele>165.6</ele>
        <time>2026-05-24T11:45:34Z</time>
      </trkpt>
      <trkpt lat="48.59758" lon="2.03689">
        <ele>165.6</ele>
        <time>2026-05-24T11:45:35Z</time>
      </trkpt>
      <trkpt lat="48.59753" lon="2.03684">
        <ele>165.6</ele>
        <time>2026-05-24T11:45:36Z</time>
      </trkpt>
      <trkpt lat="48.59749" lon="2.0368">
        <ele>165.6</ele>
        <time>2026-05-24T11:45:37Z</time>
      </trkpt>
      <trkpt lat="48.59745" lon="2.03679">
        <ele>165.2</ele>
        <time>2026-05-24T11:45:38Z</time>
      </trkpt>
      <trkpt lat="48.5974" lon="2.03677">
        <ele>165.2</ele>
        <time>2026-05-24T11:45:39Z</time>
      </trkpt>
      <trkpt lat="48.59736" lon="2.03674">
        <ele>165.2</ele>
        <time>2026-05-24T11:45:40Z</time>
      </trkpt>
      <trkpt lat="48.59732" lon="2.03672">
        <ele>165.2</ele>
        <time>2026-05-24T11:45:41Z</time>
      </trkpt>
      <trkpt lat="48.59728" lon="2.0367">
        <ele>164.2</ele>
        <time>2026-05-24T11:45:42Z</time>
      </trkpt>
      <trkpt lat="48.59724" lon="2.03669">
        <ele>164.2</ele>
        <time>2026-05-24T11:45:43Z</time>
      </trkpt>
      <trkpt lat="48.59721" lon="2.03668">
        <ele>164.2</ele>
        <time>2026-05-24T11:45:44Z</time>
      </trkpt>
      <trkpt lat="48.59717" lon="2.03666">
        <ele>165.2</ele>
        <time>2026-05-24T11:45:45Z</time>
      </trkpt>
      <trkpt lat="48.59714" lon="2.03664">
        <ele>166.2</ele>
        <time>2026-05-24T11:45:46Z</time>
      </trkpt>
      <trkpt lat="48.59711" lon="2.03663">
        <ele>166.2</ele>
        <time>2026-05-24T11:45:47Z</time>
      </trkpt>
      <trkpt lat="48.59707" lon="2.03661">
        <ele>166.2</ele>
        <time>2026-05-24T11:45:48Z</time>
      </trkpt>
      <trkpt lat="48.59703" lon="2.0366">
        <ele>166.4</ele>
        <time>2026-05-24T11:45:49Z</time>
      </trkpt>
      <trkpt lat="48.597" lon="2.03659">
        <ele>166.4</ele>
        <time>2026-05-24T11:45:50Z</time>
      </trkpt>
      <trkpt lat="48.59698" lon="2.03658">
        <ele>166.4</ele>
        <time>2026-05-24T11:45:51Z</time>
      </trkpt>
      <trkpt lat="48.59694" lon="2.03657">
        <ele>166.4</ele>
        <time>2026-05-24T11:45:52Z</time>
      </trkpt>
      <trkpt lat="48.5969" lon="2.03656">
        <ele>167.2</ele>
        <time>2026-05-24T11:45:53Z</time>
      </trkpt>
      <trkpt lat="48.59686" lon="2.03656">
        <ele>167.8</ele>
        <time>2026-05-24T11:45:54Z</time>
      </trkpt>
      <trkpt lat="48.59682" lon="2.03655">
        <ele>167.8</ele>
        <time>2026-05-24T11:45:55Z</time>
      </trkpt>
      <trkpt lat="48.59678" lon="2.03654">
        <ele>167.8</ele>
        <time>2026-05-24T11:45:56Z</time>
      </trkpt>
      <trkpt lat="48.59675" lon="2.03653">
        <ele>167.8</ele>
        <time>2026-05-24T11:45:57Z</time>
      </trkpt>
      <trkpt lat="48.59672" lon="2.03652">
        <ele>167.6</ele>
        <time>2026-05-24T11:45:58Z</time>
      </trkpt>
      <trkpt lat="48.59668" lon="2.03651">
        <ele>167.6</ele>
        <time>2026-05-24T11:45:59Z</time>
      </trkpt>
      <trkpt lat="48.59665" lon="2.03651">
        <ele>167.6</ele>
        <time>2026-05-24T11:46:00Z</time>
      </trkpt>
      <trkpt lat="48.59662" lon="2.0365">
        <ele>167.6</ele>
        <time>2026-05-24T11:46:01Z</time>
      </trkpt>
      <trkpt lat="48.59659" lon="2.0365">
        <ele>168.2</ele>
        <time>2026-05-24T11:46:02Z</time>
      </trkpt>
      <trkpt lat="48.59656" lon="2.0365">
        <ele>168.2</ele>
        <time>2026-05-24T11:46:03Z</time>
      </trkpt>
      <trkpt lat="48.59652" lon="2.03649">
        <ele>168.2</ele>
        <time>2026-05-24T11:46:04Z</time>
      </trkpt>
      <trkpt lat="48.59648" lon="2.03649">
        <ele>168.2</ele>
        <time>2026-05-24T11:46:05Z</time>
      </trkpt>
      <trkpt lat="48.59645" lon="2.03648">
        <ele>168.2</ele>
        <time>2026-05-24T11:46:06Z</time>
      </trkpt>
      <trkpt lat="48.59643" lon="2.03646">
        <ele>168.2</ele>
        <time>2026-05-24T11:46:07Z</time>
      </trkpt>
      <trkpt lat="48.5964" lon="2.03645">
        <ele>168.2</ele>
        <time>2026-05-24T11:46:08Z</time>
      </trkpt>
      <trkpt lat="48.59637" lon="2.03644">
        <ele>168.8</ele>
        <time>2026-05-24T11:46:09Z</time>
      </trkpt>
      <trkpt lat="48.59634" lon="2.03643">
        <ele>168.6</ele>
        <time>2026-05-24T11:46:10Z</time>
      </trkpt>
      <trkpt lat="48.59631" lon="2.03642">
        <ele>168.6</ele>
        <time>2026-05-24T11:46:11Z</time>
      </trkpt>
      <trkpt lat="48.59627" lon="2.03641">
        <ele>168.6</ele>
        <time>2026-05-24T11:46:12Z</time>
      </trkpt>
      <trkpt lat="48.59624" lon="2.03641">
        <ele>168.6</ele>
        <time>2026-05-24T11:46:13Z</time>
      </trkpt>
      <trkpt lat="48.5962" lon="2.03639">
        <ele>168.8</ele>
        <time>2026-05-24T11:46:14Z</time>
      </trkpt>
      <trkpt lat="48.59616" lon="2.03638">
        <ele>168.8</ele>
        <time>2026-05-24T11:46:15Z</time>
      </trkpt>
      <trkpt lat="48.59613" lon="2.03636">
        <ele>168.8</ele>
        <time>2026-05-24T11:46:16Z</time>
      </trkpt>
      <trkpt lat="48.59609" lon="2.03636">
        <ele>168.8</ele>
        <time>2026-05-24T11:46:17Z</time>
      </trkpt>
      <trkpt lat="48.59606" lon="2.03636">
        <ele>168.6</ele>
        <time>2026-05-24T11:46:18Z</time>
      </trkpt>
      <trkpt lat="48.59602" lon="2.03634">
        <ele>168.6</ele>
        <time>2026-05-24T11:46:19Z</time>
      </trkpt>
      <trkpt lat="48.59599" lon="2.03633">
        <ele>168.6</ele>
        <time>2026-05-24T11:46:20Z</time>
      </trkpt>
      <trkpt lat="48.59594" lon="2.03632">
        <ele>168.6</ele>
        <time>2026-05-24T11:46:21Z</time>
      </trkpt>
      <trkpt lat="48.59592" lon="2.0363">
        <ele>169.4</ele>
        <time>2026-05-24T11:46:22Z</time>
      </trkpt>
      <trkpt lat="48.59588" lon="2.0363">
        <ele>169.4</ele>
        <time>2026-05-24T11:46:23Z</time>
      </trkpt>
      <trkpt lat="48.59585" lon="2.03629">
        <ele>169.4</ele>
        <time>2026-05-24T11:46:24Z</time>
      </trkpt>
      <trkpt lat="48.59581" lon="2.03629">
        <ele>169.4</ele>
        <time>2026-05-24T11:46:25Z</time>
      </trkpt>
      <trkpt lat="48.59578" lon="2.03628">
        <ele>169.6</ele>
        <time>2026-05-24T11:46:26Z</time>
      </trkpt>
      <trkpt lat="48.59574" lon="2.03628">
        <ele>169.6</ele>
        <time>2026-05-24T11:46:27Z</time>
      </trkpt>
      <trkpt lat="48.5957" lon="2.03626">
        <ele>169.6</ele>
        <time>2026-05-24T11:46:28Z</time>
      </trkpt>
      <trkpt lat="48.59566" lon="2.03625">
        <ele>169.8</ele>
        <time>2026-05-24T11:46:29Z</time>
      </trkpt>
      <trkpt lat="48.59562" lon="2.03625">
        <ele>170</ele>
        <time>2026-05-24T11:46:30Z</time>
      </trkpt>
      <trkpt lat="48.59558" lon="2.03624">
        <ele>170</ele>
        <time>2026-05-24T11:46:31Z</time>
      </trkpt>
      <trkpt lat="48.59555" lon="2.03623">
        <ele>170</ele>
        <time>2026-05-24T11:46:32Z</time>
      </trkpt>
      <trkpt lat="48.59551" lon="2.03622">
        <ele>170</ele>
        <time>2026-05-24T11:46:33Z</time>
      </trkpt>
      <trkpt lat="48.59547" lon="2.03621">
        <ele>170.2</ele>
        <time>2026-05-24T11:46:34Z</time>
      </trkpt>
      <trkpt lat="48.59544" lon="2.0362">
        <ele>170.2</ele>
        <time>2026-05-24T11:46:35Z</time>
      </trkpt>
      <trkpt lat="48.59541" lon="2.03619">
        <ele>170.2</ele>
        <time>2026-05-24T11:46:36Z</time>
      </trkpt>
      <trkpt lat="48.59537" lon="2.03619">
        <ele>170.2</ele>
        <time>2026-05-24T11:46:37Z</time>
      </trkpt>
      <trkpt lat="48.59533" lon="2.03618">
        <ele>170.6</ele>
        <time>2026-05-24T11:46:38Z</time>
      </trkpt>
      <trkpt lat="48.59529" lon="2.03617">
        <ele>170.6</ele>
        <time>2026-05-24T11:46:39Z</time>
      </trkpt>
      <trkpt lat="48.59524" lon="2.03615">
        <ele>170.6</ele>
        <time>2026-05-24T11:46:40Z</time>
      </trkpt>
      <trkpt lat="48.5952" lon="2.03614">
        <ele>170.6</ele>
        <time>2026-05-24T11:46:41Z</time>
      </trkpt>
      <trkpt lat="48.59516" lon="2.03613">
        <ele>170.6</ele>
        <time>2026-05-24T11:46:42Z</time>
      </trkpt>
      <trkpt lat="48.59512" lon="2.03611">
        <ele>170.6</ele>
        <time>2026-05-24T11:46:43Z</time>
      </trkpt>
      <trkpt lat="48.59508" lon="2.0361">
        <ele>170.6</ele>
        <time>2026-05-24T11:46:44Z</time>
      </trkpt>
      <trkpt lat="48.59504" lon="2.03609">
        <ele>170.6</ele>
        <time>2026-05-24T11:46:45Z</time>
      </trkpt>
      <trkpt lat="48.595" lon="2.03608">
        <ele>170.6</ele>
        <time>2026-05-24T11:46:46Z</time>
      </trkpt>
      <trkpt lat="48.59496" lon="2.03608">
        <ele>170.6</ele>
        <time>2026-05-24T11:46:47Z</time>
      </trkpt>
      <trkpt lat="48.59492" lon="2.03607">
        <ele>170.6</ele>
        <time>2026-05-24T11:46:48Z</time>
      </trkpt>
      <trkpt lat="48.59488" lon="2.03606">
        <ele>171.6</ele>
        <time>2026-05-24T11:46:49Z</time>
      </trkpt>
      <trkpt lat="48.59484" lon="2.03605">
        <ele>171</ele>
        <time>2026-05-24T11:46:50Z</time>
      </trkpt>
      <trkpt lat="48.5948" lon="2.03604">
        <ele>171</ele>
        <time>2026-05-24T11:46:51Z</time>
      </trkpt>
      <trkpt lat="48.59476" lon="2.03603">
        <ele>171</ele>
        <time>2026-05-24T11:46:52Z</time>
      </trkpt>
      <trkpt lat="48.59472" lon="2.03602">
        <ele>171</ele>
        <time>2026-05-24T11:46:53Z</time>
      </trkpt>
      <trkpt lat="48.59468" lon="2.03601">
        <ele>170.6</ele>
        <time>2026-05-24T11:46:54Z</time>
      </trkpt>
      <trkpt lat="48.59463" lon="2.03599">
        <ele>170.6</ele>
        <time>2026-05-24T11:46:55Z</time>
      </trkpt>
      <trkpt lat="48.59458" lon="2.03598">
        <ele>170.6</ele>
        <time>2026-05-24T11:46:56Z</time>
      </trkpt>
      <trkpt lat="48.59455" lon="2.03597">
        <ele>169.6</ele>
        <time>2026-05-24T11:46:57Z</time>
      </trkpt>
      <trkpt lat="48.5945" lon="2.03596">
        <ele>169.8</ele>
        <time>2026-05-24T11:46:58Z</time>
      </trkpt>
      <trkpt lat="48.59447" lon="2.03595">
        <ele>169.8</ele>
        <time>2026-05-24T11:46:59Z</time>
      </trkpt>
      <trkpt lat="48.59443" lon="2.03594">
        <ele>169.8</ele>
        <time>2026-05-24T11:47:00Z</time>
      </trkpt>
      <trkpt lat="48.59438" lon="2.03593">
        <ele>170</ele>
        <time>2026-05-24T11:47:01Z</time>
      </trkpt>
      <trkpt lat="48.59434" lon="2.03592">
        <ele>169.8</ele>
        <time>2026-05-24T11:47:02Z</time>
      </trkpt>
      <trkpt lat="48.59429" lon="2.03591">
        <ele>169.8</ele>
        <time>2026-05-24T11:47:03Z</time>
      </trkpt>
      <trkpt lat="48.59424" lon="2.03589">
        <ele>169.8</ele>
        <time>2026-05-24T11:47:04Z</time>
      </trkpt>
      <trkpt lat="48.5942" lon="2.03588">
        <ele>169.8</ele>
        <time>2026-05-24T11:47:05Z</time>
      </trkpt>
      <trkpt lat="48.59415" lon="2.03587">
        <ele>169.4</ele>
        <time>2026-05-24T11:47:06Z</time>
      </trkpt>
      <trkpt lat="48.5941" lon="2.03586">
        <ele>169.4</ele>
        <time>2026-05-24T11:47:07Z</time>
      </trkpt>
      <trkpt lat="48.59406" lon="2.03582">
        <ele>169.4</ele>
        <time>2026-05-24T11:47:08Z</time>
      </trkpt>
      <trkpt lat="48.59403" lon="2.03577">
        <ele>169.4</ele>
        <time>2026-05-24T11:47:09Z</time>
      </trkpt>
      <trkpt lat="48.59402" lon="2.03572">
        <ele>168.6</ele>
        <time>2026-05-24T11:47:10Z</time>
      </trkpt>
      <trkpt lat="48.59402" lon="2.03566">
        <ele>168.6</ele>
        <time>2026-05-24T11:47:11Z</time>
      </trkpt>
      <trkpt lat="48.59402" lon="2.03559">
        <ele>168.6</ele>
        <time>2026-05-24T11:47:12Z</time>
      </trkpt>
      <trkpt lat="48.59402" lon="2.03553">
        <ele>168.6</ele>
        <time>2026-05-24T11:47:13Z</time>
      </trkpt>
      <trkpt lat="48.59403" lon="2.03547">
        <ele>168.6</ele>
        <time>2026-05-24T11:47:14Z</time>
      </trkpt>
      <trkpt lat="48.59404" lon="2.03542">
        <ele>168.6</ele>
        <time>2026-05-24T11:47:15Z</time>
      </trkpt>
      <trkpt lat="48.59404" lon="2.03536">
        <ele>168.6</ele>
        <time>2026-05-24T11:47:16Z</time>
      </trkpt>
      <trkpt lat="48.59405" lon="2.03532">
        <ele>168.6</ele>
        <time>2026-05-24T11:47:17Z</time>
      </trkpt>
      <trkpt lat="48.59406" lon="2.03526">
        <ele>169.2</ele>
        <time>2026-05-24T11:47:18Z</time>
      </trkpt>
      <trkpt lat="48.59406" lon="2.0352">
        <ele>169.2</ele>
        <time>2026-05-24T11:47:19Z</time>
      </trkpt>
      <trkpt lat="48.59407" lon="2.03514">
        <ele>169.2</ele>
        <time>2026-05-24T11:47:20Z</time>
      </trkpt>
      <trkpt lat="48.59407" lon="2.03508">
        <ele>169.2</ele>
        <time>2026-05-24T11:47:21Z</time>
      </trkpt>
      <trkpt lat="48.59408" lon="2.03501">
        <ele>169.2</ele>
        <time>2026-05-24T11:47:22Z</time>
      </trkpt>
      <trkpt lat="48.59408" lon="2.03495">
        <ele>169.2</ele>
        <time>2026-05-24T11:47:23Z</time>
      </trkpt>
      <trkpt lat="48.59409" lon="2.03489">
        <ele>169.2</ele>
        <time>2026-05-24T11:47:24Z</time>
      </trkpt>
      <trkpt lat="48.59409" lon="2.03482">
        <ele>169.8</ele>
        <time>2026-05-24T11:47:25Z</time>
      </trkpt>
      <trkpt lat="48.59409" lon="2.03477">
        <ele>169.6</ele>
        <time>2026-05-24T11:47:26Z</time>
      </trkpt>
      <trkpt lat="48.59408" lon="2.03472">
        <ele>169.6</ele>
        <time>2026-05-24T11:47:27Z</time>
      </trkpt>
      <trkpt lat="48.59408" lon="2.03466">
        <ele>169.6</ele>
        <time>2026-05-24T11:47:28Z</time>
      </trkpt>
      <trkpt lat="48.59408" lon="2.03459">
        <ele>169.6</ele>
        <time>2026-05-24T11:47:29Z</time>
      </trkpt>
      <trkpt lat="48.59409" lon="2.03452">
        <ele>170.4</ele>
        <time>2026-05-24T11:47:30Z</time>
      </trkpt>
      <trkpt lat="48.59408" lon="2.03445">
        <ele>170.4</ele>
        <time>2026-05-24T11:47:31Z</time>
      </trkpt>
      <trkpt lat="48.59407" lon="2.03438">
        <ele>170.4</ele>
        <time>2026-05-24T11:47:32Z</time>
      </trkpt>
      <trkpt lat="48.59407" lon="2.03432">
        <ele>169.4</ele>
        <time>2026-05-24T11:47:33Z</time>
      </trkpt>
      <trkpt lat="48.59406" lon="2.03426">
        <ele>169</ele>
        <time>2026-05-24T11:47:34Z</time>
      </trkpt>
      <trkpt lat="48.59405" lon="2.03419">
        <ele>169</ele>
        <time>2026-05-24T11:47:35Z</time>
      </trkpt>
      <trkpt lat="48.59403" lon="2.0341">
        <ele>169</ele>
        <time>2026-05-24T11:47:36Z</time>
      </trkpt>
      <trkpt lat="48.59402" lon="2.03402">
        <ele>169</ele>
        <time>2026-05-24T11:47:37Z</time>
      </trkpt>
      <trkpt lat="48.59401" lon="2.03393">
        <ele>169.6</ele>
        <time>2026-05-24T11:47:38Z</time>
      </trkpt>
      <trkpt lat="48.59399" lon="2.03385">
        <ele>169.6</ele>
        <time>2026-05-24T11:47:39Z</time>
      </trkpt>
      <trkpt lat="48.59399" lon="2.03377">
        <ele>169.6</ele>
        <time>2026-05-24T11:47:40Z</time>
      </trkpt>
      <trkpt lat="48.59399" lon="2.0337">
        <ele>168.6</ele>
        <time>2026-05-24T11:47:41Z</time>
      </trkpt>
      <trkpt lat="48.59399" lon="2.03362">
        <ele>168.2</ele>
        <time>2026-05-24T11:47:42Z</time>
      </trkpt>
      <trkpt lat="48.59399" lon="2.03354">
        <ele>168.2</ele>
        <time>2026-05-24T11:47:43Z</time>
      </trkpt>
      <trkpt lat="48.59398" lon="2.03347">
        <ele>168.2</ele>
        <time>2026-05-24T11:47:44Z</time>
      </trkpt>
      <trkpt lat="48.59397" lon="2.03339">
        <ele>168.2</ele>
        <time>2026-05-24T11:47:45Z</time>
      </trkpt>
      <trkpt lat="48.59397" lon="2.03331">
        <ele>167.4</ele>
        <time>2026-05-24T11:47:46Z</time>
      </trkpt>
      <trkpt lat="48.59396" lon="2.03324">
        <ele>167.4</ele>
        <time>2026-05-24T11:47:47Z</time>
      </trkpt>
      <trkpt lat="48.59396" lon="2.03317">
        <ele>167.4</ele>
        <time>2026-05-24T11:47:48Z</time>
      </trkpt>
      <trkpt lat="48.59397" lon="2.03312">
        <ele>167.4</ele>
        <time>2026-05-24T11:47:49Z</time>
      </trkpt>
      <trkpt lat="48.59398" lon="2.03304">
        <ele>167.6</ele>
        <time>2026-05-24T11:47:50Z</time>
      </trkpt>
      <trkpt lat="48.59399" lon="2.03297">
        <ele>167.6</ele>
        <time>2026-05-24T11:47:51Z</time>
      </trkpt>
      <trkpt lat="48.594" lon="2.03291">
        <ele>167.6</ele>
        <time>2026-05-24T11:47:52Z</time>
      </trkpt>
      <trkpt lat="48.59402" lon="2.03285">
        <ele>167.6</ele>
        <time>2026-05-24T11:47:53Z</time>
      </trkpt>
      <trkpt lat="48.59404" lon="2.03278">
        <ele>168</ele>
        <time>2026-05-24T11:47:54Z</time>
      </trkpt>
      <trkpt lat="48.59406" lon="2.03272">
        <ele>168</ele>
        <time>2026-05-24T11:47:55Z</time>
      </trkpt>
      <trkpt lat="48.59408" lon="2.03266">
        <ele>168</ele>
        <time>2026-05-24T11:47:56Z</time>
      </trkpt>
      <trkpt lat="48.5941" lon="2.03259">
        <ele>168.2</ele>
        <time>2026-05-24T11:47:57Z</time>
      </trkpt>
      <trkpt lat="48.59412" lon="2.03253">
        <ele>169.2</ele>
        <time>2026-05-24T11:47:58Z</time>
      </trkpt>
      <trkpt lat="48.59414" lon="2.03249">
        <ele>169.2</ele>
        <time>2026-05-24T11:47:59Z</time>
      </trkpt>
      <trkpt lat="48.59417" lon="2.03245">
        <ele>169.2</ele>
        <time>2026-05-24T11:48:00Z</time>
      </trkpt>
      <trkpt lat="48.59419" lon="2.0324">
        <ele>168.2</ele>
        <time>2026-05-24T11:48:01Z</time>
      </trkpt>
      <trkpt lat="48.59421" lon="2.03237">
        <ele>169</ele>
        <time>2026-05-24T11:48:02Z</time>
      </trkpt>
      <trkpt lat="48.59423" lon="2.03234">
        <ele>169</ele>
        <time>2026-05-24T11:48:03Z</time>
      </trkpt>
      <trkpt lat="48.59427" lon="2.0323">
        <ele>169</ele>
        <time>2026-05-24T11:48:04Z</time>
      </trkpt>
      <trkpt lat="48.5943" lon="2.03228">
        <ele>169</ele>
        <time>2026-05-24T11:48:05Z</time>
      </trkpt>
      <trkpt lat="48.59433" lon="2.03226">
        <ele>169.8</ele>
        <time>2026-05-24T11:48:06Z</time>
      </trkpt>
      <trkpt lat="48.59437" lon="2.03224">
        <ele>169.8</ele>
        <time>2026-05-24T11:48:07Z</time>
      </trkpt>
      <trkpt lat="48.59441" lon="2.03223">
        <ele>169.8</ele>
        <time>2026-05-24T11:48:08Z</time>
      </trkpt>
      <trkpt lat="48.59445" lon="2.03223">
        <ele>169.2</ele>
        <time>2026-05-24T11:48:09Z</time>
      </trkpt>
      <trkpt lat="48.59449" lon="2.03222">
        <ele>168.8</ele>
        <time>2026-05-24T11:48:10Z</time>
      </trkpt>
      <trkpt lat="48.59454" lon="2.03222">
        <ele>168.8</ele>
        <time>2026-05-24T11:48:11Z</time>
      </trkpt>
      <trkpt lat="48.59457" lon="2.03221">
        <ele>168.8</ele>
        <time>2026-05-24T11:48:12Z</time>
      </trkpt>
      <trkpt lat="48.59461" lon="2.03221">
        <ele>169.6</ele>
        <time>2026-05-24T11:48:13Z</time>
      </trkpt>
      <trkpt lat="48.59465" lon="2.03222">
        <ele>170.2</ele>
        <time>2026-05-24T11:48:14Z</time>
      </trkpt>
      <trkpt lat="48.59469" lon="2.03221">
        <ele>170.2</ele>
        <time>2026-05-24T11:48:15Z</time>
      </trkpt>
      <trkpt lat="48.59472" lon="2.03222">
        <ele>170.2</ele>
        <time>2026-05-24T11:48:16Z</time>
      </trkpt>
      <trkpt lat="48.59477" lon="2.03221">
        <ele>169.8</ele>
        <time>2026-05-24T11:48:17Z</time>
      </trkpt>
      <trkpt lat="48.5948" lon="2.03221">
        <ele>169.2</ele>
        <time>2026-05-24T11:48:18Z</time>
      </trkpt>
      <trkpt lat="48.59484" lon="2.03222">
        <ele>169.2</ele>
        <time>2026-05-24T11:48:19Z</time>
      </trkpt>
      <trkpt lat="48.59489" lon="2.03221">
        <ele>169.2</ele>
        <time>2026-05-24T11:48:20Z</time>
      </trkpt>
      <trkpt lat="48.59493" lon="2.03223">
        <ele>169.2</ele>
        <time>2026-05-24T11:48:21Z</time>
      </trkpt>
      <trkpt lat="48.59497" lon="2.03224">
        <ele>168.6</ele>
        <time>2026-05-24T11:48:22Z</time>
      </trkpt>
      <trkpt lat="48.59501" lon="2.03225">
        <ele>168.6</ele>
        <time>2026-05-24T11:48:23Z</time>
      </trkpt>
      <trkpt lat="48.59505" lon="2.03224">
        <ele>168.6</ele>
        <time>2026-05-24T11:48:24Z</time>
      </trkpt>
      <trkpt lat="48.5951" lon="2.03225">
        <ele>169.6</ele>
        <time>2026-05-24T11:48:25Z</time>
      </trkpt>
      <trkpt lat="48.59513" lon="2.03226">
        <ele>169.4</ele>
        <time>2026-05-24T11:48:26Z</time>
      </trkpt>
      <trkpt lat="48.59518" lon="2.03225">
        <ele>169.4</ele>
        <time>2026-05-24T11:48:27Z</time>
      </trkpt>
      <trkpt lat="48.59522" lon="2.03225">
        <ele>169.4</ele>
        <time>2026-05-24T11:48:28Z</time>
      </trkpt>
      <trkpt lat="48.59527" lon="2.03224">
        <ele>169.4</ele>
        <time>2026-05-24T11:48:29Z</time>
      </trkpt>
      <trkpt lat="48.59533" lon="2.03222">
        <ele>169.4</ele>
        <time>2026-05-24T11:48:30Z</time>
      </trkpt>
      <trkpt lat="48.59538" lon="2.03222">
        <ele>169.4</ele>
        <time>2026-05-24T11:48:31Z</time>
      </trkpt>
      <trkpt lat="48.59542" lon="2.03221">
        <ele>169.4</ele>
        <time>2026-05-24T11:48:32Z</time>
      </trkpt>
      <trkpt lat="48.59545" lon="2.03222">
        <ele>169</ele>
        <time>2026-05-24T11:48:33Z</time>
      </trkpt>
      <trkpt lat="48.5955" lon="2.03221">
        <ele>169.2</ele>
        <time>2026-05-24T11:48:34Z</time>
      </trkpt>
      <trkpt lat="48.59554" lon="2.0322">
        <ele>169.2</ele>
        <time>2026-05-24T11:48:35Z</time>
      </trkpt>
      <trkpt lat="48.59558" lon="2.03219">
        <ele>169.2</ele>
        <time>2026-05-24T11:48:36Z</time>
      </trkpt>
      <trkpt lat="48.59563" lon="2.03219">
        <ele>169.2</ele>
        <time>2026-05-24T11:48:37Z</time>
      </trkpt>
      <trkpt lat="48.59568" lon="2.03219">
        <ele>169.6</ele>
        <time>2026-05-24T11:48:38Z</time>
      </trkpt>
      <trkpt lat="48.59574" lon="2.0322">
        <ele>169.6</ele>
        <time>2026-05-24T11:48:39Z</time>
      </trkpt>
      <trkpt lat="48.59579" lon="2.03221">
        <ele>169.6</ele>
        <time>2026-05-24T11:48:40Z</time>
      </trkpt>
      <trkpt lat="48.59583" lon="2.03222">
        <ele>169.6</ele>
        <time>2026-05-24T11:48:41Z</time>
      </trkpt>
      <trkpt lat="48.59589" lon="2.03224">
        <ele>169.4</ele>
        <time>2026-05-24T11:48:42Z</time>
      </trkpt>
      <trkpt lat="48.59594" lon="2.03226">
        <ele>169.4</ele>
        <time>2026-05-24T11:48:43Z</time>
      </trkpt>
      <trkpt lat="48.59599" lon="2.03227">
        <ele>169.4</ele>
        <time>2026-05-24T11:48:44Z</time>
      </trkpt>
      <trkpt lat="48.59604" lon="2.03229">
        <ele>169.4</ele>
        <time>2026-05-24T11:48:45Z</time>
      </trkpt>
      <trkpt lat="48.59608" lon="2.03231">
        <ele>168.6</ele>
        <time>2026-05-24T11:48:46Z</time>
      </trkpt>
      <trkpt lat="48.59612" lon="2.03234">
        <ele>168.6</ele>
        <time>2026-05-24T11:48:47Z</time>
      </trkpt>
      <trkpt lat="48.59616" lon="2.03235">
        <ele>168.6</ele>
        <time>2026-05-24T11:48:48Z</time>
      </trkpt>
      <trkpt lat="48.59619" lon="2.03235">
        <ele>169</ele>
        <time>2026-05-24T11:48:49Z</time>
      </trkpt>
      <trkpt lat="48.59624" lon="2.03237">
        <ele>169.4</ele>
        <time>2026-05-24T11:48:50Z</time>
      </trkpt>
      <trkpt lat="48.59628" lon="2.03239">
        <ele>169.4</ele>
        <time>2026-05-24T11:48:51Z</time>
      </trkpt>
      <trkpt lat="48.59631" lon="2.0324">
        <ele>169.4</ele>
        <time>2026-05-24T11:48:52Z</time>
      </trkpt>
      <trkpt lat="48.59634" lon="2.0324">
        <ele>169.4</ele>
        <time>2026-05-24T11:48:53Z</time>
      </trkpt>
      <trkpt lat="48.59639" lon="2.0324">
        <ele>168.6</ele>
        <time>2026-05-24T11:48:54Z</time>
      </trkpt>
      <trkpt lat="48.59644" lon="2.03242">
        <ele>168.6</ele>
        <time>2026-05-24T11:48:55Z</time>
      </trkpt>
      <trkpt lat="48.59649" lon="2.03245">
        <ele>168.6</ele>
        <time>2026-05-24T11:48:56Z</time>
      </trkpt>
      <trkpt lat="48.59652" lon="2.03248">
        <ele>168.6</ele>
        <time>2026-05-24T11:48:57Z</time>
      </trkpt>
      <trkpt lat="48.59656" lon="2.0325">
        <ele>168.4</ele>
        <time>2026-05-24T11:48:58Z</time>
      </trkpt>
      <trkpt lat="48.5966" lon="2.03251">
        <ele>168.4</ele>
        <time>2026-05-24T11:48:59Z</time>
      </trkpt>
      <trkpt lat="48.59664" lon="2.03249">
        <ele>168.4</ele>
        <time>2026-05-24T11:49:00Z</time>
      </trkpt>
      <trkpt lat="48.59668" lon="2.03248">
        <ele>168.4</ele>
        <time>2026-05-24T11:49:01Z</time>
      </trkpt>
      <trkpt lat="48.5967" lon="2.03247">
        <ele>168.4</ele>
        <time>2026-05-24T11:49:02Z</time>
      </trkpt>
      <trkpt lat="48.59675" lon="2.03249">
        <ele>168.4</ele>
        <time>2026-05-24T11:49:03Z</time>
      </trkpt>
      <trkpt lat="48.59679" lon="2.03251">
        <ele>168.4</ele>
        <time>2026-05-24T11:49:04Z</time>
      </trkpt>
      <trkpt lat="48.59683" lon="2.03251">
        <ele>168.4</ele>
        <time>2026-05-24T11:49:05Z</time>
      </trkpt>
      <trkpt lat="48.59688" lon="2.03251">
        <ele>168.2</ele>
        <time>2026-05-24T11:49:06Z</time>
      </trkpt>
      <trkpt lat="48.59693" lon="2.03252">
        <ele>168.2</ele>
        <time>2026-05-24T11:49:07Z</time>
      </trkpt>
      <trkpt lat="48.59698" lon="2.03254">
        <ele>168.2</ele>
        <time>2026-05-24T11:49:08Z</time>
      </trkpt>
      <trkpt lat="48.59702" lon="2.03256">
        <ele>168.2</ele>
        <time>2026-05-24T11:49:09Z</time>
      </trkpt>
      <trkpt lat="48.59708" lon="2.03258">
        <ele>168.8</ele>
        <time>2026-05-24T11:49:10Z</time>
      </trkpt>
      <trkpt lat="48.59714" lon="2.03259">
        <ele>168.8</ele>
        <time>2026-05-24T11:49:11Z</time>
      </trkpt>
      <trkpt lat="48.5972" lon="2.03263">
        <ele>168.8</ele>
        <time>2026-05-24T11:49:12Z</time>
      </trkpt>
      <trkpt lat="48.59725" lon="2.03264">
        <ele>167.8</ele>
        <time>2026-05-24T11:49:13Z</time>
      </trkpt>
      <trkpt lat="48.5973" lon="2.03266">
        <ele>168.6</ele>
        <time>2026-05-24T11:49:14Z</time>
      </trkpt>
      <trkpt lat="48.59734" lon="2.03268">
        <ele>168.6</ele>
        <time>2026-05-24T11:49:15Z</time>
      </trkpt>
      <trkpt lat="48.59739" lon="2.0327">
        <ele>168.6</ele>
        <time>2026-05-24T11:49:16Z</time>
      </trkpt>
      <trkpt lat="48.59743" lon="2.03273">
        <ele>168.2</ele>
        <time>2026-05-24T11:49:17Z</time>
      </trkpt>
      <trkpt lat="48.59746" lon="2.03277">
        <ele>166.8</ele>
        <time>2026-05-24T11:49:18Z</time>
      </trkpt>
      <trkpt lat="48.5975" lon="2.03279">
        <ele>166.8</ele>
        <time>2026-05-24T11:49:19Z</time>
      </trkpt>
      <trkpt lat="48.59752" lon="2.0328">
        <ele>166.8</ele>
        <time>2026-05-24T11:49:20Z</time>
      </trkpt>
      <trkpt lat="48.59755" lon="2.0328">
        <ele>167.2</ele>
        <time>2026-05-24T11:49:21Z</time>
      </trkpt>
      <trkpt lat="48.59759" lon="2.0328">
        <ele>167.4</ele>
        <time>2026-05-24T11:49:22Z</time>
      </trkpt>
      <trkpt lat="48.59762" lon="2.03281">
        <ele>167.4</ele>
        <time>2026-05-24T11:49:23Z</time>
      </trkpt>
      <trkpt lat="48.59766" lon="2.03281">
        <ele>167.4</ele>
        <time>2026-05-24T11:49:24Z</time>
      </trkpt>
      <trkpt lat="48.59769" lon="2.03282">
        <ele>167.6</ele>
        <time>2026-05-24T11:49:25Z</time>
      </trkpt>
      <trkpt lat="48.59774" lon="2.03283">
        <ele>167.6</ele>
        <time>2026-05-24T11:49:26Z</time>
      </trkpt>
      <trkpt lat="48.59778" lon="2.03284">
        <ele>167.6</ele>
        <time>2026-05-24T11:49:27Z</time>
      </trkpt>
      <trkpt lat="48.59782" lon="2.03285">
        <ele>167.6</ele>
        <time>2026-05-24T11:49:28Z</time>
      </trkpt>
      <trkpt lat="48.59787" lon="2.03286">
        <ele>167.6</ele>
        <time>2026-05-24T11:49:29Z</time>
      </trkpt>
      <trkpt lat="48.59792" lon="2.03286">
        <ele>167.2</ele>
        <time>2026-05-24T11:49:30Z</time>
      </trkpt>
      <trkpt lat="48.59797" lon="2.03287">
        <ele>167.2</ele>
        <time>2026-05-24T11:49:31Z</time>
      </trkpt>
      <trkpt lat="48.59802" lon="2.0329">
        <ele>167.2</ele>
        <time>2026-05-24T11:49:32Z</time>
      </trkpt>
      <trkpt lat="48.59806" lon="2.03292">
        <ele>167.2</ele>
        <time>2026-05-24T11:49:33Z</time>
      </trkpt>
      <trkpt lat="48.59811" lon="2.03294">
        <ele>166.8</ele>
        <time>2026-05-24T11:49:34Z</time>
      </trkpt>
      <trkpt lat="48.59815" lon="2.03295">
        <ele>166.8</ele>
        <time>2026-05-24T11:49:35Z</time>
      </trkpt>
      <trkpt lat="48.59818" lon="2.03296">
        <ele>166.8</ele>
        <time>2026-05-24T11:49:36Z</time>
      </trkpt>
      <trkpt lat="48.59822" lon="2.03297">
        <ele>166.8</ele>
        <time>2026-05-24T11:49:37Z</time>
      </trkpt>
      <trkpt lat="48.59825" lon="2.03298">
        <ele>166.2</ele>
        <time>2026-05-24T11:49:38Z</time>
      </trkpt>
      <trkpt lat="48.59828" lon="2.03299">
        <ele>166.2</ele>
        <time>2026-05-24T11:49:39Z</time>
      </trkpt>
      <trkpt lat="48.59832" lon="2.033">
        <ele>166.2</ele>
        <time>2026-05-24T11:49:40Z</time>
      </trkpt>
      <trkpt lat="48.59835" lon="2.03302">
        <ele>167.2</ele>
        <time>2026-05-24T11:49:41Z</time>
      </trkpt>
      <trkpt lat="48.5984" lon="2.03305">
        <ele>167.2</ele>
        <time>2026-05-24T11:49:42Z</time>
      </trkpt>
      <trkpt lat="48.59843" lon="2.03306">
        <ele>167.2</ele>
        <time>2026-05-24T11:49:43Z</time>
      </trkpt>
      <trkpt lat="48.59846" lon="2.03306">
        <ele>167.2</ele>
        <time>2026-05-24T11:49:44Z</time>
      </trkpt>
      <trkpt lat="48.59848" lon="2.03306">
        <ele>167.2</ele>
        <time>2026-05-24T11:49:45Z</time>
      </trkpt>
      <trkpt lat="48.59851" lon="2.03307">
        <ele>167</ele>
        <time>2026-05-24T11:49:46Z</time>
      </trkpt>
      <trkpt lat="48.59854" lon="2.03307">
        <ele>167</ele>
        <time>2026-05-24T11:49:47Z</time>
      </trkpt>
      <trkpt lat="48.59857" lon="2.03307">
        <ele>167</ele>
        <time>2026-05-24T11:49:48Z</time>
      </trkpt>
      <trkpt lat="48.5986" lon="2.03307">
        <ele>167</ele>
        <time>2026-05-24T11:49:49Z</time>
      </trkpt>
      <trkpt lat="48.59863" lon="2.03307">
        <ele>166.6</ele>
        <time>2026-05-24T11:49:50Z</time>
      </trkpt>
      <trkpt lat="48.59865" lon="2.03308">
        <ele>166.6</ele>
        <time>2026-05-24T11:49:51Z</time>
      </trkpt>
      <trkpt lat="48.59868" lon="2.0331">
        <ele>166.6</ele>
        <time>2026-05-24T11:49:52Z</time>
      </trkpt>
      <trkpt lat="48.5987" lon="2.03312">
        <ele>166.6</ele>
        <time>2026-05-24T11:49:53Z</time>
      </trkpt>
      <trkpt lat="48.59873" lon="2.03314">
        <ele>166.8</ele>
        <time>2026-05-24T11:49:54Z</time>
      </trkpt>
      <trkpt lat="48.59878" lon="2.03315">
        <ele>166.8</ele>
        <time>2026-05-24T11:49:55Z</time>
      </trkpt>
      <trkpt lat="48.59882" lon="2.03315">
        <ele>166.8</ele>
        <time>2026-05-24T11:49:56Z</time>
      </trkpt>
      <trkpt lat="48.59885" lon="2.03315">
        <ele>166.8</ele>
        <time>2026-05-24T11:49:57Z</time>
      </trkpt>
      <trkpt lat="48.59889" lon="2.03316">
        <ele>166.6</ele>
        <time>2026-05-24T11:49:58Z</time>
      </trkpt>
      <trkpt lat="48.59892" lon="2.03317">
        <ele>166.6</ele>
        <time>2026-05-24T11:49:59Z</time>
      </trkpt>
      <trkpt lat="48.59896" lon="2.03318">
        <ele>166.6</ele>
        <time>2026-05-24T11:50:00Z</time>
      </trkpt>
      <trkpt lat="48.59899" lon="2.03319">
        <ele>167.6</ele>
        <time>2026-05-24T11:50:01Z</time>
      </trkpt>
      <trkpt lat="48.59902" lon="2.03322">
        <ele>166.6</ele>
        <time>2026-05-24T11:50:02Z</time>
      </trkpt>
      <trkpt lat="48.59906" lon="2.03325">
        <ele>166.6</ele>
        <time>2026-05-24T11:50:03Z</time>
      </trkpt>
      <trkpt lat="48.5991" lon="2.03327">
        <ele>166.6</ele>
        <time>2026-05-24T11:50:04Z</time>
      </trkpt>
      <trkpt lat="48.59914" lon="2.03328">
        <ele>166.6</ele>
        <time>2026-05-24T11:50:05Z</time>
      </trkpt>
      <trkpt lat="48.59918" lon="2.0333">
        <ele>167.4</ele>
        <time>2026-05-24T11:50:06Z</time>
      </trkpt>
      <trkpt lat="48.59923" lon="2.03331">
        <ele>167.4</ele>
        <time>2026-05-24T11:50:07Z</time>
      </trkpt>
      <trkpt lat="48.59927" lon="2.03331">
        <ele>167.4</ele>
        <time>2026-05-24T11:50:08Z</time>
      </trkpt>
      <trkpt lat="48.5993" lon="2.03332">
        <ele>166.8</ele>
        <time>2026-05-24T11:50:09Z</time>
      </trkpt>
      <trkpt lat="48.59934" lon="2.03334">
        <ele>166.6</ele>
        <time>2026-05-24T11:50:10Z</time>
      </trkpt>
      <trkpt lat="48.59938" lon="2.03335">
        <ele>166.6</ele>
        <time>2026-05-24T11:50:11Z</time>
      </trkpt>
      <trkpt lat="48.59942" lon="2.03337">
        <ele>166.6</ele>
        <time>2026-05-24T11:50:12Z</time>
      </trkpt>
      <trkpt lat="48.59947" lon="2.03338">
        <ele>166.6</ele>
        <time>2026-05-24T11:50:13Z</time>
      </trkpt>
      <trkpt lat="48.59951" lon="2.03342">
        <ele>166.8</ele>
        <time>2026-05-24T11:50:14Z</time>
      </trkpt>
      <trkpt lat="48.59955" lon="2.03345">
        <ele>166.8</ele>
        <time>2026-05-24T11:50:15Z</time>
      </trkpt>
      <trkpt lat="48.59958" lon="2.03348">
        <ele>166.8</ele>
        <time>2026-05-24T11:50:16Z</time>
      </trkpt>
      <trkpt lat="48.59963" lon="2.03351">
        <ele>165.8</ele>
        <time>2026-05-24T11:50:17Z</time>
      </trkpt>
      <trkpt lat="48.59967" lon="2.03353">
        <ele>166.4</ele>
        <time>2026-05-24T11:50:18Z</time>
      </trkpt>
      <trkpt lat="48.59971" lon="2.03355">
        <ele>166.4</ele>
        <time>2026-05-24T11:50:19Z</time>
      </trkpt>
      <trkpt lat="48.59977" lon="2.03357">
        <ele>166.4</ele>
        <time>2026-05-24T11:50:20Z</time>
      </trkpt>
      <trkpt lat="48.59982" lon="2.03359">
        <ele>166.4</ele>
        <time>2026-05-24T11:50:21Z</time>
      </trkpt>
      <trkpt lat="48.59987" lon="2.03362">
        <ele>165.6</ele>
        <time>2026-05-24T11:50:22Z</time>
      </trkpt>
      <trkpt lat="48.59993" lon="2.03364">
        <ele>165.6</ele>
        <time>2026-05-24T11:50:23Z</time>
      </trkpt>
      <trkpt lat="48.59997" lon="2.03365">
        <ele>165.6</ele>
        <time>2026-05-24T11:50:24Z</time>
      </trkpt>
      <trkpt lat="48.60002" lon="2.03366">
        <ele>165.6</ele>
        <time>2026-05-24T11:50:25Z</time>
      </trkpt>
      <trkpt lat="48.60008" lon="2.03366">
        <ele>166</ele>
        <time>2026-05-24T11:50:26Z</time>
      </trkpt>
      <trkpt lat="48.60012" lon="2.03367">
        <ele>166</ele>
        <time>2026-05-24T11:50:27Z</time>
      </trkpt>
      <trkpt lat="48.60016" lon="2.03368">
        <ele>166</ele>
        <time>2026-05-24T11:50:28Z</time>
      </trkpt>
      <trkpt lat="48.60022" lon="2.03368">
        <ele>166</ele>
        <time>2026-05-24T11:50:29Z</time>
      </trkpt>
      <trkpt lat="48.60027" lon="2.03367">
        <ele>164.6</ele>
        <time>2026-05-24T11:50:30Z</time>
      </trkpt>
      <trkpt lat="48.60033" lon="2.03368">
        <ele>164.6</ele>
        <time>2026-05-24T11:50:31Z</time>
      </trkpt>
      <trkpt lat="48.60038" lon="2.03369">
        <ele>164.6</ele>
        <time>2026-05-24T11:50:32Z</time>
      </trkpt>
      <trkpt lat="48.60042" lon="2.0337">
        <ele>165</ele>
        <time>2026-05-24T11:50:33Z</time>
      </trkpt>
      <trkpt lat="48.60047" lon="2.03371">
        <ele>163.8</ele>
        <time>2026-05-24T11:50:34Z</time>
      </trkpt>
      <trkpt lat="48.60052" lon="2.03371">
        <ele>163.8</ele>
        <time>2026-05-24T11:50:35Z</time>
      </trkpt>
      <trkpt lat="48.60058" lon="2.03372">
        <ele>163.8</ele>
        <time>2026-05-24T11:50:36Z</time>
      </trkpt>
      <trkpt lat="48.60064" lon="2.03374">
        <ele>163.8</ele>
        <time>2026-05-24T11:50:37Z</time>
      </trkpt>
      <trkpt lat="48.60069" lon="2.03375">
        <ele>163.4</ele>
        <time>2026-05-24T11:50:38Z</time>
      </trkpt>
      <trkpt lat="48.60076" lon="2.03377">
        <ele>163.4</ele>
        <time>2026-05-24T11:50:39Z</time>
      </trkpt>
      <trkpt lat="48.60082" lon="2.03377">
        <ele>163.4</ele>
        <time>2026-05-24T11:50:40Z</time>
      </trkpt>
      <trkpt lat="48.60087" lon="2.03377">
        <ele>163.4</ele>
        <time>2026-05-24T11:50:41Z</time>
      </trkpt>
      <trkpt lat="48.60092" lon="2.03376">
        <ele>163.6</ele>
        <time>2026-05-24T11:50:42Z</time>
      </trkpt>
      <trkpt lat="48.60099" lon="2.03378">
        <ele>163.6</ele>
        <time>2026-05-24T11:50:43Z</time>
      </trkpt>
      <trkpt lat="48.60104" lon="2.03379">
        <ele>163.6</ele>
        <time>2026-05-24T11:50:44Z</time>
      </trkpt>
      <trkpt lat="48.60112" lon="2.0338">
        <ele>163</ele>
        <time>2026-05-24T11:50:45Z</time>
      </trkpt>
      <trkpt lat="48.60118" lon="2.0338">
        <ele>164.6</ele>
        <time>2026-05-24T11:50:46Z</time>
      </trkpt>
      <trkpt lat="48.60123" lon="2.03381">
        <ele>164.6</ele>
        <time>2026-05-24T11:50:47Z</time>
      </trkpt>
      <trkpt lat="48.60129" lon="2.03383">
        <ele>164.6</ele>
        <time>2026-05-24T11:50:48Z</time>
      </trkpt>
      <trkpt lat="48.60134" lon="2.03383">
        <ele>163.6</ele>
        <time>2026-05-24T11:50:49Z</time>
      </trkpt>
      <trkpt lat="48.60138" lon="2.03383">
        <ele>162</ele>
        <time>2026-05-24T11:50:50Z</time>
      </trkpt>
      <trkpt lat="48.60144" lon="2.03383">
        <ele>162</ele>
        <time>2026-05-24T11:50:51Z</time>
      </trkpt>
      <trkpt lat="48.60149" lon="2.03384">
        <ele>162</ele>
        <time>2026-05-24T11:50:52Z</time>
      </trkpt>
      <trkpt lat="48.60155" lon="2.03385">
        <ele>161.2</ele>
        <time>2026-05-24T11:50:53Z</time>
      </trkpt>
      <trkpt lat="48.60161" lon="2.03386">
        <ele>159.6</ele>
        <time>2026-05-24T11:50:54Z</time>
      </trkpt>
      <trkpt lat="48.60167" lon="2.03388">
        <ele>159.6</ele>
        <time>2026-05-24T11:50:55Z</time>
      </trkpt>
      <trkpt lat="48.60172" lon="2.03389">
        <ele>159.6</ele>
        <time>2026-05-24T11:50:56Z</time>
      </trkpt>
      <trkpt lat="48.60177" lon="2.03391">
        <ele>159.6</ele>
        <time>2026-05-24T11:50:57Z</time>
      </trkpt>
      <trkpt lat="48.60182" lon="2.03394">
        <ele>158.8</ele>
        <time>2026-05-24T11:50:58Z</time>
      </trkpt>
      <trkpt lat="48.60187" lon="2.03395">
        <ele>158.8</ele>
        <time>2026-05-24T11:50:59Z</time>
      </trkpt>
      <trkpt lat="48.60192" lon="2.03397">
        <ele>158.8</ele>
        <time>2026-05-24T11:51:00Z</time>
      </trkpt>
      <trkpt lat="48.60197" lon="2.03398">
        <ele>158.8</ele>
        <time>2026-05-24T11:51:01Z</time>
      </trkpt>
      <trkpt lat="48.60203" lon="2.034">
        <ele>156.6</ele>
        <time>2026-05-24T11:51:02Z</time>
      </trkpt>
      <trkpt lat="48.60208" lon="2.03403">
        <ele>156.6</ele>
        <time>2026-05-24T11:51:03Z</time>
      </trkpt>
      <trkpt lat="48.60215" lon="2.03406">
        <ele>156.6</ele>
        <time>2026-05-24T11:51:04Z</time>
      </trkpt>
      <trkpt lat="48.60222" lon="2.03408">
        <ele>156.6</ele>
        <time>2026-05-24T11:51:05Z</time>
      </trkpt>
      <trkpt lat="48.60229" lon="2.03412">
        <ele>154.6</ele>
        <time>2026-05-24T11:51:06Z</time>
      </trkpt>
      <trkpt lat="48.60235" lon="2.03416">
        <ele>154.6</ele>
        <time>2026-05-24T11:51:07Z</time>
      </trkpt>
      <trkpt lat="48.6024" lon="2.03419">
        <ele>154.6</ele>
        <time>2026-05-24T11:51:08Z</time>
      </trkpt>
      <trkpt lat="48.60244" lon="2.03423">
        <ele>153.6</ele>
        <time>2026-05-24T11:51:09Z</time>
      </trkpt>
      <trkpt lat="48.60247" lon="2.03427">
        <ele>153.6</ele>
        <time>2026-05-24T11:51:10Z</time>
      </trkpt>
      <trkpt lat="48.60252" lon="2.03431">
        <ele>153.6</ele>
        <time>2026-05-24T11:51:11Z</time>
      </trkpt>
      <trkpt lat="48.60257" lon="2.03434">
        <ele>153.6</ele>
        <time>2026-05-24T11:51:12Z</time>
      </trkpt>
      <trkpt lat="48.60265" lon="2.03437">
        <ele>152.6</ele>
        <time>2026-05-24T11:51:13Z</time>
      </trkpt>
      <trkpt lat="48.60272" lon="2.03439">
        <ele>149.8</ele>
        <time>2026-05-24T11:51:14Z</time>
      </trkpt>
      <trkpt lat="48.60278" lon="2.03441">
        <ele>149.8</ele>
        <time>2026-05-24T11:51:15Z</time>
      </trkpt>
      <trkpt lat="48.60284" lon="2.03444">
        <ele>149.8</ele>
        <time>2026-05-24T11:51:16Z</time>
      </trkpt>
      <trkpt lat="48.6029" lon="2.03447">
        <ele>149.8</ele>
        <time>2026-05-24T11:51:17Z</time>
      </trkpt>
      <trkpt lat="48.60295" lon="2.03449">
        <ele>149.8</ele>
        <time>2026-05-24T11:51:18Z</time>
      </trkpt>
      <trkpt lat="48.603" lon="2.0345">
        <ele>149.8</ele>
        <time>2026-05-24T11:51:19Z</time>
      </trkpt>
      <trkpt lat="48.60304" lon="2.03452">
        <ele>149.8</ele>
        <time>2026-05-24T11:51:20Z</time>
      </trkpt>
      <trkpt lat="48.60307" lon="2.03454">
        <ele>149.6</ele>
        <time>2026-05-24T11:51:21Z</time>
      </trkpt>
      <trkpt lat="48.60312" lon="2.03454">
        <ele>149.8</ele>
        <time>2026-05-24T11:51:22Z</time>
      </trkpt>
      <trkpt lat="48.60316" lon="2.03455">
        <ele>149.8</ele>
        <time>2026-05-24T11:51:23Z</time>
      </trkpt>
      <trkpt lat="48.60323" lon="2.03457">
        <ele>149.8</ele>
        <time>2026-05-24T11:51:24Z</time>
      </trkpt>
      <trkpt lat="48.6033" lon="2.03459">
        <ele>149.8</ele>
        <time>2026-05-24T11:51:25Z</time>
      </trkpt>
      <trkpt lat="48.60337" lon="2.03461">
        <ele>148</ele>
        <time>2026-05-24T11:51:26Z</time>
      </trkpt>
      <trkpt lat="48.60345" lon="2.03462">
        <ele>148</ele>
        <time>2026-05-24T11:51:27Z</time>
      </trkpt>
      <trkpt lat="48.60353" lon="2.03464">
        <ele>148</ele>
        <time>2026-05-24T11:51:28Z</time>
      </trkpt>
      <trkpt lat="48.60361" lon="2.03466">
        <ele>148</ele>
        <time>2026-05-24T11:51:29Z</time>
      </trkpt>
      <trkpt lat="48.6037" lon="2.03468">
        <ele>145.6</ele>
        <time>2026-05-24T11:51:30Z</time>
      </trkpt>
      <trkpt lat="48.60378" lon="2.03467">
        <ele>145.6</ele>
        <time>2026-05-24T11:51:31Z</time>
      </trkpt>
      <trkpt lat="48.60386" lon="2.03463">
        <ele>145.6</ele>
        <time>2026-05-24T11:51:32Z</time>
      </trkpt>
      <trkpt lat="48.60391" lon="2.03456">
        <ele>144.6</ele>
        <time>2026-05-24T11:51:33Z</time>
      </trkpt>
      <trkpt lat="48.60396" lon="2.03447">
        <ele>140.2</ele>
        <time>2026-05-24T11:51:34Z</time>
      </trkpt>
      <trkpt lat="48.604" lon="2.03437">
        <ele>140.2</ele>
        <time>2026-05-24T11:51:35Z</time>
      </trkpt>
      <trkpt lat="48.60405" lon="2.03427">
        <ele>140.2</ele>
        <time>2026-05-24T11:51:36Z</time>
      </trkpt>
      <trkpt lat="48.60411" lon="2.03419">
        <ele>140.2</ele>
        <time>2026-05-24T11:51:37Z</time>
      </trkpt>
      <trkpt lat="48.60417" lon="2.03411">
        <ele>139.6</ele>
        <time>2026-05-24T11:51:38Z</time>
      </trkpt>
      <trkpt lat="48.60423" lon="2.03403">
        <ele>139.6</ele>
        <time>2026-05-24T11:51:39Z</time>
      </trkpt>
      <trkpt lat="48.60429" lon="2.03396">
        <ele>139.6</ele>
        <time>2026-05-24T11:51:40Z</time>
      </trkpt>
      <trkpt lat="48.60436" lon="2.03391">
        <ele>139.6</ele>
        <time>2026-05-24T11:51:41Z</time>
      </trkpt>
      <trkpt lat="48.60443" lon="2.03388">
        <ele>138.8</ele>
        <time>2026-05-24T11:51:42Z</time>
      </trkpt>
      <trkpt lat="48.60451" lon="2.03385">
        <ele>138.8</ele>
        <time>2026-05-24T11:51:43Z</time>
      </trkpt>
      <trkpt lat="48.60459" lon="2.03382">
        <ele>138.8</ele>
        <time>2026-05-24T11:51:44Z</time>
      </trkpt>
      <trkpt lat="48.60467" lon="2.03378">
        <ele>137.8</ele>
        <time>2026-05-24T11:51:45Z</time>
      </trkpt>
      <trkpt lat="48.60476" lon="2.03375">
        <ele>136.2</ele>
        <time>2026-05-24T11:51:46Z</time>
      </trkpt>
      <trkpt lat="48.60485" lon="2.03372">
        <ele>136.2</ele>
        <time>2026-05-24T11:51:47Z</time>
      </trkpt>
      <trkpt lat="48.60494" lon="2.03369">
        <ele>136.2</ele>
        <time>2026-05-24T11:51:48Z</time>
      </trkpt>
      <trkpt lat="48.60503" lon="2.03366">
        <ele>136.2</ele>
        <time>2026-05-24T11:51:49Z</time>
      </trkpt>
      <trkpt lat="48.60512" lon="2.03363">
        <ele>130.6</ele>
        <time>2026-05-24T11:51:50Z</time>
      </trkpt>
      <trkpt lat="48.60521" lon="2.03361">
        <ele>130.6</ele>
        <time>2026-05-24T11:51:51Z</time>
      </trkpt>
      <trkpt lat="48.6053" lon="2.03358">
        <ele>130.6</ele>
        <time>2026-05-24T11:51:52Z</time>
      </trkpt>
      <trkpt lat="48.60538" lon="2.03354">
        <ele>131.6</ele>
        <time>2026-05-24T11:51:53Z</time>
      </trkpt>
      <trkpt lat="48.60547" lon="2.03351">
        <ele>131.2</ele>
        <time>2026-05-24T11:51:54Z</time>
      </trkpt>
      <trkpt lat="48.60556" lon="2.03347">
        <ele>131.2</ele>
        <time>2026-05-24T11:51:55Z</time>
      </trkpt>
      <trkpt lat="48.60565" lon="2.03343">
        <ele>131.2</ele>
        <time>2026-05-24T11:51:56Z</time>
      </trkpt>
      <trkpt lat="48.60573" lon="2.03338">
        <ele>131.2</ele>
        <time>2026-05-24T11:51:57Z</time>
      </trkpt>
      <trkpt lat="48.60581" lon="2.03333">
        <ele>131</ele>
        <time>2026-05-24T11:51:58Z</time>
      </trkpt>
      <trkpt lat="48.60588" lon="2.03327">
        <ele>131</ele>
        <time>2026-05-24T11:51:59Z</time>
      </trkpt>
      <trkpt lat="48.60596" lon="2.03322">
        <ele>131</ele>
        <time>2026-05-24T11:52:00Z</time>
      </trkpt>
      <trkpt lat="48.60603" lon="2.03317">
        <ele>130</ele>
        <time>2026-05-24T11:52:01Z</time>
      </trkpt>
      <trkpt lat="48.6061" lon="2.03312">
        <ele>129.8</ele>
        <time>2026-05-24T11:52:02Z</time>
      </trkpt>
      <trkpt lat="48.60617" lon="2.03307">
        <ele>129.8</ele>
        <time>2026-05-24T11:52:03Z</time>
      </trkpt>
      <trkpt lat="48.60623" lon="2.03302">
        <ele>129.8</ele>
        <time>2026-05-24T11:52:04Z</time>
      </trkpt>
      <trkpt lat="48.6063" lon="2.03297">
        <ele>129</ele>
        <time>2026-05-24T11:52:05Z</time>
      </trkpt>
      <trkpt lat="48.60636" lon="2.03291">
        <ele>128.6</ele>
        <time>2026-05-24T11:52:06Z</time>
      </trkpt>
      <trkpt lat="48.60642" lon="2.03286">
        <ele>128.6</ele>
        <time>2026-05-24T11:52:07Z</time>
      </trkpt>
      <trkpt lat="48.60647" lon="2.03281">
        <ele>128.6</ele>
        <time>2026-05-24T11:52:08Z</time>
      </trkpt>
      <trkpt lat="48.60652" lon="2.03276">
        <ele>127.8</ele>
        <time>2026-05-24T11:52:09Z</time>
      </trkpt>
      <trkpt lat="48.60657" lon="2.03271">
        <ele>129</ele>
        <time>2026-05-24T11:52:10Z</time>
      </trkpt>
      <trkpt lat="48.60662" lon="2.03266">
        <ele>129</ele>
        <time>2026-05-24T11:52:11Z</time>
      </trkpt>
      <trkpt lat="48.60667" lon="2.03262">
        <ele>129</ele>
        <time>2026-05-24T11:52:12Z</time>
      </trkpt>
      <trkpt lat="48.60672" lon="2.03257">
        <ele>129</ele>
        <time>2026-05-24T11:52:13Z</time>
      </trkpt>
      <trkpt lat="48.60677" lon="2.03253">
        <ele>127.6</ele>
        <time>2026-05-24T11:52:14Z</time>
      </trkpt>
      <trkpt lat="48.60681" lon="2.03249">
        <ele>127.6</ele>
        <time>2026-05-24T11:52:15Z</time>
      </trkpt>
      <trkpt lat="48.60686" lon="2.03245">
        <ele>127.6</ele>
        <time>2026-05-24T11:52:16Z</time>
      </trkpt>
      <trkpt lat="48.60691" lon="2.03241">
        <ele>127.6</ele>
        <time>2026-05-24T11:52:17Z</time>
      </trkpt>
      <trkpt lat="48.60696" lon="2.03236">
        <ele>126.4</ele>
        <time>2026-05-24T11:52:18Z</time>
      </trkpt>
      <trkpt lat="48.60701" lon="2.03232">
        <ele>126.4</ele>
        <time>2026-05-24T11:52:19Z</time>
      </trkpt>
      <trkpt lat="48.60707" lon="2.03228">
        <ele>126.4</ele>
        <time>2026-05-24T11:52:20Z</time>
      </trkpt>
      <trkpt lat="48.60712" lon="2.03223">
        <ele>126.8</ele>
        <time>2026-05-24T11:52:21Z</time>
      </trkpt>
      <trkpt lat="48.60718" lon="2.03219">
        <ele>126.8</ele>
        <time>2026-05-24T11:52:22Z</time>
      </trkpt>
      <trkpt lat="48.60723" lon="2.03214">
        <ele>126.8</ele>
        <time>2026-05-24T11:52:23Z</time>
      </trkpt>
      <trkpt lat="48.60729" lon="2.03209">
        <ele>126.8</ele>
        <time>2026-05-24T11:52:24Z</time>
      </trkpt>
      <trkpt lat="48.60734" lon="2.03204">
        <ele>126.8</ele>
        <time>2026-05-24T11:52:25Z</time>
      </trkpt>
      <trkpt lat="48.60739" lon="2.03199">
        <ele>126</ele>
        <time>2026-05-24T11:52:26Z</time>
      </trkpt>
      <trkpt lat="48.60744" lon="2.03194">
        <ele>126</ele>
        <time>2026-05-24T11:52:27Z</time>
      </trkpt>
      <trkpt lat="48.60749" lon="2.03189">
        <ele>126</ele>
        <time>2026-05-24T11:52:28Z</time>
      </trkpt>
      <trkpt lat="48.60754" lon="2.03184">
        <ele>125</ele>
        <time>2026-05-24T11:52:29Z</time>
      </trkpt>
      <trkpt lat="48.60759" lon="2.03179">
        <ele>125.4</ele>
        <time>2026-05-24T11:52:30Z</time>
      </trkpt>
      <trkpt lat="48.60765" lon="2.03174">
        <ele>125.4</ele>
        <time>2026-05-24T11:52:31Z</time>
      </trkpt>
      <trkpt lat="48.6077" lon="2.03169">
        <ele>125.4</ele>
        <time>2026-05-24T11:52:32Z</time>
      </trkpt>
      <trkpt lat="48.60775" lon="2.03164">
        <ele>125.4</ele>
        <time>2026-05-24T11:52:33Z</time>
      </trkpt>
      <trkpt lat="48.6078" lon="2.03159">
        <ele>125</ele>
        <time>2026-05-24T11:52:34Z</time>
      </trkpt>
      <trkpt lat="48.60785" lon="2.03154">
        <ele>125</ele>
        <time>2026-05-24T11:52:35Z</time>
      </trkpt>
      <trkpt lat="48.60791" lon="2.0315">
        <ele>125</ele>
        <time>2026-05-24T11:52:36Z</time>
      </trkpt>
      <trkpt lat="48.60796" lon="2.03146">
        <ele>125</ele>
        <time>2026-05-24T11:52:37Z</time>
      </trkpt>
      <trkpt lat="48.60801" lon="2.03141">
        <ele>124.4</ele>
        <time>2026-05-24T11:52:38Z</time>
      </trkpt>
      <trkpt lat="48.60806" lon="2.03136">
        <ele>124.4</ele>
        <time>2026-05-24T11:52:39Z</time>
      </trkpt>
      <trkpt lat="48.6081" lon="2.03131">
        <ele>124.4</ele>
        <time>2026-05-24T11:52:40Z</time>
      </trkpt>
      <trkpt lat="48.60815" lon="2.03125">
        <ele>124.6</ele>
        <time>2026-05-24T11:52:41Z</time>
      </trkpt>
      <trkpt lat="48.60819" lon="2.03119">
        <ele>122.2</ele>
        <time>2026-05-24T11:52:42Z</time>
      </trkpt>
      <trkpt lat="48.60823" lon="2.03113">
        <ele>122.2</ele>
        <time>2026-05-24T11:52:43Z</time>
      </trkpt>
      <trkpt lat="48.60827" lon="2.03107">
        <ele>122.2</ele>
        <time>2026-05-24T11:52:44Z</time>
      </trkpt>
      <trkpt lat="48.60831" lon="2.03102">
        <ele>123.2</ele>
        <time>2026-05-24T11:52:45Z</time>
      </trkpt>
      <trkpt lat="48.60836" lon="2.03097">
        <ele>122.4</ele>
        <time>2026-05-24T11:52:46Z</time>
      </trkpt>
      <trkpt lat="48.60841" lon="2.03093">
        <ele>122.4</ele>
        <time>2026-05-24T11:52:47Z</time>
      </trkpt>
      <trkpt lat="48.60846" lon="2.03088">
        <ele>122.4</ele>
        <time>2026-05-24T11:52:48Z</time>
      </trkpt>
      <trkpt lat="48.60852" lon="2.03084">
        <ele>122.4</ele>
        <time>2026-05-24T11:52:49Z</time>
      </trkpt>
      <trkpt lat="48.60857" lon="2.0308">
        <ele>121.8</ele>
        <time>2026-05-24T11:52:50Z</time>
      </trkpt>
      <trkpt lat="48.60863" lon="2.03076">
        <ele>121.8</ele>
        <time>2026-05-24T11:52:51Z</time>
      </trkpt>
      <trkpt lat="48.60869" lon="2.03072">
        <ele>121.8</ele>
        <time>2026-05-24T11:52:52Z</time>
      </trkpt>
      <trkpt lat="48.60875" lon="2.03068">
        <ele>121</ele>
        <time>2026-05-24T11:52:53Z</time>
      </trkpt>
      <trkpt lat="48.60882" lon="2.03064">
        <ele>121</ele>
        <time>2026-05-24T11:52:54Z</time>
      </trkpt>
      <trkpt lat="48.60888" lon="2.0306">
        <ele>121</ele>
        <time>2026-05-24T11:52:55Z</time>
      </trkpt>
      <trkpt lat="48.60895" lon="2.03055">
        <ele>121</ele>
        <time>2026-05-24T11:52:56Z</time>
      </trkpt>
      <trkpt lat="48.60902" lon="2.0305">
        <ele>120</ele>
        <time>2026-05-24T11:52:57Z</time>
      </trkpt>
      <trkpt lat="48.6091" lon="2.03045">
        <ele>119.2</ele>
        <time>2026-05-24T11:52:58Z</time>
      </trkpt>
      <trkpt lat="48.60917" lon="2.03039">
        <ele>119.2</ele>
        <time>2026-05-24T11:52:59Z</time>
      </trkpt>
      <trkpt lat="48.60924" lon="2.03033">
        <ele>119.2</ele>
        <time>2026-05-24T11:53:00Z</time>
      </trkpt>
      <trkpt lat="48.60931" lon="2.03025">
        <ele>118.2</ele>
        <time>2026-05-24T11:53:01Z</time>
      </trkpt>
      <trkpt lat="48.60938" lon="2.03017">
        <ele>118.2</ele>
        <time>2026-05-24T11:53:02Z</time>
      </trkpt>
      <trkpt lat="48.60944" lon="2.03007">
        <ele>118.2</ele>
        <time>2026-05-24T11:53:03Z</time>
      </trkpt>
      <trkpt lat="48.60949" lon="2.02998">
        <ele>118.2</ele>
        <time>2026-05-24T11:53:04Z</time>
      </trkpt>
      <trkpt lat="48.60955" lon="2.02989">
        <ele>117.2</ele>
        <time>2026-05-24T11:53:05Z</time>
      </trkpt>
      <trkpt lat="48.6096" lon="2.02981">
        <ele>117.2</ele>
        <time>2026-05-24T11:53:06Z</time>
      </trkpt>
      <trkpt lat="48.60966" lon="2.02974">
        <ele>117.2</ele>
        <time>2026-05-24T11:53:07Z</time>
      </trkpt>
      <trkpt lat="48.60972" lon="2.02969">
        <ele>117.2</ele>
        <time>2026-05-24T11:53:08Z</time>
      </trkpt>
      <trkpt lat="48.60979" lon="2.02965">
        <ele>117.2</ele>
        <time>2026-05-24T11:53:09Z</time>
      </trkpt>
      <trkpt lat="48.60984" lon="2.02961">
        <ele>117</ele>
        <time>2026-05-24T11:53:10Z</time>
      </trkpt>
      <trkpt lat="48.6099" lon="2.02958">
        <ele>117</ele>
        <time>2026-05-24T11:53:11Z</time>
      </trkpt>
      <trkpt lat="48.60995" lon="2.02956">
        <ele>117</ele>
        <time>2026-05-24T11:53:12Z</time>
      </trkpt>
      <trkpt lat="48.61" lon="2.02954">
        <ele>117.6</ele>
        <time>2026-05-24T11:53:13Z</time>
      </trkpt>
      <trkpt lat="48.61006" lon="2.02952">
        <ele>117</ele>
        <time>2026-05-24T11:53:14Z</time>
      </trkpt>
      <trkpt lat="48.61013" lon="2.0295">
        <ele>117</ele>
        <time>2026-05-24T11:53:15Z</time>
      </trkpt>
      <trkpt lat="48.61019" lon="2.02948">
        <ele>117</ele>
        <time>2026-05-24T11:53:16Z</time>
      </trkpt>
      <trkpt lat="48.61026" lon="2.02946">
        <ele>117</ele>
        <time>2026-05-24T11:53:17Z</time>
      </trkpt>
      <trkpt lat="48.61033" lon="2.02944">
        <ele>117</ele>
        <time>2026-05-24T11:53:18Z</time>
      </trkpt>
      <trkpt lat="48.61039" lon="2.02941">
        <ele>117</ele>
        <time>2026-05-24T11:53:19Z</time>
      </trkpt>
      <trkpt lat="48.61045" lon="2.02939">
        <ele>117</ele>
        <time>2026-05-24T11:53:20Z</time>
      </trkpt>
      <trkpt lat="48.61051" lon="2.02936">
        <ele>117</ele>
        <time>2026-05-24T11:53:21Z</time>
      </trkpt>
      <trkpt lat="48.61057" lon="2.02932">
        <ele>117.4</ele>
        <time>2026-05-24T11:53:22Z</time>
      </trkpt>
      <trkpt lat="48.61063" lon="2.02929">
        <ele>117.4</ele>
        <time>2026-05-24T11:53:23Z</time>
      </trkpt>
      <trkpt lat="48.61069" lon="2.02926">
        <ele>117.4</ele>
        <time>2026-05-24T11:53:24Z</time>
      </trkpt>
      <trkpt lat="48.61074" lon="2.02922">
        <ele>117.4</ele>
        <time>2026-05-24T11:53:25Z</time>
      </trkpt>
      <trkpt lat="48.61079" lon="2.02919">
        <ele>118.2</ele>
        <time>2026-05-24T11:53:26Z</time>
      </trkpt>
      <trkpt lat="48.61084" lon="2.02916">
        <ele>118.2</ele>
        <time>2026-05-24T11:53:27Z</time>
      </trkpt>
      <trkpt lat="48.61088" lon="2.02912">
        <ele>118.2</ele>
        <time>2026-05-24T11:53:28Z</time>
      </trkpt>
      <trkpt lat="48.61092" lon="2.02909">
        <ele>118.2</ele>
        <time>2026-05-24T11:53:29Z</time>
      </trkpt>
      <trkpt lat="48.61096" lon="2.02906">
        <ele>118.8</ele>
        <time>2026-05-24T11:53:30Z</time>
      </trkpt>
      <trkpt lat="48.61099" lon="2.02902">
        <ele>118.8</ele>
        <time>2026-05-24T11:53:31Z</time>
      </trkpt>
      <trkpt lat="48.61103" lon="2.02899">
        <ele>118.8</ele>
        <time>2026-05-24T11:53:32Z</time>
      </trkpt>
      <trkpt lat="48.61106" lon="2.02897">
        <ele>118.8</ele>
        <time>2026-05-24T11:53:33Z</time>
      </trkpt>
      <trkpt lat="48.61109" lon="2.02894">
        <ele>118.6</ele>
        <time>2026-05-24T11:53:34Z</time>
      </trkpt>
      <trkpt lat="48.61113" lon="2.02891">
        <ele>118.6</ele>
        <time>2026-05-24T11:53:35Z</time>
      </trkpt>
      <trkpt lat="48.61116" lon="2.02888">
        <ele>118.6</ele>
        <time>2026-05-24T11:53:36Z</time>
      </trkpt>
      <trkpt lat="48.61119" lon="2.02885">
        <ele>119.6</ele>
        <time>2026-05-24T11:53:37Z</time>
      </trkpt>
      <trkpt lat="48.61122" lon="2.02882">
        <ele>119.8</ele>
        <time>2026-05-24T11:53:38Z</time>
      </trkpt>
      <trkpt lat="48.61124" lon="2.0288">
        <ele>119.8</ele>
        <time>2026-05-24T11:53:39Z</time>
      </trkpt>
      <trkpt lat="48.61127" lon="2.02877">
        <ele>119.8</ele>
        <time>2026-05-24T11:53:40Z</time>
      </trkpt>
      <trkpt lat="48.6113" lon="2.02874">
        <ele>119.8</ele>
        <time>2026-05-24T11:53:41Z</time>
      </trkpt>
      <trkpt lat="48.61134" lon="2.02871">
        <ele>119.8</ele>
        <time>2026-05-24T11:53:42Z</time>
      </trkpt>
      <trkpt lat="48.61137" lon="2.02869">
        <ele>119.8</ele>
        <time>2026-05-24T11:53:43Z</time>
      </trkpt>
      <trkpt lat="48.61139" lon="2.02866">
        <ele>119.8</ele>
        <time>2026-05-24T11:53:44Z</time>
      </trkpt>
      <trkpt lat="48.61142" lon="2.02863">
        <ele>119.8</ele>
        <time>2026-05-24T11:53:45Z</time>
      </trkpt>
      <trkpt lat="48.61145" lon="2.0286">
        <ele>120.2</ele>
        <time>2026-05-24T11:53:46Z</time>
      </trkpt>
      <trkpt lat="48.61148" lon="2.02857">
        <ele>120.2</ele>
        <time>2026-05-24T11:53:47Z</time>
      </trkpt>
      <trkpt lat="48.61151" lon="2.02854">
        <ele>120.2</ele>
        <time>2026-05-24T11:53:48Z</time>
      </trkpt>
      <trkpt lat="48.61154" lon="2.02852">
        <ele>121.2</ele>
        <time>2026-05-24T11:53:49Z</time>
      </trkpt>
      <trkpt lat="48.61157" lon="2.02849">
        <ele>120.8</ele>
        <time>2026-05-24T11:53:50Z</time>
      </trkpt>
      <trkpt lat="48.6116" lon="2.02847">
        <ele>120.8</ele>
        <time>2026-05-24T11:53:51Z</time>
      </trkpt>
      <trkpt lat="48.61162" lon="2.02844">
        <ele>120.8</ele>
        <time>2026-05-24T11:53:52Z</time>
      </trkpt>
      <trkpt lat="48.61165" lon="2.02841">
        <ele>121.6</ele>
        <time>2026-05-24T11:53:53Z</time>
      </trkpt>
      <trkpt lat="48.61168" lon="2.02838">
        <ele>122</ele>
        <time>2026-05-24T11:53:54Z</time>
      </trkpt>
      <trkpt lat="48.61171" lon="2.02835">
        <ele>122</ele>
        <time>2026-05-24T11:53:55Z</time>
      </trkpt>
      <trkpt lat="48.61173" lon="2.02832">
        <ele>122</ele>
        <time>2026-05-24T11:53:56Z</time>
      </trkpt>
      <trkpt lat="48.61176" lon="2.02829">
        <ele>122</ele>
        <time>2026-05-24T11:53:57Z</time>
      </trkpt>
      <trkpt lat="48.61179" lon="2.02826">
        <ele>122.6</ele>
        <time>2026-05-24T11:53:58Z</time>
      </trkpt>
      <trkpt lat="48.61182" lon="2.02824">
        <ele>122.6</ele>
        <time>2026-05-24T11:53:59Z</time>
      </trkpt>
      <trkpt lat="48.61185" lon="2.02821">
        <ele>122.6</ele>
        <time>2026-05-24T11:54:00Z</time>
      </trkpt>
      <trkpt lat="48.61188" lon="2.02819">
        <ele>122.6</ele>
        <time>2026-05-24T11:54:01Z</time>
      </trkpt>
      <trkpt lat="48.61191" lon="2.02816">
        <ele>122.4</ele>
        <time>2026-05-24T11:54:02Z</time>
      </trkpt>
      <trkpt lat="48.61194" lon="2.02813">
        <ele>122.4</ele>
        <time>2026-05-24T11:54:03Z</time>
      </trkpt>
      <trkpt lat="48.61197" lon="2.02811">
        <ele>122.4</ele>
        <time>2026-05-24T11:54:04Z</time>
      </trkpt>
      <trkpt lat="48.612" lon="2.02808">
        <ele>123.2</ele>
        <time>2026-05-24T11:54:05Z</time>
      </trkpt>
      <trkpt lat="48.61203" lon="2.02806">
        <ele>123.4</ele>
        <time>2026-05-24T11:54:06Z</time>
      </trkpt>
      <trkpt lat="48.61206" lon="2.02803">
        <ele>123.4</ele>
        <time>2026-05-24T11:54:07Z</time>
      </trkpt>
      <trkpt lat="48.61209" lon="2.02801">
        <ele>123.4</ele>
        <time>2026-05-24T11:54:08Z</time>
      </trkpt>
      <trkpt lat="48.61213" lon="2.02798">
        <ele>123.4</ele>
        <time>2026-05-24T11:54:09Z</time>
      </trkpt>
      <trkpt lat="48.61216" lon="2.02796">
        <ele>123</ele>
        <time>2026-05-24T11:54:10Z</time>
      </trkpt>
      <trkpt lat="48.61219" lon="2.02794">
        <ele>123</ele>
        <time>2026-05-24T11:54:11Z</time>
      </trkpt>
      <trkpt lat="48.61222" lon="2.02792">
        <ele>123</ele>
        <time>2026-05-24T11:54:12Z</time>
      </trkpt>
      <trkpt lat="48.61226" lon="2.02791">
        <ele>124</ele>
        <time>2026-05-24T11:54:13Z</time>
      </trkpt>
      <trkpt lat="48.61229" lon="2.02789">
        <ele>124</ele>
        <time>2026-05-24T11:54:14Z</time>
      </trkpt>
      <trkpt lat="48.61232" lon="2.02788">
        <ele>124</ele>
        <time>2026-05-24T11:54:15Z</time>
      </trkpt>
      <trkpt lat="48.61236" lon="2.02787">
        <ele>124</ele>
        <time>2026-05-24T11:54:16Z</time>
      </trkpt>
      <trkpt lat="48.61239" lon="2.02786">
        <ele>124.6</ele>
        <time>2026-05-24T11:54:17Z</time>
      </trkpt>
      <trkpt lat="48.61243" lon="2.02785">
        <ele>124.6</ele>
        <time>2026-05-24T11:54:18Z</time>
      </trkpt>
      <trkpt lat="48.61246" lon="2.02783">
        <ele>124.6</ele>
        <time>2026-05-24T11:54:19Z</time>
      </trkpt>
      <trkpt lat="48.6125" lon="2.02782">
        <ele>124.6</ele>
        <time>2026-05-24T11:54:20Z</time>
      </trkpt>
      <trkpt lat="48.61253" lon="2.0278">
        <ele>124.6</ele>
        <time>2026-05-24T11:54:21Z</time>
      </trkpt>
      <trkpt lat="48.61257" lon="2.02779">
        <ele>125.2</ele>
        <time>2026-05-24T11:54:22Z</time>
      </trkpt>
      <trkpt lat="48.6126" lon="2.02777">
        <ele>125.2</ele>
        <time>2026-05-24T11:54:23Z</time>
      </trkpt>
      <trkpt lat="48.61264" lon="2.02776">
        <ele>125.2</ele>
        <time>2026-05-24T11:54:24Z</time>
      </trkpt>
      <trkpt lat="48.61268" lon="2.02774">
        <ele>125.6</ele>
        <time>2026-05-24T11:54:25Z</time>
      </trkpt>
      <trkpt lat="48.61272" lon="2.02772">
        <ele>125</ele>
        <time>2026-05-24T11:54:26Z</time>
      </trkpt>
      <trkpt lat="48.61275" lon="2.02771">
        <ele>125</ele>
        <time>2026-05-24T11:54:27Z</time>
      </trkpt>
      <trkpt lat="48.61279" lon="2.0277">
        <ele>125</ele>
        <time>2026-05-24T11:54:28Z</time>
      </trkpt>
      <trkpt lat="48.61283" lon="2.02769">
        <ele>125</ele>
        <time>2026-05-24T11:54:29Z</time>
      </trkpt>
      <trkpt lat="48.61286" lon="2.02767">
        <ele>125.4</ele>
        <time>2026-05-24T11:54:30Z</time>
      </trkpt>
      <trkpt lat="48.6129" lon="2.02765">
        <ele>125.4</ele>
        <time>2026-05-24T11:54:31Z</time>
      </trkpt>
      <trkpt lat="48.61294" lon="2.02764">
        <ele>125.4</ele>
        <time>2026-05-24T11:54:32Z</time>
      </trkpt>
      <trkpt lat="48.61298" lon="2.02762">
        <ele>125.4</ele>
        <time>2026-05-24T11:54:33Z</time>
      </trkpt>
      <trkpt lat="48.61302" lon="2.02761">
        <ele>125.8</ele>
        <time>2026-05-24T11:54:34Z</time>
      </trkpt>
      <trkpt lat="48.61305" lon="2.02759">
        <ele>125.8</ele>
        <time>2026-05-24T11:54:35Z</time>
      </trkpt>
      <trkpt lat="48.61309" lon="2.02758">
        <ele>125.8</ele>
        <time>2026-05-24T11:54:36Z</time>
      </trkpt>
      <trkpt lat="48.61313" lon="2.02756">
        <ele>125.8</ele>
        <time>2026-05-24T11:54:37Z</time>
      </trkpt>
      <trkpt lat="48.61316" lon="2.02754">
        <ele>125.4</ele>
        <time>2026-05-24T11:54:38Z</time>
      </trkpt>
      <trkpt lat="48.6132" lon="2.02751">
        <ele>125.4</ele>
        <time>2026-05-24T11:54:39Z</time>
      </trkpt>
      <trkpt lat="48.61324" lon="2.02749">
        <ele>125.4</ele>
        <time>2026-05-24T11:54:40Z</time>
      </trkpt>
      <trkpt lat="48.61327" lon="2.02747">
        <ele>125.4</ele>
        <time>2026-05-24T11:54:41Z</time>
      </trkpt>
      <trkpt lat="48.61331" lon="2.02744">
        <ele>125.8</ele>
        <time>2026-05-24T11:54:42Z</time>
      </trkpt>
      <trkpt lat="48.61334" lon="2.02741">
        <ele>125.8</ele>
        <time>2026-05-24T11:54:43Z</time>
      </trkpt>
      <trkpt lat="48.61338" lon="2.02738">
        <ele>125.8</ele>
        <time>2026-05-24T11:54:44Z</time>
      </trkpt>
      <trkpt lat="48.61342" lon="2.02736">
        <ele>124.8</ele>
        <time>2026-05-24T11:54:45Z</time>
      </trkpt>
      <trkpt lat="48.61345" lon="2.02734">
        <ele>124.6</ele>
        <time>2026-05-24T11:54:46Z</time>
      </trkpt>
      <trkpt lat="48.61349" lon="2.02731">
        <ele>124.6</ele>
        <time>2026-05-24T11:54:47Z</time>
      </trkpt>
      <trkpt lat="48.61353" lon="2.02729">
        <ele>124.6</ele>
        <time>2026-05-24T11:54:48Z</time>
      </trkpt>
      <trkpt lat="48.61357" lon="2.02726">
        <ele>125.4</ele>
        <time>2026-05-24T11:54:49Z</time>
      </trkpt>
      <trkpt lat="48.61361" lon="2.02724">
        <ele>124.6</ele>
        <time>2026-05-24T11:54:50Z</time>
      </trkpt>
      <trkpt lat="48.61365" lon="2.02722">
        <ele>124.6</ele>
        <time>2026-05-24T11:54:51Z</time>
      </trkpt>
      <trkpt lat="48.6137" lon="2.02719">
        <ele>124.6</ele>
        <time>2026-05-24T11:54:52Z</time>
      </trkpt>
      <trkpt lat="48.61374" lon="2.02717">
        <ele>125.2</ele>
        <time>2026-05-24T11:54:53Z</time>
      </trkpt>
      <trkpt lat="48.61378" lon="2.02716">
        <ele>124.6</ele>
        <time>2026-05-24T11:54:54Z</time>
      </trkpt>
      <trkpt lat="48.61382" lon="2.02715">
        <ele>124.6</ele>
        <time>2026-05-24T11:54:55Z</time>
      </trkpt>
      <trkpt lat="48.61387" lon="2.02714">
        <ele>124.6</ele>
        <time>2026-05-24T11:54:56Z</time>
      </trkpt>
      <trkpt lat="48.61391" lon="2.02714">
        <ele>124.6</ele>
        <time>2026-05-24T11:54:57Z</time>
      </trkpt>
      <trkpt lat="48.61394" lon="2.02715">
        <ele>124.2</ele>
        <time>2026-05-24T11:54:58Z</time>
      </trkpt>
      <trkpt lat="48.61397" lon="2.02717">
        <ele>124.2</ele>
        <time>2026-05-24T11:54:59Z</time>
      </trkpt>
      <trkpt lat="48.614" lon="2.02717">
        <ele>124.2</ele>
        <time>2026-05-24T11:55:00Z</time>
      </trkpt>
      <trkpt lat="48.61404" lon="2.02715">
        <ele>125.2</ele>
        <time>2026-05-24T11:55:01Z</time>
      </trkpt>
      <trkpt lat="48.61407" lon="2.02713">
        <ele>125</ele>
        <time>2026-05-24T11:55:02Z</time>
      </trkpt>
      <trkpt lat="48.61411" lon="2.0271">
        <ele>125</ele>
        <time>2026-05-24T11:55:03Z</time>
      </trkpt>
      <trkpt lat="48.61415" lon="2.02707">
        <ele>125</ele>
        <time>2026-05-24T11:55:04Z</time>
      </trkpt>
      <trkpt lat="48.61419" lon="2.02703">
        <ele>125</ele>
        <time>2026-05-24T11:55:05Z</time>
      </trkpt>
      <trkpt lat="48.61423" lon="2.027">
        <ele>124.6</ele>
        <time>2026-05-24T11:55:06Z</time>
      </trkpt>
      <trkpt lat="48.61428" lon="2.02698">
        <ele>124.6</ele>
        <time>2026-05-24T11:55:07Z</time>
      </trkpt>
      <trkpt lat="48.61432" lon="2.02696">
        <ele>124.6</ele>
        <time>2026-05-24T11:55:08Z</time>
      </trkpt>
      <trkpt lat="48.61436" lon="2.02694">
        <ele>124.6</ele>
        <time>2026-05-24T11:55:09Z</time>
      </trkpt>
      <trkpt lat="48.61441" lon="2.02692">
        <ele>125</ele>
        <time>2026-05-24T11:55:10Z</time>
      </trkpt>
      <trkpt lat="48.61445" lon="2.02691">
        <ele>125</ele>
        <time>2026-05-24T11:55:11Z</time>
      </trkpt>
      <trkpt lat="48.6145" lon="2.02689">
        <ele>125</ele>
        <time>2026-05-24T11:55:12Z</time>
      </trkpt>
      <trkpt lat="48.61454" lon="2.02688">
        <ele>125</ele>
        <time>2026-05-24T11:55:13Z</time>
      </trkpt>
      <trkpt lat="48.61459" lon="2.02686">
        <ele>125</ele>
        <time>2026-05-24T11:55:14Z</time>
      </trkpt>
      <trkpt lat="48.61463" lon="2.02684">
        <ele>125</ele>
        <time>2026-05-24T11:55:15Z</time>
      </trkpt>
      <trkpt lat="48.61468" lon="2.02682">
        <ele>125</ele>
        <time>2026-05-24T11:55:16Z</time>
      </trkpt>
      <trkpt lat="48.61472" lon="2.0268">
        <ele>125</ele>
        <time>2026-05-24T11:55:17Z</time>
      </trkpt>
      <trkpt lat="48.61477" lon="2.02678">
        <ele>125</ele>
        <time>2026-05-24T11:55:18Z</time>
      </trkpt>
      <trkpt lat="48.61481" lon="2.02676">
        <ele>125</ele>
        <time>2026-05-24T11:55:19Z</time>
      </trkpt>
      <trkpt lat="48.61486" lon="2.02674">
        <ele>125</ele>
        <time>2026-05-24T11:55:20Z</time>
      </trkpt>
      <trkpt lat="48.6149" lon="2.02672">
        <ele>125</ele>
        <time>2026-05-24T11:55:21Z</time>
      </trkpt>
      <trkpt lat="48.61495" lon="2.0267">
        <ele>125.4</ele>
        <time>2026-05-24T11:55:22Z</time>
      </trkpt>
      <trkpt lat="48.61499" lon="2.02667">
        <ele>125.4</ele>
        <time>2026-05-24T11:55:23Z</time>
      </trkpt>
      <trkpt lat="48.61503" lon="2.02664">
        <ele>125.4</ele>
        <time>2026-05-24T11:55:24Z</time>
      </trkpt>
      <trkpt lat="48.61507" lon="2.02661">
        <ele>125.4</ele>
        <time>2026-05-24T11:55:25Z</time>
      </trkpt>
      <trkpt lat="48.61509" lon="2.02655">
        <ele>125.8</ele>
        <time>2026-05-24T11:55:26Z</time>
      </trkpt>
      <trkpt lat="48.61512" lon="2.02649">
        <ele>125.8</ele>
        <time>2026-05-24T11:55:27Z</time>
      </trkpt>
      <trkpt lat="48.61516" lon="2.02644">
        <ele>125.8</ele>
        <time>2026-05-24T11:55:28Z</time>
      </trkpt>
      <trkpt lat="48.61521" lon="2.0264">
        <ele>124.8</ele>
        <time>2026-05-24T11:55:29Z</time>
      </trkpt>
      <trkpt lat="48.61525" lon="2.02636">
        <ele>124.4</ele>
        <time>2026-05-24T11:55:30Z</time>
      </trkpt>
      <trkpt lat="48.6153" lon="2.02635">
        <ele>124.4</ele>
        <time>2026-05-24T11:55:31Z</time>
      </trkpt>
      <trkpt lat="48.61535" lon="2.02634">
        <ele>124.4</ele>
        <time>2026-05-24T11:55:32Z</time>
      </trkpt>
      <trkpt lat="48.61541" lon="2.02633">
        <ele>125.4</ele>
        <time>2026-05-24T11:55:33Z</time>
      </trkpt>
      <trkpt lat="48.61546" lon="2.02631">
        <ele>125.4</ele>
        <time>2026-05-24T11:55:34Z</time>
      </trkpt>
      <trkpt lat="48.61551" lon="2.02631">
        <ele>125.4</ele>
        <time>2026-05-24T11:55:35Z</time>
      </trkpt>
      <trkpt lat="48.61556" lon="2.0263">
        <ele>125.4</ele>
        <time>2026-05-24T11:55:36Z</time>
      </trkpt>
      <trkpt lat="48.61561" lon="2.0263">
        <ele>125.2</ele>
        <time>2026-05-24T11:55:37Z</time>
      </trkpt>
      <trkpt lat="48.61567" lon="2.02629">
        <ele>125</ele>
        <time>2026-05-24T11:55:38Z</time>
      </trkpt>
      <trkpt lat="48.61572" lon="2.02629">
        <ele>125</ele>
        <time>2026-05-24T11:55:39Z</time>
      </trkpt>
      <trkpt lat="48.61577" lon="2.02628">
        <ele>125</ele>
        <time>2026-05-24T11:55:40Z</time>
      </trkpt>
      <trkpt lat="48.61583" lon="2.02628">
        <ele>125</ele>
        <time>2026-05-24T11:55:41Z</time>
      </trkpt>
      <trkpt lat="48.61588" lon="2.02628">
        <ele>124.8</ele>
        <time>2026-05-24T11:55:42Z</time>
      </trkpt>
      <trkpt lat="48.61593" lon="2.02629">
        <ele>124.8</ele>
        <time>2026-05-24T11:55:43Z</time>
      </trkpt>
      <trkpt lat="48.61598" lon="2.02629">
        <ele>124.8</ele>
        <time>2026-05-24T11:55:44Z</time>
      </trkpt>
      <trkpt lat="48.61603" lon="2.0263">
        <ele>125</ele>
        <time>2026-05-24T11:55:45Z</time>
      </trkpt>
      <trkpt lat="48.61608" lon="2.02631">
        <ele>125.2</ele>
        <time>2026-05-24T11:55:46Z</time>
      </trkpt>
      <trkpt lat="48.61613" lon="2.02633">
        <ele>125.2</ele>
        <time>2026-05-24T11:55:47Z</time>
      </trkpt>
      <trkpt lat="48.61618" lon="2.02634">
        <ele>125.2</ele>
        <time>2026-05-24T11:55:48Z</time>
      </trkpt>
      <trkpt lat="48.61623" lon="2.02635">
        <ele>125.4</ele>
        <time>2026-05-24T11:55:49Z</time>
      </trkpt>
      <trkpt lat="48.61628" lon="2.02636">
        <ele>125</ele>
        <time>2026-05-24T11:55:50Z</time>
      </trkpt>
      <trkpt lat="48.61633" lon="2.02637">
        <ele>125</ele>
        <time>2026-05-24T11:55:51Z</time>
      </trkpt>
      <trkpt lat="48.61638" lon="2.02638">
        <ele>125</ele>
        <time>2026-05-24T11:55:52Z</time>
      </trkpt>
      <trkpt lat="48.61643" lon="2.02639">
        <ele>125</ele>
        <time>2026-05-24T11:55:53Z</time>
      </trkpt>
      <trkpt lat="48.61648" lon="2.02641">
        <ele>125.4</ele>
        <time>2026-05-24T11:55:54Z</time>
      </trkpt>
      <trkpt lat="48.61653" lon="2.02642">
        <ele>125.4</ele>
        <time>2026-05-24T11:55:55Z</time>
      </trkpt>
      <trkpt lat="48.61658" lon="2.02643">
        <ele>125.4</ele>
        <time>2026-05-24T11:55:56Z</time>
      </trkpt>
      <trkpt lat="48.61663" lon="2.02644">
        <ele>125.2</ele>
        <time>2026-05-24T11:55:57Z</time>
      </trkpt>
      <trkpt lat="48.61668" lon="2.02645">
        <ele>125.6</ele>
        <time>2026-05-24T11:55:58Z</time>
      </trkpt>
      <trkpt lat="48.61672" lon="2.02646">
        <ele>125.6</ele>
        <time>2026-05-24T11:55:59Z</time>
      </trkpt>
      <trkpt lat="48.61677" lon="2.02647">
        <ele>125.6</ele>
        <time>2026-05-24T11:56:00Z</time>
      </trkpt>
      <trkpt lat="48.61682" lon="2.02646">
        <ele>125.6</ele>
        <time>2026-05-24T11:56:01Z</time>
      </trkpt>
      <trkpt lat="48.61687" lon="2.02646">
        <ele>125.6</ele>
        <time>2026-05-24T11:56:02Z</time>
      </trkpt>
      <trkpt lat="48.61692" lon="2.02647">
        <ele>125.6</ele>
        <time>2026-05-24T11:56:03Z</time>
      </trkpt>
      <trkpt lat="48.61696" lon="2.02648">
        <ele>125.6</ele>
        <time>2026-05-24T11:56:04Z</time>
      </trkpt>
      <trkpt lat="48.61701" lon="2.02648">
        <ele>125.6</ele>
        <time>2026-05-24T11:56:05Z</time>
      </trkpt>
      <trkpt lat="48.61706" lon="2.02648">
        <ele>125.6</ele>
        <time>2026-05-24T11:56:06Z</time>
      </trkpt>
      <trkpt lat="48.61711" lon="2.0265">
        <ele>125.6</ele>
        <time>2026-05-24T11:56:07Z</time>
      </trkpt>
      <trkpt lat="48.61715" lon="2.02649">
        <ele>125.6</ele>
        <time>2026-05-24T11:56:08Z</time>
      </trkpt>
      <trkpt lat="48.6172" lon="2.02647">
        <ele>126</ele>
        <time>2026-05-24T11:56:09Z</time>
      </trkpt>
      <trkpt lat="48.61724" lon="2.02644">
        <ele>125.8</ele>
        <time>2026-05-24T11:56:10Z</time>
      </trkpt>
      <trkpt lat="48.61729" lon="2.02642">
        <ele>125.8</ele>
        <time>2026-05-24T11:56:11Z</time>
      </trkpt>
      <trkpt lat="48.61734" lon="2.0264">
        <ele>125.8</ele>
        <time>2026-05-24T11:56:12Z</time>
      </trkpt>
      <trkpt lat="48.61738" lon="2.02637">
        <ele>125.8</ele>
        <time>2026-05-24T11:56:13Z</time>
      </trkpt>
      <trkpt lat="48.61742" lon="2.02633">
        <ele>126.2</ele>
        <time>2026-05-24T11:56:14Z</time>
      </trkpt>
      <trkpt lat="48.61746" lon="2.02629">
        <ele>126.2</ele>
        <time>2026-05-24T11:56:15Z</time>
      </trkpt>
      <trkpt lat="48.61751" lon="2.02625">
        <ele>126.2</ele>
        <time>2026-05-24T11:56:16Z</time>
      </trkpt>
      <trkpt lat="48.61755" lon="2.0262">
        <ele>126.2</ele>
        <time>2026-05-24T11:56:17Z</time>
      </trkpt>
      <trkpt lat="48.61759" lon="2.02615">
        <ele>126.2</ele>
        <time>2026-05-24T11:56:18Z</time>
      </trkpt>
      <trkpt lat="48.61762" lon="2.02609">
        <ele>126.2</ele>
        <time>2026-05-24T11:56:19Z</time>
      </trkpt>
      <trkpt lat="48.61766" lon="2.02603">
        <ele>126.2</ele>
        <time>2026-05-24T11:56:20Z</time>
      </trkpt>
      <trkpt lat="48.61769" lon="2.02598">
        <ele>126</ele>
        <time>2026-05-24T11:56:21Z</time>
      </trkpt>
      <trkpt lat="48.61773" lon="2.02592">
        <ele>125.4</ele>
        <time>2026-05-24T11:56:22Z</time>
      </trkpt>
      <trkpt lat="48.61777" lon="2.02586">
        <ele>125.4</ele>
        <time>2026-05-24T11:56:23Z</time>
      </trkpt>
      <trkpt lat="48.6178" lon="2.02579">
        <ele>125.4</ele>
        <time>2026-05-24T11:56:24Z</time>
      </trkpt>
      <trkpt lat="48.61782" lon="2.02571">
        <ele>125.4</ele>
        <time>2026-05-24T11:56:25Z</time>
      </trkpt>
      <trkpt lat="48.61785" lon="2.02564">
        <ele>126</ele>
        <time>2026-05-24T11:56:26Z</time>
      </trkpt>
      <trkpt lat="48.61788" lon="2.02557">
        <ele>126</ele>
        <time>2026-05-24T11:56:27Z</time>
      </trkpt>
      <trkpt lat="48.61791" lon="2.02551">
        <ele>126</ele>
        <time>2026-05-24T11:56:28Z</time>
      </trkpt>
      <trkpt lat="48.61794" lon="2.02545">
        <ele>126</ele>
        <time>2026-05-24T11:56:29Z</time>
      </trkpt>
      <trkpt lat="48.61797" lon="2.02538">
        <ele>126</ele>
        <time>2026-05-24T11:56:30Z</time>
      </trkpt>
      <trkpt lat="48.61801" lon="2.02533">
        <ele>126</ele>
        <time>2026-05-24T11:56:31Z</time>
      </trkpt>
      <trkpt lat="48.61804" lon="2.02527">
        <ele>126</ele>
        <time>2026-05-24T11:56:32Z</time>
      </trkpt>
      <trkpt lat="48.61807" lon="2.02521">
        <ele>126</ele>
        <time>2026-05-24T11:56:33Z</time>
      </trkpt>
      <trkpt lat="48.6181" lon="2.02516">
        <ele>126.2</ele>
        <time>2026-05-24T11:56:34Z</time>
      </trkpt>
      <trkpt lat="48.61813" lon="2.0251">
        <ele>126.2</ele>
        <time>2026-05-24T11:56:35Z</time>
      </trkpt>
      <trkpt lat="48.61815" lon="2.02505">
        <ele>126.2</ele>
        <time>2026-05-24T11:56:36Z</time>
      </trkpt>
      <trkpt lat="48.61818" lon="2.02499">
        <ele>126.2</ele>
        <time>2026-05-24T11:56:37Z</time>
      </trkpt>
      <trkpt lat="48.61819" lon="2.02493">
        <ele>125.6</ele>
        <time>2026-05-24T11:56:38Z</time>
      </trkpt>
      <trkpt lat="48.6182" lon="2.02487">
        <ele>125.6</ele>
        <time>2026-05-24T11:56:39Z</time>
      </trkpt>
      <trkpt lat="48.61819" lon="2.0248">
        <ele>125.6</ele>
        <time>2026-05-24T11:56:40Z</time>
      </trkpt>
      <trkpt lat="48.61818" lon="2.02473">
        <ele>125.6</ele>
        <time>2026-05-24T11:56:41Z</time>
      </trkpt>
      <trkpt lat="48.61818" lon="2.02466">
        <ele>125.4</ele>
        <time>2026-05-24T11:56:42Z</time>
      </trkpt>
      <trkpt lat="48.61819" lon="2.02459">
        <ele>125.4</ele>
        <time>2026-05-24T11:56:43Z</time>
      </trkpt>
      <trkpt lat="48.61819" lon="2.02453">
        <ele>125.4</ele>
        <time>2026-05-24T11:56:44Z</time>
      </trkpt>
      <trkpt lat="48.61818" lon="2.0245">
        <ele>125.4</ele>
        <time>2026-05-24T11:56:45Z</time>
      </trkpt>
      <trkpt lat="48.61818" lon="2.02446">
        <ele>125.4</ele>
        <time>2026-05-24T11:56:46Z</time>
      </trkpt>
      <trkpt lat="48.61818" lon="2.02441">
        <ele>125.4</ele>
        <time>2026-05-24T11:56:47Z</time>
      </trkpt>
      <trkpt lat="48.61819" lon="2.02435">
        <ele>125.4</ele>
        <time>2026-05-24T11:56:48Z</time>
      </trkpt>
      <trkpt lat="48.6182" lon="2.02428">
        <ele>125.4</ele>
        <time>2026-05-24T11:56:49Z</time>
      </trkpt>
      <trkpt lat="48.61822" lon="2.02421">
        <ele>124.6</ele>
        <time>2026-05-24T11:56:50Z</time>
      </trkpt>
      <trkpt lat="48.61826" lon="2.02416">
        <ele>124.6</ele>
        <time>2026-05-24T11:56:51Z</time>
      </trkpt>
      <trkpt lat="48.6183" lon="2.02413">
        <ele>124.6</ele>
        <time>2026-05-24T11:56:52Z</time>
      </trkpt>
      <trkpt lat="48.61835" lon="2.02411">
        <ele>124.6</ele>
        <time>2026-05-24T11:56:53Z</time>
      </trkpt>
      <trkpt lat="48.61839" lon="2.02408">
        <ele>124.4</ele>
        <time>2026-05-24T11:56:54Z</time>
      </trkpt>
      <trkpt lat="48.61844" lon="2.02406">
        <ele>124.4</ele>
        <time>2026-05-24T11:56:55Z</time>
      </trkpt>
      <trkpt lat="48.61848" lon="2.02404">
        <ele>124.4</ele>
        <time>2026-05-24T11:56:56Z</time>
      </trkpt>
      <trkpt lat="48.61853" lon="2.02401">
        <ele>124.6</ele>
        <time>2026-05-24T11:56:57Z</time>
      </trkpt>
      <trkpt lat="48.61857" lon="2.02398">
        <ele>125.2</ele>
        <time>2026-05-24T11:56:58Z</time>
      </trkpt>
      <trkpt lat="48.61861" lon="2.02396">
        <ele>125.2</ele>
        <time>2026-05-24T11:56:59Z</time>
      </trkpt>
      <trkpt lat="48.61865" lon="2.02393">
        <ele>125.2</ele>
        <time>2026-05-24T11:57:00Z</time>
      </trkpt>
      <trkpt lat="48.6187" lon="2.0239">
        <ele>125</ele>
        <time>2026-05-24T11:57:01Z</time>
      </trkpt>
      <trkpt lat="48.61874" lon="2.02388">
        <ele>124.6</ele>
        <time>2026-05-24T11:57:02Z</time>
      </trkpt>
      <trkpt lat="48.61878" lon="2.02385">
        <ele>124.6</ele>
        <time>2026-05-24T11:57:03Z</time>
      </trkpt>
      <trkpt lat="48.61882" lon="2.02383">
        <ele>124.6</ele>
        <time>2026-05-24T11:57:04Z</time>
      </trkpt>
      <trkpt lat="48.61887" lon="2.02381">
        <ele>125.6</ele>
        <time>2026-05-24T11:57:05Z</time>
      </trkpt>
      <trkpt lat="48.61891" lon="2.02379">
        <ele>125.2</ele>
        <time>2026-05-24T11:57:06Z</time>
      </trkpt>
      <trkpt lat="48.61895" lon="2.02378">
        <ele>125.2</ele>
        <time>2026-05-24T11:57:07Z</time>
      </trkpt>
      <trkpt lat="48.61899" lon="2.02377">
        <ele>125.2</ele>
        <time>2026-05-24T11:57:08Z</time>
      </trkpt>
      <trkpt lat="48.61903" lon="2.02377">
        <ele>125.8</ele>
        <time>2026-05-24T11:57:09Z</time>
      </trkpt>
      <trkpt lat="48.61907" lon="2.02377">
        <ele>125.4</ele>
        <time>2026-05-24T11:57:10Z</time>
      </trkpt>
      <trkpt lat="48.61912" lon="2.02377">
        <ele>125.4</ele>
        <time>2026-05-24T11:57:11Z</time>
      </trkpt>
      <trkpt lat="48.61916" lon="2.02377">
        <ele>125.4</ele>
        <time>2026-05-24T11:57:12Z</time>
      </trkpt>
      <trkpt lat="48.61919" lon="2.02376">
        <ele>126.2</ele>
        <time>2026-05-24T11:57:13Z</time>
      </trkpt>
      <trkpt lat="48.61924" lon="2.02375">
        <ele>126.2</ele>
        <time>2026-05-24T11:57:14Z</time>
      </trkpt>
      <trkpt lat="48.61928" lon="2.02372">
        <ele>126.2</ele>
        <time>2026-05-24T11:57:15Z</time>
      </trkpt>
      <trkpt lat="48.61931" lon="2.0237">
        <ele>126.2</ele>
        <time>2026-05-24T11:57:16Z</time>
      </trkpt>
      <trkpt lat="48.61935" lon="2.02366">
        <ele>126.2</ele>
        <time>2026-05-24T11:57:17Z</time>
      </trkpt>
      <trkpt lat="48.61939" lon="2.02364">
        <ele>126.2</ele>
        <time>2026-05-24T11:57:18Z</time>
      </trkpt>
      <trkpt lat="48.61943" lon="2.02362">
        <ele>126.2</ele>
        <time>2026-05-24T11:57:19Z</time>
      </trkpt>
      <trkpt lat="48.61947" lon="2.0236">
        <ele>126.2</ele>
        <time>2026-05-24T11:57:20Z</time>
      </trkpt>
      <trkpt lat="48.61951" lon="2.02359">
        <ele>126.2</ele>
        <time>2026-05-24T11:57:21Z</time>
      </trkpt>
      <trkpt lat="48.61955" lon="2.02359">
        <ele>126.4</ele>
        <time>2026-05-24T11:57:22Z</time>
      </trkpt>
      <trkpt lat="48.61957" lon="2.02359">
        <ele>126.4</ele>
        <time>2026-05-24T11:57:23Z</time>
      </trkpt>
      <trkpt lat="48.6196" lon="2.02359">
        <ele>126.4</ele>
        <time>2026-05-24T11:57:24Z</time>
      </trkpt>
      <trkpt lat="48.61962" lon="2.0236">
        <ele>126.4</ele>
        <time>2026-05-24T11:57:25Z</time>
      </trkpt>
      <trkpt lat="48.61965" lon="2.02363">
        <ele>127</ele>
        <time>2026-05-24T11:57:26Z</time>
      </trkpt>
      <trkpt lat="48.61967" lon="2.02366">
        <ele>127</ele>
        <time>2026-05-24T11:57:27Z</time>
      </trkpt>
      <trkpt lat="48.61968" lon="2.02371">
        <ele>127</ele>
        <time>2026-05-24T11:57:28Z</time>
      </trkpt>
      <trkpt lat="48.61969" lon="2.02377">
        <ele>127</ele>
        <time>2026-05-24T11:57:29Z</time>
      </trkpt>
      <trkpt lat="48.6197" lon="2.02382">
        <ele>127</ele>
        <time>2026-05-24T11:57:30Z</time>
      </trkpt>
      <trkpt lat="48.61971" lon="2.02388">
        <ele>127</ele>
        <time>2026-05-24T11:57:31Z</time>
      </trkpt>
      <trkpt lat="48.61972" lon="2.02392">
        <ele>127</ele>
        <time>2026-05-24T11:57:32Z</time>
      </trkpt>
      <trkpt lat="48.61973" lon="2.02397">
        <ele>127</ele>
        <time>2026-05-24T11:57:33Z</time>
      </trkpt>
      <trkpt lat="48.61974" lon="2.02401">
        <ele>127.8</ele>
        <time>2026-05-24T11:57:34Z</time>
      </trkpt>
      <trkpt lat="48.61977" lon="2.02403">
        <ele>127.8</ele>
        <time>2026-05-24T11:57:35Z</time>
      </trkpt>
      <trkpt lat="48.6198" lon="2.02402">
        <ele>127.8</ele>
        <time>2026-05-24T11:57:36Z</time>
      </trkpt>
      <trkpt lat="48.61982" lon="2.02401">
        <ele>127.8</ele>
        <time>2026-05-24T11:57:37Z</time>
      </trkpt>
      <trkpt lat="48.61985" lon="2.024">
        <ele>127.8</ele>
        <time>2026-05-24T11:57:38Z</time>
      </trkpt>
      <trkpt lat="48.61989" lon="2.024">
        <ele>127.8</ele>
        <time>2026-05-24T11:57:39Z</time>
      </trkpt>
      <trkpt lat="48.61992" lon="2.02399">
        <ele>127.8</ele>
        <time>2026-05-24T11:57:40Z</time>
      </trkpt>
      <trkpt lat="48.61995" lon="2.02398">
        <ele>128.2</ele>
        <time>2026-05-24T11:57:41Z</time>
      </trkpt>
      <trkpt lat="48.61998" lon="2.02397">
        <ele>128.4</ele>
        <time>2026-05-24T11:57:42Z</time>
      </trkpt>
      <trkpt lat="48.62002" lon="2.02395">
        <ele>128.4</ele>
        <time>2026-05-24T11:57:43Z</time>
      </trkpt>
      <trkpt lat="48.62004" lon="2.02394">
        <ele>128.4</ele>
        <time>2026-05-24T11:57:44Z</time>
      </trkpt>
      <trkpt lat="48.62008" lon="2.02393">
        <ele>128.4</ele>
        <time>2026-05-24T11:57:45Z</time>
      </trkpt>
      <trkpt lat="48.62012" lon="2.02392">
        <ele>129.2</ele>
        <time>2026-05-24T11:57:46Z</time>
      </trkpt>
      <trkpt lat="48.62015" lon="2.02391">
        <ele>129.2</ele>
        <time>2026-05-24T11:57:47Z</time>
      </trkpt>
      <trkpt lat="48.62018" lon="2.02389">
        <ele>129.2</ele>
        <time>2026-05-24T11:57:48Z</time>
      </trkpt>
      <trkpt lat="48.62022" lon="2.02387">
        <ele>128.8</ele>
        <time>2026-05-24T11:57:49Z</time>
      </trkpt>
      <trkpt lat="48.62026" lon="2.02386">
        <ele>129.2</ele>
        <time>2026-05-24T11:57:50Z</time>
      </trkpt>
      <trkpt lat="48.6203" lon="2.02384">
        <ele>129.2</ele>
        <time>2026-05-24T11:57:51Z</time>
      </trkpt>
      <trkpt lat="48.62033" lon="2.02383">
        <ele>129.2</ele>
        <time>2026-05-24T11:57:52Z</time>
      </trkpt>
      <trkpt lat="48.62036" lon="2.02381">
        <ele>129.2</ele>
        <time>2026-05-24T11:57:53Z</time>
      </trkpt>
      <trkpt lat="48.6204" lon="2.02379">
        <ele>129.4</ele>
        <time>2026-05-24T11:57:54Z</time>
      </trkpt>
      <trkpt lat="48.62045" lon="2.02376">
        <ele>129.4</ele>
        <time>2026-05-24T11:57:55Z</time>
      </trkpt>
      <trkpt lat="48.62048" lon="2.02374">
        <ele>129.4</ele>
        <time>2026-05-24T11:57:56Z</time>
      </trkpt>
      <trkpt lat="48.62052" lon="2.02372">
        <ele>129.4</ele>
        <time>2026-05-24T11:57:57Z</time>
      </trkpt>
      <trkpt lat="48.62056" lon="2.0237">
        <ele>130</ele>
        <time>2026-05-24T11:57:58Z</time>
      </trkpt>
      <trkpt lat="48.6206" lon="2.02368">
        <ele>130</ele>
        <time>2026-05-24T11:57:59Z</time>
      </trkpt>
      <trkpt lat="48.62063" lon="2.02366">
        <ele>130</ele>
        <time>2026-05-24T11:58:00Z</time>
      </trkpt>
      <trkpt lat="48.62066" lon="2.02365">
        <ele>130</ele>
        <time>2026-05-24T11:58:01Z</time>
      </trkpt>
      <trkpt lat="48.62068" lon="2.02363">
        <ele>130.2</ele>
        <time>2026-05-24T11:58:02Z</time>
      </trkpt>
      <trkpt lat="48.62071" lon="2.02361">
        <ele>130.2</ele>
        <time>2026-05-24T11:58:03Z</time>
      </trkpt>
      <trkpt lat="48.62073" lon="2.02359">
        <ele>130.2</ele>
        <time>2026-05-24T11:58:04Z</time>
      </trkpt>
      <trkpt lat="48.62074" lon="2.02359">
        <ele>130</ele>
        <time>2026-05-24T11:58:05Z</time>
      </trkpt>
      <trkpt lat="48.62074" lon="2.02359">
        <ele>130</ele>
        <time>2026-05-24T11:58:06Z</time>
      </trkpt>
      <trkpt lat="48.62075" lon="2.02357">
        <ele>130</ele>
        <time>2026-05-24T11:58:07Z</time>
      </trkpt>
      <trkpt lat="48.62075" lon="2.02356">
        <ele>130</ele>
        <time>2026-05-24T11:58:08Z</time>
      </trkpt>
      <trkpt lat="48.62077" lon="2.02355">
        <ele>130</ele>
        <time>2026-05-24T11:58:09Z</time>
      </trkpt>
      <trkpt lat="48.62079" lon="2.02354">
        <ele>129.8</ele>
        <time>2026-05-24T11:58:10Z</time>
      </trkpt>
      <trkpt lat="48.62081" lon="2.02352">
        <ele>129.8</ele>
        <time>2026-05-24T11:58:11Z</time>
      </trkpt>
      <trkpt lat="48.62083" lon="2.0235">
        <ele>129.8</ele>
        <time>2026-05-24T11:58:12Z</time>
      </trkpt>
      <trkpt lat="48.62085" lon="2.02347">
        <ele>130.8</ele>
        <time>2026-05-24T11:58:13Z</time>
      </trkpt>
      <trkpt lat="48.62087" lon="2.02344">
        <ele>130.2</ele>
        <time>2026-05-24T11:58:14Z</time>
      </trkpt>
      <trkpt lat="48.6209" lon="2.02341">
        <ele>130.2</ele>
        <time>2026-05-24T11:58:15Z</time>
      </trkpt>
      <trkpt lat="48.62093" lon="2.02339">
        <ele>130.2</ele>
        <time>2026-05-24T11:58:16Z</time>
      </trkpt>
      <trkpt lat="48.62097" lon="2.02335">
        <ele>130.8</ele>
        <time>2026-05-24T11:58:17Z</time>
      </trkpt>
      <trkpt lat="48.621" lon="2.02332">
        <ele>130</ele>
        <time>2026-05-24T11:58:18Z</time>
      </trkpt>
      <trkpt lat="48.62104" lon="2.02328">
        <ele>130</ele>
        <time>2026-05-24T11:58:19Z</time>
      </trkpt>
      <trkpt lat="48.62107" lon="2.02324">
        <ele>130</ele>
        <time>2026-05-24T11:58:20Z</time>
      </trkpt>
      <trkpt lat="48.6211" lon="2.02319">
        <ele>131</ele>
        <time>2026-05-24T11:58:21Z</time>
      </trkpt>
      <trkpt lat="48.62113" lon="2.02315">
        <ele>131.2</ele>
        <time>2026-05-24T11:58:22Z</time>
      </trkpt>
      <trkpt lat="48.62117" lon="2.02312">
        <ele>131.2</ele>
        <time>2026-05-24T11:58:23Z</time>
      </trkpt>
      <trkpt lat="48.62121" lon="2.02308">
        <ele>131.2</ele>
        <time>2026-05-24T11:58:24Z</time>
      </trkpt>
      <trkpt lat="48.62125" lon="2.02305">
        <ele>131.4</ele>
        <time>2026-05-24T11:58:25Z</time>
      </trkpt>
      <trkpt lat="48.62128" lon="2.02301">
        <ele>131.4</ele>
        <time>2026-05-24T11:58:26Z</time>
      </trkpt>
      <trkpt lat="48.62131" lon="2.02297">
        <ele>131.4</ele>
        <time>2026-05-24T11:58:27Z</time>
      </trkpt>
      <trkpt lat="48.62134" lon="2.02292">
        <ele>131.4</ele>
        <time>2026-05-24T11:58:28Z</time>
      </trkpt>
      <trkpt lat="48.62136" lon="2.02288">
        <ele>131.8</ele>
        <time>2026-05-24T11:58:29Z</time>
      </trkpt>
      <trkpt lat="48.62138" lon="2.02284">
        <ele>131.4</ele>
        <time>2026-05-24T11:58:30Z</time>
      </trkpt>
      <trkpt lat="48.62141" lon="2.02279">
        <ele>131.4</ele>
        <time>2026-05-24T11:58:31Z</time>
      </trkpt>
      <trkpt lat="48.62143" lon="2.02275">
        <ele>131.4</ele>
        <time>2026-05-24T11:58:32Z</time>
      </trkpt>
      <trkpt lat="48.62146" lon="2.02271">
        <ele>132.4</ele>
        <time>2026-05-24T11:58:33Z</time>
      </trkpt>
      <trkpt lat="48.62148" lon="2.02266">
        <ele>132</ele>
        <time>2026-05-24T11:58:34Z</time>
      </trkpt>
      <trkpt lat="48.6215" lon="2.02262">
        <ele>132</ele>
        <time>2026-05-24T11:58:35Z</time>
      </trkpt>
      <trkpt lat="48.62152" lon="2.02256">
        <ele>132</ele>
        <time>2026-05-24T11:58:36Z</time>
      </trkpt>
      <trkpt lat="48.62155" lon="2.02251">
        <ele>132.6</ele>
        <time>2026-05-24T11:58:37Z</time>
      </trkpt>
      <trkpt lat="48.62158" lon="2.02246">
        <ele>132.6</ele>
        <time>2026-05-24T11:58:38Z</time>
      </trkpt>
      <trkpt lat="48.6216" lon="2.02241">
        <ele>132.6</ele>
        <time>2026-05-24T11:58:39Z</time>
      </trkpt>
      <trkpt lat="48.62163" lon="2.02236">
        <ele>132.6</ele>
        <time>2026-05-24T11:58:40Z</time>
      </trkpt>
      <trkpt lat="48.62166" lon="2.02232">
        <ele>132.6</ele>
        <time>2026-05-24T11:58:41Z</time>
      </trkpt>
      <trkpt lat="48.62169" lon="2.02229">
        <ele>133.4</ele>
        <time>2026-05-24T11:58:42Z</time>
      </trkpt>
      <trkpt lat="48.62173" lon="2.02225">
        <ele>133.4</ele>
        <time>2026-05-24T11:58:43Z</time>
      </trkpt>
      <trkpt lat="48.62176" lon="2.02223">
        <ele>133.4</ele>
        <time>2026-05-24T11:58:44Z</time>
      </trkpt>
      <trkpt lat="48.62179" lon="2.0222">
        <ele>133.4</ele>
        <time>2026-05-24T11:58:45Z</time>
      </trkpt>
      <trkpt lat="48.62182" lon="2.02216">
        <ele>133.6</ele>
        <time>2026-05-24T11:58:46Z</time>
      </trkpt>
      <trkpt lat="48.62182" lon="2.02211">
        <ele>133.6</ele>
        <time>2026-05-24T11:58:47Z</time>
      </trkpt>
      <trkpt lat="48.62183" lon="2.02206">
        <ele>133.6</ele>
        <time>2026-05-24T11:58:48Z</time>
      </trkpt>
      <trkpt lat="48.62184" lon="2.02201">
        <ele>134.2</ele>
        <time>2026-05-24T11:58:49Z</time>
      </trkpt>
      <trkpt lat="48.62185" lon="2.02195">
        <ele>134.2</ele>
        <time>2026-05-24T11:58:50Z</time>
      </trkpt>
      <trkpt lat="48.62186" lon="2.02189">
        <ele>134.2</ele>
        <time>2026-05-24T11:58:51Z</time>
      </trkpt>
      <trkpt lat="48.62187" lon="2.02183">
        <ele>134.2</ele>
        <time>2026-05-24T11:58:52Z</time>
      </trkpt>
      <trkpt lat="48.62188" lon="2.02177">
        <ele>134.2</ele>
        <time>2026-05-24T11:58:53Z</time>
      </trkpt>
      <trkpt lat="48.62188" lon="2.0217">
        <ele>134.4</ele>
        <time>2026-05-24T11:58:54Z</time>
      </trkpt>
      <trkpt lat="48.62189" lon="2.02163">
        <ele>134.4</ele>
        <time>2026-05-24T11:58:55Z</time>
      </trkpt>
      <trkpt lat="48.6219" lon="2.02157">
        <ele>134.4</ele>
        <time>2026-05-24T11:58:56Z</time>
      </trkpt>
      <trkpt lat="48.62191" lon="2.0215">
        <ele>134.4</ele>
        <time>2026-05-24T11:58:57Z</time>
      </trkpt>
      <trkpt lat="48.62192" lon="2.02143">
        <ele>134</ele>
        <time>2026-05-24T11:58:58Z</time>
      </trkpt>
      <trkpt lat="48.62193" lon="2.02136">
        <ele>134</ele>
        <time>2026-05-24T11:58:59Z</time>
      </trkpt>
      <trkpt lat="48.62194" lon="2.02129">
        <ele>134</ele>
        <time>2026-05-24T11:59:00Z</time>
      </trkpt>
      <trkpt lat="48.62195" lon="2.02122">
        <ele>134.4</ele>
        <time>2026-05-24T11:59:01Z</time>
      </trkpt>
      <trkpt lat="48.62195" lon="2.02114">
        <ele>134</ele>
        <time>2026-05-24T11:59:02Z</time>
      </trkpt>
      <trkpt lat="48.62196" lon="2.02107">
        <ele>134</ele>
        <time>2026-05-24T11:59:03Z</time>
      </trkpt>
      <trkpt lat="48.62197" lon="2.021">
        <ele>134</ele>
        <time>2026-05-24T11:59:04Z</time>
      </trkpt>
      <trkpt lat="48.62198" lon="2.02093">
        <ele>134</ele>
        <time>2026-05-24T11:59:05Z</time>
      </trkpt>
      <trkpt lat="48.62199" lon="2.02085">
        <ele>134</ele>
        <time>2026-05-24T11:59:06Z</time>
      </trkpt>
      <trkpt lat="48.622" lon="2.02078">
        <ele>134</ele>
        <time>2026-05-24T11:59:07Z</time>
      </trkpt>
      <trkpt lat="48.62201" lon="2.02071">
        <ele>134</ele>
        <time>2026-05-24T11:59:08Z</time>
      </trkpt>
      <trkpt lat="48.62201" lon="2.02063">
        <ele>134</ele>
        <time>2026-05-24T11:59:09Z</time>
      </trkpt>
      <trkpt lat="48.62202" lon="2.02056">
        <ele>134</ele>
        <time>2026-05-24T11:59:10Z</time>
      </trkpt>
      <trkpt lat="48.62203" lon="2.02049">
        <ele>134</ele>
        <time>2026-05-24T11:59:11Z</time>
      </trkpt>
      <trkpt lat="48.62204" lon="2.02043">
        <ele>134</ele>
        <time>2026-05-24T11:59:12Z</time>
      </trkpt>
      <trkpt lat="48.62204" lon="2.02036">
        <ele>134</ele>
        <time>2026-05-24T11:59:13Z</time>
      </trkpt>
      <trkpt lat="48.62205" lon="2.02029">
        <ele>134</ele>
        <time>2026-05-24T11:59:14Z</time>
      </trkpt>
      <trkpt lat="48.62206" lon="2.02022">
        <ele>134</ele>
        <time>2026-05-24T11:59:15Z</time>
      </trkpt>
      <trkpt lat="48.62207" lon="2.02015">
        <ele>134</ele>
        <time>2026-05-24T11:59:16Z</time>
      </trkpt>
      <trkpt lat="48.62208" lon="2.02007">
        <ele>134</ele>
        <time>2026-05-24T11:59:17Z</time>
      </trkpt>
      <trkpt lat="48.62209" lon="2.02">
        <ele>134.2</ele>
        <time>2026-05-24T11:59:18Z</time>
      </trkpt>
      <trkpt lat="48.6221" lon="2.01993">
        <ele>134.2</ele>
        <time>2026-05-24T11:59:19Z</time>
      </trkpt>
      <trkpt lat="48.6221" lon="2.01986">
        <ele>134.2</ele>
        <time>2026-05-24T11:59:20Z</time>
      </trkpt>
      <trkpt lat="48.62211" lon="2.01979">
        <ele>134.2</ele>
        <time>2026-05-24T11:59:21Z</time>
      </trkpt>
      <trkpt lat="48.62212" lon="2.01972">
        <ele>134.6</ele>
        <time>2026-05-24T11:59:22Z</time>
      </trkpt>
      <trkpt lat="48.62213" lon="2.01965">
        <ele>134.6</ele>
        <time>2026-05-24T11:59:23Z</time>
      </trkpt>
      <trkpt lat="48.62214" lon="2.01957">
        <ele>134.6</ele>
        <time>2026-05-24T11:59:24Z</time>
      </trkpt>
      <trkpt lat="48.62215" lon="2.01951">
        <ele>134.4</ele>
        <time>2026-05-24T11:59:25Z</time>
      </trkpt>
      <trkpt lat="48.62216" lon="2.01944">
        <ele>134.4</ele>
        <time>2026-05-24T11:59:26Z</time>
      </trkpt>
      <trkpt lat="48.62217" lon="2.01936">
        <ele>134.4</ele>
        <time>2026-05-24T11:59:27Z</time>
      </trkpt>
      <trkpt lat="48.62218" lon="2.01929">
        <ele>134.4</ele>
        <time>2026-05-24T11:59:28Z</time>
      </trkpt>
      <trkpt lat="48.62219" lon="2.01923">
        <ele>134.8</ele>
        <time>2026-05-24T11:59:29Z</time>
      </trkpt>
      <trkpt lat="48.62221" lon="2.01917">
        <ele>133.6</ele>
        <time>2026-05-24T11:59:30Z</time>
      </trkpt>
      <trkpt lat="48.62223" lon="2.01911">
        <ele>133.6</ele>
        <time>2026-05-24T11:59:31Z</time>
      </trkpt>
      <trkpt lat="48.62226" lon="2.01905">
        <ele>133.6</ele>
        <time>2026-05-24T11:59:32Z</time>
      </trkpt>
      <trkpt lat="48.62229" lon="2.01899">
        <ele>134.6</ele>
        <time>2026-05-24T11:59:33Z</time>
      </trkpt>
      <trkpt lat="48.62233" lon="2.01894">
        <ele>135</ele>
        <time>2026-05-24T11:59:34Z</time>
      </trkpt>
      <trkpt lat="48.62237" lon="2.0189">
        <ele>135</ele>
        <time>2026-05-24T11:59:35Z</time>
      </trkpt>
      <trkpt lat="48.62241" lon="2.01887">
        <ele>135</ele>
        <time>2026-05-24T11:59:36Z</time>
      </trkpt>
      <trkpt lat="48.62244" lon="2.01883">
        <ele>135</ele>
        <time>2026-05-24T11:59:37Z</time>
      </trkpt>
      <trkpt lat="48.62246" lon="2.01877">
        <ele>135.6</ele>
        <time>2026-05-24T11:59:38Z</time>
      </trkpt>
      <trkpt lat="48.62246" lon="2.0187">
        <ele>135.6</ele>
        <time>2026-05-24T11:59:39Z</time>
      </trkpt>
      <trkpt lat="48.62245" lon="2.01864">
        <ele>135.6</ele>
        <time>2026-05-24T11:59:40Z</time>
      </trkpt>
      <trkpt lat="48.62244" lon="2.01858">
        <ele>135.6</ele>
        <time>2026-05-24T11:59:41Z</time>
      </trkpt>
      <trkpt lat="48.62243" lon="2.01852">
        <ele>135.4</ele>
        <time>2026-05-24T11:59:42Z</time>
      </trkpt>
      <trkpt lat="48.62244" lon="2.01847">
        <ele>135.4</ele>
        <time>2026-05-24T11:59:43Z</time>
      </trkpt>
      <trkpt lat="48.62247" lon="2.01842">
        <ele>135.4</ele>
        <time>2026-05-24T11:59:44Z</time>
      </trkpt>
      <trkpt lat="48.6225" lon="2.01838">
        <ele>134.6</ele>
        <time>2026-05-24T11:59:45Z</time>
      </trkpt>
      <trkpt lat="48.62254" lon="2.01835">
        <ele>134.2</ele>
        <time>2026-05-24T11:59:46Z</time>
      </trkpt>
      <trkpt lat="48.62257" lon="2.01832">
        <ele>134.2</ele>
        <time>2026-05-24T11:59:47Z</time>
      </trkpt>
      <trkpt lat="48.62258" lon="2.01827">
        <ele>134.2</ele>
        <time>2026-05-24T11:59:48Z</time>
      </trkpt>
      <trkpt lat="48.62258" lon="2.01825">
        <ele>135.2</ele>
        <time>2026-05-24T11:59:49Z</time>
      </trkpt>
      <trkpt lat="48.62258" lon="2.01824">
        <ele>135.4</ele>
        <time>2026-05-24T11:59:50Z</time>
      </trkpt>
      <trkpt lat="48.62258" lon="2.01823">
        <ele>135.4</ele>
        <time>2026-05-24T11:59:51Z</time>
      </trkpt>
      <trkpt lat="48.62258" lon="2.01823">
        <ele>135.4</ele>
        <time>2026-05-24T11:59:52Z</time>
      </trkpt>
    </trkseg>
  </trk>
</gpx>